<?xml version="1.0" encoding="UTF-8"?>
<gpx version="1.1" creator="GPS Track Editor" xmlns="http://www.topografix.com/GPX/1/1" xmlns:xsi="http://www.w3.org/2001/XMLSchema-instance" xmlns:gte="http://www.gpstrackeditor.com/xmlschemas/General/1" xmlns:gpxtpx="http://www.garmin.com/xmlschemas/TrackPointExtension/v1" xmlns:gpxx="http://www.garmin.com/xmlschemas/GpxExtensions/v3" targetNamespace="http://www.topografix.com/GPX/1/1" elementFormDefault="qualified" xsi:schemaLocation="http://www.topografix.com/GPX/1/1 http://www.topografix.com/GPX/1/1/gpx.xsd">
<metadata>
	<name>Pino Hike.Jay.2015-03-08, 141500.gpx</name>
</metadata>
<trk>
	<name>2015-03-08, 134722</name>
	<trkseg>
		<trkpt lat="35.163514" lon="-106.470333">
			<ele>1927.44</ele>
			<time>2015-03-08T15:53:22Z</time>
			<fix>3d</fix>
		</trkpt>
		<trkpt lat="35.163525" lon="-106.470338">
			<ele>1927.24</ele>
			<time>2015-03-08T15:53:23Z</time>
			<fix>3d</fix>
		</trkpt>
		<trkpt lat="35.163538" lon="-106.470338">
			<ele>1927.24</ele>
			<time>2015-03-08T15:53:24Z</time>
			<fix>3d</fix>
		</trkpt>
		<trkpt lat="35.163546" lon="-106.470343">
			<ele>1927.24</ele>
			<time>2015-03-08T15:53:25Z</time>
			<fix>3d</fix>
		</trkpt>
		<trkpt lat="35.163555" lon="-106.470351">
			<ele>1927.14</ele>
			<time>2015-03-08T15:53:26Z</time>
			<fix>3d</fix>
		</trkpt>
		<trkpt lat="35.163565" lon="-106.470365">
			<ele>1927.14</ele>
			<time>2015-03-08T15:53:27Z</time>
			<fix>3d</fix>
		</trkpt>
		<trkpt lat="35.163572" lon="-106.470374">
			<ele>1927.14</ele>
			<time>2015-03-08T15:53:31Z</time>
			<fix>3d</fix>
		</trkpt>
		<trkpt lat="35.163563" lon="-106.470381">
			<ele>1927.14</ele>
			<time>2015-03-08T15:53:36Z</time>
			<fix>3d</fix>
		</trkpt>
		<trkpt lat="35.163557" lon="-106.470376">
			<ele>1927.04</ele>
			<time>2015-03-08T15:53:38Z</time>
			<fix>3d</fix>
		</trkpt>
		<trkpt lat="35.163551" lon="-106.470371">
			<ele>1927.04</ele>
			<time>2015-03-08T15:53:40Z</time>
			<fix>3d</fix>
		</trkpt>
		<trkpt lat="35.163543" lon="-106.470366">
			<ele>1927.04</ele>
			<time>2015-03-08T15:53:44Z</time>
			<fix>3d</fix>
		</trkpt>
		<trkpt lat="35.163535" lon="-106.470363">
			<ele>1927.04</ele>
			<time>2015-03-08T15:53:49Z</time>
			<fix>3d</fix>
		</trkpt>
		<trkpt lat="35.163528" lon="-106.470360">
			<ele>1970.14</ele>
			<time>2015-03-08T15:53:52Z</time>
			<fix>3d</fix>
		</trkpt>
		<trkpt lat="35.163521" lon="-106.470357">
			<ele>1970.14</ele>
			<time>2015-03-08T15:53:54Z</time>
			<fix>3d</fix>
		</trkpt>
		<trkpt lat="35.163515" lon="-106.470354">
			<ele>1970.22</ele>
			<time>2015-03-08T15:53:56Z</time>
			<fix>3d</fix>
		</trkpt>
		<trkpt lat="35.163509" lon="-106.470352">
			<ele>1970.20</ele>
			<time>2015-03-08T15:53:58Z</time>
			<fix>3d</fix>
		</trkpt>
		<trkpt lat="35.163501" lon="-106.470348">
			<ele>1970.18</ele>
			<time>2015-03-08T15:54:01Z</time>
			<fix>3d</fix>
		</trkpt>
		<trkpt lat="35.163494" lon="-106.470345">
			<ele>1970.15</ele>
			<time>2015-03-08T15:54:04Z</time>
			<fix>3d</fix>
		</trkpt>
		<trkpt lat="35.163488" lon="-106.470343">
			<ele>1970.03</ele>
			<time>2015-03-08T15:54:07Z</time>
			<fix>3d</fix>
		</trkpt>
		<trkpt lat="35.163481" lon="-106.470340">
			<ele>1970.01</ele>
			<time>2015-03-08T15:54:10Z</time>
			<fix>3d</fix>
		</trkpt>
		<trkpt lat="35.163479" lon="-106.470340">
			<ele>1970.00</ele>
			<time>2015-03-08T15:54:11Z</time>
			<fix>3d</fix>
		</trkpt>
		<trkpt lat="35.163410" lon="-106.470284">
			<ele>1969.83</ele>
			<time>2015-03-08T15:54:29Z</time>
			<fix>3d</fix>
		</trkpt>
		<trkpt lat="35.163408" lon="-106.470275">
			<ele>1969.84</ele>
			<time>2015-03-08T15:54:34Z</time>
			<fix>3d</fix>
		</trkpt>
		<trkpt lat="35.163403" lon="-106.470269">
			<ele>1969.91</ele>
			<time>2015-03-08T15:54:35Z</time>
			<fix>3d</fix>
		</trkpt>
		<trkpt lat="35.163395" lon="-106.470262">
			<ele>1970.01</ele>
			<time>2015-03-08T15:54:36Z</time>
			<fix>3d</fix>
		</trkpt>
		<trkpt lat="35.163383" lon="-106.470259">
			<ele>1970.09</ele>
			<time>2015-03-08T15:54:37Z</time>
			<fix>3d</fix>
		</trkpt>
		<trkpt lat="35.163370" lon="-106.470258">
			<ele>1970.08</ele>
			<time>2015-03-08T15:54:38Z</time>
			<fix>3d</fix>
		</trkpt>
		<trkpt lat="35.163359" lon="-106.470261">
			<ele>1970.05</ele>
			<time>2015-03-08T15:54:39Z</time>
			<fix>3d</fix>
		</trkpt>
		<trkpt lat="35.163355" lon="-106.470261">
			<ele>1970.13</ele>
			<time>2015-03-08T15:54:40Z</time>
			<fix>3d</fix>
		</trkpt>
		<trkpt lat="35.163345" lon="-106.470255">
			<ele>1970.12</ele>
			<time>2015-03-08T15:54:41Z</time>
			<fix>3d</fix>
		</trkpt>
		<trkpt lat="35.163339" lon="-106.470245">
			<ele>1970.21</ele>
			<time>2015-03-08T15:54:42Z</time>
			<fix>3d</fix>
		</trkpt>
		<trkpt lat="35.163334" lon="-106.470233">
			<ele>1970.29</ele>
			<time>2015-03-08T15:54:43Z</time>
			<fix>3d</fix>
		</trkpt>
		<trkpt lat="35.163331" lon="-106.470219">
			<ele>1970.26</ele>
			<time>2015-03-08T15:54:44Z</time>
			<fix>3d</fix>
		</trkpt>
		<trkpt lat="35.163325" lon="-106.470208">
			<ele>1970.24</ele>
			<time>2015-03-08T15:54:45Z</time>
			<fix>3d</fix>
		</trkpt>
		<trkpt lat="35.163312" lon="-106.470191">
			<ele>1970.28</ele>
			<time>2015-03-08T15:54:46Z</time>
			<fix>3d</fix>
		</trkpt>
		<trkpt lat="35.163301" lon="-106.470176">
			<ele>1970.21</ele>
			<time>2015-03-08T15:54:47Z</time>
			<fix>3d</fix>
		</trkpt>
		<trkpt lat="35.163298" lon="-106.470172">
			<ele>1970.14</ele>
			<time>2015-03-08T15:54:48Z</time>
			<fix>3d</fix>
		</trkpt>
		<trkpt lat="35.163290" lon="-106.470156">
			<ele>1970.08</ele>
			<time>2015-03-08T15:54:49Z</time>
			<fix>3d</fix>
		</trkpt>
		<trkpt lat="35.163282" lon="-106.470138">
			<ele>1970.10</ele>
			<time>2015-03-08T15:54:50Z</time>
			<fix>3d</fix>
		</trkpt>
		<trkpt lat="35.163283" lon="-106.470125">
			<ele>1970.02</ele>
			<time>2015-03-08T15:54:51Z</time>
			<fix>3d</fix>
		</trkpt>
		<trkpt lat="35.163284" lon="-106.470111">
			<ele>1969.95</ele>
			<time>2015-03-08T15:54:52Z</time>
			<fix>3d</fix>
		</trkpt>
		<trkpt lat="35.163288" lon="-106.470097">
			<ele>1969.88</ele>
			<time>2015-03-08T15:54:53Z</time>
			<fix>3d</fix>
		</trkpt>
		<trkpt lat="35.163290" lon="-106.470085">
			<ele>1969.92</ele>
			<time>2015-03-08T15:54:54Z</time>
			<fix>3d</fix>
		</trkpt>
		<trkpt lat="35.163291" lon="-106.470080">
			<ele>1969.87</ele>
			<time>2015-03-08T15:54:55Z</time>
			<fix>3d</fix>
		</trkpt>
		<trkpt lat="35.163305" lon="-106.470060">
			<ele>1969.73</ele>
			<time>2015-03-08T15:55:27Z</time>
			<fix>3d</fix>
		</trkpt>
		<trkpt lat="35.163307" lon="-106.470057">
			<ele>1969.63</ele>
			<time>2015-03-08T15:55:28Z</time>
			<fix>3d</fix>
		</trkpt>
		<trkpt lat="35.163313" lon="-106.470045">
			<ele>1969.64</ele>
			<time>2015-03-08T15:55:29Z</time>
			<fix>3d</fix>
		</trkpt>
		<trkpt lat="35.163316" lon="-106.470031">
			<ele>1969.75</ele>
			<time>2015-03-08T15:55:30Z</time>
			<fix>3d</fix>
		</trkpt>
		<trkpt lat="35.163317" lon="-106.470019">
			<ele>1969.76</ele>
			<time>2015-03-08T15:55:31Z</time>
			<fix>3d</fix>
		</trkpt>
		<trkpt lat="35.163320" lon="-106.470005">
			<ele>1969.77</ele>
			<time>2015-03-08T15:55:32Z</time>
			<fix>3d</fix>
		</trkpt>
		<trkpt lat="35.163320" lon="-106.470001">
			<ele>1969.78</ele>
			<time>2015-03-08T15:55:33Z</time>
			<fix>3d</fix>
		</trkpt>
		<trkpt lat="35.163319" lon="-106.469985">
			<ele>1969.80</ele>
			<time>2015-03-08T15:55:34Z</time>
			<fix>3d</fix>
		</trkpt>
		<trkpt lat="35.163318" lon="-106.469972">
			<ele>1969.82</ele>
			<time>2015-03-08T15:55:35Z</time>
			<fix>3d</fix>
		</trkpt>
		<trkpt lat="35.163320" lon="-106.469957">
			<ele>1969.94</ele>
			<time>2015-03-08T15:55:36Z</time>
			<fix>3d</fix>
		</trkpt>
		<trkpt lat="35.163321" lon="-106.469942">
			<ele>1970.25</ele>
			<time>2015-03-08T15:55:37Z</time>
			<fix>3d</fix>
		</trkpt>
		<trkpt lat="35.163323" lon="-106.469925">
			<ele>1970.36</ele>
			<time>2015-03-08T15:55:38Z</time>
			<fix>3d</fix>
		</trkpt>
		<trkpt lat="35.163324" lon="-106.469911">
			<ele>1970.37</ele>
			<time>2015-03-08T15:55:39Z</time>
			<fix>3d</fix>
		</trkpt>
		<trkpt lat="35.163326" lon="-106.469898">
			<ele>1970.57</ele>
			<time>2015-03-08T15:55:40Z</time>
			<fix>3d</fix>
		</trkpt>
		<trkpt lat="35.163329" lon="-106.469883">
			<ele>1970.48</ele>
			<time>2015-03-08T15:55:41Z</time>
			<fix>3d</fix>
		</trkpt>
		<trkpt lat="35.163333" lon="-106.469866">
			<ele>1970.68</ele>
			<time>2015-03-08T15:55:42Z</time>
			<fix>3d</fix>
		</trkpt>
		<trkpt lat="35.163334" lon="-106.469853">
			<ele>1970.69</ele>
			<time>2015-03-08T15:55:43Z</time>
			<fix>3d</fix>
		</trkpt>
		<trkpt lat="35.163340" lon="-106.469836">
			<ele>1970.80</ele>
			<time>2015-03-08T15:55:44Z</time>
			<fix>3d</fix>
		</trkpt>
		<trkpt lat="35.163343" lon="-106.469822">
			<ele>1970.91</ele>
			<time>2015-03-08T15:55:45Z</time>
			<fix>3d</fix>
		</trkpt>
		<trkpt lat="35.163350" lon="-106.469806">
			<ele>1970.91</ele>
			<time>2015-03-08T15:55:46Z</time>
			<fix>3d</fix>
		</trkpt>
		<trkpt lat="35.163354" lon="-106.469792">
			<ele>1971.02</ele>
			<time>2015-03-08T15:55:47Z</time>
			<fix>3d</fix>
		</trkpt>
		<trkpt lat="35.163355" lon="-106.469779">
			<ele>1971.12</ele>
			<time>2015-03-08T15:55:48Z</time>
			<fix>3d</fix>
		</trkpt>
		<trkpt lat="35.163359" lon="-106.469765">
			<ele>1971.42</ele>
			<time>2015-03-08T15:55:49Z</time>
			<fix>3d</fix>
		</trkpt>
		<trkpt lat="35.163362" lon="-106.469749">
			<ele>1971.42</ele>
			<time>2015-03-08T15:55:50Z</time>
			<fix>3d</fix>
		</trkpt>
		<trkpt lat="35.163364" lon="-106.469735">
			<ele>1971.42</ele>
			<time>2015-03-08T15:55:51Z</time>
			<fix>3d</fix>
		</trkpt>
		<trkpt lat="35.163367" lon="-106.469721">
			<ele>1971.43</ele>
			<time>2015-03-08T15:55:52Z</time>
			<fix>3d</fix>
		</trkpt>
		<trkpt lat="35.163374" lon="-106.469705">
			<ele>1971.54</ele>
			<time>2015-03-08T15:55:53Z</time>
			<fix>3d</fix>
		</trkpt>
		<trkpt lat="35.163376" lon="-106.469689">
			<ele>1971.65</ele>
			<time>2015-03-08T15:55:54Z</time>
			<fix>3d</fix>
		</trkpt>
		<trkpt lat="35.163378" lon="-106.469674">
			<ele>1971.76</ele>
			<time>2015-03-08T15:55:55Z</time>
			<fix>3d</fix>
		</trkpt>
		<trkpt lat="35.163378" lon="-106.469670">
			<ele>1971.77</ele>
			<time>2015-03-08T15:55:56Z</time>
			<fix>3d</fix>
		</trkpt>
		<trkpt lat="35.163383" lon="-106.469656">
			<ele>1971.78</ele>
			<time>2015-03-08T15:55:57Z</time>
			<fix>3d</fix>
		</trkpt>
		<trkpt lat="35.163388" lon="-106.469646">
			<ele>1971.89</ele>
			<time>2015-03-08T15:55:58Z</time>
			<fix>3d</fix>
		</trkpt>
		<trkpt lat="35.163393" lon="-106.469636">
			<ele>1972.00</ele>
			<time>2015-03-08T15:55:59Z</time>
			<fix>3d</fix>
		</trkpt>
		<trkpt lat="35.163395" lon="-106.469633">
			<ele>1972.11</ele>
			<time>2015-03-08T15:56:00Z</time>
			<fix>3d</fix>
		</trkpt>
		<trkpt lat="35.163400" lon="-106.469619">
			<ele>1972.13</ele>
			<time>2015-03-08T15:56:01Z</time>
			<fix>3d</fix>
		</trkpt>
		<trkpt lat="35.163403" lon="-106.469604">
			<ele>1972.15</ele>
			<time>2015-03-08T15:56:02Z</time>
			<fix>3d</fix>
		</trkpt>
		<trkpt lat="35.163403" lon="-106.469599">
			<ele>1972.16</ele>
			<time>2015-03-08T15:56:03Z</time>
			<fix>3d</fix>
		</trkpt>
		<trkpt lat="35.163403" lon="-106.469577">
			<ele>1972.38</ele>
			<time>2015-03-08T15:56:04Z</time>
			<fix>3d</fix>
		</trkpt>
		<trkpt lat="35.163401" lon="-106.469563">
			<ele>1972.40</ele>
			<time>2015-03-08T15:56:05Z</time>
			<fix>3d</fix>
		</trkpt>
		<trkpt lat="35.163397" lon="-106.469549">
			<ele>1972.32</ele>
			<time>2015-03-08T15:56:06Z</time>
			<fix>3d</fix>
		</trkpt>
		<trkpt lat="35.163395" lon="-106.469532">
			<ele>1972.25</ele>
			<time>2015-03-08T15:56:07Z</time>
			<fix>3d</fix>
		</trkpt>
		<trkpt lat="35.163395" lon="-106.469519">
			<ele>1972.66</ele>
			<time>2015-03-08T15:56:08Z</time>
			<fix>3d</fix>
		</trkpt>
		<trkpt lat="35.163394" lon="-106.469505">
			<ele>1972.98</ele>
			<time>2015-03-08T15:56:09Z</time>
			<fix>3d</fix>
		</trkpt>
		<trkpt lat="35.163393" lon="-106.469491">
			<ele>1973.00</ele>
			<time>2015-03-08T15:56:10Z</time>
			<fix>3d</fix>
		</trkpt>
		<trkpt lat="35.163389" lon="-106.469477">
			<ele>1973.02</ele>
			<time>2015-03-08T15:56:11Z</time>
			<fix>3d</fix>
		</trkpt>
		<trkpt lat="35.163385" lon="-106.469460">
			<ele>1973.05</ele>
			<time>2015-03-08T15:56:12Z</time>
			<fix>3d</fix>
		</trkpt>
		<trkpt lat="35.163381" lon="-106.469446">
			<ele>1973.07</ele>
			<time>2015-03-08T15:56:13Z</time>
			<fix>3d</fix>
		</trkpt>
		<trkpt lat="35.163378" lon="-106.469431">
			<ele>1973.30</ele>
			<time>2015-03-08T15:56:14Z</time>
			<fix>3d</fix>
		</trkpt>
		<trkpt lat="35.163374" lon="-106.469418">
			<ele>1973.52</ele>
			<time>2015-03-08T15:56:15Z</time>
			<fix>3d</fix>
		</trkpt>
		<trkpt lat="35.163371" lon="-106.469402">
			<ele>1973.54</ele>
			<time>2015-03-08T15:56:16Z</time>
			<fix>3d</fix>
		</trkpt>
		<trkpt lat="35.163369" lon="-106.469384">
			<ele>1973.57</ele>
			<time>2015-03-08T15:56:17Z</time>
			<fix>3d</fix>
		</trkpt>
		<trkpt lat="35.163367" lon="-106.469372">
			<ele>1973.70</ele>
			<time>2015-03-08T15:56:18Z</time>
			<fix>3d</fix>
		</trkpt>
		<trkpt lat="35.163368" lon="-106.469359">
			<ele>1973.72</ele>
			<time>2015-03-08T15:56:19Z</time>
			<fix>3d</fix>
		</trkpt>
		<trkpt lat="35.163369" lon="-106.469344">
			<ele>1973.75</ele>
			<time>2015-03-08T15:56:20Z</time>
			<fix>3d</fix>
		</trkpt>
		<trkpt lat="35.163370" lon="-106.469331">
			<ele>1973.78</ele>
			<time>2015-03-08T15:56:21Z</time>
			<fix>3d</fix>
		</trkpt>
		<trkpt lat="35.163375" lon="-106.469315">
			<ele>1973.81</ele>
			<time>2015-03-08T15:56:22Z</time>
			<fix>3d</fix>
		</trkpt>
		<trkpt lat="35.163377" lon="-106.469302">
			<ele>1973.94</ele>
			<time>2015-03-08T15:56:23Z</time>
			<fix>3d</fix>
		</trkpt>
		<trkpt lat="35.163382" lon="-106.469289">
			<ele>1973.97</ele>
			<time>2015-03-08T15:56:24Z</time>
			<fix>3d</fix>
		</trkpt>
		<trkpt lat="35.163386" lon="-106.469276">
			<ele>1974.01</ele>
			<time>2015-03-08T15:56:25Z</time>
			<fix>3d</fix>
		</trkpt>
		<trkpt lat="35.163389" lon="-106.469263">
			<ele>1974.04</ele>
			<time>2015-03-08T15:56:26Z</time>
			<fix>3d</fix>
		</trkpt>
		<trkpt lat="35.163392" lon="-106.469249">
			<ele>1974.17</ele>
			<time>2015-03-08T15:56:27Z</time>
			<fix>3d</fix>
		</trkpt>
		<trkpt lat="35.163392" lon="-106.469236">
			<ele>1974.20</ele>
			<time>2015-03-08T15:56:28Z</time>
			<fix>3d</fix>
		</trkpt>
		<trkpt lat="35.163393" lon="-106.469221">
			<ele>1974.33</ele>
			<time>2015-03-08T15:56:29Z</time>
			<fix>3d</fix>
		</trkpt>
		<trkpt lat="35.163394" lon="-106.469207">
			<ele>1974.36</ele>
			<time>2015-03-08T15:56:30Z</time>
			<fix>3d</fix>
		</trkpt>
		<trkpt lat="35.163397" lon="-106.469187">
			<ele>1974.48</ele>
			<time>2015-03-08T15:56:31Z</time>
			<fix>3d</fix>
		</trkpt>
		<trkpt lat="35.163400" lon="-106.469177">
			<ele>1974.61</ele>
			<time>2015-03-08T15:56:32Z</time>
			<fix>3d</fix>
		</trkpt>
		<trkpt lat="35.163407" lon="-106.469162">
			<ele>1974.64</ele>
			<time>2015-03-08T15:56:33Z</time>
			<fix>3d</fix>
		</trkpt>
		<trkpt lat="35.163413" lon="-106.469149">
			<ele>1974.86</ele>
			<time>2015-03-08T15:56:34Z</time>
			<fix>3d</fix>
		</trkpt>
		<trkpt lat="35.163418" lon="-106.469136">
			<ele>1974.89</ele>
			<time>2015-03-08T15:56:35Z</time>
			<fix>3d</fix>
		</trkpt>
		<trkpt lat="35.163422" lon="-106.469120">
			<ele>1974.91</ele>
			<time>2015-03-08T15:56:36Z</time>
			<fix>3d</fix>
		</trkpt>
		<trkpt lat="35.163426" lon="-106.469105">
			<ele>1975.04</ele>
			<time>2015-03-08T15:56:37Z</time>
			<fix>3d</fix>
		</trkpt>
		<trkpt lat="35.163430" lon="-106.469090">
			<ele>1975.07</ele>
			<time>2015-03-08T15:56:38Z</time>
			<fix>3d</fix>
		</trkpt>
		<trkpt lat="35.163433" lon="-106.469077">
			<ele>1975.20</ele>
			<time>2015-03-08T15:56:39Z</time>
			<fix>3d</fix>
		</trkpt>
		<trkpt lat="35.163442" lon="-106.469061">
			<ele>1975.23</ele>
			<time>2015-03-08T15:56:40Z</time>
			<fix>3d</fix>
		</trkpt>
		<trkpt lat="35.163445" lon="-106.469050">
			<ele>1975.56</ele>
			<time>2015-03-08T15:56:41Z</time>
			<fix>3d</fix>
		</trkpt>
		<trkpt lat="35.163448" lon="-106.469037">
			<ele>1975.59</ele>
			<time>2015-03-08T15:56:42Z</time>
			<fix>3d</fix>
		</trkpt>
		<trkpt lat="35.163454" lon="-106.469024">
			<ele>1975.72</ele>
			<time>2015-03-08T15:56:43Z</time>
			<fix>3d</fix>
		</trkpt>
		<trkpt lat="35.163458" lon="-106.469012">
			<ele>1976.05</ele>
			<time>2015-03-08T15:56:44Z</time>
			<fix>3d</fix>
		</trkpt>
		<trkpt lat="35.163459" lon="-106.469000">
			<ele>1976.58</ele>
			<time>2015-03-08T15:56:45Z</time>
			<fix>3d</fix>
		</trkpt>
		<trkpt lat="35.163462" lon="-106.468984">
			<ele>1976.60</ele>
			<time>2015-03-08T15:56:46Z</time>
			<fix>3d</fix>
		</trkpt>
		<trkpt lat="35.163464" lon="-106.468970">
			<ele>1976.62</ele>
			<time>2015-03-08T15:56:47Z</time>
			<fix>3d</fix>
		</trkpt>
		<trkpt lat="35.163468" lon="-106.468957">
			<ele>1976.65</ele>
			<time>2015-03-08T15:56:48Z</time>
			<fix>3d</fix>
		</trkpt>
		<trkpt lat="35.163474" lon="-106.468945">
			<ele>1976.67</ele>
			<time>2015-03-08T15:56:49Z</time>
			<fix>3d</fix>
		</trkpt>
		<trkpt lat="35.163480" lon="-106.468933">
			<ele>1976.70</ele>
			<time>2015-03-08T15:56:50Z</time>
			<fix>3d</fix>
		</trkpt>
		<trkpt lat="35.163485" lon="-106.468920">
			<ele>1976.82</ele>
			<time>2015-03-08T15:56:51Z</time>
			<fix>3d</fix>
		</trkpt>
		<trkpt lat="35.163493" lon="-106.468903">
			<ele>1976.94</ele>
			<time>2015-03-08T15:56:52Z</time>
			<fix>3d</fix>
		</trkpt>
		<trkpt lat="35.163499" lon="-106.468890">
			<ele>1976.86</ele>
			<time>2015-03-08T15:56:53Z</time>
			<fix>3d</fix>
		</trkpt>
		<trkpt lat="35.163504" lon="-106.468871">
			<ele>1976.99</ele>
			<time>2015-03-08T15:56:54Z</time>
			<fix>3d</fix>
		</trkpt>
		<trkpt lat="35.163513" lon="-106.468860">
			<ele>1977.21</ele>
			<time>2015-03-08T15:56:55Z</time>
			<fix>3d</fix>
		</trkpt>
		<trkpt lat="35.163518" lon="-106.468848">
			<ele>1977.33</ele>
			<time>2015-03-08T15:56:56Z</time>
			<fix>3d</fix>
		</trkpt>
		<trkpt lat="35.163525" lon="-106.468837">
			<ele>1977.35</ele>
			<time>2015-03-08T15:56:57Z</time>
			<fix>3d</fix>
		</trkpt>
		<trkpt lat="35.163531" lon="-106.468826">
			<ele>1977.37</ele>
			<time>2015-03-08T15:56:58Z</time>
			<fix>3d</fix>
		</trkpt>
		<trkpt lat="35.163535" lon="-106.468816">
			<ele>1977.40</ele>
			<time>2015-03-08T15:56:59Z</time>
			<fix>3d</fix>
		</trkpt>
		<trkpt lat="35.163540" lon="-106.468804">
			<ele>1977.43</ele>
			<time>2015-03-08T15:57:00Z</time>
			<fix>3d</fix>
		</trkpt>
		<trkpt lat="35.163545" lon="-106.468782">
			<ele>1977.65</ele>
			<time>2015-03-08T15:57:01Z</time>
			<fix>3d</fix>
		</trkpt>
		<trkpt lat="35.163548" lon="-106.468772">
			<ele>1977.98</ele>
			<time>2015-03-08T15:57:02Z</time>
			<fix>3d</fix>
		</trkpt>
		<trkpt lat="35.163554" lon="-106.468757">
			<ele>1978.10</ele>
			<time>2015-03-08T15:57:03Z</time>
			<fix>3d</fix>
		</trkpt>
		<trkpt lat="35.163557" lon="-106.468742">
			<ele>1978.13</ele>
			<time>2015-03-08T15:57:04Z</time>
			<fix>3d</fix>
		</trkpt>
		<trkpt lat="35.163559" lon="-106.468728">
			<ele>1978.26</ele>
			<time>2015-03-08T15:57:05Z</time>
			<fix>3d</fix>
		</trkpt>
		<trkpt lat="35.163564" lon="-106.468710">
			<ele>1978.28</ele>
			<time>2015-03-08T15:57:06Z</time>
			<fix>3d</fix>
		</trkpt>
		<trkpt lat="35.163566" lon="-106.468696">
			<ele>1978.41</ele>
			<time>2015-03-08T15:57:07Z</time>
			<fix>3d</fix>
		</trkpt>
		<trkpt lat="35.163573" lon="-106.468680">
			<ele>1979.58</ele>
			<time>2015-03-08T15:57:08Z</time>
			<fix>3d</fix>
		</trkpt>
		<trkpt lat="35.163578" lon="-106.468666">
			<ele>1980.21</ele>
			<time>2015-03-08T15:57:09Z</time>
			<fix>3d</fix>
		</trkpt>
		<trkpt lat="35.163582" lon="-106.468653">
			<ele>1980.33</ele>
			<time>2015-03-08T15:57:10Z</time>
			<fix>3d</fix>
		</trkpt>
		<trkpt lat="35.163585" lon="-106.468639">
			<ele>1980.35</ele>
			<time>2015-03-08T15:57:11Z</time>
			<fix>3d</fix>
		</trkpt>
		<trkpt lat="35.163587" lon="-106.468624">
			<ele>1980.38</ele>
			<time>2015-03-08T15:57:12Z</time>
			<fix>3d</fix>
		</trkpt>
		<trkpt lat="35.163588" lon="-106.468612">
			<ele>1980.40</ele>
			<time>2015-03-08T15:57:13Z</time>
			<fix>3d</fix>
		</trkpt>
		<trkpt lat="35.163595" lon="-106.468599">
			<ele>1980.53</ele>
			<time>2015-03-08T15:57:14Z</time>
			<fix>3d</fix>
		</trkpt>
		<trkpt lat="35.163597" lon="-106.468587">
			<ele>1980.56</ele>
			<time>2015-03-08T15:57:15Z</time>
			<fix>3d</fix>
		</trkpt>
		<trkpt lat="35.163601" lon="-106.468573">
			<ele>1980.68</ele>
			<time>2015-03-08T15:57:16Z</time>
			<fix>3d</fix>
		</trkpt>
		<trkpt lat="35.163609" lon="-106.468558">
			<ele>1980.91</ele>
			<time>2015-03-08T15:57:17Z</time>
			<fix>3d</fix>
		</trkpt>
		<trkpt lat="35.163615" lon="-106.468544">
			<ele>1980.93</ele>
			<time>2015-03-08T15:57:18Z</time>
			<fix>3d</fix>
		</trkpt>
		<trkpt lat="35.163618" lon="-106.468532">
			<ele>1981.06</ele>
			<time>2015-03-08T15:57:19Z</time>
			<fix>3d</fix>
		</trkpt>
		<trkpt lat="35.163626" lon="-106.468517">
			<ele>1981.09</ele>
			<time>2015-03-08T15:57:20Z</time>
			<fix>3d</fix>
		</trkpt>
		<trkpt lat="35.163630" lon="-106.468503">
			<ele>1981.12</ele>
			<time>2015-03-08T15:57:21Z</time>
			<fix>3d</fix>
		</trkpt>
		<trkpt lat="35.163633" lon="-106.468491">
			<ele>1981.15</ele>
			<time>2015-03-08T15:57:22Z</time>
			<fix>3d</fix>
		</trkpt>
		<trkpt lat="35.163637" lon="-106.468478">
			<ele>1981.18</ele>
			<time>2015-03-08T15:57:23Z</time>
			<fix>3d</fix>
		</trkpt>
		<trkpt lat="35.163641" lon="-106.468465">
			<ele>1981.21</ele>
			<time>2015-03-08T15:57:24Z</time>
			<fix>3d</fix>
		</trkpt>
		<trkpt lat="35.163648" lon="-106.468451">
			<ele>1981.34</ele>
			<time>2015-03-08T15:57:25Z</time>
			<fix>3d</fix>
		</trkpt>
		<trkpt lat="35.163652" lon="-106.468439">
			<ele>1981.37</ele>
			<time>2015-03-08T15:57:26Z</time>
			<fix>3d</fix>
		</trkpt>
		<trkpt lat="35.163653" lon="-106.468427">
			<ele>1981.39</ele>
			<time>2015-03-08T15:57:27Z</time>
			<fix>3d</fix>
		</trkpt>
		<trkpt lat="35.163655" lon="-106.468414">
			<ele>1981.42</ele>
			<time>2015-03-08T15:57:28Z</time>
			<fix>3d</fix>
		</trkpt>
		<trkpt lat="35.163658" lon="-106.468398">
			<ele>1981.55</ele>
			<time>2015-03-08T15:57:29Z</time>
			<fix>3d</fix>
		</trkpt>
		<trkpt lat="35.163661" lon="-106.468383">
			<ele>1981.77</ele>
			<time>2015-03-08T15:57:30Z</time>
			<fix>3d</fix>
		</trkpt>
		<trkpt lat="35.163663" lon="-106.468367">
			<ele>1981.90</ele>
			<time>2015-03-08T15:57:31Z</time>
			<fix>3d</fix>
		</trkpt>
		<trkpt lat="35.163664" lon="-106.468354">
			<ele>1981.92</ele>
			<time>2015-03-08T15:57:32Z</time>
			<fix>3d</fix>
		</trkpt>
		<trkpt lat="35.163666" lon="-106.468338">
			<ele>1982.05</ele>
			<time>2015-03-08T15:57:33Z</time>
			<fix>3d</fix>
		</trkpt>
		<trkpt lat="35.163668" lon="-106.468324">
			<ele>1982.07</ele>
			<time>2015-03-08T15:57:34Z</time>
			<fix>3d</fix>
		</trkpt>
		<trkpt lat="35.163671" lon="-106.468309">
			<ele>1982.10</ele>
			<time>2015-03-08T15:57:35Z</time>
			<fix>3d</fix>
		</trkpt>
		<trkpt lat="35.163675" lon="-106.468295">
			<ele>1982.22</ele>
			<time>2015-03-08T15:57:36Z</time>
			<fix>3d</fix>
		</trkpt>
		<trkpt lat="35.163676" lon="-106.468281">
			<ele>1982.25</ele>
			<time>2015-03-08T15:57:37Z</time>
			<fix>3d</fix>
		</trkpt>
		<trkpt lat="35.163679" lon="-106.468267">
			<ele>1982.27</ele>
			<time>2015-03-08T15:57:38Z</time>
			<fix>3d</fix>
		</trkpt>
		<trkpt lat="35.163686" lon="-106.468253">
			<ele>1982.68</ele>
			<time>2015-03-08T15:57:39Z</time>
			<fix>3d</fix>
		</trkpt>
		<trkpt lat="35.163691" lon="-106.468240">
			<ele>1983.00</ele>
			<time>2015-03-08T15:57:40Z</time>
			<fix>3d</fix>
		</trkpt>
		<trkpt lat="35.163692" lon="-106.468226">
			<ele>1983.11</ele>
			<time>2015-03-08T15:57:41Z</time>
			<fix>3d</fix>
		</trkpt>
		<trkpt lat="35.163694" lon="-106.468213">
			<ele>1983.11</ele>
			<time>2015-03-08T15:57:42Z</time>
			<fix>3d</fix>
		</trkpt>
		<trkpt lat="35.163699" lon="-106.468189">
			<ele>1983.12</ele>
			<time>2015-03-08T15:57:43Z</time>
			<fix>3d</fix>
		</trkpt>
		<trkpt lat="35.163700" lon="-106.468171">
			<ele>1983.13</ele>
			<time>2015-03-08T15:57:44Z</time>
			<fix>3d</fix>
		</trkpt>
		<trkpt lat="35.163702" lon="-106.468152">
			<ele>1983.14</ele>
			<time>2015-03-08T15:57:45Z</time>
			<fix>3d</fix>
		</trkpt>
		<trkpt lat="35.163703" lon="-106.468136">
			<ele>1983.15</ele>
			<time>2015-03-08T15:57:46Z</time>
			<fix>3d</fix>
		</trkpt>
		<trkpt lat="35.163704" lon="-106.468121">
			<ele>1983.16</ele>
			<time>2015-03-08T15:57:47Z</time>
			<fix>3d</fix>
		</trkpt>
		<trkpt lat="35.163705" lon="-106.468106">
			<ele>1983.16</ele>
			<time>2015-03-08T15:57:48Z</time>
			<fix>3d</fix>
		</trkpt>
		<trkpt lat="35.163706" lon="-106.468091">
			<ele>1983.17</ele>
			<time>2015-03-08T15:57:49Z</time>
			<fix>3d</fix>
		</trkpt>
		<trkpt lat="35.163705" lon="-106.468078">
			<ele>1983.17</ele>
			<time>2015-03-08T15:57:50Z</time>
			<fix>3d</fix>
		</trkpt>
		<trkpt lat="35.163707" lon="-106.468063">
			<ele>1983.27</ele>
			<time>2015-03-08T15:57:51Z</time>
			<fix>3d</fix>
		</trkpt>
		<trkpt lat="35.163708" lon="-106.468050">
			<ele>1983.27</ele>
			<time>2015-03-08T15:57:52Z</time>
			<fix>3d</fix>
		</trkpt>
		<trkpt lat="35.163710" lon="-106.468037">
			<ele>1983.47</ele>
			<time>2015-03-08T15:57:53Z</time>
			<fix>3d</fix>
		</trkpt>
		<trkpt lat="35.163711" lon="-106.468027">
			<ele>1983.57</ele>
			<time>2015-03-08T15:57:55Z</time>
			<fix>3d</fix>
		</trkpt>
		<trkpt lat="35.163714" lon="-106.468020">
			<ele>1983.67</ele>
			<time>2015-03-08T15:57:56Z</time>
			<fix>3d</fix>
		</trkpt>
		<trkpt lat="35.163722" lon="-106.467995">
			<ele>1983.76</ele>
			<time>2015-03-08T15:57:57Z</time>
			<fix>3d</fix>
		</trkpt>
		<trkpt lat="35.163726" lon="-106.467983">
			<ele>1983.76</ele>
			<time>2015-03-08T15:57:58Z</time>
			<fix>3d</fix>
		</trkpt>
		<trkpt lat="35.163728" lon="-106.467972">
			<ele>1983.75</ele>
			<time>2015-03-08T15:57:59Z</time>
			<fix>3d</fix>
		</trkpt>
		<trkpt lat="35.163733" lon="-106.467961">
			<ele>1983.85</ele>
			<time>2015-03-08T15:58:00Z</time>
			<fix>3d</fix>
		</trkpt>
		<trkpt lat="35.163743" lon="-106.467945">
			<ele>1983.85</ele>
			<time>2015-03-08T15:58:01Z</time>
			<fix>3d</fix>
		</trkpt>
		<trkpt lat="35.163749" lon="-106.467923">
			<ele>1983.94</ele>
			<time>2015-03-08T15:58:02Z</time>
			<fix>3d</fix>
		</trkpt>
		<trkpt lat="35.163751" lon="-106.467901">
			<ele>1983.94</ele>
			<time>2015-03-08T15:58:03Z</time>
			<fix>3d</fix>
		</trkpt>
		<trkpt lat="35.163750" lon="-106.467879">
			<ele>1984.04</ele>
			<time>2015-03-08T15:58:04Z</time>
			<fix>3d</fix>
		</trkpt>
		<trkpt lat="35.163748" lon="-106.467858">
			<ele>1984.03</ele>
			<time>2015-03-08T15:58:05Z</time>
			<fix>3d</fix>
		</trkpt>
		<trkpt lat="35.163749" lon="-106.467840">
			<ele>1984.03</ele>
			<time>2015-03-08T15:58:06Z</time>
			<fix>3d</fix>
		</trkpt>
		<trkpt lat="35.163749" lon="-106.467823">
			<ele>1984.13</ele>
			<time>2015-03-08T15:58:07Z</time>
			<fix>3d</fix>
		</trkpt>
		<trkpt lat="35.163750" lon="-106.467807">
			<ele>1984.13</ele>
			<time>2015-03-08T15:58:08Z</time>
			<fix>3d</fix>
		</trkpt>
		<trkpt lat="35.163749" lon="-106.467794">
			<ele>1984.23</ele>
			<time>2015-03-08T15:58:09Z</time>
			<fix>3d</fix>
		</trkpt>
		<trkpt lat="35.163749" lon="-106.467784">
			<ele>1984.33</ele>
			<time>2015-03-08T15:58:10Z</time>
			<fix>3d</fix>
		</trkpt>
		<trkpt lat="35.163749" lon="-106.467774">
			<ele>1984.83</ele>
			<time>2015-03-08T15:58:11Z</time>
			<fix>3d</fix>
		</trkpt>
		<trkpt lat="35.163749" lon="-106.467763">
			<ele>1985.12</ele>
			<time>2015-03-08T15:58:12Z</time>
			<fix>3d</fix>
		</trkpt>
		<trkpt lat="35.163746" lon="-106.467755">
			<ele>1985.11</ele>
			<time>2015-03-08T15:58:14Z</time>
			<fix>3d</fix>
		</trkpt>
		<trkpt lat="35.163747" lon="-106.467749">
			<ele>1985.01</ele>
			<time>2015-03-08T15:58:15Z</time>
			<fix>3d</fix>
		</trkpt>
		<trkpt lat="35.163748" lon="-106.467741">
			<ele>1985.01</ele>
			<time>2015-03-08T15:58:16Z</time>
			<fix>3d</fix>
		</trkpt>
		<trkpt lat="35.163749" lon="-106.467734">
			<ele>1985.10</ele>
			<time>2015-03-08T15:58:17Z</time>
			<fix>3d</fix>
		</trkpt>
		<trkpt lat="35.163752" lon="-106.467725">
			<ele>1985.10</ele>
			<time>2015-03-08T15:58:18Z</time>
			<fix>3d</fix>
		</trkpt>
		<trkpt lat="35.163762" lon="-106.467698">
			<ele>1985.20</ele>
			<time>2015-03-08T15:58:19Z</time>
			<fix>3d</fix>
		</trkpt>
		<trkpt lat="35.163762" lon="-106.467685">
			<ele>1985.30</ele>
			<time>2015-03-08T15:58:20Z</time>
			<fix>3d</fix>
		</trkpt>
		<trkpt lat="35.163761" lon="-106.467670">
			<ele>1985.30</ele>
			<time>2015-03-08T15:58:21Z</time>
			<fix>3d</fix>
		</trkpt>
		<trkpt lat="35.163762" lon="-106.467650">
			<ele>1985.30</ele>
			<time>2015-03-08T15:58:22Z</time>
			<fix>3d</fix>
		</trkpt>
		<trkpt lat="35.163761" lon="-106.467630">
			<ele>1985.40</ele>
			<time>2015-03-08T15:58:23Z</time>
			<fix>3d</fix>
		</trkpt>
		<trkpt lat="35.163761" lon="-106.467611">
			<ele>1985.40</ele>
			<time>2015-03-08T15:58:24Z</time>
			<fix>3d</fix>
		</trkpt>
		<trkpt lat="35.163763" lon="-106.467590">
			<ele>1985.60</ele>
			<time>2015-03-08T15:58:25Z</time>
			<fix>3d</fix>
		</trkpt>
		<trkpt lat="35.163762" lon="-106.467564">
			<ele>1985.60</ele>
			<time>2015-03-08T15:58:26Z</time>
			<fix>3d</fix>
		</trkpt>
		<trkpt lat="35.163760" lon="-106.467540">
			<ele>1985.70</ele>
			<time>2015-03-08T15:58:27Z</time>
			<fix>3d</fix>
		</trkpt>
		<trkpt lat="35.163755" lon="-106.467515">
			<ele>1985.90</ele>
			<time>2015-03-08T15:58:28Z</time>
			<fix>3d</fix>
		</trkpt>
		<trkpt lat="35.163748" lon="-106.467489">
			<ele>1985.90</ele>
			<time>2015-03-08T15:58:29Z</time>
			<fix>3d</fix>
		</trkpt>
		<trkpt lat="35.163740" lon="-106.467464">
			<ele>1985.90</ele>
			<time>2015-03-08T15:58:30Z</time>
			<fix>3d</fix>
		</trkpt>
		<trkpt lat="35.163734" lon="-106.467444">
			<ele>1985.90</ele>
			<time>2015-03-08T15:58:31Z</time>
			<fix>3d</fix>
		</trkpt>
		<trkpt lat="35.163730" lon="-106.467420">
			<ele>1986.00</ele>
			<time>2015-03-08T15:58:32Z</time>
			<fix>3d</fix>
		</trkpt>
		<trkpt lat="35.163726" lon="-106.467400">
			<ele>1986.00</ele>
			<time>2015-03-08T15:58:33Z</time>
			<fix>3d</fix>
		</trkpt>
		<trkpt lat="35.163722" lon="-106.467382">
			<ele>1986.01</ele>
			<time>2015-03-08T15:58:34Z</time>
			<fix>3d</fix>
		</trkpt>
		<trkpt lat="35.163717" lon="-106.467368">
			<ele>1986.11</ele>
			<time>2015-03-08T15:58:35Z</time>
			<fix>3d</fix>
		</trkpt>
		<trkpt lat="35.163713" lon="-106.467353">
			<ele>1986.12</ele>
			<time>2015-03-08T15:58:36Z</time>
			<fix>3d</fix>
		</trkpt>
		<trkpt lat="35.163712" lon="-106.467340">
			<ele>1986.12</ele>
			<time>2015-03-08T15:58:37Z</time>
			<fix>3d</fix>
		</trkpt>
		<trkpt lat="35.163711" lon="-106.467328">
			<ele>1986.13</ele>
			<time>2015-03-08T15:58:38Z</time>
			<fix>3d</fix>
		</trkpt>
		<trkpt lat="35.163715" lon="-106.467317">
			<ele>1986.24</ele>
			<time>2015-03-08T15:58:39Z</time>
			<fix>3d</fix>
		</trkpt>
		<trkpt lat="35.163716" lon="-106.467307">
			<ele>1986.35</ele>
			<time>2015-03-08T15:58:40Z</time>
			<fix>3d</fix>
		</trkpt>
		<trkpt lat="35.163716" lon="-106.467302">
			<ele>1986.66</ele>
			<time>2015-03-08T15:58:41Z</time>
			<fix>3d</fix>
		</trkpt>
		<trkpt lat="35.163721" lon="-106.467282">
			<ele>1986.67</ele>
			<time>2015-03-08T15:58:42Z</time>
			<fix>3d</fix>
		</trkpt>
		<trkpt lat="35.163723" lon="-106.467266">
			<ele>1986.79</ele>
			<time>2015-03-08T15:58:43Z</time>
			<fix>3d</fix>
		</trkpt>
		<trkpt lat="35.163726" lon="-106.467247">
			<ele>1986.80</ele>
			<time>2015-03-08T15:58:44Z</time>
			<fix>3d</fix>
		</trkpt>
		<trkpt lat="35.163727" lon="-106.467230">
			<ele>1987.11</ele>
			<time>2015-03-08T15:58:45Z</time>
			<fix>3d</fix>
		</trkpt>
		<trkpt lat="35.163727" lon="-106.467214">
			<ele>1987.11</ele>
			<time>2015-03-08T15:58:46Z</time>
			<fix>3d</fix>
		</trkpt>
		<trkpt lat="35.163728" lon="-106.467198">
			<ele>1987.12</ele>
			<time>2015-03-08T15:58:47Z</time>
			<fix>3d</fix>
		</trkpt>
		<trkpt lat="35.163727" lon="-106.467184">
			<ele>1987.12</ele>
			<time>2015-03-08T15:58:48Z</time>
			<fix>3d</fix>
		</trkpt>
		<trkpt lat="35.163728" lon="-106.467166">
			<ele>1987.43</ele>
			<time>2015-03-08T15:58:49Z</time>
			<fix>3d</fix>
		</trkpt>
		<trkpt lat="35.163728" lon="-106.467149">
			<ele>1987.53</ele>
			<time>2015-03-08T15:58:50Z</time>
			<fix>3d</fix>
		</trkpt>
		<trkpt lat="35.163729" lon="-106.467135">
			<ele>1987.74</ele>
			<time>2015-03-08T15:58:51Z</time>
			<fix>3d</fix>
		</trkpt>
		<trkpt lat="35.163733" lon="-106.467116">
			<ele>1987.74</ele>
			<time>2015-03-08T15:58:52Z</time>
			<fix>3d</fix>
		</trkpt>
		<trkpt lat="35.163736" lon="-106.467099">
			<ele>1987.64</ele>
			<time>2015-03-08T15:58:53Z</time>
			<fix>3d</fix>
		</trkpt>
		<trkpt lat="35.163736" lon="-106.467085">
			<ele>1987.64</ele>
			<time>2015-03-08T15:58:54Z</time>
			<fix>3d</fix>
		</trkpt>
		<trkpt lat="35.163741" lon="-106.467069">
			<ele>1987.75</ele>
			<time>2015-03-08T15:58:55Z</time>
			<fix>3d</fix>
		</trkpt>
		<trkpt lat="35.163744" lon="-106.467052">
			<ele>1987.85</ele>
			<time>2015-03-08T15:58:56Z</time>
			<fix>3d</fix>
		</trkpt>
		<trkpt lat="35.163746" lon="-106.467034">
			<ele>1987.95</ele>
			<time>2015-03-08T15:58:57Z</time>
			<fix>3d</fix>
		</trkpt>
		<trkpt lat="35.163748" lon="-106.467021">
			<ele>1988.04</ele>
			<time>2015-03-08T15:58:58Z</time>
			<fix>3d</fix>
		</trkpt>
		<trkpt lat="35.163753" lon="-106.467004">
			<ele>1988.24</ele>
			<time>2015-03-08T15:58:59Z</time>
			<fix>3d</fix>
		</trkpt>
		<trkpt lat="35.163758" lon="-106.466987">
			<ele>1988.23</ele>
			<time>2015-03-08T15:59:00Z</time>
			<fix>3d</fix>
		</trkpt>
		<trkpt lat="35.163761" lon="-106.466975">
			<ele>1988.23</ele>
			<time>2015-03-08T15:59:01Z</time>
			<fix>3d</fix>
		</trkpt>
		<trkpt lat="35.163766" lon="-106.466960">
			<ele>1988.22</ele>
			<time>2015-03-08T15:59:02Z</time>
			<fix>3d</fix>
		</trkpt>
		<trkpt lat="35.163767" lon="-106.466945">
			<ele>1988.31</ele>
			<time>2015-03-08T15:59:03Z</time>
			<fix>3d</fix>
		</trkpt>
		<trkpt lat="35.163769" lon="-106.466929">
			<ele>1988.50</ele>
			<time>2015-03-08T15:59:04Z</time>
			<fix>3d</fix>
		</trkpt>
		<trkpt lat="35.163772" lon="-106.466913">
			<ele>1988.69</ele>
			<time>2015-03-08T15:59:05Z</time>
			<fix>3d</fix>
		</trkpt>
		<trkpt lat="35.163775" lon="-106.466897">
			<ele>1988.88</ele>
			<time>2015-03-08T15:59:06Z</time>
			<fix>3d</fix>
		</trkpt>
		<trkpt lat="35.163774" lon="-106.466884">
			<ele>1988.97</ele>
			<time>2015-03-08T15:59:07Z</time>
			<fix>3d</fix>
		</trkpt>
		<trkpt lat="35.163776" lon="-106.466868">
			<ele>1988.96</ele>
			<time>2015-03-08T15:59:08Z</time>
			<fix>3d</fix>
		</trkpt>
		<trkpt lat="35.163776" lon="-106.466855">
			<ele>1989.04</ele>
			<time>2015-03-08T15:59:09Z</time>
			<fix>3d</fix>
		</trkpt>
		<trkpt lat="35.163779" lon="-106.466841">
			<ele>1989.03</ele>
			<time>2015-03-08T15:59:10Z</time>
			<fix>3d</fix>
		</trkpt>
		<trkpt lat="35.163779" lon="-106.466828">
			<ele>1989.12</ele>
			<time>2015-03-08T15:59:11Z</time>
			<fix>3d</fix>
		</trkpt>
		<trkpt lat="35.163785" lon="-106.466812">
			<ele>1989.11</ele>
			<time>2015-03-08T15:59:12Z</time>
			<fix>3d</fix>
		</trkpt>
		<trkpt lat="35.163788" lon="-106.466799">
			<ele>1989.19</ele>
			<time>2015-03-08T15:59:13Z</time>
			<fix>3d</fix>
		</trkpt>
		<trkpt lat="35.163795" lon="-106.466784">
			<ele>1989.58</ele>
			<time>2015-03-08T15:59:14Z</time>
			<fix>3d</fix>
		</trkpt>
		<trkpt lat="35.163799" lon="-106.466768">
			<ele>1989.57</ele>
			<time>2015-03-08T15:59:15Z</time>
			<fix>3d</fix>
		</trkpt>
		<trkpt lat="35.163800" lon="-106.466753">
			<ele>1989.56</ele>
			<time>2015-03-08T15:59:16Z</time>
			<fix>3d</fix>
		</trkpt>
		<trkpt lat="35.163804" lon="-106.466738">
			<ele>1989.54</ele>
			<time>2015-03-08T15:59:17Z</time>
			<fix>3d</fix>
		</trkpt>
		<trkpt lat="35.163807" lon="-106.466724">
			<ele>1989.53</ele>
			<time>2015-03-08T15:59:18Z</time>
			<fix>3d</fix>
		</trkpt>
		<trkpt lat="35.163809" lon="-106.466711">
			<ele>1989.52</ele>
			<time>2015-03-08T15:59:19Z</time>
			<fix>3d</fix>
		</trkpt>
		<trkpt lat="35.163811" lon="-106.466697">
			<ele>1989.61</ele>
			<time>2015-03-08T15:59:20Z</time>
			<fix>3d</fix>
		</trkpt>
		<trkpt lat="35.163812" lon="-106.466680">
			<ele>1989.60</ele>
			<time>2015-03-08T15:59:21Z</time>
			<fix>3d</fix>
		</trkpt>
		<trkpt lat="35.163811" lon="-106.466664">
			<ele>1989.59</ele>
			<time>2015-03-08T15:59:22Z</time>
			<fix>3d</fix>
		</trkpt>
		<trkpt lat="35.163813" lon="-106.466645">
			<ele>1989.68</ele>
			<time>2015-03-08T15:59:23Z</time>
			<fix>3d</fix>
		</trkpt>
		<trkpt lat="35.163814" lon="-106.466631">
			<ele>1989.67</ele>
			<time>2015-03-08T15:59:24Z</time>
			<fix>3d</fix>
		</trkpt>
		<trkpt lat="35.163819" lon="-106.466615">
			<ele>1989.76</ele>
			<time>2015-03-08T15:59:25Z</time>
			<fix>3d</fix>
		</trkpt>
		<trkpt lat="35.163821" lon="-106.466602">
			<ele>1989.76</ele>
			<time>2015-03-08T15:59:26Z</time>
			<fix>3d</fix>
		</trkpt>
		<trkpt lat="35.163826" lon="-106.466586">
			<ele>1989.95</ele>
			<time>2015-03-08T15:59:27Z</time>
			<fix>3d</fix>
		</trkpt>
		<trkpt lat="35.163828" lon="-106.466572">
			<ele>1989.95</ele>
			<time>2015-03-08T15:59:28Z</time>
			<fix>3d</fix>
		</trkpt>
		<trkpt lat="35.163833" lon="-106.466556">
			<ele>1989.94</ele>
			<time>2015-03-08T15:59:29Z</time>
			<fix>3d</fix>
		</trkpt>
		<trkpt lat="35.163836" lon="-106.466542">
			<ele>1989.94</ele>
			<time>2015-03-08T15:59:30Z</time>
			<fix>3d</fix>
		</trkpt>
		<trkpt lat="35.163839" lon="-106.466526">
			<ele>1989.94</ele>
			<time>2015-03-08T15:59:31Z</time>
			<fix>3d</fix>
		</trkpt>
		<trkpt lat="35.163842" lon="-106.466512">
			<ele>1990.03</ele>
			<time>2015-03-08T15:59:32Z</time>
			<fix>3d</fix>
		</trkpt>
		<trkpt lat="35.163848" lon="-106.466496">
			<ele>1990.13</ele>
			<time>2015-03-08T15:59:33Z</time>
			<fix>3d</fix>
		</trkpt>
		<trkpt lat="35.163852" lon="-106.466481">
			<ele>1990.13</ele>
			<time>2015-03-08T15:59:34Z</time>
			<fix>3d</fix>
		</trkpt>
		<trkpt lat="35.163854" lon="-106.466469">
			<ele>1990.13</ele>
			<time>2015-03-08T15:59:35Z</time>
			<fix>3d</fix>
		</trkpt>
		<trkpt lat="35.163860" lon="-106.466454">
			<ele>1990.22</ele>
			<time>2015-03-08T15:59:36Z</time>
			<fix>3d</fix>
		</trkpt>
		<trkpt lat="35.163865" lon="-106.466439">
			<ele>1990.22</ele>
			<time>2015-03-08T15:59:37Z</time>
			<fix>3d</fix>
		</trkpt>
		<trkpt lat="35.163871" lon="-106.466425">
			<ele>1990.22</ele>
			<time>2015-03-08T15:59:38Z</time>
			<fix>3d</fix>
		</trkpt>
		<trkpt lat="35.163877" lon="-106.466411">
			<ele>1990.22</ele>
			<time>2015-03-08T15:59:39Z</time>
			<fix>3d</fix>
		</trkpt>
		<trkpt lat="35.163884" lon="-106.466398">
			<ele>1990.22</ele>
			<time>2015-03-08T15:59:40Z</time>
			<fix>3d</fix>
		</trkpt>
		<trkpt lat="35.163889" lon="-106.466387">
			<ele>1990.12</ele>
			<time>2015-03-08T15:59:41Z</time>
			<fix>3d</fix>
		</trkpt>
		<trkpt lat="35.163900" lon="-106.466376">
			<ele>1990.22</ele>
			<time>2015-03-08T15:59:42Z</time>
			<fix>3d</fix>
		</trkpt>
		<trkpt lat="35.163908" lon="-106.466367">
			<ele>1990.22</ele>
			<time>2015-03-08T15:59:43Z</time>
			<fix>3d</fix>
		</trkpt>
		<trkpt lat="35.163915" lon="-106.466355">
			<ele>1990.32</ele>
			<time>2015-03-08T15:59:44Z</time>
			<fix>3d</fix>
		</trkpt>
		<trkpt lat="35.163918" lon="-106.466344">
			<ele>1990.42</ele>
			<time>2015-03-08T15:59:45Z</time>
			<fix>3d</fix>
		</trkpt>
		<trkpt lat="35.163924" lon="-106.466331">
			<ele>1990.43</ele>
			<time>2015-03-08T15:59:46Z</time>
			<fix>3d</fix>
		</trkpt>
		<trkpt lat="35.163934" lon="-106.466319">
			<ele>1990.43</ele>
			<time>2015-03-08T15:59:47Z</time>
			<fix>3d</fix>
		</trkpt>
		<trkpt lat="35.163937" lon="-106.466307">
			<ele>1990.43</ele>
			<time>2015-03-08T15:59:48Z</time>
			<fix>3d</fix>
		</trkpt>
		<trkpt lat="35.163945" lon="-106.466292">
			<ele>1990.43</ele>
			<time>2015-03-08T15:59:49Z</time>
			<fix>3d</fix>
		</trkpt>
		<trkpt lat="35.163951" lon="-106.466278">
			<ele>1990.54</ele>
			<time>2015-03-08T15:59:50Z</time>
			<fix>3d</fix>
		</trkpt>
		<trkpt lat="35.163957" lon="-106.466262">
			<ele>1990.65</ele>
			<time>2015-03-08T15:59:51Z</time>
			<fix>3d</fix>
		</trkpt>
		<trkpt lat="35.163966" lon="-106.466250">
			<ele>1990.75</ele>
			<time>2015-03-08T15:59:52Z</time>
			<fix>3d</fix>
		</trkpt>
		<trkpt lat="35.163970" lon="-106.466238">
			<ele>1990.86</ele>
			<time>2015-03-08T15:59:53Z</time>
			<fix>3d</fix>
		</trkpt>
		<trkpt lat="35.163980" lon="-106.466222">
			<ele>1990.97</ele>
			<time>2015-03-08T15:59:54Z</time>
			<fix>3d</fix>
		</trkpt>
		<trkpt lat="35.163989" lon="-106.466210">
			<ele>1990.88</ele>
			<time>2015-03-08T15:59:55Z</time>
			<fix>3d</fix>
		</trkpt>
		<trkpt lat="35.163998" lon="-106.466198">
			<ele>1990.89</ele>
			<time>2015-03-08T15:59:56Z</time>
			<fix>3d</fix>
		</trkpt>
		<trkpt lat="35.164006" lon="-106.466187">
			<ele>1991.00</ele>
			<time>2015-03-08T15:59:57Z</time>
			<fix>3d</fix>
		</trkpt>
		<trkpt lat="35.164015" lon="-106.466176">
			<ele>1991.01</ele>
			<time>2015-03-08T15:59:58Z</time>
			<fix>3d</fix>
		</trkpt>
		<trkpt lat="35.164026" lon="-106.466165">
			<ele>1991.02</ele>
			<time>2015-03-08T15:59:59Z</time>
			<fix>3d</fix>
		</trkpt>
		<trkpt lat="35.164033" lon="-106.466155">
			<ele>1991.13</ele>
			<time>2015-03-08T16:00:00Z</time>
			<fix>3d</fix>
		</trkpt>
		<trkpt lat="35.164044" lon="-106.466147">
			<ele>1991.14</ele>
			<time>2015-03-08T16:00:01Z</time>
			<fix>3d</fix>
		</trkpt>
		<trkpt lat="35.164055" lon="-106.466142">
			<ele>1991.15</ele>
			<time>2015-03-08T16:00:02Z</time>
			<fix>3d</fix>
		</trkpt>
		<trkpt lat="35.164073" lon="-106.466143">
			<ele>1991.26</ele>
			<time>2015-03-08T16:00:03Z</time>
			<fix>3d</fix>
		</trkpt>
		<trkpt lat="35.164085" lon="-106.466142">
			<ele>1991.27</ele>
			<time>2015-03-08T16:00:04Z</time>
			<fix>3d</fix>
		</trkpt>
		<trkpt lat="35.164093" lon="-106.466136">
			<ele>1991.48</ele>
			<time>2015-03-08T16:00:05Z</time>
			<fix>3d</fix>
		</trkpt>
		<trkpt lat="35.164109" lon="-106.466132">
			<ele>1991.79</ele>
			<time>2015-03-08T16:00:06Z</time>
			<fix>3d</fix>
		</trkpt>
		<trkpt lat="35.164115" lon="-106.466123">
			<ele>1991.69</ele>
			<time>2015-03-08T16:00:07Z</time>
			<fix>3d</fix>
		</trkpt>
		<trkpt lat="35.164127" lon="-106.466113">
			<ele>1991.90</ele>
			<time>2015-03-08T16:00:08Z</time>
			<fix>3d</fix>
		</trkpt>
		<trkpt lat="35.164135" lon="-106.466101">
			<ele>1992.11</ele>
			<time>2015-03-08T16:00:09Z</time>
			<fix>3d</fix>
		</trkpt>
		<trkpt lat="35.164139" lon="-106.466091">
			<ele>1992.32</ele>
			<time>2015-03-08T16:00:10Z</time>
			<fix>3d</fix>
		</trkpt>
		<trkpt lat="35.164150" lon="-106.466080">
			<ele>1992.32</ele>
			<time>2015-03-08T16:00:11Z</time>
			<fix>3d</fix>
		</trkpt>
		<trkpt lat="35.164159" lon="-106.466071">
			<ele>1992.33</ele>
			<time>2015-03-08T16:00:12Z</time>
			<fix>3d</fix>
		</trkpt>
		<trkpt lat="35.164165" lon="-106.466062">
			<ele>1992.34</ele>
			<time>2015-03-08T16:00:13Z</time>
			<fix>3d</fix>
		</trkpt>
		<trkpt lat="35.164176" lon="-106.466051">
			<ele>1992.34</ele>
			<time>2015-03-08T16:00:14Z</time>
			<fix>3d</fix>
		</trkpt>
		<trkpt lat="35.164181" lon="-106.466039">
			<ele>1992.45</ele>
			<time>2015-03-08T16:00:15Z</time>
			<fix>3d</fix>
		</trkpt>
		<trkpt lat="35.164187" lon="-106.466027">
			<ele>1992.96</ele>
			<time>2015-03-08T16:00:16Z</time>
			<fix>3d</fix>
		</trkpt>
		<trkpt lat="35.164198" lon="-106.466013">
			<ele>1993.26</ele>
			<time>2015-03-08T16:00:17Z</time>
			<fix>3d</fix>
		</trkpt>
		<trkpt lat="35.164206" lon="-106.466002">
			<ele>1993.27</ele>
			<time>2015-03-08T16:00:18Z</time>
			<fix>3d</fix>
		</trkpt>
		<trkpt lat="35.164210" lon="-106.465991">
			<ele>1993.27</ele>
			<time>2015-03-08T16:00:19Z</time>
			<fix>3d</fix>
		</trkpt>
		<trkpt lat="35.164217" lon="-106.465981">
			<ele>1993.27</ele>
			<time>2015-03-08T16:00:20Z</time>
			<fix>3d</fix>
		</trkpt>
		<trkpt lat="35.164225" lon="-106.465971">
			<ele>1993.28</ele>
			<time>2015-03-08T16:00:21Z</time>
			<fix>3d</fix>
		</trkpt>
		<trkpt lat="35.164231" lon="-106.465961">
			<ele>1993.38</ele>
			<time>2015-03-08T16:00:22Z</time>
			<fix>3d</fix>
		</trkpt>
		<trkpt lat="35.164238" lon="-106.465950">
			<ele>1993.69</ele>
			<time>2015-03-08T16:00:23Z</time>
			<fix>3d</fix>
		</trkpt>
		<trkpt lat="35.164245" lon="-106.465940">
			<ele>1992.99</ele>
			<time>2015-03-08T16:00:24Z</time>
			<fix>3d</fix>
		</trkpt>
		<trkpt lat="35.164252" lon="-106.465931">
			<ele>1994.10</ele>
			<time>2015-03-08T16:00:25Z</time>
			<fix>3d</fix>
		</trkpt>
		<trkpt lat="35.164257" lon="-106.465921">
			<ele>1994.20</ele>
			<time>2015-03-08T16:00:26Z</time>
			<fix>3d</fix>
		</trkpt>
		<trkpt lat="35.164260" lon="-106.465910">
			<ele>1994.20</ele>
			<time>2015-03-08T16:00:27Z</time>
			<fix>3d</fix>
		</trkpt>
		<trkpt lat="35.164262" lon="-106.465898">
			<ele>1994.20</ele>
			<time>2015-03-08T16:00:28Z</time>
			<fix>3d</fix>
		</trkpt>
		<trkpt lat="35.164266" lon="-106.465886">
			<ele>1994.60</ele>
			<time>2015-03-08T16:00:29Z</time>
			<fix>3d</fix>
		</trkpt>
		<trkpt lat="35.164271" lon="-106.465878">
			<ele>1994.60</ele>
			<time>2015-03-08T16:00:30Z</time>
			<fix>3d</fix>
		</trkpt>
		<trkpt lat="35.164273" lon="-106.465874">
			<ele>1994.40</ele>
			<time>2015-03-08T16:00:31Z</time>
			<fix>3d</fix>
		</trkpt>
		<trkpt lat="35.164279" lon="-106.465861">
			<ele>1992.40</ele>
			<time>2015-03-08T16:00:32Z</time>
			<fix>3d</fix>
		</trkpt>
		<trkpt lat="35.164286" lon="-106.465847">
			<ele>1993.61</ele>
			<time>2015-03-08T16:00:33Z</time>
			<fix>3d</fix>
		</trkpt>
		<trkpt lat="35.164290" lon="-106.465833">
			<ele>1994.72</ele>
			<time>2015-03-08T16:00:34Z</time>
			<fix>3d</fix>
		</trkpt>
		<trkpt lat="35.164291" lon="-106.465820">
			<ele>1995.02</ele>
			<time>2015-03-08T16:00:35Z</time>
			<fix>3d</fix>
		</trkpt>
		<trkpt lat="35.164293" lon="-106.465804">
			<ele>1995.02</ele>
			<time>2015-03-08T16:00:36Z</time>
			<fix>3d</fix>
		</trkpt>
		<trkpt lat="35.164292" lon="-106.465789">
			<ele>1994.92</ele>
			<time>2015-03-08T16:00:37Z</time>
			<fix>3d</fix>
		</trkpt>
		<trkpt lat="35.164292" lon="-106.465773">
			<ele>1994.92</ele>
			<time>2015-03-08T16:00:38Z</time>
			<fix>3d</fix>
		</trkpt>
		<trkpt lat="35.164292" lon="-106.465759">
			<ele>1994.92</ele>
			<time>2015-03-08T16:00:39Z</time>
			<fix>3d</fix>
		</trkpt>
		<trkpt lat="35.164294" lon="-106.465745">
			<ele>1994.92</ele>
			<time>2015-03-08T16:00:40Z</time>
			<fix>3d</fix>
		</trkpt>
		<trkpt lat="35.164299" lon="-106.465729">
			<ele>1995.02</ele>
			<time>2015-03-08T16:00:41Z</time>
			<fix>3d</fix>
		</trkpt>
		<trkpt lat="35.164303" lon="-106.465714">
			<ele>1995.02</ele>
			<time>2015-03-08T16:00:42Z</time>
			<fix>3d</fix>
		</trkpt>
		<trkpt lat="35.164305" lon="-106.465701">
			<ele>1995.22</ele>
			<time>2015-03-08T16:00:43Z</time>
			<fix>3d</fix>
		</trkpt>
		<trkpt lat="35.164308" lon="-106.465687">
			<ele>1995.32</ele>
			<time>2015-03-08T16:00:44Z</time>
			<fix>3d</fix>
		</trkpt>
		<trkpt lat="35.164314" lon="-106.465666">
			<ele>1995.52</ele>
			<time>2015-03-08T16:00:45Z</time>
			<fix>3d</fix>
		</trkpt>
		<trkpt lat="35.164319" lon="-106.465649">
			<ele>1995.52</ele>
			<time>2015-03-08T16:00:46Z</time>
			<fix>3d</fix>
		</trkpt>
		<trkpt lat="35.164322" lon="-106.465631">
			<ele>1995.52</ele>
			<time>2015-03-08T16:00:47Z</time>
			<fix>3d</fix>
		</trkpt>
		<trkpt lat="35.164325" lon="-106.465613">
			<ele>1995.62</ele>
			<time>2015-03-08T16:00:48Z</time>
			<fix>3d</fix>
		</trkpt>
		<trkpt lat="35.164326" lon="-106.465596">
			<ele>1995.62</ele>
			<time>2015-03-08T16:00:49Z</time>
			<fix>3d</fix>
		</trkpt>
		<trkpt lat="35.164328" lon="-106.465579">
			<ele>1995.72</ele>
			<time>2015-03-08T16:00:50Z</time>
			<fix>3d</fix>
		</trkpt>
		<trkpt lat="35.164328" lon="-106.465563">
			<ele>1995.71</ele>
			<time>2015-03-08T16:00:51Z</time>
			<fix>3d</fix>
		</trkpt>
		<trkpt lat="35.164329" lon="-106.465546">
			<ele>1995.71</ele>
			<time>2015-03-08T16:00:52Z</time>
			<fix>3d</fix>
		</trkpt>
		<trkpt lat="35.164329" lon="-106.465530">
			<ele>1995.71</ele>
			<time>2015-03-08T16:00:53Z</time>
			<fix>3d</fix>
		</trkpt>
		<trkpt lat="35.164329" lon="-106.465515">
			<ele>1995.81</ele>
			<time>2015-03-08T16:00:54Z</time>
			<fix>3d</fix>
		</trkpt>
		<trkpt lat="35.164330" lon="-106.465499">
			<ele>1995.80</ele>
			<time>2015-03-08T16:00:55Z</time>
			<fix>3d</fix>
		</trkpt>
		<trkpt lat="35.164330" lon="-106.465495">
			<ele>1995.80</ele>
			<time>2015-03-08T16:00:56Z</time>
			<fix>3d</fix>
		</trkpt>
		<trkpt lat="35.164332" lon="-106.465474">
			<ele>1995.80</ele>
			<time>2015-03-08T16:00:57Z</time>
			<fix>3d</fix>
		</trkpt>
		<trkpt lat="35.164331" lon="-106.465460">
			<ele>1995.90</ele>
			<time>2015-03-08T16:00:58Z</time>
			<fix>3d</fix>
		</trkpt>
		<trkpt lat="35.164331" lon="-106.465445">
			<ele>1996.00</ele>
			<time>2015-03-08T16:00:59Z</time>
			<fix>3d</fix>
		</trkpt>
		<trkpt lat="35.164332" lon="-106.465428">
			<ele>1996.10</ele>
			<time>2015-03-08T16:01:00Z</time>
			<fix>3d</fix>
		</trkpt>
		<trkpt lat="35.164331" lon="-106.465414">
			<ele>1996.20</ele>
			<time>2015-03-08T16:01:01Z</time>
			<fix>3d</fix>
		</trkpt>
		<trkpt lat="35.164330" lon="-106.465400">
			<ele>1996.40</ele>
			<time>2015-03-08T16:01:02Z</time>
			<fix>3d</fix>
		</trkpt>
		<trkpt lat="35.164329" lon="-106.465383">
			<ele>1996.40</ele>
			<time>2015-03-08T16:01:03Z</time>
			<fix>3d</fix>
		</trkpt>
		<trkpt lat="35.164328" lon="-106.465368">
			<ele>1996.40</ele>
			<time>2015-03-08T16:01:04Z</time>
			<fix>3d</fix>
		</trkpt>
		<trkpt lat="35.164325" lon="-106.465356">
			<ele>1996.30</ele>
			<time>2015-03-08T16:01:05Z</time>
			<fix>3d</fix>
		</trkpt>
		<trkpt lat="35.164324" lon="-106.465343">
			<ele>1996.80</ele>
			<time>2015-03-08T16:01:06Z</time>
			<fix>3d</fix>
		</trkpt>
		<trkpt lat="35.164325" lon="-106.465325">
			<ele>1996.90</ele>
			<time>2015-03-08T16:01:07Z</time>
			<fix>3d</fix>
		</trkpt>
		<trkpt lat="35.164324" lon="-106.465312">
			<ele>1996.80</ele>
			<time>2015-03-08T16:01:08Z</time>
			<fix>3d</fix>
		</trkpt>
		<trkpt lat="35.164324" lon="-106.465300">
			<ele>1997.50</ele>
			<time>2015-03-08T16:01:09Z</time>
			<fix>3d</fix>
		</trkpt>
		<trkpt lat="35.164326" lon="-106.465286">
			<ele>1997.40</ele>
			<time>2015-03-08T16:01:10Z</time>
			<fix>3d</fix>
		</trkpt>
		<trkpt lat="35.164326" lon="-106.465273">
			<ele>1997.59</ele>
			<time>2015-03-08T16:01:11Z</time>
			<fix>3d</fix>
		</trkpt>
		<trkpt lat="35.164329" lon="-106.465257">
			<ele>1997.69</ele>
			<time>2015-03-08T16:01:12Z</time>
			<fix>3d</fix>
		</trkpt>
		<trkpt lat="35.164331" lon="-106.465242">
			<ele>1997.69</ele>
			<time>2015-03-08T16:01:13Z</time>
			<fix>3d</fix>
		</trkpt>
		<trkpt lat="35.164332" lon="-106.465229">
			<ele>1997.68</ele>
			<time>2015-03-08T16:01:14Z</time>
			<fix>3d</fix>
		</trkpt>
		<trkpt lat="35.164332" lon="-106.465215">
			<ele>1997.68</ele>
			<time>2015-03-08T16:01:15Z</time>
			<fix>3d</fix>
		</trkpt>
		<trkpt lat="35.164333" lon="-106.465202">
			<ele>1997.67</ele>
			<time>2015-03-08T16:01:16Z</time>
			<fix>3d</fix>
		</trkpt>
		<trkpt lat="35.164334" lon="-106.465188">
			<ele>1997.97</ele>
			<time>2015-03-08T16:01:17Z</time>
			<fix>3d</fix>
		</trkpt>
		<trkpt lat="35.164335" lon="-106.465174">
			<ele>1998.37</ele>
			<time>2015-03-08T16:01:18Z</time>
			<fix>3d</fix>
		</trkpt>
		<trkpt lat="35.164336" lon="-106.465156">
			<ele>1998.57</ele>
			<time>2015-03-08T16:01:19Z</time>
			<fix>3d</fix>
		</trkpt>
		<trkpt lat="35.164337" lon="-106.465139">
			<ele>1998.66</ele>
			<time>2015-03-08T16:01:20Z</time>
			<fix>3d</fix>
		</trkpt>
		<trkpt lat="35.164340" lon="-106.465125">
			<ele>1998.65</ele>
			<time>2015-03-08T16:01:21Z</time>
			<fix>3d</fix>
		</trkpt>
		<trkpt lat="35.164343" lon="-106.465112">
			<ele>1998.65</ele>
			<time>2015-03-08T16:01:22Z</time>
			<fix>3d</fix>
		</trkpt>
		<trkpt lat="35.164346" lon="-106.465100">
			<ele>1998.64</ele>
			<time>2015-03-08T16:01:23Z</time>
			<fix>3d</fix>
		</trkpt>
		<trkpt lat="35.164351" lon="-106.465084">
			<ele>1998.84</ele>
			<time>2015-03-08T16:01:24Z</time>
			<fix>3d</fix>
		</trkpt>
		<trkpt lat="35.164353" lon="-106.465069">
			<ele>1998.63</ele>
			<time>2015-03-08T16:01:25Z</time>
			<fix>3d</fix>
		</trkpt>
		<trkpt lat="35.164355" lon="-106.465054">
			<ele>1998.52</ele>
			<time>2015-03-08T16:01:26Z</time>
			<fix>3d</fix>
		</trkpt>
		<trkpt lat="35.164355" lon="-106.465039">
			<ele>1999.12</ele>
			<time>2015-03-08T16:01:27Z</time>
			<fix>3d</fix>
		</trkpt>
		<trkpt lat="35.164353" lon="-106.465022">
			<ele>1999.02</ele>
			<time>2015-03-08T16:01:28Z</time>
			<fix>3d</fix>
		</trkpt>
		<trkpt lat="35.164350" lon="-106.465004">
			<ele>1999.31</ele>
			<time>2015-03-08T16:01:29Z</time>
			<fix>3d</fix>
		</trkpt>
		<trkpt lat="35.164347" lon="-106.464988">
			<ele>1999.51</ele>
			<time>2015-03-08T16:01:30Z</time>
			<fix>3d</fix>
		</trkpt>
		<trkpt lat="35.164346" lon="-106.464971">
			<ele>1999.50</ele>
			<time>2015-03-08T16:01:31Z</time>
			<fix>3d</fix>
		</trkpt>
		<trkpt lat="35.164346" lon="-106.464957">
			<ele>1999.60</ele>
			<time>2015-03-08T16:01:32Z</time>
			<fix>3d</fix>
		</trkpt>
		<trkpt lat="35.164350" lon="-106.464935">
			<ele>1999.49</ele>
			<time>2015-03-08T16:01:33Z</time>
			<fix>3d</fix>
		</trkpt>
		<trkpt lat="35.164355" lon="-106.464926">
			<ele>1999.59</ele>
			<time>2015-03-08T16:01:34Z</time>
			<fix>3d</fix>
		</trkpt>
		<trkpt lat="35.164356" lon="-106.464914">
			<ele>1999.58</ele>
			<time>2015-03-08T16:01:35Z</time>
			<fix>3d</fix>
		</trkpt>
		<trkpt lat="35.164360" lon="-106.464899">
			<ele>1999.68</ele>
			<time>2015-03-08T16:01:36Z</time>
			<fix>3d</fix>
		</trkpt>
		<trkpt lat="35.164361" lon="-106.464887">
			<ele>1999.98</ele>
			<time>2015-03-08T16:01:37Z</time>
			<fix>3d</fix>
		</trkpt>
		<trkpt lat="35.164364" lon="-106.464872">
			<ele>2000.18</ele>
			<time>2015-03-08T16:01:38Z</time>
			<fix>3d</fix>
		</trkpt>
		<trkpt lat="35.164365" lon="-106.464858">
			<ele>2000.17</ele>
			<time>2015-03-08T16:01:39Z</time>
			<fix>3d</fix>
		</trkpt>
		<trkpt lat="35.164365" lon="-106.464844">
			<ele>2000.27</ele>
			<time>2015-03-08T16:01:40Z</time>
			<fix>3d</fix>
		</trkpt>
		<trkpt lat="35.164364" lon="-106.464830">
			<ele>2000.26</ele>
			<time>2015-03-08T16:01:41Z</time>
			<fix>3d</fix>
		</trkpt>
		<trkpt lat="35.164364" lon="-106.464814">
			<ele>2000.26</ele>
			<time>2015-03-08T16:01:42Z</time>
			<fix>3d</fix>
		</trkpt>
		<trkpt lat="35.164361" lon="-106.464800">
			<ele>2000.36</ele>
			<time>2015-03-08T16:01:43Z</time>
			<fix>3d</fix>
		</trkpt>
		<trkpt lat="35.164358" lon="-106.464786">
			<ele>2000.25</ele>
			<time>2015-03-08T16:01:44Z</time>
			<fix>3d</fix>
		</trkpt>
		<trkpt lat="35.164355" lon="-106.464771">
			<ele>2000.35</ele>
			<time>2015-03-08T16:01:45Z</time>
			<fix>3d</fix>
		</trkpt>
		<trkpt lat="35.164352" lon="-106.464756">
			<ele>2000.35</ele>
			<time>2015-03-08T16:01:46Z</time>
			<fix>3d</fix>
		</trkpt>
		<trkpt lat="35.164351" lon="-106.464741">
			<ele>2000.54</ele>
			<time>2015-03-08T16:01:47Z</time>
			<fix>3d</fix>
		</trkpt>
		<trkpt lat="35.164350" lon="-106.464728">
			<ele>2001.15</ele>
			<time>2015-03-08T16:01:48Z</time>
			<fix>3d</fix>
		</trkpt>
		<trkpt lat="35.164349" lon="-106.464713">
			<ele>2000.74</ele>
			<time>2015-03-08T16:01:49Z</time>
			<fix>3d</fix>
		</trkpt>
		<trkpt lat="35.164350" lon="-106.464695">
			<ele>2000.84</ele>
			<time>2015-03-08T16:01:50Z</time>
			<fix>3d</fix>
		</trkpt>
		<trkpt lat="35.164350" lon="-106.464679">
			<ele>2000.83</ele>
			<time>2015-03-08T16:01:51Z</time>
			<fix>3d</fix>
		</trkpt>
		<trkpt lat="35.164349" lon="-106.464666">
			<ele>2000.93</ele>
			<time>2015-03-08T16:01:52Z</time>
			<fix>3d</fix>
		</trkpt>
		<trkpt lat="35.164349" lon="-106.464651">
			<ele>2001.13</ele>
			<time>2015-03-08T16:01:53Z</time>
			<fix>3d</fix>
		</trkpt>
		<trkpt lat="35.164347" lon="-106.464636">
			<ele>2001.43</ele>
			<time>2015-03-08T16:01:54Z</time>
			<fix>3d</fix>
		</trkpt>
		<trkpt lat="35.164346" lon="-106.464621">
			<ele>2001.63</ele>
			<time>2015-03-08T16:01:55Z</time>
			<fix>3d</fix>
		</trkpt>
		<trkpt lat="35.164344" lon="-106.464606">
			<ele>2002.03</ele>
			<time>2015-03-08T16:01:56Z</time>
			<fix>3d</fix>
		</trkpt>
		<trkpt lat="35.164342" lon="-106.464589">
			<ele>2001.92</ele>
			<time>2015-03-08T16:01:57Z</time>
			<fix>3d</fix>
		</trkpt>
		<trkpt lat="35.164340" lon="-106.464571">
			<ele>2002.02</ele>
			<time>2015-03-08T16:01:58Z</time>
			<fix>3d</fix>
		</trkpt>
		<trkpt lat="35.164339" lon="-106.464556">
			<ele>2002.01</ele>
			<time>2015-03-08T16:01:59Z</time>
			<fix>3d</fix>
		</trkpt>
		<trkpt lat="35.164337" lon="-106.464543">
			<ele>2001.91</ele>
			<time>2015-03-08T16:02:00Z</time>
			<fix>3d</fix>
		</trkpt>
		<trkpt lat="35.164336" lon="-106.464529">
			<ele>2002.10</ele>
			<time>2015-03-08T16:02:01Z</time>
			<fix>3d</fix>
		</trkpt>
		<trkpt lat="35.164338" lon="-106.464512">
			<ele>2002.10</ele>
			<time>2015-03-08T16:02:02Z</time>
			<fix>3d</fix>
		</trkpt>
		<trkpt lat="35.164338" lon="-106.464497">
			<ele>2002.09</ele>
			<time>2015-03-08T16:02:03Z</time>
			<fix>3d</fix>
		</trkpt>
		<trkpt lat="35.164337" lon="-106.464483">
			<ele>2002.09</ele>
			<time>2015-03-08T16:02:04Z</time>
			<fix>3d</fix>
		</trkpt>
		<trkpt lat="35.164336" lon="-106.464470">
			<ele>2002.09</ele>
			<time>2015-03-08T16:02:05Z</time>
			<fix>3d</fix>
		</trkpt>
		<trkpt lat="35.164336" lon="-106.464456">
			<ele>2002.18</ele>
			<time>2015-03-08T16:02:06Z</time>
			<fix>3d</fix>
		</trkpt>
		<trkpt lat="35.164335" lon="-106.464441">
			<ele>2002.48</ele>
			<time>2015-03-08T16:02:07Z</time>
			<fix>3d</fix>
		</trkpt>
		<trkpt lat="35.164335" lon="-106.464435">
			<ele>2002.28</ele>
			<time>2015-03-08T16:02:08Z</time>
			<fix>3d</fix>
		</trkpt>
		<trkpt lat="35.164341" lon="-106.464412">
			<ele>2002.47</ele>
			<time>2015-03-08T16:02:09Z</time>
			<fix>3d</fix>
		</trkpt>
		<trkpt lat="35.164343" lon="-106.464396">
			<ele>2002.57</ele>
			<time>2015-03-08T16:02:10Z</time>
			<fix>3d</fix>
		</trkpt>
		<trkpt lat="35.164343" lon="-106.464381">
			<ele>2002.67</ele>
			<time>2015-03-08T16:02:11Z</time>
			<fix>3d</fix>
		</trkpt>
		<trkpt lat="35.164345" lon="-106.464365">
			<ele>2002.76</ele>
			<time>2015-03-08T16:02:12Z</time>
			<fix>3d</fix>
		</trkpt>
		<trkpt lat="35.164346" lon="-106.464349">
			<ele>2002.76</ele>
			<time>2015-03-08T16:02:13Z</time>
			<fix>3d</fix>
		</trkpt>
		<trkpt lat="35.164346" lon="-106.464334">
			<ele>2002.75</ele>
			<time>2015-03-08T16:02:14Z</time>
			<fix>3d</fix>
		</trkpt>
		<trkpt lat="35.164348" lon="-106.464319">
			<ele>2002.75</ele>
			<time>2015-03-08T16:02:15Z</time>
			<fix>3d</fix>
		</trkpt>
		<trkpt lat="35.164350" lon="-106.464304">
			<ele>2002.85</ele>
			<time>2015-03-08T16:02:16Z</time>
			<fix>3d</fix>
		</trkpt>
		<trkpt lat="35.164354" lon="-106.464286">
			<ele>2002.84</ele>
			<time>2015-03-08T16:02:17Z</time>
			<fix>3d</fix>
		</trkpt>
		<trkpt lat="35.164353" lon="-106.464271">
			<ele>2002.94</ele>
			<time>2015-03-08T16:02:18Z</time>
			<fix>3d</fix>
		</trkpt>
		<trkpt lat="35.164353" lon="-106.464256">
			<ele>2002.93</ele>
			<time>2015-03-08T16:02:19Z</time>
			<fix>3d</fix>
		</trkpt>
		<trkpt lat="35.164355" lon="-106.464237">
			<ele>2003.03</ele>
			<time>2015-03-08T16:02:20Z</time>
			<fix>3d</fix>
		</trkpt>
		<trkpt lat="35.164355" lon="-106.464221">
			<ele>2002.92</ele>
			<time>2015-03-08T16:02:21Z</time>
			<fix>3d</fix>
		</trkpt>
		<trkpt lat="35.164354" lon="-106.464209">
			<ele>2003.32</ele>
			<time>2015-03-08T16:02:22Z</time>
			<fix>3d</fix>
		</trkpt>
		<trkpt lat="35.164353" lon="-106.464194">
			<ele>2003.52</ele>
			<time>2015-03-08T16:02:23Z</time>
			<fix>3d</fix>
		</trkpt>
		<trkpt lat="35.164353" lon="-106.464180">
			<ele>2006.55</ele>
			<time>2015-03-08T16:02:24Z</time>
			<fix>3d</fix>
		</trkpt>
		<trkpt lat="35.164351" lon="-106.464166">
			<ele>2004.71</ele>
			<time>2015-03-08T16:02:25Z</time>
			<fix>3d</fix>
		</trkpt>
		<trkpt lat="35.164353" lon="-106.464150">
			<ele>2006.12</ele>
			<time>2015-03-08T16:02:26Z</time>
			<fix>3d</fix>
		</trkpt>
		<trkpt lat="35.164351" lon="-106.464137">
			<ele>2003.68</ele>
			<time>2015-03-08T16:02:27Z</time>
			<fix>3d</fix>
		</trkpt>
		<trkpt lat="35.164350" lon="-106.464121">
			<ele>2004.79</ele>
			<time>2015-03-08T16:02:28Z</time>
			<fix>3d</fix>
		</trkpt>
		<trkpt lat="35.164349" lon="-106.464108">
			<ele>2004.78</ele>
			<time>2015-03-08T16:02:29Z</time>
			<fix>3d</fix>
		</trkpt>
		<trkpt lat="35.164349" lon="-106.464102">
			<ele>2004.78</ele>
			<time>2015-03-08T16:02:30Z</time>
			<fix>3d</fix>
		</trkpt>
		<trkpt lat="35.164348" lon="-106.464084">
			<ele>2004.77</ele>
			<time>2015-03-08T16:02:31Z</time>
			<fix>3d</fix>
		</trkpt>
		<trkpt lat="35.164348" lon="-106.464078">
			<ele>2004.77</ele>
			<time>2015-03-08T16:02:32Z</time>
			<fix>3d</fix>
		</trkpt>
		<trkpt lat="35.164348" lon="-106.464070">
			<ele>2004.76</ele>
			<time>2015-03-08T16:02:33Z</time>
			<fix>3d</fix>
		</trkpt>
		<trkpt lat="35.164351" lon="-106.464044">
			<ele>2004.86</ele>
			<time>2015-03-08T16:02:34Z</time>
			<fix>3d</fix>
		</trkpt>
		<trkpt lat="35.164353" lon="-106.464029">
			<ele>2004.96</ele>
			<time>2015-03-08T16:02:35Z</time>
			<fix>3d</fix>
		</trkpt>
		<trkpt lat="35.164354" lon="-106.464014">
			<ele>2004.95</ele>
			<time>2015-03-08T16:02:36Z</time>
			<fix>3d</fix>
		</trkpt>
		<trkpt lat="35.164355" lon="-106.464000">
			<ele>2005.46</ele>
			<time>2015-03-08T16:02:37Z</time>
			<fix>3d</fix>
		</trkpt>
		<trkpt lat="35.164355" lon="-106.463983">
			<ele>2005.55</ele>
			<time>2015-03-08T16:02:38Z</time>
			<fix>3d</fix>
		</trkpt>
		<trkpt lat="35.164356" lon="-106.463967">
			<ele>2005.75</ele>
			<time>2015-03-08T16:02:39Z</time>
			<fix>3d</fix>
		</trkpt>
		<trkpt lat="35.164356" lon="-106.463951">
			<ele>2006.05</ele>
			<time>2015-03-08T16:02:40Z</time>
			<fix>3d</fix>
		</trkpt>
		<trkpt lat="35.164352" lon="-106.463937">
			<ele>2005.64</ele>
			<time>2015-03-08T16:02:41Z</time>
			<fix>3d</fix>
		</trkpt>
		<trkpt lat="35.164349" lon="-106.463923">
			<ele>2006.05</ele>
			<time>2015-03-08T16:02:42Z</time>
			<fix>3d</fix>
		</trkpt>
		<trkpt lat="35.164346" lon="-106.463907">
			<ele>2006.04</ele>
			<time>2015-03-08T16:02:43Z</time>
			<fix>3d</fix>
		</trkpt>
		<trkpt lat="35.164342" lon="-106.463893">
			<ele>2006.04</ele>
			<time>2015-03-08T16:02:44Z</time>
			<fix>3d</fix>
		</trkpt>
		<trkpt lat="35.164339" lon="-106.463878">
			<ele>2006.14</ele>
			<time>2015-03-08T16:02:45Z</time>
			<fix>3d</fix>
		</trkpt>
		<trkpt lat="35.164339" lon="-106.463860">
			<ele>2006.13</ele>
			<time>2015-03-08T16:02:46Z</time>
			<fix>3d</fix>
		</trkpt>
		<trkpt lat="35.164338" lon="-106.463846">
			<ele>2006.33</ele>
			<time>2015-03-08T16:02:47Z</time>
			<fix>3d</fix>
		</trkpt>
		<trkpt lat="35.164338" lon="-106.463830">
			<ele>2006.13</ele>
			<time>2015-03-08T16:02:48Z</time>
			<fix>3d</fix>
		</trkpt>
		<trkpt lat="35.164340" lon="-106.463813">
			<ele>2006.23</ele>
			<time>2015-03-08T16:02:49Z</time>
			<fix>3d</fix>
		</trkpt>
		<trkpt lat="35.164340" lon="-106.463799">
			<ele>2006.12</ele>
			<time>2015-03-08T16:02:50Z</time>
			<fix>3d</fix>
		</trkpt>
		<trkpt lat="35.164341" lon="-106.463784">
			<ele>2006.63</ele>
			<time>2015-03-08T16:02:51Z</time>
			<fix>3d</fix>
		</trkpt>
		<trkpt lat="35.164343" lon="-106.463767">
			<ele>2006.72</ele>
			<time>2015-03-08T16:02:52Z</time>
			<fix>3d</fix>
		</trkpt>
		<trkpt lat="35.164342" lon="-106.463751">
			<ele>2007.13</ele>
			<time>2015-03-08T16:02:53Z</time>
			<fix>3d</fix>
		</trkpt>
		<trkpt lat="35.164342" lon="-106.463736">
			<ele>2007.02</ele>
			<time>2015-03-08T16:02:54Z</time>
			<fix>3d</fix>
		</trkpt>
		<trkpt lat="35.164341" lon="-106.463730">
			<ele>2006.92</ele>
			<time>2015-03-08T16:02:55Z</time>
			<fix>3d</fix>
		</trkpt>
		<trkpt lat="35.164341" lon="-106.463712">
			<ele>2007.12</ele>
			<time>2015-03-08T16:02:56Z</time>
			<fix>3d</fix>
		</trkpt>
		<trkpt lat="35.164344" lon="-106.463695">
			<ele>2007.11</ele>
			<time>2015-03-08T16:02:57Z</time>
			<fix>3d</fix>
		</trkpt>
		<trkpt lat="35.164345" lon="-106.463679">
			<ele>2007.21</ele>
			<time>2015-03-08T16:02:58Z</time>
			<fix>3d</fix>
		</trkpt>
		<trkpt lat="35.164346" lon="-106.463663">
			<ele>2007.31</ele>
			<time>2015-03-08T16:02:59Z</time>
			<fix>3d</fix>
		</trkpt>
		<trkpt lat="35.164347" lon="-106.463646">
			<ele>2007.21</ele>
			<time>2015-03-08T16:03:00Z</time>
			<fix>3d</fix>
		</trkpt>
		<trkpt lat="35.164346" lon="-106.463633">
			<ele>2007.31</ele>
			<time>2015-03-08T16:03:01Z</time>
			<fix>3d</fix>
		</trkpt>
		<trkpt lat="35.164345" lon="-106.463619">
			<ele>2007.30</ele>
			<time>2015-03-08T16:03:02Z</time>
			<fix>3d</fix>
		</trkpt>
		<trkpt lat="35.164344" lon="-106.463606">
			<ele>2007.40</ele>
			<time>2015-03-08T16:03:03Z</time>
			<fix>3d</fix>
		</trkpt>
		<trkpt lat="35.164342" lon="-106.463594">
			<ele>2007.50</ele>
			<time>2015-03-08T16:03:04Z</time>
			<fix>3d</fix>
		</trkpt>
		<trkpt lat="35.164338" lon="-106.463580">
			<ele>2007.30</ele>
			<time>2015-03-08T16:03:05Z</time>
			<fix>3d</fix>
		</trkpt>
		<trkpt lat="35.164337" lon="-106.463565">
			<ele>2007.40</ele>
			<time>2015-03-08T16:03:06Z</time>
			<fix>3d</fix>
		</trkpt>
		<trkpt lat="35.164335" lon="-106.463549">
			<ele>2007.40</ele>
			<time>2015-03-08T16:03:07Z</time>
			<fix>3d</fix>
		</trkpt>
		<trkpt lat="35.164333" lon="-106.463534">
			<ele>2007.39</ele>
			<time>2015-03-08T16:03:08Z</time>
			<fix>3d</fix>
		</trkpt>
		<trkpt lat="35.164332" lon="-106.463517">
			<ele>2007.39</ele>
			<time>2015-03-08T16:03:09Z</time>
			<fix>3d</fix>
		</trkpt>
		<trkpt lat="35.164331" lon="-106.463510">
			<ele>2007.39</ele>
			<time>2015-03-08T16:03:10Z</time>
			<fix>3d</fix>
		</trkpt>
		<trkpt lat="35.164332" lon="-106.463485">
			<ele>2007.39</ele>
			<time>2015-03-08T16:03:11Z</time>
			<fix>3d</fix>
		</trkpt>
		<trkpt lat="35.164331" lon="-106.463472">
			<ele>2007.39</ele>
			<time>2015-03-08T16:03:12Z</time>
			<fix>3d</fix>
		</trkpt>
		<trkpt lat="35.164331" lon="-106.463454">
			<ele>2007.39</ele>
			<time>2015-03-08T16:03:13Z</time>
			<fix>3d</fix>
		</trkpt>
		<trkpt lat="35.164329" lon="-106.463440">
			<ele>2007.69</ele>
			<time>2015-03-08T16:03:14Z</time>
			<fix>3d</fix>
		</trkpt>
		<trkpt lat="35.164328" lon="-106.463421">
			<ele>2007.69</ele>
			<time>2015-03-08T16:03:15Z</time>
			<fix>3d</fix>
		</trkpt>
		<trkpt lat="35.164327" lon="-106.463406">
			<ele>2007.39</ele>
			<time>2015-03-08T16:03:16Z</time>
			<fix>3d</fix>
		</trkpt>
		<trkpt lat="35.164326" lon="-106.463389">
			<ele>2007.89</ele>
			<time>2015-03-08T16:03:17Z</time>
			<fix>3d</fix>
		</trkpt>
		<trkpt lat="35.164326" lon="-106.463371">
			<ele>2007.89</ele>
			<time>2015-03-08T16:03:18Z</time>
			<fix>3d</fix>
		</trkpt>
		<trkpt lat="35.164327" lon="-106.463354">
			<ele>2007.58</ele>
			<time>2015-03-08T16:03:19Z</time>
			<fix>3d</fix>
		</trkpt>
		<trkpt lat="35.164328" lon="-106.463334">
			<ele>2009.00</ele>
			<time>2015-03-08T16:03:20Z</time>
			<fix>3d</fix>
		</trkpt>
		<trkpt lat="35.164328" lon="-106.463317">
			<ele>2007.98</ele>
			<time>2015-03-08T16:03:21Z</time>
			<fix>3d</fix>
		</trkpt>
		<trkpt lat="35.164327" lon="-106.463300">
			<ele>2007.98</ele>
			<time>2015-03-08T16:03:22Z</time>
			<fix>3d</fix>
		</trkpt>
		<trkpt lat="35.164326" lon="-106.463286">
			<ele>2007.98</ele>
			<time>2015-03-08T16:03:23Z</time>
			<fix>3d</fix>
		</trkpt>
		<trkpt lat="35.164324" lon="-106.463271">
			<ele>2007.98</ele>
			<time>2015-03-08T16:03:24Z</time>
			<fix>3d</fix>
		</trkpt>
		<trkpt lat="35.164322" lon="-106.463257">
			<ele>2007.98</ele>
			<time>2015-03-08T16:03:25Z</time>
			<fix>3d</fix>
		</trkpt>
		<trkpt lat="35.164320" lon="-106.463240">
			<ele>2007.98</ele>
			<time>2015-03-08T16:03:26Z</time>
			<fix>3d</fix>
		</trkpt>
		<trkpt lat="35.164318" lon="-106.463226">
			<ele>2007.98</ele>
			<time>2015-03-08T16:03:27Z</time>
			<fix>3d</fix>
		</trkpt>
		<trkpt lat="35.164316" lon="-106.463209">
			<ele>2008.08</ele>
			<time>2015-03-08T16:03:28Z</time>
			<fix>3d</fix>
		</trkpt>
		<trkpt lat="35.164315" lon="-106.463193">
			<ele>2008.08</ele>
			<time>2015-03-08T16:03:29Z</time>
			<fix>3d</fix>
		</trkpt>
		<trkpt lat="35.164314" lon="-106.463179">
			<ele>2008.07</ele>
			<time>2015-03-08T16:03:30Z</time>
			<fix>3d</fix>
		</trkpt>
		<trkpt lat="35.164314" lon="-106.463165">
			<ele>2008.07</ele>
			<time>2015-03-08T16:03:31Z</time>
			<fix>3d</fix>
		</trkpt>
		<trkpt lat="35.164316" lon="-106.463149">
			<ele>2008.18</ele>
			<time>2015-03-08T16:03:32Z</time>
			<fix>3d</fix>
		</trkpt>
		<trkpt lat="35.164316" lon="-106.463136">
			<ele>2008.18</ele>
			<time>2015-03-08T16:03:33Z</time>
			<fix>3d</fix>
		</trkpt>
		<trkpt lat="35.164317" lon="-106.463123">
			<ele>2008.28</ele>
			<time>2015-03-08T16:03:34Z</time>
			<fix>3d</fix>
		</trkpt>
		<trkpt lat="35.164319" lon="-106.463105">
			<ele>2008.18</ele>
			<time>2015-03-08T16:03:35Z</time>
			<fix>3d</fix>
		</trkpt>
		<trkpt lat="35.164317" lon="-106.463092">
			<ele>2008.28</ele>
			<time>2015-03-08T16:03:36Z</time>
			<fix>3d</fix>
		</trkpt>
		<trkpt lat="35.164317" lon="-106.463077">
			<ele>2008.38</ele>
			<time>2015-03-08T16:03:37Z</time>
			<fix>3d</fix>
		</trkpt>
		<trkpt lat="35.164316" lon="-106.463061">
			<ele>2008.48</ele>
			<time>2015-03-08T16:03:38Z</time>
			<fix>3d</fix>
		</trkpt>
		<trkpt lat="35.164319" lon="-106.463042">
			<ele>2008.38</ele>
			<time>2015-03-08T16:03:39Z</time>
			<fix>3d</fix>
		</trkpt>
		<trkpt lat="35.164319" lon="-106.463027">
			<ele>2008.48</ele>
			<time>2015-03-08T16:03:40Z</time>
			<fix>3d</fix>
		</trkpt>
		<trkpt lat="35.164322" lon="-106.463010">
			<ele>2008.48</ele>
			<time>2015-03-08T16:03:41Z</time>
			<fix>3d</fix>
		</trkpt>
		<trkpt lat="35.164323" lon="-106.462995">
			<ele>2008.49</ele>
			<time>2015-03-08T16:03:42Z</time>
			<fix>3d</fix>
		</trkpt>
		<trkpt lat="35.164325" lon="-106.462977">
			<ele>2008.49</ele>
			<time>2015-03-08T16:03:43Z</time>
			<fix>3d</fix>
		</trkpt>
		<trkpt lat="35.164326" lon="-106.462962">
			<ele>2008.49</ele>
			<time>2015-03-08T16:03:44Z</time>
			<fix>3d</fix>
		</trkpt>
		<trkpt lat="35.164325" lon="-106.462949">
			<ele>2008.59</ele>
			<time>2015-03-08T16:03:45Z</time>
			<fix>3d</fix>
		</trkpt>
		<trkpt lat="35.164323" lon="-106.462932">
			<ele>2008.59</ele>
			<time>2015-03-08T16:03:46Z</time>
			<fix>3d</fix>
		</trkpt>
		<trkpt lat="35.164320" lon="-106.462917">
			<ele>2008.60</ele>
			<time>2015-03-08T16:03:47Z</time>
			<fix>3d</fix>
		</trkpt>
		<trkpt lat="35.164317" lon="-106.462901">
			<ele>2008.80</ele>
			<time>2015-03-08T16:03:48Z</time>
			<fix>3d</fix>
		</trkpt>
		<trkpt lat="35.164314" lon="-106.462885">
			<ele>2008.80</ele>
			<time>2015-03-08T16:03:49Z</time>
			<fix>3d</fix>
		</trkpt>
		<trkpt lat="35.164312" lon="-106.462870">
			<ele>2009.11</ele>
			<time>2015-03-08T16:03:50Z</time>
			<fix>3d</fix>
		</trkpt>
		<trkpt lat="35.164310" lon="-106.462855">
			<ele>2009.11</ele>
			<time>2015-03-08T16:03:51Z</time>
			<fix>3d</fix>
		</trkpt>
		<trkpt lat="35.164309" lon="-106.462837">
			<ele>2009.12</ele>
			<time>2015-03-08T16:03:52Z</time>
			<fix>3d</fix>
		</trkpt>
		<trkpt lat="35.164307" lon="-106.462821">
			<ele>2009.42</ele>
			<time>2015-03-08T16:03:53Z</time>
			<fix>3d</fix>
		</trkpt>
		<trkpt lat="35.164306" lon="-106.462806">
			<ele>2009.53</ele>
			<time>2015-03-08T16:03:54Z</time>
			<fix>3d</fix>
		</trkpt>
		<trkpt lat="35.164307" lon="-106.462786">
			<ele>2009.63</ele>
			<time>2015-03-08T16:03:55Z</time>
			<fix>3d</fix>
		</trkpt>
		<trkpt lat="35.164306" lon="-106.462772">
			<ele>2009.74</ele>
			<time>2015-03-08T16:03:56Z</time>
			<fix>3d</fix>
		</trkpt>
		<trkpt lat="35.164308" lon="-106.462754">
			<ele>2009.74</ele>
			<time>2015-03-08T16:03:57Z</time>
			<fix>3d</fix>
		</trkpt>
		<trkpt lat="35.164307" lon="-106.462741">
			<ele>2009.84</ele>
			<time>2015-03-08T16:03:58Z</time>
			<fix>3d</fix>
		</trkpt>
		<trkpt lat="35.164305" lon="-106.462728">
			<ele>2010.15</ele>
			<time>2015-03-08T16:03:59Z</time>
			<fix>3d</fix>
		</trkpt>
		<trkpt lat="35.164304" lon="-106.462713">
			<ele>2010.15</ele>
			<time>2015-03-08T16:04:00Z</time>
			<fix>3d</fix>
		</trkpt>
		<trkpt lat="35.164304" lon="-106.462707">
			<ele>2010.26</ele>
			<time>2015-03-08T16:04:01Z</time>
			<fix>3d</fix>
		</trkpt>
		<trkpt lat="35.164305" lon="-106.462688">
			<ele>2010.26</ele>
			<time>2015-03-08T16:04:02Z</time>
			<fix>3d</fix>
		</trkpt>
		<trkpt lat="35.164308" lon="-106.462669">
			<ele>2010.37</ele>
			<time>2015-03-08T16:04:03Z</time>
			<fix>3d</fix>
		</trkpt>
		<trkpt lat="35.164310" lon="-106.462654">
			<ele>2010.47</ele>
			<time>2015-03-08T16:04:04Z</time>
			<fix>3d</fix>
		</trkpt>
		<trkpt lat="35.164311" lon="-106.462642">
			<ele>2010.48</ele>
			<time>2015-03-08T16:04:05Z</time>
			<fix>3d</fix>
		</trkpt>
		<trkpt lat="35.164312" lon="-106.462629">
			<ele>2010.58</ele>
			<time>2015-03-08T16:04:06Z</time>
			<fix>3d</fix>
		</trkpt>
		<trkpt lat="35.164313" lon="-106.462615">
			<ele>2010.59</ele>
			<time>2015-03-08T16:04:07Z</time>
			<fix>3d</fix>
		</trkpt>
		<trkpt lat="35.164316" lon="-106.462597">
			<ele>2010.70</ele>
			<time>2015-03-08T16:04:08Z</time>
			<fix>3d</fix>
		</trkpt>
		<trkpt lat="35.164316" lon="-106.462583">
			<ele>2010.80</ele>
			<time>2015-03-08T16:04:09Z</time>
			<fix>3d</fix>
		</trkpt>
		<trkpt lat="35.164319" lon="-106.462565">
			<ele>2010.81</ele>
			<time>2015-03-08T16:04:10Z</time>
			<fix>3d</fix>
		</trkpt>
		<trkpt lat="35.164319" lon="-106.462552">
			<ele>2010.92</ele>
			<time>2015-03-08T16:04:11Z</time>
			<fix>3d</fix>
		</trkpt>
		<trkpt lat="35.164321" lon="-106.462538">
			<ele>2010.92</ele>
			<time>2015-03-08T16:04:12Z</time>
			<fix>3d</fix>
		</trkpt>
		<trkpt lat="35.164324" lon="-106.462521">
			<ele>2011.03</ele>
			<time>2015-03-08T16:04:13Z</time>
			<fix>3d</fix>
		</trkpt>
		<trkpt lat="35.164325" lon="-106.462505">
			<ele>2011.14</ele>
			<time>2015-03-08T16:04:14Z</time>
			<fix>3d</fix>
		</trkpt>
		<trkpt lat="35.164323" lon="-106.462491">
			<ele>2011.25</ele>
			<time>2015-03-08T16:04:15Z</time>
			<fix>3d</fix>
		</trkpt>
		<trkpt lat="35.164323" lon="-106.462478">
			<ele>2011.66</ele>
			<time>2015-03-08T16:04:16Z</time>
			<fix>3d</fix>
		</trkpt>
		<trkpt lat="35.164323" lon="-106.462472">
			<ele>2011.77</ele>
			<time>2015-03-08T16:04:17Z</time>
			<fix>3d</fix>
		</trkpt>
		<trkpt lat="35.164323" lon="-106.462449">
			<ele>2011.78</ele>
			<time>2015-03-08T16:04:18Z</time>
			<fix>3d</fix>
		</trkpt>
		<trkpt lat="35.164322" lon="-106.462434">
			<ele>2011.78</ele>
			<time>2015-03-08T16:04:19Z</time>
			<fix>3d</fix>
		</trkpt>
		<trkpt lat="35.164321" lon="-106.462420">
			<ele>2011.89</ele>
			<time>2015-03-08T16:04:20Z</time>
			<fix>3d</fix>
		</trkpt>
		<trkpt lat="35.164320" lon="-106.462405">
			<ele>2012.00</ele>
			<time>2015-03-08T16:04:21Z</time>
			<fix>3d</fix>
		</trkpt>
		<trkpt lat="35.164322" lon="-106.462386">
			<ele>2012.01</ele>
			<time>2015-03-08T16:04:22Z</time>
			<fix>3d</fix>
		</trkpt>
		<trkpt lat="35.164322" lon="-106.462373">
			<ele>2012.02</ele>
			<time>2015-03-08T16:04:23Z</time>
			<fix>3d</fix>
		</trkpt>
		<trkpt lat="35.164324" lon="-106.462356">
			<ele>2012.02</ele>
			<time>2015-03-08T16:04:24Z</time>
			<fix>3d</fix>
		</trkpt>
		<trkpt lat="35.164325" lon="-106.462343">
			<ele>2012.23</ele>
			<time>2015-03-08T16:04:25Z</time>
			<fix>3d</fix>
		</trkpt>
		<trkpt lat="35.164326" lon="-106.462326">
			<ele>2011.94</ele>
			<time>2015-03-08T16:04:26Z</time>
			<fix>3d</fix>
		</trkpt>
		<trkpt lat="35.164324" lon="-106.462309">
			<ele>2012.35</ele>
			<time>2015-03-08T16:04:27Z</time>
			<fix>3d</fix>
		</trkpt>
		<trkpt lat="35.164323" lon="-106.462295">
			<ele>2013.98</ele>
			<time>2015-03-08T16:04:28Z</time>
			<fix>3d</fix>
		</trkpt>
		<trkpt lat="35.164325" lon="-106.462276">
			<ele>2013.98</ele>
			<time>2015-03-08T16:04:29Z</time>
			<fix>3d</fix>
		</trkpt>
		<trkpt lat="35.164325" lon="-106.462259">
			<ele>2013.58</ele>
			<time>2015-03-08T16:04:30Z</time>
			<fix>3d</fix>
		</trkpt>
		<trkpt lat="35.164326" lon="-106.462242">
			<ele>2013.99</ele>
			<time>2015-03-08T16:04:31Z</time>
			<fix>3d</fix>
		</trkpt>
		<trkpt lat="35.164327" lon="-106.462226">
			<ele>2014.00</ele>
			<time>2015-03-08T16:04:32Z</time>
			<fix>3d</fix>
		</trkpt>
		<trkpt lat="35.164329" lon="-106.462210">
			<ele>2014.00</ele>
			<time>2015-03-08T16:04:33Z</time>
			<fix>3d</fix>
		</trkpt>
		<trkpt lat="35.164330" lon="-106.462194">
			<ele>2013.91</ele>
			<time>2015-03-08T16:04:34Z</time>
			<fix>3d</fix>
		</trkpt>
		<trkpt lat="35.164331" lon="-106.462179">
			<ele>2013.81</ele>
			<time>2015-03-08T16:04:35Z</time>
			<fix>3d</fix>
		</trkpt>
		<trkpt lat="35.164331" lon="-106.462165">
			<ele>2013.82</ele>
			<time>2015-03-08T16:04:36Z</time>
			<fix>3d</fix>
		</trkpt>
		<trkpt lat="35.164331" lon="-106.462150">
			<ele>2013.92</ele>
			<time>2015-03-08T16:04:37Z</time>
			<fix>3d</fix>
		</trkpt>
		<trkpt lat="35.164333" lon="-106.462132">
			<ele>2013.93</ele>
			<time>2015-03-08T16:04:38Z</time>
			<fix>3d</fix>
		</trkpt>
		<trkpt lat="35.164333" lon="-106.462117">
			<ele>2013.84</ele>
			<time>2015-03-08T16:04:39Z</time>
			<fix>3d</fix>
		</trkpt>
		<trkpt lat="35.164338" lon="-106.462098">
			<ele>2013.74</ele>
			<time>2015-03-08T16:04:40Z</time>
			<fix>3d</fix>
		</trkpt>
		<trkpt lat="35.164341" lon="-106.462082">
			<ele>2013.75</ele>
			<time>2015-03-08T16:04:41Z</time>
			<fix>3d</fix>
		</trkpt>
		<trkpt lat="35.164341" lon="-106.462068">
			<ele>2013.96</ele>
			<time>2015-03-08T16:04:42Z</time>
			<fix>3d</fix>
		</trkpt>
		<trkpt lat="35.164340" lon="-106.462047">
			<ele>2014.07</ele>
			<time>2015-03-08T16:04:43Z</time>
			<fix>3d</fix>
		</trkpt>
		<trkpt lat="35.164338" lon="-106.462037">
			<ele>2014.17</ele>
			<time>2015-03-08T16:04:44Z</time>
			<fix>3d</fix>
		</trkpt>
		<trkpt lat="35.164335" lon="-106.462023">
			<ele>2013.98</ele>
			<time>2015-03-08T16:04:45Z</time>
			<fix>3d</fix>
		</trkpt>
		<trkpt lat="35.164331" lon="-106.462009">
			<ele>2014.49</ele>
			<time>2015-03-08T16:04:46Z</time>
			<fix>3d</fix>
		</trkpt>
		<trkpt lat="35.164328" lon="-106.461992">
			<ele>2014.40</ele>
			<time>2015-03-08T16:04:47Z</time>
			<fix>3d</fix>
		</trkpt>
		<trkpt lat="35.164325" lon="-106.461978">
			<ele>2014.30</ele>
			<time>2015-03-08T16:04:48Z</time>
			<fix>3d</fix>
		</trkpt>
		<trkpt lat="35.164322" lon="-106.461965">
			<ele>2014.31</ele>
			<time>2015-03-08T16:04:49Z</time>
			<fix>3d</fix>
		</trkpt>
		<trkpt lat="35.164320" lon="-106.461952">
			<ele>2014.42</ele>
			<time>2015-03-08T16:04:50Z</time>
			<fix>3d</fix>
		</trkpt>
		<trkpt lat="35.164320" lon="-106.461936">
			<ele>2014.53</ele>
			<time>2015-03-08T16:04:51Z</time>
			<fix>3d</fix>
		</trkpt>
		<trkpt lat="35.164319" lon="-106.461922">
			<ele>2014.53</ele>
			<time>2015-03-08T16:04:52Z</time>
			<fix>3d</fix>
		</trkpt>
		<trkpt lat="35.164319" lon="-106.461908">
			<ele>2014.84</ele>
			<time>2015-03-08T16:04:53Z</time>
			<fix>3d</fix>
		</trkpt>
		<trkpt lat="35.164320" lon="-106.461891">
			<ele>2014.95</ele>
			<time>2015-03-08T16:04:54Z</time>
			<fix>3d</fix>
		</trkpt>
		<trkpt lat="35.164322" lon="-106.461876">
			<ele>2015.36</ele>
			<time>2015-03-08T16:04:55Z</time>
			<fix>3d</fix>
		</trkpt>
		<trkpt lat="35.164323" lon="-106.461860">
			<ele>2015.57</ele>
			<time>2015-03-08T16:04:56Z</time>
			<fix>3d</fix>
		</trkpt>
		<trkpt lat="35.164323" lon="-106.461846">
			<ele>2015.78</ele>
			<time>2015-03-08T16:04:57Z</time>
			<fix>3d</fix>
		</trkpt>
		<trkpt lat="35.164323" lon="-106.461828">
			<ele>2015.68</ele>
			<time>2015-03-08T16:04:58Z</time>
			<fix>3d</fix>
		</trkpt>
		<trkpt lat="35.164321" lon="-106.461812">
			<ele>2015.79</ele>
			<time>2015-03-08T16:04:59Z</time>
			<fix>3d</fix>
		</trkpt>
		<trkpt lat="35.164318" lon="-106.461797">
			<ele>2015.89</ele>
			<time>2015-03-08T16:05:00Z</time>
			<fix>3d</fix>
		</trkpt>
		<trkpt lat="35.164314" lon="-106.461782">
			<ele>2015.90</ele>
			<time>2015-03-08T16:05:01Z</time>
			<fix>3d</fix>
		</trkpt>
		<trkpt lat="35.164309" lon="-106.461768">
			<ele>2015.91</ele>
			<time>2015-03-08T16:05:02Z</time>
			<fix>3d</fix>
		</trkpt>
		<trkpt lat="35.164305" lon="-106.461756">
			<ele>2015.91</ele>
			<time>2015-03-08T16:05:03Z</time>
			<fix>3d</fix>
		</trkpt>
		<trkpt lat="35.164298" lon="-106.461744">
			<ele>2016.02</ele>
			<time>2015-03-08T16:05:04Z</time>
			<fix>3d</fix>
		</trkpt>
		<trkpt lat="35.164292" lon="-106.461732">
			<ele>2016.03</ele>
			<time>2015-03-08T16:05:05Z</time>
			<fix>3d</fix>
		</trkpt>
		<trkpt lat="35.164287" lon="-106.461720">
			<ele>2016.03</ele>
			<time>2015-03-08T16:05:06Z</time>
			<fix>3d</fix>
		</trkpt>
		<trkpt lat="35.164282" lon="-106.461707">
			<ele>2016.14</ele>
			<time>2015-03-08T16:05:07Z</time>
			<fix>3d</fix>
		</trkpt>
		<trkpt lat="35.164276" lon="-106.461692">
			<ele>2016.15</ele>
			<time>2015-03-08T16:05:08Z</time>
			<fix>3d</fix>
		</trkpt>
		<trkpt lat="35.164271" lon="-106.461678">
			<ele>2016.15</ele>
			<time>2015-03-08T16:05:09Z</time>
			<fix>3d</fix>
		</trkpt>
		<trkpt lat="35.164268" lon="-106.461664">
			<ele>2016.16</ele>
			<time>2015-03-08T16:05:10Z</time>
			<fix>3d</fix>
		</trkpt>
		<trkpt lat="35.164265" lon="-106.461648">
			<ele>2016.27</ele>
			<time>2015-03-08T16:05:11Z</time>
			<fix>3d</fix>
		</trkpt>
		<trkpt lat="35.164263" lon="-106.461634">
			<ele>2016.27</ele>
			<time>2015-03-08T16:05:12Z</time>
			<fix>3d</fix>
		</trkpt>
		<trkpt lat="35.164261" lon="-106.461621">
			<ele>2016.48</ele>
			<time>2015-03-08T16:05:13Z</time>
			<fix>3d</fix>
		</trkpt>
		<trkpt lat="35.164259" lon="-106.461607">
			<ele>2016.59</ele>
			<time>2015-03-08T16:05:14Z</time>
			<fix>3d</fix>
		</trkpt>
		<trkpt lat="35.164259" lon="-106.461592">
			<ele>2016.70</ele>
			<time>2015-03-08T16:05:15Z</time>
			<fix>3d</fix>
		</trkpt>
		<trkpt lat="35.164259" lon="-106.461579">
			<ele>2016.70</ele>
			<time>2015-03-08T16:05:16Z</time>
			<fix>3d</fix>
		</trkpt>
		<trkpt lat="35.164261" lon="-106.461562">
			<ele>2017.32</ele>
			<time>2015-03-08T16:05:17Z</time>
			<fix>3d</fix>
		</trkpt>
		<trkpt lat="35.164261" lon="-106.461546">
			<ele>2017.22</ele>
			<time>2015-03-08T16:05:18Z</time>
			<fix>3d</fix>
		</trkpt>
		<trkpt lat="35.164262" lon="-106.461532">
			<ele>2017.33</ele>
			<time>2015-03-08T16:05:19Z</time>
			<fix>3d</fix>
		</trkpt>
		<trkpt lat="35.164264" lon="-106.461516">
			<ele>2017.33</ele>
			<time>2015-03-08T16:05:20Z</time>
			<fix>3d</fix>
		</trkpt>
		<trkpt lat="35.164265" lon="-106.461501">
			<ele>2017.64</ele>
			<time>2015-03-08T16:05:21Z</time>
			<fix>3d</fix>
		</trkpt>
		<trkpt lat="35.164265" lon="-106.461485">
			<ele>2017.54</ele>
			<time>2015-03-08T16:05:22Z</time>
			<fix>3d</fix>
		</trkpt>
		<trkpt lat="35.164265" lon="-106.461470">
			<ele>2017.65</ele>
			<time>2015-03-08T16:05:23Z</time>
			<fix>3d</fix>
		</trkpt>
		<trkpt lat="35.164267" lon="-106.461455">
			<ele>2017.85</ele>
			<time>2015-03-08T16:05:24Z</time>
			<fix>3d</fix>
		</trkpt>
		<trkpt lat="35.164270" lon="-106.461435">
			<ele>2017.86</ele>
			<time>2015-03-08T16:05:25Z</time>
			<fix>3d</fix>
		</trkpt>
		<trkpt lat="35.164272" lon="-106.461418">
			<ele>2017.96</ele>
			<time>2015-03-08T16:05:26Z</time>
			<fix>3d</fix>
		</trkpt>
		<trkpt lat="35.164272" lon="-106.461403">
			<ele>2018.06</ele>
			<time>2015-03-08T16:05:27Z</time>
			<fix>3d</fix>
		</trkpt>
		<trkpt lat="35.164274" lon="-106.461387">
			<ele>2018.07</ele>
			<time>2015-03-08T16:05:28Z</time>
			<fix>3d</fix>
		</trkpt>
		<trkpt lat="35.164274" lon="-106.461371">
			<ele>2018.17</ele>
			<time>2015-03-08T16:05:29Z</time>
			<fix>3d</fix>
		</trkpt>
		<trkpt lat="35.164277" lon="-106.461351">
			<ele>2018.18</ele>
			<time>2015-03-08T16:05:30Z</time>
			<fix>3d</fix>
		</trkpt>
		<trkpt lat="35.164278" lon="-106.461333">
			<ele>2018.28</ele>
			<time>2015-03-08T16:05:31Z</time>
			<fix>3d</fix>
		</trkpt>
		<trkpt lat="35.164280" lon="-106.461316">
			<ele>2018.28</ele>
			<time>2015-03-08T16:05:32Z</time>
			<fix>3d</fix>
		</trkpt>
		<trkpt lat="35.164279" lon="-106.461301">
			<ele>2018.39</ele>
			<time>2015-03-08T16:05:33Z</time>
			<fix>3d</fix>
		</trkpt>
		<trkpt lat="35.164281" lon="-106.461282">
			<ele>2018.29</ele>
			<time>2015-03-08T16:05:34Z</time>
			<fix>3d</fix>
		</trkpt>
		<trkpt lat="35.164281" lon="-106.461268">
			<ele>2018.30</ele>
			<time>2015-03-08T16:05:35Z</time>
			<fix>3d</fix>
		</trkpt>
		<trkpt lat="35.164283" lon="-106.461254">
			<ele>2018.30</ele>
			<time>2015-03-08T16:05:36Z</time>
			<fix>3d</fix>
		</trkpt>
		<trkpt lat="35.164285" lon="-106.461240">
			<ele>2018.30</ele>
			<time>2015-03-08T16:05:37Z</time>
			<fix>3d</fix>
		</trkpt>
		<trkpt lat="35.164287" lon="-106.461225">
			<ele>2018.31</ele>
			<time>2015-03-08T16:05:38Z</time>
			<fix>3d</fix>
		</trkpt>
		<trkpt lat="35.164286" lon="-106.461209">
			<ele>2018.41</ele>
			<time>2015-03-08T16:05:39Z</time>
			<fix>3d</fix>
		</trkpt>
		<trkpt lat="35.164286" lon="-106.461194">
			<ele>2018.72</ele>
			<time>2015-03-08T16:05:40Z</time>
			<fix>3d</fix>
		</trkpt>
		<trkpt lat="35.164287" lon="-106.461179">
			<ele>2018.72</ele>
			<time>2015-03-08T16:05:41Z</time>
			<fix>3d</fix>
		</trkpt>
		<trkpt lat="35.164287" lon="-106.461166">
			<ele>2018.83</ele>
			<time>2015-03-08T16:05:42Z</time>
			<fix>3d</fix>
		</trkpt>
		<trkpt lat="35.164291" lon="-106.461149">
			<ele>2018.83</ele>
			<time>2015-03-08T16:05:43Z</time>
			<fix>3d</fix>
		</trkpt>
		<trkpt lat="35.164295" lon="-106.461135">
			<ele>2018.73</ele>
			<time>2015-03-08T16:05:44Z</time>
			<fix>3d</fix>
		</trkpt>
		<trkpt lat="35.164296" lon="-106.461122">
			<ele>2018.84</ele>
			<time>2015-03-08T16:05:45Z</time>
			<fix>3d</fix>
		</trkpt>
		<trkpt lat="35.164300" lon="-106.461104">
			<ele>2018.74</ele>
			<time>2015-03-08T16:05:46Z</time>
			<fix>3d</fix>
		</trkpt>
		<trkpt lat="35.164302" lon="-106.461091">
			<ele>2018.74</ele>
			<time>2015-03-08T16:05:47Z</time>
			<fix>3d</fix>
		</trkpt>
		<trkpt lat="35.164304" lon="-106.461077">
			<ele>2018.44</ele>
			<time>2015-03-08T16:05:48Z</time>
			<fix>3d</fix>
		</trkpt>
		<trkpt lat="35.164310" lon="-106.461060">
			<ele>2018.55</ele>
			<time>2015-03-08T16:05:49Z</time>
			<fix>3d</fix>
		</trkpt>
		<trkpt lat="35.164313" lon="-106.461047">
			<ele>2018.55</ele>
			<time>2015-03-08T16:05:50Z</time>
			<fix>3d</fix>
		</trkpt>
		<trkpt lat="35.164315" lon="-106.461042">
			<ele>2018.55</ele>
			<time>2015-03-08T16:05:51Z</time>
			<fix>3d</fix>
		</trkpt>
		<trkpt lat="35.164321" lon="-106.461025">
			<ele>2018.66</ele>
			<time>2015-03-08T16:05:52Z</time>
			<fix>3d</fix>
		</trkpt>
		<trkpt lat="35.164325" lon="-106.461010">
			<ele>2018.76</ele>
			<time>2015-03-08T16:05:53Z</time>
			<fix>3d</fix>
		</trkpt>
		<trkpt lat="35.164326" lon="-106.460996">
			<ele>2018.87</ele>
			<time>2015-03-08T16:05:54Z</time>
			<fix>3d</fix>
		</trkpt>
		<trkpt lat="35.164329" lon="-106.460977">
			<ele>2018.87</ele>
			<time>2015-03-08T16:05:55Z</time>
			<fix>3d</fix>
		</trkpt>
		<trkpt lat="35.164330" lon="-106.460960">
			<ele>2018.97</ele>
			<time>2015-03-08T16:05:56Z</time>
			<fix>3d</fix>
		</trkpt>
		<trkpt lat="35.164331" lon="-106.460943">
			<ele>2019.08</ele>
			<time>2015-03-08T16:05:57Z</time>
			<fix>3d</fix>
		</trkpt>
		<trkpt lat="35.164335" lon="-106.460930">
			<ele>2019.08</ele>
			<time>2015-03-08T16:05:58Z</time>
			<fix>3d</fix>
		</trkpt>
		<trkpt lat="35.164335" lon="-106.460925">
			<ele>2018.98</ele>
			<time>2015-03-08T16:05:59Z</time>
			<fix>3d</fix>
		</trkpt>
		<trkpt lat="35.164336" lon="-106.460918">
			<ele>2019.29</ele>
			<time>2015-03-08T16:06:00Z</time>
			<fix>3d</fix>
		</trkpt>
		<trkpt lat="35.164337" lon="-106.460896">
			<ele>2019.80</ele>
			<time>2015-03-08T16:06:01Z</time>
			<fix>3d</fix>
		</trkpt>
		<trkpt lat="35.164338" lon="-106.460879">
			<ele>2019.80</ele>
			<time>2015-03-08T16:06:02Z</time>
			<fix>3d</fix>
		</trkpt>
		<trkpt lat="35.164337" lon="-106.460853">
			<ele>2020.11</ele>
			<time>2015-03-08T16:06:03Z</time>
			<fix>3d</fix>
		</trkpt>
		<trkpt lat="35.164336" lon="-106.460838">
			<ele>2020.21</ele>
			<time>2015-03-08T16:06:04Z</time>
			<fix>3d</fix>
		</trkpt>
		<trkpt lat="35.164334" lon="-106.460821">
			<ele>2020.21</ele>
			<time>2015-03-08T16:06:05Z</time>
			<fix>3d</fix>
		</trkpt>
		<trkpt lat="35.164333" lon="-106.460805">
			<ele>2020.21</ele>
			<time>2015-03-08T16:06:06Z</time>
			<fix>3d</fix>
		</trkpt>
		<trkpt lat="35.164331" lon="-106.460792">
			<ele>2020.22</ele>
			<time>2015-03-08T16:06:07Z</time>
			<fix>3d</fix>
		</trkpt>
		<trkpt lat="35.164331" lon="-106.460775">
			<ele>2020.22</ele>
			<time>2015-03-08T16:06:08Z</time>
			<fix>3d</fix>
		</trkpt>
		<trkpt lat="35.164332" lon="-106.460759">
			<ele>2020.32</ele>
			<time>2015-03-08T16:06:09Z</time>
			<fix>3d</fix>
		</trkpt>
		<trkpt lat="35.164331" lon="-106.460747">
			<ele>2020.43</ele>
			<time>2015-03-08T16:06:10Z</time>
			<fix>3d</fix>
		</trkpt>
		<trkpt lat="35.164331" lon="-106.460734">
			<ele>2020.53</ele>
			<time>2015-03-08T16:06:11Z</time>
			<fix>3d</fix>
		</trkpt>
		<trkpt lat="35.164331" lon="-106.460722">
			<ele>2021.04</ele>
			<time>2015-03-08T16:06:12Z</time>
			<fix>3d</fix>
		</trkpt>
		<trkpt lat="35.164331" lon="-106.460716">
			<ele>2021.04</ele>
			<time>2015-03-08T16:06:13Z</time>
			<fix>3d</fix>
		</trkpt>
		<trkpt lat="35.164328" lon="-106.460698">
			<ele>2021.04</ele>
			<time>2015-03-08T16:06:14Z</time>
			<fix>3d</fix>
		</trkpt>
		<trkpt lat="35.164325" lon="-106.460683">
			<ele>2021.15</ele>
			<time>2015-03-08T16:06:15Z</time>
			<fix>3d</fix>
		</trkpt>
		<trkpt lat="35.164321" lon="-106.460667">
			<ele>2021.25</ele>
			<time>2015-03-08T16:06:16Z</time>
			<fix>3d</fix>
		</trkpt>
		<trkpt lat="35.164317" lon="-106.460652">
			<ele>2021.25</ele>
			<time>2015-03-08T16:06:17Z</time>
			<fix>3d</fix>
		</trkpt>
		<trkpt lat="35.164310" lon="-106.460639">
			<ele>2021.46</ele>
			<time>2015-03-08T16:06:18Z</time>
			<fix>3d</fix>
		</trkpt>
		<trkpt lat="35.164303" lon="-106.460627">
			<ele>2021.56</ele>
			<time>2015-03-08T16:06:19Z</time>
			<fix>3d</fix>
		</trkpt>
		<trkpt lat="35.164296" lon="-106.460616">
			<ele>2021.56</ele>
			<time>2015-03-08T16:06:20Z</time>
			<fix>3d</fix>
		</trkpt>
		<trkpt lat="35.164291" lon="-106.460603">
			<ele>2021.77</ele>
			<time>2015-03-08T16:06:21Z</time>
			<fix>3d</fix>
		</trkpt>
		<trkpt lat="35.164286" lon="-106.460588">
			<ele>2021.97</ele>
			<time>2015-03-08T16:06:22Z</time>
			<fix>3d</fix>
		</trkpt>
		<trkpt lat="35.164283" lon="-106.460576">
			<ele>2022.58</ele>
			<time>2015-03-08T16:06:23Z</time>
			<fix>3d</fix>
		</trkpt>
		<trkpt lat="35.164280" lon="-106.460563">
			<ele>2022.28</ele>
			<time>2015-03-08T16:06:24Z</time>
			<fix>3d</fix>
		</trkpt>
		<trkpt lat="35.164279" lon="-106.460550">
			<ele>2022.28</ele>
			<time>2015-03-08T16:06:25Z</time>
			<fix>3d</fix>
		</trkpt>
		<trkpt lat="35.164278" lon="-106.460538">
			<ele>2022.28</ele>
			<time>2015-03-08T16:06:26Z</time>
			<fix>3d</fix>
		</trkpt>
		<trkpt lat="35.164277" lon="-106.460524">
			<ele>2022.38</ele>
			<time>2015-03-08T16:06:27Z</time>
			<fix>3d</fix>
		</trkpt>
		<trkpt lat="35.164276" lon="-106.460515">
			<ele>2022.59</ele>
			<time>2015-03-08T16:06:29Z</time>
			<fix>3d</fix>
		</trkpt>
		<trkpt lat="35.164267" lon="-106.460490">
			<ele>2022.81</ele>
			<time>2015-03-08T16:06:40Z</time>
			<fix>3d</fix>
		</trkpt>
		<trkpt lat="35.164262" lon="-106.460486">
			<ele>2022.92</ele>
			<time>2015-03-08T16:06:42Z</time>
			<fix>3d</fix>
		</trkpt>
		<trkpt lat="35.164257" lon="-106.460478">
			<ele>2022.92</ele>
			<time>2015-03-08T16:06:43Z</time>
			<fix>3d</fix>
		</trkpt>
		<trkpt lat="35.164254" lon="-106.460464">
			<ele>2022.92</ele>
			<time>2015-03-08T16:06:44Z</time>
			<fix>3d</fix>
		</trkpt>
		<trkpt lat="35.164252" lon="-106.460453">
			<ele>2022.92</ele>
			<time>2015-03-08T16:06:45Z</time>
			<fix>3d</fix>
		</trkpt>
		<trkpt lat="35.164250" lon="-106.460442">
			<ele>2023.13</ele>
			<time>2015-03-08T16:06:46Z</time>
			<fix>3d</fix>
		</trkpt>
		<trkpt lat="35.164251" lon="-106.460427">
			<ele>2023.13</ele>
			<time>2015-03-08T16:06:47Z</time>
			<fix>3d</fix>
		</trkpt>
		<trkpt lat="35.164250" lon="-106.460414">
			<ele>2023.33</ele>
			<time>2015-03-08T16:06:48Z</time>
			<fix>3d</fix>
		</trkpt>
		<trkpt lat="35.164251" lon="-106.460400">
			<ele>2023.34</ele>
			<time>2015-03-08T16:06:49Z</time>
			<fix>3d</fix>
		</trkpt>
		<trkpt lat="35.164250" lon="-106.460386">
			<ele>2023.34</ele>
			<time>2015-03-08T16:06:50Z</time>
			<fix>3d</fix>
		</trkpt>
		<trkpt lat="35.164250" lon="-106.460372">
			<ele>2023.34</ele>
			<time>2015-03-08T16:06:51Z</time>
			<fix>3d</fix>
		</trkpt>
		<trkpt lat="35.164252" lon="-106.460354">
			<ele>2023.65</ele>
			<time>2015-03-08T16:06:52Z</time>
			<fix>3d</fix>
		</trkpt>
		<trkpt lat="35.164252" lon="-106.460349">
			<ele>2023.65</ele>
			<time>2015-03-08T16:06:53Z</time>
			<fix>3d</fix>
		</trkpt>
		<trkpt lat="35.164254" lon="-106.460331">
			<ele>2023.65</ele>
			<time>2015-03-08T16:06:54Z</time>
			<fix>3d</fix>
		</trkpt>
		<trkpt lat="35.164259" lon="-106.460318">
			<ele>2023.75</ele>
			<time>2015-03-08T16:06:55Z</time>
			<fix>3d</fix>
		</trkpt>
		<trkpt lat="35.164260" lon="-106.460313">
			<ele>2023.76</ele>
			<time>2015-03-08T16:06:56Z</time>
			<fix>3d</fix>
		</trkpt>
		<trkpt lat="35.164264" lon="-106.460294">
			<ele>2023.86</ele>
			<time>2015-03-08T16:06:57Z</time>
			<fix>3d</fix>
		</trkpt>
		<trkpt lat="35.164271" lon="-106.460276">
			<ele>2023.76</ele>
			<time>2015-03-08T16:06:58Z</time>
			<fix>3d</fix>
		</trkpt>
		<trkpt lat="35.164274" lon="-106.460261">
			<ele>2024.17</ele>
			<time>2015-03-08T16:06:59Z</time>
			<fix>3d</fix>
		</trkpt>
		<trkpt lat="35.164277" lon="-106.460246">
			<ele>2024.27</ele>
			<time>2015-03-08T16:07:00Z</time>
			<fix>3d</fix>
		</trkpt>
		<trkpt lat="35.164283" lon="-106.460230">
			<ele>2024.27</ele>
			<time>2015-03-08T16:07:01Z</time>
			<fix>3d</fix>
		</trkpt>
		<trkpt lat="35.164283" lon="-106.460215">
			<ele>2024.38</ele>
			<time>2015-03-08T16:07:02Z</time>
			<fix>3d</fix>
		</trkpt>
		<trkpt lat="35.164282" lon="-106.460202">
			<ele>2024.38</ele>
			<time>2015-03-08T16:07:03Z</time>
			<fix>3d</fix>
		</trkpt>
		<trkpt lat="35.164281" lon="-106.460189">
			<ele>2024.38</ele>
			<time>2015-03-08T16:07:04Z</time>
			<fix>3d</fix>
		</trkpt>
		<trkpt lat="35.164281" lon="-106.460184">
			<ele>2024.39</ele>
			<time>2015-03-08T16:07:05Z</time>
			<fix>3d</fix>
		</trkpt>
		<trkpt lat="35.164277" lon="-106.460161">
			<ele>2024.49</ele>
			<time>2015-03-08T16:07:06Z</time>
			<fix>3d</fix>
		</trkpt>
		<trkpt lat="35.164274" lon="-106.460145">
			<ele>2024.49</ele>
			<time>2015-03-08T16:07:07Z</time>
			<fix>3d</fix>
		</trkpt>
		<trkpt lat="35.164271" lon="-106.460129">
			<ele>2024.60</ele>
			<time>2015-03-08T16:07:08Z</time>
			<fix>3d</fix>
		</trkpt>
		<trkpt lat="35.164269" lon="-106.460116">
			<ele>2024.80</ele>
			<time>2015-03-08T16:07:09Z</time>
			<fix>3d</fix>
		</trkpt>
		<trkpt lat="35.164268" lon="-106.460103">
			<ele>2025.11</ele>
			<time>2015-03-08T16:07:10Z</time>
			<fix>3d</fix>
		</trkpt>
		<trkpt lat="35.164268" lon="-106.460088">
			<ele>2025.22</ele>
			<time>2015-03-08T16:07:11Z</time>
			<fix>3d</fix>
		</trkpt>
		<trkpt lat="35.164269" lon="-106.460069">
			<ele>2025.42</ele>
			<time>2015-03-08T16:07:12Z</time>
			<fix>3d</fix>
		</trkpt>
		<trkpt lat="35.164268" lon="-106.460048">
			<ele>2025.73</ele>
			<time>2015-03-08T16:07:13Z</time>
			<fix>3d</fix>
		</trkpt>
		<trkpt lat="35.164266" lon="-106.460034">
			<ele>2026.14</ele>
			<time>2015-03-08T16:07:14Z</time>
			<fix>3d</fix>
		</trkpt>
		<trkpt lat="35.164264" lon="-106.460018">
			<ele>2026.14</ele>
			<time>2015-03-08T16:07:15Z</time>
			<fix>3d</fix>
		</trkpt>
		<trkpt lat="35.164261" lon="-106.460001">
			<ele>2026.14</ele>
			<time>2015-03-08T16:07:16Z</time>
			<fix>3d</fix>
		</trkpt>
		<trkpt lat="35.164257" lon="-106.459987">
			<ele>2026.14</ele>
			<time>2015-03-08T16:07:17Z</time>
			<fix>3d</fix>
		</trkpt>
		<trkpt lat="35.164251" lon="-106.459975">
			<ele>2026.25</ele>
			<time>2015-03-08T16:07:18Z</time>
			<fix>3d</fix>
		</trkpt>
		<trkpt lat="35.164247" lon="-106.459963">
			<ele>2026.45</ele>
			<time>2015-03-08T16:07:19Z</time>
			<fix>3d</fix>
		</trkpt>
		<trkpt lat="35.164241" lon="-106.459951">
			<ele>2026.46</ele>
			<time>2015-03-08T16:07:20Z</time>
			<fix>3d</fix>
		</trkpt>
		<trkpt lat="35.164238" lon="-106.459947">
			<ele>2026.66</ele>
			<time>2015-03-08T16:07:21Z</time>
			<fix>3d</fix>
		</trkpt>
		<trkpt lat="35.164229" lon="-106.459933">
			<ele>2027.27</ele>
			<time>2015-03-08T16:07:22Z</time>
			<fix>3d</fix>
		</trkpt>
		<trkpt lat="35.164219" lon="-106.459920">
			<ele>2027.07</ele>
			<time>2015-03-08T16:07:23Z</time>
			<fix>3d</fix>
		</trkpt>
		<trkpt lat="35.164214" lon="-106.459907">
			<ele>2027.08</ele>
			<time>2015-03-08T16:07:24Z</time>
			<fix>3d</fix>
		</trkpt>
		<trkpt lat="35.164210" lon="-106.459890">
			<ele>2027.08</ele>
			<time>2015-03-08T16:07:25Z</time>
			<fix>3d</fix>
		</trkpt>
		<trkpt lat="35.164210" lon="-106.459875">
			<ele>2027.18</ele>
			<time>2015-03-08T16:07:26Z</time>
			<fix>3d</fix>
		</trkpt>
		<trkpt lat="35.164212" lon="-106.459862">
			<ele>2027.18</ele>
			<time>2015-03-08T16:07:27Z</time>
			<fix>3d</fix>
		</trkpt>
		<trkpt lat="35.164216" lon="-106.459849">
			<ele>2027.39</ele>
			<time>2015-03-08T16:07:28Z</time>
			<fix>3d</fix>
		</trkpt>
		<trkpt lat="35.164222" lon="-106.459835">
			<ele>2027.39</ele>
			<time>2015-03-08T16:07:29Z</time>
			<fix>3d</fix>
		</trkpt>
		<trkpt lat="35.164229" lon="-106.459822">
			<ele>2027.40</ele>
			<time>2015-03-08T16:07:30Z</time>
			<fix>3d</fix>
		</trkpt>
		<trkpt lat="35.164239" lon="-106.459809">
			<ele>2027.50</ele>
			<time>2015-03-08T16:07:31Z</time>
			<fix>3d</fix>
		</trkpt>
		<trkpt lat="35.164242" lon="-106.459797">
			<ele>2027.50</ele>
			<time>2015-03-08T16:07:32Z</time>
			<fix>3d</fix>
		</trkpt>
		<trkpt lat="35.164247" lon="-106.459785">
			<ele>2027.91</ele>
			<time>2015-03-08T16:07:33Z</time>
			<fix>3d</fix>
		</trkpt>
		<trkpt lat="35.164256" lon="-106.459769">
			<ele>2027.81</ele>
			<time>2015-03-08T16:07:34Z</time>
			<fix>3d</fix>
		</trkpt>
		<trkpt lat="35.164259" lon="-106.459757">
			<ele>2027.92</ele>
			<time>2015-03-08T16:07:35Z</time>
			<fix>3d</fix>
		</trkpt>
		<trkpt lat="35.164260" lon="-106.459752">
			<ele>2028.02</ele>
			<time>2015-03-08T16:07:36Z</time>
			<fix>3d</fix>
		</trkpt>
		<trkpt lat="35.164262" lon="-106.459745">
			<ele>2028.33</ele>
			<time>2015-03-08T16:07:37Z</time>
			<fix>3d</fix>
		</trkpt>
		<trkpt lat="35.164270" lon="-106.459728">
			<ele>2028.33</ele>
			<time>2015-03-08T16:07:38Z</time>
			<fix>3d</fix>
		</trkpt>
		<trkpt lat="35.164275" lon="-106.459715">
			<ele>2028.54</ele>
			<time>2015-03-08T16:07:39Z</time>
			<fix>3d</fix>
		</trkpt>
		<trkpt lat="35.164279" lon="-106.459702">
			<ele>2028.74</ele>
			<time>2015-03-08T16:07:40Z</time>
			<fix>3d</fix>
		</trkpt>
		<trkpt lat="35.164284" lon="-106.459690">
			<ele>2028.85</ele>
			<time>2015-03-08T16:07:41Z</time>
			<fix>3d</fix>
		</trkpt>
		<trkpt lat="35.164292" lon="-106.459680">
			<ele>2028.85</ele>
			<time>2015-03-08T16:07:42Z</time>
			<fix>3d</fix>
		</trkpt>
		<trkpt lat="35.164299" lon="-106.459670">
			<ele>2029.06</ele>
			<time>2015-03-08T16:07:43Z</time>
			<fix>3d</fix>
		</trkpt>
		<trkpt lat="35.164307" lon="-106.459660">
			<ele>2029.06</ele>
			<time>2015-03-08T16:07:44Z</time>
			<fix>3d</fix>
		</trkpt>
		<trkpt lat="35.164315" lon="-106.459649">
			<ele>2029.16</ele>
			<time>2015-03-08T16:07:45Z</time>
			<fix>3d</fix>
		</trkpt>
		<trkpt lat="35.164322" lon="-106.459637">
			<ele>2029.17</ele>
			<time>2015-03-08T16:07:46Z</time>
			<fix>3d</fix>
		</trkpt>
		<trkpt lat="35.164330" lon="-106.459624">
			<ele>2029.07</ele>
			<time>2015-03-08T16:07:47Z</time>
			<fix>3d</fix>
		</trkpt>
		<trkpt lat="35.164342" lon="-106.459611">
			<ele>2029.48</ele>
			<time>2015-03-08T16:07:48Z</time>
			<fix>3d</fix>
		</trkpt>
		<trkpt lat="35.164346" lon="-106.459599">
			<ele>2029.48</ele>
			<time>2015-03-08T16:07:49Z</time>
			<fix>3d</fix>
		</trkpt>
		<trkpt lat="35.164348" lon="-106.459595">
			<ele>2029.58</ele>
			<time>2015-03-08T16:07:50Z</time>
			<fix>3d</fix>
		</trkpt>
		<trkpt lat="35.164356" lon="-106.459579">
			<ele>2029.58</ele>
			<time>2015-03-08T16:07:51Z</time>
			<fix>3d</fix>
		</trkpt>
		<trkpt lat="35.164364" lon="-106.459566">
			<ele>2029.59</ele>
			<time>2015-03-08T16:07:52Z</time>
			<fix>3d</fix>
		</trkpt>
		<trkpt lat="35.164375" lon="-106.459554">
			<ele>2029.69</ele>
			<time>2015-03-08T16:07:53Z</time>
			<fix>3d</fix>
		</trkpt>
		<trkpt lat="35.164377" lon="-106.459549">
			<ele>2030.50</ele>
			<time>2015-03-08T16:07:54Z</time>
			<fix>3d</fix>
		</trkpt>
		<trkpt lat="35.164379" lon="-106.459540">
			<ele>2030.31</ele>
			<time>2015-03-08T16:07:57Z</time>
			<fix>3d</fix>
		</trkpt>
		<trkpt lat="35.164390" lon="-106.459516">
			<ele>2030.53</ele>
			<time>2015-03-08T16:08:05Z</time>
			<fix>3d</fix>
		</trkpt>
		<trkpt lat="35.164403" lon="-106.459509">
			<ele>2030.53</ele>
			<time>2015-03-08T16:08:06Z</time>
			<fix>3d</fix>
		</trkpt>
		<trkpt lat="35.164409" lon="-106.459498">
			<ele>2030.53</ele>
			<time>2015-03-08T16:08:07Z</time>
			<fix>3d</fix>
		</trkpt>
		<trkpt lat="35.164419" lon="-106.459484">
			<ele>2030.53</ele>
			<time>2015-03-08T16:08:08Z</time>
			<fix>3d</fix>
		</trkpt>
		<trkpt lat="35.164425" lon="-106.459471">
			<ele>2030.53</ele>
			<time>2015-03-08T16:08:09Z</time>
			<fix>3d</fix>
		</trkpt>
		<trkpt lat="35.164433" lon="-106.459457">
			<ele>2030.54</ele>
			<time>2015-03-08T16:08:10Z</time>
			<fix>3d</fix>
		</trkpt>
		<trkpt lat="35.164440" lon="-106.459441">
			<ele>2030.74</ele>
			<time>2015-03-08T16:08:11Z</time>
			<fix>3d</fix>
		</trkpt>
		<trkpt lat="35.164448" lon="-106.459426">
			<ele>2030.95</ele>
			<time>2015-03-08T16:08:12Z</time>
			<fix>3d</fix>
		</trkpt>
		<trkpt lat="35.164457" lon="-106.459412">
			<ele>2031.05</ele>
			<time>2015-03-08T16:08:13Z</time>
			<fix>3d</fix>
		</trkpt>
		<trkpt lat="35.164463" lon="-106.459400">
			<ele>2031.05</ele>
			<time>2015-03-08T16:08:14Z</time>
			<fix>3d</fix>
		</trkpt>
		<trkpt lat="35.164474" lon="-106.459388">
			<ele>2031.15</ele>
			<time>2015-03-08T16:08:15Z</time>
			<fix>3d</fix>
		</trkpt>
		<trkpt lat="35.164481" lon="-106.459375">
			<ele>2031.36</ele>
			<time>2015-03-08T16:08:16Z</time>
			<fix>3d</fix>
		</trkpt>
		<trkpt lat="35.164485" lon="-106.459363">
			<ele>2031.36</ele>
			<time>2015-03-08T16:08:17Z</time>
			<fix>3d</fix>
		</trkpt>
		<trkpt lat="35.164493" lon="-106.459348">
			<ele>2031.36</ele>
			<time>2015-03-08T16:08:18Z</time>
			<fix>3d</fix>
		</trkpt>
		<trkpt lat="35.164500" lon="-106.459333">
			<ele>2031.36</ele>
			<time>2015-03-08T16:08:19Z</time>
			<fix>3d</fix>
		</trkpt>
		<trkpt lat="35.164506" lon="-106.459315">
			<ele>2031.46</ele>
			<time>2015-03-08T16:08:20Z</time>
			<fix>3d</fix>
		</trkpt>
		<trkpt lat="35.164512" lon="-106.459304">
			<ele>2031.47</ele>
			<time>2015-03-08T16:08:21Z</time>
			<fix>3d</fix>
		</trkpt>
		<trkpt lat="35.164516" lon="-106.459286">
			<ele>2031.16</ele>
			<time>2015-03-08T16:08:22Z</time>
			<fix>3d</fix>
		</trkpt>
		<trkpt lat="35.164521" lon="-106.459273">
			<ele>2031.87</ele>
			<time>2015-03-08T16:08:23Z</time>
			<fix>3d</fix>
		</trkpt>
		<trkpt lat="35.164524" lon="-106.459257">
			<ele>2032.69</ele>
			<time>2015-03-08T16:08:24Z</time>
			<fix>3d</fix>
		</trkpt>
		<trkpt lat="35.164525" lon="-106.459242">
			<ele>2032.48</ele>
			<time>2015-03-08T16:08:25Z</time>
			<fix>3d</fix>
		</trkpt>
		<trkpt lat="35.164528" lon="-106.459225">
			<ele>2032.49</ele>
			<time>2015-03-08T16:08:26Z</time>
			<fix>3d</fix>
		</trkpt>
		<trkpt lat="35.164531" lon="-106.459211">
			<ele>2032.49</ele>
			<time>2015-03-08T16:08:27Z</time>
			<fix>3d</fix>
		</trkpt>
		<trkpt lat="35.164534" lon="-106.459193">
			<ele>2032.39</ele>
			<time>2015-03-08T16:08:28Z</time>
			<fix>3d</fix>
		</trkpt>
		<trkpt lat="35.164538" lon="-106.459178">
			<ele>2032.39</ele>
			<time>2015-03-08T16:08:29Z</time>
			<fix>3d</fix>
		</trkpt>
		<trkpt lat="35.164542" lon="-106.459162">
			<ele>2032.39</ele>
			<time>2015-03-08T16:08:30Z</time>
			<fix>3d</fix>
		</trkpt>
		<trkpt lat="35.164545" lon="-106.459148">
			<ele>2032.49</ele>
			<time>2015-03-08T16:08:31Z</time>
			<fix>3d</fix>
		</trkpt>
		<trkpt lat="35.164547" lon="-106.459135">
			<ele>2032.70</ele>
			<time>2015-03-08T16:08:32Z</time>
			<fix>3d</fix>
		</trkpt>
		<trkpt lat="35.164548" lon="-106.459129">
			<ele>2032.90</ele>
			<time>2015-03-08T16:08:33Z</time>
			<fix>3d</fix>
		</trkpt>
		<trkpt lat="35.164550" lon="-106.459113">
			<ele>2032.90</ele>
			<time>2015-03-08T16:08:34Z</time>
			<fix>3d</fix>
		</trkpt>
		<trkpt lat="35.164554" lon="-106.459101">
			<ele>2032.90</ele>
			<time>2015-03-08T16:08:35Z</time>
			<fix>3d</fix>
		</trkpt>
		<trkpt lat="35.164561" lon="-106.459090">
			<ele>2033.00</ele>
			<time>2015-03-08T16:08:36Z</time>
			<fix>3d</fix>
		</trkpt>
		<trkpt lat="35.164561" lon="-106.459078">
			<ele>2033.11</ele>
			<time>2015-03-08T16:08:37Z</time>
			<fix>3d</fix>
		</trkpt>
		<trkpt lat="35.164562" lon="-106.459065">
			<ele>2033.11</ele>
			<time>2015-03-08T16:08:38Z</time>
			<fix>3d</fix>
		</trkpt>
		<trkpt lat="35.164561" lon="-106.459059">
			<ele>2033.31</ele>
			<time>2015-03-08T16:08:39Z</time>
			<fix>3d</fix>
		</trkpt>
		<trkpt lat="35.164559" lon="-106.459041">
			<ele>2033.31</ele>
			<time>2015-03-08T16:08:40Z</time>
			<fix>3d</fix>
		</trkpt>
		<trkpt lat="35.164558" lon="-106.459027">
			<ele>2033.42</ele>
			<time>2015-03-08T16:08:41Z</time>
			<fix>3d</fix>
		</trkpt>
		<trkpt lat="35.164559" lon="-106.459012">
			<ele>2033.52</ele>
			<time>2015-03-08T16:08:42Z</time>
			<fix>3d</fix>
		</trkpt>
		<trkpt lat="35.164558" lon="-106.458999">
			<ele>2033.52</ele>
			<time>2015-03-08T16:08:43Z</time>
			<fix>3d</fix>
		</trkpt>
		<trkpt lat="35.164559" lon="-106.458987">
			<ele>2033.62</ele>
			<time>2015-03-08T16:08:44Z</time>
			<fix>3d</fix>
		</trkpt>
		<trkpt lat="35.164559" lon="-106.458975">
			<ele>2034.13</ele>
			<time>2015-03-08T16:08:45Z</time>
			<fix>3d</fix>
		</trkpt>
		<trkpt lat="35.164558" lon="-106.458962">
			<ele>2034.23</ele>
			<time>2015-03-08T16:08:46Z</time>
			<fix>3d</fix>
		</trkpt>
		<trkpt lat="35.164558" lon="-106.458949">
			<ele>2034.64</ele>
			<time>2015-03-08T16:08:47Z</time>
			<fix>3d</fix>
		</trkpt>
		<trkpt lat="35.164560" lon="-106.458935">
			<ele>2034.84</ele>
			<time>2015-03-08T16:08:48Z</time>
			<fix>3d</fix>
		</trkpt>
		<trkpt lat="35.164568" lon="-106.458918">
			<ele>2034.84</ele>
			<time>2015-03-08T16:08:49Z</time>
			<fix>3d</fix>
		</trkpt>
		<trkpt lat="35.164572" lon="-106.458905">
			<ele>2034.95</ele>
			<time>2015-03-08T16:08:50Z</time>
			<fix>3d</fix>
		</trkpt>
		<trkpt lat="35.164579" lon="-106.458890">
			<ele>2034.85</ele>
			<time>2015-03-08T16:08:51Z</time>
			<fix>3d</fix>
		</trkpt>
		<trkpt lat="35.164582" lon="-106.458878">
			<ele>2035.15</ele>
			<time>2015-03-08T16:08:52Z</time>
			<fix>3d</fix>
		</trkpt>
		<trkpt lat="35.164586" lon="-106.458866">
			<ele>2035.25</ele>
			<time>2015-03-08T16:08:53Z</time>
			<fix>3d</fix>
		</trkpt>
		<trkpt lat="35.164590" lon="-106.458851">
			<ele>2035.56</ele>
			<time>2015-03-08T16:08:54Z</time>
			<fix>3d</fix>
		</trkpt>
		<trkpt lat="35.164595" lon="-106.458834">
			<ele>2035.56</ele>
			<time>2015-03-08T16:08:55Z</time>
			<fix>3d</fix>
		</trkpt>
		<trkpt lat="35.164599" lon="-106.458819">
			<ele>2035.16</ele>
			<time>2015-03-08T16:08:56Z</time>
			<fix>3d</fix>
		</trkpt>
		<trkpt lat="35.164602" lon="-106.458806">
			<ele>2035.56</ele>
			<time>2015-03-08T16:08:57Z</time>
			<fix>3d</fix>
		</trkpt>
		<trkpt lat="35.164609" lon="-106.458793">
			<ele>2035.87</ele>
			<time>2015-03-08T16:08:58Z</time>
			<fix>3d</fix>
		</trkpt>
		<trkpt lat="35.164612" lon="-106.458781">
			<ele>2035.87</ele>
			<time>2015-03-08T16:08:59Z</time>
			<fix>3d</fix>
		</trkpt>
		<trkpt lat="35.164620" lon="-106.458766">
			<ele>2036.27</ele>
			<time>2015-03-08T16:09:00Z</time>
			<fix>3d</fix>
		</trkpt>
		<trkpt lat="35.164625" lon="-106.458753">
			<ele>2036.68</ele>
			<time>2015-03-08T16:09:01Z</time>
			<fix>3d</fix>
		</trkpt>
		<trkpt lat="35.164631" lon="-106.458741">
			<ele>2036.38</ele>
			<time>2015-03-08T16:09:02Z</time>
			<fix>3d</fix>
		</trkpt>
		<trkpt lat="35.164637" lon="-106.458730">
			<ele>2036.38</ele>
			<time>2015-03-08T16:09:03Z</time>
			<fix>3d</fix>
		</trkpt>
		<trkpt lat="35.164643" lon="-106.458718">
			<ele>2036.38</ele>
			<time>2015-03-08T16:09:04Z</time>
			<fix>3d</fix>
		</trkpt>
		<trkpt lat="35.164653" lon="-106.458706">
			<ele>2036.38</ele>
			<time>2015-03-08T16:09:05Z</time>
			<fix>3d</fix>
		</trkpt>
		<trkpt lat="35.164661" lon="-106.458696">
			<ele>2036.38</ele>
			<time>2015-03-08T16:09:06Z</time>
			<fix>3d</fix>
		</trkpt>
		<trkpt lat="35.164666" lon="-106.458687">
			<ele>2036.38</ele>
			<time>2015-03-08T16:09:07Z</time>
			<fix>3d</fix>
		</trkpt>
		<trkpt lat="35.164673" lon="-106.458679">
			<ele>2036.48</ele>
			<time>2015-03-08T16:09:08Z</time>
			<fix>3d</fix>
		</trkpt>
		<trkpt lat="35.164684" lon="-106.458670">
			<ele>2036.69</ele>
			<time>2015-03-08T16:09:09Z</time>
			<fix>3d</fix>
		</trkpt>
		<trkpt lat="35.164690" lon="-106.458659">
			<ele>2036.79</ele>
			<time>2015-03-08T16:09:10Z</time>
			<fix>3d</fix>
		</trkpt>
		<trkpt lat="35.164693" lon="-106.458648">
			<ele>2036.89</ele>
			<time>2015-03-08T16:09:11Z</time>
			<fix>3d</fix>
		</trkpt>
		<trkpt lat="35.164696" lon="-106.458635">
			<ele>2037.00</ele>
			<time>2015-03-08T16:09:12Z</time>
			<fix>3d</fix>
		</trkpt>
		<trkpt lat="35.164697" lon="-106.458621">
			<ele>2037.40</ele>
			<time>2015-03-08T16:09:13Z</time>
			<fix>3d</fix>
		</trkpt>
		<trkpt lat="35.164697" lon="-106.458606">
			<ele>2037.30</ele>
			<time>2015-03-08T16:09:14Z</time>
			<fix>3d</fix>
		</trkpt>
		<trkpt lat="35.164699" lon="-106.458589">
			<ele>2037.40</ele>
			<time>2015-03-08T16:09:15Z</time>
			<fix>3d</fix>
		</trkpt>
		<trkpt lat="35.164699" lon="-106.458576">
			<ele>2037.41</ele>
			<time>2015-03-08T16:09:16Z</time>
			<fix>3d</fix>
		</trkpt>
		<trkpt lat="35.164701" lon="-106.458564">
			<ele>2037.51</ele>
			<time>2015-03-08T16:09:17Z</time>
			<fix>3d</fix>
		</trkpt>
		<trkpt lat="35.164705" lon="-106.458549">
			<ele>2037.91</ele>
			<time>2015-03-08T16:09:18Z</time>
			<fix>3d</fix>
		</trkpt>
		<trkpt lat="35.164706" lon="-106.458535">
			<ele>2037.81</ele>
			<time>2015-03-08T16:09:19Z</time>
			<fix>3d</fix>
		</trkpt>
		<trkpt lat="35.164708" lon="-106.458520">
			<ele>2038.02</ele>
			<time>2015-03-08T16:09:20Z</time>
			<fix>3d</fix>
		</trkpt>
		<trkpt lat="35.164712" lon="-106.458502">
			<ele>2038.02</ele>
			<time>2015-03-08T16:09:21Z</time>
			<fix>3d</fix>
		</trkpt>
		<trkpt lat="35.164713" lon="-106.458483">
			<ele>2038.22</ele>
			<time>2015-03-08T16:09:22Z</time>
			<fix>3d</fix>
		</trkpt>
		<trkpt lat="35.164714" lon="-106.458472">
			<ele>2038.63</ele>
			<time>2015-03-08T16:09:23Z</time>
			<fix>3d</fix>
		</trkpt>
		<trkpt lat="35.164715" lon="-106.458458">
			<ele>2038.63</ele>
			<time>2015-03-08T16:09:24Z</time>
			<fix>3d</fix>
		</trkpt>
		<trkpt lat="35.164716" lon="-106.458444">
			<ele>2038.73</ele>
			<time>2015-03-08T16:09:25Z</time>
			<fix>3d</fix>
		</trkpt>
		<trkpt lat="35.164717" lon="-106.458439">
			<ele>2039.04</ele>
			<time>2015-03-08T16:09:26Z</time>
			<fix>3d</fix>
		</trkpt>
		<trkpt lat="35.164719" lon="-106.458421">
			<ele>2039.14</ele>
			<time>2015-03-08T16:09:27Z</time>
			<fix>3d</fix>
		</trkpt>
		<trkpt lat="35.164721" lon="-106.458406">
			<ele>2039.14</ele>
			<time>2015-03-08T16:09:28Z</time>
			<fix>3d</fix>
		</trkpt>
		<trkpt lat="35.164727" lon="-106.458391">
			<ele>2039.54</ele>
			<time>2015-03-08T16:09:29Z</time>
			<fix>3d</fix>
		</trkpt>
		<trkpt lat="35.164730" lon="-106.458379">
			<ele>2039.65</ele>
			<time>2015-03-08T16:09:30Z</time>
			<fix>3d</fix>
		</trkpt>
		<trkpt lat="35.164733" lon="-106.458367">
			<ele>2039.85</ele>
			<time>2015-03-08T16:09:31Z</time>
			<fix>3d</fix>
		</trkpt>
		<trkpt lat="35.164739" lon="-106.458352">
			<ele>2039.75</ele>
			<time>2015-03-08T16:09:32Z</time>
			<fix>3d</fix>
		</trkpt>
		<trkpt lat="35.164742" lon="-106.458338">
			<ele>2040.16</ele>
			<time>2015-03-08T16:09:33Z</time>
			<fix>3d</fix>
		</trkpt>
		<trkpt lat="35.164744" lon="-106.458326">
			<ele>2040.05</ele>
			<time>2015-03-08T16:09:34Z</time>
			<fix>3d</fix>
		</trkpt>
		<trkpt lat="35.164748" lon="-106.458317">
			<ele>2040.26</ele>
			<time>2015-03-08T16:09:36Z</time>
			<fix>3d</fix>
		</trkpt>
		<trkpt lat="35.164756" lon="-106.458302">
			<ele>2040.16</ele>
			<time>2015-03-08T16:09:37Z</time>
			<fix>3d</fix>
		</trkpt>
		<trkpt lat="35.164757" lon="-106.458297">
			<ele>2040.36</ele>
			<time>2015-03-08T16:09:38Z</time>
			<fix>3d</fix>
		</trkpt>
		<trkpt lat="35.164765" lon="-106.458277">
			<ele>2041.27</ele>
			<time>2015-03-08T16:09:39Z</time>
			<fix>3d</fix>
		</trkpt>
		<trkpt lat="35.164766" lon="-106.458264">
			<ele>2041.78</ele>
			<time>2015-03-08T16:09:40Z</time>
			<fix>3d</fix>
		</trkpt>
		<trkpt lat="35.164766" lon="-106.458250">
			<ele>2041.68</ele>
			<time>2015-03-08T16:09:41Z</time>
			<fix>3d</fix>
		</trkpt>
		<trkpt lat="35.164767" lon="-106.458234">
			<ele>2041.58</ele>
			<time>2015-03-08T16:09:42Z</time>
			<fix>3d</fix>
		</trkpt>
		<trkpt lat="35.164767" lon="-106.458228">
			<ele>2041.68</ele>
			<time>2015-03-08T16:09:43Z</time>
			<fix>3d</fix>
		</trkpt>
		<trkpt lat="35.164768" lon="-106.458219">
			<ele>2041.58</ele>
			<time>2015-03-08T16:09:44Z</time>
			<fix>3d</fix>
		</trkpt>
		<trkpt lat="35.164771" lon="-106.458197">
			<ele>2041.68</ele>
			<time>2015-03-08T16:09:45Z</time>
			<fix>3d</fix>
		</trkpt>
		<trkpt lat="35.164776" lon="-106.458176">
			<ele>2041.68</ele>
			<time>2015-03-08T16:09:46Z</time>
			<fix>3d</fix>
		</trkpt>
		<trkpt lat="35.164777" lon="-106.458163">
			<ele>2041.68</ele>
			<time>2015-03-08T16:09:47Z</time>
			<fix>3d</fix>
		</trkpt>
		<trkpt lat="35.164779" lon="-106.458150">
			<ele>2041.79</ele>
			<time>2015-03-08T16:09:48Z</time>
			<fix>3d</fix>
		</trkpt>
		<trkpt lat="35.164780" lon="-106.458137">
			<ele>2041.89</ele>
			<time>2015-03-08T16:09:49Z</time>
			<fix>3d</fix>
		</trkpt>
		<trkpt lat="35.164780" lon="-106.458122">
			<ele>2041.99</ele>
			<time>2015-03-08T16:09:50Z</time>
			<fix>3d</fix>
		</trkpt>
		<trkpt lat="35.164778" lon="-106.458107">
			<ele>2041.99</ele>
			<time>2015-03-08T16:09:51Z</time>
			<fix>3d</fix>
		</trkpt>
		<trkpt lat="35.164776" lon="-106.458092">
			<ele>2041.99</ele>
			<time>2015-03-08T16:09:52Z</time>
			<fix>3d</fix>
		</trkpt>
		<trkpt lat="35.164772" lon="-106.458078">
			<ele>2042.30</ele>
			<time>2015-03-08T16:09:53Z</time>
			<fix>3d</fix>
		</trkpt>
		<trkpt lat="35.164770" lon="-106.458064">
			<ele>2042.70</ele>
			<time>2015-03-08T16:09:54Z</time>
			<fix>3d</fix>
		</trkpt>
		<trkpt lat="35.164767" lon="-106.458049">
			<ele>2043.21</ele>
			<time>2015-03-08T16:09:55Z</time>
			<fix>3d</fix>
		</trkpt>
		<trkpt lat="35.164764" lon="-106.458033">
			<ele>2043.21</ele>
			<time>2015-03-08T16:09:56Z</time>
			<fix>3d</fix>
		</trkpt>
		<trkpt lat="35.164763" lon="-106.458028">
			<ele>2043.21</ele>
			<time>2015-03-08T16:09:57Z</time>
			<fix>3d</fix>
		</trkpt>
		<trkpt lat="35.164762" lon="-106.458010">
			<ele>2043.21</ele>
			<time>2015-03-08T16:09:58Z</time>
			<fix>3d</fix>
		</trkpt>
		<trkpt lat="35.164762" lon="-106.457996">
			<ele>2043.31</ele>
			<time>2015-03-08T16:09:59Z</time>
			<fix>3d</fix>
		</trkpt>
		<trkpt lat="35.164765" lon="-106.457979">
			<ele>2043.21</ele>
			<time>2015-03-08T16:10:00Z</time>
			<fix>3d</fix>
		</trkpt>
		<trkpt lat="35.164770" lon="-106.457965">
			<ele>2043.31</ele>
			<time>2015-03-08T16:10:01Z</time>
			<fix>3d</fix>
		</trkpt>
		<trkpt lat="35.164773" lon="-106.457954">
			<ele>2043.31</ele>
			<time>2015-03-08T16:10:02Z</time>
			<fix>3d</fix>
		</trkpt>
		<trkpt lat="35.164775" lon="-106.457945">
			<ele>2043.31</ele>
			<time>2015-03-08T16:10:04Z</time>
			<fix>3d</fix>
		</trkpt>
		<trkpt lat="35.164778" lon="-106.457939">
			<ele>2043.81</ele>
			<time>2015-03-08T16:10:05Z</time>
			<fix>3d</fix>
		</trkpt>
		<trkpt lat="35.164782" lon="-106.457931">
			<ele>2043.81</ele>
			<time>2015-03-08T16:10:06Z</time>
			<fix>3d</fix>
		</trkpt>
		<trkpt lat="35.164793" lon="-106.457913">
			<ele>2043.81</ele>
			<time>2015-03-08T16:10:07Z</time>
			<fix>3d</fix>
		</trkpt>
		<trkpt lat="35.164797" lon="-106.457908">
			<ele>2043.81</ele>
			<time>2015-03-08T16:10:08Z</time>
			<fix>3d</fix>
		</trkpt>
		<trkpt lat="35.164807" lon="-106.457893">
			<ele>2043.81</ele>
			<time>2015-03-08T16:10:09Z</time>
			<fix>3d</fix>
		</trkpt>
		<trkpt lat="35.164811" lon="-106.457888">
			<ele>2044.32</ele>
			<time>2015-03-08T16:10:10Z</time>
			<fix>3d</fix>
		</trkpt>
		<trkpt lat="35.164821" lon="-106.457873">
			<ele>2044.22</ele>
			<time>2015-03-08T16:10:11Z</time>
			<fix>3d</fix>
		</trkpt>
		<trkpt lat="35.164828" lon="-106.457862">
			<ele>2044.42</ele>
			<time>2015-03-08T16:10:12Z</time>
			<fix>3d</fix>
		</trkpt>
		<trkpt lat="35.164830" lon="-106.457857">
			<ele>2044.42</ele>
			<time>2015-03-08T16:10:13Z</time>
			<fix>3d</fix>
		</trkpt>
		<trkpt lat="35.164839" lon="-106.457835">
			<ele>2044.42</ele>
			<time>2015-03-08T16:10:14Z</time>
			<fix>3d</fix>
		</trkpt>
		<trkpt lat="35.164846" lon="-106.457821">
			<ele>2044.42</ele>
			<time>2015-03-08T16:10:15Z</time>
			<fix>3d</fix>
		</trkpt>
		<trkpt lat="35.164854" lon="-106.457806">
			<ele>2044.42</ele>
			<time>2015-03-08T16:10:16Z</time>
			<fix>3d</fix>
		</trkpt>
		<trkpt lat="35.164857" lon="-106.457792">
			<ele>2044.42</ele>
			<time>2015-03-08T16:10:17Z</time>
			<fix>3d</fix>
		</trkpt>
		<trkpt lat="35.164864" lon="-106.457777">
			<ele>2044.42</ele>
			<time>2015-03-08T16:10:18Z</time>
			<fix>3d</fix>
		</trkpt>
		<trkpt lat="35.164869" lon="-106.457764">
			<ele>2044.42</ele>
			<time>2015-03-08T16:10:19Z</time>
			<fix>3d</fix>
		</trkpt>
		<trkpt lat="35.164871" lon="-106.457751">
			<ele>2044.42</ele>
			<time>2015-03-08T16:10:20Z</time>
			<fix>3d</fix>
		</trkpt>
		<trkpt lat="35.164874" lon="-106.457737">
			<ele>2044.52</ele>
			<time>2015-03-08T16:10:21Z</time>
			<fix>3d</fix>
		</trkpt>
		<trkpt lat="35.164875" lon="-106.457721">
			<ele>2044.42</ele>
			<time>2015-03-08T16:10:22Z</time>
			<fix>3d</fix>
		</trkpt>
		<trkpt lat="35.164873" lon="-106.457705">
			<ele>2044.52</ele>
			<time>2015-03-08T16:10:23Z</time>
			<fix>3d</fix>
		</trkpt>
		<trkpt lat="35.164870" lon="-106.457686">
			<ele>2044.52</ele>
			<time>2015-03-08T16:10:24Z</time>
			<fix>3d</fix>
		</trkpt>
		<trkpt lat="35.164867" lon="-106.457672">
			<ele>2044.52</ele>
			<time>2015-03-08T16:10:25Z</time>
			<fix>3d</fix>
		</trkpt>
		<trkpt lat="35.164869" lon="-106.457654">
			<ele>2044.52</ele>
			<time>2015-03-08T16:10:26Z</time>
			<fix>3d</fix>
		</trkpt>
		<trkpt lat="35.164873" lon="-106.457640">
			<ele>2044.52</ele>
			<time>2015-03-08T16:10:27Z</time>
			<fix>3d</fix>
		</trkpt>
		<trkpt lat="35.164876" lon="-106.457628">
			<ele>2044.62</ele>
			<time>2015-03-08T16:10:28Z</time>
			<fix>3d</fix>
		</trkpt>
		<trkpt lat="35.164880" lon="-106.457616">
			<ele>2044.72</ele>
			<time>2015-03-08T16:10:29Z</time>
			<fix>3d</fix>
		</trkpt>
		<trkpt lat="35.164887" lon="-106.457600">
			<ele>2044.72</ele>
			<time>2015-03-08T16:10:30Z</time>
			<fix>3d</fix>
		</trkpt>
		<trkpt lat="35.164890" lon="-106.457586">
			<ele>2044.72</ele>
			<time>2015-03-08T16:10:31Z</time>
			<fix>3d</fix>
		</trkpt>
		<trkpt lat="35.164892" lon="-106.457574">
			<ele>2044.82</ele>
			<time>2015-03-08T16:10:32Z</time>
			<fix>3d</fix>
		</trkpt>
		<trkpt lat="35.164896" lon="-106.457558">
			<ele>2044.82</ele>
			<time>2015-03-08T16:10:33Z</time>
			<fix>3d</fix>
		</trkpt>
		<trkpt lat="35.164896" lon="-106.457544">
			<ele>2044.93</ele>
			<time>2015-03-08T16:10:34Z</time>
			<fix>3d</fix>
		</trkpt>
		<trkpt lat="35.164899" lon="-106.457527">
			<ele>2045.03</ele>
			<time>2015-03-08T16:10:35Z</time>
			<fix>3d</fix>
		</trkpt>
		<trkpt lat="35.164904" lon="-106.457511">
			<ele>2046.45</ele>
			<time>2015-03-08T16:10:36Z</time>
			<fix>3d</fix>
		</trkpt>
		<trkpt lat="35.164909" lon="-106.457494">
			<ele>2046.04</ele>
			<time>2015-03-08T16:10:37Z</time>
			<fix>3d</fix>
		</trkpt>
		<trkpt lat="35.164910" lon="-106.457482">
			<ele>2046.14</ele>
			<time>2015-03-08T16:10:38Z</time>
			<fix>3d</fix>
		</trkpt>
		<trkpt lat="35.164915" lon="-106.457466">
			<ele>2046.24</ele>
			<time>2015-03-08T16:10:39Z</time>
			<fix>3d</fix>
		</trkpt>
		<trkpt lat="35.164918" lon="-106.457451">
			<ele>2046.34</ele>
			<time>2015-03-08T16:10:40Z</time>
			<fix>3d</fix>
		</trkpt>
		<trkpt lat="35.164922" lon="-106.457436">
			<ele>2046.44</ele>
			<time>2015-03-08T16:10:41Z</time>
			<fix>3d</fix>
		</trkpt>
		<trkpt lat="35.164927" lon="-106.457420">
			<ele>2046.44</ele>
			<time>2015-03-08T16:10:42Z</time>
			<fix>3d</fix>
		</trkpt>
		<trkpt lat="35.164930" lon="-106.457407">
			<ele>2046.54</ele>
			<time>2015-03-08T16:10:43Z</time>
			<fix>3d</fix>
		</trkpt>
		<trkpt lat="35.164936" lon="-106.457396">
			<ele>2046.65</ele>
			<time>2015-03-08T16:10:44Z</time>
			<fix>3d</fix>
		</trkpt>
		<trkpt lat="35.164943" lon="-106.457382">
			<ele>2046.75</ele>
			<time>2015-03-08T16:10:45Z</time>
			<fix>3d</fix>
		</trkpt>
		<trkpt lat="35.164947" lon="-106.457367">
			<ele>2046.75</ele>
			<time>2015-03-08T16:10:46Z</time>
			<fix>3d</fix>
		</trkpt>
		<trkpt lat="35.164949" lon="-106.457353">
			<ele>2046.95</ele>
			<time>2015-03-08T16:10:47Z</time>
			<fix>3d</fix>
		</trkpt>
		<trkpt lat="35.164956" lon="-106.457334">
			<ele>2047.05</ele>
			<time>2015-03-08T16:10:48Z</time>
			<fix>3d</fix>
		</trkpt>
		<trkpt lat="35.164961" lon="-106.457317">
			<ele>2047.36</ele>
			<time>2015-03-08T16:10:49Z</time>
			<fix>3d</fix>
		</trkpt>
		<trkpt lat="35.164968" lon="-106.457303">
			<ele>2047.56</ele>
			<time>2015-03-08T16:10:50Z</time>
			<fix>3d</fix>
		</trkpt>
		<trkpt lat="35.164972" lon="-106.457291">
			<ele>2048.17</ele>
			<time>2015-03-08T16:10:51Z</time>
			<fix>3d</fix>
		</trkpt>
		<trkpt lat="35.164977" lon="-106.457279">
			<ele>2048.17</ele>
			<time>2015-03-08T16:10:52Z</time>
			<fix>3d</fix>
		</trkpt>
		<trkpt lat="35.164982" lon="-106.457267">
			<ele>2048.17</ele>
			<time>2015-03-08T16:10:53Z</time>
			<fix>3d</fix>
		</trkpt>
		<trkpt lat="35.164988" lon="-106.457253">
			<ele>2048.27</ele>
			<time>2015-03-08T16:10:54Z</time>
			<fix>3d</fix>
		</trkpt>
		<trkpt lat="35.164993" lon="-106.457239">
			<ele>2048.37</ele>
			<time>2015-03-08T16:10:55Z</time>
			<fix>3d</fix>
		</trkpt>
		<trkpt lat="35.164995" lon="-106.457233">
			<ele>2048.57</ele>
			<time>2015-03-08T16:10:56Z</time>
			<fix>3d</fix>
		</trkpt>
		<trkpt lat="35.165003" lon="-106.457213">
			<ele>2048.78</ele>
			<time>2015-03-08T16:10:57Z</time>
			<fix>3d</fix>
		</trkpt>
		<trkpt lat="35.165008" lon="-106.457200">
			<ele>2048.78</ele>
			<time>2015-03-08T16:10:58Z</time>
			<fix>3d</fix>
		</trkpt>
		<trkpt lat="35.165013" lon="-106.457186">
			<ele>2048.88</ele>
			<time>2015-03-08T16:10:59Z</time>
			<fix>3d</fix>
		</trkpt>
		<trkpt lat="35.165015" lon="-106.457173">
			<ele>2048.88</ele>
			<time>2015-03-08T16:11:00Z</time>
			<fix>3d</fix>
		</trkpt>
		<trkpt lat="35.165017" lon="-106.457158">
			<ele>2049.39</ele>
			<time>2015-03-08T16:11:01Z</time>
			<fix>3d</fix>
		</trkpt>
		<trkpt lat="35.165017" lon="-106.457153">
			<ele>2049.39</ele>
			<time>2015-03-08T16:11:02Z</time>
			<fix>3d</fix>
		</trkpt>
		<trkpt lat="35.165017" lon="-106.457137">
			<ele>2049.49</ele>
			<time>2015-03-08T16:11:03Z</time>
			<fix>3d</fix>
		</trkpt>
		<trkpt lat="35.165020" lon="-106.457122">
			<ele>2049.49</ele>
			<time>2015-03-08T16:11:04Z</time>
			<fix>3d</fix>
		</trkpt>
		<trkpt lat="35.165022" lon="-106.457110">
			<ele>2049.60</ele>
			<time>2015-03-08T16:11:05Z</time>
			<fix>3d</fix>
		</trkpt>
		<trkpt lat="35.165024" lon="-106.457098">
			<ele>2049.90</ele>
			<time>2015-03-08T16:11:06Z</time>
			<fix>3d</fix>
		</trkpt>
		<trkpt lat="35.165029" lon="-106.457082">
			<ele>2050.11</ele>
			<time>2015-03-08T16:11:07Z</time>
			<fix>3d</fix>
		</trkpt>
		<trkpt lat="35.165033" lon="-106.457066">
			<ele>2050.31</ele>
			<time>2015-03-08T16:11:08Z</time>
			<fix>3d</fix>
		</trkpt>
		<trkpt lat="35.165039" lon="-106.457050">
			<ele>2050.31</ele>
			<time>2015-03-08T16:11:09Z</time>
			<fix>3d</fix>
		</trkpt>
		<trkpt lat="35.165041" lon="-106.457037">
			<ele>2050.42</ele>
			<time>2015-03-08T16:11:10Z</time>
			<fix>3d</fix>
		</trkpt>
		<trkpt lat="35.165044" lon="-106.457022">
			<ele>2050.52</ele>
			<time>2015-03-08T16:11:11Z</time>
			<fix>3d</fix>
		</trkpt>
		<trkpt lat="35.165048" lon="-106.457008">
			<ele>2050.42</ele>
			<time>2015-03-08T16:11:12Z</time>
			<fix>3d</fix>
		</trkpt>
		<trkpt lat="35.165052" lon="-106.456994">
			<ele>2051.43</ele>
			<time>2015-03-08T16:11:13Z</time>
			<fix>3d</fix>
		</trkpt>
		<trkpt lat="35.165060" lon="-106.456978">
			<ele>2051.33</ele>
			<time>2015-03-08T16:11:14Z</time>
			<fix>3d</fix>
		</trkpt>
		<trkpt lat="35.165064" lon="-106.456962">
			<ele>2051.34</ele>
			<time>2015-03-08T16:11:15Z</time>
			<fix>3d</fix>
		</trkpt>
		<trkpt lat="35.165068" lon="-106.456947">
			<ele>2051.34</ele>
			<time>2015-03-08T16:11:16Z</time>
			<fix>3d</fix>
		</trkpt>
		<trkpt lat="35.165071" lon="-106.456927">
			<ele>2051.75</ele>
			<time>2015-03-08T16:11:17Z</time>
			<fix>3d</fix>
		</trkpt>
		<trkpt lat="35.165078" lon="-106.456918">
			<ele>2051.85</ele>
			<time>2015-03-08T16:11:18Z</time>
			<fix>3d</fix>
		</trkpt>
		<trkpt lat="35.165081" lon="-106.456906">
			<ele>2051.75</ele>
			<time>2015-03-08T16:11:19Z</time>
			<fix>3d</fix>
		</trkpt>
		<trkpt lat="35.165085" lon="-106.456896">
			<ele>2051.85</ele>
			<time>2015-03-08T16:11:20Z</time>
			<fix>3d</fix>
		</trkpt>
		<trkpt lat="35.165091" lon="-106.456883">
			<ele>2051.85</ele>
			<time>2015-03-08T16:11:21Z</time>
			<fix>3d</fix>
		</trkpt>
		<trkpt lat="35.165096" lon="-106.456868">
			<ele>2051.96</ele>
			<time>2015-03-08T16:11:22Z</time>
			<fix>3d</fix>
		</trkpt>
		<trkpt lat="35.165102" lon="-106.456857">
			<ele>2051.96</ele>
			<time>2015-03-08T16:11:23Z</time>
			<fix>3d</fix>
		</trkpt>
		<trkpt lat="35.165109" lon="-106.456846">
			<ele>2052.06</ele>
			<time>2015-03-08T16:11:24Z</time>
			<fix>3d</fix>
		</trkpt>
		<trkpt lat="35.165122" lon="-106.456834">
			<ele>2052.07</ele>
			<time>2015-03-08T16:11:25Z</time>
			<fix>3d</fix>
		</trkpt>
		<trkpt lat="35.165129" lon="-106.456823">
			<ele>2052.27</ele>
			<time>2015-03-08T16:11:26Z</time>
			<fix>3d</fix>
		</trkpt>
		<trkpt lat="35.165137" lon="-106.456812">
			<ele>2052.27</ele>
			<time>2015-03-08T16:11:27Z</time>
			<fix>3d</fix>
		</trkpt>
		<trkpt lat="35.165142" lon="-106.456801">
			<ele>2052.27</ele>
			<time>2015-03-08T16:11:28Z</time>
			<fix>3d</fix>
		</trkpt>
		<trkpt lat="35.165153" lon="-106.456790">
			<ele>2052.28</ele>
			<time>2015-03-08T16:11:29Z</time>
			<fix>3d</fix>
		</trkpt>
		<trkpt lat="35.165160" lon="-106.456778">
			<ele>2052.38</ele>
			<time>2015-03-08T16:11:30Z</time>
			<fix>3d</fix>
		</trkpt>
		<trkpt lat="35.165162" lon="-106.456764">
			<ele>2052.28</ele>
			<time>2015-03-08T16:11:31Z</time>
			<fix>3d</fix>
		</trkpt>
		<trkpt lat="35.165163" lon="-106.456758">
			<ele>2052.28</ele>
			<time>2015-03-08T16:11:32Z</time>
			<fix>3d</fix>
		</trkpt>
		<trkpt lat="35.165163" lon="-106.456750">
			<ele>2052.79</ele>
			<time>2015-03-08T16:11:33Z</time>
			<fix>3d</fix>
		</trkpt>
		<trkpt lat="35.165166" lon="-106.456728">
			<ele>2052.69</ele>
			<time>2015-03-08T16:11:34Z</time>
			<fix>3d</fix>
		</trkpt>
		<trkpt lat="35.165174" lon="-106.456712">
			<ele>2052.80</ele>
			<time>2015-03-08T16:11:35Z</time>
			<fix>3d</fix>
		</trkpt>
		<trkpt lat="35.165180" lon="-106.456701">
			<ele>2052.90</ele>
			<time>2015-03-08T16:11:36Z</time>
			<fix>3d</fix>
		</trkpt>
		<trkpt lat="35.165187" lon="-106.456692">
			<ele>2052.80</ele>
			<time>2015-03-08T16:11:37Z</time>
			<fix>3d</fix>
		</trkpt>
		<trkpt lat="35.165195" lon="-106.456683">
			<ele>2053.01</ele>
			<time>2015-03-08T16:11:38Z</time>
			<fix>3d</fix>
		</trkpt>
		<trkpt lat="35.165195" lon="-106.456680">
			<ele>2053.01</ele>
			<time>2015-03-08T16:11:39Z</time>
			<fix>3d</fix>
		</trkpt>
		<trkpt lat="35.165203" lon="-106.456667">
			<ele>2053.11</ele>
			<time>2015-03-08T16:11:40Z</time>
			<fix>3d</fix>
		</trkpt>
		<trkpt lat="35.165214" lon="-106.456655">
			<ele>2053.11</ele>
			<time>2015-03-08T16:11:41Z</time>
			<fix>3d</fix>
		</trkpt>
		<trkpt lat="35.165215" lon="-106.456650">
			<ele>2053.12</ele>
			<time>2015-03-08T16:11:42Z</time>
			<fix>3d</fix>
		</trkpt>
		<trkpt lat="35.165218" lon="-106.456643">
			<ele>2053.12</ele>
			<time>2015-03-08T16:11:43Z</time>
			<fix>3d</fix>
		</trkpt>
		<trkpt lat="35.165220" lon="-106.456635">
			<ele>2053.12</ele>
			<time>2015-03-08T16:11:44Z</time>
			<fix>3d</fix>
		</trkpt>
		<trkpt lat="35.165220" lon="-106.456624">
			<ele>2053.23</ele>
			<time>2015-03-08T16:11:46Z</time>
			<fix>3d</fix>
		</trkpt>
		<trkpt lat="35.165223" lon="-106.456590">
			<ele>2053.23</ele>
			<time>2015-03-08T16:11:47Z</time>
			<fix>3d</fix>
		</trkpt>
		<trkpt lat="35.165221" lon="-106.456578">
			<ele>2053.43</ele>
			<time>2015-03-08T16:11:48Z</time>
			<fix>3d</fix>
		</trkpt>
		<trkpt lat="35.165223" lon="-106.456566">
			<ele>2053.33</ele>
			<time>2015-03-08T16:11:49Z</time>
			<fix>3d</fix>
		</trkpt>
		<trkpt lat="35.165226" lon="-106.456553">
			<ele>2053.64</ele>
			<time>2015-03-08T16:11:50Z</time>
			<fix>3d</fix>
		</trkpt>
		<trkpt lat="35.165231" lon="-106.456539">
			<ele>2053.94</ele>
			<time>2015-03-08T16:11:51Z</time>
			<fix>3d</fix>
		</trkpt>
		<trkpt lat="35.165238" lon="-106.456526">
			<ele>2053.74</ele>
			<time>2015-03-08T16:11:52Z</time>
			<fix>3d</fix>
		</trkpt>
		<trkpt lat="35.165246" lon="-106.456513">
			<ele>2053.75</ele>
			<time>2015-03-08T16:11:53Z</time>
			<fix>3d</fix>
		</trkpt>
		<trkpt lat="35.165259" lon="-106.456499">
			<ele>2053.75</ele>
			<time>2015-03-08T16:11:54Z</time>
			<fix>3d</fix>
		</trkpt>
		<trkpt lat="35.165267" lon="-106.456488">
			<ele>2053.75</ele>
			<time>2015-03-08T16:11:55Z</time>
			<fix>3d</fix>
		</trkpt>
		<trkpt lat="35.165270" lon="-106.456475">
			<ele>2053.75</ele>
			<time>2015-03-08T16:11:56Z</time>
			<fix>3d</fix>
		</trkpt>
		<trkpt lat="35.165277" lon="-106.456458">
			<ele>2053.85</ele>
			<time>2015-03-08T16:11:57Z</time>
			<fix>3d</fix>
		</trkpt>
		<trkpt lat="35.165280" lon="-106.456445">
			<ele>2053.96</ele>
			<time>2015-03-08T16:11:58Z</time>
			<fix>3d</fix>
		</trkpt>
		<trkpt lat="35.165288" lon="-106.456429">
			<ele>2053.96</ele>
			<time>2015-03-08T16:11:59Z</time>
			<fix>3d</fix>
		</trkpt>
		<trkpt lat="35.165292" lon="-106.456418">
			<ele>2054.16</ele>
			<time>2015-03-08T16:12:00Z</time>
			<fix>3d</fix>
		</trkpt>
		<trkpt lat="35.165299" lon="-106.456405">
			<ele>2055.18</ele>
			<time>2015-03-08T16:12:01Z</time>
			<fix>3d</fix>
		</trkpt>
		<trkpt lat="35.165307" lon="-106.456389">
			<ele>2055.58</ele>
			<time>2015-03-08T16:12:02Z</time>
			<fix>3d</fix>
		</trkpt>
		<trkpt lat="35.165311" lon="-106.456371">
			<ele>2055.59</ele>
			<time>2015-03-08T16:12:03Z</time>
			<fix>3d</fix>
		</trkpt>
		<trkpt lat="35.165313" lon="-106.456357">
			<ele>2055.59</ele>
			<time>2015-03-08T16:12:04Z</time>
			<fix>3d</fix>
		</trkpt>
		<trkpt lat="35.165314" lon="-106.456342">
			<ele>2055.59</ele>
			<time>2015-03-08T16:12:05Z</time>
			<fix>3d</fix>
		</trkpt>
		<trkpt lat="35.165316" lon="-106.456325">
			<ele>2055.69</ele>
			<time>2015-03-08T16:12:06Z</time>
			<fix>3d</fix>
		</trkpt>
		<trkpt lat="35.165312" lon="-106.456311">
			<ele>2055.69</ele>
			<time>2015-03-08T16:12:07Z</time>
			<fix>3d</fix>
		</trkpt>
		<trkpt lat="35.165307" lon="-106.456299">
			<ele>2055.69</ele>
			<time>2015-03-08T16:12:08Z</time>
			<fix>3d</fix>
		</trkpt>
		<trkpt lat="35.165303" lon="-106.456287">
			<ele>2055.90</ele>
			<time>2015-03-08T16:12:09Z</time>
			<fix>3d</fix>
		</trkpt>
		<trkpt lat="35.165298" lon="-106.456272">
			<ele>2056.30</ele>
			<time>2015-03-08T16:12:10Z</time>
			<fix>3d</fix>
		</trkpt>
		<trkpt lat="35.165294" lon="-106.456257">
			<ele>2056.51</ele>
			<time>2015-03-08T16:12:11Z</time>
			<fix>3d</fix>
		</trkpt>
		<trkpt lat="35.165292" lon="-106.456241">
			<ele>2056.51</ele>
			<time>2015-03-08T16:12:12Z</time>
			<fix>3d</fix>
		</trkpt>
		<trkpt lat="35.165290" lon="-106.456228">
			<ele>2056.61</ele>
			<time>2015-03-08T16:12:13Z</time>
			<fix>3d</fix>
		</trkpt>
		<trkpt lat="35.165288" lon="-106.456214">
			<ele>2056.71</ele>
			<time>2015-03-08T16:12:14Z</time>
			<fix>3d</fix>
		</trkpt>
		<trkpt lat="35.165286" lon="-106.456200">
			<ele>2056.71</ele>
			<time>2015-03-08T16:12:15Z</time>
			<fix>3d</fix>
		</trkpt>
		<trkpt lat="35.165286" lon="-106.456194">
			<ele>2056.82</ele>
			<time>2015-03-08T16:12:16Z</time>
			<fix>3d</fix>
		</trkpt>
		<trkpt lat="35.165285" lon="-106.456175">
			<ele>2056.92</ele>
			<time>2015-03-08T16:12:17Z</time>
			<fix>3d</fix>
		</trkpt>
		<trkpt lat="35.165285" lon="-106.456158">
			<ele>2057.02</ele>
			<time>2015-03-08T16:12:18Z</time>
			<fix>3d</fix>
		</trkpt>
		<trkpt lat="35.165287" lon="-106.456140">
			<ele>2057.02</ele>
			<time>2015-03-08T16:12:19Z</time>
			<fix>3d</fix>
		</trkpt>
		<trkpt lat="35.165288" lon="-106.456127">
			<ele>2057.12</ele>
			<time>2015-03-08T16:12:20Z</time>
			<fix>3d</fix>
		</trkpt>
		<trkpt lat="35.165290" lon="-106.456114">
			<ele>2057.23</ele>
			<time>2015-03-08T16:12:21Z</time>
			<fix>3d</fix>
		</trkpt>
		<trkpt lat="35.165292" lon="-106.456101">
			<ele>2057.33</ele>
			<time>2015-03-08T16:12:22Z</time>
			<fix>3d</fix>
		</trkpt>
		<trkpt lat="35.165293" lon="-106.456087">
			<ele>2057.23</ele>
			<time>2015-03-08T16:12:23Z</time>
			<fix>3d</fix>
		</trkpt>
		<trkpt lat="35.165295" lon="-106.456071">
			<ele>2057.74</ele>
			<time>2015-03-08T16:12:24Z</time>
			<fix>3d</fix>
		</trkpt>
		<trkpt lat="35.165298" lon="-106.456056">
			<ele>2057.64</ele>
			<time>2015-03-08T16:12:25Z</time>
			<fix>3d</fix>
		</trkpt>
		<trkpt lat="35.165301" lon="-106.456043">
			<ele>2057.64</ele>
			<time>2015-03-08T16:12:26Z</time>
			<fix>3d</fix>
		</trkpt>
		<trkpt lat="35.165306" lon="-106.456029">
			<ele>2057.64</ele>
			<time>2015-03-08T16:12:27Z</time>
			<fix>3d</fix>
		</trkpt>
		<trkpt lat="35.165308" lon="-106.456017">
			<ele>2057.75</ele>
			<time>2015-03-08T16:12:28Z</time>
			<fix>3d</fix>
		</trkpt>
		<trkpt lat="35.165313" lon="-106.456000">
			<ele>2057.75</ele>
			<time>2015-03-08T16:12:29Z</time>
			<fix>3d</fix>
		</trkpt>
		<trkpt lat="35.165313" lon="-106.455988">
			<ele>2057.75</ele>
			<time>2015-03-08T16:12:30Z</time>
			<fix>3d</fix>
		</trkpt>
		<trkpt lat="35.165313" lon="-106.455970">
			<ele>2057.95</ele>
			<time>2015-03-08T16:12:31Z</time>
			<fix>3d</fix>
		</trkpt>
		<trkpt lat="35.165313" lon="-106.455960">
			<ele>2058.16</ele>
			<time>2015-03-08T16:12:32Z</time>
			<fix>3d</fix>
		</trkpt>
		<trkpt lat="35.165314" lon="-106.455945">
			<ele>2058.36</ele>
			<time>2015-03-08T16:12:33Z</time>
			<fix>3d</fix>
		</trkpt>
		<trkpt lat="35.165313" lon="-106.455929">
			<ele>2058.37</ele>
			<time>2015-03-08T16:12:34Z</time>
			<fix>3d</fix>
		</trkpt>
		<trkpt lat="35.165312" lon="-106.455914">
			<ele>2058.47</ele>
			<time>2015-03-08T16:12:35Z</time>
			<fix>3d</fix>
		</trkpt>
		<trkpt lat="35.165311" lon="-106.455909">
			<ele>2059.08</ele>
			<time>2015-03-08T16:12:36Z</time>
			<fix>3d</fix>
		</trkpt>
		<trkpt lat="35.165310" lon="-106.455888">
			<ele>2059.38</ele>
			<time>2015-03-08T16:12:37Z</time>
			<fix>3d</fix>
		</trkpt>
		<trkpt lat="35.165308" lon="-106.455874">
			<ele>2059.28</ele>
			<time>2015-03-08T16:12:38Z</time>
			<fix>3d</fix>
		</trkpt>
		<trkpt lat="35.165305" lon="-106.455861">
			<ele>2059.29</ele>
			<time>2015-03-08T16:12:39Z</time>
			<fix>3d</fix>
		</trkpt>
		<trkpt lat="35.165304" lon="-106.455855">
			<ele>2059.39</ele>
			<time>2015-03-08T16:12:40Z</time>
			<fix>3d</fix>
		</trkpt>
		<trkpt lat="35.165301" lon="-106.455838">
			<ele>2059.39</ele>
			<time>2015-03-08T16:12:41Z</time>
			<fix>3d</fix>
		</trkpt>
		<trkpt lat="35.165299" lon="-106.455832">
			<ele>2059.50</ele>
			<time>2015-03-08T16:12:42Z</time>
			<fix>3d</fix>
		</trkpt>
		<trkpt lat="35.165298" lon="-106.455824">
			<ele>2059.40</ele>
			<time>2015-03-08T16:12:43Z</time>
			<fix>3d</fix>
		</trkpt>
		<trkpt lat="35.165296" lon="-106.455816">
			<ele>2060.82</ele>
			<time>2015-03-08T16:12:44Z</time>
			<fix>3d</fix>
		</trkpt>
		<trkpt lat="35.165291" lon="-106.455788">
			<ele>2060.61</ele>
			<time>2015-03-08T16:12:45Z</time>
			<fix>3d</fix>
		</trkpt>
		<trkpt lat="35.165289" lon="-106.455774">
			<ele>2060.72</ele>
			<time>2015-03-08T16:12:46Z</time>
			<fix>3d</fix>
		</trkpt>
		<trkpt lat="35.165287" lon="-106.455762">
			<ele>2060.72</ele>
			<time>2015-03-08T16:12:47Z</time>
			<fix>3d</fix>
		</trkpt>
		<trkpt lat="35.165284" lon="-106.455750">
			<ele>2060.72</ele>
			<time>2015-03-08T16:12:48Z</time>
			<fix>3d</fix>
		</trkpt>
		<trkpt lat="35.165280" lon="-106.455738">
			<ele>2060.82</ele>
			<time>2015-03-08T16:12:49Z</time>
			<fix>3d</fix>
		</trkpt>
		<trkpt lat="35.165280" lon="-106.455732">
			<ele>2060.93</ele>
			<time>2015-03-08T16:12:50Z</time>
			<fix>3d</fix>
		</trkpt>
		<trkpt lat="35.165278" lon="-106.455707">
			<ele>2061.03</ele>
			<time>2015-03-08T16:12:51Z</time>
			<fix>3d</fix>
		</trkpt>
		<trkpt lat="35.165280" lon="-106.455698">
			<ele>2061.14</ele>
			<time>2015-03-08T16:12:53Z</time>
			<fix>3d</fix>
		</trkpt>
		<trkpt lat="35.165281" lon="-106.455692">
			<ele>2061.24</ele>
			<time>2015-03-08T16:12:54Z</time>
			<fix>3d</fix>
		</trkpt>
		<trkpt lat="35.165287" lon="-106.455667">
			<ele>2061.24</ele>
			<time>2015-03-08T16:12:55Z</time>
			<fix>3d</fix>
		</trkpt>
		<trkpt lat="35.165288" lon="-106.455664">
			<ele>2061.24</ele>
			<time>2015-03-08T16:12:56Z</time>
			<fix>3d</fix>
		</trkpt>
		<trkpt lat="35.165293" lon="-106.455652">
			<ele>2061.24</ele>
			<time>2015-03-08T16:12:57Z</time>
			<fix>3d</fix>
		</trkpt>
		<trkpt lat="35.165298" lon="-106.455643">
			<ele>2061.25</ele>
			<time>2015-03-08T16:12:58Z</time>
			<fix>3d</fix>
		</trkpt>
		<trkpt lat="35.165307" lon="-106.455632">
			<ele>2061.25</ele>
			<time>2015-03-08T16:12:59Z</time>
			<fix>3d</fix>
		</trkpt>
		<trkpt lat="35.165314" lon="-106.455621">
			<ele>2061.25</ele>
			<time>2015-03-08T16:13:00Z</time>
			<fix>3d</fix>
		</trkpt>
		<trkpt lat="35.165319" lon="-106.455611">
			<ele>2061.56</ele>
			<time>2015-03-08T16:13:01Z</time>
			<fix>3d</fix>
		</trkpt>
		<trkpt lat="35.165326" lon="-106.455600">
			<ele>2061.46</ele>
			<time>2015-03-08T16:13:02Z</time>
			<fix>3d</fix>
		</trkpt>
		<trkpt lat="35.165331" lon="-106.455589">
			<ele>2061.56</ele>
			<time>2015-03-08T16:13:03Z</time>
			<fix>3d</fix>
		</trkpt>
		<trkpt lat="35.165338" lon="-106.455578">
			<ele>2061.67</ele>
			<time>2015-03-08T16:13:04Z</time>
			<fix>3d</fix>
		</trkpt>
		<trkpt lat="35.165345" lon="-106.455567">
			<ele>2062.27</ele>
			<time>2015-03-08T16:13:05Z</time>
			<fix>3d</fix>
		</trkpt>
		<trkpt lat="35.165356" lon="-106.455556">
			<ele>2062.07</ele>
			<time>2015-03-08T16:13:06Z</time>
			<fix>3d</fix>
		</trkpt>
		<trkpt lat="35.165361" lon="-106.455545">
			<ele>2062.28</ele>
			<time>2015-03-08T16:13:07Z</time>
			<fix>3d</fix>
		</trkpt>
		<trkpt lat="35.165367" lon="-106.455533">
			<ele>2062.18</ele>
			<time>2015-03-08T16:13:08Z</time>
			<fix>3d</fix>
		</trkpt>
		<trkpt lat="35.165369" lon="-106.455528">
			<ele>2062.49</ele>
			<time>2015-03-08T16:13:09Z</time>
			<fix>3d</fix>
		</trkpt>
		<trkpt lat="35.165380" lon="-106.455510">
			<ele>2062.59</ele>
			<time>2015-03-08T16:13:10Z</time>
			<fix>3d</fix>
		</trkpt>
		<trkpt lat="35.165381" lon="-106.455498">
			<ele>2062.59</ele>
			<time>2015-03-08T16:13:11Z</time>
			<fix>3d</fix>
		</trkpt>
		<trkpt lat="35.165382" lon="-106.455493">
			<ele>2062.59</ele>
			<time>2015-03-08T16:13:12Z</time>
			<fix>3d</fix>
		</trkpt>
		<trkpt lat="35.165383" lon="-106.455487">
			<ele>2062.59</ele>
			<time>2015-03-08T16:13:13Z</time>
			<fix>3d</fix>
		</trkpt>
		<trkpt lat="35.165386" lon="-106.455469">
			<ele>2062.60</ele>
			<time>2015-03-08T16:13:14Z</time>
			<fix>3d</fix>
		</trkpt>
		<trkpt lat="35.165390" lon="-106.455455">
			<ele>2062.60</ele>
			<time>2015-03-08T16:13:15Z</time>
			<fix>3d</fix>
		</trkpt>
		<trkpt lat="35.165395" lon="-106.455442">
			<ele>2062.60</ele>
			<time>2015-03-08T16:13:16Z</time>
			<fix>3d</fix>
		</trkpt>
		<trkpt lat="35.165404" lon="-106.455431">
			<ele>2062.60</ele>
			<time>2015-03-08T16:13:17Z</time>
			<fix>3d</fix>
		</trkpt>
		<trkpt lat="35.165409" lon="-106.455423">
			<ele>2062.81</ele>
			<time>2015-03-08T16:13:19Z</time>
			<fix>3d</fix>
		</trkpt>
		<trkpt lat="35.165418" lon="-106.455412">
			<ele>2062.81</ele>
			<time>2015-03-08T16:13:20Z</time>
			<fix>3d</fix>
		</trkpt>
		<trkpt lat="35.165426" lon="-106.455404">
			<ele>2062.81</ele>
			<time>2015-03-08T16:13:21Z</time>
			<fix>3d</fix>
		</trkpt>
		<trkpt lat="35.165432" lon="-106.455395">
			<ele>2062.91</ele>
			<time>2015-03-08T16:13:22Z</time>
			<fix>3d</fix>
		</trkpt>
		<trkpt lat="35.165438" lon="-106.455385">
			<ele>2063.02</ele>
			<time>2015-03-08T16:13:23Z</time>
			<fix>3d</fix>
		</trkpt>
		<trkpt lat="35.165443" lon="-106.455374">
			<ele>2063.63</ele>
			<time>2015-03-08T16:13:24Z</time>
			<fix>3d</fix>
		</trkpt>
		<trkpt lat="35.165456" lon="-106.455364">
			<ele>2063.63</ele>
			<time>2015-03-08T16:13:25Z</time>
			<fix>3d</fix>
		</trkpt>
		<trkpt lat="35.165467" lon="-106.455353">
			<ele>2063.63</ele>
			<time>2015-03-08T16:13:26Z</time>
			<fix>3d</fix>
		</trkpt>
		<trkpt lat="35.165478" lon="-106.455344">
			<ele>2063.93</ele>
			<time>2015-03-08T16:13:27Z</time>
			<fix>3d</fix>
		</trkpt>
		<trkpt lat="35.165490" lon="-106.455335">
			<ele>2063.83</ele>
			<time>2015-03-08T16:13:28Z</time>
			<fix>3d</fix>
		</trkpt>
		<trkpt lat="35.165497" lon="-106.455324">
			<ele>2063.83</ele>
			<time>2015-03-08T16:13:29Z</time>
			<fix>3d</fix>
		</trkpt>
		<trkpt lat="35.165509" lon="-106.455312">
			<ele>2063.83</ele>
			<time>2015-03-08T16:13:30Z</time>
			<fix>3d</fix>
		</trkpt>
		<trkpt lat="35.165513" lon="-106.455300">
			<ele>2063.84</ele>
			<time>2015-03-08T16:13:31Z</time>
			<fix>3d</fix>
		</trkpt>
		<trkpt lat="35.165517" lon="-106.455288">
			<ele>2063.84</ele>
			<time>2015-03-08T16:13:32Z</time>
			<fix>3d</fix>
		</trkpt>
		<trkpt lat="35.165522" lon="-106.455276">
			<ele>2063.94</ele>
			<time>2015-03-08T16:13:33Z</time>
			<fix>3d</fix>
		</trkpt>
		<trkpt lat="35.165524" lon="-106.455271">
			<ele>2063.94</ele>
			<time>2015-03-08T16:13:34Z</time>
			<fix>3d</fix>
		</trkpt>
		<trkpt lat="35.165532" lon="-106.455256">
			<ele>2064.04</ele>
			<time>2015-03-08T16:13:35Z</time>
			<fix>3d</fix>
		</trkpt>
		<trkpt lat="35.165538" lon="-106.455245">
			<ele>2064.04</ele>
			<time>2015-03-08T16:13:36Z</time>
			<fix>3d</fix>
		</trkpt>
		<trkpt lat="35.165545" lon="-106.455232">
			<ele>2064.14</ele>
			<time>2015-03-08T16:13:37Z</time>
			<fix>3d</fix>
		</trkpt>
		<trkpt lat="35.165545" lon="-106.455228">
			<ele>2064.04</ele>
			<time>2015-03-08T16:13:38Z</time>
			<fix>3d</fix>
		</trkpt>
		<trkpt lat="35.165548" lon="-106.455212">
			<ele>2064.04</ele>
			<time>2015-03-08T16:13:39Z</time>
			<fix>3d</fix>
		</trkpt>
		<trkpt lat="35.165550" lon="-106.455207">
			<ele>2063.94</ele>
			<time>2015-03-08T16:13:40Z</time>
			<fix>3d</fix>
		</trkpt>
		<trkpt lat="35.165552" lon="-106.455200">
			<ele>2064.04</ele>
			<time>2015-03-08T16:13:41Z</time>
			<fix>3d</fix>
		</trkpt>
		<trkpt lat="35.165556" lon="-106.455194">
			<ele>2064.04</ele>
			<time>2015-03-08T16:13:42Z</time>
			<fix>3d</fix>
		</trkpt>
		<trkpt lat="35.165569" lon="-106.455177">
			<ele>2063.94</ele>
			<time>2015-03-08T16:13:43Z</time>
			<fix>3d</fix>
		</trkpt>
		<trkpt lat="35.165579" lon="-106.455166">
			<ele>2063.94</ele>
			<time>2015-03-08T16:13:44Z</time>
			<fix>3d</fix>
		</trkpt>
		<trkpt lat="35.165587" lon="-106.455156">
			<ele>2063.94</ele>
			<time>2015-03-08T16:13:45Z</time>
			<fix>3d</fix>
		</trkpt>
		<trkpt lat="35.165594" lon="-106.455144">
			<ele>2063.94</ele>
			<time>2015-03-08T16:13:46Z</time>
			<fix>3d</fix>
		</trkpt>
		<trkpt lat="35.165597" lon="-106.455130">
			<ele>2063.94</ele>
			<time>2015-03-08T16:13:47Z</time>
			<fix>3d</fix>
		</trkpt>
		<trkpt lat="35.165603" lon="-106.455118">
			<ele>2063.94</ele>
			<time>2015-03-08T16:13:48Z</time>
			<fix>3d</fix>
		</trkpt>
		<trkpt lat="35.165612" lon="-106.455110">
			<ele>2064.04</ele>
			<time>2015-03-08T16:13:49Z</time>
			<fix>3d</fix>
		</trkpt>
		<trkpt lat="35.165615" lon="-106.455108">
			<ele>2064.04</ele>
			<time>2015-03-08T16:13:50Z</time>
			<fix>3d</fix>
		</trkpt>
		<trkpt lat="35.165626" lon="-106.455100">
			<ele>2064.14</ele>
			<time>2015-03-08T16:13:51Z</time>
			<fix>3d</fix>
		</trkpt>
		<trkpt lat="35.165631" lon="-106.455093">
			<ele>2064.24</ele>
			<time>2015-03-08T16:13:53Z</time>
			<fix>3d</fix>
		</trkpt>
		<trkpt lat="35.165632" lon="-106.455089">
			<ele>2064.34</ele>
			<time>2015-03-08T16:13:54Z</time>
			<fix>3d</fix>
		</trkpt>
		<trkpt lat="35.165638" lon="-106.455083">
			<ele>2064.54</ele>
			<time>2015-03-08T16:13:55Z</time>
			<fix>3d</fix>
		</trkpt>
		<trkpt lat="35.165642" lon="-106.455076">
			<ele>2064.74</ele>
			<time>2015-03-08T16:13:56Z</time>
			<fix>3d</fix>
		</trkpt>
		<trkpt lat="35.165643" lon="-106.455067">
			<ele>2065.55</ele>
			<time>2015-03-08T16:13:58Z</time>
			<fix>3d</fix>
		</trkpt>
		<trkpt lat="35.165646" lon="-106.455058">
			<ele>2065.64</ele>
			<time>2015-03-08T16:13:59Z</time>
			<fix>3d</fix>
		</trkpt>
		<trkpt lat="35.165649" lon="-106.455049">
			<ele>2065.64</ele>
			<time>2015-03-08T16:14:00Z</time>
			<fix>3d</fix>
		</trkpt>
		<trkpt lat="35.165658" lon="-106.455017">
			<ele>2066.15</ele>
			<time>2015-03-08T16:14:01Z</time>
			<fix>3d</fix>
		</trkpt>
		<trkpt lat="35.165660" lon="-106.455014">
			<ele>2066.85</ele>
			<time>2015-03-08T16:14:02Z</time>
			<fix>3d</fix>
		</trkpt>
		<trkpt lat="35.165667" lon="-106.455001">
			<ele>2067.46</ele>
			<time>2015-03-08T16:14:03Z</time>
			<fix>3d</fix>
		</trkpt>
		<trkpt lat="35.165673" lon="-106.454989">
			<ele>2066.54</ele>
			<time>2015-03-08T16:14:04Z</time>
			<fix>3d</fix>
		</trkpt>
		<trkpt lat="35.165677" lon="-106.454976">
			<ele>2066.64</ele>
			<time>2015-03-08T16:14:05Z</time>
			<fix>3d</fix>
		</trkpt>
		<trkpt lat="35.165680" lon="-106.454961">
			<ele>2066.74</ele>
			<time>2015-03-08T16:14:06Z</time>
			<fix>3d</fix>
		</trkpt>
		<trkpt lat="35.165683" lon="-106.454947">
			<ele>2066.94</ele>
			<time>2015-03-08T16:14:07Z</time>
			<fix>3d</fix>
		</trkpt>
		<trkpt lat="35.165686" lon="-106.454934">
			<ele>2067.04</ele>
			<time>2015-03-08T16:14:08Z</time>
			<fix>3d</fix>
		</trkpt>
		<trkpt lat="35.165687" lon="-106.454920">
			<ele>2067.03</ele>
			<time>2015-03-08T16:14:09Z</time>
			<fix>3d</fix>
		</trkpt>
		<trkpt lat="35.165686" lon="-106.454904">
			<ele>2067.13</ele>
			<time>2015-03-08T16:14:10Z</time>
			<fix>3d</fix>
		</trkpt>
		<trkpt lat="35.165687" lon="-106.454889">
			<ele>2067.13</ele>
			<time>2015-03-08T16:14:11Z</time>
			<fix>3d</fix>
		</trkpt>
		<trkpt lat="35.165694" lon="-106.454874">
			<ele>2067.13</ele>
			<time>2015-03-08T16:14:12Z</time>
			<fix>3d</fix>
		</trkpt>
		<trkpt lat="35.165700" lon="-106.454863">
			<ele>2067.12</ele>
			<time>2015-03-08T16:14:13Z</time>
			<fix>3d</fix>
		</trkpt>
		<trkpt lat="35.165707" lon="-106.454853">
			<ele>2067.42</ele>
			<time>2015-03-08T16:14:14Z</time>
			<fix>3d</fix>
		</trkpt>
		<trkpt lat="35.165718" lon="-106.454842">
			<ele>2067.83</ele>
			<time>2015-03-08T16:14:15Z</time>
			<fix>3d</fix>
		</trkpt>
		<trkpt lat="35.165723" lon="-106.454830">
			<ele>2067.92</ele>
			<time>2015-03-08T16:14:16Z</time>
			<fix>3d</fix>
		</trkpt>
		<trkpt lat="35.165729" lon="-106.454817">
			<ele>2067.92</ele>
			<time>2015-03-08T16:14:17Z</time>
			<fix>3d</fix>
		</trkpt>
		<trkpt lat="35.165735" lon="-106.454804">
			<ele>2067.92</ele>
			<time>2015-03-08T16:14:18Z</time>
			<fix>3d</fix>
		</trkpt>
		<trkpt lat="35.165745" lon="-106.454790">
			<ele>2067.91</ele>
			<time>2015-03-08T16:14:19Z</time>
			<fix>3d</fix>
		</trkpt>
		<trkpt lat="35.165746" lon="-106.454785">
			<ele>2067.91</ele>
			<time>2015-03-08T16:14:20Z</time>
			<fix>3d</fix>
		</trkpt>
		<trkpt lat="35.165753" lon="-106.454770">
			<ele>2068.01</ele>
			<time>2015-03-08T16:14:21Z</time>
			<fix>3d</fix>
		</trkpt>
		<trkpt lat="35.165755" lon="-106.454765">
			<ele>2068.11</ele>
			<time>2015-03-08T16:14:22Z</time>
			<fix>3d</fix>
		</trkpt>
		<trkpt lat="35.165758" lon="-106.454758">
			<ele>2068.00</ele>
			<time>2015-03-08T16:14:23Z</time>
			<fix>3d</fix>
		</trkpt>
		<trkpt lat="35.165767" lon="-106.454738">
			<ele>2068.10</ele>
			<time>2015-03-08T16:14:24Z</time>
			<fix>3d</fix>
		</trkpt>
		<trkpt lat="35.165771" lon="-106.454733">
			<ele>2068.40</ele>
			<time>2015-03-08T16:14:25Z</time>
			<fix>3d</fix>
		</trkpt>
		<trkpt lat="35.165779" lon="-106.454714">
			<ele>2068.50</ele>
			<time>2015-03-08T16:14:26Z</time>
			<fix>3d</fix>
		</trkpt>
		<trkpt lat="35.165784" lon="-106.454700">
			<ele>2068.60</ele>
			<time>2015-03-08T16:14:27Z</time>
			<fix>3d</fix>
		</trkpt>
		<trkpt lat="35.165784" lon="-106.454696">
			<ele>2068.59</ele>
			<time>2015-03-08T16:14:28Z</time>
			<fix>3d</fix>
		</trkpt>
		<trkpt lat="35.165791" lon="-106.454680">
			<ele>2068.69</ele>
			<time>2015-03-08T16:14:29Z</time>
			<fix>3d</fix>
		</trkpt>
		<trkpt lat="35.165794" lon="-106.454675">
			<ele>2068.69</ele>
			<time>2015-03-08T16:14:30Z</time>
			<fix>3d</fix>
		</trkpt>
		<trkpt lat="35.165797" lon="-106.454668">
			<ele>2069.09</ele>
			<time>2015-03-08T16:14:31Z</time>
			<fix>3d</fix>
		</trkpt>
		<trkpt lat="35.165800" lon="-106.454661">
			<ele>2069.08</ele>
			<time>2015-03-08T16:14:32Z</time>
			<fix>3d</fix>
		</trkpt>
		<trkpt lat="35.165803" lon="-106.454654">
			<ele>2069.08</ele>
			<time>2015-03-08T16:14:33Z</time>
			<fix>3d</fix>
		</trkpt>
		<trkpt lat="35.165806" lon="-106.454646">
			<ele>2069.38</ele>
			<time>2015-03-08T16:14:34Z</time>
			<fix>3d</fix>
		</trkpt>
		<trkpt lat="35.165808" lon="-106.454637">
			<ele>2069.68</ele>
			<time>2015-03-08T16:14:35Z</time>
			<fix>3d</fix>
		</trkpt>
		<trkpt lat="35.165815" lon="-106.454615">
			<ele>2069.98</ele>
			<time>2015-03-08T16:14:36Z</time>
			<fix>3d</fix>
		</trkpt>
		<trkpt lat="35.165815" lon="-106.454611">
			<ele>2070.18</ele>
			<time>2015-03-08T16:14:37Z</time>
			<fix>3d</fix>
		</trkpt>
		<trkpt lat="35.165817" lon="-106.454603">
			<ele>2070.18</ele>
			<time>2015-03-08T16:14:38Z</time>
			<fix>3d</fix>
		</trkpt>
		<trkpt lat="35.165820" lon="-106.454595">
			<ele>2070.27</ele>
			<time>2015-03-08T16:14:39Z</time>
			<fix>3d</fix>
		</trkpt>
		<trkpt lat="35.165823" lon="-106.454586">
			<ele>2070.27</ele>
			<time>2015-03-08T16:14:40Z</time>
			<fix>3d</fix>
		</trkpt>
		<trkpt lat="35.165826" lon="-106.454577">
			<ele>2070.37</ele>
			<time>2015-03-08T16:14:41Z</time>
			<fix>3d</fix>
		</trkpt>
		<trkpt lat="35.165828" lon="-106.454568">
			<ele>2070.36</ele>
			<time>2015-03-08T16:14:42Z</time>
			<fix>3d</fix>
		</trkpt>
		<trkpt lat="35.165831" lon="-106.454559">
			<ele>2070.97</ele>
			<time>2015-03-08T16:14:43Z</time>
			<fix>3d</fix>
		</trkpt>
		<trkpt lat="35.165837" lon="-106.454535">
			<ele>2071.16</ele>
			<time>2015-03-08T16:14:44Z</time>
			<fix>3d</fix>
		</trkpt>
		<trkpt lat="35.165843" lon="-106.454517">
			<ele>2071.56</ele>
			<time>2015-03-08T16:14:45Z</time>
			<fix>3d</fix>
		</trkpt>
		<trkpt lat="35.165844" lon="-106.454512">
			<ele>2071.76</ele>
			<time>2015-03-08T16:14:46Z</time>
			<fix>3d</fix>
		</trkpt>
		<trkpt lat="35.165844" lon="-106.454505">
			<ele>2071.96</ele>
			<time>2015-03-08T16:14:47Z</time>
			<fix>3d</fix>
		</trkpt>
		<trkpt lat="35.165847" lon="-106.454484">
			<ele>2072.06</ele>
			<time>2015-03-08T16:14:48Z</time>
			<fix>3d</fix>
		</trkpt>
		<trkpt lat="35.165848" lon="-106.454478">
			<ele>2072.56</ele>
			<time>2015-03-08T16:14:49Z</time>
			<fix>3d</fix>
		</trkpt>
		<trkpt lat="35.165854" lon="-106.454460">
			<ele>2073.87</ele>
			<time>2015-03-08T16:14:50Z</time>
			<fix>3d</fix>
		</trkpt>
		<trkpt lat="35.165861" lon="-106.454447">
			<ele>2073.26</ele>
			<time>2015-03-08T16:14:51Z</time>
			<fix>3d</fix>
		</trkpt>
		<trkpt lat="35.165863" lon="-106.454443">
			<ele>2073.35</ele>
			<time>2015-03-08T16:14:52Z</time>
			<fix>3d</fix>
		</trkpt>
		<trkpt lat="35.165870" lon="-106.454428">
			<ele>2073.35</ele>
			<time>2015-03-08T16:14:53Z</time>
			<fix>3d</fix>
		</trkpt>
		<trkpt lat="35.165876" lon="-106.454413">
			<ele>2073.44</ele>
			<time>2015-03-08T16:14:54Z</time>
			<fix>3d</fix>
		</trkpt>
		<trkpt lat="35.165876" lon="-106.454399">
			<ele>2073.54</ele>
			<time>2015-03-08T16:14:55Z</time>
			<fix>3d</fix>
		</trkpt>
		<trkpt lat="35.165874" lon="-106.454386">
			<ele>2073.64</ele>
			<time>2015-03-08T16:14:56Z</time>
			<fix>3d</fix>
		</trkpt>
		<trkpt lat="35.165873" lon="-106.454373">
			<ele>2073.63</ele>
			<time>2015-03-08T16:14:57Z</time>
			<fix>3d</fix>
		</trkpt>
		<trkpt lat="35.165869" lon="-106.454361">
			<ele>2073.73</ele>
			<time>2015-03-08T16:14:58Z</time>
			<fix>3d</fix>
		</trkpt>
		<trkpt lat="35.165864" lon="-106.454349">
			<ele>2073.72</ele>
			<time>2015-03-08T16:14:59Z</time>
			<fix>3d</fix>
		</trkpt>
		<trkpt lat="35.165859" lon="-106.454335">
			<ele>2073.82</ele>
			<time>2015-03-08T16:15:00Z</time>
			<fix>3d</fix>
		</trkpt>
		<trkpt lat="35.165854" lon="-106.454322">
			<ele>2074.22</ele>
			<time>2015-03-08T16:15:01Z</time>
			<fix>3d</fix>
		</trkpt>
		<trkpt lat="35.165848" lon="-106.454310">
			<ele>2074.32</ele>
			<time>2015-03-08T16:15:02Z</time>
			<fix>3d</fix>
		</trkpt>
		<trkpt lat="35.165845" lon="-106.454301">
			<ele>2074.41</ele>
			<time>2015-03-08T16:15:04Z</time>
			<fix>3d</fix>
		</trkpt>
		<trkpt lat="35.165835" lon="-106.454279">
			<ele>2074.67</ele>
			<time>2015-03-08T16:15:34Z</time>
			<fix>3d</fix>
		</trkpt>
		<trkpt lat="35.165851" lon="-106.454261">
			<ele>2074.59</ele>
			<time>2015-03-08T16:18:21Z</time>
			<fix>3d</fix>
		</trkpt>
		<trkpt lat="35.165843" lon="-106.454251">
			<ele>2074.80</ele>
			<time>2015-03-08T16:18:37Z</time>
			<fix>3d</fix>
		</trkpt>
		<trkpt lat="35.165841" lon="-106.454239">
			<ele>2074.80</ele>
			<time>2015-03-08T16:18:38Z</time>
			<fix>3d</fix>
		</trkpt>
		<trkpt lat="35.165840" lon="-106.454226">
			<ele>2074.80</ele>
			<time>2015-03-08T16:18:39Z</time>
			<fix>3d</fix>
		</trkpt>
		<trkpt lat="35.165839" lon="-106.454214">
			<ele>2074.80</ele>
			<time>2015-03-08T16:18:40Z</time>
			<fix>3d</fix>
		</trkpt>
		<trkpt lat="35.165841" lon="-106.454198">
			<ele>2075.01</ele>
			<time>2015-03-08T16:18:41Z</time>
			<fix>3d</fix>
		</trkpt>
		<trkpt lat="35.165839" lon="-106.454185">
			<ele>2075.01</ele>
			<time>2015-03-08T16:18:42Z</time>
			<fix>3d</fix>
		</trkpt>
		<trkpt lat="35.165837" lon="-106.454171">
			<ele>2075.01</ele>
			<time>2015-03-08T16:18:43Z</time>
			<fix>3d</fix>
		</trkpt>
		<trkpt lat="35.165836" lon="-106.454159">
			<ele>2075.01</ele>
			<time>2015-03-08T16:18:44Z</time>
			<fix>3d</fix>
		</trkpt>
		<trkpt lat="35.165835" lon="-106.454146">
			<ele>2075.01</ele>
			<time>2015-03-08T16:18:45Z</time>
			<fix>3d</fix>
		</trkpt>
		<trkpt lat="35.165833" lon="-106.454133">
			<ele>2075.01</ele>
			<time>2015-03-08T16:18:46Z</time>
			<fix>3d</fix>
		</trkpt>
		<trkpt lat="35.165830" lon="-106.454120">
			<ele>2075.11</ele>
			<time>2015-03-08T16:18:47Z</time>
			<fix>3d</fix>
		</trkpt>
		<trkpt lat="35.165825" lon="-106.454108">
			<ele>2075.12</ele>
			<time>2015-03-08T16:18:48Z</time>
			<fix>3d</fix>
		</trkpt>
		<trkpt lat="35.165821" lon="-106.454098">
			<ele>2075.22</ele>
			<time>2015-03-08T16:18:49Z</time>
			<fix>3d</fix>
		</trkpt>
		<trkpt lat="35.165818" lon="-106.454086">
			<ele>2075.32</ele>
			<time>2015-03-08T16:18:50Z</time>
			<fix>3d</fix>
		</trkpt>
		<trkpt lat="35.165815" lon="-106.454074">
			<ele>2075.42</ele>
			<time>2015-03-08T16:18:51Z</time>
			<fix>3d</fix>
		</trkpt>
		<trkpt lat="35.165814" lon="-106.454068">
			<ele>2075.73</ele>
			<time>2015-03-08T16:18:52Z</time>
			<fix>3d</fix>
		</trkpt>
		<trkpt lat="35.165812" lon="-106.454051">
			<ele>2076.23</ele>
			<time>2015-03-08T16:18:53Z</time>
			<fix>3d</fix>
		</trkpt>
		<trkpt lat="35.165812" lon="-106.454038">
			<ele>2076.44</ele>
			<time>2015-03-08T16:18:54Z</time>
			<fix>3d</fix>
		</trkpt>
		<trkpt lat="35.165818" lon="-106.454027">
			<ele>2076.44</ele>
			<time>2015-03-08T16:18:55Z</time>
			<fix>3d</fix>
		</trkpt>
		<trkpt lat="35.165821" lon="-106.454012">
			<ele>2076.44</ele>
			<time>2015-03-08T16:18:56Z</time>
			<fix>3d</fix>
		</trkpt>
		<trkpt lat="35.165823" lon="-106.454009">
			<ele>2076.54</ele>
			<time>2015-03-08T16:18:57Z</time>
			<fix>3d</fix>
		</trkpt>
		<trkpt lat="35.165829" lon="-106.453993">
			<ele>2076.44</ele>
			<time>2015-03-08T16:18:58Z</time>
			<fix>3d</fix>
		</trkpt>
		<trkpt lat="35.165830" lon="-106.453980">
			<ele>2076.54</ele>
			<time>2015-03-08T16:18:59Z</time>
			<fix>3d</fix>
		</trkpt>
		<trkpt lat="35.165832" lon="-106.453964">
			<ele>2076.54</ele>
			<time>2015-03-08T16:19:00Z</time>
			<fix>3d</fix>
		</trkpt>
		<trkpt lat="35.165832" lon="-106.453959">
			<ele>2076.75</ele>
			<time>2015-03-08T16:19:01Z</time>
			<fix>3d</fix>
		</trkpt>
		<trkpt lat="35.165834" lon="-106.453943">
			<ele>2077.15</ele>
			<time>2015-03-08T16:19:02Z</time>
			<fix>3d</fix>
		</trkpt>
		<trkpt lat="35.165838" lon="-106.453929">
			<ele>2077.15</ele>
			<time>2015-03-08T16:19:03Z</time>
			<fix>3d</fix>
		</trkpt>
		<trkpt lat="35.165841" lon="-106.453917">
			<ele>2077.46</ele>
			<time>2015-03-08T16:19:04Z</time>
			<fix>3d</fix>
		</trkpt>
		<trkpt lat="35.165843" lon="-106.453902">
			<ele>2077.97</ele>
			<time>2015-03-08T16:19:05Z</time>
			<fix>3d</fix>
		</trkpt>
		<trkpt lat="35.165843" lon="-106.453890">
			<ele>2078.27</ele>
			<time>2015-03-08T16:19:06Z</time>
			<fix>3d</fix>
		</trkpt>
		<trkpt lat="35.165845" lon="-106.453877">
			<ele>2078.27</ele>
			<time>2015-03-08T16:19:07Z</time>
			<fix>3d</fix>
		</trkpt>
		<trkpt lat="35.165846" lon="-106.453864">
			<ele>2078.27</ele>
			<time>2015-03-08T16:19:08Z</time>
			<fix>3d</fix>
		</trkpt>
		<trkpt lat="35.165846" lon="-106.453851">
			<ele>2078.27</ele>
			<time>2015-03-08T16:19:09Z</time>
			<fix>3d</fix>
		</trkpt>
		<trkpt lat="35.165844" lon="-106.453838">
			<ele>2078.38</ele>
			<time>2015-03-08T16:19:10Z</time>
			<fix>3d</fix>
		</trkpt>
		<trkpt lat="35.165842" lon="-106.453823">
			<ele>2078.38</ele>
			<time>2015-03-08T16:19:11Z</time>
			<fix>3d</fix>
		</trkpt>
		<trkpt lat="35.165842" lon="-106.453818">
			<ele>2078.68</ele>
			<time>2015-03-08T16:19:12Z</time>
			<fix>3d</fix>
		</trkpt>
		<trkpt lat="35.165842" lon="-106.453811">
			<ele>2078.68</ele>
			<time>2015-03-08T16:19:13Z</time>
			<fix>3d</fix>
		</trkpt>
		<trkpt lat="35.165841" lon="-106.453791">
			<ele>2078.68</ele>
			<time>2015-03-08T16:19:14Z</time>
			<fix>3d</fix>
		</trkpt>
		<trkpt lat="35.165837" lon="-106.453777">
			<ele>2079.19</ele>
			<time>2015-03-08T16:19:15Z</time>
			<fix>3d</fix>
		</trkpt>
		<trkpt lat="35.165832" lon="-106.453765">
			<ele>2079.60</ele>
			<time>2015-03-08T16:19:16Z</time>
			<fix>3d</fix>
		</trkpt>
		<trkpt lat="35.165828" lon="-106.453756">
			<ele>2080.41</ele>
			<time>2015-03-08T16:19:18Z</time>
			<fix>3d</fix>
		</trkpt>
		<trkpt lat="35.165825" lon="-106.453732">
			<ele>2080.51</ele>
			<time>2015-03-08T16:19:19Z</time>
			<fix>3d</fix>
		</trkpt>
		<trkpt lat="35.165827" lon="-106.453717">
			<ele>2080.61</ele>
			<time>2015-03-08T16:19:20Z</time>
			<fix>3d</fix>
		</trkpt>
		<trkpt lat="35.165828" lon="-106.453705">
			<ele>2080.61</ele>
			<time>2015-03-08T16:19:21Z</time>
			<fix>3d</fix>
		</trkpt>
		<trkpt lat="35.165828" lon="-106.453692">
			<ele>2080.71</ele>
			<time>2015-03-08T16:19:22Z</time>
			<fix>3d</fix>
		</trkpt>
		<trkpt lat="35.165829" lon="-106.453678">
			<ele>2080.71</ele>
			<time>2015-03-08T16:19:23Z</time>
			<fix>3d</fix>
		</trkpt>
		<trkpt lat="35.165829" lon="-106.453664">
			<ele>2080.82</ele>
			<time>2015-03-08T16:19:24Z</time>
			<fix>3d</fix>
		</trkpt>
		<trkpt lat="35.165830" lon="-106.453650">
			<ele>2080.82</ele>
			<time>2015-03-08T16:19:25Z</time>
			<fix>3d</fix>
		</trkpt>
		<trkpt lat="35.165830" lon="-106.453635">
			<ele>2081.02</ele>
			<time>2015-03-08T16:19:26Z</time>
			<fix>3d</fix>
		</trkpt>
		<trkpt lat="35.165828" lon="-106.453620">
			<ele>2081.12</ele>
			<time>2015-03-08T16:19:27Z</time>
			<fix>3d</fix>
		</trkpt>
		<trkpt lat="35.165825" lon="-106.453603">
			<ele>2081.22</ele>
			<time>2015-03-08T16:19:28Z</time>
			<fix>3d</fix>
		</trkpt>
		<trkpt lat="35.165823" lon="-106.453589">
			<ele>2081.32</ele>
			<time>2015-03-08T16:19:29Z</time>
			<fix>3d</fix>
		</trkpt>
		<trkpt lat="35.165820" lon="-106.453577">
			<ele>2081.43</ele>
			<time>2015-03-08T16:19:30Z</time>
			<fix>3d</fix>
		</trkpt>
		<trkpt lat="35.165817" lon="-106.453563">
			<ele>2081.43</ele>
			<time>2015-03-08T16:19:31Z</time>
			<fix>3d</fix>
		</trkpt>
		<trkpt lat="35.165817" lon="-106.453549">
			<ele>2081.73</ele>
			<time>2015-03-08T16:19:32Z</time>
			<fix>3d</fix>
		</trkpt>
		<trkpt lat="35.165819" lon="-106.453536">
			<ele>2081.73</ele>
			<time>2015-03-08T16:19:33Z</time>
			<fix>3d</fix>
		</trkpt>
		<trkpt lat="35.165823" lon="-106.453524">
			<ele>2081.83</ele>
			<time>2015-03-08T16:19:34Z</time>
			<fix>3d</fix>
		</trkpt>
		<trkpt lat="35.165826" lon="-106.453512">
			<ele>2082.54</ele>
			<time>2015-03-08T16:19:35Z</time>
			<fix>3d</fix>
		</trkpt>
		<trkpt lat="35.165829" lon="-106.453499">
			<ele>2082.74</ele>
			<time>2015-03-08T16:19:36Z</time>
			<fix>3d</fix>
		</trkpt>
		<trkpt lat="35.165832" lon="-106.453487">
			<ele>2082.75</ele>
			<time>2015-03-08T16:19:37Z</time>
			<fix>3d</fix>
		</trkpt>
		<trkpt lat="35.165837" lon="-106.453474">
			<ele>2082.75</ele>
			<time>2015-03-08T16:19:38Z</time>
			<fix>3d</fix>
		</trkpt>
		<trkpt lat="35.165843" lon="-106.453462">
			<ele>2082.85</ele>
			<time>2015-03-08T16:19:39Z</time>
			<fix>3d</fix>
		</trkpt>
		<trkpt lat="35.165849" lon="-106.453451">
			<ele>2082.85</ele>
			<time>2015-03-08T16:19:40Z</time>
			<fix>3d</fix>
		</trkpt>
		<trkpt lat="35.165855" lon="-106.453440">
			<ele>2082.95</ele>
			<time>2015-03-08T16:19:41Z</time>
			<fix>3d</fix>
		</trkpt>
		<trkpt lat="35.165866" lon="-106.453427">
			<ele>2083.05</ele>
			<time>2015-03-08T16:19:42Z</time>
			<fix>3d</fix>
		</trkpt>
		<trkpt lat="35.165875" lon="-106.453416">
			<ele>2083.05</ele>
			<time>2015-03-08T16:19:43Z</time>
			<fix>3d</fix>
		</trkpt>
		<trkpt lat="35.165877" lon="-106.453405">
			<ele>2083.05</ele>
			<time>2015-03-08T16:19:44Z</time>
			<fix>3d</fix>
		</trkpt>
		<trkpt lat="35.165879" lon="-106.453392">
			<ele>2083.05</ele>
			<time>2015-03-08T16:19:45Z</time>
			<fix>3d</fix>
		</trkpt>
		<trkpt lat="35.165882" lon="-106.453380">
			<ele>2083.05</ele>
			<time>2015-03-08T16:19:46Z</time>
			<fix>3d</fix>
		</trkpt>
		<trkpt lat="35.165885" lon="-106.453371">
			<ele>2083.46</ele>
			<time>2015-03-08T16:19:48Z</time>
			<fix>3d</fix>
		</trkpt>
		<trkpt lat="35.165892" lon="-106.453354">
			<ele>2083.46</ele>
			<time>2015-03-08T16:19:49Z</time>
			<fix>3d</fix>
		</trkpt>
		<trkpt lat="35.165893" lon="-106.453349">
			<ele>2083.46</ele>
			<time>2015-03-08T16:19:50Z</time>
			<fix>3d</fix>
		</trkpt>
		<trkpt lat="35.165894" lon="-106.453342">
			<ele>2083.66</ele>
			<time>2015-03-08T16:19:51Z</time>
			<fix>3d</fix>
		</trkpt>
		<trkpt lat="35.165895" lon="-106.453334">
			<ele>2084.17</ele>
			<time>2015-03-08T16:19:52Z</time>
			<fix>3d</fix>
		</trkpt>
		<trkpt lat="35.165899" lon="-106.453314">
			<ele>2084.57</ele>
			<time>2015-03-08T16:19:53Z</time>
			<fix>3d</fix>
		</trkpt>
		<trkpt lat="35.165900" lon="-106.453309">
			<ele>2084.67</ele>
			<time>2015-03-08T16:19:54Z</time>
			<fix>3d</fix>
		</trkpt>
		<trkpt lat="35.165905" lon="-106.453293">
			<ele>2084.88</ele>
			<time>2015-03-08T16:19:55Z</time>
			<fix>3d</fix>
		</trkpt>
		<trkpt lat="35.165906" lon="-106.453288">
			<ele>2084.88</ele>
			<time>2015-03-08T16:19:56Z</time>
			<fix>3d</fix>
		</trkpt>
		<trkpt lat="35.165910" lon="-106.453270">
			<ele>2084.88</ele>
			<time>2015-03-08T16:19:57Z</time>
			<fix>3d</fix>
		</trkpt>
		<trkpt lat="35.165912" lon="-106.453265">
			<ele>2084.98</ele>
			<time>2015-03-08T16:19:58Z</time>
			<fix>3d</fix>
		</trkpt>
		<trkpt lat="35.165918" lon="-106.453247">
			<ele>2085.08</ele>
			<time>2015-03-08T16:19:59Z</time>
			<fix>3d</fix>
		</trkpt>
		<trkpt lat="35.165921" lon="-106.453233">
			<ele>2085.49</ele>
			<time>2015-03-08T16:20:00Z</time>
			<fix>3d</fix>
		</trkpt>
		<trkpt lat="35.165923" lon="-106.453221">
			<ele>2085.59</ele>
			<time>2015-03-08T16:20:01Z</time>
			<fix>3d</fix>
		</trkpt>
		<trkpt lat="35.165924" lon="-106.453217">
			<ele>2085.59</ele>
			<time>2015-03-08T16:20:02Z</time>
			<fix>3d</fix>
		</trkpt>
		<trkpt lat="35.165925" lon="-106.453210">
			<ele>2085.79</ele>
			<time>2015-03-08T16:20:03Z</time>
			<fix>3d</fix>
		</trkpt>
		<trkpt lat="35.165926" lon="-106.453203">
			<ele>2085.89</ele>
			<time>2015-03-08T16:20:04Z</time>
			<fix>3d</fix>
		</trkpt>
		<trkpt lat="35.165926" lon="-106.453198">
			<ele>2085.99</ele>
			<time>2015-03-08T16:20:05Z</time>
			<fix>3d</fix>
		</trkpt>
		<trkpt lat="35.165928" lon="-106.453189">
			<ele>2086.20</ele>
			<time>2015-03-08T16:20:06Z</time>
			<fix>3d</fix>
		</trkpt>
		<trkpt lat="35.165938" lon="-106.453161">
			<ele>2086.60</ele>
			<time>2015-03-08T16:20:07Z</time>
			<fix>3d</fix>
		</trkpt>
		<trkpt lat="35.165943" lon="-106.453148">
			<ele>2087.11</ele>
			<time>2015-03-08T16:20:08Z</time>
			<fix>3d</fix>
		</trkpt>
		<trkpt lat="35.165946" lon="-106.453136">
			<ele>2087.01</ele>
			<time>2015-03-08T16:20:09Z</time>
			<fix>3d</fix>
		</trkpt>
		<trkpt lat="35.165949" lon="-106.453123">
			<ele>2087.11</ele>
			<time>2015-03-08T16:20:10Z</time>
			<fix>3d</fix>
		</trkpt>
		<trkpt lat="35.165949" lon="-106.453113">
			<ele>2087.32</ele>
			<time>2015-03-08T16:20:12Z</time>
			<fix>3d</fix>
		</trkpt>
		<trkpt lat="35.165949" lon="-106.453105">
			<ele>2087.52</ele>
			<time>2015-03-08T16:20:13Z</time>
			<fix>3d</fix>
		</trkpt>
		<trkpt lat="35.165947" lon="-106.453085">
			<ele>2087.52</ele>
			<time>2015-03-08T16:20:14Z</time>
			<fix>3d</fix>
		</trkpt>
		<trkpt lat="35.165944" lon="-106.453071">
			<ele>2087.52</ele>
			<time>2015-03-08T16:20:15Z</time>
			<fix>3d</fix>
		</trkpt>
		<trkpt lat="35.165943" lon="-106.453057">
			<ele>2087.52</ele>
			<time>2015-03-08T16:20:16Z</time>
			<fix>3d</fix>
		</trkpt>
		<trkpt lat="35.165943" lon="-106.453046">
			<ele>2087.42</ele>
			<time>2015-03-08T16:20:17Z</time>
			<fix>3d</fix>
		</trkpt>
		<trkpt lat="35.165942" lon="-106.453035">
			<ele>2087.43</ele>
			<time>2015-03-08T16:20:18Z</time>
			<fix>3d</fix>
		</trkpt>
		<trkpt lat="35.165941" lon="-106.453024">
			<ele>2087.43</ele>
			<time>2015-03-08T16:20:19Z</time>
			<fix>3d</fix>
		</trkpt>
		<trkpt lat="35.165938" lon="-106.453011">
			<ele>2087.33</ele>
			<time>2015-03-08T16:20:20Z</time>
			<fix>3d</fix>
		</trkpt>
		<trkpt lat="35.165936" lon="-106.452996">
			<ele>2087.33</ele>
			<time>2015-03-08T16:20:21Z</time>
			<fix>3d</fix>
		</trkpt>
		<trkpt lat="35.165935" lon="-106.452991">
			<ele>2087.33</ele>
			<time>2015-03-08T16:20:22Z</time>
			<fix>3d</fix>
		</trkpt>
		<trkpt lat="35.165933" lon="-106.452974">
			<ele>2087.33</ele>
			<time>2015-03-08T16:20:23Z</time>
			<fix>3d</fix>
		</trkpt>
		<trkpt lat="35.165932" lon="-106.452960">
			<ele>2087.13</ele>
			<time>2015-03-08T16:20:24Z</time>
			<fix>3d</fix>
		</trkpt>
		<trkpt lat="35.165931" lon="-106.452946">
			<ele>2086.93</ele>
			<time>2015-03-08T16:20:25Z</time>
			<fix>3d</fix>
		</trkpt>
		<trkpt lat="35.165931" lon="-106.452934">
			<ele>2086.93</ele>
			<time>2015-03-08T16:20:26Z</time>
			<fix>3d</fix>
		</trkpt>
		<trkpt lat="35.165931" lon="-106.452919">
			<ele>2086.83</ele>
			<time>2015-03-08T16:20:27Z</time>
			<fix>3d</fix>
		</trkpt>
		<trkpt lat="35.165928" lon="-106.452905">
			<ele>2086.83</ele>
			<time>2015-03-08T16:20:28Z</time>
			<fix>3d</fix>
		</trkpt>
		<trkpt lat="35.165927" lon="-106.452890">
			<ele>2086.83</ele>
			<time>2015-03-08T16:20:29Z</time>
			<fix>3d</fix>
		</trkpt>
		<trkpt lat="35.165926" lon="-106.452884">
			<ele>2086.93</ele>
			<time>2015-03-08T16:20:30Z</time>
			<fix>3d</fix>
		</trkpt>
		<trkpt lat="35.165928" lon="-106.452866">
			<ele>2086.94</ele>
			<time>2015-03-08T16:20:31Z</time>
			<fix>3d</fix>
		</trkpt>
		<trkpt lat="35.165929" lon="-106.452860">
			<ele>2087.04</ele>
			<time>2015-03-08T16:20:32Z</time>
			<fix>3d</fix>
		</trkpt>
		<trkpt lat="35.165931" lon="-106.452853">
			<ele>2087.45</ele>
			<time>2015-03-08T16:20:33Z</time>
			<fix>3d</fix>
		</trkpt>
		<trkpt lat="35.165932" lon="-106.452846">
			<ele>2087.24</ele>
			<time>2015-03-08T16:20:34Z</time>
			<fix>3d</fix>
		</trkpt>
		<trkpt lat="35.165933" lon="-106.452838">
			<ele>2087.25</ele>
			<time>2015-03-08T16:20:35Z</time>
			<fix>3d</fix>
		</trkpt>
		<trkpt lat="35.165935" lon="-106.452830">
			<ele>2087.35</ele>
			<time>2015-03-08T16:20:36Z</time>
			<fix>3d</fix>
		</trkpt>
		<trkpt lat="35.165937" lon="-106.452821">
			<ele>2087.35</ele>
			<time>2015-03-08T16:20:37Z</time>
			<fix>3d</fix>
		</trkpt>
		<trkpt lat="35.165941" lon="-106.452799">
			<ele>2087.56</ele>
			<time>2015-03-08T16:20:38Z</time>
			<fix>3d</fix>
		</trkpt>
		<trkpt lat="35.165943" lon="-106.452793">
			<ele>2087.66</ele>
			<time>2015-03-08T16:20:39Z</time>
			<fix>3d</fix>
		</trkpt>
		<trkpt lat="35.165949" lon="-106.452778">
			<ele>2088.07</ele>
			<time>2015-03-08T16:20:40Z</time>
			<fix>3d</fix>
		</trkpt>
		<trkpt lat="35.165951" lon="-106.452773">
			<ele>2088.17</ele>
			<time>2015-03-08T16:20:41Z</time>
			<fix>3d</fix>
		</trkpt>
		<trkpt lat="35.165957" lon="-106.452756">
			<ele>2088.58</ele>
			<time>2015-03-08T16:20:42Z</time>
			<fix>3d</fix>
		</trkpt>
		<trkpt lat="35.165957" lon="-106.452745">
			<ele>2089.29</ele>
			<time>2015-03-08T16:20:44Z</time>
			<fix>3d</fix>
		</trkpt>
		<trkpt lat="35.165960" lon="-106.452738">
			<ele>2089.29</ele>
			<time>2015-03-08T16:20:45Z</time>
			<fix>3d</fix>
		</trkpt>
		<trkpt lat="35.165960" lon="-106.452733">
			<ele>2089.29</ele>
			<time>2015-03-08T16:20:46Z</time>
			<fix>3d</fix>
		</trkpt>
		<trkpt lat="35.165970" lon="-106.452711">
			<ele>2089.39</ele>
			<time>2015-03-08T16:20:47Z</time>
			<fix>3d</fix>
		</trkpt>
		<trkpt lat="35.165977" lon="-106.452697">
			<ele>2089.40</ele>
			<time>2015-03-08T16:20:48Z</time>
			<fix>3d</fix>
		</trkpt>
		<trkpt lat="35.165986" lon="-106.452683">
			<ele>2089.40</ele>
			<time>2015-03-08T16:20:49Z</time>
			<fix>3d</fix>
		</trkpt>
		<trkpt lat="35.165989" lon="-106.452672">
			<ele>2089.40</ele>
			<time>2015-03-08T16:20:50Z</time>
			<fix>3d</fix>
		</trkpt>
		<trkpt lat="35.165995" lon="-106.452658">
			<ele>2089.40</ele>
			<time>2015-03-08T16:20:51Z</time>
			<fix>3d</fix>
		</trkpt>
		<trkpt lat="35.165997" lon="-106.452644">
			<ele>2089.30</ele>
			<time>2015-03-08T16:20:52Z</time>
			<fix>3d</fix>
		</trkpt>
		<trkpt lat="35.166002" lon="-106.452626">
			<ele>2089.30</ele>
			<time>2015-03-08T16:20:53Z</time>
			<fix>3d</fix>
		</trkpt>
		<trkpt lat="35.166004" lon="-106.452611">
			<ele>2089.41</ele>
			<time>2015-03-08T16:20:54Z</time>
			<fix>3d</fix>
		</trkpt>
		<trkpt lat="35.166007" lon="-106.452594">
			<ele>2089.41</ele>
			<time>2015-03-08T16:20:55Z</time>
			<fix>3d</fix>
		</trkpt>
		<trkpt lat="35.166010" lon="-106.452579">
			<ele>2089.41</ele>
			<time>2015-03-08T16:20:56Z</time>
			<fix>3d</fix>
		</trkpt>
		<trkpt lat="35.166013" lon="-106.452566">
			<ele>2089.52</ele>
			<time>2015-03-08T16:20:57Z</time>
			<fix>3d</fix>
		</trkpt>
		<trkpt lat="35.166018" lon="-106.452555">
			<ele>2089.52</ele>
			<time>2015-03-08T16:20:58Z</time>
			<fix>3d</fix>
		</trkpt>
		<trkpt lat="35.166023" lon="-106.452543">
			<ele>2089.52</ele>
			<time>2015-03-08T16:20:59Z</time>
			<fix>3d</fix>
		</trkpt>
		<trkpt lat="35.166031" lon="-106.452532">
			<ele>2089.52</ele>
			<time>2015-03-08T16:21:00Z</time>
			<fix>3d</fix>
		</trkpt>
		<trkpt lat="35.166041" lon="-106.452517">
			<ele>2089.52</ele>
			<time>2015-03-08T16:21:01Z</time>
			<fix>3d</fix>
		</trkpt>
		<trkpt lat="35.166042" lon="-106.452503">
			<ele>2089.53</ele>
			<time>2015-03-08T16:21:02Z</time>
			<fix>3d</fix>
		</trkpt>
		<trkpt lat="35.166045" lon="-106.452486">
			<ele>2089.53</ele>
			<time>2015-03-08T16:21:03Z</time>
			<fix>3d</fix>
		</trkpt>
		<trkpt lat="35.166046" lon="-106.452474">
			<ele>2089.53</ele>
			<time>2015-03-08T16:21:04Z</time>
			<fix>3d</fix>
		</trkpt>
		<trkpt lat="35.166049" lon="-106.452462">
			<ele>2089.53</ele>
			<time>2015-03-08T16:21:05Z</time>
			<fix>3d</fix>
		</trkpt>
		<trkpt lat="35.166060" lon="-106.452450">
			<ele>2089.53</ele>
			<time>2015-03-08T16:21:06Z</time>
			<fix>3d</fix>
		</trkpt>
		<trkpt lat="35.166067" lon="-106.452440">
			<ele>2089.54</ele>
			<time>2015-03-08T16:21:07Z</time>
			<fix>3d</fix>
		</trkpt>
		<trkpt lat="35.166076" lon="-106.452431">
			<ele>2089.54</ele>
			<time>2015-03-08T16:21:08Z</time>
			<fix>3d</fix>
		</trkpt>
		<trkpt lat="35.166087" lon="-106.452423">
			<ele>2089.54</ele>
			<time>2015-03-08T16:21:09Z</time>
			<fix>3d</fix>
		</trkpt>
		<trkpt lat="35.166091" lon="-106.452420">
			<ele>2089.54</ele>
			<time>2015-03-08T16:21:10Z</time>
			<fix>3d</fix>
		</trkpt>
		<trkpt lat="35.166103" lon="-106.452409">
			<ele>2089.64</ele>
			<time>2015-03-08T16:21:11Z</time>
			<fix>3d</fix>
		</trkpt>
		<trkpt lat="35.166120" lon="-106.452400">
			<ele>2089.65</ele>
			<time>2015-03-08T16:21:12Z</time>
			<fix>3d</fix>
		</trkpt>
		<trkpt lat="35.166133" lon="-106.452390">
			<ele>2089.65</ele>
			<time>2015-03-08T16:21:13Z</time>
			<fix>3d</fix>
		</trkpt>
		<trkpt lat="35.166138" lon="-106.452380">
			<ele>2089.65</ele>
			<time>2015-03-08T16:21:14Z</time>
			<fix>3d</fix>
		</trkpt>
		<trkpt lat="35.166143" lon="-106.452369">
			<ele>2089.65</ele>
			<time>2015-03-08T16:21:15Z</time>
			<fix>3d</fix>
		</trkpt>
		<trkpt lat="35.166147" lon="-106.452358">
			<ele>2089.75</ele>
			<time>2015-03-08T16:21:16Z</time>
			<fix>3d</fix>
		</trkpt>
		<trkpt lat="35.166151" lon="-106.452348">
			<ele>2089.76</ele>
			<time>2015-03-08T16:21:17Z</time>
			<fix>3d</fix>
		</trkpt>
		<trkpt lat="35.166153" lon="-106.452344">
			<ele>2089.86</ele>
			<time>2015-03-08T16:21:18Z</time>
			<fix>3d</fix>
		</trkpt>
		<trkpt lat="35.166162" lon="-106.452332">
			<ele>2089.96</ele>
			<time>2015-03-08T16:21:19Z</time>
			<fix>3d</fix>
		</trkpt>
		<trkpt lat="35.166171" lon="-106.452319">
			<ele>2090.07</ele>
			<time>2015-03-08T16:21:20Z</time>
			<fix>3d</fix>
		</trkpt>
		<trkpt lat="35.166172" lon="-106.452315">
			<ele>2090.37</ele>
			<time>2015-03-08T16:21:21Z</time>
			<fix>3d</fix>
		</trkpt>
		<trkpt lat="35.166177" lon="-106.452301">
			<ele>2090.68</ele>
			<time>2015-03-08T16:21:22Z</time>
			<fix>3d</fix>
		</trkpt>
		<trkpt lat="35.166182" lon="-106.452289">
			<ele>2091.39</ele>
			<time>2015-03-08T16:21:23Z</time>
			<fix>3d</fix>
		</trkpt>
		<trkpt lat="35.166181" lon="-106.452281">
			<ele>2091.29</ele>
			<time>2015-03-08T16:21:25Z</time>
			<fix>3d</fix>
		</trkpt>
		<trkpt lat="35.166183" lon="-106.452274">
			<ele>2091.19</ele>
			<time>2015-03-08T16:21:26Z</time>
			<fix>3d</fix>
		</trkpt>
		<trkpt lat="35.166184" lon="-106.452265">
			<ele>2091.09</ele>
			<time>2015-03-08T16:21:27Z</time>
			<fix>3d</fix>
		</trkpt>
		<trkpt lat="35.166188" lon="-106.452241">
			<ele>2090.99</ele>
			<time>2015-03-08T16:21:28Z</time>
			<fix>3d</fix>
		</trkpt>
		<trkpt lat="35.166190" lon="-106.452223">
			<ele>2090.89</ele>
			<time>2015-03-08T16:21:29Z</time>
			<fix>3d</fix>
		</trkpt>
		<trkpt lat="35.166189" lon="-106.452214">
			<ele>2090.18</ele>
			<time>2015-03-08T16:21:31Z</time>
			<fix>3d</fix>
		</trkpt>
		<trkpt lat="35.166191" lon="-106.452206">
			<ele>2089.78</ele>
			<time>2015-03-08T16:21:32Z</time>
			<fix>3d</fix>
		</trkpt>
		<trkpt lat="35.166196" lon="-106.452174">
			<ele>2089.58</ele>
			<time>2015-03-08T16:21:33Z</time>
			<fix>3d</fix>
		</trkpt>
		<trkpt lat="35.166197" lon="-106.452163">
			<ele>2089.48</ele>
			<time>2015-03-08T16:21:34Z</time>
			<fix>3d</fix>
		</trkpt>
		<trkpt lat="35.166197" lon="-106.452147">
			<ele>2089.48</ele>
			<time>2015-03-08T16:21:35Z</time>
			<fix>3d</fix>
		</trkpt>
		<trkpt lat="35.166194" lon="-106.452131">
			<ele>2089.48</ele>
			<time>2015-03-08T16:21:36Z</time>
			<fix>3d</fix>
		</trkpt>
		<trkpt lat="35.166189" lon="-106.452117">
			<ele>2089.48</ele>
			<time>2015-03-08T16:21:37Z</time>
			<fix>3d</fix>
		</trkpt>
		<trkpt lat="35.166184" lon="-106.452101">
			<ele>2089.48</ele>
			<time>2015-03-08T16:21:38Z</time>
			<fix>3d</fix>
		</trkpt>
		<trkpt lat="35.166182" lon="-106.452097">
			<ele>2089.49</ele>
			<time>2015-03-08T16:21:39Z</time>
			<fix>3d</fix>
		</trkpt>
		<trkpt lat="35.166181" lon="-106.452080">
			<ele>2089.49</ele>
			<time>2015-03-08T16:21:40Z</time>
			<fix>3d</fix>
		</trkpt>
		<trkpt lat="35.166178" lon="-106.452065">
			<ele>2089.49</ele>
			<time>2015-03-08T16:21:41Z</time>
			<fix>3d</fix>
		</trkpt>
		<trkpt lat="35.166173" lon="-106.452054">
			<ele>2089.49</ele>
			<time>2015-03-08T16:21:42Z</time>
			<fix>3d</fix>
		</trkpt>
		<trkpt lat="35.166168" lon="-106.452047">
			<ele>2089.59</ele>
			<time>2015-03-08T16:21:44Z</time>
			<fix>3d</fix>
		</trkpt>
		<trkpt lat="35.166163" lon="-106.452043">
			<ele>2089.60</ele>
			<time>2015-03-08T16:21:45Z</time>
			<fix>3d</fix>
		</trkpt>
		<trkpt lat="35.166158" lon="-106.452038">
			<ele>2089.70</ele>
			<time>2015-03-08T16:21:46Z</time>
			<fix>3d</fix>
		</trkpt>
		<trkpt lat="35.166153" lon="-106.452032">
			<ele>2089.80</ele>
			<time>2015-03-08T16:21:47Z</time>
			<fix>3d</fix>
		</trkpt>
		<trkpt lat="35.166139" lon="-106.452019">
			<ele>2089.91</ele>
			<time>2015-03-08T16:21:48Z</time>
			<fix>3d</fix>
		</trkpt>
		<trkpt lat="35.166129" lon="-106.452011">
			<ele>2089.91</ele>
			<time>2015-03-08T16:21:49Z</time>
			<fix>3d</fix>
		</trkpt>
		<trkpt lat="35.166125" lon="-106.452004">
			<ele>2090.42</ele>
			<time>2015-03-08T16:21:51Z</time>
			<fix>3d</fix>
		</trkpt>
		<trkpt lat="35.166123" lon="-106.452000">
			<ele>2090.72</ele>
			<time>2015-03-08T16:21:52Z</time>
			<fix>3d</fix>
		</trkpt>
		<trkpt lat="35.166119" lon="-106.451984">
			<ele>2090.93</ele>
			<time>2015-03-08T16:21:53Z</time>
			<fix>3d</fix>
		</trkpt>
		<trkpt lat="35.166119" lon="-106.451978">
			<ele>2091.03</ele>
			<time>2015-03-08T16:21:54Z</time>
			<fix>3d</fix>
		</trkpt>
		<trkpt lat="35.166120" lon="-106.451971">
			<ele>2091.03</ele>
			<time>2015-03-08T16:21:55Z</time>
			<fix>3d</fix>
		</trkpt>
		<trkpt lat="35.166119" lon="-106.451953">
			<ele>2091.23</ele>
			<time>2015-03-08T16:21:56Z</time>
			<fix>3d</fix>
		</trkpt>
		<trkpt lat="35.166117" lon="-106.451936">
			<ele>2091.64</ele>
			<time>2015-03-08T16:21:57Z</time>
			<fix>3d</fix>
		</trkpt>
		<trkpt lat="35.166114" lon="-106.451927">
			<ele>2091.64</ele>
			<time>2015-03-08T16:21:59Z</time>
			<fix>3d</fix>
		</trkpt>
		<trkpt lat="35.166111" lon="-106.451920">
			<ele>2092.05</ele>
			<time>2015-03-08T16:22:00Z</time>
			<fix>3d</fix>
		</trkpt>
		<trkpt lat="35.166108" lon="-106.451913">
			<ele>2092.36</ele>
			<time>2015-03-08T16:22:01Z</time>
			<fix>3d</fix>
		</trkpt>
		<trkpt lat="35.166106" lon="-106.451906">
			<ele>2092.66</ele>
			<time>2015-03-08T16:22:02Z</time>
			<fix>3d</fix>
		</trkpt>
		<trkpt lat="35.166103" lon="-106.451898">
			<ele>2092.86</ele>
			<time>2015-03-08T16:22:03Z</time>
			<fix>3d</fix>
		</trkpt>
		<trkpt lat="35.166100" lon="-106.451890">
			<ele>2092.87</ele>
			<time>2015-03-08T16:22:04Z</time>
			<fix>3d</fix>
		</trkpt>
		<trkpt lat="35.166098" lon="-106.451868">
			<ele>2092.87</ele>
			<time>2015-03-08T16:22:05Z</time>
			<fix>3d</fix>
		</trkpt>
		<trkpt lat="35.166098" lon="-106.451861">
			<ele>2092.87</ele>
			<time>2015-03-08T16:22:06Z</time>
			<fix>3d</fix>
		</trkpt>
		<trkpt lat="35.166098" lon="-106.451852">
			<ele>2092.77</ele>
			<time>2015-03-08T16:22:07Z</time>
			<fix>3d</fix>
		</trkpt>
		<trkpt lat="35.166100" lon="-106.451830">
			<ele>2092.87</ele>
			<time>2015-03-08T16:22:08Z</time>
			<fix>3d</fix>
		</trkpt>
		<trkpt lat="35.166102" lon="-106.451814">
			<ele>2092.77</ele>
			<time>2015-03-08T16:22:09Z</time>
			<fix>3d</fix>
		</trkpt>
		<trkpt lat="35.166103" lon="-106.451809">
			<ele>2092.88</ele>
			<time>2015-03-08T16:22:10Z</time>
			<fix>3d</fix>
		</trkpt>
		<trkpt lat="35.166107" lon="-106.451794">
			<ele>2092.88</ele>
			<time>2015-03-08T16:22:11Z</time>
			<fix>3d</fix>
		</trkpt>
		<trkpt lat="35.166113" lon="-106.451779">
			<ele>2092.78</ele>
			<time>2015-03-08T16:22:12Z</time>
			<fix>3d</fix>
		</trkpt>
		<trkpt lat="35.166114" lon="-106.451775">
			<ele>2092.78</ele>
			<time>2015-03-08T16:22:13Z</time>
			<fix>3d</fix>
		</trkpt>
		<trkpt lat="35.166126" lon="-106.451762">
			<ele>2092.78</ele>
			<time>2015-03-08T16:22:14Z</time>
			<fix>3d</fix>
		</trkpt>
		<trkpt lat="35.166131" lon="-106.451753">
			<ele>2092.78</ele>
			<time>2015-03-08T16:22:15Z</time>
			<fix>3d</fix>
		</trkpt>
		<trkpt lat="35.166141" lon="-106.451744">
			<ele>2092.79</ele>
			<time>2015-03-08T16:22:16Z</time>
			<fix>3d</fix>
		</trkpt>
		<trkpt lat="35.166147" lon="-106.451738">
			<ele>2092.89</ele>
			<time>2015-03-08T16:22:17Z</time>
			<fix>3d</fix>
		</trkpt>
		<trkpt lat="35.166154" lon="-106.451728">
			<ele>2092.89</ele>
			<time>2015-03-08T16:22:18Z</time>
			<fix>3d</fix>
		</trkpt>
		<trkpt lat="35.166158" lon="-106.451715">
			<ele>2092.89</ele>
			<time>2015-03-08T16:22:19Z</time>
			<fix>3d</fix>
		</trkpt>
		<trkpt lat="35.166160" lon="-106.451702">
			<ele>2092.90</ele>
			<time>2015-03-08T16:22:20Z</time>
			<fix>3d</fix>
		</trkpt>
		<trkpt lat="35.166159" lon="-106.451692">
			<ele>2093.00</ele>
			<time>2015-03-08T16:22:22Z</time>
			<fix>3d</fix>
		</trkpt>
		<trkpt lat="35.166147" lon="-106.451677">
			<ele>2093.62</ele>
			<time>2015-03-08T16:23:04Z</time>
			<fix>3d</fix>
		</trkpt>
		<trkpt lat="35.166146" lon="-106.451674">
			<ele>2093.62</ele>
			<time>2015-03-08T16:23:05Z</time>
			<fix>3d</fix>
		</trkpt>
		<trkpt lat="35.166145" lon="-106.451664">
			<ele>2093.62</ele>
			<time>2015-03-08T16:23:06Z</time>
			<fix>3d</fix>
		</trkpt>
		<trkpt lat="35.166144" lon="-106.451660">
			<ele>2093.63</ele>
			<time>2015-03-08T16:23:07Z</time>
			<fix>3d</fix>
		</trkpt>
		<trkpt lat="35.166142" lon="-106.451645">
			<ele>2093.63</ele>
			<time>2015-03-08T16:23:08Z</time>
			<fix>3d</fix>
		</trkpt>
		<trkpt lat="35.166139" lon="-106.451632">
			<ele>2093.63</ele>
			<time>2015-03-08T16:23:09Z</time>
			<fix>3d</fix>
		</trkpt>
		<trkpt lat="35.166133" lon="-106.451619">
			<ele>2093.63</ele>
			<time>2015-03-08T16:23:10Z</time>
			<fix>3d</fix>
		</trkpt>
		<trkpt lat="35.166131" lon="-106.451614">
			<ele>2093.64</ele>
			<time>2015-03-08T16:23:11Z</time>
			<fix>3d</fix>
		</trkpt>
		<trkpt lat="35.166125" lon="-106.451599">
			<ele>2093.64</ele>
			<time>2015-03-08T16:23:12Z</time>
			<fix>3d</fix>
		</trkpt>
		<trkpt lat="35.166123" lon="-106.451595">
			<ele>2093.64</ele>
			<time>2015-03-08T16:23:13Z</time>
			<fix>3d</fix>
		</trkpt>
		<trkpt lat="35.166117" lon="-106.451577">
			<ele>2093.64</ele>
			<time>2015-03-08T16:23:14Z</time>
			<fix>3d</fix>
		</trkpt>
		<trkpt lat="35.166115" lon="-106.451565">
			<ele>2093.64</ele>
			<time>2015-03-08T16:23:15Z</time>
			<fix>3d</fix>
		</trkpt>
		<trkpt lat="35.166114" lon="-106.451560">
			<ele>2093.64</ele>
			<time>2015-03-08T16:23:16Z</time>
			<fix>3d</fix>
		</trkpt>
		<trkpt lat="35.166113" lon="-106.451552">
			<ele>2093.55</ele>
			<time>2015-03-08T16:23:18Z</time>
			<fix>3d</fix>
		</trkpt>
		<trkpt lat="35.166112" lon="-106.451545">
			<ele>2093.45</ele>
			<time>2015-03-08T16:23:19Z</time>
			<fix>3d</fix>
		</trkpt>
		<trkpt lat="35.166109" lon="-106.451538">
			<ele>2093.35</ele>
			<time>2015-03-08T16:23:20Z</time>
			<fix>3d</fix>
		</trkpt>
		<trkpt lat="35.166104" lon="-106.451518">
			<ele>2093.35</ele>
			<time>2015-03-08T16:23:21Z</time>
			<fix>3d</fix>
		</trkpt>
		<trkpt lat="35.166103" lon="-106.451512">
			<ele>2093.05</ele>
			<time>2015-03-08T16:23:22Z</time>
			<fix>3d</fix>
		</trkpt>
		<trkpt lat="35.166102" lon="-106.451506">
			<ele>2093.05</ele>
			<time>2015-03-08T16:23:23Z</time>
			<fix>3d</fix>
		</trkpt>
		<trkpt lat="35.166095" lon="-106.451484">
			<ele>2092.95</ele>
			<time>2015-03-08T16:23:24Z</time>
			<fix>3d</fix>
		</trkpt>
		<trkpt lat="35.166093" lon="-106.451469">
			<ele>2092.96</ele>
			<time>2015-03-08T16:23:25Z</time>
			<fix>3d</fix>
		</trkpt>
		<trkpt lat="35.166089" lon="-106.451455">
			<ele>2092.96</ele>
			<time>2015-03-08T16:23:26Z</time>
			<fix>3d</fix>
		</trkpt>
		<trkpt lat="35.166088" lon="-106.451450">
			<ele>2092.96</ele>
			<time>2015-03-08T16:23:27Z</time>
			<fix>3d</fix>
		</trkpt>
		<trkpt lat="35.166089" lon="-106.451442">
			<ele>2092.96</ele>
			<time>2015-03-08T16:23:28Z</time>
			<fix>3d</fix>
		</trkpt>
		<trkpt lat="35.166089" lon="-106.451437">
			<ele>2092.97</ele>
			<time>2015-03-08T16:23:29Z</time>
			<fix>3d</fix>
		</trkpt>
		<trkpt lat="35.166099" lon="-106.451408">
			<ele>2092.87</ele>
			<time>2015-03-08T16:23:30Z</time>
			<fix>3d</fix>
		</trkpt>
		<trkpt lat="35.166101" lon="-106.451403">
			<ele>2092.97</ele>
			<time>2015-03-08T16:23:31Z</time>
			<fix>3d</fix>
		</trkpt>
		<trkpt lat="35.166111" lon="-106.451392">
			<ele>2092.98</ele>
			<time>2015-03-08T16:23:32Z</time>
			<fix>3d</fix>
		</trkpt>
		<trkpt lat="35.166119" lon="-106.451383">
			<ele>2093.08</ele>
			<time>2015-03-08T16:23:33Z</time>
			<fix>3d</fix>
		</trkpt>
		<trkpt lat="35.166123" lon="-106.451379">
			<ele>2093.28</ele>
			<time>2015-03-08T16:23:34Z</time>
			<fix>3d</fix>
		</trkpt>
		<trkpt lat="35.166126" lon="-106.451373">
			<ele>2093.89</ele>
			<time>2015-03-08T16:23:35Z</time>
			<fix>3d</fix>
		</trkpt>
		<trkpt lat="35.166128" lon="-106.451366">
			<ele>2094.40</ele>
			<time>2015-03-08T16:23:36Z</time>
			<fix>3d</fix>
		</trkpt>
		<trkpt lat="35.166130" lon="-106.451358">
			<ele>2094.51</ele>
			<time>2015-03-08T16:23:37Z</time>
			<fix>3d</fix>
		</trkpt>
		<trkpt lat="35.166132" lon="-106.451350">
			<ele>2094.51</ele>
			<time>2015-03-08T16:23:38Z</time>
			<fix>3d</fix>
		</trkpt>
		<trkpt lat="35.166137" lon="-106.451329">
			<ele>2094.61</ele>
			<time>2015-03-08T16:23:39Z</time>
			<fix>3d</fix>
		</trkpt>
		<trkpt lat="35.166139" lon="-106.451322">
			<ele>2094.82</ele>
			<time>2015-03-08T16:23:40Z</time>
			<fix>3d</fix>
		</trkpt>
		<trkpt lat="35.166147" lon="-106.451299">
			<ele>2095.43</ele>
			<time>2015-03-08T16:23:41Z</time>
			<fix>3d</fix>
		</trkpt>
		<trkpt lat="35.166147" lon="-106.451289">
			<ele>2095.84</ele>
			<time>2015-03-08T16:23:44Z</time>
			<fix>3d</fix>
		</trkpt>
		<trkpt lat="35.166151" lon="-106.451281">
			<ele>2095.84</ele>
			<time>2015-03-08T16:23:45Z</time>
			<fix>3d</fix>
		</trkpt>
		<trkpt lat="35.166160" lon="-106.451263">
			<ele>2095.84</ele>
			<time>2015-03-08T16:23:46Z</time>
			<fix>3d</fix>
		</trkpt>
		<trkpt lat="35.166164" lon="-106.451259">
			<ele>2095.85</ele>
			<time>2015-03-08T16:23:47Z</time>
			<fix>3d</fix>
		</trkpt>
		<trkpt lat="35.166169" lon="-106.451256">
			<ele>2095.95</ele>
			<time>2015-03-08T16:23:48Z</time>
			<fix>3d</fix>
		</trkpt>
		<trkpt lat="35.166175" lon="-106.451254">
			<ele>2095.95</ele>
			<time>2015-03-08T16:23:49Z</time>
			<fix>3d</fix>
		</trkpt>
		<trkpt lat="35.166189" lon="-106.451248">
			<ele>2096.06</ele>
			<time>2015-03-08T16:23:50Z</time>
			<fix>3d</fix>
		</trkpt>
		<trkpt lat="35.166193" lon="-106.451244">
			<ele>2096.37</ele>
			<time>2015-03-08T16:23:51Z</time>
			<fix>3d</fix>
		</trkpt>
		<trkpt lat="35.166197" lon="-106.451239">
			<ele>2096.88</ele>
			<time>2015-03-08T16:23:52Z</time>
			<fix>3d</fix>
		</trkpt>
		<trkpt lat="35.166211" lon="-106.451227">
			<ele>2097.29</ele>
			<time>2015-03-08T16:23:53Z</time>
			<fix>3d</fix>
		</trkpt>
		<trkpt lat="35.166220" lon="-106.451216">
			<ele>2097.49</ele>
			<time>2015-03-08T16:23:54Z</time>
			<fix>3d</fix>
		</trkpt>
		<trkpt lat="35.166223" lon="-106.451207">
			<ele>2097.50</ele>
			<time>2015-03-08T16:23:56Z</time>
			<fix>3d</fix>
		</trkpt>
		<trkpt lat="35.166228" lon="-106.451187">
			<ele>2097.50</ele>
			<time>2015-03-08T16:23:57Z</time>
			<fix>3d</fix>
		</trkpt>
		<trkpt lat="35.166230" lon="-106.451172">
			<ele>2097.51</ele>
			<time>2015-03-08T16:23:58Z</time>
			<fix>3d</fix>
		</trkpt>
		<trkpt lat="35.166231" lon="-106.451158">
			<ele>2097.61</ele>
			<time>2015-03-08T16:23:59Z</time>
			<fix>3d</fix>
		</trkpt>
		<trkpt lat="35.166236" lon="-106.451143">
			<ele>2097.72</ele>
			<time>2015-03-08T16:24:00Z</time>
			<fix>3d</fix>
		</trkpt>
		<trkpt lat="35.166236" lon="-106.451139">
			<ele>2097.73</ele>
			<time>2015-03-08T16:24:01Z</time>
			<fix>3d</fix>
		</trkpt>
		<trkpt lat="35.166238" lon="-106.451123">
			<ele>2097.83</ele>
			<time>2015-03-08T16:24:02Z</time>
			<fix>3d</fix>
		</trkpt>
		<trkpt lat="35.166239" lon="-106.451107">
			<ele>2098.04</ele>
			<time>2015-03-08T16:24:03Z</time>
			<fix>3d</fix>
		</trkpt>
		<trkpt lat="35.166240" lon="-106.451094">
			<ele>2098.96</ele>
			<time>2015-03-08T16:24:04Z</time>
			<fix>3d</fix>
		</trkpt>
		<trkpt lat="35.166242" lon="-106.451081">
			<ele>2099.17</ele>
			<time>2015-03-08T16:24:05Z</time>
			<fix>3d</fix>
		</trkpt>
		<trkpt lat="35.166243" lon="-106.451076">
			<ele>2099.28</ele>
			<time>2015-03-08T16:24:06Z</time>
			<fix>3d</fix>
		</trkpt>
		<trkpt lat="35.166245" lon="-106.451068">
			<ele>2099.29</ele>
			<time>2015-03-08T16:24:07Z</time>
			<fix>3d</fix>
		</trkpt>
		<trkpt lat="35.166247" lon="-106.451060">
			<ele>2099.39</ele>
			<time>2015-03-08T16:24:08Z</time>
			<fix>3d</fix>
		</trkpt>
		<trkpt lat="35.166250" lon="-106.451038">
			<ele>2099.60</ele>
			<time>2015-03-08T16:24:09Z</time>
			<fix>3d</fix>
		</trkpt>
		<trkpt lat="35.166251" lon="-106.451032">
			<ele>2099.71</ele>
			<time>2015-03-08T16:24:10Z</time>
			<fix>3d</fix>
		</trkpt>
		<trkpt lat="35.166252" lon="-106.451013">
			<ele>2099.62</ele>
			<time>2015-03-08T16:24:11Z</time>
			<fix>3d</fix>
		</trkpt>
		<trkpt lat="35.166251" lon="-106.450998">
			<ele>2099.62</ele>
			<time>2015-03-08T16:24:12Z</time>
			<fix>3d</fix>
		</trkpt>
		<trkpt lat="35.166250" lon="-106.450993">
			<ele>2099.63</ele>
			<time>2015-03-08T16:24:13Z</time>
			<fix>3d</fix>
		</trkpt>
		<trkpt lat="35.166250" lon="-106.450987">
			<ele>2099.74</ele>
			<time>2015-03-08T16:24:14Z</time>
			<fix>3d</fix>
		</trkpt>
		<trkpt lat="35.166250" lon="-106.450969">
			<ele>2099.75</ele>
			<time>2015-03-08T16:24:15Z</time>
			<fix>3d</fix>
		</trkpt>
		<trkpt lat="35.166253" lon="-106.450954">
			<ele>2099.75</ele>
			<time>2015-03-08T16:24:16Z</time>
			<fix>3d</fix>
		</trkpt>
		<trkpt lat="35.166257" lon="-106.450941">
			<ele>2099.76</ele>
			<time>2015-03-08T16:24:17Z</time>
			<fix>3d</fix>
		</trkpt>
		<trkpt lat="35.166258" lon="-106.450927">
			<ele>2099.87</ele>
			<time>2015-03-08T16:24:18Z</time>
			<fix>3d</fix>
		</trkpt>
		<trkpt lat="35.166252" lon="-106.450919">
			<ele>2100.11</ele>
			<time>2015-03-08T16:24:45Z</time>
			<fix>3d</fix>
		</trkpt>
		<trkpt lat="35.166251" lon="-106.450917">
			<ele>2100.13</ele>
			<time>2015-03-08T16:24:49Z</time>
			<fix>3d</fix>
		</trkpt>
		<trkpt lat="35.166274" lon="-106.450638">
			<ele>2100.70</ele>
			<time>2015-03-08T16:25:33Z</time>
			<fix>3d</fix>
		</trkpt>
		<trkpt lat="35.166279" lon="-106.450628">
			<ele>2101.11</ele>
			<time>2015-03-08T16:25:34Z</time>
			<fix>3d</fix>
		</trkpt>
		<trkpt lat="35.166280" lon="-106.450624">
			<ele>2101.20</ele>
			<time>2015-03-08T16:25:35Z</time>
			<fix>3d</fix>
		</trkpt>
		<trkpt lat="35.166279" lon="-106.450610">
			<ele>2101.30</ele>
			<time>2015-03-08T16:25:36Z</time>
			<fix>3d</fix>
		</trkpt>
		<trkpt lat="35.166274" lon="-106.450600">
			<ele>2101.40</ele>
			<time>2015-03-08T16:25:37Z</time>
			<fix>3d</fix>
		</trkpt>
		<trkpt lat="35.166265" lon="-106.450595">
			<ele>2101.70</ele>
			<time>2015-03-08T16:25:38Z</time>
			<fix>3d</fix>
		</trkpt>
		<trkpt lat="35.166258" lon="-106.450589">
			<ele>2101.90</ele>
			<time>2015-03-08T16:25:39Z</time>
			<fix>3d</fix>
		</trkpt>
		<trkpt lat="35.166250" lon="-106.450583">
			<ele>2102.00</ele>
			<time>2015-03-08T16:25:40Z</time>
			<fix>3d</fix>
		</trkpt>
		<trkpt lat="35.166247" lon="-106.450574">
			<ele>2102.30</ele>
			<time>2015-03-08T16:25:42Z</time>
			<fix>3d</fix>
		</trkpt>
		<trkpt lat="35.166243" lon="-106.450559">
			<ele>2102.40</ele>
			<time>2015-03-08T16:25:43Z</time>
			<fix>3d</fix>
		</trkpt>
		<trkpt lat="35.166242" lon="-106.450554">
			<ele>2102.39</ele>
			<time>2015-03-08T16:25:44Z</time>
			<fix>3d</fix>
		</trkpt>
		<trkpt lat="35.166242" lon="-106.450548">
			<ele>2102.49</ele>
			<time>2015-03-08T16:25:45Z</time>
			<fix>3d</fix>
		</trkpt>
		<trkpt lat="35.166240" lon="-106.450533">
			<ele>2102.48</ele>
			<time>2015-03-08T16:25:46Z</time>
			<fix>3d</fix>
		</trkpt>
		<trkpt lat="35.166240" lon="-106.450523">
			<ele>2102.58</ele>
			<time>2015-03-08T16:25:48Z</time>
			<fix>3d</fix>
		</trkpt>
		<trkpt lat="35.166240" lon="-106.450519">
			<ele>2102.78</ele>
			<time>2015-03-08T16:25:49Z</time>
			<fix>3d</fix>
		</trkpt>
		<trkpt lat="35.166243" lon="-106.450499">
			<ele>2102.88</ele>
			<time>2015-03-08T16:25:50Z</time>
			<fix>3d</fix>
		</trkpt>
		<trkpt lat="35.166242" lon="-106.450489">
			<ele>2103.18</ele>
			<time>2015-03-08T16:25:51Z</time>
			<fix>3d</fix>
		</trkpt>
		<trkpt lat="35.166242" lon="-106.450479">
			<ele>2103.27</ele>
			<time>2015-03-08T16:25:53Z</time>
			<fix>3d</fix>
		</trkpt>
		<trkpt lat="35.166245" lon="-106.450459">
			<ele>2103.37</ele>
			<time>2015-03-08T16:25:54Z</time>
			<fix>3d</fix>
		</trkpt>
		<trkpt lat="35.166245" lon="-106.450446">
			<ele>2103.37</ele>
			<time>2015-03-08T16:25:55Z</time>
			<fix>3d</fix>
		</trkpt>
		<trkpt lat="35.166245" lon="-106.450433">
			<ele>2103.47</ele>
			<time>2015-03-08T16:25:56Z</time>
			<fix>3d</fix>
		</trkpt>
		<trkpt lat="35.166245" lon="-106.450429">
			<ele>2103.57</ele>
			<time>2015-03-08T16:25:57Z</time>
			<fix>3d</fix>
		</trkpt>
		<trkpt lat="35.166240" lon="-106.450413">
			<ele>2103.87</ele>
			<time>2015-03-08T16:25:58Z</time>
			<fix>3d</fix>
		</trkpt>
		<trkpt lat="35.166237" lon="-106.450399">
			<ele>2104.38</ele>
			<time>2015-03-08T16:25:59Z</time>
			<fix>3d</fix>
		</trkpt>
		<trkpt lat="35.166234" lon="-106.450383">
			<ele>2104.48</ele>
			<time>2015-03-08T16:26:00Z</time>
			<fix>3d</fix>
		</trkpt>
		<trkpt lat="35.166230" lon="-106.450364">
			<ele>2104.58</ele>
			<time>2015-03-08T16:26:01Z</time>
			<fix>3d</fix>
		</trkpt>
		<trkpt lat="35.166231" lon="-106.450347">
			<ele>2104.98</ele>
			<time>2015-03-08T16:26:02Z</time>
			<fix>3d</fix>
		</trkpt>
		<trkpt lat="35.166228" lon="-106.450332">
			<ele>2105.18</ele>
			<time>2015-03-08T16:26:03Z</time>
			<fix>3d</fix>
		</trkpt>
		<trkpt lat="35.166225" lon="-106.450318">
			<ele>2105.28</ele>
			<time>2015-03-08T16:26:04Z</time>
			<fix>3d</fix>
		</trkpt>
		<trkpt lat="35.166222" lon="-106.450303">
			<ele>2105.38</ele>
			<time>2015-03-08T16:26:05Z</time>
			<fix>3d</fix>
		</trkpt>
		<trkpt lat="35.166218" lon="-106.450287">
			<ele>2105.48</ele>
			<time>2015-03-08T16:26:06Z</time>
			<fix>3d</fix>
		</trkpt>
		<trkpt lat="35.166214" lon="-106.450274">
			<ele>2105.68</ele>
			<time>2015-03-08T16:26:07Z</time>
			<fix>3d</fix>
		</trkpt>
		<trkpt lat="35.166208" lon="-106.450262">
			<ele>2105.67</ele>
			<time>2015-03-08T16:26:08Z</time>
			<fix>3d</fix>
		</trkpt>
		<trkpt lat="35.166201" lon="-106.450250">
			<ele>2105.67</ele>
			<time>2015-03-08T16:26:09Z</time>
			<fix>3d</fix>
		</trkpt>
		<trkpt lat="35.166189" lon="-106.450240">
			<ele>2105.77</ele>
			<time>2015-03-08T16:26:10Z</time>
			<fix>3d</fix>
		</trkpt>
		<trkpt lat="35.166180" lon="-106.450229">
			<ele>2105.87</ele>
			<time>2015-03-08T16:26:11Z</time>
			<fix>3d</fix>
		</trkpt>
		<trkpt lat="35.166175" lon="-106.450217">
			<ele>2105.97</ele>
			<time>2015-03-08T16:26:12Z</time>
			<fix>3d</fix>
		</trkpt>
		<trkpt lat="35.166171" lon="-106.450204">
			<ele>2106.06</ele>
			<time>2015-03-08T16:26:13Z</time>
			<fix>3d</fix>
		</trkpt>
		<trkpt lat="35.166166" lon="-106.450189">
			<ele>2106.27</ele>
			<time>2015-03-08T16:26:14Z</time>
			<fix>3d</fix>
		</trkpt>
		<trkpt lat="35.166162" lon="-106.450178">
			<ele>2106.67</ele>
			<time>2015-03-08T16:26:15Z</time>
			<fix>3d</fix>
		</trkpt>
		<trkpt lat="35.166155" lon="-106.450166">
			<ele>2106.67</ele>
			<time>2015-03-08T16:26:16Z</time>
			<fix>3d</fix>
		</trkpt>
		<trkpt lat="35.166153" lon="-106.450161">
			<ele>2106.66</ele>
			<time>2015-03-08T16:26:17Z</time>
			<fix>3d</fix>
		</trkpt>
		<trkpt lat="35.166145" lon="-106.450148">
			<ele>2106.66</ele>
			<time>2015-03-08T16:26:18Z</time>
			<fix>3d</fix>
		</trkpt>
		<trkpt lat="35.166136" lon="-106.450138">
			<ele>2106.55</ele>
			<time>2015-03-08T16:26:19Z</time>
			<fix>3d</fix>
		</trkpt>
		<trkpt lat="35.166128" lon="-106.450130">
			<ele>2106.65</ele>
			<time>2015-03-08T16:26:20Z</time>
			<fix>3d</fix>
		</trkpt>
		<trkpt lat="35.166120" lon="-106.450121">
			<ele>2106.65</ele>
			<time>2015-03-08T16:26:21Z</time>
			<fix>3d</fix>
		</trkpt>
		<trkpt lat="35.166118" lon="-106.450117">
			<ele>2106.75</ele>
			<time>2015-03-08T16:26:22Z</time>
			<fix>3d</fix>
		</trkpt>
		<trkpt lat="35.166110" lon="-106.450104">
			<ele>2106.75</ele>
			<time>2015-03-08T16:26:23Z</time>
			<fix>3d</fix>
		</trkpt>
		<trkpt lat="35.166103" lon="-106.450095">
			<ele>2106.85</ele>
			<time>2015-03-08T16:26:24Z</time>
			<fix>3d</fix>
		</trkpt>
		<trkpt lat="35.166100" lon="-106.450091">
			<ele>2106.94</ele>
			<time>2015-03-08T16:26:25Z</time>
			<fix>3d</fix>
		</trkpt>
		<trkpt lat="35.166097" lon="-106.450086">
			<ele>2107.56</ele>
			<time>2015-03-08T16:26:26Z</time>
			<fix>3d</fix>
		</trkpt>
		<trkpt lat="35.166085" lon="-106.450068">
			<ele>2107.35</ele>
			<time>2015-03-08T16:26:27Z</time>
			<fix>3d</fix>
		</trkpt>
		<trkpt lat="35.166074" lon="-106.450058">
			<ele>2107.45</ele>
			<time>2015-03-08T16:26:28Z</time>
			<fix>3d</fix>
		</trkpt>
		<trkpt lat="35.166068" lon="-106.450048">
			<ele>2107.44</ele>
			<time>2015-03-08T16:26:29Z</time>
			<fix>3d</fix>
		</trkpt>
		<trkpt lat="35.166064" lon="-106.450036">
			<ele>2107.44</ele>
			<time>2015-03-08T16:26:30Z</time>
			<fix>3d</fix>
		</trkpt>
		<trkpt lat="35.166060" lon="-106.450024">
			<ele>2107.44</ele>
			<time>2015-03-08T16:26:31Z</time>
			<fix>3d</fix>
		</trkpt>
		<trkpt lat="35.166054" lon="-106.450013">
			<ele>2107.44</ele>
			<time>2015-03-08T16:26:32Z</time>
			<fix>3d</fix>
		</trkpt>
		<trkpt lat="35.166047" lon="-106.450003">
			<ele>2107.44</ele>
			<time>2015-03-08T16:26:33Z</time>
			<fix>3d</fix>
		</trkpt>
		<trkpt lat="35.166043" lon="-106.449991">
			<ele>2107.43</ele>
			<time>2015-03-08T16:26:34Z</time>
			<fix>3d</fix>
		</trkpt>
		<trkpt lat="35.166036" lon="-106.449978">
			<ele>2107.43</ele>
			<time>2015-03-08T16:26:35Z</time>
			<fix>3d</fix>
		</trkpt>
		<trkpt lat="35.166031" lon="-106.449966">
			<ele>2107.43</ele>
			<time>2015-03-08T16:26:36Z</time>
			<fix>3d</fix>
		</trkpt>
		<trkpt lat="35.166024" lon="-106.449954">
			<ele>2107.43</ele>
			<time>2015-03-08T16:26:37Z</time>
			<fix>3d</fix>
		</trkpt>
		<trkpt lat="35.166018" lon="-106.449944">
			<ele>2107.42</ele>
			<time>2015-03-08T16:26:38Z</time>
			<fix>3d</fix>
		</trkpt>
		<trkpt lat="35.166012" lon="-106.449937">
			<ele>2107.42</ele>
			<time>2015-03-08T16:26:39Z</time>
			<fix>3d</fix>
		</trkpt>
		<trkpt lat="35.166009" lon="-106.449934">
			<ele>2107.52</ele>
			<time>2015-03-08T16:26:40Z</time>
			<fix>3d</fix>
		</trkpt>
		<trkpt lat="35.166001" lon="-106.449923">
			<ele>2107.83</ele>
			<time>2015-03-08T16:26:41Z</time>
			<fix>3d</fix>
		</trkpt>
		<trkpt lat="35.165998" lon="-106.449920">
			<ele>2107.83</ele>
			<time>2015-03-08T16:26:42Z</time>
			<fix>3d</fix>
		</trkpt>
		<trkpt lat="35.165994" lon="-106.449915">
			<ele>2107.83</ele>
			<time>2015-03-08T16:26:43Z</time>
			<fix>3d</fix>
		</trkpt>
		<trkpt lat="35.165983" lon="-106.449902">
			<ele>2107.82</ele>
			<time>2015-03-08T16:26:44Z</time>
			<fix>3d</fix>
		</trkpt>
		<trkpt lat="35.165978" lon="-106.449895">
			<ele>2107.93</ele>
			<time>2015-03-08T16:26:46Z</time>
			<fix>3d</fix>
		</trkpt>
		<trkpt lat="35.165964" lon="-106.449886">
			<ele>2107.92</ele>
			<time>2015-03-08T16:26:47Z</time>
			<fix>3d</fix>
		</trkpt>
		<trkpt lat="35.165954" lon="-106.449880">
			<ele>2107.92</ele>
			<time>2015-03-08T16:26:48Z</time>
			<fix>3d</fix>
		</trkpt>
		<trkpt lat="35.165949" lon="-106.449883">
			<ele>2108.03</ele>
			<time>2015-03-08T16:26:53Z</time>
			<fix>3d</fix>
		</trkpt>
		<trkpt lat="35.165944" lon="-106.449879">
			<ele>2108.03</ele>
			<time>2015-03-08T16:26:54Z</time>
			<fix>3d</fix>
		</trkpt>
		<trkpt lat="35.165940" lon="-106.449867">
			<ele>2107.92</ele>
			<time>2015-03-08T16:26:55Z</time>
			<fix>3d</fix>
		</trkpt>
		<trkpt lat="35.165936" lon="-106.449854">
			<ele>2107.92</ele>
			<time>2015-03-08T16:26:56Z</time>
			<fix>3d</fix>
		</trkpt>
		<trkpt lat="35.165935" lon="-106.449850">
			<ele>2107.92</ele>
			<time>2015-03-08T16:26:57Z</time>
			<fix>3d</fix>
		</trkpt>
		<trkpt lat="35.165928" lon="-106.449834">
			<ele>2107.82</ele>
			<time>2015-03-08T16:26:58Z</time>
			<fix>3d</fix>
		</trkpt>
		<trkpt lat="35.165922" lon="-106.449822">
			<ele>2107.72</ele>
			<time>2015-03-08T16:26:59Z</time>
			<fix>3d</fix>
		</trkpt>
		<trkpt lat="35.165917" lon="-106.449813">
			<ele>2107.62</ele>
			<time>2015-03-08T16:27:01Z</time>
			<fix>3d</fix>
		</trkpt>
		<trkpt lat="35.165907" lon="-106.449795">
			<ele>2107.62</ele>
			<time>2015-03-08T16:27:02Z</time>
			<fix>3d</fix>
		</trkpt>
		<trkpt lat="35.165904" lon="-106.449790">
			<ele>2107.62</ele>
			<time>2015-03-08T16:27:03Z</time>
			<fix>3d</fix>
		</trkpt>
		<trkpt lat="35.165899" lon="-106.449774">
			<ele>2107.62</ele>
			<time>2015-03-08T16:27:04Z</time>
			<fix>3d</fix>
		</trkpt>
		<trkpt lat="35.165899" lon="-106.449769">
			<ele>2107.62</ele>
			<time>2015-03-08T16:27:05Z</time>
			<fix>3d</fix>
		</trkpt>
		<trkpt lat="35.165896" lon="-106.449752">
			<ele>2107.62</ele>
			<time>2015-03-08T16:27:06Z</time>
			<fix>3d</fix>
		</trkpt>
		<trkpt lat="35.165900" lon="-106.449743">
			<ele>2108.75</ele>
			<time>2015-03-08T16:27:12Z</time>
			<fix>3d</fix>
		</trkpt>
		<trkpt lat="35.165901" lon="-106.449740">
			<ele>2108.96</ele>
			<time>2015-03-08T16:27:13Z</time>
			<fix>3d</fix>
		</trkpt>
		<trkpt lat="35.165905" lon="-106.449730">
			<ele>2108.96</ele>
			<time>2015-03-08T16:27:14Z</time>
			<fix>3d</fix>
		</trkpt>
		<trkpt lat="35.165907" lon="-106.449721">
			<ele>2109.06</ele>
			<time>2015-03-08T16:27:16Z</time>
			<fix>3d</fix>
		</trkpt>
		<trkpt lat="35.165911" lon="-106.449706">
			<ele>2109.16</ele>
			<time>2015-03-08T16:27:17Z</time>
			<fix>3d</fix>
		</trkpt>
		<trkpt lat="35.165913" lon="-106.449693">
			<ele>2109.27</ele>
			<time>2015-03-08T16:27:18Z</time>
			<fix>3d</fix>
		</trkpt>
		<trkpt lat="35.165909" lon="-106.449683">
			<ele>2109.68</ele>
			<time>2015-03-08T16:27:19Z</time>
			<fix>3d</fix>
		</trkpt>
		<trkpt lat="35.165901" lon="-106.449674">
			<ele>2109.78</ele>
			<time>2015-03-08T16:27:20Z</time>
			<fix>3d</fix>
		</trkpt>
		<trkpt lat="35.165893" lon="-106.449665">
			<ele>2109.98</ele>
			<time>2015-03-08T16:27:21Z</time>
			<fix>3d</fix>
		</trkpt>
		<trkpt lat="35.165885" lon="-106.449657">
			<ele>2110.29</ele>
			<time>2015-03-08T16:27:22Z</time>
			<fix>3d</fix>
		</trkpt>
		<trkpt lat="35.165878" lon="-106.449647">
			<ele>2110.29</ele>
			<time>2015-03-08T16:27:23Z</time>
			<fix>3d</fix>
		</trkpt>
		<trkpt lat="35.165876" lon="-106.449641">
			<ele>2110.70</ele>
			<time>2015-03-08T16:27:25Z</time>
			<fix>3d</fix>
		</trkpt>
		<trkpt lat="35.165867" lon="-106.449623">
			<ele>2110.80</ele>
			<time>2015-03-08T16:27:26Z</time>
			<fix>3d</fix>
		</trkpt>
		<trkpt lat="35.165861" lon="-106.449617">
			<ele>2111.11</ele>
			<time>2015-03-08T16:27:40Z</time>
			<fix>3d</fix>
		</trkpt>
		<trkpt lat="35.165857" lon="-106.449612">
			<ele>2111.21</ele>
			<time>2015-03-08T16:27:42Z</time>
			<fix>3d</fix>
		</trkpt>
		<trkpt lat="35.165849" lon="-106.449605">
			<ele>2111.21</ele>
			<time>2015-03-08T16:27:43Z</time>
			<fix>3d</fix>
		</trkpt>
		<trkpt lat="35.165842" lon="-106.449596">
			<ele>2111.21</ele>
			<time>2015-03-08T16:27:44Z</time>
			<fix>3d</fix>
		</trkpt>
		<trkpt lat="35.165839" lon="-106.449584">
			<ele>2111.21</ele>
			<time>2015-03-08T16:27:45Z</time>
			<fix>3d</fix>
		</trkpt>
		<trkpt lat="35.165843" lon="-106.449571">
			<ele>2111.21</ele>
			<time>2015-03-08T16:27:46Z</time>
			<fix>3d</fix>
		</trkpt>
		<trkpt lat="35.165846" lon="-106.449562">
			<ele>2111.32</ele>
			<time>2015-03-08T16:27:48Z</time>
			<fix>3d</fix>
		</trkpt>
		<trkpt lat="35.165851" lon="-106.449546">
			<ele>2111.73</ele>
			<time>2015-03-08T16:27:49Z</time>
			<fix>3d</fix>
		</trkpt>
		<trkpt lat="35.165853" lon="-106.449542">
			<ele>2112.44</ele>
			<time>2015-03-08T16:27:50Z</time>
			<fix>3d</fix>
		</trkpt>
		<trkpt lat="35.165856" lon="-106.449536">
			<ele>2112.65</ele>
			<time>2015-03-08T16:27:51Z</time>
			<fix>3d</fix>
		</trkpt>
		<trkpt lat="35.165860" lon="-106.449531">
			<ele>2112.65</ele>
			<time>2015-03-08T16:27:52Z</time>
			<fix>3d</fix>
		</trkpt>
		<trkpt lat="35.165865" lon="-106.449522">
			<ele>2112.75</ele>
			<time>2015-03-08T16:27:54Z</time>
			<fix>3d</fix>
		</trkpt>
		<trkpt lat="35.165880" lon="-106.449508">
			<ele>2113.16</ele>
			<time>2015-03-08T16:27:55Z</time>
			<fix>3d</fix>
		</trkpt>
		<trkpt lat="35.165890" lon="-106.449503">
			<ele>2113.36</ele>
			<time>2015-03-08T16:27:56Z</time>
			<fix>3d</fix>
		</trkpt>
		<trkpt lat="35.165899" lon="-106.449502">
			<ele>2113.47</ele>
			<time>2015-03-08T16:27:57Z</time>
			<fix>3d</fix>
		</trkpt>
		<trkpt lat="35.165910" lon="-106.449504">
			<ele>2113.47</ele>
			<time>2015-03-08T16:27:58Z</time>
			<fix>3d</fix>
		</trkpt>
		<trkpt lat="35.165916" lon="-106.449502">
			<ele>2113.67</ele>
			<time>2015-03-08T16:27:59Z</time>
			<fix>3d</fix>
		</trkpt>
		<trkpt lat="35.165928" lon="-106.449497">
			<ele>2113.67</ele>
			<time>2015-03-08T16:28:00Z</time>
			<fix>3d</fix>
		</trkpt>
		<trkpt lat="35.165936" lon="-106.449487">
			<ele>2113.67</ele>
			<time>2015-03-08T16:28:01Z</time>
			<fix>3d</fix>
		</trkpt>
		<trkpt lat="35.165939" lon="-106.449478">
			<ele>2113.77</ele>
			<time>2015-03-08T16:28:02Z</time>
			<fix>3d</fix>
		</trkpt>
		<trkpt lat="35.165940" lon="-106.449470">
			<ele>2114.59</ele>
			<time>2015-03-08T16:28:04Z</time>
			<fix>3d</fix>
		</trkpt>
		<trkpt lat="35.165944" lon="-106.449456">
			<ele>2115.00</ele>
			<time>2015-03-08T16:28:05Z</time>
			<fix>3d</fix>
		</trkpt>
		<trkpt lat="35.165944" lon="-106.449445">
			<ele>2115.10</ele>
			<time>2015-03-08T16:28:06Z</time>
			<fix>3d</fix>
		</trkpt>
		<trkpt lat="35.165942" lon="-106.449434">
			<ele>2115.10</ele>
			<time>2015-03-08T16:28:07Z</time>
			<fix>3d</fix>
		</trkpt>
		<trkpt lat="35.165939" lon="-106.449422">
			<ele>2115.21</ele>
			<time>2015-03-08T16:28:08Z</time>
			<fix>3d</fix>
		</trkpt>
		<trkpt lat="35.165937" lon="-106.449409">
			<ele>2115.72</ele>
			<time>2015-03-08T16:28:09Z</time>
			<fix>3d</fix>
		</trkpt>
		<trkpt lat="35.165937" lon="-106.449398">
			<ele>2116.13</ele>
			<time>2015-03-08T16:28:10Z</time>
			<fix>3d</fix>
		</trkpt>
		<trkpt lat="35.165937" lon="-106.449393">
			<ele>2116.13</ele>
			<time>2015-03-08T16:28:11Z</time>
			<fix>3d</fix>
		</trkpt>
		<trkpt lat="35.165936" lon="-106.449387">
			<ele>2116.13</ele>
			<time>2015-03-08T16:28:12Z</time>
			<fix>3d</fix>
		</trkpt>
		<trkpt lat="35.165935" lon="-106.449381">
			<ele>2116.23</ele>
			<time>2015-03-08T16:28:13Z</time>
			<fix>3d</fix>
		</trkpt>
		<trkpt lat="35.165934" lon="-106.449373">
			<ele>2116.64</ele>
			<time>2015-03-08T16:28:14Z</time>
			<fix>3d</fix>
		</trkpt>
		<trkpt lat="35.165931" lon="-106.449347">
			<ele>2116.74</ele>
			<time>2015-03-08T16:28:15Z</time>
			<fix>3d</fix>
		</trkpt>
		<trkpt lat="35.165930" lon="-106.449343">
			<ele>2116.84</ele>
			<time>2015-03-08T16:28:16Z</time>
			<fix>3d</fix>
		</trkpt>
		<trkpt lat="35.165928" lon="-106.449327">
			<ele>2117.05</ele>
			<time>2015-03-08T16:28:17Z</time>
			<fix>3d</fix>
		</trkpt>
		<trkpt lat="35.165927" lon="-106.449313">
			<ele>2117.25</ele>
			<time>2015-03-08T16:28:18Z</time>
			<fix>3d</fix>
		</trkpt>
		<trkpt lat="35.165925" lon="-106.449301">
			<ele>2117.25</ele>
			<time>2015-03-08T16:28:19Z</time>
			<fix>3d</fix>
		</trkpt>
		<trkpt lat="35.165922" lon="-106.449289">
			<ele>2117.36</ele>
			<time>2015-03-08T16:28:20Z</time>
			<fix>3d</fix>
		</trkpt>
		<trkpt lat="35.165921" lon="-106.449284">
			<ele>2117.36</ele>
			<time>2015-03-08T16:28:21Z</time>
			<fix>3d</fix>
		</trkpt>
		<trkpt lat="35.165920" lon="-106.449278">
			<ele>2117.56</ele>
			<time>2015-03-08T16:28:22Z</time>
			<fix>3d</fix>
		</trkpt>
		<trkpt lat="35.165919" lon="-106.449273">
			<ele>2117.67</ele>
			<time>2015-03-08T16:28:23Z</time>
			<fix>3d</fix>
		</trkpt>
		<trkpt lat="35.165916" lon="-106.449253">
			<ele>2117.77</ele>
			<time>2015-03-08T16:28:24Z</time>
			<fix>3d</fix>
		</trkpt>
		<trkpt lat="35.165916" lon="-106.449247">
			<ele>2117.87</ele>
			<time>2015-03-08T16:28:25Z</time>
			<fix>3d</fix>
		</trkpt>
		<trkpt lat="35.165916" lon="-106.449229">
			<ele>2118.28</ele>
			<time>2015-03-08T16:28:26Z</time>
			<fix>3d</fix>
		</trkpt>
		<trkpt lat="35.165917" lon="-106.449224">
			<ele>2118.69</ele>
			<time>2015-03-08T16:28:27Z</time>
			<fix>3d</fix>
		</trkpt>
		<trkpt lat="35.165917" lon="-106.449207">
			<ele>2118.80</ele>
			<time>2015-03-08T16:28:28Z</time>
			<fix>3d</fix>
		</trkpt>
		<trkpt lat="35.165917" lon="-106.449202">
			<ele>2118.90</ele>
			<time>2015-03-08T16:28:29Z</time>
			<fix>3d</fix>
		</trkpt>
		<trkpt lat="35.165917" lon="-106.449185">
			<ele>2119.62</ele>
			<time>2015-03-08T16:28:30Z</time>
			<fix>3d</fix>
		</trkpt>
		<trkpt lat="35.165917" lon="-106.449177">
			<ele>2119.72</ele>
			<time>2015-03-08T16:28:32Z</time>
			<fix>3d</fix>
		</trkpt>
		<trkpt lat="35.165915" lon="-106.449167">
			<ele>2120.34</ele>
			<time>2015-03-08T16:28:34Z</time>
			<fix>3d</fix>
		</trkpt>
		<trkpt lat="35.165912" lon="-106.449158">
			<ele>2120.44</ele>
			<time>2015-03-08T16:28:35Z</time>
			<fix>3d</fix>
		</trkpt>
		<trkpt lat="35.165909" lon="-106.449149">
			<ele>2120.44</ele>
			<time>2015-03-08T16:28:36Z</time>
			<fix>3d</fix>
		</trkpt>
		<trkpt lat="35.165905" lon="-106.449142">
			<ele>2120.34</ele>
			<time>2015-03-08T16:28:37Z</time>
			<fix>3d</fix>
		</trkpt>
		<trkpt lat="35.165894" lon="-106.449122">
			<ele>2120.24</ele>
			<time>2015-03-08T16:28:38Z</time>
			<fix>3d</fix>
		</trkpt>
		<trkpt lat="35.165891" lon="-106.449117">
			<ele>2119.93</ele>
			<time>2015-03-08T16:28:39Z</time>
			<fix>3d</fix>
		</trkpt>
		<trkpt lat="35.165881" lon="-106.449101">
			<ele>2119.83</ele>
			<time>2015-03-08T16:28:40Z</time>
			<fix>3d</fix>
		</trkpt>
		<trkpt lat="35.165875" lon="-106.449092">
			<ele>2119.52</ele>
			<time>2015-03-08T16:28:41Z</time>
			<fix>3d</fix>
		</trkpt>
		<trkpt lat="35.165866" lon="-106.449083">
			<ele>2119.12</ele>
			<time>2015-03-08T16:28:42Z</time>
			<fix>3d</fix>
		</trkpt>
		<trkpt lat="35.165863" lon="-106.449079">
			<ele>2119.12</ele>
			<time>2015-03-08T16:28:43Z</time>
			<fix>3d</fix>
		</trkpt>
		<trkpt lat="35.165860" lon="-106.449072">
			<ele>2119.12</ele>
			<time>2015-03-08T16:28:44Z</time>
			<fix>3d</fix>
		</trkpt>
		<trkpt lat="35.165852" lon="-106.449047">
			<ele>2119.12</ele>
			<time>2015-03-08T16:28:45Z</time>
			<fix>3d</fix>
		</trkpt>
		<trkpt lat="35.165851" lon="-106.449041">
			<ele>2119.12</ele>
			<time>2015-03-08T16:28:46Z</time>
			<fix>3d</fix>
		</trkpt>
		<trkpt lat="35.165853" lon="-106.449023">
			<ele>2119.12</ele>
			<time>2015-03-08T16:28:47Z</time>
			<fix>3d</fix>
		</trkpt>
		<trkpt lat="35.165860" lon="-106.449002">
			<ele>2119.33</ele>
			<time>2015-03-08T16:28:48Z</time>
			<fix>3d</fix>
		</trkpt>
		<trkpt lat="35.165862" lon="-106.448987">
			<ele>2119.33</ele>
			<time>2015-03-08T16:28:49Z</time>
			<fix>3d</fix>
		</trkpt>
		<trkpt lat="35.165863" lon="-106.448977">
			<ele>2119.43</ele>
			<time>2015-03-08T16:28:51Z</time>
			<fix>3d</fix>
		</trkpt>
		<trkpt lat="35.165867" lon="-106.448971">
			<ele>2119.43</ele>
			<time>2015-03-08T16:28:52Z</time>
			<fix>3d</fix>
		</trkpt>
		<trkpt lat="35.165876" lon="-106.448955">
			<ele>2119.85</ele>
			<time>2015-03-08T16:28:53Z</time>
			<fix>3d</fix>
		</trkpt>
		<trkpt lat="35.165879" lon="-106.448945">
			<ele>2120.56</ele>
			<time>2015-03-08T16:28:55Z</time>
			<fix>3d</fix>
		</trkpt>
		<trkpt lat="35.165883" lon="-106.448926">
			<ele>2120.67</ele>
			<time>2015-03-08T16:28:56Z</time>
			<fix>3d</fix>
		</trkpt>
		<trkpt lat="35.165881" lon="-106.448922">
			<ele>2120.67</ele>
			<time>2015-03-08T16:28:58Z</time>
			<fix>3d</fix>
		</trkpt>
		<trkpt lat="35.165879" lon="-106.448913">
			<ele>2120.67</ele>
			<time>2015-03-08T16:28:59Z</time>
			<fix>3d</fix>
		</trkpt>
		<trkpt lat="35.165876" lon="-106.448903">
			<ele>2120.78</ele>
			<time>2015-03-08T16:29:01Z</time>
			<fix>3d</fix>
		</trkpt>
		<trkpt lat="35.165867" lon="-106.448886">
			<ele>2120.78</ele>
			<time>2015-03-08T16:29:02Z</time>
			<fix>3d</fix>
		</trkpt>
		<trkpt lat="35.165858" lon="-106.448869">
			<ele>2120.78</ele>
			<time>2015-03-08T16:29:03Z</time>
			<fix>3d</fix>
		</trkpt>
		<trkpt lat="35.165853" lon="-106.448857">
			<ele>2120.88</ele>
			<time>2015-03-08T16:29:04Z</time>
			<fix>3d</fix>
		</trkpt>
		<trkpt lat="35.165850" lon="-106.448852">
			<ele>2120.99</ele>
			<time>2015-03-08T16:29:05Z</time>
			<fix>3d</fix>
		</trkpt>
		<trkpt lat="35.165846" lon="-106.448846">
			<ele>2121.07</ele>
			<time>2015-03-08T16:29:06Z</time>
			<fix>3d</fix>
		</trkpt>
		<trkpt lat="35.165836" lon="-106.448829">
			<ele>2121.17</ele>
			<time>2015-03-08T16:29:07Z</time>
			<fix>3d</fix>
		</trkpt>
		<trkpt lat="35.165832" lon="-106.448823">
			<ele>2121.18</ele>
			<time>2015-03-08T16:29:08Z</time>
			<fix>3d</fix>
		</trkpt>
		<trkpt lat="35.165820" lon="-106.448809">
			<ele>2121.38</ele>
			<time>2015-03-08T16:29:09Z</time>
			<fix>3d</fix>
		</trkpt>
		<trkpt lat="35.165816" lon="-106.448801">
			<ele>2121.90</ele>
			<time>2015-03-08T16:29:11Z</time>
			<fix>3d</fix>
		</trkpt>
		<trkpt lat="35.165803" lon="-106.448782">
			<ele>2122.41</ele>
			<time>2015-03-08T16:29:12Z</time>
			<fix>3d</fix>
		</trkpt>
		<trkpt lat="35.165799" lon="-106.448778">
			<ele>2122.41</ele>
			<time>2015-03-08T16:29:13Z</time>
			<fix>3d</fix>
		</trkpt>
		<trkpt lat="35.165784" lon="-106.448767">
			<ele>2122.52</ele>
			<time>2015-03-08T16:29:14Z</time>
			<fix>3d</fix>
		</trkpt>
		<trkpt lat="35.165776" lon="-106.448759">
			<ele>2122.62</ele>
			<time>2015-03-08T16:29:15Z</time>
			<fix>3d</fix>
		</trkpt>
		<trkpt lat="35.165773" lon="-106.448756">
			<ele>2122.63</ele>
			<time>2015-03-08T16:29:16Z</time>
			<fix>3d</fix>
		</trkpt>
		<trkpt lat="35.165765" lon="-106.448741">
			<ele>2122.83</ele>
			<time>2015-03-08T16:29:17Z</time>
			<fix>3d</fix>
		</trkpt>
		<trkpt lat="35.165761" lon="-106.448728">
			<ele>2123.14</ele>
			<time>2015-03-08T16:29:18Z</time>
			<fix>3d</fix>
		</trkpt>
		<trkpt lat="35.165756" lon="-106.448715">
			<ele>2123.35</ele>
			<time>2015-03-08T16:29:19Z</time>
			<fix>3d</fix>
		</trkpt>
		<trkpt lat="35.165753" lon="-106.448706">
			<ele>2123.46</ele>
			<time>2015-03-08T16:29:21Z</time>
			<fix>3d</fix>
		</trkpt>
		<trkpt lat="35.165751" lon="-106.448702">
			<ele>2123.56</ele>
			<time>2015-03-08T16:29:22Z</time>
			<fix>3d</fix>
		</trkpt>
		<trkpt lat="35.165745" lon="-106.448679">
			<ele>2123.77</ele>
			<time>2015-03-08T16:29:23Z</time>
			<fix>3d</fix>
		</trkpt>
		<trkpt lat="35.165740" lon="-106.448673">
			<ele>2123.87</ele>
			<time>2015-03-08T16:29:25Z</time>
			<fix>3d</fix>
		</trkpt>
		<trkpt lat="35.165737" lon="-106.448666">
			<ele>2123.88</ele>
			<time>2015-03-08T16:29:26Z</time>
			<fix>3d</fix>
		</trkpt>
		<trkpt lat="35.165734" lon="-106.448659">
			<ele>2123.88</ele>
			<time>2015-03-08T16:29:27Z</time>
			<fix>3d</fix>
		</trkpt>
		<trkpt lat="35.165725" lon="-106.448637">
			<ele>2123.88</ele>
			<time>2015-03-08T16:29:28Z</time>
			<fix>3d</fix>
		</trkpt>
		<trkpt lat="35.165721" lon="-106.448631">
			<ele>2124.40</ele>
			<time>2015-03-08T16:29:31Z</time>
			<fix>3d</fix>
		</trkpt>
		<trkpt lat="35.165707" lon="-106.448619">
			<ele>2124.71</ele>
			<time>2015-03-08T16:29:32Z</time>
			<fix>3d</fix>
		</trkpt>
		<trkpt lat="35.165699" lon="-106.448618">
			<ele>2124.83</ele>
			<time>2015-03-08T16:29:38Z</time>
			<fix>3d</fix>
		</trkpt>
		<trkpt lat="35.165691" lon="-106.448613">
			<ele>2125.06</ele>
			<time>2015-03-08T16:29:50Z</time>
			<fix>3d</fix>
		</trkpt>
		<trkpt lat="35.165685" lon="-106.448606">
			<ele>2125.21</ele>
			<time>2015-03-08T16:30:07Z</time>
			<fix>3d</fix>
		</trkpt>
		<trkpt lat="35.165679" lon="-106.448600">
			<ele>2125.26</ele>
			<time>2015-03-08T16:30:26Z</time>
			<fix>3d</fix>
		</trkpt>
		<trkpt lat="35.165477" lon="-106.448641">
			<ele>2125.13</ele>
			<time>2015-03-08T16:31:44Z</time>
			<fix>3d</fix>
		</trkpt>
		<trkpt lat="35.165489" lon="-106.448634">
			<ele>2125.03</ele>
			<time>2015-03-08T16:31:47Z</time>
			<fix>3d</fix>
		</trkpt>
		<trkpt lat="35.165492" lon="-106.448631">
			<ele>2125.03</ele>
			<time>2015-03-08T16:31:48Z</time>
			<fix>3d</fix>
		</trkpt>
		<trkpt lat="35.165511" lon="-106.448620">
			<ele>2125.13</ele>
			<time>2015-03-08T16:31:49Z</time>
			<fix>3d</fix>
		</trkpt>
		<trkpt lat="35.165556" lon="-106.448585">
			<ele>2125.03</ele>
			<time>2015-03-08T16:31:51Z</time>
			<fix>3d</fix>
		</trkpt>
		<trkpt lat="35.165556" lon="-106.448568">
			<ele>2125.03</ele>
			<time>2015-03-08T16:31:52Z</time>
			<fix>3d</fix>
		</trkpt>
		<trkpt lat="35.165559" lon="-106.448553">
			<ele>2125.03</ele>
			<time>2015-03-08T16:31:53Z</time>
			<fix>3d</fix>
		</trkpt>
		<trkpt lat="35.165562" lon="-106.448538">
			<ele>2125.14</ele>
			<time>2015-03-08T16:31:54Z</time>
			<fix>3d</fix>
		</trkpt>
		<trkpt lat="35.165562" lon="-106.448522">
			<ele>2125.04</ele>
			<time>2015-03-08T16:31:55Z</time>
			<fix>3d</fix>
		</trkpt>
		<trkpt lat="35.165561" lon="-106.448508">
			<ele>2125.14</ele>
			<time>2015-03-08T16:31:56Z</time>
			<fix>3d</fix>
		</trkpt>
		<trkpt lat="35.165560" lon="-106.448496">
			<ele>2125.14</ele>
			<time>2015-03-08T16:31:57Z</time>
			<fix>3d</fix>
		</trkpt>
		<trkpt lat="35.165559" lon="-106.448491">
			<ele>2125.14</ele>
			<time>2015-03-08T16:31:58Z</time>
			<fix>3d</fix>
		</trkpt>
		<trkpt lat="35.165557" lon="-106.448473">
			<ele>2125.35</ele>
			<time>2015-03-08T16:31:59Z</time>
			<fix>3d</fix>
		</trkpt>
		<trkpt lat="35.165556" lon="-106.448467">
			<ele>2125.86</ele>
			<time>2015-03-08T16:32:00Z</time>
			<fix>3d</fix>
		</trkpt>
		<trkpt lat="35.165551" lon="-106.448451">
			<ele>2125.97</ele>
			<time>2015-03-08T16:32:01Z</time>
			<fix>3d</fix>
		</trkpt>
		<trkpt lat="35.165546" lon="-106.448436">
			<ele>2126.07</ele>
			<time>2015-03-08T16:32:02Z</time>
			<fix>3d</fix>
		</trkpt>
		<trkpt lat="35.165542" lon="-106.448424">
			<ele>2126.07</ele>
			<time>2015-03-08T16:32:03Z</time>
			<fix>3d</fix>
		</trkpt>
		<trkpt lat="35.165540" lon="-106.448419">
			<ele>2126.18</ele>
			<time>2015-03-08T16:32:04Z</time>
			<fix>3d</fix>
		</trkpt>
		<trkpt lat="35.165536" lon="-106.448403">
			<ele>2126.18</ele>
			<time>2015-03-08T16:32:05Z</time>
			<fix>3d</fix>
		</trkpt>
		<trkpt lat="35.165535" lon="-106.448397">
			<ele>2126.18</ele>
			<time>2015-03-08T16:32:06Z</time>
			<fix>3d</fix>
		</trkpt>
		<trkpt lat="35.165533" lon="-106.448370">
			<ele>2126.49</ele>
			<time>2015-03-08T16:32:07Z</time>
			<fix>3d</fix>
		</trkpt>
		<trkpt lat="35.165533" lon="-106.448360">
			<ele>2126.59</ele>
			<time>2015-03-08T16:32:08Z</time>
			<fix>3d</fix>
		</trkpt>
		<trkpt lat="35.165533" lon="-106.448348">
			<ele>2126.60</ele>
			<time>2015-03-08T16:32:09Z</time>
			<fix>3d</fix>
		</trkpt>
		<trkpt lat="35.165534" lon="-106.448329">
			<ele>2126.70</ele>
			<time>2015-03-08T16:32:10Z</time>
			<fix>3d</fix>
		</trkpt>
		<trkpt lat="35.165536" lon="-106.448319">
			<ele>2126.91</ele>
			<time>2015-03-08T16:32:11Z</time>
			<fix>3d</fix>
		</trkpt>
		<trkpt lat="35.165536" lon="-106.448307">
			<ele>2127.22</ele>
			<time>2015-03-08T16:32:12Z</time>
			<fix>3d</fix>
		</trkpt>
		<trkpt lat="35.165535" lon="-106.448294">
			<ele>2127.01</ele>
			<time>2015-03-08T16:32:13Z</time>
			<fix>3d</fix>
		</trkpt>
		<trkpt lat="35.165535" lon="-106.448279">
			<ele>2127.53</ele>
			<time>2015-03-08T16:32:14Z</time>
			<fix>3d</fix>
		</trkpt>
		<trkpt lat="35.165534" lon="-106.448264">
			<ele>2127.74</ele>
			<time>2015-03-08T16:32:15Z</time>
			<fix>3d</fix>
		</trkpt>
		<trkpt lat="35.165532" lon="-106.448246">
			<ele>2127.84</ele>
			<time>2015-03-08T16:32:16Z</time>
			<fix>3d</fix>
		</trkpt>
		<trkpt lat="35.165528" lon="-106.448232">
			<ele>2127.84</ele>
			<time>2015-03-08T16:32:17Z</time>
			<fix>3d</fix>
		</trkpt>
		<trkpt lat="35.165523" lon="-106.448220">
			<ele>2127.85</ele>
			<time>2015-03-08T16:32:18Z</time>
			<fix>3d</fix>
		</trkpt>
		<trkpt lat="35.165522" lon="-106.448216">
			<ele>2127.95</ele>
			<time>2015-03-08T16:32:19Z</time>
			<fix>3d</fix>
		</trkpt>
		<trkpt lat="35.165515" lon="-106.448199">
			<ele>2127.95</ele>
			<time>2015-03-08T16:32:20Z</time>
			<fix>3d</fix>
		</trkpt>
		<trkpt lat="35.165514" lon="-106.448193">
			<ele>2127.96</ele>
			<time>2015-03-08T16:32:21Z</time>
			<fix>3d</fix>
		</trkpt>
		<trkpt lat="35.165512" lon="-106.448186">
			<ele>2128.16</ele>
			<time>2015-03-08T16:32:22Z</time>
			<fix>3d</fix>
		</trkpt>
		<trkpt lat="35.165511" lon="-106.448182">
			<ele>2128.37</ele>
			<time>2015-03-08T16:32:23Z</time>
			<fix>3d</fix>
		</trkpt>
		<trkpt lat="35.165510" lon="-106.448174">
			<ele>2128.78</ele>
			<time>2015-03-08T16:32:24Z</time>
			<fix>3d</fix>
		</trkpt>
		<trkpt lat="35.165509" lon="-106.448167">
			<ele>2128.99</ele>
			<time>2015-03-08T16:32:25Z</time>
			<fix>3d</fix>
		</trkpt>
		<trkpt lat="35.165511" lon="-106.448151">
			<ele>2129.00</ele>
			<time>2015-03-08T16:32:26Z</time>
			<fix>3d</fix>
		</trkpt>
		<trkpt lat="35.165513" lon="-106.448147">
			<ele>2129.20</ele>
			<time>2015-03-08T16:32:27Z</time>
			<fix>3d</fix>
		</trkpt>
		<trkpt lat="35.165519" lon="-106.448135">
			<ele>2129.21</ele>
			<time>2015-03-08T16:32:28Z</time>
			<fix>3d</fix>
		</trkpt>
		<trkpt lat="35.165526" lon="-106.448131">
			<ele>2129.31</ele>
			<time>2015-03-08T16:32:29Z</time>
			<fix>3d</fix>
		</trkpt>
		<trkpt lat="35.165529" lon="-106.448133">
			<ele>2129.32</ele>
			<time>2015-03-08T16:32:31Z</time>
			<fix>3d</fix>
		</trkpt>
		<trkpt lat="35.165533" lon="-106.448140">
			<ele>2129.32</ele>
			<time>2015-03-08T16:32:32Z</time>
			<fix>3d</fix>
		</trkpt>
		<trkpt lat="35.165539" lon="-106.448145">
			<ele>2129.43</ele>
			<time>2015-03-08T16:32:33Z</time>
			<fix>3d</fix>
		</trkpt>
		<trkpt lat="35.165545" lon="-106.448152">
			<ele>2129.43</ele>
			<time>2015-03-08T16:32:34Z</time>
			<fix>3d</fix>
		</trkpt>
		<trkpt lat="35.165552" lon="-106.448166">
			<ele>2129.44</ele>
			<time>2015-03-08T16:32:35Z</time>
			<fix>3d</fix>
		</trkpt>
		<trkpt lat="35.165555" lon="-106.448170">
			<ele>2129.64</ele>
			<time>2015-03-08T16:32:36Z</time>
			<fix>3d</fix>
		</trkpt>
		<trkpt lat="35.165561" lon="-106.448174">
			<ele>2129.75</ele>
			<time>2015-03-08T16:32:37Z</time>
			<fix>3d</fix>
		</trkpt>
		<trkpt lat="35.165574" lon="-106.448180">
			<ele>2129.75</ele>
			<time>2015-03-08T16:32:38Z</time>
			<fix>3d</fix>
		</trkpt>
		<trkpt lat="35.165584" lon="-106.448175">
			<ele>2129.76</ele>
			<time>2015-03-08T16:32:39Z</time>
			<fix>3d</fix>
		</trkpt>
		<trkpt lat="35.165592" lon="-106.448166">
			<ele>2129.76</ele>
			<time>2015-03-08T16:32:40Z</time>
			<fix>3d</fix>
		</trkpt>
		<trkpt lat="35.165599" lon="-106.448156">
			<ele>2129.77</ele>
			<time>2015-03-08T16:32:41Z</time>
			<fix>3d</fix>
		</trkpt>
		<trkpt lat="35.165602" lon="-106.448147">
			<ele>2129.86</ele>
			<time>2015-03-08T16:32:42Z</time>
			<fix>3d</fix>
		</trkpt>
		<trkpt lat="35.165607" lon="-106.448138">
			<ele>2130.17</ele>
			<time>2015-03-08T16:32:43Z</time>
			<fix>3d</fix>
		</trkpt>
		<trkpt lat="35.165612" lon="-106.448127">
			<ele>2130.48</ele>
			<time>2015-03-08T16:32:44Z</time>
			<fix>3d</fix>
		</trkpt>
		<trkpt lat="35.165613" lon="-106.448115">
			<ele>2130.58</ele>
			<time>2015-03-08T16:32:45Z</time>
			<fix>3d</fix>
		</trkpt>
		<trkpt lat="35.165613" lon="-106.448110">
			<ele>2130.69</ele>
			<time>2015-03-08T16:32:46Z</time>
			<fix>3d</fix>
		</trkpt>
		<trkpt lat="35.165612" lon="-106.448091">
			<ele>2131.00</ele>
			<time>2015-03-08T16:32:47Z</time>
			<fix>3d</fix>
		</trkpt>
		<trkpt lat="35.165610" lon="-106.448078">
			<ele>2131.11</ele>
			<time>2015-03-08T16:32:48Z</time>
			<fix>3d</fix>
		</trkpt>
		<trkpt lat="35.165608" lon="-106.448065">
			<ele>2131.21</ele>
			<time>2015-03-08T16:32:49Z</time>
			<fix>3d</fix>
		</trkpt>
		<trkpt lat="35.165605" lon="-106.448053">
			<ele>2131.22</ele>
			<time>2015-03-08T16:32:50Z</time>
			<fix>3d</fix>
		</trkpt>
		<trkpt lat="35.165604" lon="-106.448048">
			<ele>2131.32</ele>
			<time>2015-03-08T16:32:51Z</time>
			<fix>3d</fix>
		</trkpt>
		<trkpt lat="35.165603" lon="-106.448033">
			<ele>2131.64</ele>
			<time>2015-03-08T16:32:52Z</time>
			<fix>3d</fix>
		</trkpt>
		<trkpt lat="35.165601" lon="-106.448029">
			<ele>2132.05</ele>
			<time>2015-03-08T16:32:53Z</time>
			<fix>3d</fix>
		</trkpt>
		<trkpt lat="35.165601" lon="-106.448011">
			<ele>2132.05</ele>
			<time>2015-03-08T16:32:54Z</time>
			<fix>3d</fix>
		</trkpt>
		<trkpt lat="35.165600" lon="-106.447999">
			<ele>2132.06</ele>
			<time>2015-03-08T16:32:55Z</time>
			<fix>3d</fix>
		</trkpt>
		<trkpt lat="35.165597" lon="-106.447987">
			<ele>2132.06</ele>
			<time>2015-03-08T16:32:56Z</time>
			<fix>3d</fix>
		</trkpt>
		<trkpt lat="35.165596" lon="-106.447983">
			<ele>2132.17</ele>
			<time>2015-03-08T16:32:57Z</time>
			<fix>3d</fix>
		</trkpt>
		<trkpt lat="35.165599" lon="-106.447965">
			<ele>2132.17</ele>
			<time>2015-03-08T16:32:58Z</time>
			<fix>3d</fix>
		</trkpt>
		<trkpt lat="35.165604" lon="-106.447954">
			<ele>2132.18</ele>
			<time>2015-03-08T16:32:59Z</time>
			<fix>3d</fix>
		</trkpt>
		<trkpt lat="35.165607" lon="-106.447950">
			<ele>2132.18</ele>
			<time>2015-03-08T16:33:00Z</time>
			<fix>3d</fix>
		</trkpt>
		<trkpt lat="35.165617" lon="-106.447937">
			<ele>2132.39</ele>
			<time>2015-03-08T16:33:01Z</time>
			<fix>3d</fix>
		</trkpt>
		<trkpt lat="35.165630" lon="-106.447926">
			<ele>2132.91</ele>
			<time>2015-03-08T16:33:02Z</time>
			<fix>3d</fix>
		</trkpt>
		<trkpt lat="35.165631" lon="-106.447922">
			<ele>2133.32</ele>
			<time>2015-03-08T16:33:03Z</time>
			<fix>3d</fix>
		</trkpt>
		<trkpt lat="35.165637" lon="-106.447906">
			<ele>2133.43</ele>
			<time>2015-03-08T16:33:04Z</time>
			<fix>3d</fix>
		</trkpt>
		<trkpt lat="35.165639" lon="-106.447900">
			<ele>2133.43</ele>
			<time>2015-03-08T16:33:05Z</time>
			<fix>3d</fix>
		</trkpt>
		<trkpt lat="35.165640" lon="-106.447893">
			<ele>2133.43</ele>
			<time>2015-03-08T16:33:06Z</time>
			<fix>3d</fix>
		</trkpt>
		<trkpt lat="35.165641" lon="-106.447883">
			<ele>2133.44</ele>
			<time>2015-03-08T16:33:07Z</time>
			<fix>3d</fix>
		</trkpt>
		<trkpt lat="35.165641" lon="-106.447860">
			<ele>2133.44</ele>
			<time>2015-03-08T16:33:08Z</time>
			<fix>3d</fix>
		</trkpt>
		<trkpt lat="35.165640" lon="-106.447856">
			<ele>2133.55</ele>
			<time>2015-03-08T16:33:09Z</time>
			<fix>3d</fix>
		</trkpt>
		<trkpt lat="35.165639" lon="-106.447838">
			<ele>2133.55</ele>
			<time>2015-03-08T16:33:10Z</time>
			<fix>3d</fix>
		</trkpt>
		<trkpt lat="35.165639" lon="-106.447823">
			<ele>2133.66</ele>
			<time>2015-03-08T16:33:11Z</time>
			<fix>3d</fix>
		</trkpt>
		<trkpt lat="35.165638" lon="-106.447818">
			<ele>2133.67</ele>
			<time>2015-03-08T16:33:12Z</time>
			<fix>3d</fix>
		</trkpt>
		<trkpt lat="35.165637" lon="-106.447811">
			<ele>2133.77</ele>
			<time>2015-03-08T16:33:13Z</time>
			<fix>3d</fix>
		</trkpt>
		<trkpt lat="35.165636" lon="-106.447804">
			<ele>2133.88</ele>
			<time>2015-03-08T16:33:14Z</time>
			<fix>3d</fix>
		</trkpt>
		<trkpt lat="35.165635" lon="-106.447799">
			<ele>2134.50</ele>
			<time>2015-03-08T16:33:15Z</time>
			<fix>3d</fix>
		</trkpt>
		<trkpt lat="35.165632" lon="-106.447790">
			<ele>2134.61</ele>
			<time>2015-03-08T16:33:16Z</time>
			<fix>3d</fix>
		</trkpt>
		<trkpt lat="35.165631" lon="-106.447784">
			<ele>2134.71</ele>
			<time>2015-03-08T16:33:17Z</time>
			<fix>3d</fix>
		</trkpt>
		<trkpt lat="35.165629" lon="-106.447773">
			<ele>2134.82</ele>
			<time>2015-03-08T16:33:18Z</time>
			<fix>3d</fix>
		</trkpt>
		<trkpt lat="35.165628" lon="-106.447761">
			<ele>2135.03</ele>
			<time>2015-03-08T16:33:19Z</time>
			<fix>3d</fix>
		</trkpt>
		<trkpt lat="35.165627" lon="-106.447749">
			<ele>2135.04</ele>
			<time>2015-03-08T16:33:20Z</time>
			<fix>3d</fix>
		</trkpt>
		<trkpt lat="35.165625" lon="-106.447719">
			<ele>2135.04</ele>
			<time>2015-03-08T16:33:21Z</time>
			<fix>3d</fix>
		</trkpt>
		<trkpt lat="35.165622" lon="-106.447699">
			<ele>2135.05</ele>
			<time>2015-03-08T16:33:22Z</time>
			<fix>3d</fix>
		</trkpt>
		<trkpt lat="35.165620" lon="-106.447692">
			<ele>2135.16</ele>
			<time>2015-03-08T16:33:23Z</time>
			<fix>3d</fix>
		</trkpt>
		<trkpt lat="35.165612" lon="-106.447665">
			<ele>2135.16</ele>
			<time>2015-03-08T16:33:24Z</time>
			<fix>3d</fix>
		</trkpt>
		<trkpt lat="35.165612" lon="-106.447663">
			<ele>2135.37</ele>
			<time>2015-03-08T16:33:25Z</time>
			<fix>3d</fix>
		</trkpt>
		<trkpt lat="35.165610" lon="-106.447649">
			<ele>2135.48</ele>
			<time>2015-03-08T16:33:26Z</time>
			<fix>3d</fix>
		</trkpt>
		<trkpt lat="35.165610" lon="-106.447644">
			<ele>2135.79</ele>
			<time>2015-03-08T16:33:27Z</time>
			<fix>3d</fix>
		</trkpt>
		<trkpt lat="35.165610" lon="-106.447637">
			<ele>2136.10</ele>
			<time>2015-03-08T16:33:28Z</time>
			<fix>3d</fix>
		</trkpt>
		<trkpt lat="35.165610" lon="-106.447628">
			<ele>2136.31</ele>
			<time>2015-03-08T16:33:29Z</time>
			<fix>3d</fix>
		</trkpt>
		<trkpt lat="35.165612" lon="-106.447617">
			<ele>2136.32</ele>
			<time>2015-03-08T16:33:30Z</time>
			<fix>3d</fix>
		</trkpt>
		<trkpt lat="35.165615" lon="-106.447606">
			<ele>2136.32</ele>
			<time>2015-03-08T16:33:31Z</time>
			<fix>3d</fix>
		</trkpt>
		<trkpt lat="35.165623" lon="-106.447577">
			<ele>2136.33</ele>
			<time>2015-03-08T16:33:32Z</time>
			<fix>3d</fix>
		</trkpt>
		<trkpt lat="35.165625" lon="-106.447566">
			<ele>2136.44</ele>
			<time>2015-03-08T16:33:34Z</time>
			<fix>3d</fix>
		</trkpt>
		<trkpt lat="35.165627" lon="-106.447556">
			<ele>2136.45</ele>
			<time>2015-03-08T16:33:35Z</time>
			<fix>3d</fix>
		</trkpt>
		<trkpt lat="35.165629" lon="-106.447546">
			<ele>2136.45</ele>
			<time>2015-03-08T16:33:36Z</time>
			<fix>3d</fix>
		</trkpt>
		<trkpt lat="35.165638" lon="-106.447514">
			<ele>2136.56</ele>
			<time>2015-03-08T16:33:37Z</time>
			<fix>3d</fix>
		</trkpt>
		<trkpt lat="35.165638" lon="-106.447508">
			<ele>2136.47</ele>
			<time>2015-03-08T16:33:38Z</time>
			<fix>3d</fix>
		</trkpt>
		<trkpt lat="35.165640" lon="-106.447485">
			<ele>2136.57</ele>
			<time>2015-03-08T16:33:39Z</time>
			<fix>3d</fix>
		</trkpt>
		<trkpt lat="35.165640" lon="-106.447471">
			<ele>2136.68</ele>
			<time>2015-03-08T16:33:40Z</time>
			<fix>3d</fix>
		</trkpt>
		<trkpt lat="35.165641" lon="-106.447466">
			<ele>2136.87</ele>
			<time>2015-03-08T16:33:42Z</time>
			<fix>3d</fix>
		</trkpt>
		<trkpt lat="35.165644" lon="-106.447449">
			<ele>2136.88</ele>
			<time>2015-03-08T16:33:43Z</time>
			<fix>3d</fix>
		</trkpt>
		<trkpt lat="35.165646" lon="-106.447433">
			<ele>2136.88</ele>
			<time>2015-03-08T16:33:44Z</time>
			<fix>3d</fix>
		</trkpt>
		<trkpt lat="35.165649" lon="-106.447416">
			<ele>2137.20</ele>
			<time>2015-03-08T16:33:45Z</time>
			<fix>3d</fix>
		</trkpt>
		<trkpt lat="35.165649" lon="-106.447411">
			<ele>2137.31</ele>
			<time>2015-03-08T16:33:46Z</time>
			<fix>3d</fix>
		</trkpt>
		<trkpt lat="35.165651" lon="-106.447404">
			<ele>2137.52</ele>
			<time>2015-03-08T16:33:47Z</time>
			<fix>3d</fix>
		</trkpt>
		<trkpt lat="35.165657" lon="-106.447382">
			<ele>2137.52</ele>
			<time>2015-03-08T16:33:48Z</time>
			<fix>3d</fix>
		</trkpt>
		<trkpt lat="35.165657" lon="-106.447377">
			<ele>2137.94</ele>
			<time>2015-03-08T16:33:49Z</time>
			<fix>3d</fix>
		</trkpt>
		<trkpt lat="35.165659" lon="-106.447369">
			<ele>2138.05</ele>
			<time>2015-03-08T16:33:50Z</time>
			<fix>3d</fix>
		</trkpt>
		<trkpt lat="35.165661" lon="-106.447359">
			<ele>2138.06</ele>
			<time>2015-03-08T16:33:51Z</time>
			<fix>3d</fix>
		</trkpt>
		<trkpt lat="35.165663" lon="-106.447348">
			<ele>2138.16</ele>
			<time>2015-03-08T16:33:52Z</time>
			<fix>3d</fix>
		</trkpt>
		<trkpt lat="35.165669" lon="-106.447319">
			<ele>2138.68</ele>
			<time>2015-03-08T16:33:53Z</time>
			<fix>3d</fix>
		</trkpt>
		<trkpt lat="35.165673" lon="-106.447299">
			<ele>2139.10</ele>
			<time>2015-03-08T16:33:54Z</time>
			<fix>3d</fix>
		</trkpt>
		<trkpt lat="35.165678" lon="-106.447282">
			<ele>2139.31</ele>
			<time>2015-03-08T16:33:55Z</time>
			<fix>3d</fix>
		</trkpt>
		<trkpt lat="35.165682" lon="-106.447266">
			<ele>2139.42</ele>
			<time>2015-03-08T16:33:56Z</time>
			<fix>3d</fix>
		</trkpt>
		<trkpt lat="35.165688" lon="-106.447247">
			<ele>2139.53</ele>
			<time>2015-03-08T16:33:57Z</time>
			<fix>3d</fix>
		</trkpt>
		<trkpt lat="35.165687" lon="-106.447243">
			<ele>2139.53</ele>
			<time>2015-03-08T16:33:58Z</time>
			<fix>3d</fix>
		</trkpt>
		<trkpt lat="35.165690" lon="-106.447225">
			<ele>2139.64</ele>
			<time>2015-03-08T16:33:59Z</time>
			<fix>3d</fix>
		</trkpt>
		<trkpt lat="35.165695" lon="-106.447208">
			<ele>2139.65</ele>
			<time>2015-03-08T16:34:00Z</time>
			<fix>3d</fix>
		</trkpt>
		<trkpt lat="35.165697" lon="-106.447195">
			<ele>2139.66</ele>
			<time>2015-03-08T16:34:01Z</time>
			<fix>3d</fix>
		</trkpt>
		<trkpt lat="35.165700" lon="-106.447181">
			<ele>2139.77</ele>
			<time>2015-03-08T16:34:02Z</time>
			<fix>3d</fix>
		</trkpt>
		<trkpt lat="35.165702" lon="-106.447171">
			<ele>2140.09</ele>
			<time>2015-03-08T16:34:04Z</time>
			<fix>3d</fix>
		</trkpt>
		<trkpt lat="35.165702" lon="-106.447166">
			<ele>2140.30</ele>
			<time>2015-03-08T16:34:05Z</time>
			<fix>3d</fix>
		</trkpt>
		<trkpt lat="35.165706" lon="-106.447157">
			<ele>2140.41</ele>
			<time>2015-03-08T16:34:06Z</time>
			<fix>3d</fix>
		</trkpt>
		<trkpt lat="35.165709" lon="-106.447149">
			<ele>2140.41</ele>
			<time>2015-03-08T16:34:07Z</time>
			<fix>3d</fix>
		</trkpt>
		<trkpt lat="35.165712" lon="-106.447140">
			<ele>2140.42</ele>
			<time>2015-03-08T16:34:08Z</time>
			<fix>3d</fix>
		</trkpt>
		<trkpt lat="35.165720" lon="-106.447118">
			<ele>2140.43</ele>
			<time>2015-03-08T16:34:09Z</time>
			<fix>3d</fix>
		</trkpt>
		<trkpt lat="35.165728" lon="-106.447098">
			<ele>2140.43</ele>
			<time>2015-03-08T16:34:10Z</time>
			<fix>3d</fix>
		</trkpt>
		<trkpt lat="35.165729" lon="-106.447093">
			<ele>2140.44</ele>
			<time>2015-03-08T16:34:11Z</time>
			<fix>3d</fix>
		</trkpt>
		<trkpt lat="35.165730" lon="-106.447085">
			<ele>2140.55</ele>
			<time>2015-03-08T16:34:12Z</time>
			<fix>3d</fix>
		</trkpt>
		<trkpt lat="35.165733" lon="-106.447076">
			<ele>2140.56</ele>
			<time>2015-03-08T16:34:13Z</time>
			<fix>3d</fix>
		</trkpt>
		<trkpt lat="35.165741" lon="-106.447053">
			<ele>2140.67</ele>
			<time>2015-03-08T16:34:14Z</time>
			<fix>3d</fix>
		</trkpt>
		<trkpt lat="35.165741" lon="-106.447048">
			<ele>2140.68</ele>
			<time>2015-03-08T16:34:15Z</time>
			<fix>3d</fix>
		</trkpt>
		<trkpt lat="35.165744" lon="-106.447039">
			<ele>2140.79</ele>
			<time>2015-03-08T16:34:16Z</time>
			<fix>3d</fix>
		</trkpt>
		<trkpt lat="35.165752" lon="-106.447016">
			<ele>2140.90</ele>
			<time>2015-03-08T16:34:17Z</time>
			<fix>3d</fix>
		</trkpt>
		<trkpt lat="35.165756" lon="-106.447000">
			<ele>2141.21</ele>
			<time>2015-03-08T16:34:18Z</time>
			<fix>3d</fix>
		</trkpt>
		<trkpt lat="35.165759" lon="-106.446985">
			<ele>2141.42</ele>
			<time>2015-03-08T16:34:19Z</time>
			<fix>3d</fix>
		</trkpt>
		<trkpt lat="35.165759" lon="-106.446980">
			<ele>2141.43</ele>
			<time>2015-03-08T16:34:20Z</time>
			<fix>3d</fix>
		</trkpt>
		<trkpt lat="35.165761" lon="-106.446973">
			<ele>2141.44</ele>
			<time>2015-03-08T16:34:21Z</time>
			<fix>3d</fix>
		</trkpt>
		<trkpt lat="35.165764" lon="-106.446965">
			<ele>2141.55</ele>
			<time>2015-03-08T16:34:22Z</time>
			<fix>3d</fix>
		</trkpt>
		<trkpt lat="35.165764" lon="-106.446960">
			<ele>2141.76</ele>
			<time>2015-03-08T16:34:23Z</time>
			<fix>3d</fix>
		</trkpt>
		<trkpt lat="35.165768" lon="-106.446950">
			<ele>2142.08</ele>
			<time>2015-03-08T16:34:24Z</time>
			<fix>3d</fix>
		</trkpt>
		<trkpt lat="35.165772" lon="-106.446940">
			<ele>2142.09</ele>
			<time>2015-03-08T16:34:25Z</time>
			<fix>3d</fix>
		</trkpt>
		<trkpt lat="35.165776" lon="-106.446929">
			<ele>2142.09</ele>
			<time>2015-03-08T16:34:26Z</time>
			<fix>3d</fix>
		</trkpt>
		<trkpt lat="35.165783" lon="-106.446902">
			<ele>2142.20</ele>
			<time>2015-03-08T16:34:27Z</time>
			<fix>3d</fix>
		</trkpt>
		<trkpt lat="35.165784" lon="-106.446894">
			<ele>2142.21</ele>
			<time>2015-03-08T16:34:28Z</time>
			<fix>3d</fix>
		</trkpt>
		<trkpt lat="35.165786" lon="-106.446886">
			<ele>2142.43</ele>
			<time>2015-03-08T16:34:29Z</time>
			<fix>3d</fix>
		</trkpt>
		<trkpt lat="35.165787" lon="-106.446877">
			<ele>2142.74</ele>
			<time>2015-03-08T16:34:30Z</time>
			<fix>3d</fix>
		</trkpt>
		<trkpt lat="35.165790" lon="-106.446867">
			<ele>2143.26</ele>
			<time>2015-03-08T16:34:31Z</time>
			<fix>3d</fix>
		</trkpt>
		<trkpt lat="35.165790" lon="-106.446862">
			<ele>2143.07</ele>
			<time>2015-03-08T16:34:32Z</time>
			<fix>3d</fix>
		</trkpt>
		<trkpt lat="35.165793" lon="-106.446852">
			<ele>2143.07</ele>
			<time>2015-03-08T16:34:33Z</time>
			<fix>3d</fix>
		</trkpt>
		<trkpt lat="35.165796" lon="-106.446841">
			<ele>2143.29</ele>
			<time>2015-03-08T16:34:34Z</time>
			<fix>3d</fix>
		</trkpt>
		<trkpt lat="35.165800" lon="-106.446831">
			<ele>2143.91</ele>
			<time>2015-03-08T16:34:35Z</time>
			<fix>3d</fix>
		</trkpt>
		<trkpt lat="35.165800" lon="-106.446822">
			<ele>2144.23</ele>
			<time>2015-03-08T16:34:37Z</time>
			<fix>3d</fix>
		</trkpt>
		<trkpt lat="35.165805" lon="-106.446809">
			<ele>2144.35</ele>
			<time>2015-03-08T16:34:38Z</time>
			<fix>3d</fix>
		</trkpt>
		<trkpt lat="35.165815" lon="-106.446779">
			<ele>2144.46</ele>
			<time>2015-03-08T16:34:39Z</time>
			<fix>3d</fix>
		</trkpt>
		<trkpt lat="35.165817" lon="-106.446771">
			<ele>2144.47</ele>
			<time>2015-03-08T16:34:40Z</time>
			<fix>3d</fix>
		</trkpt>
		<trkpt lat="35.165824" lon="-106.446748">
			<ele>2144.47</ele>
			<time>2015-03-08T16:34:41Z</time>
			<fix>3d</fix>
		</trkpt>
		<trkpt lat="35.165832" lon="-106.446729">
			<ele>2144.71</ele>
			<time>2015-03-08T16:34:42Z</time>
			<fix>3d</fix>
		</trkpt>
		<trkpt lat="35.165837" lon="-106.446715">
			<ele>2144.72</ele>
			<time>2015-03-08T16:34:43Z</time>
			<fix>3d</fix>
		</trkpt>
		<trkpt lat="35.165839" lon="-106.446702">
			<ele>2144.83</ele>
			<time>2015-03-08T16:34:44Z</time>
			<fix>3d</fix>
		</trkpt>
		<trkpt lat="35.165840" lon="-106.446697">
			<ele>2144.84</ele>
			<time>2015-03-08T16:34:45Z</time>
			<fix>3d</fix>
		</trkpt>
		<trkpt lat="35.165842" lon="-106.446689">
			<ele>2144.96</ele>
			<time>2015-03-08T16:34:46Z</time>
			<fix>3d</fix>
		</trkpt>
		<trkpt lat="35.165861" lon="-106.446660">
			<ele>2144.97</ele>
			<time>2015-03-08T16:34:47Z</time>
			<fix>3d</fix>
		</trkpt>
		<trkpt lat="35.165869" lon="-106.446645">
			<ele>2145.38</ele>
			<time>2015-03-08T16:34:48Z</time>
			<fix>3d</fix>
		</trkpt>
		<trkpt lat="35.165880" lon="-106.446630">
			<ele>2145.29</ele>
			<time>2015-03-08T16:34:49Z</time>
			<fix>3d</fix>
		</trkpt>
		<trkpt lat="35.165894" lon="-106.446614">
			<ele>2145.40</ele>
			<time>2015-03-08T16:34:50Z</time>
			<fix>3d</fix>
		</trkpt>
		<trkpt lat="35.165897" lon="-106.446602">
			<ele>2145.41</ele>
			<time>2015-03-08T16:34:51Z</time>
			<fix>3d</fix>
		</trkpt>
		<trkpt lat="35.165902" lon="-106.446588">
			<ele>2145.42</ele>
			<time>2015-03-08T16:34:52Z</time>
			<fix>3d</fix>
		</trkpt>
		<trkpt lat="35.165906" lon="-106.446574">
			<ele>2145.53</ele>
			<time>2015-03-08T16:34:53Z</time>
			<fix>3d</fix>
		</trkpt>
		<trkpt lat="35.165911" lon="-106.446563">
			<ele>2145.54</ele>
			<time>2015-03-08T16:34:54Z</time>
			<fix>3d</fix>
		</trkpt>
		<trkpt lat="35.165923" lon="-106.446553">
			<ele>2145.54</ele>
			<time>2015-03-08T16:34:55Z</time>
			<fix>3d</fix>
		</trkpt>
		<trkpt lat="35.165925" lon="-106.446549">
			<ele>2145.55</ele>
			<time>2015-03-08T16:34:56Z</time>
			<fix>3d</fix>
		</trkpt>
		<trkpt lat="35.165933" lon="-106.446537">
			<ele>2145.66</ele>
			<time>2015-03-08T16:34:57Z</time>
			<fix>3d</fix>
		</trkpt>
		<trkpt lat="35.165933" lon="-106.446534">
			<ele>2145.88</ele>
			<time>2015-03-08T16:34:58Z</time>
			<fix>3d</fix>
		</trkpt>
		<trkpt lat="35.165944" lon="-106.446520">
			<ele>2146.09</ele>
			<time>2015-03-08T16:34:59Z</time>
			<fix>3d</fix>
		</trkpt>
		<trkpt lat="35.165959" lon="-106.446508">
			<ele>2146.10</ele>
			<time>2015-03-08T16:35:00Z</time>
			<fix>3d</fix>
		</trkpt>
		<trkpt lat="35.165970" lon="-106.446497">
			<ele>2146.21</ele>
			<time>2015-03-08T16:35:01Z</time>
			<fix>3d</fix>
		</trkpt>
		<trkpt lat="35.165980" lon="-106.446486">
			<ele>2146.73</ele>
			<time>2015-03-08T16:35:02Z</time>
			<fix>3d</fix>
		</trkpt>
		<trkpt lat="35.165987" lon="-106.446479">
			<ele>2147.04</ele>
			<time>2015-03-08T16:35:03Z</time>
			<fix>3d</fix>
		</trkpt>
		<trkpt lat="35.165996" lon="-106.446469">
			<ele>2147.05</ele>
			<time>2015-03-08T16:35:04Z</time>
			<fix>3d</fix>
		</trkpt>
		<trkpt lat="35.166011" lon="-106.446459">
			<ele>2147.16</ele>
			<time>2015-03-08T16:35:05Z</time>
			<fix>3d</fix>
		</trkpt>
		<trkpt lat="35.166016" lon="-106.446448">
			<ele>2147.27</ele>
			<time>2015-03-08T16:35:06Z</time>
			<fix>3d</fix>
		</trkpt>
		<trkpt lat="35.166021" lon="-106.446437">
			<ele>2147.38</ele>
			<time>2015-03-08T16:35:07Z</time>
			<fix>3d</fix>
		</trkpt>
		<trkpt lat="35.166024" lon="-106.446432">
			<ele>2147.49</ele>
			<time>2015-03-08T16:35:08Z</time>
			<fix>3d</fix>
		</trkpt>
		<trkpt lat="35.166032" lon="-106.446416">
			<ele>2147.91</ele>
			<time>2015-03-08T16:35:09Z</time>
			<fix>3d</fix>
		</trkpt>
		<trkpt lat="35.166040" lon="-106.446403">
			<ele>2148.53</ele>
			<time>2015-03-08T16:35:10Z</time>
			<fix>3d</fix>
		</trkpt>
		<trkpt lat="35.166042" lon="-106.446398">
			<ele>2148.75</ele>
			<time>2015-03-08T16:35:11Z</time>
			<fix>3d</fix>
		</trkpt>
		<trkpt lat="35.166046" lon="-106.446393">
			<ele>2148.75</ele>
			<time>2015-03-08T16:35:12Z</time>
			<fix>3d</fix>
		</trkpt>
		<trkpt lat="35.166051" lon="-106.446386">
			<ele>2148.76</ele>
			<time>2015-03-08T16:35:13Z</time>
			<fix>3d</fix>
		</trkpt>
		<trkpt lat="35.166057" lon="-106.446379">
			<ele>2148.87</ele>
			<time>2015-03-08T16:35:14Z</time>
			<fix>3d</fix>
		</trkpt>
		<trkpt lat="35.166070" lon="-106.446362">
			<ele>2149.19</ele>
			<time>2015-03-08T16:35:15Z</time>
			<fix>3d</fix>
		</trkpt>
		<trkpt lat="35.166080" lon="-106.446355">
			<ele>2149.09</ele>
			<time>2015-03-08T16:35:16Z</time>
			<fix>3d</fix>
		</trkpt>
		<trkpt lat="35.166089" lon="-106.446347">
			<ele>2149.10</ele>
			<time>2015-03-08T16:35:17Z</time>
			<fix>3d</fix>
		</trkpt>
		<trkpt lat="35.166092" lon="-106.446342">
			<ele>2149.32</ele>
			<time>2015-03-08T16:35:19Z</time>
			<fix>3d</fix>
		</trkpt>
		<trkpt lat="35.166104" lon="-106.446317">
			<ele>2149.79</ele>
			<time>2015-03-08T16:35:27Z</time>
			<fix>3d</fix>
		</trkpt>
		<trkpt lat="35.166101" lon="-106.446307">
			<ele>2150.06</ele>
			<time>2015-03-08T16:35:38Z</time>
			<fix>3d</fix>
		</trkpt>
		<trkpt lat="35.166099" lon="-106.446297">
			<ele>2150.33</ele>
			<time>2015-03-08T16:35:48Z</time>
			<fix>3d</fix>
		</trkpt>
		<trkpt lat="35.166098" lon="-106.446287">
			<ele>2150.39</ele>
			<time>2015-03-08T16:35:59Z</time>
			<fix>3d</fix>
		</trkpt>
		<trkpt lat="35.166099" lon="-106.446277">
			<ele>2150.46</ele>
			<time>2015-03-08T16:36:11Z</time>
			<fix>3d</fix>
		</trkpt>
		<trkpt lat="35.166101" lon="-106.446267">
			<ele>2150.64</ele>
			<time>2015-03-08T16:36:26Z</time>
			<fix>3d</fix>
		</trkpt>
		<trkpt lat="35.166104" lon="-106.446257">
			<ele>2150.96</ele>
			<time>2015-03-08T16:36:45Z</time>
			<fix>3d</fix>
		</trkpt>
		<trkpt lat="35.166120" lon="-106.446220">
			<ele>2151.10</ele>
			<time>2015-03-08T16:36:52Z</time>
			<fix>3d</fix>
		</trkpt>
		<trkpt lat="35.166123" lon="-106.446213">
			<ele>2151.10</ele>
			<time>2015-03-08T16:36:53Z</time>
			<fix>3d</fix>
		</trkpt>
		<trkpt lat="35.166126" lon="-106.446205">
			<ele>2151.10</ele>
			<time>2015-03-08T16:36:54Z</time>
			<fix>3d</fix>
		</trkpt>
		<trkpt lat="35.166134" lon="-106.446179">
			<ele>2151.10</ele>
			<time>2015-03-08T16:36:55Z</time>
			<fix>3d</fix>
		</trkpt>
		<trkpt lat="35.166135" lon="-106.446167">
			<ele>2151.01</ele>
			<time>2015-03-08T16:36:56Z</time>
			<fix>3d</fix>
		</trkpt>
		<trkpt lat="35.166138" lon="-106.446152">
			<ele>2150.80</ele>
			<time>2015-03-08T16:36:57Z</time>
			<fix>3d</fix>
		</trkpt>
		<trkpt lat="35.166140" lon="-106.446141">
			<ele>2150.91</ele>
			<time>2015-03-08T16:36:58Z</time>
			<fix>3d</fix>
		</trkpt>
		<trkpt lat="35.166142" lon="-106.446136">
			<ele>2150.91</ele>
			<time>2015-03-08T16:36:59Z</time>
			<fix>3d</fix>
		</trkpt>
		<trkpt lat="35.166151" lon="-106.446122">
			<ele>2150.92</ele>
			<time>2015-03-08T16:37:00Z</time>
			<fix>3d</fix>
		</trkpt>
		<trkpt lat="35.166153" lon="-106.446117">
			<ele>2150.92</ele>
			<time>2015-03-08T16:37:01Z</time>
			<fix>3d</fix>
		</trkpt>
		<trkpt lat="35.166156" lon="-106.446111">
			<ele>2151.02</ele>
			<time>2015-03-08T16:37:02Z</time>
			<fix>3d</fix>
		</trkpt>
		<trkpt lat="35.166158" lon="-106.446104">
			<ele>2151.44</ele>
			<time>2015-03-08T16:37:03Z</time>
			<fix>3d</fix>
		</trkpt>
		<trkpt lat="35.166160" lon="-106.446097">
			<ele>2151.65</ele>
			<time>2015-03-08T16:37:04Z</time>
			<fix>3d</fix>
		</trkpt>
		<trkpt lat="35.166168" lon="-106.446078">
			<ele>2151.85</ele>
			<time>2015-03-08T16:37:05Z</time>
			<fix>3d</fix>
		</trkpt>
		<trkpt lat="35.166171" lon="-106.446073">
			<ele>2151.76</ele>
			<time>2015-03-08T16:37:06Z</time>
			<fix>3d</fix>
		</trkpt>
		<trkpt lat="35.166175" lon="-106.446067">
			<ele>2151.86</ele>
			<time>2015-03-08T16:37:08Z</time>
			<fix>3d</fix>
		</trkpt>
		<trkpt lat="35.166195" lon="-106.446051">
			<ele>2151.97</ele>
			<time>2015-03-08T16:37:09Z</time>
			<fix>3d</fix>
		</trkpt>
		<trkpt lat="35.166202" lon="-106.446042">
			<ele>2151.97</ele>
			<time>2015-03-08T16:37:10Z</time>
			<fix>3d</fix>
		</trkpt>
		<trkpt lat="35.166211" lon="-106.446033">
			<ele>2151.98</ele>
			<time>2015-03-08T16:37:11Z</time>
			<fix>3d</fix>
		</trkpt>
		<trkpt lat="35.166223" lon="-106.446021">
			<ele>2151.98</ele>
			<time>2015-03-08T16:37:12Z</time>
			<fix>3d</fix>
		</trkpt>
		<trkpt lat="35.166227" lon="-106.446007">
			<ele>2151.99</ele>
			<time>2015-03-08T16:37:13Z</time>
			<fix>3d</fix>
		</trkpt>
		<trkpt lat="35.166231" lon="-106.445993">
			<ele>2152.09</ele>
			<time>2015-03-08T16:37:14Z</time>
			<fix>3d</fix>
		</trkpt>
		<trkpt lat="35.166231" lon="-106.445981">
			<ele>2152.10</ele>
			<time>2015-03-08T16:37:15Z</time>
			<fix>3d</fix>
		</trkpt>
		<trkpt lat="35.166232" lon="-106.445967">
			<ele>2152.20</ele>
			<time>2015-03-08T16:37:16Z</time>
			<fix>3d</fix>
		</trkpt>
		<trkpt lat="35.166232" lon="-106.445962">
			<ele>2153.03</ele>
			<time>2015-03-08T16:37:18Z</time>
			<fix>3d</fix>
		</trkpt>
		<trkpt lat="35.166238" lon="-106.445952">
			<ele>2153.03</ele>
			<time>2015-03-08T16:37:19Z</time>
			<fix>3d</fix>
		</trkpt>
		<trkpt lat="35.166241" lon="-106.445948">
			<ele>2153.04</ele>
			<time>2015-03-08T16:37:20Z</time>
			<fix>3d</fix>
		</trkpt>
		<trkpt lat="35.166245" lon="-106.445940">
			<ele>2153.15</ele>
			<time>2015-03-08T16:37:22Z</time>
			<fix>3d</fix>
		</trkpt>
		<trkpt lat="35.166259" lon="-106.445922">
			<ele>2153.15</ele>
			<time>2015-03-08T16:37:23Z</time>
			<fix>3d</fix>
		</trkpt>
		<trkpt lat="35.166262" lon="-106.445917">
			<ele>2153.46</ele>
			<time>2015-03-08T16:37:24Z</time>
			<fix>3d</fix>
		</trkpt>
		<trkpt lat="35.166266" lon="-106.445910">
			<ele>2153.67</ele>
			<time>2015-03-08T16:37:25Z</time>
			<fix>3d</fix>
		</trkpt>
		<trkpt lat="35.166267" lon="-106.445905">
			<ele>2154.09</ele>
			<time>2015-03-08T16:37:26Z</time>
			<fix>3d</fix>
		</trkpt>
		<trkpt lat="35.166272" lon="-106.445898">
			<ele>2153.99</ele>
			<time>2015-03-08T16:37:27Z</time>
			<fix>3d</fix>
		</trkpt>
		<trkpt lat="35.166287" lon="-106.445879">
			<ele>2153.99</ele>
			<time>2015-03-08T16:37:28Z</time>
			<fix>3d</fix>
		</trkpt>
		<trkpt lat="35.166289" lon="-106.445873">
			<ele>2154.00</ele>
			<time>2015-03-08T16:37:29Z</time>
			<fix>3d</fix>
		</trkpt>
		<trkpt lat="35.166291" lon="-106.445866">
			<ele>2154.00</ele>
			<time>2015-03-08T16:37:30Z</time>
			<fix>3d</fix>
		</trkpt>
		<trkpt lat="35.166289" lon="-106.445841">
			<ele>2154.01</ele>
			<time>2015-03-08T16:37:31Z</time>
			<fix>3d</fix>
		</trkpt>
		<trkpt lat="35.166284" lon="-106.445829">
			<ele>2153.91</ele>
			<time>2015-03-08T16:37:32Z</time>
			<fix>3d</fix>
		</trkpt>
		<trkpt lat="35.166283" lon="-106.445816">
			<ele>2153.92</ele>
			<time>2015-03-08T16:37:33Z</time>
			<fix>3d</fix>
		</trkpt>
		<trkpt lat="35.166284" lon="-106.445802">
			<ele>2153.92</ele>
			<time>2015-03-08T16:37:34Z</time>
			<fix>3d</fix>
		</trkpt>
		<trkpt lat="35.166286" lon="-106.445783">
			<ele>2154.03</ele>
			<time>2015-03-08T16:37:35Z</time>
			<fix>3d</fix>
		</trkpt>
		<trkpt lat="35.166286" lon="-106.445773">
			<ele>2154.03</ele>
			<time>2015-03-08T16:37:36Z</time>
			<fix>3d</fix>
		</trkpt>
		<trkpt lat="35.166285" lon="-106.445760">
			<ele>2154.04</ele>
			<time>2015-03-08T16:37:37Z</time>
			<fix>3d</fix>
		</trkpt>
		<trkpt lat="35.166285" lon="-106.445755">
			<ele>2154.04</ele>
			<time>2015-03-08T16:37:38Z</time>
			<fix>3d</fix>
		</trkpt>
		<trkpt lat="35.166286" lon="-106.445748">
			<ele>2154.15</ele>
			<time>2015-03-08T16:37:39Z</time>
			<fix>3d</fix>
		</trkpt>
		<trkpt lat="35.166285" lon="-106.445743">
			<ele>2154.26</ele>
			<time>2015-03-08T16:37:40Z</time>
			<fix>3d</fix>
		</trkpt>
		<trkpt lat="35.166284" lon="-106.445734">
			<ele>2154.26</ele>
			<time>2015-03-08T16:37:41Z</time>
			<fix>3d</fix>
		</trkpt>
		<trkpt lat="35.166284" lon="-106.445725">
			<ele>2154.33</ele>
			<time>2015-03-08T16:37:42Z</time>
			<fix>3d</fix>
		</trkpt>
		<trkpt lat="35.166283" lon="-106.445704">
			<ele>2154.34</ele>
			<time>2015-03-08T16:37:43Z</time>
			<fix>3d</fix>
		</trkpt>
		<trkpt lat="35.166283" lon="-106.445698">
			<ele>2154.34</ele>
			<time>2015-03-08T16:37:44Z</time>
			<fix>3d</fix>
		</trkpt>
		<trkpt lat="35.166282" lon="-106.445692">
			<ele>2154.35</ele>
			<time>2015-03-08T16:37:45Z</time>
			<fix>3d</fix>
		</trkpt>
		<trkpt lat="35.166281" lon="-106.445684">
			<ele>2154.35</ele>
			<time>2015-03-08T16:37:46Z</time>
			<fix>3d</fix>
		</trkpt>
		<trkpt lat="35.166275" lon="-106.445665">
			<ele>2154.36</ele>
			<time>2015-03-08T16:37:47Z</time>
			<fix>3d</fix>
		</trkpt>
		<trkpt lat="35.166271" lon="-106.445647">
			<ele>2154.37</ele>
			<time>2015-03-08T16:37:48Z</time>
			<fix>3d</fix>
		</trkpt>
		<trkpt lat="35.166271" lon="-106.445633">
			<ele>2154.27</ele>
			<time>2015-03-08T16:37:49Z</time>
			<fix>3d</fix>
		</trkpt>
		<trkpt lat="35.166274" lon="-106.445620">
			<ele>2154.38</ele>
			<time>2015-03-08T16:37:50Z</time>
			<fix>3d</fix>
		</trkpt>
		<trkpt lat="35.166276" lon="-106.445615">
			<ele>2154.28</ele>
			<time>2015-03-08T16:37:51Z</time>
			<fix>3d</fix>
		</trkpt>
		<trkpt lat="35.166279" lon="-106.445608">
			<ele>2154.29</ele>
			<time>2015-03-08T16:37:52Z</time>
			<fix>3d</fix>
		</trkpt>
		<trkpt lat="35.166292" lon="-106.445585">
			<ele>2154.29</ele>
			<time>2015-03-08T16:37:53Z</time>
			<fix>3d</fix>
		</trkpt>
		<trkpt lat="35.166294" lon="-106.445580">
			<ele>2154.30</ele>
			<time>2015-03-08T16:37:54Z</time>
			<fix>3d</fix>
		</trkpt>
		<trkpt lat="35.166300" lon="-106.445563">
			<ele>2154.30</ele>
			<time>2015-03-08T16:37:55Z</time>
			<fix>3d</fix>
		</trkpt>
		<trkpt lat="35.166303" lon="-106.445557">
			<ele>2154.41</ele>
			<time>2015-03-08T16:37:56Z</time>
			<fix>3d</fix>
		</trkpt>
		<trkpt lat="35.166304" lon="-106.445549">
			<ele>2154.32</ele>
			<time>2015-03-08T16:37:58Z</time>
			<fix>3d</fix>
		</trkpt>
		<trkpt lat="35.166319" lon="-106.445514">
			<ele>2154.33</ele>
			<time>2015-03-08T16:37:59Z</time>
			<fix>3d</fix>
		</trkpt>
		<trkpt lat="35.166321" lon="-106.445506">
			<ele>2154.34</ele>
			<time>2015-03-08T16:38:01Z</time>
			<fix>3d</fix>
		</trkpt>
		<trkpt lat="35.166324" lon="-106.445503">
			<ele>2154.35</ele>
			<time>2015-03-08T16:38:02Z</time>
			<fix>3d</fix>
		</trkpt>
		<trkpt lat="35.166334" lon="-106.445494">
			<ele>2154.35</ele>
			<time>2015-03-08T16:38:03Z</time>
			<fix>3d</fix>
		</trkpt>
		<trkpt lat="35.166338" lon="-106.445492">
			<ele>2154.36</ele>
			<time>2015-03-08T16:38:04Z</time>
			<fix>3d</fix>
		</trkpt>
		<trkpt lat="35.166358" lon="-106.445488">
			<ele>2154.37</ele>
			<time>2015-03-08T16:38:05Z</time>
			<fix>3d</fix>
		</trkpt>
		<trkpt lat="35.166360" lon="-106.445485">
			<ele>2154.38</ele>
			<time>2015-03-08T16:38:07Z</time>
			<fix>3d</fix>
		</trkpt>
		<trkpt lat="35.166366" lon="-106.445481">
			<ele>2154.39</ele>
			<time>2015-03-08T16:38:08Z</time>
			<fix>3d</fix>
		</trkpt>
		<trkpt lat="35.166379" lon="-106.445482">
			<ele>2154.40</ele>
			<time>2015-03-08T16:38:09Z</time>
			<fix>3d</fix>
		</trkpt>
		<trkpt lat="35.166388" lon="-106.445482">
			<ele>2154.62</ele>
			<time>2015-03-08T16:38:11Z</time>
			<fix>3d</fix>
		</trkpt>
		<trkpt lat="35.166399" lon="-106.445486">
			<ele>2154.93</ele>
			<time>2015-03-08T16:38:12Z</time>
			<fix>3d</fix>
		</trkpt>
		<trkpt lat="35.166401" lon="-106.445486">
			<ele>2155.14</ele>
			<time>2015-03-08T16:38:13Z</time>
			<fix>3d</fix>
		</trkpt>
		<trkpt lat="35.166409" lon="-106.445488">
			<ele>2155.15</ele>
			<time>2015-03-08T16:38:14Z</time>
			<fix>3d</fix>
		</trkpt>
		<trkpt lat="35.166417" lon="-106.445483">
			<ele>2155.72</ele>
			<time>2015-03-08T16:38:21Z</time>
			<fix>3d</fix>
		</trkpt>
		<trkpt lat="35.166417" lon="-106.445472">
			<ele>2156.10</ele>
			<time>2015-03-08T16:38:31Z</time>
			<fix>3d</fix>
		</trkpt>
		<trkpt lat="35.166418" lon="-106.445464">
			<ele>2156.13</ele>
			<time>2015-03-08T16:38:35Z</time>
			<fix>3d</fix>
		</trkpt>
		<trkpt lat="35.166425" lon="-106.445455">
			<ele>2156.14</ele>
			<time>2015-03-08T16:38:36Z</time>
			<fix>3d</fix>
		</trkpt>
		<trkpt lat="35.166434" lon="-106.445453">
			<ele>2156.14</ele>
			<time>2015-03-08T16:38:37Z</time>
			<fix>3d</fix>
		</trkpt>
		<trkpt lat="35.166438" lon="-106.445452">
			<ele>2156.25</ele>
			<time>2015-03-08T16:38:38Z</time>
			<fix>3d</fix>
		</trkpt>
		<trkpt lat="35.166458" lon="-106.445453">
			<ele>2156.26</ele>
			<time>2015-03-08T16:38:39Z</time>
			<fix>3d</fix>
		</trkpt>
		<trkpt lat="35.166466" lon="-106.445449">
			<ele>2156.26</ele>
			<time>2015-03-08T16:38:40Z</time>
			<fix>3d</fix>
		</trkpt>
		<trkpt lat="35.166476" lon="-106.445447">
			<ele>2156.27</ele>
			<time>2015-03-08T16:38:41Z</time>
			<fix>3d</fix>
		</trkpt>
		<trkpt lat="35.166487" lon="-106.445448">
			<ele>2156.32</ele>
			<time>2015-03-08T16:38:42Z</time>
			<fix>3d</fix>
		</trkpt>
		<trkpt lat="35.166492" lon="-106.445449">
			<ele>2156.43</ele>
			<time>2015-03-08T16:38:43Z</time>
			<fix>3d</fix>
		</trkpt>
		<trkpt lat="35.166507" lon="-106.445449">
			<ele>2156.43</ele>
			<time>2015-03-08T16:38:44Z</time>
			<fix>3d</fix>
		</trkpt>
		<trkpt lat="35.166525" lon="-106.445451">
			<ele>2156.44</ele>
			<time>2015-03-08T16:38:45Z</time>
			<fix>3d</fix>
		</trkpt>
		<trkpt lat="35.166533" lon="-106.445448">
			<ele>2156.55</ele>
			<time>2015-03-08T16:38:46Z</time>
			<fix>3d</fix>
		</trkpt>
		<trkpt lat="35.166550" lon="-106.445448">
			<ele>2156.55</ele>
			<time>2015-03-08T16:38:47Z</time>
			<fix>3d</fix>
		</trkpt>
		<trkpt lat="35.166558" lon="-106.445444">
			<ele>2156.66</ele>
			<time>2015-03-08T16:38:48Z</time>
			<fix>3d</fix>
		</trkpt>
		<trkpt lat="35.166562" lon="-106.445443">
			<ele>2156.88</ele>
			<time>2015-03-08T16:38:49Z</time>
			<fix>3d</fix>
		</trkpt>
		<trkpt lat="35.166568" lon="-106.445442">
			<ele>2156.98</ele>
			<time>2015-03-08T16:38:50Z</time>
			<fix>3d</fix>
		</trkpt>
		<trkpt lat="35.166590" lon="-106.445440">
			<ele>2157.30</ele>
			<time>2015-03-08T16:38:51Z</time>
			<fix>3d</fix>
		</trkpt>
		<trkpt lat="35.166597" lon="-106.445436">
			<ele>2157.51</ele>
			<time>2015-03-08T16:38:52Z</time>
			<fix>3d</fix>
		</trkpt>
		<trkpt lat="35.166606" lon="-106.445435">
			<ele>2157.93</ele>
			<time>2015-03-08T16:38:53Z</time>
			<fix>3d</fix>
		</trkpt>
		<trkpt lat="35.166610" lon="-106.445435">
			<ele>2158.24</ele>
			<time>2015-03-08T16:38:54Z</time>
			<fix>3d</fix>
		</trkpt>
		<trkpt lat="35.166626" lon="-106.445431">
			<ele>2158.76</ele>
			<time>2015-03-08T16:38:55Z</time>
			<fix>3d</fix>
		</trkpt>
		<trkpt lat="35.166639" lon="-106.445426">
			<ele>2158.76</ele>
			<time>2015-03-08T16:38:56Z</time>
			<fix>3d</fix>
		</trkpt>
		<trkpt lat="35.166651" lon="-106.445417">
			<ele>2158.77</ele>
			<time>2015-03-08T16:38:57Z</time>
			<fix>3d</fix>
		</trkpt>
		<trkpt lat="35.166655" lon="-106.445413">
			<ele>2158.77</ele>
			<time>2015-03-08T16:38:58Z</time>
			<fix>3d</fix>
		</trkpt>
		<trkpt lat="35.166662" lon="-106.445398">
			<ele>2158.88</ele>
			<time>2015-03-08T16:38:59Z</time>
			<fix>3d</fix>
		</trkpt>
		<trkpt lat="35.166667" lon="-106.445386">
			<ele>2158.89</ele>
			<time>2015-03-08T16:39:00Z</time>
			<fix>3d</fix>
		</trkpt>
		<trkpt lat="35.166668" lon="-106.445381">
			<ele>2158.89</ele>
			<time>2015-03-08T16:39:01Z</time>
			<fix>3d</fix>
		</trkpt>
		<trkpt lat="35.166669" lon="-106.445374">
			<ele>2158.90</ele>
			<time>2015-03-08T16:39:02Z</time>
			<fix>3d</fix>
		</trkpt>
		<trkpt lat="35.166669" lon="-106.445370">
			<ele>2158.90</ele>
			<time>2015-03-08T16:39:03Z</time>
			<fix>3d</fix>
		</trkpt>
		<trkpt lat="35.166687" lon="-106.445349">
			<ele>2158.91</ele>
			<time>2015-03-08T16:39:04Z</time>
			<fix>3d</fix>
		</trkpt>
		<trkpt lat="35.166690" lon="-106.445345">
			<ele>2158.81</ele>
			<time>2015-03-08T16:39:05Z</time>
			<fix>3d</fix>
		</trkpt>
		<trkpt lat="35.166693" lon="-106.445339">
			<ele>2158.82</ele>
			<time>2015-03-08T16:39:06Z</time>
			<fix>3d</fix>
		</trkpt>
		<trkpt lat="35.166695" lon="-106.445331">
			<ele>2158.72</ele>
			<time>2015-03-08T16:39:07Z</time>
			<fix>3d</fix>
		</trkpt>
		<trkpt lat="35.166698" lon="-106.445323">
			<ele>2158.62</ele>
			<time>2015-03-08T16:39:08Z</time>
			<fix>3d</fix>
		</trkpt>
		<trkpt lat="35.166701" lon="-106.445315">
			<ele>2158.63</ele>
			<time>2015-03-08T16:39:09Z</time>
			<fix>3d</fix>
		</trkpt>
		<trkpt lat="35.166701" lon="-106.445309">
			<ele>2158.53</ele>
			<time>2015-03-08T16:39:10Z</time>
			<fix>3d</fix>
		</trkpt>
		<trkpt lat="35.166706" lon="-106.445300">
			<ele>2158.54</ele>
			<time>2015-03-08T16:39:11Z</time>
			<fix>3d</fix>
		</trkpt>
		<trkpt lat="35.166709" lon="-106.445292">
			<ele>2158.23</ele>
			<time>2015-03-08T16:39:12Z</time>
			<fix>3d</fix>
		</trkpt>
		<trkpt lat="35.166713" lon="-106.445283">
			<ele>2157.83</ele>
			<time>2015-03-08T16:39:13Z</time>
			<fix>3d</fix>
		</trkpt>
		<trkpt lat="35.166713" lon="-106.445275">
			<ele>2157.74</ele>
			<time>2015-03-08T16:39:15Z</time>
			<fix>3d</fix>
		</trkpt>
		<trkpt lat="35.166724" lon="-106.445252">
			<ele>2157.64</ele>
			<time>2015-03-08T16:39:16Z</time>
			<fix>3d</fix>
		</trkpt>
		<trkpt lat="35.166723" lon="-106.445248">
			<ele>2157.54</ele>
			<time>2015-03-08T16:39:17Z</time>
			<fix>3d</fix>
		</trkpt>
		<trkpt lat="35.166730" lon="-106.445231">
			<ele>2157.55</ele>
			<time>2015-03-08T16:39:18Z</time>
			<fix>3d</fix>
		</trkpt>
		<trkpt lat="35.166733" lon="-106.445221">
			<ele>2157.05</ele>
			<time>2015-03-08T16:39:20Z</time>
			<fix>3d</fix>
		</trkpt>
		<trkpt lat="35.166733" lon="-106.445211">
			<ele>2156.24</ele>
			<time>2015-03-08T16:39:22Z</time>
			<fix>3d</fix>
		</trkpt>
		<trkpt lat="35.166734" lon="-106.445203">
			<ele>2156.25</ele>
			<time>2015-03-08T16:39:24Z</time>
			<fix>3d</fix>
		</trkpt>
		<trkpt lat="35.166735" lon="-106.445198">
			<ele>2156.15</ele>
			<time>2015-03-08T16:39:25Z</time>
			<fix>3d</fix>
		</trkpt>
		<trkpt lat="35.166747" lon="-106.445173">
			<ele>2156.16</ele>
			<time>2015-03-08T16:39:26Z</time>
			<fix>3d</fix>
		</trkpt>
		<trkpt lat="35.166749" lon="-106.445166">
			<ele>2156.16</ele>
			<time>2015-03-08T16:39:27Z</time>
			<fix>3d</fix>
		</trkpt>
		<trkpt lat="35.166752" lon="-106.445160">
			<ele>2156.17</ele>
			<time>2015-03-08T16:39:28Z</time>
			<fix>3d</fix>
		</trkpt>
		<trkpt lat="35.166761" lon="-106.445138">
			<ele>2156.07</ele>
			<time>2015-03-08T16:39:29Z</time>
			<fix>3d</fix>
		</trkpt>
		<trkpt lat="35.166761" lon="-106.445133">
			<ele>2155.87</ele>
			<time>2015-03-08T16:39:31Z</time>
			<fix>3d</fix>
		</trkpt>
		<trkpt lat="35.166767" lon="-106.445118">
			<ele>2155.67</ele>
			<time>2015-03-08T16:39:32Z</time>
			<fix>3d</fix>
		</trkpt>
		<trkpt lat="35.166774" lon="-106.445105">
			<ele>2155.58</ele>
			<time>2015-03-08T16:39:33Z</time>
			<fix>3d</fix>
		</trkpt>
		<trkpt lat="35.166780" lon="-106.445093">
			<ele>2155.38</ele>
			<time>2015-03-08T16:39:34Z</time>
			<fix>3d</fix>
		</trkpt>
		<trkpt lat="35.166784" lon="-106.445080">
			<ele>2155.28</ele>
			<time>2015-03-08T16:39:35Z</time>
			<fix>3d</fix>
		</trkpt>
		<trkpt lat="35.166784" lon="-106.445075">
			<ele>2155.28</ele>
			<time>2015-03-08T16:39:36Z</time>
			<fix>3d</fix>
		</trkpt>
		<trkpt lat="35.166785" lon="-106.445058">
			<ele>2155.29</ele>
			<time>2015-03-08T16:39:37Z</time>
			<fix>3d</fix>
		</trkpt>
		<trkpt lat="35.166785" lon="-106.445052">
			<ele>2155.09</ele>
			<time>2015-03-08T16:39:38Z</time>
			<fix>3d</fix>
		</trkpt>
		<trkpt lat="35.166784" lon="-106.445047">
			<ele>2154.89</ele>
			<time>2015-03-08T16:39:39Z</time>
			<fix>3d</fix>
		</trkpt>
		<trkpt lat="35.166782" lon="-106.445024">
			<ele>2154.58</ele>
			<time>2015-03-08T16:39:40Z</time>
			<fix>3d</fix>
		</trkpt>
		<trkpt lat="35.166781" lon="-106.445017">
			<ele>2154.28</ele>
			<time>2015-03-08T16:39:41Z</time>
			<fix>3d</fix>
		</trkpt>
		<trkpt lat="35.166779" lon="-106.444990">
			<ele>2154.15</ele>
			<time>2015-03-08T16:39:42Z</time>
			<fix>3d</fix>
		</trkpt>
		<trkpt lat="35.166779" lon="-106.444985">
			<ele>2154.16</ele>
			<time>2015-03-08T16:39:43Z</time>
			<fix>3d</fix>
		</trkpt>
		<trkpt lat="35.166776" lon="-106.444963">
			<ele>2154.16</ele>
			<time>2015-03-08T16:39:44Z</time>
			<fix>3d</fix>
		</trkpt>
		<trkpt lat="35.166771" lon="-106.444949">
			<ele>2153.96</ele>
			<time>2015-03-08T16:39:45Z</time>
			<fix>3d</fix>
		</trkpt>
		<trkpt lat="35.166766" lon="-106.444930">
			<ele>2153.86</ele>
			<time>2015-03-08T16:39:46Z</time>
			<fix>3d</fix>
		</trkpt>
		<trkpt lat="35.166759" lon="-106.444916">
			<ele>2153.76</ele>
			<time>2015-03-08T16:39:47Z</time>
			<fix>3d</fix>
		</trkpt>
		<trkpt lat="35.166751" lon="-106.444904">
			<ele>2153.77</ele>
			<time>2015-03-08T16:39:48Z</time>
			<fix>3d</fix>
		</trkpt>
		<trkpt lat="35.166746" lon="-106.444893">
			<ele>2153.77</ele>
			<time>2015-03-08T16:39:49Z</time>
			<fix>3d</fix>
		</trkpt>
		<trkpt lat="35.166743" lon="-106.444879">
			<ele>2153.77</ele>
			<time>2015-03-08T16:39:50Z</time>
			<fix>3d</fix>
		</trkpt>
		<trkpt lat="35.166741" lon="-106.444865">
			<ele>2153.78</ele>
			<time>2015-03-08T16:39:51Z</time>
			<fix>3d</fix>
		</trkpt>
		<trkpt lat="35.166738" lon="-106.444852">
			<ele>2153.88</ele>
			<time>2015-03-08T16:39:52Z</time>
			<fix>3d</fix>
		</trkpt>
		<trkpt lat="35.166734" lon="-106.444841">
			<ele>2153.99</ele>
			<time>2015-03-08T16:39:53Z</time>
			<fix>3d</fix>
		</trkpt>
		<trkpt lat="35.166731" lon="-106.444837">
			<ele>2154.20</ele>
			<time>2015-03-08T16:39:54Z</time>
			<fix>3d</fix>
		</trkpt>
		<trkpt lat="35.166722" lon="-106.444822">
			<ele>2154.81</ele>
			<time>2015-03-08T16:39:55Z</time>
			<fix>3d</fix>
		</trkpt>
		<trkpt lat="35.166717" lon="-106.444810">
			<ele>2155.33</ele>
			<time>2015-03-08T16:39:56Z</time>
			<fix>3d</fix>
		</trkpt>
		<trkpt lat="35.166714" lon="-106.444806">
			<ele>2155.44</ele>
			<time>2015-03-08T16:39:57Z</time>
			<fix>3d</fix>
		</trkpt>
		<trkpt lat="35.166711" lon="-106.444801">
			<ele>2155.44</ele>
			<time>2015-03-08T16:39:58Z</time>
			<fix>3d</fix>
		</trkpt>
		<trkpt lat="35.166708" lon="-106.444795">
			<ele>2155.44</ele>
			<time>2015-03-08T16:39:59Z</time>
			<fix>3d</fix>
		</trkpt>
		<trkpt lat="35.166705" lon="-106.444788">
			<ele>2155.34</ele>
			<time>2015-03-08T16:40:00Z</time>
			<fix>3d</fix>
		</trkpt>
		<trkpt lat="35.166702" lon="-106.444779">
			<ele>2155.35</ele>
			<time>2015-03-08T16:40:01Z</time>
			<fix>3d</fix>
		</trkpt>
		<trkpt lat="35.166699" lon="-106.444770">
			<ele>2155.35</ele>
			<time>2015-03-08T16:40:02Z</time>
			<fix>3d</fix>
		</trkpt>
		<trkpt lat="35.166689" lon="-106.444750">
			<ele>2155.35</ele>
			<time>2015-03-08T16:40:03Z</time>
			<fix>3d</fix>
		</trkpt>
		<trkpt lat="35.166682" lon="-106.444737">
			<ele>2155.25</ele>
			<time>2015-03-08T16:40:04Z</time>
			<fix>3d</fix>
		</trkpt>
		<trkpt lat="35.166678" lon="-106.444725">
			<ele>2155.36</ele>
			<time>2015-03-08T16:40:05Z</time>
			<fix>3d</fix>
		</trkpt>
		<trkpt lat="35.166674" lon="-106.444712">
			<ele>2155.36</ele>
			<time>2015-03-08T16:40:06Z</time>
			<fix>3d</fix>
		</trkpt>
		<trkpt lat="35.166669" lon="-106.444700">
			<ele>2155.26</ele>
			<time>2015-03-08T16:40:07Z</time>
			<fix>3d</fix>
		</trkpt>
		<trkpt lat="35.166664" lon="-106.444687">
			<ele>2155.17</ele>
			<time>2015-03-08T16:40:08Z</time>
			<fix>3d</fix>
		</trkpt>
		<trkpt lat="35.166655" lon="-106.444672">
			<ele>2155.07</ele>
			<time>2015-03-08T16:40:09Z</time>
			<fix>3d</fix>
		</trkpt>
		<trkpt lat="35.166648" lon="-106.444657">
			<ele>2155.07</ele>
			<time>2015-03-08T16:40:10Z</time>
			<fix>3d</fix>
		</trkpt>
		<trkpt lat="35.166642" lon="-106.444645">
			<ele>2155.08</ele>
			<time>2015-03-08T16:40:11Z</time>
			<fix>3d</fix>
		</trkpt>
		<trkpt lat="35.166636" lon="-106.444631">
			<ele>2155.08</ele>
			<time>2015-03-08T16:40:12Z</time>
			<fix>3d</fix>
		</trkpt>
		<trkpt lat="35.166628" lon="-106.444615">
			<ele>2155.08</ele>
			<time>2015-03-08T16:40:13Z</time>
			<fix>3d</fix>
		</trkpt>
		<trkpt lat="35.166625" lon="-106.444602">
			<ele>2155.19</ele>
			<time>2015-03-08T16:40:14Z</time>
			<fix>3d</fix>
		</trkpt>
		<trkpt lat="35.166625" lon="-106.444590">
			<ele>2155.19</ele>
			<time>2015-03-08T16:40:15Z</time>
			<fix>3d</fix>
		</trkpt>
		<trkpt lat="35.166627" lon="-106.444579">
			<ele>2155.20</ele>
			<time>2015-03-08T16:40:16Z</time>
			<fix>3d</fix>
		</trkpt>
		<trkpt lat="35.166631" lon="-106.444566">
			<ele>2155.20</ele>
			<time>2015-03-08T16:40:17Z</time>
			<fix>3d</fix>
		</trkpt>
		<trkpt lat="35.166632" lon="-106.444560">
			<ele>2155.21</ele>
			<time>2015-03-08T16:40:18Z</time>
			<fix>3d</fix>
		</trkpt>
		<trkpt lat="35.166637" lon="-106.444543">
			<ele>2155.21</ele>
			<time>2015-03-08T16:40:19Z</time>
			<fix>3d</fix>
		</trkpt>
		<trkpt lat="35.166643" lon="-106.444528">
			<ele>2155.32</ele>
			<time>2015-03-08T16:40:20Z</time>
			<fix>3d</fix>
		</trkpt>
		<trkpt lat="35.166649" lon="-106.444514">
			<ele>2155.42</ele>
			<time>2015-03-08T16:40:21Z</time>
			<fix>3d</fix>
		</trkpt>
		<trkpt lat="35.166655" lon="-106.444499">
			<ele>2155.43</ele>
			<time>2015-03-08T16:40:22Z</time>
			<fix>3d</fix>
		</trkpt>
		<trkpt lat="35.166658" lon="-106.444493">
			<ele>2155.74</ele>
			<time>2015-03-08T16:40:23Z</time>
			<fix>3d</fix>
		</trkpt>
		<trkpt lat="35.166667" lon="-106.444475">
			<ele>2155.85</ele>
			<time>2015-03-08T16:40:24Z</time>
			<fix>3d</fix>
		</trkpt>
		<trkpt lat="35.166673" lon="-106.444462">
			<ele>2155.85</ele>
			<time>2015-03-08T16:40:25Z</time>
			<fix>3d</fix>
		</trkpt>
		<trkpt lat="35.166684" lon="-106.444451">
			<ele>2155.85</ele>
			<time>2015-03-08T16:40:26Z</time>
			<fix>3d</fix>
		</trkpt>
		<trkpt lat="35.166691" lon="-106.444437">
			<ele>2155.86</ele>
			<time>2015-03-08T16:40:27Z</time>
			<fix>3d</fix>
		</trkpt>
		<trkpt lat="35.166700" lon="-106.444423">
			<ele>2155.86</ele>
			<time>2015-03-08T16:40:28Z</time>
			<fix>3d</fix>
		</trkpt>
		<trkpt lat="35.166706" lon="-106.444409">
			<ele>2155.87</ele>
			<time>2015-03-08T16:40:29Z</time>
			<fix>3d</fix>
		</trkpt>
		<trkpt lat="35.166708" lon="-106.444396">
			<ele>2155.97</ele>
			<time>2015-03-08T16:40:30Z</time>
			<fix>3d</fix>
		</trkpt>
		<trkpt lat="35.166715" lon="-106.444381">
			<ele>2156.29</ele>
			<time>2015-03-08T16:40:31Z</time>
			<fix>3d</fix>
		</trkpt>
		<trkpt lat="35.166721" lon="-106.444366">
			<ele>2156.29</ele>
			<time>2015-03-08T16:40:32Z</time>
			<fix>3d</fix>
		</trkpt>
		<trkpt lat="35.166725" lon="-106.444355">
			<ele>2156.40</ele>
			<time>2015-03-08T16:40:33Z</time>
			<fix>3d</fix>
		</trkpt>
		<trkpt lat="35.166735" lon="-106.444345">
			<ele>2156.60</ele>
			<time>2015-03-08T16:40:34Z</time>
			<fix>3d</fix>
		</trkpt>
		<trkpt lat="35.166740" lon="-106.444333">
			<ele>2156.81</ele>
			<time>2015-03-08T16:40:35Z</time>
			<fix>3d</fix>
		</trkpt>
		<trkpt lat="35.166745" lon="-106.444321">
			<ele>2156.92</ele>
			<time>2015-03-08T16:40:36Z</time>
			<fix>3d</fix>
		</trkpt>
		<trkpt lat="35.166755" lon="-106.444309">
			<ele>2156.92</ele>
			<time>2015-03-08T16:40:37Z</time>
			<fix>3d</fix>
		</trkpt>
		<trkpt lat="35.166760" lon="-106.444300">
			<ele>2157.03</ele>
			<time>2015-03-08T16:40:38Z</time>
			<fix>3d</fix>
		</trkpt>
		<trkpt lat="35.166772" lon="-106.444294">
			<ele>2157.14</ele>
			<time>2015-03-08T16:40:39Z</time>
			<fix>3d</fix>
		</trkpt>
		<trkpt lat="35.166778" lon="-106.444287">
			<ele>2157.24</ele>
			<time>2015-03-08T16:40:40Z</time>
			<fix>3d</fix>
		</trkpt>
		<trkpt lat="35.166781" lon="-106.444284">
			<ele>2157.55</ele>
			<time>2015-03-08T16:40:41Z</time>
			<fix>3d</fix>
		</trkpt>
		<trkpt lat="35.166790" lon="-106.444275">
			<ele>2157.61</ele>
			<time>2015-03-08T16:40:42Z</time>
			<fix>3d</fix>
		</trkpt>
		<trkpt lat="35.166798" lon="-106.444268">
			<ele>2157.71</ele>
			<time>2015-03-08T16:40:43Z</time>
			<fix>3d</fix>
		</trkpt>
		<trkpt lat="35.166810" lon="-106.444267">
			<ele>2157.82</ele>
			<time>2015-03-08T16:40:44Z</time>
			<fix>3d</fix>
		</trkpt>
		<trkpt lat="35.166814" lon="-106.444261">
			<ele>2157.83</ele>
			<time>2015-03-08T16:40:45Z</time>
			<fix>3d</fix>
		</trkpt>
		<trkpt lat="35.166816" lon="-106.444255">
			<ele>2158.24</ele>
			<time>2015-03-08T16:40:47Z</time>
			<fix>3d</fix>
		</trkpt>
		<trkpt lat="35.166819" lon="-106.444250">
			<ele>2158.35</ele>
			<time>2015-03-08T16:40:48Z</time>
			<fix>3d</fix>
		</trkpt>
		<trkpt lat="35.166821" lon="-106.444243">
			<ele>2158.35</ele>
			<time>2015-03-08T16:40:49Z</time>
			<fix>3d</fix>
		</trkpt>
		<trkpt lat="35.166824" lon="-106.444236">
			<ele>2158.36</ele>
			<time>2015-03-08T16:40:50Z</time>
			<fix>3d</fix>
		</trkpt>
		<trkpt lat="35.166833" lon="-106.444218">
			<ele>2158.47</ele>
			<time>2015-03-08T16:40:51Z</time>
			<fix>3d</fix>
		</trkpt>
		<trkpt lat="35.166837" lon="-106.444204">
			<ele>2158.57</ele>
			<time>2015-03-08T16:40:52Z</time>
			<fix>3d</fix>
		</trkpt>
		<trkpt lat="35.166838" lon="-106.444199">
			<ele>2158.78</ele>
			<time>2015-03-08T16:40:53Z</time>
			<fix>3d</fix>
		</trkpt>
		<trkpt lat="35.166839" lon="-106.444192">
			<ele>2158.89</ele>
			<time>2015-03-08T16:40:54Z</time>
			<fix>3d</fix>
		</trkpt>
		<trkpt lat="35.166838" lon="-106.444187">
			<ele>2159.10</ele>
			<time>2015-03-08T16:40:55Z</time>
			<fix>3d</fix>
		</trkpt>
		<trkpt lat="35.166840" lon="-106.444179">
			<ele>2160.03</ele>
			<time>2015-03-08T16:40:56Z</time>
			<fix>3d</fix>
		</trkpt>
		<trkpt lat="35.166845" lon="-106.444159">
			<ele>2160.44</ele>
			<time>2015-03-08T16:40:57Z</time>
			<fix>3d</fix>
		</trkpt>
		<trkpt lat="35.166847" lon="-106.444153">
			<ele>2160.34</ele>
			<time>2015-03-08T16:40:58Z</time>
			<fix>3d</fix>
		</trkpt>
		<trkpt lat="35.166855" lon="-106.444132">
			<ele>2160.35</ele>
			<time>2015-03-08T16:40:59Z</time>
			<fix>3d</fix>
		</trkpt>
		<trkpt lat="35.166854" lon="-106.444122">
			<ele>2160.46</ele>
			<time>2015-03-08T16:41:01Z</time>
			<fix>3d</fix>
		</trkpt>
		<trkpt lat="35.166855" lon="-106.444114">
			<ele>2160.47</ele>
			<time>2015-03-08T16:41:02Z</time>
			<fix>3d</fix>
		</trkpt>
		<trkpt lat="35.166855" lon="-106.444106">
			<ele>2160.47</ele>
			<time>2015-03-08T16:41:03Z</time>
			<fix>3d</fix>
		</trkpt>
		<trkpt lat="35.166855" lon="-106.444098">
			<ele>2160.48</ele>
			<time>2015-03-08T16:41:04Z</time>
			<fix>3d</fix>
		</trkpt>
		<trkpt lat="35.166856" lon="-106.444089">
			<ele>2160.49</ele>
			<time>2015-03-08T16:41:05Z</time>
			<fix>3d</fix>
		</trkpt>
		<trkpt lat="35.166855" lon="-106.444084">
			<ele>2160.49</ele>
			<time>2015-03-08T16:41:06Z</time>
			<fix>3d</fix>
		</trkpt>
		<trkpt lat="35.166858" lon="-106.444075">
			<ele>2160.70</ele>
			<time>2015-03-08T16:41:07Z</time>
			<fix>3d</fix>
		</trkpt>
		<trkpt lat="35.166858" lon="-106.444073">
			<ele>2160.81</ele>
			<time>2015-03-08T16:41:08Z</time>
			<fix>3d</fix>
		</trkpt>
		<trkpt lat="35.166860" lon="-106.444062">
			<ele>2160.92</ele>
			<time>2015-03-08T16:41:09Z</time>
			<fix>3d</fix>
		</trkpt>
		<trkpt lat="35.166863" lon="-106.444037">
			<ele>2161.13</ele>
			<time>2015-03-08T16:41:10Z</time>
			<fix>3d</fix>
		</trkpt>
		<trkpt lat="35.166862" lon="-106.444033">
			<ele>2161.14</ele>
			<time>2015-03-08T16:41:11Z</time>
			<fix>3d</fix>
		</trkpt>
		<trkpt lat="35.166861" lon="-106.444013">
			<ele>2161.14</ele>
			<time>2015-03-08T16:41:12Z</time>
			<fix>3d</fix>
		</trkpt>
		<trkpt lat="35.166858" lon="-106.444005">
			<ele>2161.36</ele>
			<time>2015-03-08T16:41:14Z</time>
			<fix>3d</fix>
		</trkpt>
		<trkpt lat="35.166854" lon="-106.443996">
			<ele>2161.57</ele>
			<time>2015-03-08T16:41:15Z</time>
			<fix>3d</fix>
		</trkpt>
		<trkpt lat="35.166850" lon="-106.443987">
			<ele>2161.68</ele>
			<time>2015-03-08T16:41:16Z</time>
			<fix>3d</fix>
		</trkpt>
		<trkpt lat="35.166848" lon="-106.443982">
			<ele>2161.90</ele>
			<time>2015-03-08T16:41:17Z</time>
			<fix>3d</fix>
		</trkpt>
		<trkpt lat="35.166846" lon="-106.443977">
			<ele>2162.21</ele>
			<time>2015-03-08T16:41:18Z</time>
			<fix>3d</fix>
		</trkpt>
		<trkpt lat="35.166843" lon="-106.443965">
			<ele>2162.42</ele>
			<time>2015-03-08T16:41:19Z</time>
			<fix>3d</fix>
		</trkpt>
		<trkpt lat="35.166835" lon="-106.443931">
			<ele>2162.53</ele>
			<time>2015-03-08T16:41:20Z</time>
			<fix>3d</fix>
		</trkpt>
		<trkpt lat="35.166835" lon="-106.443928">
			<ele>2162.85</ele>
			<time>2015-03-08T16:41:21Z</time>
			<fix>3d</fix>
		</trkpt>
		<trkpt lat="35.166838" lon="-106.443918">
			<ele>2162.86</ele>
			<time>2015-03-08T16:41:22Z</time>
			<fix>3d</fix>
		</trkpt>
		<trkpt lat="35.166844" lon="-106.443905">
			<ele>2162.87</ele>
			<time>2015-03-08T16:41:23Z</time>
			<fix>3d</fix>
		</trkpt>
		<trkpt lat="35.166845" lon="-106.443892">
			<ele>2162.88</ele>
			<time>2015-03-08T16:41:24Z</time>
			<fix>3d</fix>
		</trkpt>
		<trkpt lat="35.166846" lon="-106.443887">
			<ele>2162.89</ele>
			<time>2015-03-08T16:41:25Z</time>
			<fix>3d</fix>
		</trkpt>
		<trkpt lat="35.166848" lon="-106.443881">
			<ele>2163.00</ele>
			<time>2015-03-08T16:41:26Z</time>
			<fix>3d</fix>
		</trkpt>
		<trkpt lat="35.166856" lon="-106.443861">
			<ele>2163.01</ele>
			<time>2015-03-08T16:41:27Z</time>
			<fix>3d</fix>
		</trkpt>
		<trkpt lat="35.166858" lon="-106.443854">
			<ele>2163.02</ele>
			<time>2015-03-08T16:41:28Z</time>
			<fix>3d</fix>
		</trkpt>
		<trkpt lat="35.166859" lon="-106.443848">
			<ele>2163.13</ele>
			<time>2015-03-08T16:41:29Z</time>
			<fix>3d</fix>
		</trkpt>
		<trkpt lat="35.166869" lon="-106.443822">
			<ele>2163.34</ele>
			<time>2015-03-08T16:41:30Z</time>
			<fix>3d</fix>
		</trkpt>
		<trkpt lat="35.166869" lon="-106.443817">
			<ele>2163.35</ele>
			<time>2015-03-08T16:41:31Z</time>
			<fix>3d</fix>
		</trkpt>
		<trkpt lat="35.166874" lon="-106.443808">
			<ele>2163.36</ele>
			<time>2015-03-08T16:41:32Z</time>
			<fix>3d</fix>
		</trkpt>
		<trkpt lat="35.166889" lon="-106.443786">
			<ele>2163.48</ele>
			<time>2015-03-08T16:41:33Z</time>
			<fix>3d</fix>
		</trkpt>
		<trkpt lat="35.166903" lon="-106.443774">
			<ele>2163.49</ele>
			<time>2015-03-08T16:41:34Z</time>
			<fix>3d</fix>
		</trkpt>
		<trkpt lat="35.166915" lon="-106.443768">
			<ele>2163.60</ele>
			<time>2015-03-08T16:41:35Z</time>
			<fix>3d</fix>
		</trkpt>
		<trkpt lat="35.166919" lon="-106.443761">
			<ele>2164.03</ele>
			<time>2015-03-08T16:41:37Z</time>
			<fix>3d</fix>
		</trkpt>
		<trkpt lat="35.166933" lon="-106.443744">
			<ele>2165.47</ele>
			<time>2015-03-08T16:41:38Z</time>
			<fix>3d</fix>
		</trkpt>
		<trkpt lat="35.166934" lon="-106.443740">
			<ele>2165.38</ele>
			<time>2015-03-08T16:41:39Z</time>
			<fix>3d</fix>
		</trkpt>
		<trkpt lat="35.166947" lon="-106.443719">
			<ele>2165.39</ele>
			<time>2015-03-08T16:41:40Z</time>
			<fix>3d</fix>
		</trkpt>
		<trkpt lat="35.166946" lon="-106.443715">
			<ele>2165.53</ele>
			<time>2015-03-08T16:41:42Z</time>
			<fix>3d</fix>
		</trkpt>
		<trkpt lat="35.166944" lon="-106.443702">
			<ele>2165.54</ele>
			<time>2015-03-08T16:41:43Z</time>
			<fix>3d</fix>
		</trkpt>
		<trkpt lat="35.166944" lon="-106.443691">
			<ele>2165.69</ele>
			<time>2015-03-08T16:41:48Z</time>
			<fix>3d</fix>
		</trkpt>
		<trkpt lat="35.166944" lon="-106.443681">
			<ele>2165.83</ele>
			<time>2015-03-08T16:41:52Z</time>
			<fix>3d</fix>
		</trkpt>
		<trkpt lat="35.166944" lon="-106.443671">
			<ele>2165.97</ele>
			<time>2015-03-08T16:41:57Z</time>
			<fix>3d</fix>
		</trkpt>
		<trkpt lat="35.166946" lon="-106.443662">
			<ele>2166.12</ele>
			<time>2015-03-08T16:42:02Z</time>
			<fix>3d</fix>
		</trkpt>
		<trkpt lat="35.166947" lon="-106.443653">
			<ele>2166.16</ele>
			<time>2015-03-08T16:42:07Z</time>
			<fix>3d</fix>
		</trkpt>
		<trkpt lat="35.166950" lon="-106.443643">
			<ele>2166.10</ele>
			<time>2015-03-08T16:42:13Z</time>
			<fix>3d</fix>
		</trkpt>
		<trkpt lat="35.166953" lon="-106.443634">
			<ele>2166.15</ele>
			<time>2015-03-08T16:42:20Z</time>
			<fix>3d</fix>
		</trkpt>
		<trkpt lat="35.166957" lon="-106.443625">
			<ele>2166.22</ele>
			<time>2015-03-08T16:42:29Z</time>
			<fix>3d</fix>
		</trkpt>
		<trkpt lat="35.166959" lon="-106.443620">
			<ele>2166.36</ele>
			<time>2015-03-08T16:42:35Z</time>
			<fix>3d</fix>
		</trkpt>
		<trkpt lat="35.166980" lon="-106.443528">
			<ele>2166.37</ele>
			<time>2015-03-08T16:43:33Z</time>
			<fix>3d</fix>
		</trkpt>
		<trkpt lat="35.166999" lon="-106.443514">
			<ele>2167.54</ele>
			<time>2015-03-08T16:43:45Z</time>
			<fix>3d</fix>
		</trkpt>
		<trkpt lat="35.166997" lon="-106.443507">
			<ele>2167.75</ele>
			<time>2015-03-08T16:43:46Z</time>
			<fix>3d</fix>
		</trkpt>
		<trkpt lat="35.166996" lon="-106.443502">
			<ele>2167.85</ele>
			<time>2015-03-08T16:43:47Z</time>
			<fix>3d</fix>
		</trkpt>
		<trkpt lat="35.166993" lon="-106.443494">
			<ele>2168.06</ele>
			<time>2015-03-08T16:43:48Z</time>
			<fix>3d</fix>
		</trkpt>
		<trkpt lat="35.166986" lon="-106.443474">
			<ele>2168.27</ele>
			<time>2015-03-08T16:43:49Z</time>
			<fix>3d</fix>
		</trkpt>
		<trkpt lat="35.166984" lon="-106.443468">
			<ele>2168.68</ele>
			<time>2015-03-08T16:43:50Z</time>
			<fix>3d</fix>
		</trkpt>
		<trkpt lat="35.166983" lon="-106.443463">
			<ele>2168.68</ele>
			<time>2015-03-08T16:43:51Z</time>
			<fix>3d</fix>
		</trkpt>
		<trkpt lat="35.166982" lon="-106.443454">
			<ele>2168.69</ele>
			<time>2015-03-08T16:43:52Z</time>
			<fix>3d</fix>
		</trkpt>
		<trkpt lat="35.166981" lon="-106.443449">
			<ele>2168.69</ele>
			<time>2015-03-08T16:43:53Z</time>
			<fix>3d</fix>
		</trkpt>
		<trkpt lat="35.166980" lon="-106.443442">
			<ele>2168.69</ele>
			<time>2015-03-08T16:43:54Z</time>
			<fix>3d</fix>
		</trkpt>
		<trkpt lat="35.166978" lon="-106.443429">
			<ele>2169.11</ele>
			<time>2015-03-08T16:43:55Z</time>
			<fix>3d</fix>
		</trkpt>
		<trkpt lat="35.166976" lon="-106.443416">
			<ele>2169.93</ele>
			<time>2015-03-08T16:43:56Z</time>
			<fix>3d</fix>
		</trkpt>
		<trkpt lat="35.166975" lon="-106.443403">
			<ele>2170.03</ele>
			<time>2015-03-08T16:43:57Z</time>
			<fix>3d</fix>
		</trkpt>
		<trkpt lat="35.166972" lon="-106.443370">
			<ele>2170.04</ele>
			<time>2015-03-08T16:43:58Z</time>
			<fix>3d</fix>
		</trkpt>
		<trkpt lat="35.166973" lon="-106.443348">
			<ele>2170.04</ele>
			<time>2015-03-08T16:43:59Z</time>
			<fix>3d</fix>
		</trkpt>
		<trkpt lat="35.166979" lon="-106.443326">
			<ele>2170.04</ele>
			<time>2015-03-08T16:44:00Z</time>
			<fix>3d</fix>
		</trkpt>
		<trkpt lat="35.166983" lon="-106.443311">
			<ele>2170.15</ele>
			<time>2015-03-08T16:44:01Z</time>
			<fix>3d</fix>
		</trkpt>
		<trkpt lat="35.166988" lon="-106.443297">
			<ele>2170.25</ele>
			<time>2015-03-08T16:44:02Z</time>
			<fix>3d</fix>
		</trkpt>
		<trkpt lat="35.166991" lon="-106.443289">
			<ele>2171.18</ele>
			<time>2015-03-08T16:44:05Z</time>
			<fix>3d</fix>
		</trkpt>
		<trkpt lat="35.166999" lon="-106.443285">
			<ele>2171.39</ele>
			<time>2015-03-08T16:44:06Z</time>
			<fix>3d</fix>
		</trkpt>
		<trkpt lat="35.167009" lon="-106.443285">
			<ele>2171.39</ele>
			<time>2015-03-08T16:44:07Z</time>
			<fix>3d</fix>
		</trkpt>
		<trkpt lat="35.167018" lon="-106.443286">
			<ele>2171.39</ele>
			<time>2015-03-08T16:44:08Z</time>
			<fix>3d</fix>
		</trkpt>
		<trkpt lat="35.167028" lon="-106.443286">
			<ele>2171.50</ele>
			<time>2015-03-08T16:44:09Z</time>
			<fix>3d</fix>
		</trkpt>
		<trkpt lat="35.167033" lon="-106.443283">
			<ele>2171.50</ele>
			<time>2015-03-08T16:44:10Z</time>
			<fix>3d</fix>
		</trkpt>
		<trkpt lat="35.167039" lon="-106.443278">
			<ele>2171.50</ele>
			<time>2015-03-08T16:44:11Z</time>
			<fix>3d</fix>
		</trkpt>
		<trkpt lat="35.167052" lon="-106.443258">
			<ele>2171.71</ele>
			<time>2015-03-08T16:44:12Z</time>
			<fix>3d</fix>
		</trkpt>
		<trkpt lat="35.167059" lon="-106.443242">
			<ele>2171.92</ele>
			<time>2015-03-08T16:44:13Z</time>
			<fix>3d</fix>
		</trkpt>
		<trkpt lat="35.167062" lon="-106.443227">
			<ele>2172.12</ele>
			<time>2015-03-08T16:44:14Z</time>
			<fix>3d</fix>
		</trkpt>
		<trkpt lat="35.167062" lon="-106.443213">
			<ele>2172.33</ele>
			<time>2015-03-08T16:44:15Z</time>
			<fix>3d</fix>
		</trkpt>
		<trkpt lat="35.167061" lon="-106.443208">
			<ele>2172.43</ele>
			<time>2015-03-08T16:44:16Z</time>
			<fix>3d</fix>
		</trkpt>
		<trkpt lat="35.167056" lon="-106.443192">
			<ele>2172.64</ele>
			<time>2015-03-08T16:44:17Z</time>
			<fix>3d</fix>
		</trkpt>
		<trkpt lat="35.167053" lon="-106.443188">
			<ele>2172.74</ele>
			<time>2015-03-08T16:44:18Z</time>
			<fix>3d</fix>
		</trkpt>
		<trkpt lat="35.167047" lon="-106.443173">
			<ele>2172.85</ele>
			<time>2015-03-08T16:44:19Z</time>
			<fix>3d</fix>
		</trkpt>
		<trkpt lat="35.167046" lon="-106.443168">
			<ele>2172.95</ele>
			<time>2015-03-08T16:44:20Z</time>
			<fix>3d</fix>
		</trkpt>
		<trkpt lat="35.167045" lon="-106.443161">
			<ele>2173.06</ele>
			<time>2015-03-08T16:44:21Z</time>
			<fix>3d</fix>
		</trkpt>
		<trkpt lat="35.167041" lon="-106.443143">
			<ele>2173.06</ele>
			<time>2015-03-08T16:44:22Z</time>
			<fix>3d</fix>
		</trkpt>
		<trkpt lat="35.167036" lon="-106.443130">
			<ele>2173.17</ele>
			<time>2015-03-08T16:44:23Z</time>
			<fix>3d</fix>
		</trkpt>
		<trkpt lat="35.167032" lon="-106.443121">
			<ele>2174.09</ele>
			<time>2015-03-08T16:44:25Z</time>
			<fix>3d</fix>
		</trkpt>
		<trkpt lat="35.167030" lon="-106.443114">
			<ele>2174.20</ele>
			<time>2015-03-08T16:44:26Z</time>
			<fix>3d</fix>
		</trkpt>
		<trkpt lat="35.167027" lon="-106.443108">
			<ele>2174.40</ele>
			<time>2015-03-08T16:44:27Z</time>
			<fix>3d</fix>
		</trkpt>
		<trkpt lat="35.167018" lon="-106.443089">
			<ele>2174.41</ele>
			<time>2015-03-08T16:44:28Z</time>
			<fix>3d</fix>
		</trkpt>
		<trkpt lat="35.167011" lon="-106.443077">
			<ele>2174.41</ele>
			<time>2015-03-08T16:44:29Z</time>
			<fix>3d</fix>
		</trkpt>
		<trkpt lat="35.167003" lon="-106.443069">
			<ele>2174.51</ele>
			<time>2015-03-08T16:44:30Z</time>
			<fix>3d</fix>
		</trkpt>
		<trkpt lat="35.167000" lon="-106.443066">
			<ele>2174.52</ele>
			<time>2015-03-08T16:44:31Z</time>
			<fix>3d</fix>
		</trkpt>
		<trkpt lat="35.166991" lon="-106.443055">
			<ele>2174.62</ele>
			<time>2015-03-08T16:44:32Z</time>
			<fix>3d</fix>
		</trkpt>
		<trkpt lat="35.166986" lon="-106.443046">
			<ele>2174.93</ele>
			<time>2015-03-08T16:44:34Z</time>
			<fix>3d</fix>
		</trkpt>
		<trkpt lat="35.166985" lon="-106.443040">
			<ele>2175.55</ele>
			<time>2015-03-08T16:44:35Z</time>
			<fix>3d</fix>
		</trkpt>
		<trkpt lat="35.166982" lon="-106.443025">
			<ele>2175.65</ele>
			<time>2015-03-08T16:44:36Z</time>
			<fix>3d</fix>
		</trkpt>
		<trkpt lat="35.166980" lon="-106.443016">
			<ele>2176.79</ele>
			<time>2015-03-08T16:44:39Z</time>
			<fix>3d</fix>
		</trkpt>
		<trkpt lat="35.166977" lon="-106.442992">
			<ele>2176.89</ele>
			<time>2015-03-08T16:44:40Z</time>
			<fix>3d</fix>
		</trkpt>
		<trkpt lat="35.166974" lon="-106.442984">
			<ele>2177.00</ele>
			<time>2015-03-08T16:44:42Z</time>
			<fix>3d</fix>
		</trkpt>
		<trkpt lat="35.166973" lon="-106.442980">
			<ele>2177.00</ele>
			<time>2015-03-08T16:44:43Z</time>
			<fix>3d</fix>
		</trkpt>
		<trkpt lat="35.166971" lon="-106.442973">
			<ele>2177.00</ele>
			<time>2015-03-08T16:44:44Z</time>
			<fix>3d</fix>
		</trkpt>
		<trkpt lat="35.166969" lon="-106.442956">
			<ele>2176.91</ele>
			<time>2015-03-08T16:44:45Z</time>
			<fix>3d</fix>
		</trkpt>
		<trkpt lat="35.166968" lon="-106.442952">
			<ele>2176.70</ele>
			<time>2015-03-08T16:44:46Z</time>
			<fix>3d</fix>
		</trkpt>
		<trkpt lat="35.166968" lon="-106.442936">
			<ele>2176.81</ele>
			<time>2015-03-08T16:44:47Z</time>
			<fix>3d</fix>
		</trkpt>
		<trkpt lat="35.166970" lon="-106.442922">
			<ele>2176.81</ele>
			<time>2015-03-08T16:44:48Z</time>
			<fix>3d</fix>
		</trkpt>
		<trkpt lat="35.166970" lon="-106.442918">
			<ele>2176.82</ele>
			<time>2015-03-08T16:44:49Z</time>
			<fix>3d</fix>
		</trkpt>
		<trkpt lat="35.166978" lon="-106.442895">
			<ele>2177.03</ele>
			<time>2015-03-08T16:44:50Z</time>
			<fix>3d</fix>
		</trkpt>
		<trkpt lat="35.166978" lon="-106.442879">
			<ele>2177.13</ele>
			<time>2015-03-08T16:44:51Z</time>
			<fix>3d</fix>
		</trkpt>
		<trkpt lat="35.166978" lon="-106.442864">
			<ele>2177.24</ele>
			<time>2015-03-08T16:44:52Z</time>
			<fix>3d</fix>
		</trkpt>
		<trkpt lat="35.166978" lon="-106.442851">
			<ele>2177.65</ele>
			<time>2015-03-08T16:44:53Z</time>
			<fix>3d</fix>
		</trkpt>
		<trkpt lat="35.166977" lon="-106.442846">
			<ele>2177.86</ele>
			<time>2015-03-08T16:44:54Z</time>
			<fix>3d</fix>
		</trkpt>
		<trkpt lat="35.166975" lon="-106.442839">
			<ele>2177.87</ele>
			<time>2015-03-08T16:44:55Z</time>
			<fix>3d</fix>
		</trkpt>
		<trkpt lat="35.166972" lon="-106.442831">
			<ele>2178.18</ele>
			<time>2015-03-08T16:44:56Z</time>
			<fix>3d</fix>
		</trkpt>
		<trkpt lat="35.166964" lon="-106.442812">
			<ele>2178.28</ele>
			<time>2015-03-08T16:44:57Z</time>
			<fix>3d</fix>
		</trkpt>
		<trkpt lat="35.166961" lon="-106.442806">
			<ele>2178.29</ele>
			<time>2015-03-08T16:44:58Z</time>
			<fix>3d</fix>
		</trkpt>
		<trkpt lat="35.166958" lon="-106.442798">
			<ele>2178.29</ele>
			<time>2015-03-08T16:44:59Z</time>
			<fix>3d</fix>
		</trkpt>
		<trkpt lat="35.166949" lon="-106.442778">
			<ele>2178.30</ele>
			<time>2015-03-08T16:45:00Z</time>
			<fix>3d</fix>
		</trkpt>
		<trkpt lat="35.166946" lon="-106.442772">
			<ele>2178.61</ele>
			<time>2015-03-08T16:45:01Z</time>
			<fix>3d</fix>
		</trkpt>
		<trkpt lat="35.166943" lon="-106.442765">
			<ele>2178.61</ele>
			<time>2015-03-08T16:45:02Z</time>
			<fix>3d</fix>
		</trkpt>
		<trkpt lat="35.166941" lon="-106.442760">
			<ele>2178.72</ele>
			<time>2015-03-08T16:45:03Z</time>
			<fix>3d</fix>
		</trkpt>
		<trkpt lat="35.166939" lon="-106.442755">
			<ele>2178.93</ele>
			<time>2015-03-08T16:45:04Z</time>
			<fix>3d</fix>
		</trkpt>
		<trkpt lat="35.166934" lon="-106.442746">
			<ele>2179.34</ele>
			<time>2015-03-08T16:45:05Z</time>
			<fix>3d</fix>
		</trkpt>
		<trkpt lat="35.166924" lon="-106.442722">
			<ele>2179.45</ele>
			<time>2015-03-08T16:45:06Z</time>
			<fix>3d</fix>
		</trkpt>
		<trkpt lat="35.166922" lon="-106.442715">
			<ele>2179.56</ele>
			<time>2015-03-08T16:45:07Z</time>
			<fix>3d</fix>
		</trkpt>
		<trkpt lat="35.166920" lon="-106.442708">
			<ele>2179.56</ele>
			<time>2015-03-08T16:45:08Z</time>
			<fix>3d</fix>
		</trkpt>
		<trkpt lat="35.166918" lon="-106.442703">
			<ele>2179.87</ele>
			<time>2015-03-08T16:45:09Z</time>
			<fix>3d</fix>
		</trkpt>
		<trkpt lat="35.166912" lon="-106.442682">
			<ele>2180.49</ele>
			<time>2015-03-08T16:45:10Z</time>
			<fix>3d</fix>
		</trkpt>
		<trkpt lat="35.166909" lon="-106.442675">
			<ele>2180.50</ele>
			<time>2015-03-08T16:45:12Z</time>
			<fix>3d</fix>
		</trkpt>
		<trkpt lat="35.166906" lon="-106.442665">
			<ele>2180.61</ele>
			<time>2015-03-08T16:45:14Z</time>
			<fix>3d</fix>
		</trkpt>
		<trkpt lat="35.166905" lon="-106.442657">
			<ele>2180.72</ele>
			<time>2015-03-08T16:45:16Z</time>
			<fix>3d</fix>
		</trkpt>
		<trkpt lat="35.166904" lon="-106.442652">
			<ele>2180.83</ele>
			<time>2015-03-08T16:45:17Z</time>
			<fix>3d</fix>
		</trkpt>
		<trkpt lat="35.166904" lon="-106.442642">
			<ele>2181.25</ele>
			<time>2015-03-08T16:45:18Z</time>
			<fix>3d</fix>
		</trkpt>
		<trkpt lat="35.166903" lon="-106.442639">
			<ele>2181.25</ele>
			<time>2015-03-08T16:45:19Z</time>
			<fix>3d</fix>
		</trkpt>
		<trkpt lat="35.166905" lon="-106.442629">
			<ele>2181.26</ele>
			<time>2015-03-08T16:45:20Z</time>
			<fix>3d</fix>
		</trkpt>
		<trkpt lat="35.166916" lon="-106.442606">
			<ele>2181.37</ele>
			<time>2015-03-08T16:45:21Z</time>
			<fix>3d</fix>
		</trkpt>
		<trkpt lat="35.166936" lon="-106.442588">
			<ele>2181.37</ele>
			<time>2015-03-08T16:45:22Z</time>
			<fix>3d</fix>
		</trkpt>
		<trkpt lat="35.166944" lon="-106.442577">
			<ele>2181.38</ele>
			<time>2015-03-08T16:45:23Z</time>
			<fix>3d</fix>
		</trkpt>
		<trkpt lat="35.166952" lon="-106.442565">
			<ele>2181.49</ele>
			<time>2015-03-08T16:45:24Z</time>
			<fix>3d</fix>
		</trkpt>
		<trkpt lat="35.166955" lon="-106.442560">
			<ele>2181.49</ele>
			<time>2015-03-08T16:45:25Z</time>
			<fix>3d</fix>
		</trkpt>
		<trkpt lat="35.166973" lon="-106.442544">
			<ele>2181.70</ele>
			<time>2015-03-08T16:45:26Z</time>
			<fix>3d</fix>
		</trkpt>
		<trkpt lat="35.166979" lon="-106.442538">
			<ele>2182.22</ele>
			<time>2015-03-08T16:45:27Z</time>
			<fix>3d</fix>
		</trkpt>
		<trkpt lat="35.166987" lon="-106.442532">
			<ele>2182.53</ele>
			<time>2015-03-08T16:45:28Z</time>
			<fix>3d</fix>
		</trkpt>
		<trkpt lat="35.166996" lon="-106.442523">
			<ele>2182.64</ele>
			<time>2015-03-08T16:45:29Z</time>
			<fix>3d</fix>
		</trkpt>
		<trkpt lat="35.167003" lon="-106.442514">
			<ele>2182.75</ele>
			<time>2015-03-08T16:45:30Z</time>
			<fix>3d</fix>
		</trkpt>
		<trkpt lat="35.167010" lon="-106.442505">
			<ele>2182.86</ele>
			<time>2015-03-08T16:45:31Z</time>
			<fix>3d</fix>
		</trkpt>
		<trkpt lat="35.167016" lon="-106.442497">
			<ele>2183.38</ele>
			<time>2015-03-08T16:45:33Z</time>
			<fix>3d</fix>
		</trkpt>
		<trkpt lat="35.167025" lon="-106.442487">
			<ele>2183.39</ele>
			<time>2015-03-08T16:45:34Z</time>
			<fix>3d</fix>
		</trkpt>
		<trkpt lat="35.167033" lon="-106.442482">
			<ele>2183.50</ele>
			<time>2015-03-08T16:45:35Z</time>
			<fix>3d</fix>
		</trkpt>
		<trkpt lat="35.167041" lon="-106.442478">
			<ele>2184.01</ele>
			<time>2015-03-08T16:45:36Z</time>
			<fix>3d</fix>
		</trkpt>
		<trkpt lat="35.167050" lon="-106.442473">
			<ele>2184.53</ele>
			<time>2015-03-08T16:45:37Z</time>
			<fix>3d</fix>
		</trkpt>
		<trkpt lat="35.167054" lon="-106.442472">
			<ele>2184.54</ele>
			<time>2015-03-08T16:45:38Z</time>
			<fix>3d</fix>
		</trkpt>
		<trkpt lat="35.167061" lon="-106.442471">
			<ele>2184.66</ele>
			<time>2015-03-08T16:45:39Z</time>
			<fix>3d</fix>
		</trkpt>
		<trkpt lat="35.167064" lon="-106.442470">
			<ele>2184.76</ele>
			<time>2015-03-08T16:45:40Z</time>
			<fix>3d</fix>
		</trkpt>
		<trkpt lat="35.167075" lon="-106.442469">
			<ele>2184.77</ele>
			<time>2015-03-08T16:45:41Z</time>
			<fix>3d</fix>
		</trkpt>
		<trkpt lat="35.167078" lon="-106.442467">
			<ele>2184.88</ele>
			<time>2015-03-08T16:45:42Z</time>
			<fix>3d</fix>
		</trkpt>
		<trkpt lat="35.167089" lon="-106.442463">
			<ele>2184.99</ele>
			<time>2015-03-08T16:45:43Z</time>
			<fix>3d</fix>
		</trkpt>
		<trkpt lat="35.167096" lon="-106.442462">
			<ele>2185.61</ele>
			<time>2015-03-08T16:45:45Z</time>
			<fix>3d</fix>
		</trkpt>
		<trkpt lat="35.167103" lon="-106.442460">
			<ele>2185.62</ele>
			<time>2015-03-08T16:45:46Z</time>
			<fix>3d</fix>
		</trkpt>
		<trkpt lat="35.167117" lon="-106.442456">
			<ele>2185.73</ele>
			<time>2015-03-08T16:45:47Z</time>
			<fix>3d</fix>
		</trkpt>
		<trkpt lat="35.167119" lon="-106.442454">
			<ele>2185.83</ele>
			<time>2015-03-08T16:45:48Z</time>
			<fix>3d</fix>
		</trkpt>
		<trkpt lat="35.167129" lon="-106.442445">
			<ele>2186.25</ele>
			<time>2015-03-08T16:45:49Z</time>
			<fix>3d</fix>
		</trkpt>
		<trkpt lat="35.167133" lon="-106.442441">
			<ele>2186.77</ele>
			<time>2015-03-08T16:45:51Z</time>
			<fix>3d</fix>
		</trkpt>
		<trkpt lat="35.167146" lon="-106.442416">
			<ele>2187.03</ele>
			<time>2015-03-08T16:46:03Z</time>
			<fix>3d</fix>
		</trkpt>
		<trkpt lat="35.167143" lon="-106.442406">
			<ele>2187.29</ele>
			<time>2015-03-08T16:46:18Z</time>
			<fix>3d</fix>
		</trkpt>
		<trkpt lat="35.167143" lon="-106.442404">
			<ele>2187.30</ele>
			<time>2015-03-08T16:46:22Z</time>
			<fix>3d</fix>
		</trkpt>
		<trkpt lat="35.167158" lon="-106.442367">
			<ele>2187.30</ele>
			<time>2015-03-08T16:46:43Z</time>
			<fix>3d</fix>
		</trkpt>
		<trkpt lat="35.167164" lon="-106.442369">
			<ele>2187.37</ele>
			<time>2015-03-08T16:47:08Z</time>
			<fix>3d</fix>
		</trkpt>
		<trkpt lat="35.167147" lon="-106.442337">
			<ele>2187.27</ele>
			<time>2015-03-08T16:47:22Z</time>
			<fix>3d</fix>
		</trkpt>
		<trkpt lat="35.167150" lon="-106.442336">
			<ele>2187.37</ele>
			<time>2015-03-08T16:47:23Z</time>
			<fix>3d</fix>
		</trkpt>
		<trkpt lat="35.167156" lon="-106.442326">
			<ele>2187.47</ele>
			<time>2015-03-08T16:47:24Z</time>
			<fix>3d</fix>
		</trkpt>
		<trkpt lat="35.167156" lon="-106.442317">
			<ele>2187.68</ele>
			<time>2015-03-08T16:47:25Z</time>
			<fix>3d</fix>
		</trkpt>
		<trkpt lat="35.167155" lon="-106.442307">
			<ele>2187.78</ele>
			<time>2015-03-08T16:47:26Z</time>
			<fix>3d</fix>
		</trkpt>
		<trkpt lat="35.167153" lon="-106.442302">
			<ele>2187.77</ele>
			<time>2015-03-08T16:47:27Z</time>
			<fix>3d</fix>
		</trkpt>
		<trkpt lat="35.167150" lon="-106.442297">
			<ele>2187.98</ele>
			<time>2015-03-08T16:47:28Z</time>
			<fix>3d</fix>
		</trkpt>
		<trkpt lat="35.167148" lon="-106.442290">
			<ele>2188.08</ele>
			<time>2015-03-08T16:47:29Z</time>
			<fix>3d</fix>
		</trkpt>
		<trkpt lat="35.167145" lon="-106.442280">
			<ele>2188.59</ele>
			<time>2015-03-08T16:47:31Z</time>
			<fix>3d</fix>
		</trkpt>
		<trkpt lat="35.167144" lon="-106.442269">
			<ele>2189.20</ele>
			<time>2015-03-08T16:47:32Z</time>
			<fix>3d</fix>
		</trkpt>
		<trkpt lat="35.167144" lon="-106.442258">
			<ele>2189.10</ele>
			<time>2015-03-08T16:47:33Z</time>
			<fix>3d</fix>
		</trkpt>
		<trkpt lat="35.167144" lon="-106.442231">
			<ele>2189.10</ele>
			<time>2015-03-08T16:47:34Z</time>
			<fix>3d</fix>
		</trkpt>
		<trkpt lat="35.167146" lon="-106.442212">
			<ele>2189.10</ele>
			<time>2015-03-08T16:47:35Z</time>
			<fix>3d</fix>
		</trkpt>
		<trkpt lat="35.167146" lon="-106.442196">
			<ele>2189.20</ele>
			<time>2015-03-08T16:47:36Z</time>
			<fix>3d</fix>
		</trkpt>
		<trkpt lat="35.167145" lon="-106.442192">
			<ele>2189.20</ele>
			<time>2015-03-08T16:47:37Z</time>
			<fix>3d</fix>
		</trkpt>
		<trkpt lat="35.167144" lon="-106.442184">
			<ele>2189.20</ele>
			<time>2015-03-08T16:47:38Z</time>
			<fix>3d</fix>
		</trkpt>
		<trkpt lat="35.167143" lon="-106.442176">
			<ele>2189.50</ele>
			<time>2015-03-08T16:47:39Z</time>
			<fix>3d</fix>
		</trkpt>
		<trkpt lat="35.167142" lon="-106.442171">
			<ele>2189.81</ele>
			<time>2015-03-08T16:47:40Z</time>
			<fix>3d</fix>
		</trkpt>
		<trkpt lat="35.167141" lon="-106.442160">
			<ele>2189.91</ele>
			<time>2015-03-08T16:47:41Z</time>
			<fix>3d</fix>
		</trkpt>
		<trkpt lat="35.167141" lon="-106.442150">
			<ele>2190.42</ele>
			<time>2015-03-08T16:47:42Z</time>
			<fix>3d</fix>
		</trkpt>
		<trkpt lat="35.167140" lon="-106.442145">
			<ele>2191.24</ele>
			<time>2015-03-08T16:47:43Z</time>
			<fix>3d</fix>
		</trkpt>
		<trkpt lat="35.167139" lon="-106.442139">
			<ele>2191.24</ele>
			<time>2015-03-08T16:47:44Z</time>
			<fix>3d</fix>
		</trkpt>
		<trkpt lat="35.167138" lon="-106.442133">
			<ele>2191.24</ele>
			<time>2015-03-08T16:47:45Z</time>
			<fix>3d</fix>
		</trkpt>
		<trkpt lat="35.167137" lon="-106.442122">
			<ele>2191.24</ele>
			<time>2015-03-08T16:47:46Z</time>
			<fix>3d</fix>
		</trkpt>
		<trkpt lat="35.167136" lon="-106.442111">
			<ele>2191.24</ele>
			<time>2015-03-08T16:47:47Z</time>
			<fix>3d</fix>
		</trkpt>
		<trkpt lat="35.167137" lon="-106.442086">
			<ele>2191.24</ele>
			<time>2015-03-08T16:47:48Z</time>
			<fix>3d</fix>
		</trkpt>
		<trkpt lat="35.167136" lon="-106.442082">
			<ele>2191.24</ele>
			<time>2015-03-08T16:47:49Z</time>
			<fix>3d</fix>
		</trkpt>
		<trkpt lat="35.167135" lon="-106.442063">
			<ele>2191.24</ele>
			<time>2015-03-08T16:47:50Z</time>
			<fix>3d</fix>
		</trkpt>
		<trkpt lat="35.167135" lon="-106.442057">
			<ele>2191.24</ele>
			<time>2015-03-08T16:47:51Z</time>
			<fix>3d</fix>
		</trkpt>
		<trkpt lat="35.167135" lon="-106.442039">
			<ele>2191.34</ele>
			<time>2015-03-08T16:47:52Z</time>
			<fix>3d</fix>
		</trkpt>
		<trkpt lat="35.167135" lon="-106.442024">
			<ele>2191.34</ele>
			<time>2015-03-08T16:47:53Z</time>
			<fix>3d</fix>
		</trkpt>
		<trkpt lat="35.167134" lon="-106.442020">
			<ele>2191.34</ele>
			<time>2015-03-08T16:47:54Z</time>
			<fix>3d</fix>
		</trkpt>
		<trkpt lat="35.167139" lon="-106.442004">
			<ele>2191.34</ele>
			<time>2015-03-08T16:47:55Z</time>
			<fix>3d</fix>
		</trkpt>
		<trkpt lat="35.167147" lon="-106.441990">
			<ele>2191.34</ele>
			<time>2015-03-08T16:47:56Z</time>
			<fix>3d</fix>
		</trkpt>
		<trkpt lat="35.167151" lon="-106.441984">
			<ele>2191.34</ele>
			<time>2015-03-08T16:47:58Z</time>
			<fix>3d</fix>
		</trkpt>
		<trkpt lat="35.167167" lon="-106.441972">
			<ele>2191.34</ele>
			<time>2015-03-08T16:47:59Z</time>
			<fix>3d</fix>
		</trkpt>
		<trkpt lat="35.167178" lon="-106.441965">
			<ele>2191.34</ele>
			<time>2015-03-08T16:48:00Z</time>
			<fix>3d</fix>
		</trkpt>
		<trkpt lat="35.167188" lon="-106.441956">
			<ele>2191.65</ele>
			<time>2015-03-08T16:48:01Z</time>
			<fix>3d</fix>
		</trkpt>
		<trkpt lat="35.167192" lon="-106.441953">
			<ele>2191.96</ele>
			<time>2015-03-08T16:48:02Z</time>
			<fix>3d</fix>
		</trkpt>
		<trkpt lat="35.167208" lon="-106.441940">
			<ele>2192.26</ele>
			<time>2015-03-08T16:48:03Z</time>
			<fix>3d</fix>
		</trkpt>
		<trkpt lat="35.167211" lon="-106.441929">
			<ele>2192.57</ele>
			<time>2015-03-08T16:48:04Z</time>
			<fix>3d</fix>
		</trkpt>
		<trkpt lat="35.167215" lon="-106.441917">
			<ele>2192.57</ele>
			<time>2015-03-08T16:48:05Z</time>
			<fix>3d</fix>
		</trkpt>
		<trkpt lat="35.167215" lon="-106.441913">
			<ele>2192.57</ele>
			<time>2015-03-08T16:48:06Z</time>
			<fix>3d</fix>
		</trkpt>
		<trkpt lat="35.167218" lon="-106.441898">
			<ele>2192.57</ele>
			<time>2015-03-08T16:48:07Z</time>
			<fix>3d</fix>
		</trkpt>
		<trkpt lat="35.167218" lon="-106.441883">
			<ele>2192.67</ele>
			<time>2015-03-08T16:48:08Z</time>
			<fix>3d</fix>
		</trkpt>
		<trkpt lat="35.167217" lon="-106.441878">
			<ele>2192.67</ele>
			<time>2015-03-08T16:48:09Z</time>
			<fix>3d</fix>
		</trkpt>
		<trkpt lat="35.167216" lon="-106.441861">
			<ele>2192.68</ele>
			<time>2015-03-08T16:48:10Z</time>
			<fix>3d</fix>
		</trkpt>
		<trkpt lat="35.167215" lon="-106.441855">
			<ele>2192.78</ele>
			<time>2015-03-08T16:48:11Z</time>
			<fix>3d</fix>
		</trkpt>
		<trkpt lat="35.167213" lon="-106.441836">
			<ele>2192.98</ele>
			<time>2015-03-08T16:48:12Z</time>
			<fix>3d</fix>
		</trkpt>
		<trkpt lat="35.167212" lon="-106.441830">
			<ele>2193.19</ele>
			<time>2015-03-08T16:48:13Z</time>
			<fix>3d</fix>
		</trkpt>
		<trkpt lat="35.167209" lon="-106.441810">
			<ele>2193.62</ele>
			<time>2015-03-08T16:48:14Z</time>
			<fix>3d</fix>
		</trkpt>
		<trkpt lat="35.167205" lon="-106.441795">
			<ele>2193.72</ele>
			<time>2015-03-08T16:48:15Z</time>
			<fix>3d</fix>
		</trkpt>
		<trkpt lat="35.167204" lon="-106.441789">
			<ele>2193.72</ele>
			<time>2015-03-08T16:48:16Z</time>
			<fix>3d</fix>
		</trkpt>
		<trkpt lat="35.167202" lon="-106.441782">
			<ele>2193.73</ele>
			<time>2015-03-08T16:48:17Z</time>
			<fix>3d</fix>
		</trkpt>
		<trkpt lat="35.167197" lon="-106.441764">
			<ele>2193.83</ele>
			<time>2015-03-08T16:48:18Z</time>
			<fix>3d</fix>
		</trkpt>
		<trkpt lat="35.167196" lon="-106.441758">
			<ele>2194.14</ele>
			<time>2015-03-08T16:48:19Z</time>
			<fix>3d</fix>
		</trkpt>
		<trkpt lat="35.167195" lon="-106.441751">
			<ele>2194.55</ele>
			<time>2015-03-08T16:48:20Z</time>
			<fix>3d</fix>
		</trkpt>
		<trkpt lat="35.167195" lon="-106.441727">
			<ele>2194.86</ele>
			<time>2015-03-08T16:48:21Z</time>
			<fix>3d</fix>
		</trkpt>
		<trkpt lat="35.167195" lon="-106.441714">
			<ele>2194.75</ele>
			<time>2015-03-08T16:48:22Z</time>
			<fix>3d</fix>
		</trkpt>
		<trkpt lat="35.167193" lon="-106.441705">
			<ele>2194.86</ele>
			<time>2015-03-08T16:48:24Z</time>
			<fix>3d</fix>
		</trkpt>
		<trkpt lat="35.167194" lon="-106.441698">
			<ele>2194.96</ele>
			<time>2015-03-08T16:48:25Z</time>
			<fix>3d</fix>
		</trkpt>
		<trkpt lat="35.167194" lon="-106.441693">
			<ele>2195.06</ele>
			<time>2015-03-08T16:48:26Z</time>
			<fix>3d</fix>
		</trkpt>
		<trkpt lat="35.167198" lon="-106.441685">
			<ele>2195.06</ele>
			<time>2015-03-08T16:48:27Z</time>
			<fix>3d</fix>
		</trkpt>
		<trkpt lat="35.167210" lon="-106.441668">
			<ele>2195.07</ele>
			<time>2015-03-08T16:48:28Z</time>
			<fix>3d</fix>
		</trkpt>
		<trkpt lat="35.167213" lon="-106.441666">
			<ele>2195.07</ele>
			<time>2015-03-08T16:48:29Z</time>
			<fix>3d</fix>
		</trkpt>
		<trkpt lat="35.167223" lon="-106.441660">
			<ele>2194.97</ele>
			<time>2015-03-08T16:48:30Z</time>
			<fix>3d</fix>
		</trkpt>
		<trkpt lat="35.167236" lon="-106.441660">
			<ele>2195.07</ele>
			<time>2015-03-08T16:48:31Z</time>
			<fix>3d</fix>
		</trkpt>
		<trkpt lat="35.167242" lon="-106.441659">
			<ele>2194.97</ele>
			<time>2015-03-08T16:48:32Z</time>
			<fix>3d</fix>
		</trkpt>
		<trkpt lat="35.167253" lon="-106.441660">
			<ele>2194.97</ele>
			<time>2015-03-08T16:48:33Z</time>
			<fix>3d</fix>
		</trkpt>
		<trkpt lat="35.167261" lon="-106.441660">
			<ele>2195.18</ele>
			<time>2015-03-08T16:48:37Z</time>
			<fix>3d</fix>
		</trkpt>
		<trkpt lat="35.167265" lon="-106.441663">
			<ele>2195.39</ele>
			<time>2015-03-08T16:48:38Z</time>
			<fix>3d</fix>
		</trkpt>
		<trkpt lat="35.167279" lon="-106.441670">
			<ele>2195.49</ele>
			<time>2015-03-08T16:48:39Z</time>
			<fix>3d</fix>
		</trkpt>
		<trkpt lat="35.167284" lon="-106.441672">
			<ele>2195.49</ele>
			<time>2015-03-08T16:48:40Z</time>
			<fix>3d</fix>
		</trkpt>
		<trkpt lat="35.167289" lon="-106.441673">
			<ele>2195.90</ele>
			<time>2015-03-08T16:48:41Z</time>
			<fix>3d</fix>
		</trkpt>
		<trkpt lat="35.167313" lon="-106.441676">
			<ele>2196.21</ele>
			<time>2015-03-08T16:48:42Z</time>
			<fix>3d</fix>
		</trkpt>
		<trkpt lat="35.167321" lon="-106.441673">
			<ele>2196.42</ele>
			<time>2015-03-08T16:48:43Z</time>
			<fix>3d</fix>
		</trkpt>
		<trkpt lat="35.167331" lon="-106.441671">
			<ele>2196.73</ele>
			<time>2015-03-08T16:48:44Z</time>
			<fix>3d</fix>
		</trkpt>
		<trkpt lat="35.167336" lon="-106.441670">
			<ele>2196.93</ele>
			<time>2015-03-08T16:48:45Z</time>
			<fix>3d</fix>
		</trkpt>
		<trkpt lat="35.167350" lon="-106.441667">
			<ele>2197.34</ele>
			<time>2015-03-08T16:48:46Z</time>
			<fix>3d</fix>
		</trkpt>
		<trkpt lat="35.167355" lon="-106.441665">
			<ele>2197.76</ele>
			<time>2015-03-08T16:48:47Z</time>
			<fix>3d</fix>
		</trkpt>
		<trkpt lat="35.167361" lon="-106.441664">
			<ele>2197.86</ele>
			<time>2015-03-08T16:48:48Z</time>
			<fix>3d</fix>
		</trkpt>
		<trkpt lat="35.167376" lon="-106.441662">
			<ele>2197.86</ele>
			<time>2015-03-08T16:48:49Z</time>
			<fix>3d</fix>
		</trkpt>
		<trkpt lat="35.167387" lon="-106.441664">
			<ele>2198.07</ele>
			<time>2015-03-08T16:48:50Z</time>
			<fix>3d</fix>
		</trkpt>
		<trkpt lat="35.167396" lon="-106.441667">
			<ele>2198.27</ele>
			<time>2015-03-08T16:48:51Z</time>
			<fix>3d</fix>
		</trkpt>
		<trkpt lat="35.167406" lon="-106.441669">
			<ele>2198.38</ele>
			<time>2015-03-08T16:48:52Z</time>
			<fix>3d</fix>
		</trkpt>
		<trkpt lat="35.167424" lon="-106.441673">
			<ele>2198.38</ele>
			<time>2015-03-08T16:48:53Z</time>
			<fix>3d</fix>
		</trkpt>
		<trkpt lat="35.167427" lon="-106.441671">
			<ele>2198.38</ele>
			<time>2015-03-08T16:48:54Z</time>
			<fix>3d</fix>
		</trkpt>
		<trkpt lat="35.167448" lon="-106.441670">
			<ele>2198.49</ele>
			<time>2015-03-08T16:48:55Z</time>
			<fix>3d</fix>
		</trkpt>
		<trkpt lat="35.167457" lon="-106.441663">
			<ele>2198.90</ele>
			<time>2015-03-08T16:48:56Z</time>
			<fix>3d</fix>
		</trkpt>
		<trkpt lat="35.167470" lon="-106.441654">
			<ele>2198.80</ele>
			<time>2015-03-08T16:48:57Z</time>
			<fix>3d</fix>
		</trkpt>
		<trkpt lat="35.167473" lon="-106.441649">
			<ele>2198.90</ele>
			<time>2015-03-08T16:48:58Z</time>
			<fix>3d</fix>
		</trkpt>
		<trkpt lat="35.167477" lon="-106.441643">
			<ele>2199.11</ele>
			<time>2015-03-08T16:48:59Z</time>
			<fix>3d</fix>
		</trkpt>
		<trkpt lat="35.167484" lon="-106.441623">
			<ele>2199.21</ele>
			<time>2015-03-08T16:49:00Z</time>
			<fix>3d</fix>
		</trkpt>
		<trkpt lat="35.167485" lon="-106.441617">
			<ele>2199.32</ele>
			<time>2015-03-08T16:49:01Z</time>
			<fix>3d</fix>
		</trkpt>
		<trkpt lat="35.167488" lon="-106.441596">
			<ele>2199.63</ele>
			<time>2015-03-08T16:49:02Z</time>
			<fix>3d</fix>
		</trkpt>
		<trkpt lat="35.167488" lon="-106.441582">
			<ele>2199.73</ele>
			<time>2015-03-08T16:49:03Z</time>
			<fix>3d</fix>
		</trkpt>
		<trkpt lat="35.167488" lon="-106.441578">
			<ele>2199.94</ele>
			<time>2015-03-08T16:49:04Z</time>
			<fix>3d</fix>
		</trkpt>
		<trkpt lat="35.167490" lon="-106.441561">
			<ele>2200.25</ele>
			<time>2015-03-08T16:49:05Z</time>
			<fix>3d</fix>
		</trkpt>
		<trkpt lat="35.167493" lon="-106.441548">
			<ele>2200.45</ele>
			<time>2015-03-08T16:49:06Z</time>
			<fix>3d</fix>
		</trkpt>
		<trkpt lat="35.167495" lon="-106.441538">
			<ele>2200.87</ele>
			<time>2015-03-08T16:49:08Z</time>
			<fix>3d</fix>
		</trkpt>
		<trkpt lat="35.167498" lon="-106.441518">
			<ele>2200.87</ele>
			<time>2015-03-08T16:49:09Z</time>
			<fix>3d</fix>
		</trkpt>
		<trkpt lat="35.167499" lon="-106.441512">
			<ele>2200.97</ele>
			<time>2015-03-08T16:49:10Z</time>
			<fix>3d</fix>
		</trkpt>
		<trkpt lat="35.167502" lon="-106.441494">
			<ele>2200.97</ele>
			<time>2015-03-08T16:49:11Z</time>
			<fix>3d</fix>
		</trkpt>
		<trkpt lat="35.167503" lon="-106.441488">
			<ele>2201.08</ele>
			<time>2015-03-08T16:49:12Z</time>
			<fix>3d</fix>
		</trkpt>
		<trkpt lat="35.167505" lon="-106.441468">
			<ele>2201.18</ele>
			<time>2015-03-08T16:49:13Z</time>
			<fix>3d</fix>
		</trkpt>
		<trkpt lat="35.167504" lon="-106.441464">
			<ele>2202.08</ele>
			<time>2015-03-08T16:49:14Z</time>
			<fix>3d</fix>
		</trkpt>
		<trkpt lat="35.167500" lon="-106.441450">
			<ele>2202.29</ele>
			<time>2015-03-08T16:49:15Z</time>
			<fix>3d</fix>
		</trkpt>
		<trkpt lat="35.167498" lon="-106.441445">
			<ele>2202.40</ele>
			<time>2015-03-08T16:49:16Z</time>
			<fix>3d</fix>
		</trkpt>
		<trkpt lat="35.167495" lon="-106.441439">
			<ele>2202.40</ele>
			<time>2015-03-08T16:49:17Z</time>
			<fix>3d</fix>
		</trkpt>
		<trkpt lat="35.167491" lon="-106.441432">
			<ele>2202.40</ele>
			<time>2015-03-08T16:49:18Z</time>
			<fix>3d</fix>
		</trkpt>
		<trkpt lat="35.167477" lon="-106.441411">
			<ele>2202.61</ele>
			<time>2015-03-08T16:49:19Z</time>
			<fix>3d</fix>
		</trkpt>
		<trkpt lat="35.167475" lon="-106.441406">
			<ele>2203.02</ele>
			<time>2015-03-08T16:49:20Z</time>
			<fix>3d</fix>
		</trkpt>
		<trkpt lat="35.167469" lon="-106.441392">
			<ele>2203.02</ele>
			<time>2015-03-08T16:49:21Z</time>
			<fix>3d</fix>
		</trkpt>
		<trkpt lat="35.167463" lon="-106.441383">
			<ele>2203.13</ele>
			<time>2015-03-08T16:49:22Z</time>
			<fix>3d</fix>
		</trkpt>
		<trkpt lat="35.167457" lon="-106.441369">
			<ele>2203.44</ele>
			<time>2015-03-08T16:49:23Z</time>
			<fix>3d</fix>
		</trkpt>
		<trkpt lat="35.167456" lon="-106.441364">
			<ele>2203.75</ele>
			<time>2015-03-08T16:49:25Z</time>
			<fix>3d</fix>
		</trkpt>
		<trkpt lat="35.167455" lon="-106.441347">
			<ele>2204.36</ele>
			<time>2015-03-08T16:49:26Z</time>
			<fix>3d</fix>
		</trkpt>
		<trkpt lat="35.167453" lon="-106.441342">
			<ele>2204.78</ele>
			<time>2015-03-08T16:49:27Z</time>
			<fix>3d</fix>
		</trkpt>
		<trkpt lat="35.167448" lon="-106.441325">
			<ele>2204.78</ele>
			<time>2015-03-08T16:49:28Z</time>
			<fix>3d</fix>
		</trkpt>
		<trkpt lat="35.167445" lon="-106.441315">
			<ele>2205.09</ele>
			<time>2015-03-08T16:49:30Z</time>
			<fix>3d</fix>
		</trkpt>
		<trkpt lat="35.167442" lon="-106.441298">
			<ele>2205.09</ele>
			<time>2015-03-08T16:49:31Z</time>
			<fix>3d</fix>
		</trkpt>
		<trkpt lat="35.167447" lon="-106.441290">
			<ele>2205.48</ele>
			<time>2015-03-08T16:50:02Z</time>
			<fix>3d</fix>
		</trkpt>
		<trkpt lat="35.167447" lon="-106.441285">
			<ele>2205.58</ele>
			<time>2015-03-08T16:50:04Z</time>
			<fix>3d</fix>
		</trkpt>
		<trkpt lat="35.167452" lon="-106.441273">
			<ele>2205.58</ele>
			<time>2015-03-08T16:50:05Z</time>
			<fix>3d</fix>
		</trkpt>
		<trkpt lat="35.167463" lon="-106.441259">
			<ele>2205.59</ele>
			<time>2015-03-08T16:50:06Z</time>
			<fix>3d</fix>
		</trkpt>
		<trkpt lat="35.167467" lon="-106.441249">
			<ele>2205.69</ele>
			<time>2015-03-08T16:50:07Z</time>
			<fix>3d</fix>
		</trkpt>
		<trkpt lat="35.167478" lon="-106.441238">
			<ele>2205.69</ele>
			<time>2015-03-08T16:50:08Z</time>
			<fix>3d</fix>
		</trkpt>
		<trkpt lat="35.167482" lon="-106.441227">
			<ele>2205.90</ele>
			<time>2015-03-08T16:50:09Z</time>
			<fix>3d</fix>
		</trkpt>
		<trkpt lat="35.167484" lon="-106.441214">
			<ele>2206.00</ele>
			<time>2015-03-08T16:50:10Z</time>
			<fix>3d</fix>
		</trkpt>
		<trkpt lat="35.167487" lon="-106.441200">
			<ele>2206.11</ele>
			<time>2015-03-08T16:50:11Z</time>
			<fix>3d</fix>
		</trkpt>
		<trkpt lat="35.167488" lon="-106.441188">
			<ele>2206.31</ele>
			<time>2015-03-08T16:50:12Z</time>
			<fix>3d</fix>
		</trkpt>
		<trkpt lat="35.167488" lon="-106.441174">
			<ele>2206.32</ele>
			<time>2015-03-08T16:50:13Z</time>
			<fix>3d</fix>
		</trkpt>
		<trkpt lat="35.167487" lon="-106.441168">
			<ele>2206.97</ele>
			<time>2015-03-08T16:50:14Z</time>
			<fix>3d</fix>
		</trkpt>
		<trkpt lat="35.167485" lon="-106.441150">
			<ele>2206.97</ele>
			<time>2015-03-08T16:50:15Z</time>
			<fix>3d</fix>
		</trkpt>
		<trkpt lat="35.167481" lon="-106.441137">
			<ele>2207.08</ele>
			<time>2015-03-08T16:50:16Z</time>
			<fix>3d</fix>
		</trkpt>
		<trkpt lat="35.167479" lon="-106.441132">
			<ele>2207.59</ele>
			<time>2015-03-08T16:50:17Z</time>
			<fix>3d</fix>
		</trkpt>
		<trkpt lat="35.167471" lon="-106.441120">
			<ele>2208.10</ele>
			<time>2015-03-08T16:50:18Z</time>
			<fix>3d</fix>
		</trkpt>
		<trkpt lat="35.167462" lon="-106.441109">
			<ele>2208.21</ele>
			<time>2015-03-08T16:50:19Z</time>
			<fix>3d</fix>
		</trkpt>
		<trkpt lat="35.167460" lon="-106.441105">
			<ele>2208.21</ele>
			<time>2015-03-08T16:50:20Z</time>
			<fix>3d</fix>
		</trkpt>
		<trkpt lat="35.167456" lon="-106.441090">
			<ele>2208.31</ele>
			<time>2015-03-08T16:50:21Z</time>
			<fix>3d</fix>
		</trkpt>
		<trkpt lat="35.167453" lon="-106.441078">
			<ele>2208.32</ele>
			<time>2015-03-08T16:50:22Z</time>
			<fix>3d</fix>
		</trkpt>
		<trkpt lat="35.167453" lon="-106.441073">
			<ele>2208.42</ele>
			<time>2015-03-08T16:50:23Z</time>
			<fix>3d</fix>
		</trkpt>
		<trkpt lat="35.167453" lon="-106.441066">
			<ele>2208.52</ele>
			<time>2015-03-08T16:50:24Z</time>
			<fix>3d</fix>
		</trkpt>
		<trkpt lat="35.167453" lon="-106.441059">
			<ele>2208.53</ele>
			<time>2015-03-08T16:50:25Z</time>
			<fix>3d</fix>
		</trkpt>
		<trkpt lat="35.167457" lon="-106.441040">
			<ele>2208.63</ele>
			<time>2015-03-08T16:50:26Z</time>
			<fix>3d</fix>
		</trkpt>
		<trkpt lat="35.167456" lon="-106.441036">
			<ele>2208.63</ele>
			<time>2015-03-08T16:50:27Z</time>
			<fix>3d</fix>
		</trkpt>
		<trkpt lat="35.167458" lon="-106.441029">
			<ele>2208.84</ele>
			<time>2015-03-08T16:50:28Z</time>
			<fix>3d</fix>
		</trkpt>
		<trkpt lat="35.167461" lon="-106.441022">
			<ele>2209.36</ele>
			<time>2015-03-08T16:50:29Z</time>
			<fix>3d</fix>
		</trkpt>
		<trkpt lat="35.167467" lon="-106.441002">
			<ele>2209.46</ele>
			<time>2015-03-08T16:50:30Z</time>
			<fix>3d</fix>
		</trkpt>
		<trkpt lat="35.167468" lon="-106.440992">
			<ele>2209.78</ele>
			<time>2015-03-08T16:50:32Z</time>
			<fix>3d</fix>
		</trkpt>
		<trkpt lat="35.167476" lon="-106.440970">
			<ele>2210.09</ele>
			<time>2015-03-08T16:50:33Z</time>
			<fix>3d</fix>
		</trkpt>
		<trkpt lat="35.167480" lon="-106.440958">
			<ele>2210.09</ele>
			<time>2015-03-08T16:50:34Z</time>
			<fix>3d</fix>
		</trkpt>
		<trkpt lat="35.167481" lon="-106.440946">
			<ele>2210.09</ele>
			<time>2015-03-08T16:50:35Z</time>
			<fix>3d</fix>
		</trkpt>
		<trkpt lat="35.167485" lon="-106.440932">
			<ele>2210.10</ele>
			<time>2015-03-08T16:50:36Z</time>
			<fix>3d</fix>
		</trkpt>
		<trkpt lat="35.167484" lon="-106.440920">
			<ele>2210.20</ele>
			<time>2015-03-08T16:50:37Z</time>
			<fix>3d</fix>
		</trkpt>
		<trkpt lat="35.167484" lon="-106.440915">
			<ele>2210.31</ele>
			<time>2015-03-08T16:50:38Z</time>
			<fix>3d</fix>
		</trkpt>
		<trkpt lat="35.167486" lon="-106.440900">
			<ele>2210.31</ele>
			<time>2015-03-08T16:50:39Z</time>
			<fix>3d</fix>
		</trkpt>
		<trkpt lat="35.167488" lon="-106.440887">
			<ele>2210.52</ele>
			<time>2015-03-08T16:50:40Z</time>
			<fix>3d</fix>
		</trkpt>
		<trkpt lat="35.167489" lon="-106.440881">
			<ele>2210.83</ele>
			<time>2015-03-08T16:50:41Z</time>
			<fix>3d</fix>
		</trkpt>
		<trkpt lat="35.167491" lon="-106.440859">
			<ele>2211.04</ele>
			<time>2015-03-08T16:50:42Z</time>
			<fix>3d</fix>
		</trkpt>
		<trkpt lat="35.167490" lon="-106.440844">
			<ele>2211.15</ele>
			<time>2015-03-08T16:50:43Z</time>
			<fix>3d</fix>
		</trkpt>
		<trkpt lat="35.167489" lon="-106.440835">
			<ele>2211.47</ele>
			<time>2015-03-08T16:50:46Z</time>
			<fix>3d</fix>
		</trkpt>
		<trkpt lat="35.167489" lon="-106.440824">
			<ele>2211.89</ele>
			<time>2015-03-08T16:50:48Z</time>
			<fix>3d</fix>
		</trkpt>
		<trkpt lat="35.167491" lon="-106.440814">
			<ele>2211.99</ele>
			<time>2015-03-08T16:50:49Z</time>
			<fix>3d</fix>
		</trkpt>
		<trkpt lat="35.167500" lon="-106.440786">
			<ele>2212.00</ele>
			<time>2015-03-08T16:50:50Z</time>
			<fix>3d</fix>
		</trkpt>
		<trkpt lat="35.167500" lon="-106.440781">
			<ele>2212.10</ele>
			<time>2015-03-08T16:50:51Z</time>
			<fix>3d</fix>
		</trkpt>
		<trkpt lat="35.167501" lon="-106.440774">
			<ele>2212.11</ele>
			<time>2015-03-08T16:50:52Z</time>
			<fix>3d</fix>
		</trkpt>
		<trkpt lat="35.167502" lon="-106.440766">
			<ele>2212.11</ele>
			<time>2015-03-08T16:50:53Z</time>
			<fix>3d</fix>
		</trkpt>
		<trkpt lat="35.167502" lon="-106.440756">
			<ele>2212.22</ele>
			<time>2015-03-08T16:50:54Z</time>
			<fix>3d</fix>
		</trkpt>
		<trkpt lat="35.167501" lon="-106.440746">
			<ele>2212.32</ele>
			<time>2015-03-08T16:50:55Z</time>
			<fix>3d</fix>
		</trkpt>
		<trkpt lat="35.167499" lon="-106.440721">
			<ele>2212.43</ele>
			<time>2015-03-08T16:50:56Z</time>
			<fix>3d</fix>
		</trkpt>
		<trkpt lat="35.167497" lon="-106.440711">
			<ele>2212.85</ele>
			<time>2015-03-08T16:50:58Z</time>
			<fix>3d</fix>
		</trkpt>
		<trkpt lat="35.167496" lon="-106.440702">
			<ele>2212.85</ele>
			<time>2015-03-08T16:50:59Z</time>
			<fix>3d</fix>
		</trkpt>
		<trkpt lat="35.167496" lon="-106.440679">
			<ele>2212.86</ele>
			<time>2015-03-08T16:51:00Z</time>
			<fix>3d</fix>
		</trkpt>
		<trkpt lat="35.167496" lon="-106.440662">
			<ele>2212.86</ele>
			<time>2015-03-08T16:51:01Z</time>
			<fix>3d</fix>
		</trkpt>
		<trkpt lat="35.167493" lon="-106.440647">
			<ele>2212.86</ele>
			<time>2015-03-08T16:51:02Z</time>
			<fix>3d</fix>
		</trkpt>
		<trkpt lat="35.167492" lon="-106.440642">
			<ele>2212.97</ele>
			<time>2015-03-08T16:51:03Z</time>
			<fix>3d</fix>
		</trkpt>
		<trkpt lat="35.167490" lon="-106.440625">
			<ele>2213.08</ele>
			<time>2015-03-08T16:51:04Z</time>
			<fix>3d</fix>
		</trkpt>
		<trkpt lat="35.167492" lon="-106.440610">
			<ele>2213.39</ele>
			<time>2015-03-08T16:51:05Z</time>
			<fix>3d</fix>
		</trkpt>
		<trkpt lat="35.167493" lon="-106.440601">
			<ele>2213.40</ele>
			<time>2015-03-08T16:51:07Z</time>
			<fix>3d</fix>
		</trkpt>
		<trkpt lat="35.167494" lon="-106.440593">
			<ele>2213.51</ele>
			<time>2015-03-08T16:51:08Z</time>
			<fix>3d</fix>
		</trkpt>
		<trkpt lat="35.167493" lon="-106.440570">
			<ele>2213.93</ele>
			<time>2015-03-08T16:51:09Z</time>
			<fix>3d</fix>
		</trkpt>
		<trkpt lat="35.167492" lon="-106.440564">
			<ele>2214.45</ele>
			<time>2015-03-08T16:51:10Z</time>
			<fix>3d</fix>
		</trkpt>
		<trkpt lat="35.167491" lon="-106.440556">
			<ele>2214.76</ele>
			<time>2015-03-08T16:51:11Z</time>
			<fix>3d</fix>
		</trkpt>
		<trkpt lat="35.167495" lon="-106.440529">
			<ele>2214.87</ele>
			<time>2015-03-08T16:51:12Z</time>
			<fix>3d</fix>
		</trkpt>
		<trkpt lat="35.167496" lon="-106.440523">
			<ele>2214.88</ele>
			<time>2015-03-08T16:51:13Z</time>
			<fix>3d</fix>
		</trkpt>
		<trkpt lat="35.167496" lon="-106.440516">
			<ele>2215.31</ele>
			<time>2015-03-08T16:51:14Z</time>
			<fix>3d</fix>
		</trkpt>
		<trkpt lat="35.167495" lon="-106.440508">
			<ele>2215.31</ele>
			<time>2015-03-08T16:51:15Z</time>
			<fix>3d</fix>
		</trkpt>
		<trkpt lat="35.167496" lon="-106.440498">
			<ele>2215.32</ele>
			<time>2015-03-08T16:51:16Z</time>
			<fix>3d</fix>
		</trkpt>
		<trkpt lat="35.167496" lon="-106.440488">
			<ele>2215.32</ele>
			<time>2015-03-08T16:51:17Z</time>
			<fix>3d</fix>
		</trkpt>
		<trkpt lat="35.167496" lon="-106.440477">
			<ele>2215.43</ele>
			<time>2015-03-08T16:51:18Z</time>
			<fix>3d</fix>
		</trkpt>
		<trkpt lat="35.167497" lon="-106.440449">
			<ele>2215.44</ele>
			<time>2015-03-08T16:51:19Z</time>
			<fix>3d</fix>
		</trkpt>
		<trkpt lat="35.167497" lon="-106.440430">
			<ele>2215.44</ele>
			<time>2015-03-08T16:51:20Z</time>
			<fix>3d</fix>
		</trkpt>
		<trkpt lat="35.167496" lon="-106.440428">
			<ele>2215.55</ele>
			<time>2015-03-08T16:51:21Z</time>
			<fix>3d</fix>
		</trkpt>
		<trkpt lat="35.167498" lon="-106.440409">
			<ele>2215.86</ele>
			<time>2015-03-08T16:51:22Z</time>
			<fix>3d</fix>
		</trkpt>
		<trkpt lat="35.167497" lon="-106.440392">
			<ele>2216.18</ele>
			<time>2015-03-08T16:51:23Z</time>
			<fix>3d</fix>
		</trkpt>
		<trkpt lat="35.167496" lon="-106.440385">
			<ele>2216.39</ele>
			<time>2015-03-08T16:51:24Z</time>
			<fix>3d</fix>
		</trkpt>
		<trkpt lat="35.167494" lon="-106.440365">
			<ele>2216.60</ele>
			<time>2015-03-08T16:51:25Z</time>
			<fix>3d</fix>
		</trkpt>
		<trkpt lat="35.167492" lon="-106.440356">
			<ele>2216.92</ele>
			<time>2015-03-08T16:51:27Z</time>
			<fix>3d</fix>
		</trkpt>
		<trkpt lat="35.167491" lon="-106.440349">
			<ele>2217.03</ele>
			<time>2015-03-08T16:51:29Z</time>
			<fix>3d</fix>
		</trkpt>
		<trkpt lat="35.167491" lon="-106.440343">
			<ele>2217.14</ele>
			<time>2015-03-08T16:51:30Z</time>
			<fix>3d</fix>
		</trkpt>
		<trkpt lat="35.167500" lon="-106.440322">
			<ele>2217.35</ele>
			<time>2015-03-08T16:51:31Z</time>
			<fix>3d</fix>
		</trkpt>
		<trkpt lat="35.167505" lon="-106.440314">
			<ele>2217.57</ele>
			<time>2015-03-08T16:51:33Z</time>
			<fix>3d</fix>
		</trkpt>
		<trkpt lat="35.167512" lon="-106.440309">
			<ele>2217.57</ele>
			<time>2015-03-08T16:51:34Z</time>
			<fix>3d</fix>
		</trkpt>
		<trkpt lat="35.167530" lon="-106.440295">
			<ele>2217.68</ele>
			<time>2015-03-08T16:51:35Z</time>
			<fix>3d</fix>
		</trkpt>
		<trkpt lat="35.167538" lon="-106.440291">
			<ele>2218.52</ele>
			<time>2015-03-08T16:51:37Z</time>
			<fix>3d</fix>
		</trkpt>
		<trkpt lat="35.167543" lon="-106.440289">
			<ele>2218.84</ele>
			<time>2015-03-08T16:51:39Z</time>
			<fix>3d</fix>
		</trkpt>
		<trkpt lat="35.167550" lon="-106.440288">
			<ele>2218.85</ele>
			<time>2015-03-08T16:51:41Z</time>
			<fix>3d</fix>
		</trkpt>
		<trkpt lat="35.167556" lon="-106.440290">
			<ele>2218.85</ele>
			<time>2015-03-08T16:51:42Z</time>
			<fix>3d</fix>
		</trkpt>
		<trkpt lat="35.167562" lon="-106.440291">
			<ele>2218.96</ele>
			<time>2015-03-08T16:51:43Z</time>
			<fix>3d</fix>
		</trkpt>
		<trkpt lat="35.167566" lon="-106.440292">
			<ele>2218.97</ele>
			<time>2015-03-08T16:51:44Z</time>
			<fix>3d</fix>
		</trkpt>
		<trkpt lat="35.167571" lon="-106.440292">
			<ele>2219.08</ele>
			<time>2015-03-08T16:51:45Z</time>
			<fix>3d</fix>
		</trkpt>
		<trkpt lat="35.167577" lon="-106.440291">
			<ele>2218.88</ele>
			<time>2015-03-08T16:51:47Z</time>
			<fix>3d</fix>
		</trkpt>
		<trkpt lat="35.167584" lon="-106.440293">
			<ele>2218.89</ele>
			<time>2015-03-08T16:51:49Z</time>
			<fix>3d</fix>
		</trkpt>
		<trkpt lat="35.167599" lon="-106.440303">
			<ele>2218.79</ele>
			<time>2015-03-08T16:51:50Z</time>
			<fix>3d</fix>
		</trkpt>
		<trkpt lat="35.167610" lon="-106.440309">
			<ele>2218.80</ele>
			<time>2015-03-08T16:51:51Z</time>
			<fix>3d</fix>
		</trkpt>
		<trkpt lat="35.167621" lon="-106.440313">
			<ele>2218.80</ele>
			<time>2015-03-08T16:51:52Z</time>
			<fix>3d</fix>
		</trkpt>
		<trkpt lat="35.167628" lon="-106.440310">
			<ele>2218.93</ele>
			<time>2015-03-08T16:51:55Z</time>
			<fix>3d</fix>
		</trkpt>
		<trkpt lat="35.167636" lon="-106.440310">
			<ele>2218.93</ele>
			<time>2015-03-08T16:51:56Z</time>
			<fix>3d</fix>
		</trkpt>
		<trkpt lat="35.167644" lon="-106.440310">
			<ele>2218.94</ele>
			<time>2015-03-08T16:51:57Z</time>
			<fix>3d</fix>
		</trkpt>
		<trkpt lat="35.167652" lon="-106.440310">
			<ele>2219.05</ele>
			<time>2015-03-08T16:51:58Z</time>
			<fix>3d</fix>
		</trkpt>
		<trkpt lat="35.167671" lon="-106.440311">
			<ele>2219.26</ele>
			<time>2015-03-08T16:51:59Z</time>
			<fix>3d</fix>
		</trkpt>
		<trkpt lat="35.167676" lon="-106.440312">
			<ele>2219.57</ele>
			<time>2015-03-08T16:52:00Z</time>
			<fix>3d</fix>
		</trkpt>
		<trkpt lat="35.167689" lon="-106.440318">
			<ele>2220.51</ele>
			<time>2015-03-08T16:52:01Z</time>
			<fix>3d</fix>
		</trkpt>
		<trkpt lat="35.167692" lon="-106.440320">
			<ele>2220.41</ele>
			<time>2015-03-08T16:52:02Z</time>
			<fix>3d</fix>
		</trkpt>
		<trkpt lat="35.167709" lon="-106.440328">
			<ele>2220.42</ele>
			<time>2015-03-08T16:52:03Z</time>
			<fix>3d</fix>
		</trkpt>
		<trkpt lat="35.167724" lon="-106.440330">
			<ele>2220.53</ele>
			<time>2015-03-08T16:52:04Z</time>
			<fix>3d</fix>
		</trkpt>
		<trkpt lat="35.167727" lon="-106.440328">
			<ele>2220.53</ele>
			<time>2015-03-08T16:52:05Z</time>
			<fix>3d</fix>
		</trkpt>
		<trkpt lat="35.167740" lon="-106.440322">
			<ele>2220.54</ele>
			<time>2015-03-08T16:52:06Z</time>
			<fix>3d</fix>
		</trkpt>
		<trkpt lat="35.167757" lon="-106.440322">
			<ele>2220.54</ele>
			<time>2015-03-08T16:52:07Z</time>
			<fix>3d</fix>
		</trkpt>
		<trkpt lat="35.167766" lon="-106.440317">
			<ele>2220.76</ele>
			<time>2015-03-08T16:52:08Z</time>
			<fix>3d</fix>
		</trkpt>
		<trkpt lat="35.167778" lon="-106.440310">
			<ele>2220.97</ele>
			<time>2015-03-08T16:52:09Z</time>
			<fix>3d</fix>
		</trkpt>
		<trkpt lat="35.167787" lon="-106.440301">
			<ele>2221.18</ele>
			<time>2015-03-08T16:52:10Z</time>
			<fix>3d</fix>
		</trkpt>
		<trkpt lat="35.167795" lon="-106.440290">
			<ele>2221.19</ele>
			<time>2015-03-08T16:52:11Z</time>
			<fix>3d</fix>
		</trkpt>
		<trkpt lat="35.167803" lon="-106.440279">
			<ele>2221.30</ele>
			<time>2015-03-08T16:52:12Z</time>
			<fix>3d</fix>
		</trkpt>
		<trkpt lat="35.167808" lon="-106.440275">
			<ele>2221.40</ele>
			<time>2015-03-08T16:52:13Z</time>
			<fix>3d</fix>
		</trkpt>
		<trkpt lat="35.167833" lon="-106.440261">
			<ele>2221.74</ele>
			<time>2015-03-08T16:52:14Z</time>
			<fix>3d</fix>
		</trkpt>
		<trkpt lat="35.167840" lon="-106.440252">
			<ele>2221.85</ele>
			<time>2015-03-08T16:52:15Z</time>
			<fix>3d</fix>
		</trkpt>
		<trkpt lat="35.167852" lon="-106.440239">
			<ele>2221.96</ele>
			<time>2015-03-08T16:52:16Z</time>
			<fix>3d</fix>
		</trkpt>
		<trkpt lat="35.167855" lon="-106.440234">
			<ele>2222.58</ele>
			<time>2015-03-08T16:52:17Z</time>
			<fix>3d</fix>
		</trkpt>
		<trkpt lat="35.167866" lon="-106.440219">
			<ele>2222.59</ele>
			<time>2015-03-08T16:52:18Z</time>
			<fix>3d</fix>
		</trkpt>
		<trkpt lat="35.167869" lon="-106.440214">
			<ele>2222.59</ele>
			<time>2015-03-08T16:52:19Z</time>
			<fix>3d</fix>
		</trkpt>
		<trkpt lat="35.167874" lon="-106.440208">
			<ele>2222.60</ele>
			<time>2015-03-08T16:52:20Z</time>
			<fix>3d</fix>
		</trkpt>
		<trkpt lat="35.167885" lon="-106.440192">
			<ele>2222.70</ele>
			<time>2015-03-08T16:52:21Z</time>
			<fix>3d</fix>
		</trkpt>
		<trkpt lat="35.167893" lon="-106.440180">
			<ele>2223.02</ele>
			<time>2015-03-08T16:52:22Z</time>
			<fix>3d</fix>
		</trkpt>
		<trkpt lat="35.167902" lon="-106.440170">
			<ele>2224.05</ele>
			<time>2015-03-08T16:52:23Z</time>
			<fix>3d</fix>
		</trkpt>
		<trkpt lat="35.167906" lon="-106.440166">
			<ele>2224.06</ele>
			<time>2015-03-08T16:52:24Z</time>
			<fix>3d</fix>
		</trkpt>
		<trkpt lat="35.167917" lon="-106.440151">
			<ele>2224.16</ele>
			<time>2015-03-08T16:52:25Z</time>
			<fix>3d</fix>
		</trkpt>
		<trkpt lat="35.167925" lon="-106.440136">
			<ele>2224.17</ele>
			<time>2015-03-08T16:52:26Z</time>
			<fix>3d</fix>
		</trkpt>
		<trkpt lat="35.167936" lon="-106.440118">
			<ele>2224.17</ele>
			<time>2015-03-08T16:52:27Z</time>
			<fix>3d</fix>
		</trkpt>
		<trkpt lat="35.167942" lon="-106.440105">
			<ele>2224.27</ele>
			<time>2015-03-08T16:52:28Z</time>
			<fix>3d</fix>
		</trkpt>
		<trkpt lat="35.167945" lon="-106.440101">
			<ele>2224.59</ele>
			<time>2015-03-08T16:52:29Z</time>
			<fix>3d</fix>
		</trkpt>
		<trkpt lat="35.167949" lon="-106.440096">
			<ele>2224.80</ele>
			<time>2015-03-08T16:52:30Z</time>
			<fix>3d</fix>
		</trkpt>
		<trkpt lat="35.167962" lon="-106.440085">
			<ele>2225.31</ele>
			<time>2015-03-08T16:52:31Z</time>
			<fix>3d</fix>
		</trkpt>
		<trkpt lat="35.167966" lon="-106.440082">
			<ele>2225.32</ele>
			<time>2015-03-08T16:52:32Z</time>
			<fix>3d</fix>
		</trkpt>
		<trkpt lat="35.167979" lon="-106.440071">
			<ele>2225.32</ele>
			<time>2015-03-08T16:52:33Z</time>
			<fix>3d</fix>
		</trkpt>
		<trkpt lat="35.167995" lon="-106.440065">
			<ele>2225.32</ele>
			<time>2015-03-08T16:52:34Z</time>
			<fix>3d</fix>
		</trkpt>
		<trkpt lat="35.167998" lon="-106.440063">
			<ele>2225.43</ele>
			<time>2015-03-08T16:52:35Z</time>
			<fix>3d</fix>
		</trkpt>
		<trkpt lat="35.168009" lon="-106.440061">
			<ele>2225.43</ele>
			<time>2015-03-08T16:52:36Z</time>
			<fix>3d</fix>
		</trkpt>
		<trkpt lat="35.168025" lon="-106.440065">
			<ele>2225.43</ele>
			<time>2015-03-08T16:52:37Z</time>
			<fix>3d</fix>
		</trkpt>
		<trkpt lat="35.168033" lon="-106.440064">
			<ele>2225.43</ele>
			<time>2015-03-08T16:52:39Z</time>
			<fix>3d</fix>
		</trkpt>
		<trkpt lat="35.168037" lon="-106.440064">
			<ele>2225.43</ele>
			<time>2015-03-08T16:52:40Z</time>
			<fix>3d</fix>
		</trkpt>
		<trkpt lat="35.168046" lon="-106.440068">
			<ele>2225.44</ele>
			<time>2015-03-08T16:52:41Z</time>
			<fix>3d</fix>
		</trkpt>
		<trkpt lat="35.168048" lon="-106.440071">
			<ele>2225.44</ele>
			<time>2015-03-08T16:52:42Z</time>
			<fix>3d</fix>
		</trkpt>
		<trkpt lat="35.168057" lon="-106.440070">
			<ele>2225.55</ele>
			<time>2015-03-08T16:52:48Z</time>
			<fix>3d</fix>
		</trkpt>
		<trkpt lat="35.168076" lon="-106.440060">
			<ele>2225.66</ele>
			<time>2015-03-08T16:52:53Z</time>
			<fix>3d</fix>
		</trkpt>
		<trkpt lat="35.168079" lon="-106.440050">
			<ele>2225.57</ele>
			<time>2015-03-08T16:53:02Z</time>
			<fix>3d</fix>
		</trkpt>
		<trkpt lat="35.168082" lon="-106.440040">
			<ele>2226.25</ele>
			<time>2015-03-08T16:53:42Z</time>
			<fix>3d</fix>
		</trkpt>
		<trkpt lat="35.168089" lon="-106.440034">
			<ele>2226.11</ele>
			<time>2015-03-08T16:54:22Z</time>
			<fix>3d</fix>
		</trkpt>
		<trkpt lat="35.168081" lon="-106.440014">
			<ele>2226.10</ele>
			<time>2015-03-08T16:54:33Z</time>
			<fix>3d</fix>
		</trkpt>
		<trkpt lat="35.168077" lon="-106.440002">
			<ele>2226.10</ele>
			<time>2015-03-08T16:54:34Z</time>
			<fix>3d</fix>
		</trkpt>
		<trkpt lat="35.168076" lon="-106.439988">
			<ele>2226.10</ele>
			<time>2015-03-08T16:54:35Z</time>
			<fix>3d</fix>
		</trkpt>
		<trkpt lat="35.168077" lon="-106.439972">
			<ele>2226.20</ele>
			<time>2015-03-08T16:54:36Z</time>
			<fix>3d</fix>
		</trkpt>
		<trkpt lat="35.168078" lon="-106.439960">
			<ele>2226.20</ele>
			<time>2015-03-08T16:54:37Z</time>
			<fix>3d</fix>
		</trkpt>
		<trkpt lat="35.168078" lon="-106.439947">
			<ele>2226.30</ele>
			<time>2015-03-08T16:54:38Z</time>
			<fix>3d</fix>
		</trkpt>
		<trkpt lat="35.168077" lon="-106.439934">
			<ele>2226.61</ele>
			<time>2015-03-08T16:54:39Z</time>
			<fix>3d</fix>
		</trkpt>
		<trkpt lat="35.168077" lon="-106.439930">
			<ele>2227.33</ele>
			<time>2015-03-08T16:54:40Z</time>
			<fix>3d</fix>
		</trkpt>
		<trkpt lat="35.168075" lon="-106.439915">
			<ele>2228.15</ele>
			<time>2015-03-08T16:54:41Z</time>
			<fix>3d</fix>
		</trkpt>
		<trkpt lat="35.168074" lon="-106.439910">
			<ele>2228.05</ele>
			<time>2015-03-08T16:54:42Z</time>
			<fix>3d</fix>
		</trkpt>
		<trkpt lat="35.168070" lon="-106.439891">
			<ele>2228.05</ele>
			<time>2015-03-08T16:54:43Z</time>
			<fix>3d</fix>
		</trkpt>
		<trkpt lat="35.168069" lon="-106.439886">
			<ele>2228.04</ele>
			<time>2015-03-08T16:54:44Z</time>
			<fix>3d</fix>
		</trkpt>
		<trkpt lat="35.168065" lon="-106.439871">
			<ele>2228.14</ele>
			<time>2015-03-08T16:54:45Z</time>
			<fix>3d</fix>
		</trkpt>
		<trkpt lat="35.168063" lon="-106.439866">
			<ele>2228.25</ele>
			<time>2015-03-08T16:54:46Z</time>
			<fix>3d</fix>
		</trkpt>
		<trkpt lat="35.168057" lon="-106.439850">
			<ele>2228.45</ele>
			<time>2015-03-08T16:54:47Z</time>
			<fix>3d</fix>
		</trkpt>
		<trkpt lat="35.168054" lon="-106.439837">
			<ele>2228.45</ele>
			<time>2015-03-08T16:54:48Z</time>
			<fix>3d</fix>
		</trkpt>
		<trkpt lat="35.168049" lon="-106.439825">
			<ele>2228.55</ele>
			<time>2015-03-08T16:54:49Z</time>
			<fix>3d</fix>
		</trkpt>
		<trkpt lat="35.168047" lon="-106.439820">
			<ele>2228.65</ele>
			<time>2015-03-08T16:54:50Z</time>
			<fix>3d</fix>
		</trkpt>
		<trkpt lat="35.168046" lon="-106.439814">
			<ele>2229.37</ele>
			<time>2015-03-08T16:54:51Z</time>
			<fix>3d</fix>
		</trkpt>
		<trkpt lat="35.168041" lon="-106.439797">
			<ele>2229.89</ele>
			<time>2015-03-08T16:54:52Z</time>
			<fix>3d</fix>
		</trkpt>
		<trkpt lat="35.168040" lon="-106.439793">
			<ele>2229.99</ele>
			<time>2015-03-08T16:54:53Z</time>
			<fix>3d</fix>
		</trkpt>
		<trkpt lat="35.168034" lon="-106.439779">
			<ele>2229.99</ele>
			<time>2015-03-08T16:54:54Z</time>
			<fix>3d</fix>
		</trkpt>
		<trkpt lat="35.168035" lon="-106.439774">
			<ele>2230.08</ele>
			<time>2015-03-08T16:54:59Z</time>
			<fix>3d</fix>
		</trkpt>
		<trkpt lat="35.168039" lon="-106.439761">
			<ele>2230.08</ele>
			<time>2015-03-08T16:55:00Z</time>
			<fix>3d</fix>
		</trkpt>
		<trkpt lat="35.168043" lon="-106.439749">
			<ele>2230.18</ele>
			<time>2015-03-08T16:55:01Z</time>
			<fix>3d</fix>
		</trkpt>
		<trkpt lat="35.168045" lon="-106.439744">
			<ele>2230.28</ele>
			<time>2015-03-08T16:55:02Z</time>
			<fix>3d</fix>
		</trkpt>
		<trkpt lat="35.168049" lon="-106.439729">
			<ele>2230.28</ele>
			<time>2015-03-08T16:55:03Z</time>
			<fix>3d</fix>
		</trkpt>
		<trkpt lat="35.168050" lon="-106.439724">
			<ele>2230.59</ele>
			<time>2015-03-08T16:55:04Z</time>
			<fix>3d</fix>
		</trkpt>
		<trkpt lat="35.168052" lon="-106.439704">
			<ele>2230.79</ele>
			<time>2015-03-08T16:55:05Z</time>
			<fix>3d</fix>
		</trkpt>
		<trkpt lat="35.168052" lon="-106.439699">
			<ele>2230.79</ele>
			<time>2015-03-08T16:55:06Z</time>
			<fix>3d</fix>
		</trkpt>
		<trkpt lat="35.168050" lon="-106.439677">
			<ele>2230.90</ele>
			<time>2015-03-08T16:55:07Z</time>
			<fix>3d</fix>
		</trkpt>
		<trkpt lat="35.168049" lon="-106.439672">
			<ele>2231.10</ele>
			<time>2015-03-08T16:55:08Z</time>
			<fix>3d</fix>
		</trkpt>
		<trkpt lat="35.168044" lon="-106.439656">
			<ele>2231.41</ele>
			<time>2015-03-08T16:55:09Z</time>
			<fix>3d</fix>
		</trkpt>
		<trkpt lat="35.168041" lon="-106.439642">
			<ele>2231.51</ele>
			<time>2015-03-08T16:55:10Z</time>
			<fix>3d</fix>
		</trkpt>
		<trkpt lat="35.168041" lon="-106.439637">
			<ele>2231.51</ele>
			<time>2015-03-08T16:55:11Z</time>
			<fix>3d</fix>
		</trkpt>
		<trkpt lat="35.168039" lon="-106.439620">
			<ele>2231.62</ele>
			<time>2015-03-08T16:55:12Z</time>
			<fix>3d</fix>
		</trkpt>
		<trkpt lat="35.168037" lon="-106.439607">
			<ele>2232.03</ele>
			<time>2015-03-08T16:55:13Z</time>
			<fix>3d</fix>
		</trkpt>
		<trkpt lat="35.168036" lon="-106.439603">
			<ele>2232.13</ele>
			<time>2015-03-08T16:55:14Z</time>
			<fix>3d</fix>
		</trkpt>
		<trkpt lat="35.168035" lon="-106.439596">
			<ele>2232.24</ele>
			<time>2015-03-08T16:55:15Z</time>
			<fix>3d</fix>
		</trkpt>
		<trkpt lat="35.168035" lon="-106.439588">
			<ele>2232.34</ele>
			<time>2015-03-08T16:55:16Z</time>
			<fix>3d</fix>
		</trkpt>
		<trkpt lat="35.168035" lon="-106.439566">
			<ele>2233.15</ele>
			<time>2015-03-08T16:55:17Z</time>
			<fix>3d</fix>
		</trkpt>
		<trkpt lat="35.168035" lon="-106.439556">
			<ele>2234.18</ele>
			<time>2015-03-08T16:55:19Z</time>
			<fix>3d</fix>
		</trkpt>
		<trkpt lat="35.168036" lon="-106.439548">
			<ele>2234.18</ele>
			<time>2015-03-08T16:55:20Z</time>
			<fix>3d</fix>
		</trkpt>
		<trkpt lat="35.168036" lon="-106.439539">
			<ele>2234.18</ele>
			<time>2015-03-08T16:55:21Z</time>
			<fix>3d</fix>
		</trkpt>
		<trkpt lat="35.168035" lon="-106.439534">
			<ele>2234.18</ele>
			<time>2015-03-08T16:55:22Z</time>
			<fix>3d</fix>
		</trkpt>
		<trkpt lat="35.168034" lon="-106.439528">
			<ele>2234.29</ele>
			<time>2015-03-08T16:55:23Z</time>
			<fix>3d</fix>
		</trkpt>
		<trkpt lat="35.168029" lon="-106.439502">
			<ele>2234.29</ele>
			<time>2015-03-08T16:55:24Z</time>
			<fix>3d</fix>
		</trkpt>
		<trkpt lat="35.168025" lon="-106.439486">
			<ele>2234.39</ele>
			<time>2015-03-08T16:55:25Z</time>
			<fix>3d</fix>
		</trkpt>
		<trkpt lat="35.168024" lon="-106.439480">
			<ele>2234.50</ele>
			<time>2015-03-08T16:55:26Z</time>
			<fix>3d</fix>
		</trkpt>
		<trkpt lat="35.168022" lon="-106.439474">
			<ele>2234.60</ele>
			<time>2015-03-08T16:55:27Z</time>
			<fix>3d</fix>
		</trkpt>
		<trkpt lat="35.168019" lon="-106.439464">
			<ele>2234.71</ele>
			<time>2015-03-08T16:55:29Z</time>
			<fix>3d</fix>
		</trkpt>
		<trkpt lat="35.168017" lon="-106.439454">
			<ele>2234.71</ele>
			<time>2015-03-08T16:55:30Z</time>
			<fix>3d</fix>
		</trkpt>
		<trkpt lat="35.168016" lon="-106.439445">
			<ele>2234.91</ele>
			<time>2015-03-08T16:55:31Z</time>
			<fix>3d</fix>
		</trkpt>
		<trkpt lat="35.168015" lon="-106.439435">
			<ele>2235.02</ele>
			<time>2015-03-08T16:55:32Z</time>
			<fix>3d</fix>
		</trkpt>
		<trkpt lat="35.168015" lon="-106.439426">
			<ele>2235.23</ele>
			<time>2015-03-08T16:55:33Z</time>
			<fix>3d</fix>
		</trkpt>
		<trkpt lat="35.168015" lon="-106.439416">
			<ele>2235.85</ele>
			<time>2015-03-08T16:55:34Z</time>
			<fix>3d</fix>
		</trkpt>
		<trkpt lat="35.168017" lon="-106.439407">
			<ele>2236.06</ele>
			<time>2015-03-08T16:55:35Z</time>
			<fix>3d</fix>
		</trkpt>
		<trkpt lat="35.168019" lon="-106.439398">
			<ele>2236.06</ele>
			<time>2015-03-08T16:55:36Z</time>
			<fix>3d</fix>
		</trkpt>
		<trkpt lat="35.168019" lon="-106.439387">
			<ele>2236.17</ele>
			<time>2015-03-08T16:55:38Z</time>
			<fix>3d</fix>
		</trkpt>
		<trkpt lat="35.168029" lon="-106.439363">
			<ele>2236.17</ele>
			<time>2015-03-08T16:55:39Z</time>
			<fix>3d</fix>
		</trkpt>
		<trkpt lat="35.168036" lon="-106.439345">
			<ele>2236.07</ele>
			<time>2015-03-08T16:55:40Z</time>
			<fix>3d</fix>
		</trkpt>
		<trkpt lat="35.168036" lon="-106.439336">
			<ele>2236.18</ele>
			<time>2015-03-08T16:55:42Z</time>
			<fix>3d</fix>
		</trkpt>
		<trkpt lat="35.168042" lon="-106.439319">
			<ele>2236.18</ele>
			<time>2015-03-08T16:55:43Z</time>
			<fix>3d</fix>
		</trkpt>
		<trkpt lat="35.168047" lon="-106.439307">
			<ele>2236.18</ele>
			<time>2015-03-08T16:55:44Z</time>
			<fix>3d</fix>
		</trkpt>
		<trkpt lat="35.168049" lon="-106.439299">
			<ele>2236.29</ele>
			<time>2015-03-08T16:55:46Z</time>
			<fix>3d</fix>
		</trkpt>
		<trkpt lat="35.168049" lon="-106.439294">
			<ele>2236.29</ele>
			<time>2015-03-08T16:55:47Z</time>
			<fix>3d</fix>
		</trkpt>
		<trkpt lat="35.168051" lon="-106.439286">
			<ele>2236.50</ele>
			<time>2015-03-08T16:55:48Z</time>
			<fix>3d</fix>
		</trkpt>
		<trkpt lat="35.168050" lon="-106.439281">
			<ele>2236.81</ele>
			<time>2015-03-08T16:55:49Z</time>
			<fix>3d</fix>
		</trkpt>
		<trkpt lat="35.168048" lon="-106.439271">
			<ele>2237.44</ele>
			<time>2015-03-08T16:55:50Z</time>
			<fix>3d</fix>
		</trkpt>
		<trkpt lat="35.168046" lon="-106.439261">
			<ele>2237.54</ele>
			<time>2015-03-08T16:55:51Z</time>
			<fix>3d</fix>
		</trkpt>
		<trkpt lat="35.168044" lon="-106.439252">
			<ele>2237.65</ele>
			<time>2015-03-08T16:55:52Z</time>
			<fix>3d</fix>
		</trkpt>
		<trkpt lat="35.168041" lon="-106.439242">
			<ele>2237.75</ele>
			<time>2015-03-08T16:55:53Z</time>
			<fix>3d</fix>
		</trkpt>
		<trkpt lat="35.168039" lon="-106.439233">
			<ele>2238.17</ele>
			<time>2015-03-08T16:55:54Z</time>
			<fix>3d</fix>
		</trkpt>
		<trkpt lat="35.168037" lon="-106.439224">
			<ele>2238.48</ele>
			<time>2015-03-08T16:55:55Z</time>
			<fix>3d</fix>
		</trkpt>
		<trkpt lat="35.168035" lon="-106.439216">
			<ele>2238.48</ele>
			<time>2015-03-08T16:55:56Z</time>
			<fix>3d</fix>
		</trkpt>
		<trkpt lat="35.168033" lon="-106.439211">
			<ele>2238.59</ele>
			<time>2015-03-08T16:55:57Z</time>
			<fix>3d</fix>
		</trkpt>
		<trkpt lat="35.168028" lon="-106.439204">
			<ele>2238.70</ele>
			<time>2015-03-08T16:55:58Z</time>
			<fix>3d</fix>
		</trkpt>
		<trkpt lat="35.168026" lon="-106.439199">
			<ele>2238.70</ele>
			<time>2015-03-08T16:55:59Z</time>
			<fix>3d</fix>
		</trkpt>
		<trkpt lat="35.168022" lon="-106.439191">
			<ele>2238.70</ele>
			<time>2015-03-08T16:56:00Z</time>
			<fix>3d</fix>
		</trkpt>
		<trkpt lat="35.168020" lon="-106.439186">
			<ele>2238.81</ele>
			<time>2015-03-08T16:56:02Z</time>
			<fix>3d</fix>
		</trkpt>
		<trkpt lat="35.168019" lon="-106.439176">
			<ele>2238.81</ele>
			<time>2015-03-08T16:56:03Z</time>
			<fix>3d</fix>
		</trkpt>
		<trkpt lat="35.168019" lon="-106.439166">
			<ele>2238.92</ele>
			<time>2015-03-08T16:56:04Z</time>
			<fix>3d</fix>
		</trkpt>
		<trkpt lat="35.168024" lon="-106.439142">
			<ele>2238.92</ele>
			<time>2015-03-08T16:56:05Z</time>
			<fix>3d</fix>
		</trkpt>
		<trkpt lat="35.168035" lon="-106.439125">
			<ele>2239.44</ele>
			<time>2015-03-08T16:56:06Z</time>
			<fix>3d</fix>
		</trkpt>
		<trkpt lat="35.168037" lon="-106.439115">
			<ele>2239.55</ele>
			<time>2015-03-08T16:56:08Z</time>
			<fix>3d</fix>
		</trkpt>
		<trkpt lat="35.168039" lon="-106.439097">
			<ele>2239.55</ele>
			<time>2015-03-08T16:56:09Z</time>
			<fix>3d</fix>
		</trkpt>
		<trkpt lat="35.168040" lon="-106.439078">
			<ele>2239.66</ele>
			<time>2015-03-08T16:56:10Z</time>
			<fix>3d</fix>
		</trkpt>
		<trkpt lat="35.168039" lon="-106.439063">
			<ele>2239.66</ele>
			<time>2015-03-08T16:56:11Z</time>
			<fix>3d</fix>
		</trkpt>
		<trkpt lat="35.168034" lon="-106.439052">
			<ele>2239.67</ele>
			<time>2015-03-08T16:56:12Z</time>
			<fix>3d</fix>
		</trkpt>
		<trkpt lat="35.168029" lon="-106.439044">
			<ele>2239.88</ele>
			<time>2015-03-08T16:56:14Z</time>
			<fix>3d</fix>
		</trkpt>
		<trkpt lat="35.168027" lon="-106.439040">
			<ele>2239.99</ele>
			<time>2015-03-08T16:56:15Z</time>
			<fix>3d</fix>
		</trkpt>
		<trkpt lat="35.168022" lon="-106.439033">
			<ele>2240.30</ele>
			<time>2015-03-08T16:56:16Z</time>
			<fix>3d</fix>
		</trkpt>
		<trkpt lat="35.168007" lon="-106.439013">
			<ele>2241.01</ele>
			<time>2015-03-08T16:56:17Z</time>
			<fix>3d</fix>
		</trkpt>
		<trkpt lat="35.168004" lon="-106.439009">
			<ele>2241.01</ele>
			<time>2015-03-08T16:56:18Z</time>
			<fix>3d</fix>
		</trkpt>
		<trkpt lat="35.167995" lon="-106.438999">
			<ele>2241.02</ele>
			<time>2015-03-08T16:56:19Z</time>
			<fix>3d</fix>
		</trkpt>
		<trkpt lat="35.167986" lon="-106.438990">
			<ele>2241.12</ele>
			<time>2015-03-08T16:56:20Z</time>
			<fix>3d</fix>
		</trkpt>
		<trkpt lat="35.167977" lon="-106.438980">
			<ele>2241.33</ele>
			<time>2015-03-08T16:56:21Z</time>
			<fix>3d</fix>
		</trkpt>
		<trkpt lat="35.167971" lon="-106.438969">
			<ele>2242.16</ele>
			<time>2015-03-08T16:56:22Z</time>
			<fix>3d</fix>
		</trkpt>
		<trkpt lat="35.167969" lon="-106.438964">
			<ele>2242.27</ele>
			<time>2015-03-08T16:56:23Z</time>
			<fix>3d</fix>
		</trkpt>
		<trkpt lat="35.167961" lon="-106.438950">
			<ele>2242.27</ele>
			<time>2015-03-08T16:56:24Z</time>
			<fix>3d</fix>
		</trkpt>
		<trkpt lat="35.167954" lon="-106.438939">
			<ele>2242.27</ele>
			<time>2015-03-08T16:56:25Z</time>
			<fix>3d</fix>
		</trkpt>
		<trkpt lat="35.167947" lon="-106.438930">
			<ele>2242.28</ele>
			<time>2015-03-08T16:56:26Z</time>
			<fix>3d</fix>
		</trkpt>
		<trkpt lat="35.167939" lon="-106.438920">
			<ele>2242.38</ele>
			<time>2015-03-08T16:56:27Z</time>
			<fix>3d</fix>
		</trkpt>
		<trkpt lat="35.167934" lon="-106.438911">
			<ele>2242.59</ele>
			<time>2015-03-08T16:56:29Z</time>
			<fix>3d</fix>
		</trkpt>
		<trkpt lat="35.167930" lon="-106.438904">
			<ele>2242.80</ele>
			<time>2015-03-08T16:56:30Z</time>
			<fix>3d</fix>
		</trkpt>
		<trkpt lat="35.167929" lon="-106.438896">
			<ele>2243.01</ele>
			<time>2015-03-08T16:56:31Z</time>
			<fix>3d</fix>
		</trkpt>
		<trkpt lat="35.167934" lon="-106.438871">
			<ele>2243.22</ele>
			<time>2015-03-08T16:56:32Z</time>
			<fix>3d</fix>
		</trkpt>
		<trkpt lat="35.167938" lon="-106.438860">
			<ele>2243.33</ele>
			<time>2015-03-08T16:56:33Z</time>
			<fix>3d</fix>
		</trkpt>
		<trkpt lat="35.167942" lon="-106.438854">
			<ele>2243.95</ele>
			<time>2015-03-08T16:56:35Z</time>
			<fix>3d</fix>
		</trkpt>
		<trkpt lat="35.167951" lon="-106.438844">
			<ele>2243.96</ele>
			<time>2015-03-08T16:56:36Z</time>
			<fix>3d</fix>
		</trkpt>
		<trkpt lat="35.167962" lon="-106.438836">
			<ele>2244.06</ele>
			<time>2015-03-08T16:56:37Z</time>
			<fix>3d</fix>
		</trkpt>
		<trkpt lat="35.167966" lon="-106.438828">
			<ele>2244.17</ele>
			<time>2015-03-08T16:56:38Z</time>
			<fix>3d</fix>
		</trkpt>
		<trkpt lat="35.167971" lon="-106.438821">
			<ele>2244.27</ele>
			<time>2015-03-08T16:56:39Z</time>
			<fix>3d</fix>
		</trkpt>
		<trkpt lat="35.167977" lon="-106.438815">
			<ele>2244.38</ele>
			<time>2015-03-08T16:56:40Z</time>
			<fix>3d</fix>
		</trkpt>
		<trkpt lat="35.167984" lon="-106.438808">
			<ele>2244.48</ele>
			<time>2015-03-08T16:56:41Z</time>
			<fix>3d</fix>
		</trkpt>
		<trkpt lat="35.167986" lon="-106.438805">
			<ele>2244.49</ele>
			<time>2015-03-08T16:56:42Z</time>
			<fix>3d</fix>
		</trkpt>
		<trkpt lat="35.167991" lon="-106.438795">
			<ele>2244.49</ele>
			<time>2015-03-08T16:56:43Z</time>
			<fix>3d</fix>
		</trkpt>
		<trkpt lat="35.167990" lon="-106.438787">
			<ele>2245.63</ele>
			<time>2015-03-08T16:56:46Z</time>
			<fix>3d</fix>
		</trkpt>
		<trkpt lat="35.167989" lon="-106.438782">
			<ele>2245.64</ele>
			<time>2015-03-08T16:56:47Z</time>
			<fix>3d</fix>
		</trkpt>
		<trkpt lat="35.167992" lon="-106.438755">
			<ele>2245.74</ele>
			<time>2015-03-08T16:56:48Z</time>
			<fix>3d</fix>
		</trkpt>
		<trkpt lat="35.167990" lon="-106.438746">
			<ele>2246.37</ele>
			<time>2015-03-08T16:56:51Z</time>
			<fix>3d</fix>
		</trkpt>
		<trkpt lat="35.167988" lon="-106.438736">
			<ele>2246.38</ele>
			<time>2015-03-08T16:56:55Z</time>
			<fix>3d</fix>
		</trkpt>
		<trkpt lat="35.167986" lon="-106.438730">
			<ele>2246.38</ele>
			<time>2015-03-08T16:56:56Z</time>
			<fix>3d</fix>
		</trkpt>
		<trkpt lat="35.167984" lon="-106.438725">
			<ele>2246.38</ele>
			<time>2015-03-08T16:56:57Z</time>
			<fix>3d</fix>
		</trkpt>
		<trkpt lat="35.167975" lon="-106.438697">
			<ele>2246.59</ele>
			<time>2015-03-08T16:56:58Z</time>
			<fix>3d</fix>
		</trkpt>
		<trkpt lat="35.167969" lon="-106.438689">
			<ele>2247.48</ele>
			<time>2015-03-08T16:57:17Z</time>
			<fix>3d</fix>
		</trkpt>
		<trkpt lat="35.167967" lon="-106.438680">
			<ele>2248.00</ele>
			<time>2015-03-08T16:57:20Z</time>
			<fix>3d</fix>
		</trkpt>
		<trkpt lat="35.167965" lon="-106.438675">
			<ele>2248.10</ele>
			<time>2015-03-08T16:57:21Z</time>
			<fix>3d</fix>
		</trkpt>
		<trkpt lat="35.167958" lon="-106.438662">
			<ele>2248.10</ele>
			<time>2015-03-08T16:57:22Z</time>
			<fix>3d</fix>
		</trkpt>
		<trkpt lat="35.167954" lon="-106.438654">
			<ele>2248.21</ele>
			<time>2015-03-08T16:57:24Z</time>
			<fix>3d</fix>
		</trkpt>
		<trkpt lat="35.167950" lon="-106.438649">
			<ele>2248.31</ele>
			<time>2015-03-08T16:57:25Z</time>
			<fix>3d</fix>
		</trkpt>
		<trkpt lat="35.167946" lon="-106.438643">
			<ele>2248.31</ele>
			<time>2015-03-08T16:57:26Z</time>
			<fix>3d</fix>
		</trkpt>
		<trkpt lat="35.167938" lon="-106.438615">
			<ele>2249.23</ele>
			<time>2015-03-08T16:57:56Z</time>
			<fix>3d</fix>
		</trkpt>
		<trkpt lat="35.167946" lon="-106.438610">
			<ele>2249.22</ele>
			<time>2015-03-08T16:58:06Z</time>
			<fix>3d</fix>
		</trkpt>
		<trkpt lat="35.167950" lon="-106.438608">
			<ele>2249.22</ele>
			<time>2015-03-08T16:58:11Z</time>
			<fix>3d</fix>
		</trkpt>
		<trkpt lat="35.167959" lon="-106.438603">
			<ele>2249.21</ele>
			<time>2015-03-08T16:58:12Z</time>
			<fix>3d</fix>
		</trkpt>
		<trkpt lat="35.167964" lon="-106.438597">
			<ele>2249.32</ele>
			<time>2015-03-08T16:58:13Z</time>
			<fix>3d</fix>
		</trkpt>
		<trkpt lat="35.167965" lon="-106.438592">
			<ele>2249.32</ele>
			<time>2015-03-08T16:58:14Z</time>
			<fix>3d</fix>
		</trkpt>
		<trkpt lat="35.167965" lon="-106.438585">
			<ele>2249.31</ele>
			<time>2015-03-08T16:58:15Z</time>
			<fix>3d</fix>
		</trkpt>
		<trkpt lat="35.167960" lon="-106.438571">
			<ele>2249.31</ele>
			<time>2015-03-08T16:58:16Z</time>
			<fix>3d</fix>
		</trkpt>
		<trkpt lat="35.167955" lon="-106.438564">
			<ele>2250.35</ele>
			<time>2015-03-08T16:58:18Z</time>
			<fix>3d</fix>
		</trkpt>
		<trkpt lat="35.167953" lon="-106.438560">
			<ele>2250.35</ele>
			<time>2015-03-08T16:58:19Z</time>
			<fix>3d</fix>
		</trkpt>
		<trkpt lat="35.167940" lon="-106.438538">
			<ele>2250.45</ele>
			<time>2015-03-08T16:58:20Z</time>
			<fix>3d</fix>
		</trkpt>
		<trkpt lat="35.167938" lon="-106.438536">
			<ele>2250.66</ele>
			<time>2015-03-08T16:58:21Z</time>
			<fix>3d</fix>
		</trkpt>
		<trkpt lat="35.167929" lon="-106.438530">
			<ele>2250.76</ele>
			<time>2015-03-08T16:58:22Z</time>
			<fix>3d</fix>
		</trkpt>
		<trkpt lat="35.167925" lon="-106.438529">
			<ele>2250.75</ele>
			<time>2015-03-08T16:58:23Z</time>
			<fix>3d</fix>
		</trkpt>
		<trkpt lat="35.167911" lon="-106.438523">
			<ele>2250.86</ele>
			<time>2015-03-08T16:58:24Z</time>
			<fix>3d</fix>
		</trkpt>
		<trkpt lat="35.167899" lon="-106.438517">
			<ele>2251.37</ele>
			<time>2015-03-08T16:58:25Z</time>
			<fix>3d</fix>
		</trkpt>
		<trkpt lat="35.167889" lon="-106.438509">
			<ele>2251.68</ele>
			<time>2015-03-08T16:58:26Z</time>
			<fix>3d</fix>
		</trkpt>
		<trkpt lat="35.167876" lon="-106.438502">
			<ele>2251.78</ele>
			<time>2015-03-08T16:58:27Z</time>
			<fix>3d</fix>
		</trkpt>
		<trkpt lat="35.167873" lon="-106.438499">
			<ele>2251.88</ele>
			<time>2015-03-08T16:58:28Z</time>
			<fix>3d</fix>
		</trkpt>
		<trkpt lat="35.167859" lon="-106.438486">
			<ele>2252.29</ele>
			<time>2015-03-08T16:58:29Z</time>
			<fix>3d</fix>
		</trkpt>
		<trkpt lat="35.167856" lon="-106.438476">
			<ele>2252.39</ele>
			<time>2015-03-08T16:58:31Z</time>
			<fix>3d</fix>
		</trkpt>
		<trkpt lat="35.167855" lon="-106.438471">
			<ele>2252.39</ele>
			<time>2015-03-08T16:58:32Z</time>
			<fix>3d</fix>
		</trkpt>
		<trkpt lat="35.167856" lon="-106.438463">
			<ele>2252.49</ele>
			<time>2015-03-08T16:58:33Z</time>
			<fix>3d</fix>
		</trkpt>
		<trkpt lat="35.167858" lon="-106.438456">
			<ele>2252.59</ele>
			<time>2015-03-08T16:58:34Z</time>
			<fix>3d</fix>
		</trkpt>
		<trkpt lat="35.167857" lon="-106.438447">
			<ele>2253.21</ele>
			<time>2015-03-08T16:58:36Z</time>
			<fix>3d</fix>
		</trkpt>
		<trkpt lat="35.167856" lon="-106.438440">
			<ele>2253.72</ele>
			<time>2015-03-08T16:58:38Z</time>
			<fix>3d</fix>
		</trkpt>
		<trkpt lat="35.167856" lon="-106.438429">
			<ele>2253.92</ele>
			<time>2015-03-08T16:58:40Z</time>
			<fix>3d</fix>
		</trkpt>
		<trkpt lat="35.167853" lon="-106.438421">
			<ele>2254.12</ele>
			<time>2015-03-08T16:58:41Z</time>
			<fix>3d</fix>
		</trkpt>
		<trkpt lat="35.167845" lon="-106.438404">
			<ele>2254.33</ele>
			<time>2015-03-08T16:58:42Z</time>
			<fix>3d</fix>
		</trkpt>
		<trkpt lat="35.167841" lon="-106.438399">
			<ele>2254.43</ele>
			<time>2015-03-08T16:58:43Z</time>
			<fix>3d</fix>
		</trkpt>
		<trkpt lat="35.167837" lon="-106.438393">
			<ele>2254.74</ele>
			<time>2015-03-08T16:58:44Z</time>
			<fix>3d</fix>
		</trkpt>
		<trkpt lat="35.167835" lon="-106.438388">
			<ele>2254.94</ele>
			<time>2015-03-08T16:58:45Z</time>
			<fix>3d</fix>
		</trkpt>
		<trkpt lat="35.167829" lon="-106.438381">
			<ele>2255.35</ele>
			<time>2015-03-08T16:58:46Z</time>
			<fix>3d</fix>
		</trkpt>
		<trkpt lat="35.167822" lon="-106.438374">
			<ele>2255.35</ele>
			<time>2015-03-08T16:58:47Z</time>
			<fix>3d</fix>
		</trkpt>
		<trkpt lat="35.167816" lon="-106.438367">
			<ele>2255.35</ele>
			<time>2015-03-08T16:58:48Z</time>
			<fix>3d</fix>
		</trkpt>
		<trkpt lat="35.167802" lon="-106.438347">
			<ele>2255.45</ele>
			<time>2015-03-08T16:58:49Z</time>
			<fix>3d</fix>
		</trkpt>
		<trkpt lat="35.167798" lon="-106.438341">
			<ele>2255.45</ele>
			<time>2015-03-08T16:58:50Z</time>
			<fix>3d</fix>
		</trkpt>
		<trkpt lat="35.167788" lon="-106.438324">
			<ele>2255.44</ele>
			<time>2015-03-08T16:58:51Z</time>
			<fix>3d</fix>
		</trkpt>
		<trkpt lat="35.167780" lon="-106.438310">
			<ele>2255.55</ele>
			<time>2015-03-08T16:58:52Z</time>
			<fix>3d</fix>
		</trkpt>
		<trkpt lat="35.167773" lon="-106.438297">
			<ele>2255.54</ele>
			<time>2015-03-08T16:58:53Z</time>
			<fix>3d</fix>
		</trkpt>
		<trkpt lat="35.167763" lon="-106.438283">
			<ele>2255.54</ele>
			<time>2015-03-08T16:58:54Z</time>
			<fix>3d</fix>
		</trkpt>
		<trkpt lat="35.167760" lon="-106.438278">
			<ele>2255.54</ele>
			<time>2015-03-08T16:58:55Z</time>
			<fix>3d</fix>
		</trkpt>
		<trkpt lat="35.167755" lon="-106.438272">
			<ele>2255.64</ele>
			<time>2015-03-08T16:58:56Z</time>
			<fix>3d</fix>
		</trkpt>
		<trkpt lat="35.167741" lon="-106.438253">
			<ele>2255.64</ele>
			<time>2015-03-08T16:58:57Z</time>
			<fix>3d</fix>
		</trkpt>
		<trkpt lat="35.167737" lon="-106.438248">
			<ele>2255.74</ele>
			<time>2015-03-08T16:58:58Z</time>
			<fix>3d</fix>
		</trkpt>
		<trkpt lat="35.167732" lon="-106.438241">
			<ele>2256.15</ele>
			<time>2015-03-08T16:58:59Z</time>
			<fix>3d</fix>
		</trkpt>
		<trkpt lat="35.167723" lon="-106.438222">
			<ele>2256.57</ele>
			<time>2015-03-08T16:59:00Z</time>
			<fix>3d</fix>
		</trkpt>
		<trkpt lat="35.167719" lon="-106.438208">
			<ele>2256.56</ele>
			<time>2015-03-08T16:59:01Z</time>
			<fix>3d</fix>
		</trkpt>
		<trkpt lat="35.167717" lon="-106.438203">
			<ele>2256.56</ele>
			<time>2015-03-08T16:59:02Z</time>
			<fix>3d</fix>
		</trkpt>
		<trkpt lat="35.167712" lon="-106.438189">
			<ele>2257.08</ele>
			<time>2015-03-08T16:59:03Z</time>
			<fix>3d</fix>
		</trkpt>
		<trkpt lat="35.167709" lon="-106.438176">
			<ele>2257.28</ele>
			<time>2015-03-08T16:59:04Z</time>
			<fix>3d</fix>
		</trkpt>
		<trkpt lat="35.167703" lon="-106.438165">
			<ele>2257.28</ele>
			<time>2015-03-08T16:59:05Z</time>
			<fix>3d</fix>
		</trkpt>
		<trkpt lat="35.167697" lon="-106.438154">
			<ele>2257.28</ele>
			<time>2015-03-08T16:59:06Z</time>
			<fix>3d</fix>
		</trkpt>
		<trkpt lat="35.167695" lon="-106.438150">
			<ele>2257.38</ele>
			<time>2015-03-08T16:59:07Z</time>
			<fix>3d</fix>
		</trkpt>
		<trkpt lat="35.167687" lon="-106.438132">
			<ele>2257.38</ele>
			<time>2015-03-08T16:59:08Z</time>
			<fix>3d</fix>
		</trkpt>
		<trkpt lat="35.167685" lon="-106.438128">
			<ele>2257.38</ele>
			<time>2015-03-08T16:59:09Z</time>
			<fix>3d</fix>
		</trkpt>
		<trkpt lat="35.167682" lon="-106.438122">
			<ele>2257.38</ele>
			<time>2015-03-08T16:59:10Z</time>
			<fix>3d</fix>
		</trkpt>
		<trkpt lat="35.167673" lon="-106.438105">
			<ele>2257.48</ele>
			<time>2015-03-08T16:59:11Z</time>
			<fix>3d</fix>
		</trkpt>
		<trkpt lat="35.167667" lon="-106.438091">
			<ele>2257.48</ele>
			<time>2015-03-08T16:59:12Z</time>
			<fix>3d</fix>
		</trkpt>
		<trkpt lat="35.167663" lon="-106.438078">
			<ele>2257.48</ele>
			<time>2015-03-08T16:59:13Z</time>
			<fix>3d</fix>
		</trkpt>
		<trkpt lat="35.167661" lon="-106.438068">
			<ele>2257.58</ele>
			<time>2015-03-08T16:59:15Z</time>
			<fix>3d</fix>
		</trkpt>
		<trkpt lat="35.167657" lon="-106.438050">
			<ele>2257.68</ele>
			<time>2015-03-08T16:59:16Z</time>
			<fix>3d</fix>
		</trkpt>
		<trkpt lat="35.167656" lon="-106.438044">
			<ele>2258.96</ele>
			<time>2015-03-08T16:59:17Z</time>
			<fix>3d</fix>
		</trkpt>
		<trkpt lat="35.167656" lon="-106.438038">
			<ele>2259.06</ele>
			<time>2015-03-08T16:59:18Z</time>
			<fix>3d</fix>
		</trkpt>
		<trkpt lat="35.167657" lon="-106.438020">
			<ele>2259.06</ele>
			<time>2015-03-08T16:59:19Z</time>
			<fix>3d</fix>
		</trkpt>
		<trkpt lat="35.167663" lon="-106.438006">
			<ele>2258.96</ele>
			<time>2015-03-08T16:59:20Z</time>
			<fix>3d</fix>
		</trkpt>
		<trkpt lat="35.167673" lon="-106.437992">
			<ele>2258.96</ele>
			<time>2015-03-08T16:59:21Z</time>
			<fix>3d</fix>
		</trkpt>
		<trkpt lat="35.167678" lon="-106.437981">
			<ele>2258.95</ele>
			<time>2015-03-08T16:59:22Z</time>
			<fix>3d</fix>
		</trkpt>
		<trkpt lat="35.167690" lon="-106.437972">
			<ele>2258.95</ele>
			<time>2015-03-08T16:59:23Z</time>
			<fix>3d</fix>
		</trkpt>
		<trkpt lat="35.167698" lon="-106.437963">
			<ele>2258.95</ele>
			<time>2015-03-08T16:59:24Z</time>
			<fix>3d</fix>
		</trkpt>
		<trkpt lat="35.167706" lon="-106.437960">
			<ele>2258.95</ele>
			<time>2015-03-08T16:59:26Z</time>
			<fix>3d</fix>
		</trkpt>
		<trkpt lat="35.167707" lon="-106.437957">
			<ele>2259.05</ele>
			<time>2015-03-08T16:59:27Z</time>
			<fix>3d</fix>
		</trkpt>
		<trkpt lat="35.167730" lon="-106.437952">
			<ele>2259.88</ele>
			<time>2015-03-08T16:59:28Z</time>
			<fix>3d</fix>
		</trkpt>
		<trkpt lat="35.167733" lon="-106.437949">
			<ele>2260.50</ele>
			<time>2015-03-08T16:59:30Z</time>
			<fix>3d</fix>
		</trkpt>
		<trkpt lat="35.167740" lon="-106.437943">
			<ele>2260.49</ele>
			<time>2015-03-08T16:59:32Z</time>
			<fix>3d</fix>
		</trkpt>
		<trkpt lat="35.167750" lon="-106.437941">
			<ele>2260.49</ele>
			<time>2015-03-08T16:59:33Z</time>
			<fix>3d</fix>
		</trkpt>
		<trkpt lat="35.167773" lon="-106.437940">
			<ele>2260.39</ele>
			<time>2015-03-08T16:59:37Z</time>
			<fix>3d</fix>
		</trkpt>
		<trkpt lat="35.167779" lon="-106.437936">
			<ele>2260.39</ele>
			<time>2015-03-08T16:59:38Z</time>
			<fix>3d</fix>
		</trkpt>
		<trkpt lat="35.167787" lon="-106.437934">
			<ele>2260.49</ele>
			<time>2015-03-08T16:59:40Z</time>
			<fix>3d</fix>
		</trkpt>
		<trkpt lat="35.167809" lon="-106.437937">
			<ele>2260.59</ele>
			<time>2015-03-08T16:59:44Z</time>
			<fix>3d</fix>
		</trkpt>
		<trkpt lat="35.167823" lon="-106.437940">
			<ele>2260.90</ele>
			<time>2015-03-08T16:59:45Z</time>
			<fix>3d</fix>
		</trkpt>
		<trkpt lat="35.167827" lon="-106.437942">
			<ele>2261.42</ele>
			<time>2015-03-08T16:59:46Z</time>
			<fix>3d</fix>
		</trkpt>
		<trkpt lat="35.167834" lon="-106.437943">
			<ele>2261.52</ele>
			<time>2015-03-08T16:59:47Z</time>
			<fix>3d</fix>
		</trkpt>
		<trkpt lat="35.167842" lon="-106.437942">
			<ele>2261.52</ele>
			<time>2015-03-08T16:59:48Z</time>
			<fix>3d</fix>
		</trkpt>
		<trkpt lat="35.167862" lon="-106.437937">
			<ele>2261.62</ele>
			<time>2015-03-08T16:59:49Z</time>
			<fix>3d</fix>
		</trkpt>
		<trkpt lat="35.167875" lon="-106.437930">
			<ele>2261.62</ele>
			<time>2015-03-08T16:59:50Z</time>
			<fix>3d</fix>
		</trkpt>
		<trkpt lat="35.167884" lon="-106.437923">
			<ele>2261.62</ele>
			<time>2015-03-08T16:59:51Z</time>
			<fix>3d</fix>
		</trkpt>
		<trkpt lat="35.167886" lon="-106.437919">
			<ele>2261.62</ele>
			<time>2015-03-08T16:59:52Z</time>
			<fix>3d</fix>
		</trkpt>
		<trkpt lat="35.167884" lon="-106.437915">
			<ele>2262.79</ele>
			<time>2015-03-08T17:00:29Z</time>
			<fix>3d</fix>
		</trkpt>
		<trkpt lat="35.167924" lon="-106.437866">
			<ele>2263.61</ele>
			<time>2015-03-08T17:01:21Z</time>
			<fix>3d</fix>
		</trkpt>
		<trkpt lat="35.167928" lon="-106.437839">
			<ele>2263.61</ele>
			<time>2015-03-08T17:01:22Z</time>
			<fix>3d</fix>
		</trkpt>
		<trkpt lat="35.167929" lon="-106.437828">
			<ele>2263.61</ele>
			<time>2015-03-08T17:01:23Z</time>
			<fix>3d</fix>
		</trkpt>
		<trkpt lat="35.167929" lon="-106.437798">
			<ele>2263.61</ele>
			<time>2015-03-08T17:01:24Z</time>
			<fix>3d</fix>
		</trkpt>
		<trkpt lat="35.167923" lon="-106.437775">
			<ele>2263.72</ele>
			<time>2015-03-08T17:01:25Z</time>
			<fix>3d</fix>
		</trkpt>
		<trkpt lat="35.167917" lon="-106.437757">
			<ele>2263.72</ele>
			<time>2015-03-08T17:01:26Z</time>
			<fix>3d</fix>
		</trkpt>
		<trkpt lat="35.167911" lon="-106.437741">
			<ele>2263.82</ele>
			<time>2015-03-08T17:01:27Z</time>
			<fix>3d</fix>
		</trkpt>
		<trkpt lat="35.167907" lon="-106.437726">
			<ele>2263.82</ele>
			<time>2015-03-08T17:01:28Z</time>
			<fix>3d</fix>
		</trkpt>
		<trkpt lat="35.167902" lon="-106.437709">
			<ele>2263.83</ele>
			<time>2015-03-08T17:01:29Z</time>
			<fix>3d</fix>
		</trkpt>
		<trkpt lat="35.167899" lon="-106.437695">
			<ele>2263.83</ele>
			<time>2015-03-08T17:01:30Z</time>
			<fix>3d</fix>
		</trkpt>
		<trkpt lat="35.167896" lon="-106.437683">
			<ele>2263.83</ele>
			<time>2015-03-08T17:01:31Z</time>
			<fix>3d</fix>
		</trkpt>
		<trkpt lat="35.167894" lon="-106.437678">
			<ele>2263.93</ele>
			<time>2015-03-08T17:01:32Z</time>
			<fix>3d</fix>
		</trkpt>
		<trkpt lat="35.167889" lon="-106.437660">
			<ele>2263.93</ele>
			<time>2015-03-08T17:01:33Z</time>
			<fix>3d</fix>
		</trkpt>
		<trkpt lat="35.167887" lon="-106.437650">
			<ele>2264.04</ele>
			<time>2015-03-08T17:01:35Z</time>
			<fix>3d</fix>
		</trkpt>
		<trkpt lat="35.167886" lon="-106.437645">
			<ele>2264.04</ele>
			<time>2015-03-08T17:01:36Z</time>
			<fix>3d</fix>
		</trkpt>
		<trkpt lat="35.167885" lon="-106.437636">
			<ele>2264.04</ele>
			<time>2015-03-08T17:01:37Z</time>
			<fix>3d</fix>
		</trkpt>
		<trkpt lat="35.167886" lon="-106.437627">
			<ele>2264.14</ele>
			<time>2015-03-08T17:01:38Z</time>
			<fix>3d</fix>
		</trkpt>
		<trkpt lat="35.167896" lon="-106.437602">
			<ele>2264.04</ele>
			<time>2015-03-08T17:01:39Z</time>
			<fix>3d</fix>
		</trkpt>
		<trkpt lat="35.167907" lon="-106.437587">
			<ele>2264.04</ele>
			<time>2015-03-08T17:01:40Z</time>
			<fix>3d</fix>
		</trkpt>
		<trkpt lat="35.167910" lon="-106.437581">
			<ele>2264.04</ele>
			<time>2015-03-08T17:01:41Z</time>
			<fix>3d</fix>
		</trkpt>
		<trkpt lat="35.167931" lon="-106.437561">
			<ele>2264.04</ele>
			<time>2015-03-08T17:01:42Z</time>
			<fix>3d</fix>
		</trkpt>
		<trkpt lat="35.167938" lon="-106.437551">
			<ele>2263.93</ele>
			<time>2015-03-08T17:01:43Z</time>
			<fix>3d</fix>
		</trkpt>
		<trkpt lat="35.167947" lon="-106.437545">
			<ele>2263.83</ele>
			<time>2015-03-08T17:01:44Z</time>
			<fix>3d</fix>
		</trkpt>
		<trkpt lat="35.167962" lon="-106.437541">
			<ele>2263.82</ele>
			<time>2015-03-08T17:01:45Z</time>
			<fix>3d</fix>
		</trkpt>
		<trkpt lat="35.167973" lon="-106.437539">
			<ele>2263.82</ele>
			<time>2015-03-08T17:01:46Z</time>
			<fix>3d</fix>
		</trkpt>
		<trkpt lat="35.167975" lon="-106.437538">
			<ele>2263.82</ele>
			<time>2015-03-08T17:01:47Z</time>
			<fix>3d</fix>
		</trkpt>
		<trkpt lat="35.167986" lon="-106.437536">
			<ele>2263.72</ele>
			<time>2015-03-08T17:01:48Z</time>
			<fix>3d</fix>
		</trkpt>
		<trkpt lat="35.167996" lon="-106.437531">
			<ele>2263.71</ele>
			<time>2015-03-08T17:01:49Z</time>
			<fix>3d</fix>
		</trkpt>
		<trkpt lat="35.168006" lon="-106.437528">
			<ele>2263.71</ele>
			<time>2015-03-08T17:01:50Z</time>
			<fix>3d</fix>
		</trkpt>
		<trkpt lat="35.168015" lon="-106.437522">
			<ele>2263.71</ele>
			<time>2015-03-08T17:01:51Z</time>
			<fix>3d</fix>
		</trkpt>
		<trkpt lat="35.168030" lon="-106.437520">
			<ele>2263.81</ele>
			<time>2015-03-08T17:01:52Z</time>
			<fix>3d</fix>
		</trkpt>
		<trkpt lat="35.168036" lon="-106.437517">
			<ele>2263.91</ele>
			<time>2015-03-08T17:01:53Z</time>
			<fix>3d</fix>
		</trkpt>
		<trkpt lat="35.168050" lon="-106.437519">
			<ele>2263.81</ele>
			<time>2015-03-08T17:01:54Z</time>
			<fix>3d</fix>
		</trkpt>
		<trkpt lat="35.168062" lon="-106.437520">
			<ele>2263.91</ele>
			<time>2015-03-08T17:01:55Z</time>
			<fix>3d</fix>
		</trkpt>
		<trkpt lat="35.168069" lon="-106.437517">
			<ele>2263.90</ele>
			<time>2015-03-08T17:01:56Z</time>
			<fix>3d</fix>
		</trkpt>
		<trkpt lat="35.168083" lon="-106.437518">
			<ele>2264.01</ele>
			<time>2015-03-08T17:01:57Z</time>
			<fix>3d</fix>
		</trkpt>
		<trkpt lat="35.168090" lon="-106.437515">
			<ele>2264.21</ele>
			<time>2015-03-08T17:01:58Z</time>
			<fix>3d</fix>
		</trkpt>
		<trkpt lat="35.168103" lon="-106.437513">
			<ele>2264.31</ele>
			<time>2015-03-08T17:01:59Z</time>
			<fix>3d</fix>
		</trkpt>
		<trkpt lat="35.168110" lon="-106.437505">
			<ele>2264.31</ele>
			<time>2015-03-08T17:02:00Z</time>
			<fix>3d</fix>
		</trkpt>
		<trkpt lat="35.168120" lon="-106.437499">
			<ele>2264.41</ele>
			<time>2015-03-08T17:02:01Z</time>
			<fix>3d</fix>
		</trkpt>
		<trkpt lat="35.168130" lon="-106.437492">
			<ele>2264.51</ele>
			<time>2015-03-08T17:02:02Z</time>
			<fix>3d</fix>
		</trkpt>
		<trkpt lat="35.168138" lon="-106.437487">
			<ele>2265.04</ele>
			<time>2015-03-08T17:02:03Z</time>
			<fix>3d</fix>
		</trkpt>
		<trkpt lat="35.168142" lon="-106.437482">
			<ele>2265.24</ele>
			<time>2015-03-08T17:02:05Z</time>
			<fix>3d</fix>
		</trkpt>
		<trkpt lat="35.168147" lon="-106.437478">
			<ele>2265.54</ele>
			<time>2015-03-08T17:02:07Z</time>
			<fix>3d</fix>
		</trkpt>
		<trkpt lat="35.168155" lon="-106.437475">
			<ele>2265.75</ele>
			<time>2015-03-08T17:02:08Z</time>
			<fix>3d</fix>
		</trkpt>
		<trkpt lat="35.168181" lon="-106.437473">
			<ele>2266.05</ele>
			<time>2015-03-08T17:02:09Z</time>
			<fix>3d</fix>
		</trkpt>
		<trkpt lat="35.168185" lon="-106.437470">
			<ele>2266.67</ele>
			<time>2015-03-08T17:02:10Z</time>
			<fix>3d</fix>
		</trkpt>
		<trkpt lat="35.168190" lon="-106.437466">
			<ele>2266.77</ele>
			<time>2015-03-08T17:02:11Z</time>
			<fix>3d</fix>
		</trkpt>
		<trkpt lat="35.168195" lon="-106.437460">
			<ele>2266.87</ele>
			<time>2015-03-08T17:02:12Z</time>
			<fix>3d</fix>
		</trkpt>
		<trkpt lat="35.168209" lon="-106.437445">
			<ele>2266.86</ele>
			<time>2015-03-08T17:02:13Z</time>
			<fix>3d</fix>
		</trkpt>
		<trkpt lat="35.168209" lon="-106.437441">
			<ele>2266.96</ele>
			<time>2015-03-08T17:02:14Z</time>
			<fix>3d</fix>
		</trkpt>
		<trkpt lat="35.168226" lon="-106.437425">
			<ele>2267.47</ele>
			<time>2015-03-08T17:02:15Z</time>
			<fix>3d</fix>
		</trkpt>
		<trkpt lat="35.168227" lon="-106.437420">
			<ele>2267.78</ele>
			<time>2015-03-08T17:02:16Z</time>
			<fix>3d</fix>
		</trkpt>
		<trkpt lat="35.168230" lon="-106.437415">
			<ele>2267.98</ele>
			<time>2015-03-08T17:02:17Z</time>
			<fix>3d</fix>
		</trkpt>
		<trkpt lat="35.168240" lon="-106.437402">
			<ele>2268.08</ele>
			<time>2015-03-08T17:02:18Z</time>
			<fix>3d</fix>
		</trkpt>
		<trkpt lat="35.168251" lon="-106.437391">
			<ele>2268.08</ele>
			<time>2015-03-08T17:02:19Z</time>
			<fix>3d</fix>
		</trkpt>
		<trkpt lat="35.168264" lon="-106.437380">
			<ele>2268.18</ele>
			<time>2015-03-08T17:02:20Z</time>
			<fix>3d</fix>
		</trkpt>
		<trkpt lat="35.168271" lon="-106.437366">
			<ele>2268.28</ele>
			<time>2015-03-08T17:02:21Z</time>
			<fix>3d</fix>
		</trkpt>
		<trkpt lat="35.168272" lon="-106.437356">
			<ele>2268.27</ele>
			<time>2015-03-08T17:02:23Z</time>
			<fix>3d</fix>
		</trkpt>
		<trkpt lat="35.168280" lon="-106.437340">
			<ele>2268.37</ele>
			<time>2015-03-08T17:02:24Z</time>
			<fix>3d</fix>
		</trkpt>
		<trkpt lat="35.168286" lon="-106.437327">
			<ele>2268.57</ele>
			<time>2015-03-08T17:02:25Z</time>
			<fix>3d</fix>
		</trkpt>
		<trkpt lat="35.168288" lon="-106.437323">
			<ele>2268.67</ele>
			<time>2015-03-08T17:02:26Z</time>
			<fix>3d</fix>
		</trkpt>
		<trkpt lat="35.168296" lon="-106.437309">
			<ele>2268.67</ele>
			<time>2015-03-08T17:02:27Z</time>
			<fix>3d</fix>
		</trkpt>
		<trkpt lat="35.168306" lon="-106.437296">
			<ele>2268.77</ele>
			<time>2015-03-08T17:02:28Z</time>
			<fix>3d</fix>
		</trkpt>
		<trkpt lat="35.168306" lon="-106.437292">
			<ele>2268.76</ele>
			<time>2015-03-08T17:02:29Z</time>
			<fix>3d</fix>
		</trkpt>
		<trkpt lat="35.168313" lon="-106.437280">
			<ele>2268.86</ele>
			<time>2015-03-08T17:02:30Z</time>
			<fix>3d</fix>
		</trkpt>
		<trkpt lat="35.168323" lon="-106.437269">
			<ele>2268.96</ele>
			<time>2015-03-08T17:02:31Z</time>
			<fix>3d</fix>
		</trkpt>
		<trkpt lat="35.168330" lon="-106.437258">
			<ele>2269.58</ele>
			<time>2015-03-08T17:02:32Z</time>
			<fix>3d</fix>
		</trkpt>
		<trkpt lat="35.168336" lon="-106.437246">
			<ele>2269.78</ele>
			<time>2015-03-08T17:02:33Z</time>
			<fix>3d</fix>
		</trkpt>
		<trkpt lat="35.168338" lon="-106.437241">
			<ele>2269.99</ele>
			<time>2015-03-08T17:02:34Z</time>
			<fix>3d</fix>
		</trkpt>
		<trkpt lat="35.168340" lon="-106.437225">
			<ele>2269.98</ele>
			<time>2015-03-08T17:02:35Z</time>
			<fix>3d</fix>
		</trkpt>
		<trkpt lat="35.168342" lon="-106.437208">
			<ele>2269.98</ele>
			<time>2015-03-08T17:02:36Z</time>
			<fix>3d</fix>
		</trkpt>
		<trkpt lat="35.168339" lon="-106.437199">
			<ele>2270.18</ele>
			<time>2015-03-08T17:02:38Z</time>
			<fix>3d</fix>
		</trkpt>
		<trkpt lat="35.168337" lon="-106.437193">
			<ele>2270.17</ele>
			<time>2015-03-08T17:02:39Z</time>
			<fix>3d</fix>
		</trkpt>
		<trkpt lat="35.168332" lon="-106.437175">
			<ele>2270.17</ele>
			<time>2015-03-08T17:02:40Z</time>
			<fix>3d</fix>
		</trkpt>
		<trkpt lat="35.168331" lon="-106.437158">
			<ele>2270.27</ele>
			<time>2015-03-08T17:02:41Z</time>
			<fix>3d</fix>
		</trkpt>
		<trkpt lat="35.168330" lon="-106.437153">
			<ele>2270.27</ele>
			<time>2015-03-08T17:02:42Z</time>
			<fix>3d</fix>
		</trkpt>
		<trkpt lat="35.168330" lon="-106.437147">
			<ele>2270.26</ele>
			<time>2015-03-08T17:02:43Z</time>
			<fix>3d</fix>
		</trkpt>
		<trkpt lat="35.168328" lon="-106.437142">
			<ele>2270.16</ele>
			<time>2015-03-08T17:02:44Z</time>
			<fix>3d</fix>
		</trkpt>
		<trkpt lat="35.168326" lon="-106.437121">
			<ele>2270.15</ele>
			<time>2015-03-08T17:02:45Z</time>
			<fix>3d</fix>
		</trkpt>
		<trkpt lat="35.168326" lon="-106.437105">
			<ele>2270.15</ele>
			<time>2015-03-08T17:02:46Z</time>
			<fix>3d</fix>
		</trkpt>
		<trkpt lat="35.168325" lon="-106.437100">
			<ele>2270.15</ele>
			<time>2015-03-08T17:02:47Z</time>
			<fix>3d</fix>
		</trkpt>
		<trkpt lat="35.168322" lon="-106.437082">
			<ele>2270.04</ele>
			<time>2015-03-08T17:02:48Z</time>
			<fix>3d</fix>
		</trkpt>
		<trkpt lat="35.168318" lon="-106.437068">
			<ele>2269.94</ele>
			<time>2015-03-08T17:02:49Z</time>
			<fix>3d</fix>
		</trkpt>
		<trkpt lat="35.168316" lon="-106.437063">
			<ele>2269.93</ele>
			<time>2015-03-08T17:02:50Z</time>
			<fix>3d</fix>
		</trkpt>
		<trkpt lat="35.168315" lon="-106.437056">
			<ele>2269.93</ele>
			<time>2015-03-08T17:02:51Z</time>
			<fix>3d</fix>
		</trkpt>
		<trkpt lat="35.168313" lon="-106.437049">
			<ele>2269.83</ele>
			<time>2015-03-08T17:02:52Z</time>
			<fix>3d</fix>
		</trkpt>
		<trkpt lat="35.168312" lon="-106.437040">
			<ele>2269.82</ele>
			<time>2015-03-08T17:02:53Z</time>
			<fix>3d</fix>
		</trkpt>
		<trkpt lat="35.168309" lon="-106.437032">
			<ele>2269.82</ele>
			<time>2015-03-08T17:02:54Z</time>
			<fix>3d</fix>
		</trkpt>
		<trkpt lat="35.168301" lon="-106.437003">
			<ele>2269.72</ele>
			<time>2015-03-08T17:02:55Z</time>
			<fix>3d</fix>
		</trkpt>
		<trkpt lat="35.168299" lon="-106.436998">
			<ele>2269.72</ele>
			<time>2015-03-08T17:02:56Z</time>
			<fix>3d</fix>
		</trkpt>
		<trkpt lat="35.168298" lon="-106.436991">
			<ele>2269.51</ele>
			<time>2015-03-08T17:02:57Z</time>
			<fix>3d</fix>
		</trkpt>
		<trkpt lat="35.168294" lon="-106.436971">
			<ele>2269.20</ele>
			<time>2015-03-08T17:02:58Z</time>
			<fix>3d</fix>
		</trkpt>
		<trkpt lat="35.168291" lon="-106.436956">
			<ele>2269.09</ele>
			<time>2015-03-08T17:02:59Z</time>
			<fix>3d</fix>
		</trkpt>
		<trkpt lat="35.168289" lon="-106.436941">
			<ele>2268.99</ele>
			<time>2015-03-08T17:03:00Z</time>
			<fix>3d</fix>
		</trkpt>
		<trkpt lat="35.168287" lon="-106.436928">
			<ele>2268.99</ele>
			<time>2015-03-08T17:03:01Z</time>
			<fix>3d</fix>
		</trkpt>
		<trkpt lat="35.168284" lon="-106.436915">
			<ele>2268.88</ele>
			<time>2015-03-08T17:03:02Z</time>
			<fix>3d</fix>
		</trkpt>
		<trkpt lat="35.168278" lon="-106.436902">
			<ele>2269.02</ele>
			<time>2015-03-08T17:03:03Z</time>
			<fix>3d</fix>
		</trkpt>
		<trkpt lat="35.168275" lon="-106.436891">
			<ele>2269.02</ele>
			<time>2015-03-08T17:03:04Z</time>
			<fix>3d</fix>
		</trkpt>
		<trkpt lat="35.168272" lon="-106.436879">
			<ele>2268.92</ele>
			<time>2015-03-08T17:03:05Z</time>
			<fix>3d</fix>
		</trkpt>
		<trkpt lat="35.168267" lon="-106.436866">
			<ele>2268.91</ele>
			<time>2015-03-08T17:03:06Z</time>
			<fix>3d</fix>
		</trkpt>
		<trkpt lat="35.168262" lon="-106.436854">
			<ele>2268.81</ele>
			<time>2015-03-08T17:03:07Z</time>
			<fix>3d</fix>
		</trkpt>
		<trkpt lat="35.168257" lon="-106.436840">
			<ele>2268.81</ele>
			<time>2015-03-08T17:03:08Z</time>
			<fix>3d</fix>
		</trkpt>
		<trkpt lat="35.168256" lon="-106.436835">
			<ele>2268.70</ele>
			<time>2015-03-08T17:03:09Z</time>
			<fix>3d</fix>
		</trkpt>
		<trkpt lat="35.168249" lon="-106.436820">
			<ele>2268.70</ele>
			<time>2015-03-08T17:03:10Z</time>
			<fix>3d</fix>
		</trkpt>
		<trkpt lat="35.168247" lon="-106.436815">
			<ele>2268.70</ele>
			<time>2015-03-08T17:03:11Z</time>
			<fix>3d</fix>
		</trkpt>
		<trkpt lat="35.168244" lon="-106.436809">
			<ele>2268.49</ele>
			<time>2015-03-08T17:03:12Z</time>
			<fix>3d</fix>
		</trkpt>
		<trkpt lat="35.168238" lon="-106.436790">
			<ele>2268.39</ele>
			<time>2015-03-08T17:03:13Z</time>
			<fix>3d</fix>
		</trkpt>
		<trkpt lat="35.168232" lon="-106.436775">
			<ele>2268.39</ele>
			<time>2015-03-08T17:03:14Z</time>
			<fix>3d</fix>
		</trkpt>
		<trkpt lat="35.168227" lon="-106.436762">
			<ele>2268.28</ele>
			<time>2015-03-08T17:03:15Z</time>
			<fix>3d</fix>
		</trkpt>
		<trkpt lat="35.168226" lon="-106.436757">
			<ele>2268.18</ele>
			<time>2015-03-08T17:03:16Z</time>
			<fix>3d</fix>
		</trkpt>
		<trkpt lat="35.168220" lon="-106.436740">
			<ele>2268.18</ele>
			<time>2015-03-08T17:03:17Z</time>
			<fix>3d</fix>
		</trkpt>
		<trkpt lat="35.168211" lon="-106.436728">
			<ele>2268.18</ele>
			<time>2015-03-08T17:03:18Z</time>
			<fix>3d</fix>
		</trkpt>
		<trkpt lat="35.168201" lon="-106.436719">
			<ele>2268.17</ele>
			<time>2015-03-08T17:03:19Z</time>
			<fix>3d</fix>
		</trkpt>
		<trkpt lat="35.168188" lon="-106.436709">
			<ele>2268.17</ele>
			<time>2015-03-08T17:03:20Z</time>
			<fix>3d</fix>
		</trkpt>
		<trkpt lat="35.168178" lon="-106.436698">
			<ele>2268.17</ele>
			<time>2015-03-08T17:03:21Z</time>
			<fix>3d</fix>
		</trkpt>
		<trkpt lat="35.168169" lon="-106.436687">
			<ele>2268.17</ele>
			<time>2015-03-08T17:03:22Z</time>
			<fix>3d</fix>
		</trkpt>
		<trkpt lat="35.168165" lon="-106.436683">
			<ele>2268.27</ele>
			<time>2015-03-08T17:03:23Z</time>
			<fix>3d</fix>
		</trkpt>
		<trkpt lat="35.168154" lon="-106.436672">
			<ele>2268.27</ele>
			<time>2015-03-08T17:03:24Z</time>
			<fix>3d</fix>
		</trkpt>
		<trkpt lat="35.168140" lon="-106.436658">
			<ele>2268.99</ele>
			<time>2015-03-08T17:03:25Z</time>
			<fix>3d</fix>
		</trkpt>
		<trkpt lat="35.168134" lon="-106.436650">
			<ele>2269.30</ele>
			<time>2015-03-08T17:03:26Z</time>
			<fix>3d</fix>
		</trkpt>
		<trkpt lat="35.168128" lon="-106.436641">
			<ele>2269.92</ele>
			<time>2015-03-08T17:03:27Z</time>
			<fix>3d</fix>
		</trkpt>
		<trkpt lat="35.168125" lon="-106.436638">
			<ele>2270.02</ele>
			<time>2015-03-08T17:03:28Z</time>
			<fix>3d</fix>
		</trkpt>
		<trkpt lat="35.168121" lon="-106.436634">
			<ele>2270.02</ele>
			<time>2015-03-08T17:03:29Z</time>
			<fix>3d</fix>
		</trkpt>
		<trkpt lat="35.168117" lon="-106.436626">
			<ele>2270.12</ele>
			<time>2015-03-08T17:03:31Z</time>
			<fix>3d</fix>
		</trkpt>
		<trkpt lat="35.168109" lon="-106.436609">
			<ele>2270.33</ele>
			<time>2015-03-08T17:03:32Z</time>
			<fix>3d</fix>
		</trkpt>
		<trkpt lat="35.168106" lon="-106.436604">
			<ele>2270.53</ele>
			<time>2015-03-08T17:03:33Z</time>
			<fix>3d</fix>
		</trkpt>
		<trkpt lat="35.168091" lon="-106.436592">
			<ele>2270.53</ele>
			<time>2015-03-08T17:03:34Z</time>
			<fix>3d</fix>
		</trkpt>
		<trkpt lat="35.168080" lon="-106.436587">
			<ele>2270.53</ele>
			<time>2015-03-08T17:03:35Z</time>
			<fix>3d</fix>
		</trkpt>
		<trkpt lat="35.168069" lon="-106.436581">
			<ele>2270.63</ele>
			<time>2015-03-08T17:03:36Z</time>
			<fix>3d</fix>
		</trkpt>
		<trkpt lat="35.168055" lon="-106.436575">
			<ele>2270.63</ele>
			<time>2015-03-08T17:03:37Z</time>
			<fix>3d</fix>
		</trkpt>
		<trkpt lat="35.168043" lon="-106.436570">
			<ele>2270.73</ele>
			<time>2015-03-08T17:03:38Z</time>
			<fix>3d</fix>
		</trkpt>
		<trkpt lat="35.168028" lon="-106.436568">
			<ele>2270.73</ele>
			<time>2015-03-08T17:03:39Z</time>
			<fix>3d</fix>
		</trkpt>
		<trkpt lat="35.168019" lon="-106.436561">
			<ele>2270.83</ele>
			<time>2015-03-08T17:03:40Z</time>
			<fix>3d</fix>
		</trkpt>
		<trkpt lat="35.168010" lon="-106.436554">
			<ele>2270.94</ele>
			<time>2015-03-08T17:03:41Z</time>
			<fix>3d</fix>
		</trkpt>
		<trkpt lat="35.168000" lon="-106.436545">
			<ele>2270.93</ele>
			<time>2015-03-08T17:03:42Z</time>
			<fix>3d</fix>
		</trkpt>
		<trkpt lat="35.167996" lon="-106.436541">
			<ele>2271.24</ele>
			<time>2015-03-08T17:03:43Z</time>
			<fix>3d</fix>
		</trkpt>
		<trkpt lat="35.167990" lon="-106.436537">
			<ele>2271.55</ele>
			<time>2015-03-08T17:03:44Z</time>
			<fix>3d</fix>
		</trkpt>
		<trkpt lat="35.167975" lon="-106.436525">
			<ele>2271.97</ele>
			<time>2015-03-08T17:03:45Z</time>
			<fix>3d</fix>
		</trkpt>
		<trkpt lat="35.167963" lon="-106.436516">
			<ele>2272.38</ele>
			<time>2015-03-08T17:03:46Z</time>
			<fix>3d</fix>
		</trkpt>
		<trkpt lat="35.167961" lon="-106.436513">
			<ele>2272.38</ele>
			<time>2015-03-08T17:03:47Z</time>
			<fix>3d</fix>
		</trkpt>
		<trkpt lat="35.167956" lon="-106.436508">
			<ele>2272.48</ele>
			<time>2015-03-08T17:03:48Z</time>
			<fix>3d</fix>
		</trkpt>
		<trkpt lat="35.167943" lon="-106.436496">
			<ele>2272.48</ele>
			<time>2015-03-08T17:03:49Z</time>
			<fix>3d</fix>
		</trkpt>
		<trkpt lat="35.167932" lon="-106.436488">
			<ele>2272.48</ele>
			<time>2015-03-08T17:03:50Z</time>
			<fix>3d</fix>
		</trkpt>
		<trkpt lat="35.167927" lon="-106.436484">
			<ele>2272.47</ele>
			<time>2015-03-08T17:03:51Z</time>
			<fix>3d</fix>
		</trkpt>
		<trkpt lat="35.167911" lon="-106.436468">
			<ele>2272.58</ele>
			<time>2015-03-08T17:03:52Z</time>
			<fix>3d</fix>
		</trkpt>
		<trkpt lat="35.167896" lon="-106.436456">
			<ele>2272.78</ele>
			<time>2015-03-08T17:03:55Z</time>
			<fix>3d</fix>
		</trkpt>
		<trkpt lat="35.167889" lon="-106.436457">
			<ele>2272.78</ele>
			<time>2015-03-08T17:03:57Z</time>
			<fix>3d</fix>
		</trkpt>
		<trkpt lat="35.167882" lon="-106.436458">
			<ele>2272.88</ele>
			<time>2015-03-08T17:03:59Z</time>
			<fix>3d</fix>
		</trkpt>
		<trkpt lat="35.167875" lon="-106.436459">
			<ele>2272.98</ele>
			<time>2015-03-08T17:04:01Z</time>
			<fix>3d</fix>
		</trkpt>
		<trkpt lat="35.167868" lon="-106.436458">
			<ele>2273.44</ele>
			<time>2015-03-08T17:04:05Z</time>
			<fix>3d</fix>
		</trkpt>
		<trkpt lat="35.167861" lon="-106.436452">
			<ele>2273.43</ele>
			<time>2015-03-08T17:04:12Z</time>
			<fix>3d</fix>
		</trkpt>
		<trkpt lat="35.167856" lon="-106.436443">
			<ele>2273.52</ele>
			<time>2015-03-08T17:04:16Z</time>
			<fix>3d</fix>
		</trkpt>
		<trkpt lat="35.167855" lon="-106.436442">
			<ele>2273.52</ele>
			<time>2015-03-08T17:04:17Z</time>
			<fix>3d</fix>
		</trkpt>
		<trkpt lat="35.167840" lon="-106.436458">
			<ele>2273.51</ele>
			<time>2015-03-08T17:04:25Z</time>
			<fix>3d</fix>
		</trkpt>
		<trkpt lat="35.167838" lon="-106.436468">
			<ele>2273.49</ele>
			<time>2015-03-08T17:04:38Z</time>
			<fix>3d</fix>
		</trkpt>
		<trkpt lat="35.167838" lon="-106.436474">
			<ele>2273.47</ele>
			<time>2015-03-08T17:04:47Z</time>
			<fix>3d</fix>
		</trkpt>
		<trkpt lat="35.167769" lon="-106.436497">
			<ele>2273.47</ele>
			<time>2015-03-08T17:04:53Z</time>
			<fix>3d</fix>
		</trkpt>
		<trkpt lat="35.167763" lon="-106.436488">
			<ele>2273.47</ele>
			<time>2015-03-08T17:04:54Z</time>
			<fix>3d</fix>
		</trkpt>
		<trkpt lat="35.167760" lon="-106.436485">
			<ele>2273.58</ele>
			<time>2015-03-08T17:04:55Z</time>
			<fix>3d</fix>
		</trkpt>
		<trkpt lat="35.167748" lon="-106.436472">
			<ele>2273.58</ele>
			<time>2015-03-08T17:04:56Z</time>
			<fix>3d</fix>
		</trkpt>
		<trkpt lat="35.167747" lon="-106.436455">
			<ele>2273.79</ele>
			<time>2015-03-08T17:04:57Z</time>
			<fix>3d</fix>
		</trkpt>
		<trkpt lat="35.167752" lon="-106.436442">
			<ele>2273.99</ele>
			<time>2015-03-08T17:04:58Z</time>
			<fix>3d</fix>
		</trkpt>
		<trkpt lat="35.167758" lon="-106.436437">
			<ele>2274.41</ele>
			<time>2015-03-08T17:04:59Z</time>
			<fix>3d</fix>
		</trkpt>
		<trkpt lat="35.167763" lon="-106.436429">
			<ele>2274.42</ele>
			<time>2015-03-08T17:05:00Z</time>
			<fix>3d</fix>
		</trkpt>
		<trkpt lat="35.167761" lon="-106.436422">
			<ele>2274.53</ele>
			<time>2015-03-08T17:05:02Z</time>
			<fix>3d</fix>
		</trkpt>
		<trkpt lat="35.167756" lon="-106.436419">
			<ele>2274.65</ele>
			<time>2015-03-08T17:05:03Z</time>
			<fix>3d</fix>
		</trkpt>
		<trkpt lat="35.167737" lon="-106.436405">
			<ele>2274.76</ele>
			<time>2015-03-08T17:05:04Z</time>
			<fix>3d</fix>
		</trkpt>
		<trkpt lat="35.167732" lon="-106.436390">
			<ele>2274.77</ele>
			<time>2015-03-08T17:05:05Z</time>
			<fix>3d</fix>
		</trkpt>
		<trkpt lat="35.167729" lon="-106.436377">
			<ele>2274.88</ele>
			<time>2015-03-08T17:05:06Z</time>
			<fix>3d</fix>
		</trkpt>
		<trkpt lat="35.167727" lon="-106.436370">
			<ele>2274.88</ele>
			<time>2015-03-08T17:05:07Z</time>
			<fix>3d</fix>
		</trkpt>
		<trkpt lat="35.167723" lon="-106.436347">
			<ele>2274.99</ele>
			<time>2015-03-08T17:05:08Z</time>
			<fix>3d</fix>
		</trkpt>
		<trkpt lat="35.167722" lon="-106.436334">
			<ele>2275.27</ele>
			<time>2015-03-08T17:05:09Z</time>
			<fix>3d</fix>
		</trkpt>
		<trkpt lat="35.167723" lon="-106.436321">
			<ele>2275.38</ele>
			<time>2015-03-08T17:05:10Z</time>
			<fix>3d</fix>
		</trkpt>
		<trkpt lat="35.167726" lon="-106.436308">
			<ele>2275.69</ele>
			<time>2015-03-08T17:05:11Z</time>
			<fix>3d</fix>
		</trkpt>
		<trkpt lat="35.167727" lon="-106.436299">
			<ele>2275.92</ele>
			<time>2015-03-08T17:05:13Z</time>
			<fix>3d</fix>
		</trkpt>
		<trkpt lat="35.167731" lon="-106.436282">
			<ele>2276.54</ele>
			<time>2015-03-08T17:05:14Z</time>
			<fix>3d</fix>
		</trkpt>
		<trkpt lat="35.167736" lon="-106.436273">
			<ele>2276.99</ele>
			<time>2015-03-08T17:05:18Z</time>
			<fix>3d</fix>
		</trkpt>
		<trkpt lat="35.167747" lon="-106.436266">
			<ele>2277.10</ele>
			<time>2015-03-08T17:05:19Z</time>
			<fix>3d</fix>
		</trkpt>
		<trkpt lat="35.167765" lon="-106.436258">
			<ele>2277.21</ele>
			<time>2015-03-08T17:05:20Z</time>
			<fix>3d</fix>
		</trkpt>
		<trkpt lat="35.167776" lon="-106.436249">
			<ele>2277.52</ele>
			<time>2015-03-08T17:05:21Z</time>
			<fix>3d</fix>
		</trkpt>
		<trkpt lat="35.167781" lon="-106.436244">
			<ele>2278.15</ele>
			<time>2015-03-08T17:05:22Z</time>
			<fix>3d</fix>
		</trkpt>
		<trkpt lat="35.167789" lon="-106.436238">
			<ele>2278.36</ele>
			<time>2015-03-08T17:05:23Z</time>
			<fix>3d</fix>
		</trkpt>
		<trkpt lat="35.167796" lon="-106.436232">
			<ele>2278.36</ele>
			<time>2015-03-08T17:05:24Z</time>
			<fix>3d</fix>
		</trkpt>
		<trkpt lat="35.167801" lon="-106.436227">
			<ele>2278.36</ele>
			<time>2015-03-08T17:05:25Z</time>
			<fix>3d</fix>
		</trkpt>
		<trkpt lat="35.167808" lon="-106.436221">
			<ele>2278.47</ele>
			<time>2015-03-08T17:05:26Z</time>
			<fix>3d</fix>
		</trkpt>
		<trkpt lat="35.167814" lon="-106.436215">
			<ele>2278.68</ele>
			<time>2015-03-08T17:05:27Z</time>
			<fix>3d</fix>
		</trkpt>
		<trkpt lat="35.167821" lon="-106.436209">
			<ele>2278.89</ele>
			<time>2015-03-08T17:05:28Z</time>
			<fix>3d</fix>
		</trkpt>
		<trkpt lat="35.167827" lon="-106.436200">
			<ele>2279.41</ele>
			<time>2015-03-08T17:05:30Z</time>
			<fix>3d</fix>
		</trkpt>
		<trkpt lat="35.167833" lon="-106.436179">
			<ele>2279.62</ele>
			<time>2015-03-08T17:05:47Z</time>
			<fix>3d</fix>
		</trkpt>
		<trkpt lat="35.167824" lon="-106.436179">
			<ele>2279.94</ele>
			<time>2015-03-08T17:06:01Z</time>
			<fix>3d</fix>
		</trkpt>
		<trkpt lat="35.167817" lon="-106.436173">
			<ele>2280.06</ele>
			<time>2015-03-08T17:06:33Z</time>
			<fix>3d</fix>
		</trkpt>
		<trkpt lat="35.167817" lon="-106.436166">
			<ele>2280.17</ele>
			<time>2015-03-08T17:06:46Z</time>
			<fix>3d</fix>
		</trkpt>
		<trkpt lat="35.167762" lon="-106.436293">
			<ele>2280.17</ele>
			<time>2015-03-08T17:07:10Z</time>
			<fix>3d</fix>
		</trkpt>
		<trkpt lat="35.167773" lon="-106.436301">
			<ele>2280.18</ele>
			<time>2015-03-08T17:07:11Z</time>
			<fix>3d</fix>
		</trkpt>
		<trkpt lat="35.167777" lon="-106.436307">
			<ele>2280.19</ele>
			<time>2015-03-08T17:07:12Z</time>
			<fix>3d</fix>
		</trkpt>
		<trkpt lat="35.167784" lon="-106.436308">
			<ele>2280.20</ele>
			<time>2015-03-08T17:07:13Z</time>
			<fix>3d</fix>
		</trkpt>
		<trkpt lat="35.167789" lon="-106.436304">
			<ele>2280.21</ele>
			<time>2015-03-08T17:07:14Z</time>
			<fix>3d</fix>
		</trkpt>
		<trkpt lat="35.167793" lon="-106.436298">
			<ele>2280.22</ele>
			<time>2015-03-08T17:07:15Z</time>
			<fix>3d</fix>
		</trkpt>
		<trkpt lat="35.167796" lon="-106.436291">
			<ele>2280.24</ele>
			<time>2015-03-08T17:07:16Z</time>
			<fix>3d</fix>
		</trkpt>
		<trkpt lat="35.167799" lon="-106.436284">
			<ele>2280.26</ele>
			<time>2015-03-08T17:07:17Z</time>
			<fix>3d</fix>
		</trkpt>
		<trkpt lat="35.167801" lon="-106.436276">
			<ele>2280.28</ele>
			<time>2015-03-08T17:07:18Z</time>
			<fix>3d</fix>
		</trkpt>
		<trkpt lat="35.167803" lon="-106.436269">
			<ele>2280.29</ele>
			<time>2015-03-08T17:07:19Z</time>
			<fix>3d</fix>
		</trkpt>
		<trkpt lat="35.167804" lon="-106.436262">
			<ele>2280.21</ele>
			<time>2015-03-08T17:07:20Z</time>
			<fix>3d</fix>
		</trkpt>
		<trkpt lat="35.167805" lon="-106.436256">
			<ele>2280.22</ele>
			<time>2015-03-08T17:07:21Z</time>
			<fix>3d</fix>
		</trkpt>
		<trkpt lat="35.167805" lon="-106.436246">
			<ele>2280.35</ele>
			<time>2015-03-08T17:07:23Z</time>
			<fix>3d</fix>
		</trkpt>
		<trkpt lat="35.167804" lon="-106.436236">
			<ele>2280.29</ele>
			<time>2015-03-08T17:07:26Z</time>
			<fix>3d</fix>
		</trkpt>
		<trkpt lat="35.167807" lon="-106.436232">
			<ele>2279.90</ele>
			<time>2015-03-08T17:07:46Z</time>
			<fix>3d</fix>
		</trkpt>
		<trkpt lat="35.167814" lon="-106.436220">
			<ele>2280.06</ele>
			<time>2015-03-08T17:07:52Z</time>
			<fix>3d</fix>
		</trkpt>
		<trkpt lat="35.167813" lon="-106.436211">
			<ele>2280.07</ele>
			<time>2015-03-08T17:07:53Z</time>
			<fix>3d</fix>
		</trkpt>
		<trkpt lat="35.167812" lon="-106.436201">
			<ele>2280.18</ele>
			<time>2015-03-08T17:07:54Z</time>
			<fix>3d</fix>
		</trkpt>
		<trkpt lat="35.167812" lon="-106.436190">
			<ele>2280.29</ele>
			<time>2015-03-08T17:07:55Z</time>
			<fix>3d</fix>
		</trkpt>
		<trkpt lat="35.167808" lon="-106.436164">
			<ele>2280.61</ele>
			<time>2015-03-08T17:07:56Z</time>
			<fix>3d</fix>
		</trkpt>
		<trkpt lat="35.167805" lon="-106.436154">
			<ele>2280.83</ele>
			<time>2015-03-08T17:07:58Z</time>
			<fix>3d</fix>
		</trkpt>
		<trkpt lat="35.167803" lon="-106.436148">
			<ele>2281.05</ele>
			<time>2015-03-08T17:07:59Z</time>
			<fix>3d</fix>
		</trkpt>
		<trkpt lat="35.167799" lon="-106.436139">
			<ele>2281.37</ele>
			<time>2015-03-08T17:08:00Z</time>
			<fix>3d</fix>
		</trkpt>
		<trkpt lat="35.167797" lon="-106.436133">
			<ele>2281.48</ele>
			<time>2015-03-08T17:08:01Z</time>
			<fix>3d</fix>
		</trkpt>
		<trkpt lat="35.167793" lon="-106.436123">
			<ele>2281.59</ele>
			<time>2015-03-08T17:08:02Z</time>
			<fix>3d</fix>
		</trkpt>
		<trkpt lat="35.167788" lon="-106.436113">
			<ele>2281.80</ele>
			<time>2015-03-08T17:08:03Z</time>
			<fix>3d</fix>
		</trkpt>
		<trkpt lat="35.167776" lon="-106.436081">
			<ele>2281.91</ele>
			<time>2015-03-08T17:08:04Z</time>
			<fix>3d</fix>
		</trkpt>
		<trkpt lat="35.167771" lon="-106.436069">
			<ele>2282.03</ele>
			<time>2015-03-08T17:08:05Z</time>
			<fix>3d</fix>
		</trkpt>
		<trkpt lat="35.167766" lon="-106.436055">
			<ele>2282.24</ele>
			<time>2015-03-08T17:08:06Z</time>
			<fix>3d</fix>
		</trkpt>
		<trkpt lat="35.167765" lon="-106.436042">
			<ele>2282.35</ele>
			<time>2015-03-08T17:08:07Z</time>
			<fix>3d</fix>
		</trkpt>
		<trkpt lat="35.167764" lon="-106.436029">
			<ele>2282.36</ele>
			<time>2015-03-08T17:08:08Z</time>
			<fix>3d</fix>
		</trkpt>
		<trkpt lat="35.167760" lon="-106.436015">
			<ele>2282.57</ele>
			<time>2015-03-08T17:08:09Z</time>
			<fix>3d</fix>
		</trkpt>
		<trkpt lat="35.167754" lon="-106.436001">
			<ele>2282.69</ele>
			<time>2015-03-08T17:08:10Z</time>
			<fix>3d</fix>
		</trkpt>
		<trkpt lat="35.167752" lon="-106.435996">
			<ele>2282.69</ele>
			<time>2015-03-08T17:08:11Z</time>
			<fix>3d</fix>
		</trkpt>
		<trkpt lat="35.167745" lon="-106.435977">
			<ele>2282.81</ele>
			<time>2015-03-08T17:08:12Z</time>
			<fix>3d</fix>
		</trkpt>
		<trkpt lat="35.167740" lon="-106.435961">
			<ele>2282.92</ele>
			<time>2015-03-08T17:08:13Z</time>
			<fix>3d</fix>
		</trkpt>
		<trkpt lat="35.167739" lon="-106.435956">
			<ele>2283.13</ele>
			<time>2015-03-08T17:08:14Z</time>
			<fix>3d</fix>
		</trkpt>
		<trkpt lat="35.167733" lon="-106.435938">
			<ele>2283.04</ele>
			<time>2015-03-08T17:08:15Z</time>
			<fix>3d</fix>
		</trkpt>
		<trkpt lat="35.167731" lon="-106.435932">
			<ele>2283.25</ele>
			<time>2015-03-08T17:08:16Z</time>
			<fix>3d</fix>
		</trkpt>
		<trkpt lat="35.167724" lon="-106.435914">
			<ele>2283.47</ele>
			<time>2015-03-08T17:08:17Z</time>
			<fix>3d</fix>
		</trkpt>
		<trkpt lat="35.167721" lon="-106.435908">
			<ele>2283.48</ele>
			<time>2015-03-08T17:08:18Z</time>
			<fix>3d</fix>
		</trkpt>
		<trkpt lat="35.167719" lon="-106.435904">
			<ele>2283.59</ele>
			<time>2015-03-08T17:08:19Z</time>
			<fix>3d</fix>
		</trkpt>
		<trkpt lat="35.167704" lon="-106.435883">
			<ele>2283.80</ele>
			<time>2015-03-08T17:08:20Z</time>
			<fix>3d</fix>
		</trkpt>
		<trkpt lat="35.167696" lon="-106.435875">
			<ele>2284.12</ele>
			<time>2015-03-08T17:08:21Z</time>
			<fix>3d</fix>
		</trkpt>
		<trkpt lat="35.167687" lon="-106.435868">
			<ele>2284.34</ele>
			<time>2015-03-08T17:08:22Z</time>
			<fix>3d</fix>
		</trkpt>
		<trkpt lat="35.167675" lon="-106.435860">
			<ele>2284.45</ele>
			<time>2015-03-08T17:08:23Z</time>
			<fix>3d</fix>
		</trkpt>
		<trkpt lat="35.167668" lon="-106.435852">
			<ele>2284.56</ele>
			<time>2015-03-08T17:08:24Z</time>
			<fix>3d</fix>
		</trkpt>
		<trkpt lat="35.167665" lon="-106.435849">
			<ele>2284.77</ele>
			<time>2015-03-08T17:08:25Z</time>
			<fix>3d</fix>
		</trkpt>
		<trkpt lat="35.167661" lon="-106.435844">
			<ele>2285.09</ele>
			<time>2015-03-08T17:08:26Z</time>
			<fix>3d</fix>
		</trkpt>
		<trkpt lat="35.167651" lon="-106.435826">
			<ele>2285.92</ele>
			<time>2015-03-08T17:08:27Z</time>
			<fix>3d</fix>
		</trkpt>
		<trkpt lat="35.167648" lon="-106.435821">
			<ele>2285.93</ele>
			<time>2015-03-08T17:08:28Z</time>
			<fix>3d</fix>
		</trkpt>
		<trkpt lat="35.167646" lon="-106.435816">
			<ele>2285.94</ele>
			<time>2015-03-08T17:08:29Z</time>
			<fix>3d</fix>
		</trkpt>
		<trkpt lat="35.167633" lon="-106.435800">
			<ele>2285.94</ele>
			<time>2015-03-08T17:08:30Z</time>
			<fix>3d</fix>
		</trkpt>
		<trkpt lat="35.167622" lon="-106.435792">
			<ele>2286.05</ele>
			<time>2015-03-08T17:08:31Z</time>
			<fix>3d</fix>
		</trkpt>
		<trkpt lat="35.167618" lon="-106.435789">
			<ele>2285.87</ele>
			<time>2015-03-08T17:08:32Z</time>
			<fix>3d</fix>
		</trkpt>
		<trkpt lat="35.167605" lon="-106.435780">
			<ele>2285.98</ele>
			<time>2015-03-08T17:08:33Z</time>
			<fix>3d</fix>
		</trkpt>
		<trkpt lat="35.167600" lon="-106.435775">
			<ele>2285.98</ele>
			<time>2015-03-08T17:08:34Z</time>
			<fix>3d</fix>
		</trkpt>
		<trkpt lat="35.167585" lon="-106.435759">
			<ele>2286.09</ele>
			<time>2015-03-08T17:08:35Z</time>
			<fix>3d</fix>
		</trkpt>
		<trkpt lat="35.167581" lon="-106.435754">
			<ele>2286.10</ele>
			<time>2015-03-08T17:08:36Z</time>
			<fix>3d</fix>
		</trkpt>
		<trkpt lat="35.167575" lon="-106.435744">
			<ele>2286.20</ele>
			<time>2015-03-08T17:08:37Z</time>
			<fix>3d</fix>
		</trkpt>
		<trkpt lat="35.167568" lon="-106.435735">
			<ele>2286.21</ele>
			<time>2015-03-08T17:08:38Z</time>
			<fix>3d</fix>
		</trkpt>
		<trkpt lat="35.167561" lon="-106.435726">
			<ele>2286.31</ele>
			<time>2015-03-08T17:08:39Z</time>
			<fix>3d</fix>
		</trkpt>
		<trkpt lat="35.167538" lon="-106.435706">
			<ele>2286.52</ele>
			<time>2015-03-08T17:08:40Z</time>
			<fix>3d</fix>
		</trkpt>
		<trkpt lat="35.167535" lon="-106.435703">
			<ele>2286.63</ele>
			<time>2015-03-08T17:08:41Z</time>
			<fix>3d</fix>
		</trkpt>
		<trkpt lat="35.167531" lon="-106.435699">
			<ele>2286.84</ele>
			<time>2015-03-08T17:08:42Z</time>
			<fix>3d</fix>
		</trkpt>
		<trkpt lat="35.167525" lon="-106.435696">
			<ele>2287.15</ele>
			<time>2015-03-08T17:08:43Z</time>
			<fix>3d</fix>
		</trkpt>
		<trkpt lat="35.167519" lon="-106.435694">
			<ele>2287.25</ele>
			<time>2015-03-08T17:08:44Z</time>
			<fix>3d</fix>
		</trkpt>
		<trkpt lat="35.167503" lon="-106.435685">
			<ele>2287.46</ele>
			<time>2015-03-08T17:08:45Z</time>
			<fix>3d</fix>
		</trkpt>
		<trkpt lat="35.167495" lon="-106.435682">
			<ele>2287.67</ele>
			<time>2015-03-08T17:08:47Z</time>
			<fix>3d</fix>
		</trkpt>
		<trkpt lat="35.167475" lon="-106.435683">
			<ele>2287.88</ele>
			<time>2015-03-08T17:08:48Z</time>
			<fix>3d</fix>
		</trkpt>
		<trkpt lat="35.167469" lon="-106.435682">
			<ele>2288.40</ele>
			<time>2015-03-08T17:08:49Z</time>
			<fix>3d</fix>
		</trkpt>
		<trkpt lat="35.167455" lon="-106.435676">
			<ele>2288.61</ele>
			<time>2015-03-08T17:08:50Z</time>
			<fix>3d</fix>
		</trkpt>
		<trkpt lat="35.167447" lon="-106.435669">
			<ele>2288.71</ele>
			<time>2015-03-08T17:08:51Z</time>
			<fix>3d</fix>
		</trkpt>
		<trkpt lat="35.167442" lon="-106.435666">
			<ele>2288.71</ele>
			<time>2015-03-08T17:08:53Z</time>
			<fix>3d</fix>
		</trkpt>
		<trkpt lat="35.167435" lon="-106.435663">
			<ele>2289.02</ele>
			<time>2015-03-08T17:08:55Z</time>
			<fix>3d</fix>
		</trkpt>
		<trkpt lat="35.167428" lon="-106.435662">
			<ele>2289.03</ele>
			<time>2015-03-08T17:08:56Z</time>
			<fix>3d</fix>
		</trkpt>
		<trkpt lat="35.167412" lon="-106.435657">
			<ele>2289.34</ele>
			<time>2015-03-08T17:08:57Z</time>
			<fix>3d</fix>
		</trkpt>
		<trkpt lat="35.167400" lon="-106.435652">
			<ele>2289.44</ele>
			<time>2015-03-08T17:08:58Z</time>
			<fix>3d</fix>
		</trkpt>
		<trkpt lat="35.167387" lon="-106.435652">
			<ele>2290.06</ele>
			<time>2015-03-08T17:08:59Z</time>
			<fix>3d</fix>
		</trkpt>
		<trkpt lat="35.167385" lon="-106.435649">
			<ele>2290.16</ele>
			<time>2015-03-08T17:09:00Z</time>
			<fix>3d</fix>
		</trkpt>
		<trkpt lat="35.167375" lon="-106.435643">
			<ele>2290.27</ele>
			<time>2015-03-08T17:09:01Z</time>
			<fix>3d</fix>
		</trkpt>
		<trkpt lat="35.167368" lon="-106.435635">
			<ele>2290.37</ele>
			<time>2015-03-08T17:09:02Z</time>
			<fix>3d</fix>
		</trkpt>
		<trkpt lat="35.167366" lon="-106.435627">
			<ele>2290.68</ele>
			<time>2015-03-08T17:09:04Z</time>
			<fix>3d</fix>
		</trkpt>
		<trkpt lat="35.167365" lon="-106.435623">
			<ele>2290.68</ele>
			<time>2015-03-08T17:09:05Z</time>
			<fix>3d</fix>
		</trkpt>
		<trkpt lat="35.167373" lon="-106.435610">
			<ele>2290.78</ele>
			<time>2015-03-08T17:09:06Z</time>
			<fix>3d</fix>
		</trkpt>
		<trkpt lat="35.167376" lon="-106.435599">
			<ele>2290.99</ele>
			<time>2015-03-08T17:09:07Z</time>
			<fix>3d</fix>
		</trkpt>
		<trkpt lat="35.167384" lon="-106.435585">
			<ele>2291.40</ele>
			<time>2015-03-08T17:09:08Z</time>
			<fix>3d</fix>
		</trkpt>
		<trkpt lat="35.167389" lon="-106.435580">
			<ele>2291.61</ele>
			<time>2015-03-08T17:09:09Z</time>
			<fix>3d</fix>
		</trkpt>
		<trkpt lat="35.167391" lon="-106.435573">
			<ele>2291.71</ele>
			<time>2015-03-08T17:09:11Z</time>
			<fix>3d</fix>
		</trkpt>
		<trkpt lat="35.167392" lon="-106.435563">
			<ele>2291.81</ele>
			<time>2015-03-08T17:09:14Z</time>
			<fix>3d</fix>
		</trkpt>
		<trkpt lat="35.167391" lon="-106.435561">
			<ele>2291.91</ele>
			<time>2015-03-08T17:09:15Z</time>
			<fix>3d</fix>
		</trkpt>
		<trkpt lat="35.167383" lon="-106.435557">
			<ele>2292.32</ele>
			<time>2015-03-08T17:09:17Z</time>
			<fix>3d</fix>
		</trkpt>
		<trkpt lat="35.167376" lon="-106.435557">
			<ele>2292.72</ele>
			<time>2015-03-08T17:10:04Z</time>
			<fix>3d</fix>
		</trkpt>
		<trkpt lat="35.167256" lon="-106.435767">
			<ele>2292.82</ele>
			<time>2015-03-08T17:10:45Z</time>
			<fix>3d</fix>
		</trkpt>
		<trkpt lat="35.167260" lon="-106.435762">
			<ele>2292.80</ele>
			<time>2015-03-08T17:10:46Z</time>
			<fix>3d</fix>
		</trkpt>
		<trkpt lat="35.167265" lon="-106.435758">
			<ele>2292.79</ele>
			<time>2015-03-08T17:10:47Z</time>
			<fix>3d</fix>
		</trkpt>
		<trkpt lat="35.167272" lon="-106.435752">
			<ele>2292.76</ele>
			<time>2015-03-08T17:10:49Z</time>
			<fix>3d</fix>
		</trkpt>
		<trkpt lat="35.167279" lon="-106.435747">
			<ele>2292.73</ele>
			<time>2015-03-08T17:10:51Z</time>
			<fix>3d</fix>
		</trkpt>
		<trkpt lat="35.167286" lon="-106.435743">
			<ele>2292.69</ele>
			<time>2015-03-08T17:10:54Z</time>
			<fix>3d</fix>
		</trkpt>
		<trkpt lat="35.167293" lon="-106.435740">
			<ele>2292.65</ele>
			<time>2015-03-08T17:10:58Z</time>
			<fix>3d</fix>
		</trkpt>
		<trkpt lat="35.167129" lon="-106.435897">
			<ele>2292.81</ele>
			<time>2015-03-08T17:13:32Z</time>
			<fix>3d</fix>
		</trkpt>
		<trkpt lat="35.167130" lon="-106.435889">
			<ele>2292.79</ele>
			<time>2015-03-08T17:13:33Z</time>
			<fix>3d</fix>
		</trkpt>
		<trkpt lat="35.167132" lon="-106.435881">
			<ele>2292.77</ele>
			<time>2015-03-08T17:13:34Z</time>
			<fix>3d</fix>
		</trkpt>
		<trkpt lat="35.167133" lon="-106.435872">
			<ele>2292.73</ele>
			<time>2015-03-08T17:13:37Z</time>
			<fix>3d</fix>
		</trkpt>
		<trkpt lat="35.167132" lon="-106.435863">
			<ele>2292.66</ele>
			<time>2015-03-08T17:13:42Z</time>
			<fix>3d</fix>
		</trkpt>
		<trkpt lat="35.167136" lon="-106.435854">
			<ele>2292.61</ele>
			<time>2015-03-08T17:13:45Z</time>
			<fix>3d</fix>
		</trkpt>
		<trkpt lat="35.167140" lon="-106.435848">
			<ele>2292.57</ele>
			<time>2015-03-08T17:13:47Z</time>
			<fix>3d</fix>
		</trkpt>
		<trkpt lat="35.167144" lon="-106.435842">
			<ele>2292.43</ele>
			<time>2015-03-08T17:13:49Z</time>
			<fix>3d</fix>
		</trkpt>
		<trkpt lat="35.167148" lon="-106.435836">
			<ele>2292.39</ele>
			<time>2015-03-08T17:13:51Z</time>
			<fix>3d</fix>
		</trkpt>
		<trkpt lat="35.167152" lon="-106.435830">
			<ele>2292.35</ele>
			<time>2015-03-08T17:13:53Z</time>
			<fix>3d</fix>
		</trkpt>
		<trkpt lat="35.167154" lon="-106.435827">
			<ele>2292.33</ele>
			<time>2015-03-08T17:13:54Z</time>
			<fix>3d</fix>
		</trkpt>
		<trkpt lat="35.167309" lon="-106.435527">
			<ele>2292.35</ele>
			<time>2015-03-08T17:15:52Z</time>
			<fix>3d</fix>
		</trkpt>
		<trkpt lat="35.167311" lon="-106.435542">
			<ele>2292.24</ele>
			<time>2015-03-08T17:15:55Z</time>
			<fix>3d</fix>
		</trkpt>
		<trkpt lat="35.167312" lon="-106.435552">
			<ele>2292.23</ele>
			<time>2015-03-08T17:15:56Z</time>
			<fix>3d</fix>
		</trkpt>
		<trkpt lat="35.167313" lon="-106.435561">
			<ele>2292.23</ele>
			<time>2015-03-08T17:15:57Z</time>
			<fix>3d</fix>
		</trkpt>
		<trkpt lat="35.167314" lon="-106.435567">
			<ele>2292.23</ele>
			<time>2015-03-08T17:15:58Z</time>
			<fix>3d</fix>
		</trkpt>
		<trkpt lat="35.167315" lon="-106.435578">
			<ele>2292.22</ele>
			<time>2015-03-08T17:15:59Z</time>
			<fix>3d</fix>
		</trkpt>
		<trkpt lat="35.167309" lon="-106.435604">
			<ele>2292.22</ele>
			<time>2015-03-08T17:16:02Z</time>
			<fix>3d</fix>
		</trkpt>
		<trkpt lat="35.167303" lon="-106.435606">
			<ele>2292.11</ele>
			<time>2015-03-08T17:16:03Z</time>
			<fix>3d</fix>
		</trkpt>
		<trkpt lat="35.167296" lon="-106.435611">
			<ele>2292.11</ele>
			<time>2015-03-08T17:16:05Z</time>
			<fix>3d</fix>
		</trkpt>
		<trkpt lat="35.167289" lon="-106.435615">
			<ele>2292.10</ele>
			<time>2015-03-08T17:16:07Z</time>
			<fix>3d</fix>
		</trkpt>
		<trkpt lat="35.167283" lon="-106.435619">
			<ele>2292.09</ele>
			<time>2015-03-08T17:16:09Z</time>
			<fix>3d</fix>
		</trkpt>
		<trkpt lat="35.167277" lon="-106.435624">
			<ele>2292.09</ele>
			<time>2015-03-08T17:16:12Z</time>
			<fix>3d</fix>
		</trkpt>
		<trkpt lat="35.167275" lon="-106.435634">
			<ele>2291.89</ele>
			<time>2015-03-08T17:16:23Z</time>
			<fix>3d</fix>
		</trkpt>
		<trkpt lat="35.167278" lon="-106.435637">
			<ele>2291.86</ele>
			<time>2015-03-08T17:16:29Z</time>
			<fix>3d</fix>
		</trkpt>
		<trkpt lat="35.167342" lon="-106.435756">
			<ele>2291.76</ele>
			<time>2015-03-08T17:16:43Z</time>
			<fix>3d</fix>
		</trkpt>
		<trkpt lat="35.167341" lon="-106.435746">
			<ele>2291.77</ele>
			<time>2015-03-08T17:16:45Z</time>
			<fix>3d</fix>
		</trkpt>
		<trkpt lat="35.167342" lon="-106.435725">
			<ele>2291.98</ele>
			<time>2015-03-08T17:16:46Z</time>
			<fix>3d</fix>
		</trkpt>
		<trkpt lat="35.167345" lon="-106.435703">
			<ele>2292.09</ele>
			<time>2015-03-08T17:16:47Z</time>
			<fix>3d</fix>
		</trkpt>
		<trkpt lat="35.167347" lon="-106.435677">
			<ele>2292.30</ele>
			<time>2015-03-08T17:16:48Z</time>
			<fix>3d</fix>
		</trkpt>
		<trkpt lat="35.167349" lon="-106.435653">
			<ele>2292.61</ele>
			<time>2015-03-08T17:16:49Z</time>
			<fix>3d</fix>
		</trkpt>
		<trkpt lat="35.167353" lon="-106.435590">
			<ele>2292.62</ele>
			<time>2015-03-08T17:16:50Z</time>
			<fix>3d</fix>
		</trkpt>
		<trkpt lat="35.167354" lon="-106.435567">
			<ele>2292.73</ele>
			<time>2015-03-08T17:16:51Z</time>
			<fix>3d</fix>
		</trkpt>
		<trkpt lat="35.167355" lon="-106.435491">
			<ele>2293.15</ele>
			<time>2015-03-08T17:16:53Z</time>
			<fix>3d</fix>
		</trkpt>
		<trkpt lat="35.167353" lon="-106.435479">
			<ele>2293.25</ele>
			<time>2015-03-08T17:16:54Z</time>
			<fix>3d</fix>
		</trkpt>
		<trkpt lat="35.167350" lon="-106.435468">
			<ele>2293.36</ele>
			<time>2015-03-08T17:16:55Z</time>
			<fix>3d</fix>
		</trkpt>
		<trkpt lat="35.167349" lon="-106.435462">
			<ele>2293.57</ele>
			<time>2015-03-08T17:16:56Z</time>
			<fix>3d</fix>
		</trkpt>
		<trkpt lat="35.167338" lon="-106.435427">
			<ele>2293.68</ele>
			<time>2015-03-08T17:16:57Z</time>
			<fix>3d</fix>
		</trkpt>
		<trkpt lat="35.167337" lon="-106.435420">
			<ele>2294.10</ele>
			<time>2015-03-08T17:17:00Z</time>
			<fix>3d</fix>
		</trkpt>
		<trkpt lat="35.167336" lon="-106.435406">
			<ele>2294.21</ele>
			<time>2015-03-08T17:17:01Z</time>
			<fix>3d</fix>
		</trkpt>
		<trkpt lat="35.167331" lon="-106.435402">
			<ele>2294.32</ele>
			<time>2015-03-08T17:17:06Z</time>
			<fix>3d</fix>
		</trkpt>
		<trkpt lat="35.167319" lon="-106.435395">
			<ele>2294.43</ele>
			<time>2015-03-08T17:17:07Z</time>
			<fix>3d</fix>
		</trkpt>
		<trkpt lat="35.167317" lon="-106.435387">
			<ele>2294.64</ele>
			<time>2015-03-08T17:17:12Z</time>
			<fix>3d</fix>
		</trkpt>
		<trkpt lat="35.167320" lon="-106.435370">
			<ele>2294.75</ele>
			<time>2015-03-08T17:17:13Z</time>
			<fix>3d</fix>
		</trkpt>
		<trkpt lat="35.167321" lon="-106.435365">
			<ele>2294.86</ele>
			<time>2015-03-08T17:17:16Z</time>
			<fix>3d</fix>
		</trkpt>
		<trkpt lat="35.167322" lon="-106.435357">
			<ele>2294.86</ele>
			<time>2015-03-08T17:17:17Z</time>
			<fix>3d</fix>
		</trkpt>
		<trkpt lat="35.167323" lon="-106.435345">
			<ele>2294.86</ele>
			<time>2015-03-08T17:17:18Z</time>
			<fix>3d</fix>
		</trkpt>
		<trkpt lat="35.167322" lon="-106.435338">
			<ele>2295.07</ele>
			<time>2015-03-08T17:17:21Z</time>
			<fix>3d</fix>
		</trkpt>
		<trkpt lat="35.167320" lon="-106.435332">
			<ele>2295.07</ele>
			<time>2015-03-08T17:17:22Z</time>
			<fix>3d</fix>
		</trkpt>
		<trkpt lat="35.167308" lon="-106.435314">
			<ele>2295.18</ele>
			<time>2015-03-08T17:17:23Z</time>
			<fix>3d</fix>
		</trkpt>
		<trkpt lat="35.167302" lon="-106.435307">
			<ele>2296.11</ele>
			<time>2015-03-08T17:17:25Z</time>
			<fix>3d</fix>
		</trkpt>
		<trkpt lat="35.167300" lon="-106.435303">
			<ele>2296.01</ele>
			<time>2015-03-08T17:17:26Z</time>
			<fix>3d</fix>
		</trkpt>
		<trkpt lat="35.167295" lon="-106.435297">
			<ele>2295.99</ele>
			<time>2015-03-08T17:17:27Z</time>
			<fix>3d</fix>
		</trkpt>
		<trkpt lat="35.167290" lon="-106.435288">
			<ele>2296.10</ele>
			<time>2015-03-08T17:17:29Z</time>
			<fix>3d</fix>
		</trkpt>
		<trkpt lat="35.167287" lon="-106.435284">
			<ele>2296.10</ele>
			<time>2015-03-08T17:17:30Z</time>
			<fix>3d</fix>
		</trkpt>
		<trkpt lat="35.167281" lon="-106.435278">
			<ele>2296.10</ele>
			<time>2015-03-08T17:17:31Z</time>
			<fix>3d</fix>
		</trkpt>
		<trkpt lat="35.167275" lon="-106.435273">
			<ele>2296.10</ele>
			<time>2015-03-08T17:17:32Z</time>
			<fix>3d</fix>
		</trkpt>
		<trkpt lat="35.167269" lon="-106.435268">
			<ele>2296.20</ele>
			<time>2015-03-08T17:17:33Z</time>
			<fix>3d</fix>
		</trkpt>
		<trkpt lat="35.167262" lon="-106.435263">
			<ele>2296.31</ele>
			<time>2015-03-08T17:17:34Z</time>
			<fix>3d</fix>
		</trkpt>
		<trkpt lat="35.167259" lon="-106.435260">
			<ele>2296.31</ele>
			<time>2015-03-08T17:17:35Z</time>
			<fix>3d</fix>
		</trkpt>
		<trkpt lat="35.167252" lon="-106.435256">
			<ele>2296.41</ele>
			<time>2015-03-08T17:17:36Z</time>
			<fix>3d</fix>
		</trkpt>
		<trkpt lat="35.167249" lon="-106.435253">
			<ele>2296.52</ele>
			<time>2015-03-08T17:17:37Z</time>
			<fix>3d</fix>
		</trkpt>
		<trkpt lat="35.167245" lon="-106.435249">
			<ele>2296.62</ele>
			<time>2015-03-08T17:17:38Z</time>
			<fix>3d</fix>
		</trkpt>
		<trkpt lat="35.167242" lon="-106.435245">
			<ele>2296.62</ele>
			<time>2015-03-08T17:17:39Z</time>
			<fix>3d</fix>
		</trkpt>
		<trkpt lat="35.167238" lon="-106.435241">
			<ele>2296.73</ele>
			<time>2015-03-08T17:17:40Z</time>
			<fix>3d</fix>
		</trkpt>
		<trkpt lat="35.167230" lon="-106.435236">
			<ele>2296.93</ele>
			<time>2015-03-08T17:17:41Z</time>
			<fix>3d</fix>
		</trkpt>
		<trkpt lat="35.167228" lon="-106.435234">
			<ele>2297.04</ele>
			<time>2015-03-08T17:17:42Z</time>
			<fix>3d</fix>
		</trkpt>
		<trkpt lat="35.167220" lon="-106.435229">
			<ele>2297.45</ele>
			<time>2015-03-08T17:17:43Z</time>
			<fix>3d</fix>
		</trkpt>
		<trkpt lat="35.167212" lon="-106.435225">
			<ele>2298.28</ele>
			<time>2015-03-08T17:17:44Z</time>
			<fix>3d</fix>
		</trkpt>
		<trkpt lat="35.167193" lon="-106.435215">
			<ele>2298.28</ele>
			<time>2015-03-08T17:17:45Z</time>
			<fix>3d</fix>
		</trkpt>
		<trkpt lat="35.167189" lon="-106.435213">
			<ele>2298.38</ele>
			<time>2015-03-08T17:17:46Z</time>
			<fix>3d</fix>
		</trkpt>
		<trkpt lat="35.167177" lon="-106.435206">
			<ele>2298.38</ele>
			<time>2015-03-08T17:17:47Z</time>
			<fix>3d</fix>
		</trkpt>
		<trkpt lat="35.167167" lon="-106.435201">
			<ele>2298.38</ele>
			<time>2015-03-08T17:17:48Z</time>
			<fix>3d</fix>
		</trkpt>
		<trkpt lat="35.167164" lon="-106.435199">
			<ele>2298.48</ele>
			<time>2015-03-08T17:17:49Z</time>
			<fix>3d</fix>
		</trkpt>
		<trkpt lat="35.167150" lon="-106.435190">
			<ele>2298.48</ele>
			<time>2015-03-08T17:17:50Z</time>
			<fix>3d</fix>
		</trkpt>
		<trkpt lat="35.167144" lon="-106.435181">
			<ele>2298.59</ele>
			<time>2015-03-08T17:17:51Z</time>
			<fix>3d</fix>
		</trkpt>
		<trkpt lat="35.167142" lon="-106.435171">
			<ele>2298.59</ele>
			<time>2015-03-08T17:17:53Z</time>
			<fix>3d</fix>
		</trkpt>
		<trkpt lat="35.167141" lon="-106.435163">
			<ele>2298.59</ele>
			<time>2015-03-08T17:17:54Z</time>
			<fix>3d</fix>
		</trkpt>
		<trkpt lat="35.167141" lon="-106.435155">
			<ele>2298.69</ele>
			<time>2015-03-08T17:17:55Z</time>
			<fix>3d</fix>
		</trkpt>
		<trkpt lat="35.167141" lon="-106.435147">
			<ele>2298.69</ele>
			<time>2015-03-08T17:17:56Z</time>
			<fix>3d</fix>
		</trkpt>
		<trkpt lat="35.167143" lon="-106.435127">
			<ele>2298.79</ele>
			<time>2015-03-08T17:17:57Z</time>
			<fix>3d</fix>
		</trkpt>
		<trkpt lat="35.167147" lon="-106.435115">
			<ele>2298.79</ele>
			<time>2015-03-08T17:17:58Z</time>
			<fix>3d</fix>
		</trkpt>
		<trkpt lat="35.167147" lon="-106.435111">
			<ele>2298.79</ele>
			<time>2015-03-08T17:17:59Z</time>
			<fix>3d</fix>
		</trkpt>
		<trkpt lat="35.167160" lon="-106.435097">
			<ele>2299.00</ele>
			<time>2015-03-08T17:18:00Z</time>
			<fix>3d</fix>
		</trkpt>
		<trkpt lat="35.167162" lon="-106.435093">
			<ele>2299.21</ele>
			<time>2015-03-08T17:18:04Z</time>
			<fix>3d</fix>
		</trkpt>
		<trkpt lat="35.167166" lon="-106.435085">
			<ele>2299.21</ele>
			<time>2015-03-08T17:18:05Z</time>
			<fix>3d</fix>
		</trkpt>
		<trkpt lat="35.167166" lon="-106.435081">
			<ele>2299.31</ele>
			<time>2015-03-08T17:18:06Z</time>
			<fix>3d</fix>
		</trkpt>
		<trkpt lat="35.167173" lon="-106.435069">
			<ele>2299.41</ele>
			<time>2015-03-08T17:18:07Z</time>
			<fix>3d</fix>
		</trkpt>
		<trkpt lat="35.167178" lon="-106.435060">
			<ele>2299.72</ele>
			<time>2015-03-08T17:18:19Z</time>
			<fix>3d</fix>
		</trkpt>
		<trkpt lat="35.167184" lon="-106.435054">
			<ele>2299.81</ele>
			<time>2015-03-08T17:18:25Z</time>
			<fix>3d</fix>
		</trkpt>
		<trkpt lat="35.167188" lon="-106.435051">
			<ele>2299.49</ele>
			<time>2015-03-08T17:18:30Z</time>
			<fix>3d</fix>
		</trkpt>
		<trkpt lat="35.167204" lon="-106.435037">
			<ele>2299.69</ele>
			<time>2015-03-08T17:18:38Z</time>
			<fix>3d</fix>
		</trkpt>
		<trkpt lat="35.167202" lon="-106.435027">
			<ele>2299.79</ele>
			<time>2015-03-08T17:18:40Z</time>
			<fix>3d</fix>
		</trkpt>
		<trkpt lat="35.167196" lon="-106.435021">
			<ele>2300.62</ele>
			<time>2015-03-08T17:18:50Z</time>
			<fix>3d</fix>
		</trkpt>
		<trkpt lat="35.167190" lon="-106.435014">
			<ele>2300.72</ele>
			<time>2015-03-08T17:18:53Z</time>
			<fix>3d</fix>
		</trkpt>
		<trkpt lat="35.167186" lon="-106.435008">
			<ele>2300.82</ele>
			<time>2015-03-08T17:18:58Z</time>
			<fix>3d</fix>
		</trkpt>
		<trkpt lat="35.167175" lon="-106.434997">
			<ele>2300.72</ele>
			<time>2015-03-08T17:18:59Z</time>
			<fix>3d</fix>
		</trkpt>
		<trkpt lat="35.167170" lon="-106.434988">
			<ele>2301.02</ele>
			<time>2015-03-08T17:19:04Z</time>
			<fix>3d</fix>
		</trkpt>
		<trkpt lat="35.167163" lon="-106.434985">
			<ele>2301.33</ele>
			<time>2015-03-08T17:19:16Z</time>
			<fix>3d</fix>
		</trkpt>
		<trkpt lat="35.167153" lon="-106.434984">
			<ele>2301.33</ele>
			<time>2015-03-08T17:19:17Z</time>
			<fix>3d</fix>
		</trkpt>
		<trkpt lat="35.167150" lon="-106.434980">
			<ele>2300.92</ele>
			<time>2015-03-08T17:19:38Z</time>
			<fix>3d</fix>
		</trkpt>
		<trkpt lat="35.167149" lon="-106.434973">
			<ele>2300.82</ele>
			<time>2015-03-08T17:19:41Z</time>
			<fix>3d</fix>
		</trkpt>
		<trkpt lat="35.167146" lon="-106.434966">
			<ele>2300.82</ele>
			<time>2015-03-08T17:19:43Z</time>
			<fix>3d</fix>
		</trkpt>
		<trkpt lat="35.167141" lon="-106.434951">
			<ele>2300.82</ele>
			<time>2015-03-08T17:19:44Z</time>
			<fix>3d</fix>
		</trkpt>
		<trkpt lat="35.167140" lon="-106.434948">
			<ele>2300.82</ele>
			<time>2015-03-08T17:19:46Z</time>
			<fix>3d</fix>
		</trkpt>
		<trkpt lat="35.167137" lon="-106.434938">
			<ele>2300.81</ele>
			<time>2015-03-08T17:19:47Z</time>
			<fix>3d</fix>
		</trkpt>
		<trkpt lat="35.167135" lon="-106.434929">
			<ele>2300.81</ele>
			<time>2015-03-08T17:19:51Z</time>
			<fix>3d</fix>
		</trkpt>
		<trkpt lat="35.167135" lon="-106.434923">
			<ele>2300.71</ele>
			<time>2015-03-08T17:19:52Z</time>
			<fix>3d</fix>
		</trkpt>
		<trkpt lat="35.167134" lon="-106.434916">
			<ele>2300.81</ele>
			<time>2015-03-08T17:19:53Z</time>
			<fix>3d</fix>
		</trkpt>
		<trkpt lat="35.167130" lon="-106.434897">
			<ele>2300.81</ele>
			<time>2015-03-08T17:19:54Z</time>
			<fix>3d</fix>
		</trkpt>
		<trkpt lat="35.167129" lon="-106.434892">
			<ele>2300.81</ele>
			<time>2015-03-08T17:19:55Z</time>
			<fix>3d</fix>
		</trkpt>
		<trkpt lat="35.167124" lon="-106.434875">
			<ele>2300.81</ele>
			<time>2015-03-08T17:19:56Z</time>
			<fix>3d</fix>
		</trkpt>
		<trkpt lat="35.167124" lon="-106.434873">
			<ele>2300.81</ele>
			<time>2015-03-08T17:19:57Z</time>
			<fix>3d</fix>
		</trkpt>
		<trkpt lat="35.167121" lon="-106.434856">
			<ele>2300.81</ele>
			<time>2015-03-08T17:19:58Z</time>
			<fix>3d</fix>
		</trkpt>
		<trkpt lat="35.167121" lon="-106.434851">
			<ele>2300.70</ele>
			<time>2015-03-08T17:19:59Z</time>
			<fix>3d</fix>
		</trkpt>
		<trkpt lat="35.167119" lon="-106.434835">
			<ele>2300.70</ele>
			<time>2015-03-08T17:20:00Z</time>
			<fix>3d</fix>
		</trkpt>
		<trkpt lat="35.167114" lon="-106.434822">
			<ele>2300.70</ele>
			<time>2015-03-08T17:20:01Z</time>
			<fix>3d</fix>
		</trkpt>
		<trkpt lat="35.167110" lon="-106.434811">
			<ele>2300.81</ele>
			<time>2015-03-08T17:20:02Z</time>
			<fix>3d</fix>
		</trkpt>
		<trkpt lat="35.167107" lon="-106.434799">
			<ele>2300.81</ele>
			<time>2015-03-08T17:20:03Z</time>
			<fix>3d</fix>
		</trkpt>
		<trkpt lat="35.167104" lon="-106.434785">
			<ele>2300.81</ele>
			<time>2015-03-08T17:20:04Z</time>
			<fix>3d</fix>
		</trkpt>
		<trkpt lat="35.167103" lon="-106.434773">
			<ele>2300.70</ele>
			<time>2015-03-08T17:20:05Z</time>
			<fix>3d</fix>
		</trkpt>
		<trkpt lat="35.167102" lon="-106.434763">
			<ele>2300.60</ele>
			<time>2015-03-08T17:20:08Z</time>
			<fix>3d</fix>
		</trkpt>
		<trkpt lat="35.167109" lon="-106.434748">
			<ele>2300.49</ele>
			<time>2015-03-08T17:20:09Z</time>
			<fix>3d</fix>
		</trkpt>
		<trkpt lat="35.167117" lon="-106.434743">
			<ele>2300.38</ele>
			<time>2015-03-08T17:20:33Z</time>
			<fix>3d</fix>
		</trkpt>
		<trkpt lat="35.167127" lon="-106.434740">
			<ele>2300.37</ele>
			<time>2015-03-08T17:20:39Z</time>
			<fix>3d</fix>
		</trkpt>
		<trkpt lat="35.167134" lon="-106.434734">
			<ele>2300.36</ele>
			<time>2015-03-08T17:20:46Z</time>
			<fix>3d</fix>
		</trkpt>
		<trkpt lat="35.167140" lon="-106.434730">
			<ele>2300.46</ele>
			<time>2015-03-08T17:20:49Z</time>
			<fix>3d</fix>
		</trkpt>
		<trkpt lat="35.167149" lon="-106.434730">
			<ele>2300.46</ele>
			<time>2015-03-08T17:20:51Z</time>
			<fix>3d</fix>
		</trkpt>
		<trkpt lat="35.167152" lon="-106.434725">
			<ele>2300.66</ele>
			<time>2015-03-08T17:20:53Z</time>
			<fix>3d</fix>
		</trkpt>
		<trkpt lat="35.167159" lon="-106.434727">
			<ele>2300.66</ele>
			<time>2015-03-08T17:20:54Z</time>
			<fix>3d</fix>
		</trkpt>
		<trkpt lat="35.167167" lon="-106.434730">
			<ele>2300.66</ele>
			<time>2015-03-08T17:20:55Z</time>
			<fix>3d</fix>
		</trkpt>
		<trkpt lat="35.167184" lon="-106.434734">
			<ele>2300.76</ele>
			<time>2015-03-08T17:20:56Z</time>
			<fix>3d</fix>
		</trkpt>
		<trkpt lat="35.167194" lon="-106.434736">
			<ele>2300.97</ele>
			<time>2015-03-08T17:20:57Z</time>
			<fix>3d</fix>
		</trkpt>
		<trkpt lat="35.167206" lon="-106.434729">
			<ele>2301.58</ele>
			<time>2015-03-08T17:21:05Z</time>
			<fix>3d</fix>
		</trkpt>
		<trkpt lat="35.167214" lon="-106.434730">
			<ele>2301.68</ele>
			<time>2015-03-08T17:21:07Z</time>
			<fix>3d</fix>
		</trkpt>
		<trkpt lat="35.167216" lon="-106.434728">
			<ele>2301.78</ele>
			<time>2015-03-08T17:21:08Z</time>
			<fix>3d</fix>
		</trkpt>
		<trkpt lat="35.167223" lon="-106.434731">
			<ele>2301.78</ele>
			<time>2015-03-08T17:21:09Z</time>
			<fix>3d</fix>
		</trkpt>
		<trkpt lat="35.167239" lon="-106.434738">
			<ele>2301.99</ele>
			<time>2015-03-08T17:21:10Z</time>
			<fix>3d</fix>
		</trkpt>
		<trkpt lat="35.167247" lon="-106.434741">
			<ele>2302.29</ele>
			<time>2015-03-08T17:21:12Z</time>
			<fix>3d</fix>
		</trkpt>
		<trkpt lat="35.167252" lon="-106.434743">
			<ele>2302.29</ele>
			<time>2015-03-08T17:21:13Z</time>
			<fix>3d</fix>
		</trkpt>
		<trkpt lat="35.167257" lon="-106.434742">
			<ele>2302.50</ele>
			<time>2015-03-08T17:21:15Z</time>
			<fix>3d</fix>
		</trkpt>
		<trkpt lat="35.167269" lon="-106.434744">
			<ele>2302.50</ele>
			<time>2015-03-08T17:21:16Z</time>
			<fix>3d</fix>
		</trkpt>
		<trkpt lat="35.167277" lon="-106.434743">
			<ele>2302.60</ele>
			<time>2015-03-08T17:21:18Z</time>
			<fix>3d</fix>
		</trkpt>
		<trkpt lat="35.167284" lon="-106.434740">
			<ele>2303.63</ele>
			<time>2015-03-08T17:21:21Z</time>
			<fix>3d</fix>
		</trkpt>
		<trkpt lat="35.167302" lon="-106.434740">
			<ele>2303.63</ele>
			<time>2015-03-08T17:21:22Z</time>
			<fix>3d</fix>
		</trkpt>
		<trkpt lat="35.167308" lon="-106.434743">
			<ele>2303.73</ele>
			<time>2015-03-08T17:21:26Z</time>
			<fix>3d</fix>
		</trkpt>
		<trkpt lat="35.167313" lon="-106.434745">
			<ele>2303.62</ele>
			<time>2015-03-08T17:21:27Z</time>
			<fix>3d</fix>
		</trkpt>
		<trkpt lat="35.167324" lon="-106.434749">
			<ele>2303.62</ele>
			<time>2015-03-08T17:21:28Z</time>
			<fix>3d</fix>
		</trkpt>
		<trkpt lat="35.167338" lon="-106.434753">
			<ele>2303.72</ele>
			<time>2015-03-08T17:21:29Z</time>
			<fix>3d</fix>
		</trkpt>
		<trkpt lat="35.167344" lon="-106.434754">
			<ele>2304.03</ele>
			<time>2015-03-08T17:21:32Z</time>
			<fix>3d</fix>
		</trkpt>
		<trkpt lat="35.167358" lon="-106.434762">
			<ele>2304.13</ele>
			<time>2015-03-08T17:21:33Z</time>
			<fix>3d</fix>
		</trkpt>
		<trkpt lat="35.167364" lon="-106.434764">
			<ele>2304.95</ele>
			<time>2015-03-08T17:21:39Z</time>
			<fix>3d</fix>
		</trkpt>
		<trkpt lat="35.167366" lon="-106.434772">
			<ele>2305.47</ele>
			<time>2015-03-08T17:21:40Z</time>
			<fix>3d</fix>
		</trkpt>
		<trkpt lat="35.167373" lon="-106.434776">
			<ele>2305.88</ele>
			<time>2015-03-08T17:21:43Z</time>
			<fix>3d</fix>
		</trkpt>
		<trkpt lat="35.167380" lon="-106.434780">
			<ele>2305.98</ele>
			<time>2015-03-08T17:21:44Z</time>
			<fix>3d</fix>
		</trkpt>
		<trkpt lat="35.167398" lon="-106.434787">
			<ele>2306.29</ele>
			<time>2015-03-08T17:21:45Z</time>
			<fix>3d</fix>
		</trkpt>
		<trkpt lat="35.167410" lon="-106.434789">
			<ele>2306.70</ele>
			<time>2015-03-08T17:21:46Z</time>
			<fix>3d</fix>
		</trkpt>
		<trkpt lat="35.167416" lon="-106.434785">
			<ele>2306.59</ele>
			<time>2015-03-08T17:21:48Z</time>
			<fix>3d</fix>
		</trkpt>
		<trkpt lat="35.167417" lon="-106.434782">
			<ele>2306.69</ele>
			<time>2015-03-08T17:21:49Z</time>
			<fix>3d</fix>
		</trkpt>
		<trkpt lat="35.167425" lon="-106.434780">
			<ele>2306.69</ele>
			<time>2015-03-08T17:21:50Z</time>
			<fix>3d</fix>
		</trkpt>
		<trkpt lat="35.167427" lon="-106.434777">
			<ele>2306.79</ele>
			<time>2015-03-08T17:21:51Z</time>
			<fix>3d</fix>
		</trkpt>
		<trkpt lat="35.167453" lon="-106.434771">
			<ele>2306.89</ele>
			<time>2015-03-08T17:21:52Z</time>
			<fix>3d</fix>
		</trkpt>
		<trkpt lat="35.167469" lon="-106.434764">
			<ele>2306.99</ele>
			<time>2015-03-08T17:21:53Z</time>
			<fix>3d</fix>
		</trkpt>
		<trkpt lat="35.167469" lon="-106.434762">
			<ele>2307.09</ele>
			<time>2015-03-08T17:21:54Z</time>
			<fix>3d</fix>
		</trkpt>
		<trkpt lat="35.167484" lon="-106.434753">
			<ele>2307.08</ele>
			<time>2015-03-08T17:21:55Z</time>
			<fix>3d</fix>
		</trkpt>
		<trkpt lat="35.167489" lon="-106.434745">
			<ele>2307.16</ele>
			<time>2015-03-08T17:22:01Z</time>
			<fix>3d</fix>
		</trkpt>
		<trkpt lat="35.167495" lon="-106.434735">
			<ele>2307.47</ele>
			<time>2015-03-08T17:22:05Z</time>
			<fix>3d</fix>
		</trkpt>
		<trkpt lat="35.167500" lon="-106.434731">
			<ele>2307.98</ele>
			<time>2015-03-08T17:22:06Z</time>
			<fix>3d</fix>
		</trkpt>
		<trkpt lat="35.167513" lon="-106.434719">
			<ele>2308.08</ele>
			<time>2015-03-08T17:22:07Z</time>
			<fix>3d</fix>
		</trkpt>
		<trkpt lat="35.167513" lon="-106.434715">
			<ele>2308.18</ele>
			<time>2015-03-08T17:22:08Z</time>
			<fix>3d</fix>
		</trkpt>
		<trkpt lat="35.167517" lon="-106.434709">
			<ele>2308.18</ele>
			<time>2015-03-08T17:22:09Z</time>
			<fix>3d</fix>
		</trkpt>
		<trkpt lat="35.167518" lon="-106.434702">
			<ele>2308.90</ele>
			<time>2015-03-08T17:22:11Z</time>
			<fix>3d</fix>
		</trkpt>
		<trkpt lat="35.167524" lon="-106.434693">
			<ele>2309.21</ele>
			<time>2015-03-08T17:22:12Z</time>
			<fix>3d</fix>
		</trkpt>
		<trkpt lat="35.167531" lon="-106.434684">
			<ele>2309.62</ele>
			<time>2015-03-08T17:22:13Z</time>
			<fix>3d</fix>
		</trkpt>
		<trkpt lat="35.167546" lon="-106.434662">
			<ele>2309.72</ele>
			<time>2015-03-08T17:22:14Z</time>
			<fix>3d</fix>
		</trkpt>
		<trkpt lat="35.167551" lon="-106.434656">
			<ele>2310.45</ele>
			<time>2015-03-08T17:22:15Z</time>
			<fix>3d</fix>
		</trkpt>
		<trkpt lat="35.167553" lon="-106.434648">
			<ele>2310.54</ele>
			<time>2015-03-08T17:22:17Z</time>
			<fix>3d</fix>
		</trkpt>
		<trkpt lat="35.167559" lon="-106.434641">
			<ele>2310.54</ele>
			<time>2015-03-08T17:22:18Z</time>
			<fix>3d</fix>
		</trkpt>
		<trkpt lat="35.167566" lon="-106.434632">
			<ele>2310.64</ele>
			<time>2015-03-08T17:22:20Z</time>
			<fix>3d</fix>
		</trkpt>
		<trkpt lat="35.167583" lon="-106.434611">
			<ele>2310.85</ele>
			<time>2015-03-08T17:22:21Z</time>
			<fix>3d</fix>
		</trkpt>
		<trkpt lat="35.167587" lon="-106.434604">
			<ele>2310.94</ele>
			<time>2015-03-08T17:22:22Z</time>
			<fix>3d</fix>
		</trkpt>
		<trkpt lat="35.167592" lon="-106.434595">
			<ele>2311.76</ele>
			<time>2015-03-08T17:22:24Z</time>
			<fix>3d</fix>
		</trkpt>
		<trkpt lat="35.167609" lon="-106.434575">
			<ele>2311.86</ele>
			<time>2015-03-08T17:22:25Z</time>
			<fix>3d</fix>
		</trkpt>
		<trkpt lat="35.167621" lon="-106.434563">
			<ele>2311.85</ele>
			<time>2015-03-08T17:22:26Z</time>
			<fix>3d</fix>
		</trkpt>
		<trkpt lat="35.167628" lon="-106.434558">
			<ele>2311.80</ele>
			<time>2015-03-08T17:22:28Z</time>
			<fix>3d</fix>
		</trkpt>
		<trkpt lat="35.167634" lon="-106.434556">
			<ele>2312.00</ele>
			<time>2015-03-08T17:22:29Z</time>
			<fix>3d</fix>
		</trkpt>
		<trkpt lat="35.167641" lon="-106.434556">
			<ele>2312.10</ele>
			<time>2015-03-08T17:22:30Z</time>
			<fix>3d</fix>
		</trkpt>
		<trkpt lat="35.167649" lon="-106.434555">
			<ele>2312.19</ele>
			<time>2015-03-08T17:22:32Z</time>
			<fix>3d</fix>
		</trkpt>
		<trkpt lat="35.167657" lon="-106.434556">
			<ele>2312.49</ele>
			<time>2015-03-08T17:22:34Z</time>
			<fix>3d</fix>
		</trkpt>
		<trkpt lat="35.167665" lon="-106.434557">
			<ele>2312.49</ele>
			<time>2015-03-08T17:22:35Z</time>
			<fix>3d</fix>
		</trkpt>
		<trkpt lat="35.167695" lon="-106.434562">
			<ele>2312.69</ele>
			<time>2015-03-08T17:22:36Z</time>
			<fix>3d</fix>
		</trkpt>
		<trkpt lat="35.167701" lon="-106.434558">
			<ele>2313.50</ele>
			<time>2015-03-08T17:22:38Z</time>
			<fix>3d</fix>
		</trkpt>
		<trkpt lat="35.167707" lon="-106.434553">
			<ele>2313.60</ele>
			<time>2015-03-08T17:22:40Z</time>
			<fix>3d</fix>
		</trkpt>
		<trkpt lat="35.167713" lon="-106.434552">
			<ele>2313.59</ele>
			<time>2015-03-08T17:22:41Z</time>
			<fix>3d</fix>
		</trkpt>
		<trkpt lat="35.167732" lon="-106.434539">
			<ele>2313.90</ele>
			<time>2015-03-08T17:23:01Z</time>
			<fix>3d</fix>
		</trkpt>
		<trkpt lat="35.167740" lon="-106.434534">
			<ele>2313.83</ele>
			<time>2015-03-08T17:23:15Z</time>
			<fix>3d</fix>
		</trkpt>
		<trkpt lat="35.167748" lon="-106.434529">
			<ele>2313.83</ele>
			<time>2015-03-08T17:23:16Z</time>
			<fix>3d</fix>
		</trkpt>
		<trkpt lat="35.167752" lon="-106.434527">
			<ele>2313.93</ele>
			<time>2015-03-08T17:23:17Z</time>
			<fix>3d</fix>
		</trkpt>
		<trkpt lat="35.167757" lon="-106.434525">
			<ele>2313.92</ele>
			<time>2015-03-08T17:23:18Z</time>
			<fix>3d</fix>
		</trkpt>
		<trkpt lat="35.167771" lon="-106.434517">
			<ele>2313.92</ele>
			<time>2015-03-08T17:23:19Z</time>
			<fix>3d</fix>
		</trkpt>
		<trkpt lat="35.167771" lon="-106.434515">
			<ele>2313.91</ele>
			<time>2015-03-08T17:23:20Z</time>
			<fix>3d</fix>
		</trkpt>
		<trkpt lat="35.167783" lon="-106.434505">
			<ele>2314.01</ele>
			<time>2015-03-08T17:23:21Z</time>
			<fix>3d</fix>
		</trkpt>
		<trkpt lat="35.167788" lon="-106.434498">
			<ele>2314.31</ele>
			<time>2015-03-08T17:23:23Z</time>
			<fix>3d</fix>
		</trkpt>
		<trkpt lat="35.167803" lon="-106.434487">
			<ele>2314.72</ele>
			<time>2015-03-08T17:23:24Z</time>
			<fix>3d</fix>
		</trkpt>
		<trkpt lat="35.167807" lon="-106.434484">
			<ele>2314.92</ele>
			<time>2015-03-08T17:23:25Z</time>
			<fix>3d</fix>
		</trkpt>
		<trkpt lat="35.167820" lon="-106.434476">
			<ele>2315.23</ele>
			<time>2015-03-08T17:23:26Z</time>
			<fix>3d</fix>
		</trkpt>
		<trkpt lat="35.167831" lon="-106.434471">
			<ele>2315.57</ele>
			<time>2015-03-08T17:23:27Z</time>
			<fix>3d</fix>
		</trkpt>
		<trkpt lat="35.167842" lon="-106.434466">
			<ele>2315.57</ele>
			<time>2015-03-08T17:23:28Z</time>
			<fix>3d</fix>
		</trkpt>
		<trkpt lat="35.167852" lon="-106.434459">
			<ele>2315.56</ele>
			<time>2015-03-08T17:23:29Z</time>
			<fix>3d</fix>
		</trkpt>
		<trkpt lat="35.167859" lon="-106.434448">
			<ele>2315.66</ele>
			<time>2015-03-08T17:23:30Z</time>
			<fix>3d</fix>
		</trkpt>
		<trkpt lat="35.167866" lon="-106.434439">
			<ele>2315.86</ele>
			<time>2015-03-08T17:23:31Z</time>
			<fix>3d</fix>
		</trkpt>
		<trkpt lat="35.167866" lon="-106.434431">
			<ele>2316.68</ele>
			<time>2015-03-08T17:23:33Z</time>
			<fix>3d</fix>
		</trkpt>
		<trkpt lat="35.167870" lon="-106.434425">
			<ele>2316.67</ele>
			<time>2015-03-08T17:23:34Z</time>
			<fix>3d</fix>
		</trkpt>
		<trkpt lat="35.167874" lon="-106.434418">
			<ele>2316.77</ele>
			<time>2015-03-08T17:23:35Z</time>
			<fix>3d</fix>
		</trkpt>
		<trkpt lat="35.167884" lon="-106.434399">
			<ele>2316.77</ele>
			<time>2015-03-08T17:23:36Z</time>
			<fix>3d</fix>
		</trkpt>
		<trkpt lat="35.167884" lon="-106.434390">
			<ele>2316.96</ele>
			<time>2015-03-08T17:23:38Z</time>
			<fix>3d</fix>
		</trkpt>
		<trkpt lat="35.167891" lon="-106.434371">
			<ele>2317.17</ele>
			<time>2015-03-08T17:23:39Z</time>
			<fix>3d</fix>
		</trkpt>
		<trkpt lat="35.167891" lon="-106.434367">
			<ele>2317.48</ele>
			<time>2015-03-08T17:23:40Z</time>
			<fix>3d</fix>
		</trkpt>
		<trkpt lat="35.167902" lon="-106.434348">
			<ele>2317.57</ele>
			<time>2015-03-08T17:23:41Z</time>
			<fix>3d</fix>
		</trkpt>
		<trkpt lat="35.167904" lon="-106.434336">
			<ele>2317.88</ele>
			<time>2015-03-08T17:23:42Z</time>
			<fix>3d</fix>
		</trkpt>
		<trkpt lat="35.167905" lon="-106.434330">
			<ele>2318.09</ele>
			<time>2015-03-08T17:23:43Z</time>
			<fix>3d</fix>
		</trkpt>
		<trkpt lat="35.167910" lon="-106.434310">
			<ele>2318.08</ele>
			<time>2015-03-08T17:23:44Z</time>
			<fix>3d</fix>
		</trkpt>
		<trkpt lat="35.167915" lon="-106.434304">
			<ele>2318.18</ele>
			<time>2015-03-08T17:23:45Z</time>
			<fix>3d</fix>
		</trkpt>
		<trkpt lat="35.167917" lon="-106.434292">
			<ele>2318.17</ele>
			<time>2015-03-08T17:23:46Z</time>
			<fix>3d</fix>
		</trkpt>
		<trkpt lat="35.167918" lon="-106.434287">
			<ele>2318.17</ele>
			<time>2015-03-08T17:23:47Z</time>
			<fix>3d</fix>
		</trkpt>
		<trkpt lat="35.167923" lon="-106.434271">
			<ele>2318.37</ele>
			<time>2015-03-08T17:23:48Z</time>
			<fix>3d</fix>
		</trkpt>
		<trkpt lat="35.167923" lon="-106.434263">
			<ele>2318.47</ele>
			<time>2015-03-08T17:23:50Z</time>
			<fix>3d</fix>
		</trkpt>
		<trkpt lat="35.167923" lon="-106.434259">
			<ele>2318.56</ele>
			<time>2015-03-08T17:23:51Z</time>
			<fix>3d</fix>
		</trkpt>
		<trkpt lat="35.167936" lon="-106.434243">
			<ele>2318.66</ele>
			<time>2015-03-08T17:23:52Z</time>
			<fix>3d</fix>
		</trkpt>
		<trkpt lat="35.167939" lon="-106.434234">
			<ele>2318.82</ele>
			<time>2015-03-08T17:24:01Z</time>
			<fix>3d</fix>
		</trkpt>
		<trkpt lat="35.167939" lon="-106.434223">
			<ele>2318.91</ele>
			<time>2015-03-08T17:24:04Z</time>
			<fix>3d</fix>
		</trkpt>
		<trkpt lat="35.167938" lon="-106.434219">
			<ele>2318.91</ele>
			<time>2015-03-08T17:24:05Z</time>
			<fix>3d</fix>
		</trkpt>
		<trkpt lat="35.167934" lon="-106.434201">
			<ele>2318.90</ele>
			<time>2015-03-08T17:24:06Z</time>
			<fix>3d</fix>
		</trkpt>
		<trkpt lat="35.167933" lon="-106.434192">
			<ele>2319.36</ele>
			<time>2015-03-08T17:24:19Z</time>
			<fix>3d</fix>
		</trkpt>
		<trkpt lat="35.167933" lon="-106.434186">
			<ele>2319.56</ele>
			<time>2015-03-08T17:24:21Z</time>
			<fix>3d</fix>
		</trkpt>
		<trkpt lat="35.167933" lon="-106.434173">
			<ele>2319.66</ele>
			<time>2015-03-08T17:24:22Z</time>
			<fix>3d</fix>
		</trkpt>
		<trkpt lat="35.167934" lon="-106.434166">
			<ele>2320.42</ele>
			<time>2015-03-08T17:24:47Z</time>
			<fix>3d</fix>
		</trkpt>
		<trkpt lat="35.167932" lon="-106.434156">
			<ele>2320.41</ele>
			<time>2015-03-08T17:24:49Z</time>
			<fix>3d</fix>
		</trkpt>
		<trkpt lat="35.167936" lon="-106.434147">
			<ele>2320.50</ele>
			<time>2015-03-08T17:24:52Z</time>
			<fix>3d</fix>
		</trkpt>
		<trkpt lat="35.167936" lon="-106.434142">
			<ele>2320.50</ele>
			<time>2015-03-08T17:24:53Z</time>
			<fix>3d</fix>
		</trkpt>
		<trkpt lat="35.167935" lon="-106.434120">
			<ele>2320.95</ele>
			<time>2015-03-08T17:25:07Z</time>
			<fix>3d</fix>
		</trkpt>
		<trkpt lat="35.167934" lon="-106.434110">
			<ele>2321.05</ele>
			<time>2015-03-08T17:25:08Z</time>
			<fix>3d</fix>
		</trkpt>
		<trkpt lat="35.167932" lon="-106.434101">
			<ele>2322.29</ele>
			<time>2015-03-08T17:25:12Z</time>
			<fix>3d</fix>
		</trkpt>
		<trkpt lat="35.167930" lon="-106.434097">
			<ele>2322.28</ele>
			<time>2015-03-08T17:25:13Z</time>
			<fix>3d</fix>
		</trkpt>
		<trkpt lat="35.167924" lon="-106.434081">
			<ele>2322.28</ele>
			<time>2015-03-08T17:25:14Z</time>
			<fix>3d</fix>
		</trkpt>
		<trkpt lat="35.167922" lon="-106.434073">
			<ele>2322.35</ele>
			<time>2015-03-08T17:25:20Z</time>
			<fix>3d</fix>
		</trkpt>
		<trkpt lat="35.167920" lon="-106.434065">
			<ele>2322.34</ele>
			<time>2015-03-08T17:25:22Z</time>
			<fix>3d</fix>
		</trkpt>
		<trkpt lat="35.167919" lon="-106.434060">
			<ele>2322.44</ele>
			<time>2015-03-08T17:25:23Z</time>
			<fix>3d</fix>
		</trkpt>
		<trkpt lat="35.167917" lon="-106.434054">
			<ele>2322.64</ele>
			<time>2015-03-08T17:25:24Z</time>
			<fix>3d</fix>
		</trkpt>
		<trkpt lat="35.167914" lon="-106.434044">
			<ele>2322.74</ele>
			<time>2015-03-08T17:25:26Z</time>
			<fix>3d</fix>
		</trkpt>
		<trkpt lat="35.167913" lon="-106.434041">
			<ele>2322.68</ele>
			<time>2015-03-08T17:25:27Z</time>
			<fix>3d</fix>
		</trkpt>
		<trkpt lat="35.167904" lon="-106.434010">
			<ele>2322.88</ele>
			<time>2015-03-08T17:25:28Z</time>
			<fix>3d</fix>
		</trkpt>
		<trkpt lat="35.167902" lon="-106.434003">
			<ele>2323.60</ele>
			<time>2015-03-08T17:25:32Z</time>
			<fix>3d</fix>
		</trkpt>
		<trkpt lat="35.167900" lon="-106.433995">
			<ele>2323.90</ele>
			<time>2015-03-08T17:25:34Z</time>
			<fix>3d</fix>
		</trkpt>
		<trkpt lat="35.167895" lon="-106.433977">
			<ele>2324.52</ele>
			<time>2015-03-08T17:25:35Z</time>
			<fix>3d</fix>
		</trkpt>
		<trkpt lat="35.167894" lon="-106.433970">
			<ele>2325.55</ele>
			<time>2015-03-08T17:25:39Z</time>
			<fix>3d</fix>
		</trkpt>
		<trkpt lat="35.167893" lon="-106.433966">
			<ele>2325.86</ele>
			<time>2015-03-08T17:25:40Z</time>
			<fix>3d</fix>
		</trkpt>
		<trkpt lat="35.167891" lon="-106.433952">
			<ele>2325.85</ele>
			<time>2015-03-08T17:25:41Z</time>
			<fix>3d</fix>
		</trkpt>
		<trkpt lat="35.167889" lon="-106.433943">
			<ele>2325.84</ele>
			<time>2015-03-08T17:25:46Z</time>
			<fix>3d</fix>
		</trkpt>
		<trkpt lat="35.167887" lon="-106.433933">
			<ele>2325.82</ele>
			<time>2015-03-08T17:25:49Z</time>
			<fix>3d</fix>
		</trkpt>
		<trkpt lat="35.167884" lon="-106.433917">
			<ele>2325.82</ele>
			<time>2015-03-08T17:25:50Z</time>
			<fix>3d</fix>
		</trkpt>
		<trkpt lat="35.167883" lon="-106.433912">
			<ele>2325.81</ele>
			<time>2015-03-08T17:25:51Z</time>
			<fix>3d</fix>
		</trkpt>
		<trkpt lat="35.167882" lon="-106.433905">
			<ele>2325.81</ele>
			<time>2015-03-08T17:25:52Z</time>
			<fix>3d</fix>
		</trkpt>
		<trkpt lat="35.167881" lon="-106.433899">
			<ele>2326.01</ele>
			<time>2015-03-08T17:25:53Z</time>
			<fix>3d</fix>
		</trkpt>
		<trkpt lat="35.167879" lon="-106.433890">
			<ele>2326.22</ele>
			<time>2015-03-08T17:25:54Z</time>
			<fix>3d</fix>
		</trkpt>
		<trkpt lat="35.167877" lon="-106.433881">
			<ele>2326.74</ele>
			<time>2015-03-08T17:25:55Z</time>
			<fix>3d</fix>
		</trkpt>
		<trkpt lat="35.167875" lon="-106.433872">
			<ele>2326.84</ele>
			<time>2015-03-08T17:25:56Z</time>
			<fix>3d</fix>
		</trkpt>
		<trkpt lat="35.167873" lon="-106.433863">
			<ele>2326.94</ele>
			<time>2015-03-08T17:25:57Z</time>
			<fix>3d</fix>
		</trkpt>
		<trkpt lat="35.167866" lon="-106.433842">
			<ele>2326.93</ele>
			<time>2015-03-08T17:25:58Z</time>
			<fix>3d</fix>
		</trkpt>
		<trkpt lat="35.167861" lon="-106.433828">
			<ele>2326.93</ele>
			<time>2015-03-08T17:25:59Z</time>
			<fix>3d</fix>
		</trkpt>
		<trkpt lat="35.167858" lon="-106.433818">
			<ele>2327.24</ele>
			<time>2015-03-08T17:26:01Z</time>
			<fix>3d</fix>
		</trkpt>
		<trkpt lat="35.167857" lon="-106.433811">
			<ele>2327.96</ele>
			<time>2015-03-08T17:26:02Z</time>
			<fix>3d</fix>
		</trkpt>
		<trkpt lat="35.167855" lon="-106.433806">
			<ele>2327.96</ele>
			<time>2015-03-08T17:26:03Z</time>
			<fix>3d</fix>
		</trkpt>
		<trkpt lat="35.167853" lon="-106.433797">
			<ele>2327.96</ele>
			<time>2015-03-08T17:26:04Z</time>
			<fix>3d</fix>
		</trkpt>
		<trkpt lat="35.167847" lon="-106.433775">
			<ele>2327.95</ele>
			<time>2015-03-08T17:26:05Z</time>
			<fix>3d</fix>
		</trkpt>
		<trkpt lat="35.167846" lon="-106.433771">
			<ele>2328.05</ele>
			<time>2015-03-08T17:26:06Z</time>
			<fix>3d</fix>
		</trkpt>
		<trkpt lat="35.167844" lon="-106.433763">
			<ele>2328.05</ele>
			<time>2015-03-08T17:26:07Z</time>
			<fix>3d</fix>
		</trkpt>
		<trkpt lat="35.167840" lon="-106.433743">
			<ele>2328.26</ele>
			<time>2015-03-08T17:26:08Z</time>
			<fix>3d</fix>
		</trkpt>
		<trkpt lat="35.167838" lon="-106.433737">
			<ele>2328.57</ele>
			<time>2015-03-08T17:26:09Z</time>
			<fix>3d</fix>
		</trkpt>
		<trkpt lat="35.167830" lon="-106.433721">
			<ele>2328.98</ele>
			<time>2015-03-08T17:26:10Z</time>
			<fix>3d</fix>
		</trkpt>
		<trkpt lat="35.167828" lon="-106.433716">
			<ele>2328.98</ele>
			<time>2015-03-08T17:26:11Z</time>
			<fix>3d</fix>
		</trkpt>
		<trkpt lat="35.167822" lon="-106.433701">
			<ele>2329.08</ele>
			<time>2015-03-08T17:26:12Z</time>
			<fix>3d</fix>
		</trkpt>
		<trkpt lat="35.167819" lon="-106.433695">
			<ele>2329.49</ele>
			<time>2015-03-08T17:26:14Z</time>
			<fix>3d</fix>
		</trkpt>
		<trkpt lat="35.167809" lon="-106.433676">
			<ele>2330.01</ele>
			<time>2015-03-08T17:26:15Z</time>
			<fix>3d</fix>
		</trkpt>
		<trkpt lat="35.167806" lon="-106.433668">
			<ele>2330.20</ele>
			<time>2015-03-08T17:26:24Z</time>
			<fix>3d</fix>
		</trkpt>
		<trkpt lat="35.167799" lon="-106.433656">
			<ele>2330.30</ele>
			<time>2015-03-08T17:26:25Z</time>
			<fix>3d</fix>
		</trkpt>
		<trkpt lat="35.167796" lon="-106.433652">
			<ele>2330.40</ele>
			<time>2015-03-08T17:26:26Z</time>
			<fix>3d</fix>
		</trkpt>
		<trkpt lat="35.167792" lon="-106.433646">
			<ele>2330.34</ele>
			<time>2015-03-08T17:26:27Z</time>
			<fix>3d</fix>
		</trkpt>
		<trkpt lat="35.167779" lon="-106.433624">
			<ele>2330.45</ele>
			<time>2015-03-08T17:26:28Z</time>
			<fix>3d</fix>
		</trkpt>
		<trkpt lat="35.167776" lon="-106.433616">
			<ele>2330.55</ele>
			<time>2015-03-08T17:26:29Z</time>
			<fix>3d</fix>
		</trkpt>
		<trkpt lat="35.167773" lon="-106.433606">
			<ele>2330.55</ele>
			<time>2015-03-08T17:26:30Z</time>
			<fix>3d</fix>
		</trkpt>
		<trkpt lat="35.167769" lon="-106.433595">
			<ele>2330.54</ele>
			<time>2015-03-08T17:26:31Z</time>
			<fix>3d</fix>
		</trkpt>
		<trkpt lat="35.167766" lon="-106.433591">
			<ele>2330.65</ele>
			<time>2015-03-08T17:26:32Z</time>
			<fix>3d</fix>
		</trkpt>
		<trkpt lat="35.167758" lon="-106.433579">
			<ele>2330.96</ele>
			<time>2015-03-08T17:26:33Z</time>
			<fix>3d</fix>
		</trkpt>
		<trkpt lat="35.167748" lon="-106.433568">
			<ele>2331.38</ele>
			<time>2015-03-08T17:26:34Z</time>
			<fix>3d</fix>
		</trkpt>
		<trkpt lat="35.167741" lon="-106.433558">
			<ele>2331.48</ele>
			<time>2015-03-08T17:26:35Z</time>
			<fix>3d</fix>
		</trkpt>
		<trkpt lat="35.167736" lon="-106.433546">
			<ele>2331.58</ele>
			<time>2015-03-08T17:26:36Z</time>
			<fix>3d</fix>
		</trkpt>
		<trkpt lat="35.167732" lon="-106.433534">
			<ele>2331.68</ele>
			<time>2015-03-08T17:26:37Z</time>
			<fix>3d</fix>
		</trkpt>
		<trkpt lat="35.167729" lon="-106.433523">
			<ele>2331.78</ele>
			<time>2015-03-08T17:26:38Z</time>
			<fix>3d</fix>
		</trkpt>
		<trkpt lat="35.167722" lon="-106.433511">
			<ele>2331.78</ele>
			<time>2015-03-08T17:26:39Z</time>
			<fix>3d</fix>
		</trkpt>
		<trkpt lat="35.167715" lon="-106.433499">
			<ele>2331.78</ele>
			<time>2015-03-08T17:26:40Z</time>
			<fix>3d</fix>
		</trkpt>
		<trkpt lat="35.167709" lon="-106.433486">
			<ele>2331.78</ele>
			<time>2015-03-08T17:26:41Z</time>
			<fix>3d</fix>
		</trkpt>
		<trkpt lat="35.167703" lon="-106.433473">
			<ele>2331.99</ele>
			<time>2015-03-08T17:26:42Z</time>
			<fix>3d</fix>
		</trkpt>
		<trkpt lat="35.167696" lon="-106.433456">
			<ele>2332.41</ele>
			<time>2015-03-08T17:26:43Z</time>
			<fix>3d</fix>
		</trkpt>
		<trkpt lat="35.167696" lon="-106.433453">
			<ele>2332.61</ele>
			<time>2015-03-08T17:26:44Z</time>
			<fix>3d</fix>
		</trkpt>
		<trkpt lat="35.167693" lon="-106.433441">
			<ele>2332.93</ele>
			<time>2015-03-08T17:26:45Z</time>
			<fix>3d</fix>
		</trkpt>
		<trkpt lat="35.167690" lon="-106.433430">
			<ele>2332.93</ele>
			<time>2015-03-08T17:26:46Z</time>
			<fix>3d</fix>
		</trkpt>
		<trkpt lat="35.167686" lon="-106.433419">
			<ele>2333.14</ele>
			<time>2015-03-08T17:26:47Z</time>
			<fix>3d</fix>
		</trkpt>
		<trkpt lat="35.167683" lon="-106.433408">
			<ele>2333.45</ele>
			<time>2015-03-08T17:26:48Z</time>
			<fix>3d</fix>
		</trkpt>
		<trkpt lat="35.167680" lon="-106.433400">
			<ele>2333.86</ele>
			<time>2015-03-08T17:26:50Z</time>
			<fix>3d</fix>
		</trkpt>
		<trkpt lat="35.167674" lon="-106.433383">
			<ele>2334.39</ele>
			<time>2015-03-08T17:26:51Z</time>
			<fix>3d</fix>
		</trkpt>
		<trkpt lat="35.167669" lon="-106.433376">
			<ele>2334.48</ele>
			<time>2015-03-08T17:27:04Z</time>
			<fix>3d</fix>
		</trkpt>
		<trkpt lat="35.167662" lon="-106.433361">
			<ele>2334.59</ele>
			<time>2015-03-08T17:27:05Z</time>
			<fix>3d</fix>
		</trkpt>
		<trkpt lat="35.167660" lon="-106.433356">
			<ele>2334.80</ele>
			<time>2015-03-08T17:27:06Z</time>
			<fix>3d</fix>
		</trkpt>
		<trkpt lat="35.167657" lon="-106.433343">
			<ele>2335.00</ele>
			<time>2015-03-08T17:27:07Z</time>
			<fix>3d</fix>
		</trkpt>
		<trkpt lat="35.167656" lon="-106.433339">
			<ele>2335.11</ele>
			<time>2015-03-08T17:27:08Z</time>
			<fix>3d</fix>
		</trkpt>
		<trkpt lat="35.167649" lon="-106.433327">
			<ele>2335.21</ele>
			<time>2015-03-08T17:27:09Z</time>
			<fix>3d</fix>
		</trkpt>
		<trkpt lat="35.167643" lon="-106.433318">
			<ele>2335.32</ele>
			<time>2015-03-08T17:27:10Z</time>
			<fix>3d</fix>
		</trkpt>
		<trkpt lat="35.167639" lon="-106.433309">
			<ele>2336.05</ele>
			<time>2015-03-08T17:27:13Z</time>
			<fix>3d</fix>
		</trkpt>
		<trkpt lat="35.167633" lon="-106.433306">
			<ele>2335.80</ele>
			<time>2015-03-08T17:28:08Z</time>
			<fix>3d</fix>
		</trkpt>
		<trkpt lat="35.167625" lon="-106.433293">
			<ele>2335.91</ele>
			<time>2015-03-08T17:28:09Z</time>
			<fix>3d</fix>
		</trkpt>
		<trkpt lat="35.167620" lon="-106.433281">
			<ele>2335.91</ele>
			<time>2015-03-08T17:28:10Z</time>
			<fix>3d</fix>
		</trkpt>
		<trkpt lat="35.167618" lon="-106.433268">
			<ele>2335.91</ele>
			<time>2015-03-08T17:28:11Z</time>
			<fix>3d</fix>
		</trkpt>
		<trkpt lat="35.167618" lon="-106.433262">
			<ele>2336.02</ele>
			<time>2015-03-08T17:28:12Z</time>
			<fix>3d</fix>
		</trkpt>
		<trkpt lat="35.167617" lon="-106.433257">
			<ele>2336.23</ele>
			<time>2015-03-08T17:28:13Z</time>
			<fix>3d</fix>
		</trkpt>
		<trkpt lat="35.167614" lon="-106.433249">
			<ele>2336.86</ele>
			<time>2015-03-08T17:28:14Z</time>
			<fix>3d</fix>
		</trkpt>
		<trkpt lat="35.167609" lon="-106.433241">
			<ele>2336.97</ele>
			<time>2015-03-08T17:28:15Z</time>
			<fix>3d</fix>
		</trkpt>
		<trkpt lat="35.167606" lon="-106.433237">
			<ele>2336.97</ele>
			<time>2015-03-08T17:28:16Z</time>
			<fix>3d</fix>
		</trkpt>
		<trkpt lat="35.167603" lon="-106.433232">
			<ele>2337.08</ele>
			<time>2015-03-08T17:28:17Z</time>
			<fix>3d</fix>
		</trkpt>
		<trkpt lat="35.167597" lon="-106.433223">
			<ele>2337.08</ele>
			<time>2015-03-08T17:28:18Z</time>
			<fix>3d</fix>
		</trkpt>
		<trkpt lat="35.167592" lon="-106.433212">
			<ele>2337.19</ele>
			<time>2015-03-08T17:28:19Z</time>
			<fix>3d</fix>
		</trkpt>
		<trkpt lat="35.167588" lon="-106.433202">
			<ele>2337.30</ele>
			<time>2015-03-08T17:28:20Z</time>
			<fix>3d</fix>
		</trkpt>
		<trkpt lat="35.167583" lon="-106.433193">
			<ele>2337.30</ele>
			<time>2015-03-08T17:28:21Z</time>
			<fix>3d</fix>
		</trkpt>
		<trkpt lat="35.167578" lon="-106.433183">
			<ele>2337.40</ele>
			<time>2015-03-08T17:28:22Z</time>
			<fix>3d</fix>
		</trkpt>
		<trkpt lat="35.167576" lon="-106.433178">
			<ele>2337.41</ele>
			<time>2015-03-08T17:28:23Z</time>
			<fix>3d</fix>
		</trkpt>
		<trkpt lat="35.167573" lon="-106.433173">
			<ele>2337.41</ele>
			<time>2015-03-08T17:28:24Z</time>
			<fix>3d</fix>
		</trkpt>
		<trkpt lat="35.167571" lon="-106.433168">
			<ele>2337.41</ele>
			<time>2015-03-08T17:28:25Z</time>
			<fix>3d</fix>
		</trkpt>
		<trkpt lat="35.167566" lon="-106.433159">
			<ele>2337.41</ele>
			<time>2015-03-08T17:28:26Z</time>
			<fix>3d</fix>
		</trkpt>
		<trkpt lat="35.167562" lon="-106.433151">
			<ele>2337.42</ele>
			<time>2015-03-08T17:28:27Z</time>
			<fix>3d</fix>
		</trkpt>
		<trkpt lat="35.167559" lon="-106.433146">
			<ele>2337.42</ele>
			<time>2015-03-08T17:28:28Z</time>
			<fix>3d</fix>
		</trkpt>
		<trkpt lat="35.167555" lon="-106.433137">
			<ele>2337.42</ele>
			<time>2015-03-08T17:28:29Z</time>
			<fix>3d</fix>
		</trkpt>
		<trkpt lat="35.167552" lon="-106.433129">
			<ele>2337.42</ele>
			<time>2015-03-08T17:28:30Z</time>
			<fix>3d</fix>
		</trkpt>
		<trkpt lat="35.167548" lon="-106.433121">
			<ele>2337.53</ele>
			<time>2015-03-08T17:28:31Z</time>
			<fix>3d</fix>
		</trkpt>
		<trkpt lat="35.167544" lon="-106.433114">
			<ele>2337.64</ele>
			<time>2015-03-08T17:28:32Z</time>
			<fix>3d</fix>
		</trkpt>
		<trkpt lat="35.167541" lon="-106.433106">
			<ele>2337.64</ele>
			<time>2015-03-08T17:28:33Z</time>
			<fix>3d</fix>
		</trkpt>
		<trkpt lat="35.167531" lon="-106.433080">
			<ele>2337.64</ele>
			<time>2015-03-08T17:28:34Z</time>
			<fix>3d</fix>
		</trkpt>
		<trkpt lat="35.167528" lon="-106.433074">
			<ele>2337.65</ele>
			<time>2015-03-08T17:28:37Z</time>
			<fix>3d</fix>
		</trkpt>
		<trkpt lat="35.167519" lon="-106.433061">
			<ele>2337.65</ele>
			<time>2015-03-08T17:28:38Z</time>
			<fix>3d</fix>
		</trkpt>
		<trkpt lat="35.167518" lon="-106.433057">
			<ele>2337.66</ele>
			<time>2015-03-08T17:28:40Z</time>
			<fix>3d</fix>
		</trkpt>
		<trkpt lat="35.167514" lon="-106.433051">
			<ele>2337.66</ele>
			<time>2015-03-08T17:28:41Z</time>
			<fix>3d</fix>
		</trkpt>
		<trkpt lat="35.167511" lon="-106.433043">
			<ele>2337.63</ele>
			<time>2015-03-08T17:28:43Z</time>
			<fix>3d</fix>
		</trkpt>
		<trkpt lat="35.167508" lon="-106.433034">
			<ele>2337.63</ele>
			<time>2015-03-08T17:28:45Z</time>
			<fix>3d</fix>
		</trkpt>
		<trkpt lat="35.167506" lon="-106.433025">
			<ele>2337.74</ele>
			<time>2015-03-08T17:28:47Z</time>
			<fix>3d</fix>
		</trkpt>
		<trkpt lat="35.167501" lon="-106.433006">
			<ele>2337.75</ele>
			<time>2015-03-08T17:28:48Z</time>
			<fix>3d</fix>
		</trkpt>
		<trkpt lat="35.167499" lon="-106.433003">
			<ele>2337.86</ele>
			<time>2015-03-08T17:28:50Z</time>
			<fix>3d</fix>
		</trkpt>
		<trkpt lat="35.167493" lon="-106.432995">
			<ele>2337.86</ele>
			<time>2015-03-08T17:28:51Z</time>
			<fix>3d</fix>
		</trkpt>
		<trkpt lat="35.167490" lon="-106.432987">
			<ele>2338.08</ele>
			<time>2015-03-08T17:28:55Z</time>
			<fix>3d</fix>
		</trkpt>
		<trkpt lat="35.167488" lon="-106.432980">
			<ele>2338.09</ele>
			<time>2015-03-08T17:28:58Z</time>
			<fix>3d</fix>
		</trkpt>
		<trkpt lat="35.167487" lon="-106.432975">
			<ele>2338.09</ele>
			<time>2015-03-08T17:28:59Z</time>
			<fix>3d</fix>
		</trkpt>
		<trkpt lat="35.167486" lon="-106.432969">
			<ele>2338.09</ele>
			<time>2015-03-08T17:29:00Z</time>
			<fix>3d</fix>
		</trkpt>
		<trkpt lat="35.167485" lon="-106.432962">
			<ele>2338.10</ele>
			<time>2015-03-08T17:29:01Z</time>
			<fix>3d</fix>
		</trkpt>
		<trkpt lat="35.167483" lon="-106.432952">
			<ele>2338.10</ele>
			<time>2015-03-08T17:29:03Z</time>
			<fix>3d</fix>
		</trkpt>
		<trkpt lat="35.167482" lon="-106.432943">
			<ele>2338.11</ele>
			<time>2015-03-08T17:29:04Z</time>
			<fix>3d</fix>
		</trkpt>
		<trkpt lat="35.167482" lon="-106.432916">
			<ele>2338.11</ele>
			<time>2015-03-08T17:29:05Z</time>
			<fix>3d</fix>
		</trkpt>
		<trkpt lat="35.167481" lon="-106.432914">
			<ele>2338.01</ele>
			<time>2015-03-08T17:29:06Z</time>
			<fix>3d</fix>
		</trkpt>
		<trkpt lat="35.167476" lon="-106.432906">
			<ele>2338.01</ele>
			<time>2015-03-08T17:29:07Z</time>
			<fix>3d</fix>
		</trkpt>
		<trkpt lat="35.167473" lon="-106.432897">
			<ele>2338.02</ele>
			<time>2015-03-08T17:29:10Z</time>
			<fix>3d</fix>
		</trkpt>
		<trkpt lat="35.167471" lon="-106.432892">
			<ele>2338.13</ele>
			<time>2015-03-08T17:29:11Z</time>
			<fix>3d</fix>
		</trkpt>
		<trkpt lat="35.167468" lon="-106.432886">
			<ele>2338.13</ele>
			<time>2015-03-08T17:29:12Z</time>
			<fix>3d</fix>
		</trkpt>
		<trkpt lat="35.167465" lon="-106.432880">
			<ele>2338.13</ele>
			<time>2015-03-08T17:29:13Z</time>
			<fix>3d</fix>
		</trkpt>
		<trkpt lat="35.167459" lon="-106.432864">
			<ele>2338.14</ele>
			<time>2015-03-08T17:29:14Z</time>
			<fix>3d</fix>
		</trkpt>
		<trkpt lat="35.167458" lon="-106.432860">
			<ele>2338.14</ele>
			<time>2015-03-08T17:29:15Z</time>
			<fix>3d</fix>
		</trkpt>
		<trkpt lat="35.167455" lon="-106.432854">
			<ele>2338.14</ele>
			<time>2015-03-08T17:29:16Z</time>
			<fix>3d</fix>
		</trkpt>
		<trkpt lat="35.167453" lon="-106.432848">
			<ele>2338.15</ele>
			<time>2015-03-08T17:29:17Z</time>
			<fix>3d</fix>
		</trkpt>
		<trkpt lat="35.167450" lon="-106.432842">
			<ele>2338.26</ele>
			<time>2015-03-08T17:29:19Z</time>
			<fix>3d</fix>
		</trkpt>
		<trkpt lat="35.167448" lon="-106.432837">
			<ele>2338.26</ele>
			<time>2015-03-08T17:29:20Z</time>
			<fix>3d</fix>
		</trkpt>
		<trkpt lat="35.167444" lon="-106.432830">
			<ele>2338.27</ele>
			<time>2015-03-08T17:29:21Z</time>
			<fix>3d</fix>
		</trkpt>
		<trkpt lat="35.167438" lon="-106.432822">
			<ele>2338.27</ele>
			<time>2015-03-08T17:29:23Z</time>
			<fix>3d</fix>
		</trkpt>
		<trkpt lat="35.167432" lon="-106.432814">
			<ele>2339.01</ele>
			<time>2015-03-08T17:29:26Z</time>
			<fix>3d</fix>
		</trkpt>
		<trkpt lat="35.167429" lon="-106.432809">
			<ele>2339.12</ele>
			<time>2015-03-08T17:29:27Z</time>
			<fix>3d</fix>
		</trkpt>
		<trkpt lat="35.167421" lon="-106.432802">
			<ele>2339.12</ele>
			<time>2015-03-08T17:29:28Z</time>
			<fix>3d</fix>
		</trkpt>
		<trkpt lat="35.167406" lon="-106.432782">
			<ele>2339.13</ele>
			<time>2015-03-08T17:29:29Z</time>
			<fix>3d</fix>
		</trkpt>
		<trkpt lat="35.167397" lon="-106.432769">
			<ele>2339.24</ele>
			<time>2015-03-08T17:29:30Z</time>
			<fix>3d</fix>
		</trkpt>
		<trkpt lat="35.167394" lon="-106.432764">
			<ele>2339.34</ele>
			<time>2015-03-08T17:29:31Z</time>
			<fix>3d</fix>
		</trkpt>
		<trkpt lat="35.167391" lon="-106.432758">
			<ele>2339.35</ele>
			<time>2015-03-08T17:29:32Z</time>
			<fix>3d</fix>
		</trkpt>
		<trkpt lat="35.167389" lon="-106.432753">
			<ele>2339.35</ele>
			<time>2015-03-08T17:29:33Z</time>
			<fix>3d</fix>
		</trkpt>
		<trkpt lat="35.167382" lon="-106.432732">
			<ele>2339.46</ele>
			<time>2015-03-08T17:29:34Z</time>
			<fix>3d</fix>
		</trkpt>
		<trkpt lat="35.167379" lon="-106.432726">
			<ele>2339.57</ele>
			<time>2015-03-08T17:29:36Z</time>
			<fix>3d</fix>
		</trkpt>
		<trkpt lat="35.167376" lon="-106.432717">
			<ele>2339.99</ele>
			<time>2015-03-08T17:29:38Z</time>
			<fix>3d</fix>
		</trkpt>
		<trkpt lat="35.167374" lon="-106.432709">
			<ele>2340.21</ele>
			<time>2015-03-08T17:29:40Z</time>
			<fix>3d</fix>
		</trkpt>
		<trkpt lat="35.167375" lon="-106.432679">
			<ele>2341.06</ele>
			<time>2015-03-08T17:29:59Z</time>
			<fix>3d</fix>
		</trkpt>
		<trkpt lat="35.167371" lon="-106.432670">
			<ele>2341.28</ele>
			<time>2015-03-08T17:30:02Z</time>
			<fix>3d</fix>
		</trkpt>
		<trkpt lat="35.167367" lon="-106.432653">
			<ele>2341.38</ele>
			<time>2015-03-08T17:30:03Z</time>
			<fix>3d</fix>
		</trkpt>
		<trkpt lat="35.167367" lon="-106.432648">
			<ele>2341.49</ele>
			<time>2015-03-08T17:30:04Z</time>
			<fix>3d</fix>
		</trkpt>
		<trkpt lat="35.167364" lon="-106.432632">
			<ele>2341.91</ele>
			<time>2015-03-08T17:30:05Z</time>
			<fix>3d</fix>
		</trkpt>
		<trkpt lat="35.167362" lon="-106.432623">
			<ele>2342.13</ele>
			<time>2015-03-08T17:30:09Z</time>
			<fix>3d</fix>
		</trkpt>
		<trkpt lat="35.167357" lon="-106.432614">
			<ele>2342.13</ele>
			<time>2015-03-08T17:30:10Z</time>
			<fix>3d</fix>
		</trkpt>
		<trkpt lat="35.167355" lon="-106.432610">
			<ele>2342.34</ele>
			<time>2015-03-08T17:30:11Z</time>
			<fix>3d</fix>
		</trkpt>
		<trkpt lat="35.167353" lon="-106.432604">
			<ele>2342.35</ele>
			<time>2015-03-08T17:30:12Z</time>
			<fix>3d</fix>
		</trkpt>
		<trkpt lat="35.167352" lon="-106.432599">
			<ele>2342.35</ele>
			<time>2015-03-08T17:30:13Z</time>
			<fix>3d</fix>
		</trkpt>
		<trkpt lat="35.167350" lon="-106.432592">
			<ele>2342.56</ele>
			<time>2015-03-08T17:30:14Z</time>
			<fix>3d</fix>
		</trkpt>
		<trkpt lat="35.167347" lon="-106.432584">
			<ele>2342.77</ele>
			<time>2015-03-08T17:30:15Z</time>
			<fix>3d</fix>
		</trkpt>
		<trkpt lat="35.167346" lon="-106.432576">
			<ele>2342.78</ele>
			<time>2015-03-08T17:30:16Z</time>
			<fix>3d</fix>
		</trkpt>
		<trkpt lat="35.167345" lon="-106.432571">
			<ele>2342.88</ele>
			<time>2015-03-08T17:30:17Z</time>
			<fix>3d</fix>
		</trkpt>
		<trkpt lat="35.167343" lon="-106.432565">
			<ele>2343.09</ele>
			<time>2015-03-08T17:30:18Z</time>
			<fix>3d</fix>
		</trkpt>
		<trkpt lat="35.167335" lon="-106.432531">
			<ele>2343.20</ele>
			<time>2015-03-08T17:30:19Z</time>
			<fix>3d</fix>
		</trkpt>
		<trkpt lat="35.167335" lon="-106.432522">
			<ele>2343.42</ele>
			<time>2015-03-08T17:30:22Z</time>
			<fix>3d</fix>
		</trkpt>
		<trkpt lat="35.167338" lon="-106.432504">
			<ele>2343.53</ele>
			<time>2015-03-08T17:30:23Z</time>
			<fix>3d</fix>
		</trkpt>
		<trkpt lat="35.167335" lon="-106.432497">
			<ele>2343.74</ele>
			<time>2015-03-08T17:30:26Z</time>
			<fix>3d</fix>
		</trkpt>
		<trkpt lat="35.167334" lon="-106.432492">
			<ele>2343.96</ele>
			<time>2015-03-08T17:30:28Z</time>
			<fix>3d</fix>
		</trkpt>
		<trkpt lat="35.167326" lon="-106.432487">
			<ele>2344.07</ele>
			<time>2015-03-08T17:30:31Z</time>
			<fix>3d</fix>
		</trkpt>
		<trkpt lat="35.167311" lon="-106.432482">
			<ele>2344.78</ele>
			<time>2015-03-08T17:31:15Z</time>
			<fix>3d</fix>
		</trkpt>
		<trkpt lat="35.167311" lon="-106.432472">
			<ele>2344.67</ele>
			<time>2015-03-08T17:31:28Z</time>
			<fix>3d</fix>
		</trkpt>
		<trkpt lat="35.167312" lon="-106.432465">
			<ele>2344.67</ele>
			<time>2015-03-08T17:31:31Z</time>
			<fix>3d</fix>
		</trkpt>
		<trkpt lat="35.167312" lon="-106.432455">
			<ele>2344.67</ele>
			<time>2015-03-08T17:31:34Z</time>
			<fix>3d</fix>
		</trkpt>
		<trkpt lat="35.167311" lon="-106.432448">
			<ele>2344.67</ele>
			<time>2015-03-08T17:31:37Z</time>
			<fix>3d</fix>
		</trkpt>
		<trkpt lat="35.167312" lon="-106.432439">
			<ele>2344.67</ele>
			<time>2015-03-08T17:31:39Z</time>
			<fix>3d</fix>
		</trkpt>
		<trkpt lat="35.167312" lon="-106.432434">
			<ele>2344.67</ele>
			<time>2015-03-08T17:31:41Z</time>
			<fix>3d</fix>
		</trkpt>
		<trkpt lat="35.167316" lon="-106.432410">
			<ele>2344.66</ele>
			<time>2015-03-08T17:31:42Z</time>
			<fix>3d</fix>
		</trkpt>
		<trkpt lat="35.167315" lon="-106.432403">
			<ele>2344.49</ele>
			<time>2015-03-08T17:31:47Z</time>
			<fix>3d</fix>
		</trkpt>
		<trkpt lat="35.167317" lon="-106.432392">
			<ele>2344.49</ele>
			<time>2015-03-08T17:31:48Z</time>
			<fix>3d</fix>
		</trkpt>
		<trkpt lat="35.167313" lon="-106.432383">
			<ele>2343.75</ele>
			<time>2015-03-08T17:31:59Z</time>
			<fix>3d</fix>
		</trkpt>
		<trkpt lat="35.167311" lon="-106.432376">
			<ele>2343.75</ele>
			<time>2015-03-08T17:32:01Z</time>
			<fix>3d</fix>
		</trkpt>
		<trkpt lat="35.167303" lon="-106.432359">
			<ele>2343.75</ele>
			<time>2015-03-08T17:32:02Z</time>
			<fix>3d</fix>
		</trkpt>
		<trkpt lat="35.167302" lon="-106.432352">
			<ele>2343.64</ele>
			<time>2015-03-08T17:32:06Z</time>
			<fix>3d</fix>
		</trkpt>
		<trkpt lat="35.167300" lon="-106.432343">
			<ele>2343.64</ele>
			<time>2015-03-08T17:32:08Z</time>
			<fix>3d</fix>
		</trkpt>
		<trkpt lat="35.167300" lon="-106.432324">
			<ele>2343.64</ele>
			<time>2015-03-08T17:32:09Z</time>
			<fix>3d</fix>
		</trkpt>
		<trkpt lat="35.167299" lon="-106.432317">
			<ele>2343.64</ele>
			<time>2015-03-08T17:32:12Z</time>
			<fix>3d</fix>
		</trkpt>
		<trkpt lat="35.167297" lon="-106.432308">
			<ele>2343.64</ele>
			<time>2015-03-08T17:32:14Z</time>
			<fix>3d</fix>
		</trkpt>
		<trkpt lat="35.167299" lon="-106.432300">
			<ele>2343.64</ele>
			<time>2015-03-08T17:32:17Z</time>
			<fix>3d</fix>
		</trkpt>
		<trkpt lat="35.167302" lon="-106.432291">
			<ele>2343.64</ele>
			<time>2015-03-08T17:32:18Z</time>
			<fix>3d</fix>
		</trkpt>
		<trkpt lat="35.167303" lon="-106.432288">
			<ele>2343.64</ele>
			<time>2015-03-08T17:32:19Z</time>
			<fix>3d</fix>
		</trkpt>
		<trkpt lat="35.167307" lon="-106.432274">
			<ele>2343.64</ele>
			<time>2015-03-08T17:32:20Z</time>
			<fix>3d</fix>
		</trkpt>
		<trkpt lat="35.167307" lon="-106.432267">
			<ele>2343.42</ele>
			<time>2015-03-08T17:32:25Z</time>
			<fix>3d</fix>
		</trkpt>
		<trkpt lat="35.167307" lon="-106.432257">
			<ele>2343.42</ele>
			<time>2015-03-08T17:32:27Z</time>
			<fix>3d</fix>
		</trkpt>
		<trkpt lat="35.167314" lon="-106.432240">
			<ele>2343.31</ele>
			<time>2015-03-08T17:32:28Z</time>
			<fix>3d</fix>
		</trkpt>
		<trkpt lat="35.167315" lon="-106.432232">
			<ele>2342.68</ele>
			<time>2015-03-08T17:32:31Z</time>
			<fix>3d</fix>
		</trkpt>
		<trkpt lat="35.167317" lon="-106.432222">
			<ele>2342.57</ele>
			<time>2015-03-08T17:32:33Z</time>
			<fix>3d</fix>
		</trkpt>
		<trkpt lat="35.167319" lon="-106.432212">
			<ele>2342.57</ele>
			<time>2015-03-08T17:32:35Z</time>
			<fix>3d</fix>
		</trkpt>
		<trkpt lat="35.167320" lon="-106.432204">
			<ele>2342.46</ele>
			<time>2015-03-08T17:32:36Z</time>
			<fix>3d</fix>
		</trkpt>
		<trkpt lat="35.167321" lon="-106.432195">
			<ele>2342.35</ele>
			<time>2015-03-08T17:32:37Z</time>
			<fix>3d</fix>
		</trkpt>
		<trkpt lat="35.167321" lon="-106.432190">
			<ele>2342.35</ele>
			<time>2015-03-08T17:32:38Z</time>
			<fix>3d</fix>
		</trkpt>
		<trkpt lat="35.167324" lon="-106.432180">
			<ele>2342.24</ele>
			<time>2015-03-08T17:32:39Z</time>
			<fix>3d</fix>
		</trkpt>
		<trkpt lat="35.167326" lon="-106.432170">
			<ele>2342.24</ele>
			<time>2015-03-08T17:32:40Z</time>
			<fix>3d</fix>
		</trkpt>
		<trkpt lat="35.167328" lon="-106.432161">
			<ele>2342.24</ele>
			<time>2015-03-08T17:32:41Z</time>
			<fix>3d</fix>
		</trkpt>
		<trkpt lat="35.167335" lon="-106.432140">
			<ele>2342.24</ele>
			<time>2015-03-08T17:32:42Z</time>
			<fix>3d</fix>
		</trkpt>
		<trkpt lat="35.167338" lon="-106.432125">
			<ele>2341.89</ele>
			<time>2015-03-08T17:32:43Z</time>
			<fix>3d</fix>
		</trkpt>
		<trkpt lat="35.167339" lon="-106.432113">
			<ele>2341.78</ele>
			<time>2015-03-08T17:32:44Z</time>
			<fix>3d</fix>
		</trkpt>
		<trkpt lat="35.167337" lon="-106.432106">
			<ele>2341.78</ele>
			<time>2015-03-08T17:32:46Z</time>
			<fix>3d</fix>
		</trkpt>
		<trkpt lat="35.167337" lon="-106.432099">
			<ele>2341.56</ele>
			<time>2015-03-08T17:32:47Z</time>
			<fix>3d</fix>
		</trkpt>
		<trkpt lat="35.167337" lon="-106.432091">
			<ele>2341.56</ele>
			<time>2015-03-08T17:32:48Z</time>
			<fix>3d</fix>
		</trkpt>
		<trkpt lat="35.167338" lon="-106.432083">
			<ele>2341.45</ele>
			<time>2015-03-08T17:32:49Z</time>
			<fix>3d</fix>
		</trkpt>
		<trkpt lat="35.167340" lon="-106.432076">
			<ele>2341.35</ele>
			<time>2015-03-08T17:32:50Z</time>
			<fix>3d</fix>
		</trkpt>
		<trkpt lat="35.167351" lon="-106.432060">
			<ele>2341.34</ele>
			<time>2015-03-08T17:32:51Z</time>
			<fix>3d</fix>
		</trkpt>
		<trkpt lat="35.167360" lon="-106.432055">
			<ele>2341.34</ele>
			<time>2015-03-08T17:32:52Z</time>
			<fix>3d</fix>
		</trkpt>
		<trkpt lat="35.167368" lon="-106.432057">
			<ele>2341.33</ele>
			<time>2015-03-08T17:32:54Z</time>
			<fix>3d</fix>
		</trkpt>
		<trkpt lat="35.167383" lon="-106.432053">
			<ele>2341.50</ele>
			<time>2015-03-08T17:33:07Z</time>
			<fix>3d</fix>
		</trkpt>
		<trkpt lat="35.167382" lon="-106.432050">
			<ele>2341.49</ele>
			<time>2015-03-08T17:33:10Z</time>
			<fix>3d</fix>
		</trkpt>
		<trkpt lat="35.167382" lon="-106.432040">
			<ele>2341.58</ele>
			<time>2015-03-08T17:33:14Z</time>
			<fix>3d</fix>
		</trkpt>
		<trkpt lat="35.167383" lon="-106.432035">
			<ele>2341.37</ele>
			<time>2015-03-08T17:33:38Z</time>
			<fix>3d</fix>
		</trkpt>
		<trkpt lat="35.167370" lon="-106.432033">
			<ele>2341.61</ele>
			<time>2015-03-08T17:34:01Z</time>
			<fix>3d</fix>
		</trkpt>
		<trkpt lat="35.167364" lon="-106.432040">
			<ele>2341.61</ele>
			<time>2015-03-08T17:34:03Z</time>
			<fix>3d</fix>
		</trkpt>
		<trkpt lat="35.167356" lon="-106.432043">
			<ele>2341.61</ele>
			<time>2015-03-08T17:34:05Z</time>
			<fix>3d</fix>
		</trkpt>
		<trkpt lat="35.167349" lon="-106.432045">
			<ele>2341.70</ele>
			<time>2015-03-08T17:34:07Z</time>
			<fix>3d</fix>
		</trkpt>
		<trkpt lat="35.167342" lon="-106.432045">
			<ele>2341.69</ele>
			<time>2015-03-08T17:34:09Z</time>
			<fix>3d</fix>
		</trkpt>
		<trkpt lat="35.167336" lon="-106.432046">
			<ele>2341.68</ele>
			<time>2015-03-08T17:34:11Z</time>
			<fix>3d</fix>
		</trkpt>
		<trkpt lat="35.167327" lon="-106.432046">
			<ele>2341.76</ele>
			<time>2015-03-08T17:34:14Z</time>
			<fix>3d</fix>
		</trkpt>
		<trkpt lat="35.167319" lon="-106.432043">
			<ele>2341.62</ele>
			<time>2015-03-08T17:34:18Z</time>
			<fix>3d</fix>
		</trkpt>
		<trkpt lat="35.167312" lon="-106.432039">
			<ele>2341.57</ele>
			<time>2015-03-08T17:34:23Z</time>
			<fix>3d</fix>
		</trkpt>
		<trkpt lat="35.167372" lon="-106.431979">
			<ele>2341.71</ele>
			<time>2015-03-08T17:34:51Z</time>
			<fix>3d</fix>
		</trkpt>
		<trkpt lat="35.167382" lon="-106.431999">
			<ele>2341.69</ele>
			<time>2015-03-08T17:34:52Z</time>
			<fix>3d</fix>
		</trkpt>
		<trkpt lat="35.167383" lon="-106.431999">
			<ele>2341.77</ele>
			<time>2015-03-08T17:34:53Z</time>
			<fix>3d</fix>
		</trkpt>
		<trkpt lat="35.167397" lon="-106.432015">
			<ele>2341.75</ele>
			<time>2015-03-08T17:34:54Z</time>
			<fix>3d</fix>
		</trkpt>
		<trkpt lat="35.167417" lon="-106.432039">
			<ele>2341.94</ele>
			<time>2015-03-08T17:34:55Z</time>
			<fix>3d</fix>
		</trkpt>
		<trkpt lat="35.167428" lon="-106.432046">
			<ele>2342.03</ele>
			<time>2015-03-08T17:34:56Z</time>
			<fix>3d</fix>
		</trkpt>
		<trkpt lat="35.167448" lon="-106.432060">
			<ele>2342.33</ele>
			<time>2015-03-08T17:34:57Z</time>
			<fix>3d</fix>
		</trkpt>
		<trkpt lat="35.167466" lon="-106.432064">
			<ele>2342.52</ele>
			<time>2015-03-08T17:34:58Z</time>
			<fix>3d</fix>
		</trkpt>
		<trkpt lat="35.167470" lon="-106.432063">
			<ele>2342.72</ele>
			<time>2015-03-08T17:34:59Z</time>
			<fix>3d</fix>
		</trkpt>
		<trkpt lat="35.167491" lon="-106.432064">
			<ele>2342.70</ele>
			<time>2015-03-08T17:35:00Z</time>
			<fix>3d</fix>
		</trkpt>
		<trkpt lat="35.167508" lon="-106.432073">
			<ele>2343.09</ele>
			<time>2015-03-08T17:35:02Z</time>
			<fix>3d</fix>
		</trkpt>
		<trkpt lat="35.167517" lon="-106.432075">
			<ele>2343.08</ele>
			<time>2015-03-08T17:35:03Z</time>
			<fix>3d</fix>
		</trkpt>
		<trkpt lat="35.167522" lon="-106.432077">
			<ele>2343.07</ele>
			<time>2015-03-08T17:35:04Z</time>
			<fix>3d</fix>
		</trkpt>
		<trkpt lat="35.167527" lon="-106.432080">
			<ele>2343.16</ele>
			<time>2015-03-08T17:35:05Z</time>
			<fix>3d</fix>
		</trkpt>
		<trkpt lat="35.167540" lon="-106.432087">
			<ele>2343.25</ele>
			<time>2015-03-08T17:35:06Z</time>
			<fix>3d</fix>
		</trkpt>
		<trkpt lat="35.167544" lon="-106.432091">
			<ele>2343.35</ele>
			<time>2015-03-08T17:35:07Z</time>
			<fix>3d</fix>
		</trkpt>
		<trkpt lat="35.167548" lon="-106.432093">
			<ele>2343.64</ele>
			<time>2015-03-08T17:35:09Z</time>
			<fix>3d</fix>
		</trkpt>
		<trkpt lat="35.167553" lon="-106.432097">
			<ele>2343.83</ele>
			<time>2015-03-08T17:35:10Z</time>
			<fix>3d</fix>
		</trkpt>
		<trkpt lat="35.167559" lon="-106.432100">
			<ele>2344.24</ele>
			<time>2015-03-08T17:35:11Z</time>
			<fix>3d</fix>
		</trkpt>
		<trkpt lat="35.167587" lon="-106.432108">
			<ele>2345.27</ele>
			<time>2015-03-08T17:35:12Z</time>
			<fix>3d</fix>
		</trkpt>
		<trkpt lat="35.167591" lon="-106.432106">
			<ele>2345.47</ele>
			<time>2015-03-08T17:35:13Z</time>
			<fix>3d</fix>
		</trkpt>
		<trkpt lat="35.167597" lon="-106.432106">
			<ele>2345.45</ele>
			<time>2015-03-08T17:35:14Z</time>
			<fix>3d</fix>
		</trkpt>
		<trkpt lat="35.167604" lon="-106.432106">
			<ele>2345.44</ele>
			<time>2015-03-08T17:35:15Z</time>
			<fix>3d</fix>
		</trkpt>
		<trkpt lat="35.167611" lon="-106.432107">
			<ele>2345.53</ele>
			<time>2015-03-08T17:35:16Z</time>
			<fix>3d</fix>
		</trkpt>
		<trkpt lat="35.167619" lon="-106.432109">
			<ele>2345.52</ele>
			<time>2015-03-08T17:35:17Z</time>
			<fix>3d</fix>
		</trkpt>
		<trkpt lat="35.167645" lon="-106.432122">
			<ele>2345.51</ele>
			<time>2015-03-08T17:35:18Z</time>
			<fix>3d</fix>
		</trkpt>
		<trkpt lat="35.167647" lon="-106.432123">
			<ele>2345.60</ele>
			<time>2015-03-08T17:35:19Z</time>
			<fix>3d</fix>
		</trkpt>
		<trkpt lat="35.167667" lon="-106.432126">
			<ele>2345.59</ele>
			<time>2015-03-08T17:35:20Z</time>
			<fix>3d</fix>
		</trkpt>
		<trkpt lat="35.167677" lon="-106.432121">
			<ele>2345.58</ele>
			<time>2015-03-08T17:35:21Z</time>
			<fix>3d</fix>
		</trkpt>
		<trkpt lat="35.167681" lon="-106.432120">
			<ele>2345.67</ele>
			<time>2015-03-08T17:35:22Z</time>
			<fix>3d</fix>
		</trkpt>
		<trkpt lat="35.167687" lon="-106.432117">
			<ele>2345.86</ele>
			<time>2015-03-08T17:35:24Z</time>
			<fix>3d</fix>
		</trkpt>
		<trkpt lat="35.167695" lon="-106.432116">
			<ele>2346.46</ele>
			<time>2015-03-08T17:35:26Z</time>
			<fix>3d</fix>
		</trkpt>
		<trkpt lat="35.167704" lon="-106.432116">
			<ele>2346.66</ele>
			<time>2015-03-08T17:35:27Z</time>
			<fix>3d</fix>
		</trkpt>
		<trkpt lat="35.167713" lon="-106.432114">
			<ele>2346.96</ele>
			<time>2015-03-08T17:35:28Z</time>
			<fix>3d</fix>
		</trkpt>
		<trkpt lat="35.167742" lon="-106.432108">
			<ele>2347.04</ele>
			<time>2015-03-08T17:35:30Z</time>
			<fix>3d</fix>
		</trkpt>
		<trkpt lat="35.167751" lon="-106.432097">
			<ele>2347.13</ele>
			<time>2015-03-08T17:35:31Z</time>
			<fix>3d</fix>
		</trkpt>
		<trkpt lat="35.167758" lon="-106.432083">
			<ele>2347.53</ele>
			<time>2015-03-08T17:35:32Z</time>
			<fix>3d</fix>
		</trkpt>
		<trkpt lat="35.167761" lon="-106.432078">
			<ele>2347.83</ele>
			<time>2015-03-08T17:35:33Z</time>
			<fix>3d</fix>
		</trkpt>
		<trkpt lat="35.167765" lon="-106.432072">
			<ele>2348.03</ele>
			<time>2015-03-08T17:35:34Z</time>
			<fix>3d</fix>
		</trkpt>
		<trkpt lat="35.167769" lon="-106.432065">
			<ele>2348.33</ele>
			<time>2015-03-08T17:35:35Z</time>
			<fix>3d</fix>
		</trkpt>
		<trkpt lat="35.167773" lon="-106.432058">
			<ele>2348.42</ele>
			<time>2015-03-08T17:35:36Z</time>
			<fix>3d</fix>
		</trkpt>
		<trkpt lat="35.167774" lon="-106.432053">
			<ele>2348.51</ele>
			<time>2015-03-08T17:35:37Z</time>
			<fix>3d</fix>
		</trkpt>
		<trkpt lat="35.167779" lon="-106.432045">
			<ele>2348.81</ele>
			<time>2015-03-08T17:35:38Z</time>
			<fix>3d</fix>
		</trkpt>
		<trkpt lat="35.167781" lon="-106.432035">
			<ele>2349.00</ele>
			<time>2015-03-08T17:35:40Z</time>
			<fix>3d</fix>
		</trkpt>
		<trkpt lat="35.167788" lon="-106.432025">
			<ele>2349.40</ele>
			<time>2015-03-08T17:35:41Z</time>
			<fix>3d</fix>
		</trkpt>
		<trkpt lat="35.167793" lon="-106.432015">
			<ele>2349.91</ele>
			<time>2015-03-08T17:35:42Z</time>
			<fix>3d</fix>
		</trkpt>
		<trkpt lat="35.167805" lon="-106.431991">
			<ele>2350.11</ele>
			<time>2015-03-08T17:35:43Z</time>
			<fix>3d</fix>
		</trkpt>
		<trkpt lat="35.167813" lon="-106.431976">
			<ele>2350.09</ele>
			<time>2015-03-08T17:35:44Z</time>
			<fix>3d</fix>
		</trkpt>
		<trkpt lat="35.167822" lon="-106.431965">
			<ele>2350.18</ele>
			<time>2015-03-08T17:35:45Z</time>
			<fix>3d</fix>
		</trkpt>
		<trkpt lat="35.167831" lon="-106.431952">
			<ele>2350.17</ele>
			<time>2015-03-08T17:35:46Z</time>
			<fix>3d</fix>
		</trkpt>
		<trkpt lat="35.167832" lon="-106.431948">
			<ele>2350.26</ele>
			<time>2015-03-08T17:35:47Z</time>
			<fix>3d</fix>
		</trkpt>
		<trkpt lat="35.167838" lon="-106.431943">
			<ele>2350.46</ele>
			<time>2015-03-08T17:35:48Z</time>
			<fix>3d</fix>
		</trkpt>
		<trkpt lat="35.167843" lon="-106.431935">
			<ele>2350.76</ele>
			<time>2015-03-08T17:35:49Z</time>
			<fix>3d</fix>
		</trkpt>
		<trkpt lat="35.167848" lon="-106.431927">
			<ele>2350.95</ele>
			<time>2015-03-08T17:35:50Z</time>
			<fix>3d</fix>
		</trkpt>
		<trkpt lat="35.167860" lon="-106.431905">
			<ele>2350.94</ele>
			<time>2015-03-08T17:35:51Z</time>
			<fix>3d</fix>
		</trkpt>
		<trkpt lat="35.167874" lon="-106.431886">
			<ele>2350.93</ele>
			<time>2015-03-08T17:35:52Z</time>
			<fix>3d</fix>
		</trkpt>
		<trkpt lat="35.167880" lon="-106.431873">
			<ele>2351.02</ele>
			<time>2015-03-08T17:35:53Z</time>
			<fix>3d</fix>
		</trkpt>
		<trkpt lat="35.167887" lon="-106.431859">
			<ele>2351.11</ele>
			<time>2015-03-08T17:35:54Z</time>
			<fix>3d</fix>
		</trkpt>
		<trkpt lat="35.167889" lon="-106.431853">
			<ele>2351.41</ele>
			<time>2015-03-08T17:35:55Z</time>
			<fix>3d</fix>
		</trkpt>
		<trkpt lat="35.167897" lon="-106.431833">
			<ele>2351.71</ele>
			<time>2015-03-08T17:35:56Z</time>
			<fix>3d</fix>
		</trkpt>
		<trkpt lat="35.167905" lon="-106.431819">
			<ele>2351.91</ele>
			<time>2015-03-08T17:35:57Z</time>
			<fix>3d</fix>
		</trkpt>
		<trkpt lat="35.167913" lon="-106.431806">
			<ele>2352.63</ele>
			<time>2015-03-08T17:35:58Z</time>
			<fix>3d</fix>
		</trkpt>
		<trkpt lat="35.167915" lon="-106.431802">
			<ele>2353.03</ele>
			<time>2015-03-08T17:35:59Z</time>
			<fix>3d</fix>
		</trkpt>
		<trkpt lat="35.167933" lon="-106.431784">
			<ele>2353.02</ele>
			<time>2015-03-08T17:36:00Z</time>
			<fix>3d</fix>
		</trkpt>
		<trkpt lat="35.167947" lon="-106.431774">
			<ele>2353.00</ele>
			<time>2015-03-08T17:36:01Z</time>
			<fix>3d</fix>
		</trkpt>
		<trkpt lat="35.167960" lon="-106.431768">
			<ele>2352.99</ele>
			<time>2015-03-08T17:36:02Z</time>
			<fix>3d</fix>
		</trkpt>
		<trkpt lat="35.167967" lon="-106.431763">
			<ele>2352.98</ele>
			<time>2015-03-08T17:36:03Z</time>
			<fix>3d</fix>
		</trkpt>
		<trkpt lat="35.167976" lon="-106.431762">
			<ele>2353.07</ele>
			<time>2015-03-08T17:36:04Z</time>
			<fix>3d</fix>
		</trkpt>
		<trkpt lat="35.167992" lon="-106.431770">
			<ele>2353.06</ele>
			<time>2015-03-08T17:36:05Z</time>
			<fix>3d</fix>
		</trkpt>
		<trkpt lat="35.168005" lon="-106.431772">
			<ele>2353.04</ele>
			<time>2015-03-08T17:36:06Z</time>
			<fix>3d</fix>
		</trkpt>
		<trkpt lat="35.168014" lon="-106.431767">
			<ele>2353.14</ele>
			<time>2015-03-08T17:36:07Z</time>
			<fix>3d</fix>
		</trkpt>
		<trkpt lat="35.168019" lon="-106.431764">
			<ele>2353.33</ele>
			<time>2015-03-08T17:36:08Z</time>
			<fix>3d</fix>
		</trkpt>
		<trkpt lat="35.168039" lon="-106.431756">
			<ele>2353.73</ele>
			<time>2015-03-08T17:36:09Z</time>
			<fix>3d</fix>
		</trkpt>
		<trkpt lat="35.168045" lon="-106.431746">
			<ele>2354.13</ele>
			<time>2015-03-08T17:36:10Z</time>
			<fix>3d</fix>
		</trkpt>
		<trkpt lat="35.168053" lon="-106.431734">
			<ele>2354.52</ele>
			<time>2015-03-08T17:36:11Z</time>
			<fix>3d</fix>
		</trkpt>
		<trkpt lat="35.168061" lon="-106.431721">
			<ele>2354.50</ele>
			<time>2015-03-08T17:36:12Z</time>
			<fix>3d</fix>
		</trkpt>
		<trkpt lat="35.168076" lon="-106.431708">
			<ele>2354.49</ele>
			<time>2015-03-08T17:36:13Z</time>
			<fix>3d</fix>
		</trkpt>
		<trkpt lat="35.168083" lon="-106.431696">
			<ele>2354.57</ele>
			<time>2015-03-08T17:36:14Z</time>
			<fix>3d</fix>
		</trkpt>
		<trkpt lat="35.168091" lon="-106.431685">
			<ele>2354.76</ele>
			<time>2015-03-08T17:36:15Z</time>
			<fix>3d</fix>
		</trkpt>
		<trkpt lat="35.168100" lon="-106.431674">
			<ele>2354.95</ele>
			<time>2015-03-08T17:36:16Z</time>
			<fix>3d</fix>
		</trkpt>
		<trkpt lat="35.168104" lon="-106.431669">
			<ele>2355.03</ele>
			<time>2015-03-08T17:36:17Z</time>
			<fix>3d</fix>
		</trkpt>
		<trkpt lat="35.168113" lon="-106.431654">
			<ele>2355.12</ele>
			<time>2015-03-08T17:36:18Z</time>
			<fix>3d</fix>
		</trkpt>
		<trkpt lat="35.168115" lon="-106.431649">
			<ele>2355.10</ele>
			<time>2015-03-08T17:36:19Z</time>
			<fix>3d</fix>
		</trkpt>
		<trkpt lat="35.168129" lon="-106.431632">
			<ele>2355.08</ele>
			<time>2015-03-08T17:36:20Z</time>
			<fix>3d</fix>
		</trkpt>
		<trkpt lat="35.168131" lon="-106.431627">
			<ele>2355.27</ele>
			<time>2015-03-08T17:36:21Z</time>
			<fix>3d</fix>
		</trkpt>
		<trkpt lat="35.168133" lon="-106.431621">
			<ele>2355.36</ele>
			<time>2015-03-08T17:36:22Z</time>
			<fix>3d</fix>
		</trkpt>
		<trkpt lat="35.168139" lon="-106.431604">
			<ele>2355.34</ele>
			<time>2015-03-08T17:36:23Z</time>
			<fix>3d</fix>
		</trkpt>
		<trkpt lat="35.168149" lon="-106.431590">
			<ele>2355.32</ele>
			<time>2015-03-08T17:36:24Z</time>
			<fix>3d</fix>
		</trkpt>
		<trkpt lat="35.168158" lon="-106.431579">
			<ele>2355.25</ele>
			<time>2015-03-08T17:36:25Z</time>
			<fix>3d</fix>
		</trkpt>
		<trkpt lat="35.168163" lon="-106.431572">
			<ele>2355.24</ele>
			<time>2015-03-08T17:36:26Z</time>
			<fix>3d</fix>
		</trkpt>
		<trkpt lat="35.168169" lon="-106.431562">
			<ele>2355.32</ele>
			<time>2015-03-08T17:36:27Z</time>
			<fix>3d</fix>
		</trkpt>
		<trkpt lat="35.168175" lon="-106.431552">
			<ele>2355.41</ele>
			<time>2015-03-08T17:36:28Z</time>
			<fix>3d</fix>
		</trkpt>
		<trkpt lat="35.168178" lon="-106.431547">
			<ele>2355.91</ele>
			<time>2015-03-08T17:36:29Z</time>
			<fix>3d</fix>
		</trkpt>
		<trkpt lat="35.168183" lon="-106.431533">
			<ele>2356.00</ele>
			<time>2015-03-08T17:36:30Z</time>
			<fix>3d</fix>
		</trkpt>
		<trkpt lat="35.168186" lon="-106.431526">
			<ele>2356.07</ele>
			<time>2015-03-08T17:36:32Z</time>
			<fix>3d</fix>
		</trkpt>
		<trkpt lat="35.168190" lon="-106.431517">
			<ele>2356.34</ele>
			<time>2015-03-08T17:36:34Z</time>
			<fix>3d</fix>
		</trkpt>
		<trkpt lat="35.168196" lon="-106.431514">
			<ele>2356.32</ele>
			<time>2015-03-08T17:36:35Z</time>
			<fix>3d</fix>
		</trkpt>
		<trkpt lat="35.168218" lon="-106.431509">
			<ele>2356.41</ele>
			<time>2015-03-08T17:36:36Z</time>
			<fix>3d</fix>
		</trkpt>
		<trkpt lat="35.168226" lon="-106.431504">
			<ele>2356.81</ele>
			<time>2015-03-08T17:36:37Z</time>
			<fix>3d</fix>
		</trkpt>
		<trkpt lat="35.168235" lon="-106.431500">
			<ele>2356.90</ele>
			<time>2015-03-08T17:36:38Z</time>
			<fix>3d</fix>
		</trkpt>
		<trkpt lat="35.168240" lon="-106.431499">
			<ele>2356.99</ele>
			<time>2015-03-08T17:36:39Z</time>
			<fix>3d</fix>
		</trkpt>
		<trkpt lat="35.168261" lon="-106.431497">
			<ele>2356.97</ele>
			<time>2015-03-08T17:36:40Z</time>
			<fix>3d</fix>
		</trkpt>
		<trkpt lat="35.168264" lon="-106.431495">
			<ele>2357.06</ele>
			<time>2015-03-08T17:36:41Z</time>
			<fix>3d</fix>
		</trkpt>
		<trkpt lat="35.168275" lon="-106.431488">
			<ele>2357.35</ele>
			<time>2015-03-08T17:36:42Z</time>
			<fix>3d</fix>
		</trkpt>
		<trkpt lat="35.168278" lon="-106.431486">
			<ele>2357.33</ele>
			<time>2015-03-08T17:36:43Z</time>
			<fix>3d</fix>
		</trkpt>
		<trkpt lat="35.168297" lon="-106.431479">
			<ele>2357.42</ele>
			<time>2015-03-08T17:36:44Z</time>
			<fix>3d</fix>
		</trkpt>
		<trkpt lat="35.168304" lon="-106.431474">
			<ele>2357.59</ele>
			<time>2015-03-08T17:36:46Z</time>
			<fix>3d</fix>
		</trkpt>
		<trkpt lat="35.168315" lon="-106.431469">
			<ele>2357.68</ele>
			<time>2015-03-08T17:36:47Z</time>
			<fix>3d</fix>
		</trkpt>
		<trkpt lat="35.168330" lon="-106.431462">
			<ele>2357.75</ele>
			<time>2015-03-08T17:36:49Z</time>
			<fix>3d</fix>
		</trkpt>
		<trkpt lat="35.168335" lon="-106.431460">
			<ele>2357.74</ele>
			<time>2015-03-08T17:36:50Z</time>
			<fix>3d</fix>
		</trkpt>
		<trkpt lat="35.168341" lon="-106.431452">
			<ele>2357.70</ele>
			<time>2015-03-08T17:36:52Z</time>
			<fix>3d</fix>
		</trkpt>
		<trkpt lat="35.168347" lon="-106.431446">
			<ele>2358.00</ele>
			<time>2015-03-08T17:36:53Z</time>
			<fix>3d</fix>
		</trkpt>
		<trkpt lat="35.168366" lon="-106.431426">
			<ele>2358.40</ele>
			<time>2015-03-08T17:36:54Z</time>
			<fix>3d</fix>
		</trkpt>
		<trkpt lat="35.168367" lon="-106.431423">
			<ele>2358.38</ele>
			<time>2015-03-08T17:36:55Z</time>
			<fix>3d</fix>
		</trkpt>
		<trkpt lat="35.168374" lon="-106.431410">
			<ele>2358.47</ele>
			<time>2015-03-08T17:36:56Z</time>
			<fix>3d</fix>
		</trkpt>
		<trkpt lat="35.168380" lon="-106.431399">
			<ele>2358.66</ele>
			<time>2015-03-08T17:36:57Z</time>
			<fix>3d</fix>
		</trkpt>
		<trkpt lat="35.168386" lon="-106.431391">
			<ele>2359.37</ele>
			<time>2015-03-08T17:36:58Z</time>
			<fix>3d</fix>
		</trkpt>
		<trkpt lat="35.168399" lon="-106.431389">
			<ele>2359.46</ele>
			<time>2015-03-08T17:36:59Z</time>
			<fix>3d</fix>
		</trkpt>
		<trkpt lat="35.168402" lon="-106.431387">
			<ele>2359.44</ele>
			<time>2015-03-08T17:37:00Z</time>
			<fix>3d</fix>
		</trkpt>
		<trkpt lat="35.168411" lon="-106.431382">
			<ele>2359.42</ele>
			<time>2015-03-08T17:37:01Z</time>
			<fix>3d</fix>
		</trkpt>
		<trkpt lat="35.168427" lon="-106.431380">
			<ele>2359.40</ele>
			<time>2015-03-08T17:37:02Z</time>
			<fix>3d</fix>
		</trkpt>
		<trkpt lat="35.168433" lon="-106.431376">
			<ele>2359.39</ele>
			<time>2015-03-08T17:37:03Z</time>
			<fix>3d</fix>
		</trkpt>
		<trkpt lat="35.168436" lon="-106.431376">
			<ele>2359.37</ele>
			<time>2015-03-08T17:37:04Z</time>
			<fix>3d</fix>
		</trkpt>
		<trkpt lat="35.168445" lon="-106.431373">
			<ele>2359.35</ele>
			<time>2015-03-08T17:37:05Z</time>
			<fix>3d</fix>
		</trkpt>
		<trkpt lat="35.168446" lon="-106.431367">
			<ele>2359.32</ele>
			<time>2015-03-08T17:37:07Z</time>
			<fix>3d</fix>
		</trkpt>
		<trkpt lat="35.168468" lon="-106.431370">
			<ele>2359.30</ele>
			<time>2015-03-08T17:37:08Z</time>
			<fix>3d</fix>
		</trkpt>
		<trkpt lat="35.168474" lon="-106.431371">
			<ele>2359.71</ele>
			<time>2015-03-08T17:37:15Z</time>
			<fix>3d</fix>
		</trkpt>
		<trkpt lat="35.168483" lon="-106.431383">
			<ele>2359.75</ele>
			<time>2015-03-08T17:37:19Z</time>
			<fix>3d</fix>
		</trkpt>
		<trkpt lat="35.168482" lon="-106.431413">
			<ele>2358.70</ele>
			<time>2015-03-08T17:38:12Z</time>
			<fix>3d</fix>
		</trkpt>
		<trkpt lat="35.168481" lon="-106.431418">
			<ele>2358.69</ele>
			<time>2015-03-08T17:38:13Z</time>
			<fix>3d</fix>
		</trkpt>
		<trkpt lat="35.168478" lon="-106.431443">
			<ele>2358.67</ele>
			<time>2015-03-08T17:38:14Z</time>
			<fix>3d</fix>
		</trkpt>
		<trkpt lat="35.168479" lon="-106.431453">
			<ele>2358.52</ele>
			<time>2015-03-08T17:38:18Z</time>
			<fix>3d</fix>
		</trkpt>
		<trkpt lat="35.168476" lon="-106.431457">
			<ele>2358.39</ele>
			<time>2015-03-08T17:38:20Z</time>
			<fix>3d</fix>
		</trkpt>
		<trkpt lat="35.168471" lon="-106.431476">
			<ele>2357.74</ele>
			<time>2015-03-08T17:38:26Z</time>
			<fix>3d</fix>
		</trkpt>
		<trkpt lat="35.168485" lon="-106.431492">
			<ele>2357.13</ele>
			<time>2015-03-08T17:38:34Z</time>
			<fix>3d</fix>
		</trkpt>
		<trkpt lat="35.168493" lon="-106.431498">
			<ele>2356.94</ele>
			<time>2015-03-08T17:38:43Z</time>
			<fix>3d</fix>
		</trkpt>
		<trkpt lat="35.168501" lon="-106.431494">
			<ele>2356.92</ele>
			<time>2015-03-08T17:38:45Z</time>
			<fix>3d</fix>
		</trkpt>
		<trkpt lat="35.168508" lon="-106.431490">
			<ele>2356.92</ele>
			<time>2015-03-08T17:38:46Z</time>
			<fix>3d</fix>
		</trkpt>
		<trkpt lat="35.168510" lon="-106.431487">
			<ele>2357.01</ele>
			<time>2015-03-08T17:38:47Z</time>
			<fix>3d</fix>
		</trkpt>
		<trkpt lat="35.168537" lon="-106.431471">
			<ele>2357.99</ele>
			<time>2015-03-08T17:38:58Z</time>
			<fix>3d</fix>
		</trkpt>
		<trkpt lat="35.168537" lon="-106.431466">
			<ele>2358.09</ele>
			<time>2015-03-08T17:38:59Z</time>
			<fix>3d</fix>
		</trkpt>
		<trkpt lat="35.168537" lon="-106.431459">
			<ele>2358.08</ele>
			<time>2015-03-08T17:39:00Z</time>
			<fix>3d</fix>
		</trkpt>
		<trkpt lat="35.168536" lon="-106.431438">
			<ele>2358.07</ele>
			<time>2015-03-08T17:39:01Z</time>
			<fix>3d</fix>
		</trkpt>
		<trkpt lat="35.168535" lon="-106.431433">
			<ele>2358.34</ele>
			<time>2015-03-08T17:39:08Z</time>
			<fix>3d</fix>
		</trkpt>
		<trkpt lat="35.168527" lon="-106.431437">
			<ele>2358.33</ele>
			<time>2015-03-08T17:39:09Z</time>
			<fix>3d</fix>
		</trkpt>
		<trkpt lat="35.168523" lon="-106.431438">
			<ele>2358.43</ele>
			<time>2015-03-08T17:39:10Z</time>
			<fix>3d</fix>
		</trkpt>
		<trkpt lat="35.168517" lon="-106.431438">
			<ele>2358.43</ele>
			<time>2015-03-08T17:39:11Z</time>
			<fix>3d</fix>
		</trkpt>
		<trkpt lat="35.168500" lon="-106.431444">
			<ele>2358.42</ele>
			<time>2015-03-08T17:39:12Z</time>
			<fix>3d</fix>
		</trkpt>
		<trkpt lat="35.168492" lon="-106.431439">
			<ele>2358.40</ele>
			<time>2015-03-08T17:39:15Z</time>
			<fix>3d</fix>
		</trkpt>
		<trkpt lat="35.168481" lon="-106.431440">
			<ele>2358.39</ele>
			<time>2015-03-08T17:39:16Z</time>
			<fix>3d</fix>
		</trkpt>
		<trkpt lat="35.168477" lon="-106.431438">
			<ele>2357.35</ele>
			<time>2015-03-08T17:40:07Z</time>
			<fix>3d</fix>
		</trkpt>
		<trkpt lat="35.168584" lon="-106.431568">
			<ele>2359.46</ele>
			<time>2015-03-08T17:58:48Z</time>
			<fix>3d</fix>
		</trkpt>
		<trkpt lat="35.168578" lon="-106.431556">
			<ele>2359.16</ele>
			<time>2015-03-08T17:58:49Z</time>
			<fix>3d</fix>
		</trkpt>
		<trkpt lat="35.168577" lon="-106.431553">
			<ele>2358.65</ele>
			<time>2015-03-08T17:58:50Z</time>
			<fix>3d</fix>
		</trkpt>
		<trkpt lat="35.168574" lon="-106.431544">
			<ele>2358.66</ele>
			<time>2015-03-08T17:58:51Z</time>
			<fix>3d</fix>
		</trkpt>
		<trkpt lat="35.168566" lon="-106.431524">
			<ele>2358.67</ele>
			<time>2015-03-08T17:58:52Z</time>
			<fix>3d</fix>
		</trkpt>
		<trkpt lat="35.168544" lon="-106.431449">
			<ele>2358.78</ele>
			<time>2015-03-08T17:58:54Z</time>
			<fix>3d</fix>
		</trkpt>
		<trkpt lat="35.168535" lon="-106.431443">
			<ele>2358.78</ele>
			<time>2015-03-08T17:58:55Z</time>
			<fix>3d</fix>
		</trkpt>
		<trkpt lat="35.168529" lon="-106.431440">
			<ele>2358.79</ele>
			<time>2015-03-08T17:58:56Z</time>
			<fix>3d</fix>
		</trkpt>
		<trkpt lat="35.168523" lon="-106.431432">
			<ele>2358.89</ele>
			<time>2015-03-08T17:59:01Z</time>
			<fix>3d</fix>
		</trkpt>
		<trkpt lat="35.168517" lon="-106.431424">
			<ele>2358.90</ele>
			<time>2015-03-08T17:59:36Z</time>
			<fix>3d</fix>
		</trkpt>
		<trkpt lat="35.168519" lon="-106.431414">
			<ele>2357.86</ele>
			<time>2015-03-08T18:00:21Z</time>
			<fix>3d</fix>
		</trkpt>
		<trkpt lat="35.168498" lon="-106.431399">
			<ele>2355.11</ele>
			<time>2015-03-08T18:06:45Z</time>
			<fix>3d</fix>
		</trkpt>
		<trkpt lat="35.168492" lon="-106.431406">
			<ele>2354.65</ele>
			<time>2015-03-08T18:07:50Z</time>
			<fix>3d</fix>
		</trkpt>
		<trkpt lat="35.168491" lon="-106.431406">
			<ele>2354.54</ele>
			<time>2015-03-08T18:07:51Z</time>
			<fix>3d</fix>
		</trkpt>
		<trkpt lat="35.168783" lon="-106.431657">
			<ele>2356.95</ele>
			<time>2015-03-08T18:20:39Z</time>
			<fix>3d</fix>
		</trkpt>
		<trkpt lat="35.168755" lon="-106.431621">
			<ele>2356.97</ele>
			<time>2015-03-08T18:20:40Z</time>
			<fix>3d</fix>
		</trkpt>
		<trkpt lat="35.168744" lon="-106.431605">
			<ele>2357.10</ele>
			<time>2015-03-08T18:20:41Z</time>
			<fix>3d</fix>
		</trkpt>
		<trkpt lat="35.168732" lon="-106.431594">
			<ele>2357.02</ele>
			<time>2015-03-08T18:20:42Z</time>
			<fix>3d</fix>
		</trkpt>
		<trkpt lat="35.168718" lon="-106.431584">
			<ele>2357.05</ele>
			<time>2015-03-08T18:20:43Z</time>
			<fix>3d</fix>
		</trkpt>
		<trkpt lat="35.168702" lon="-106.431573">
			<ele>2357.07</ele>
			<time>2015-03-08T18:20:44Z</time>
			<fix>3d</fix>
		</trkpt>
		<trkpt lat="35.168687" lon="-106.431564">
			<ele>2357.09</ele>
			<time>2015-03-08T18:20:45Z</time>
			<fix>3d</fix>
		</trkpt>
		<trkpt lat="35.168674" lon="-106.431557">
			<ele>2357.11</ele>
			<time>2015-03-08T18:20:46Z</time>
			<fix>3d</fix>
		</trkpt>
		<trkpt lat="35.168663" lon="-106.431551">
			<ele>2357.13</ele>
			<time>2015-03-08T18:20:47Z</time>
			<fix>3d</fix>
		</trkpt>
		<trkpt lat="35.168653" lon="-106.431546">
			<ele>2357.15</ele>
			<time>2015-03-08T18:20:48Z</time>
			<fix>3d</fix>
		</trkpt>
		<trkpt lat="35.168643" lon="-106.431541">
			<ele>2357.16</ele>
			<time>2015-03-08T18:20:49Z</time>
			<fix>3d</fix>
		</trkpt>
		<trkpt lat="35.168635" lon="-106.431536">
			<ele>2357.18</ele>
			<time>2015-03-08T18:20:50Z</time>
			<fix>3d</fix>
		</trkpt>
		<trkpt lat="35.168628" lon="-106.431532">
			<ele>2357.19</ele>
			<time>2015-03-08T18:20:51Z</time>
			<fix>3d</fix>
		</trkpt>
		<trkpt lat="35.168621" lon="-106.431528">
			<ele>2357.21</ele>
			<time>2015-03-08T18:20:52Z</time>
			<fix>3d</fix>
		</trkpt>
		<trkpt lat="35.168614" lon="-106.431525">
			<ele>2357.22</ele>
			<time>2015-03-08T18:20:53Z</time>
			<fix>3d</fix>
		</trkpt>
		<trkpt lat="35.168608" lon="-106.431522">
			<ele>2357.23</ele>
			<time>2015-03-08T18:20:54Z</time>
			<fix>3d</fix>
		</trkpt>
		<trkpt lat="35.168603" lon="-106.431519">
			<ele>2357.25</ele>
			<time>2015-03-08T18:20:55Z</time>
			<fix>3d</fix>
		</trkpt>
		<trkpt lat="35.168598" lon="-106.431516">
			<ele>2357.26</ele>
			<time>2015-03-08T18:20:56Z</time>
			<fix>3d</fix>
		</trkpt>
		<trkpt lat="35.168593" lon="-106.431513">
			<ele>2357.27</ele>
			<time>2015-03-08T18:20:57Z</time>
			<fix>3d</fix>
		</trkpt>
		<trkpt lat="35.168585" lon="-106.431508">
			<ele>2357.29</ele>
			<time>2015-03-08T18:20:59Z</time>
			<fix>3d</fix>
		</trkpt>
		<trkpt lat="35.168578" lon="-106.431504">
			<ele>2357.52</ele>
			<time>2015-03-08T18:21:01Z</time>
			<fix>3d</fix>
		</trkpt>
		<trkpt lat="35.168524" lon="-106.431454">
			<ele>2357.41</ele>
			<time>2015-03-08T18:21:11Z</time>
			<fix>3d</fix>
		</trkpt>
		<trkpt lat="35.168516" lon="-106.431456">
			<ele>2357.41</ele>
			<time>2015-03-08T18:21:22Z</time>
			<fix>3d</fix>
		</trkpt>
		<trkpt lat="35.168509" lon="-106.431462">
			<ele>2357.44</ele>
			<time>2015-03-08T18:21:29Z</time>
			<fix>3d</fix>
		</trkpt>
		<trkpt lat="35.168501" lon="-106.431461">
			<ele>2357.14</ele>
			<time>2015-03-08T18:21:38Z</time>
			<fix>3d</fix>
		</trkpt>
		<trkpt lat="35.168493" lon="-106.431457">
			<ele>2356.70</ele>
			<time>2015-03-08T18:22:17Z</time>
			<fix>3d</fix>
		</trkpt>
		<trkpt lat="35.168488" lon="-106.431451">
			<ele>2355.98</ele>
			<time>2015-03-08T18:23:53Z</time>
			<fix>3d</fix>
		</trkpt>
		<trkpt lat="35.168542" lon="-106.431405">
			<ele>2356.30</ele>
			<time>2015-03-08T18:24:41Z</time>
			<fix>3d</fix>
		</trkpt>
		<trkpt lat="35.168537" lon="-106.431396">
			<ele>2356.27</ele>
			<time>2015-03-08T18:24:44Z</time>
			<fix>3d</fix>
		</trkpt>
		<trkpt lat="35.168532" lon="-106.431390">
			<ele>2356.35</ele>
			<time>2015-03-08T18:24:47Z</time>
			<fix>3d</fix>
		</trkpt>
		<trkpt lat="35.168525" lon="-106.431384">
			<ele>2356.29</ele>
			<time>2015-03-08T18:24:52Z</time>
			<fix>3d</fix>
		</trkpt>
		<trkpt lat="35.168517" lon="-106.431379">
			<ele>2356.12</ele>
			<time>2015-03-08T18:25:00Z</time>
			<fix>3d</fix>
		</trkpt>
		<trkpt lat="35.168513" lon="-106.431372">
			<ele>2356.12</ele>
			<time>2015-03-08T18:25:11Z</time>
			<fix>3d</fix>
		</trkpt>
		<trkpt lat="35.168508" lon="-106.431367">
			<ele>2356.10</ele>
			<time>2015-03-08T18:25:13Z</time>
			<fix>3d</fix>
		</trkpt>
		<trkpt lat="35.168496" lon="-106.431358">
			<ele>2355.99</ele>
			<time>2015-03-08T18:25:14Z</time>
			<fix>3d</fix>
		</trkpt>
		<trkpt lat="35.168485" lon="-106.431350">
			<ele>2355.67</ele>
			<time>2015-03-08T18:25:15Z</time>
			<fix>3d</fix>
		</trkpt>
		<trkpt lat="35.168473" lon="-106.431347">
			<ele>2355.66</ele>
			<time>2015-03-08T18:25:16Z</time>
			<fix>3d</fix>
		</trkpt>
		<trkpt lat="35.168458" lon="-106.431349">
			<ele>2355.65</ele>
			<time>2015-03-08T18:25:17Z</time>
			<fix>3d</fix>
		</trkpt>
		<trkpt lat="35.168446" lon="-106.431351">
			<ele>2355.64</ele>
			<time>2015-03-08T18:25:18Z</time>
			<fix>3d</fix>
		</trkpt>
		<trkpt lat="35.168442" lon="-106.431351">
			<ele>2355.63</ele>
			<time>2015-03-08T18:25:19Z</time>
			<fix>3d</fix>
		</trkpt>
		<trkpt lat="35.168431" lon="-106.431351">
			<ele>2355.52</ele>
			<time>2015-03-08T18:25:20Z</time>
			<fix>3d</fix>
		</trkpt>
		<trkpt lat="35.168423" lon="-106.431353">
			<ele>2355.51</ele>
			<time>2015-03-08T18:25:22Z</time>
			<fix>3d</fix>
		</trkpt>
		<trkpt lat="35.168411" lon="-106.431357">
			<ele>2355.40</ele>
			<time>2015-03-08T18:25:23Z</time>
			<fix>3d</fix>
		</trkpt>
		<trkpt lat="35.168399" lon="-106.431361">
			<ele>2355.28</ele>
			<time>2015-03-08T18:25:24Z</time>
			<fix>3d</fix>
		</trkpt>
		<trkpt lat="35.168393" lon="-106.431361">
			<ele>2354.75</ele>
			<time>2015-03-08T18:25:26Z</time>
			<fix>3d</fix>
		</trkpt>
		<trkpt lat="35.168387" lon="-106.431364">
			<ele>2354.53</ele>
			<time>2015-03-08T18:25:28Z</time>
			<fix>3d</fix>
		</trkpt>
		<trkpt lat="35.168369" lon="-106.431378">
			<ele>2354.52</ele>
			<time>2015-03-08T18:25:29Z</time>
			<fix>3d</fix>
		</trkpt>
		<trkpt lat="35.168363" lon="-106.431386">
			<ele>2353.96</ele>
			<time>2015-03-08T18:25:39Z</time>
			<fix>3d</fix>
		</trkpt>
		<trkpt lat="35.168361" lon="-106.431388">
			<ele>2353.96</ele>
			<time>2015-03-08T18:25:40Z</time>
			<fix>3d</fix>
		</trkpt>
		<trkpt lat="35.168355" lon="-106.431396">
			<ele>2353.95</ele>
			<time>2015-03-08T18:25:41Z</time>
			<fix>3d</fix>
		</trkpt>
		<trkpt lat="35.168349" lon="-106.431403">
			<ele>2353.95</ele>
			<time>2015-03-08T18:25:43Z</time>
			<fix>3d</fix>
		</trkpt>
		<trkpt lat="35.168345" lon="-106.431406">
			<ele>2353.84</ele>
			<time>2015-03-08T18:25:44Z</time>
			<fix>3d</fix>
		</trkpt>
		<trkpt lat="35.168337" lon="-106.431406">
			<ele>2353.41</ele>
			<time>2015-03-08T18:25:47Z</time>
			<fix>3d</fix>
		</trkpt>
		<trkpt lat="35.168314" lon="-106.431418">
			<ele>2353.41</ele>
			<time>2015-03-08T18:25:48Z</time>
			<fix>3d</fix>
		</trkpt>
		<trkpt lat="35.168303" lon="-106.431417">
			<ele>2353.40</ele>
			<time>2015-03-08T18:25:49Z</time>
			<fix>3d</fix>
		</trkpt>
		<trkpt lat="35.168295" lon="-106.431420">
			<ele>2353.29</ele>
			<time>2015-03-08T18:25:51Z</time>
			<fix>3d</fix>
		</trkpt>
		<trkpt lat="35.168284" lon="-106.431427">
			<ele>2353.19</ele>
			<time>2015-03-08T18:25:52Z</time>
			<fix>3d</fix>
		</trkpt>
		<trkpt lat="35.168275" lon="-106.431432">
			<ele>2353.08</ele>
			<time>2015-03-08T18:25:53Z</time>
			<fix>3d</fix>
		</trkpt>
		<trkpt lat="35.168261" lon="-106.431439">
			<ele>2352.87</ele>
			<time>2015-03-08T18:25:54Z</time>
			<fix>3d</fix>
		</trkpt>
		<trkpt lat="35.168249" lon="-106.431444">
			<ele>2352.55</ele>
			<time>2015-03-08T18:25:55Z</time>
			<fix>3d</fix>
		</trkpt>
		<trkpt lat="35.168241" lon="-106.431442">
			<ele>2352.24</ele>
			<time>2015-03-08T18:25:57Z</time>
			<fix>3d</fix>
		</trkpt>
		<trkpt lat="35.168237" lon="-106.431444">
			<ele>2352.34</ele>
			<time>2015-03-08T18:25:58Z</time>
			<fix>3d</fix>
		</trkpt>
		<trkpt lat="35.168230" lon="-106.431446">
			<ele>2352.18</ele>
			<time>2015-03-08T18:26:00Z</time>
			<fix>3d</fix>
		</trkpt>
		<trkpt lat="35.168224" lon="-106.431451">
			<ele>2351.76</ele>
			<time>2015-03-08T18:26:01Z</time>
			<fix>3d</fix>
		</trkpt>
		<trkpt lat="35.168218" lon="-106.431456">
			<ele>2351.45</ele>
			<time>2015-03-08T18:26:02Z</time>
			<fix>3d</fix>
		</trkpt>
		<trkpt lat="35.168212" lon="-106.431462">
			<ele>2350.41</ele>
			<time>2015-03-08T18:26:03Z</time>
			<fix>3d</fix>
		</trkpt>
		<trkpt lat="35.168206" lon="-106.431469">
			<ele>2350.41</ele>
			<time>2015-03-08T18:26:04Z</time>
			<fix>3d</fix>
		</trkpt>
		<trkpt lat="35.168191" lon="-106.431487">
			<ele>2350.30</ele>
			<time>2015-03-08T18:26:05Z</time>
			<fix>3d</fix>
		</trkpt>
		<trkpt lat="35.168179" lon="-106.431496">
			<ele>2350.30</ele>
			<time>2015-03-08T18:26:06Z</time>
			<fix>3d</fix>
		</trkpt>
		<trkpt lat="35.168166" lon="-106.431511">
			<ele>2350.31</ele>
			<time>2015-03-08T18:26:07Z</time>
			<fix>3d</fix>
		</trkpt>
		<trkpt lat="35.168163" lon="-106.431513">
			<ele>2350.20</ele>
			<time>2015-03-08T18:26:08Z</time>
			<fix>3d</fix>
		</trkpt>
		<trkpt lat="35.168152" lon="-106.431521">
			<ele>2349.89</ele>
			<time>2015-03-08T18:26:09Z</time>
			<fix>3d</fix>
		</trkpt>
		<trkpt lat="35.168149" lon="-106.431524">
			<ele>2349.79</ele>
			<time>2015-03-08T18:26:10Z</time>
			<fix>3d</fix>
		</trkpt>
		<trkpt lat="35.168144" lon="-106.431528">
			<ele>2349.79</ele>
			<time>2015-03-08T18:26:11Z</time>
			<fix>3d</fix>
		</trkpt>
		<trkpt lat="35.168137" lon="-106.431533">
			<ele>2349.69</ele>
			<time>2015-03-08T18:26:13Z</time>
			<fix>3d</fix>
		</trkpt>
		<trkpt lat="35.168134" lon="-106.431541">
			<ele>2349.69</ele>
			<time>2015-03-08T18:26:14Z</time>
			<fix>3d</fix>
		</trkpt>
		<trkpt lat="35.168131" lon="-106.431550">
			<ele>2349.59</ele>
			<time>2015-03-08T18:26:15Z</time>
			<fix>3d</fix>
		</trkpt>
		<trkpt lat="35.168121" lon="-106.431583">
			<ele>2349.49</ele>
			<time>2015-03-08T18:26:16Z</time>
			<fix>3d</fix>
		</trkpt>
		<trkpt lat="35.168113" lon="-106.431592">
			<ele>2349.28</ele>
			<time>2015-03-08T18:26:17Z</time>
			<fix>3d</fix>
		</trkpt>
		<trkpt lat="35.168109" lon="-106.431597">
			<ele>2349.19</ele>
			<time>2015-03-08T18:26:19Z</time>
			<fix>3d</fix>
		</trkpt>
		<trkpt lat="35.168108" lon="-106.431603">
			<ele>2348.98</ele>
			<time>2015-03-08T18:26:20Z</time>
			<fix>3d</fix>
		</trkpt>
		<trkpt lat="35.168106" lon="-106.431609">
			<ele>2348.88</ele>
			<time>2015-03-08T18:26:21Z</time>
			<fix>3d</fix>
		</trkpt>
		<trkpt lat="35.168103" lon="-106.431615">
			<ele>2348.78</ele>
			<time>2015-03-08T18:26:22Z</time>
			<fix>3d</fix>
		</trkpt>
		<trkpt lat="35.168099" lon="-106.431620">
			<ele>2348.78</ele>
			<time>2015-03-08T18:26:23Z</time>
			<fix>3d</fix>
		</trkpt>
		<trkpt lat="35.168094" lon="-106.431625">
			<ele>2348.58</ele>
			<time>2015-03-08T18:26:24Z</time>
			<fix>3d</fix>
		</trkpt>
		<trkpt lat="35.168081" lon="-106.431637">
			<ele>2347.64</ele>
			<time>2015-03-08T18:26:25Z</time>
			<fix>3d</fix>
		</trkpt>
		<trkpt lat="35.168073" lon="-106.431646">
			<ele>2347.44</ele>
			<time>2015-03-08T18:26:26Z</time>
			<fix>3d</fix>
		</trkpt>
		<trkpt lat="35.168062" lon="-106.431653">
			<ele>2347.35</ele>
			<time>2015-03-08T18:26:28Z</time>
			<fix>3d</fix>
		</trkpt>
		<trkpt lat="35.168058" lon="-106.431656">
			<ele>2347.25</ele>
			<time>2015-03-08T18:26:29Z</time>
			<fix>3d</fix>
		</trkpt>
		<trkpt lat="35.168054" lon="-106.431659">
			<ele>2346.83</ele>
			<time>2015-03-08T18:26:30Z</time>
			<fix>3d</fix>
		</trkpt>
		<trkpt lat="35.168049" lon="-106.431662">
			<ele>2346.73</ele>
			<time>2015-03-08T18:26:31Z</time>
			<fix>3d</fix>
		</trkpt>
		<trkpt lat="35.168043" lon="-106.431666">
			<ele>2346.74</ele>
			<time>2015-03-08T18:26:32Z</time>
			<fix>3d</fix>
		</trkpt>
		<trkpt lat="35.168037" lon="-106.431672">
			<ele>2346.64</ele>
			<time>2015-03-08T18:26:33Z</time>
			<fix>3d</fix>
		</trkpt>
		<trkpt lat="35.168031" lon="-106.431678">
			<ele>2346.65</ele>
			<time>2015-03-08T18:26:34Z</time>
			<fix>3d</fix>
		</trkpt>
		<trkpt lat="35.168025" lon="-106.431684">
			<ele>2346.66</ele>
			<time>2015-03-08T18:26:36Z</time>
			<fix>3d</fix>
		</trkpt>
		<trkpt lat="35.168020" lon="-106.431687">
			<ele>2345.94</ele>
			<time>2015-03-08T18:26:39Z</time>
			<fix>3d</fix>
		</trkpt>
		<trkpt lat="35.168015" lon="-106.431700">
			<ele>2345.95</ele>
			<time>2015-03-08T18:26:40Z</time>
			<fix>3d</fix>
		</trkpt>
		<trkpt lat="35.168002" lon="-106.431726">
			<ele>2345.95</ele>
			<time>2015-03-08T18:26:41Z</time>
			<fix>3d</fix>
		</trkpt>
		<trkpt lat="35.167997" lon="-106.431731">
			<ele>2345.96</ele>
			<time>2015-03-08T18:26:42Z</time>
			<fix>3d</fix>
		</trkpt>
		<trkpt lat="35.167993" lon="-106.431738">
			<ele>2345.86</ele>
			<time>2015-03-08T18:26:43Z</time>
			<fix>3d</fix>
		</trkpt>
		<trkpt lat="35.167989" lon="-106.431746">
			<ele>2345.45</ele>
			<time>2015-03-08T18:26:44Z</time>
			<fix>3d</fix>
		</trkpt>
		<trkpt lat="35.167978" lon="-106.431766">
			<ele>2345.46</ele>
			<time>2015-03-08T18:26:45Z</time>
			<fix>3d</fix>
		</trkpt>
		<trkpt lat="35.167975" lon="-106.431771">
			<ele>2345.36</ele>
			<time>2015-03-08T18:26:46Z</time>
			<fix>3d</fix>
		</trkpt>
		<trkpt lat="35.167963" lon="-106.431785">
			<ele>2345.05</ele>
			<time>2015-03-08T18:26:47Z</time>
			<fix>3d</fix>
		</trkpt>
		<trkpt lat="35.167951" lon="-106.431805">
			<ele>2345.06</ele>
			<time>2015-03-08T18:26:48Z</time>
			<fix>3d</fix>
		</trkpt>
		<trkpt lat="35.167950" lon="-106.431809">
			<ele>2345.07</ele>
			<time>2015-03-08T18:26:49Z</time>
			<fix>3d</fix>
		</trkpt>
		<trkpt lat="35.167941" lon="-106.431828">
			<ele>2344.97</ele>
			<time>2015-03-08T18:26:50Z</time>
			<fix>3d</fix>
		</trkpt>
		<trkpt lat="35.167936" lon="-106.431834">
			<ele>2344.78</ele>
			<time>2015-03-08T18:26:52Z</time>
			<fix>3d</fix>
		</trkpt>
		<trkpt lat="35.167931" lon="-106.431839">
			<ele>2344.68</ele>
			<time>2015-03-08T18:26:53Z</time>
			<fix>3d</fix>
		</trkpt>
		<trkpt lat="35.167925" lon="-106.431844">
			<ele>2344.69</ele>
			<time>2015-03-08T18:26:54Z</time>
			<fix>3d</fix>
		</trkpt>
		<trkpt lat="35.167919" lon="-106.431849">
			<ele>2344.70</ele>
			<time>2015-03-08T18:26:55Z</time>
			<fix>3d</fix>
		</trkpt>
		<trkpt lat="35.167913" lon="-106.431856">
			<ele>2344.60</ele>
			<time>2015-03-08T18:26:56Z</time>
			<fix>3d</fix>
		</trkpt>
		<trkpt lat="35.167907" lon="-106.431863">
			<ele>2344.51</ele>
			<time>2015-03-08T18:26:57Z</time>
			<fix>3d</fix>
		</trkpt>
		<trkpt lat="35.167902" lon="-106.431870">
			<ele>2344.52</ele>
			<time>2015-03-08T18:26:58Z</time>
			<fix>3d</fix>
		</trkpt>
		<trkpt lat="35.167896" lon="-106.431877">
			<ele>2344.41</ele>
			<time>2015-03-08T18:26:59Z</time>
			<fix>3d</fix>
		</trkpt>
		<trkpt lat="35.167891" lon="-106.431885">
			<ele>2344.32</ele>
			<time>2015-03-08T18:27:00Z</time>
			<fix>3d</fix>
		</trkpt>
		<trkpt lat="35.167885" lon="-106.431887">
			<ele>2342.89</ele>
			<time>2015-03-08T18:27:03Z</time>
			<fix>3d</fix>
		</trkpt>
		<trkpt lat="35.167879" lon="-106.431893">
			<ele>2342.40</ele>
			<time>2015-03-08T18:27:06Z</time>
			<fix>3d</fix>
		</trkpt>
		<trkpt lat="35.167859" lon="-106.431959">
			<ele>2342.11</ele>
			<time>2015-03-08T18:27:08Z</time>
			<fix>3d</fix>
		</trkpt>
		<trkpt lat="35.167855" lon="-106.431967">
			<ele>2341.62</ele>
			<time>2015-03-08T18:27:11Z</time>
			<fix>3d</fix>
		</trkpt>
		<trkpt lat="35.167850" lon="-106.431973">
			<ele>2341.11</ele>
			<time>2015-03-08T18:27:12Z</time>
			<fix>3d</fix>
		</trkpt>
		<trkpt lat="35.167837" lon="-106.431986">
			<ele>2340.81</ele>
			<time>2015-03-08T18:27:13Z</time>
			<fix>3d</fix>
		</trkpt>
		<trkpt lat="35.167826" lon="-106.431992">
			<ele>2340.93</ele>
			<time>2015-03-08T18:27:14Z</time>
			<fix>3d</fix>
		</trkpt>
		<trkpt lat="35.167816" lon="-106.431995">
			<ele>2340.83</ele>
			<time>2015-03-08T18:27:15Z</time>
			<fix>3d</fix>
		</trkpt>
		<trkpt lat="35.167805" lon="-106.431997">
			<ele>2340.74</ele>
			<time>2015-03-08T18:27:16Z</time>
			<fix>3d</fix>
		</trkpt>
		<trkpt lat="35.167791" lon="-106.432004">
			<ele>2340.65</ele>
			<time>2015-03-08T18:27:17Z</time>
			<fix>3d</fix>
		</trkpt>
		<trkpt lat="35.167781" lon="-106.432004">
			<ele>2340.56</ele>
			<time>2015-03-08T18:27:18Z</time>
			<fix>3d</fix>
		</trkpt>
		<trkpt lat="35.167770" lon="-106.432007">
			<ele>2340.46</ele>
			<time>2015-03-08T18:27:19Z</time>
			<fix>3d</fix>
		</trkpt>
		<trkpt lat="35.167757" lon="-106.432009">
			<ele>2340.37</ele>
			<time>2015-03-08T18:27:20Z</time>
			<fix>3d</fix>
		</trkpt>
		<trkpt lat="35.167746" lon="-106.432010">
			<ele>2340.17</ele>
			<time>2015-03-08T18:27:21Z</time>
			<fix>3d</fix>
		</trkpt>
		<trkpt lat="35.167739" lon="-106.432009">
			<ele>2340.09</ele>
			<time>2015-03-08T18:27:23Z</time>
			<fix>3d</fix>
		</trkpt>
		<trkpt lat="35.167733" lon="-106.432011">
			<ele>2339.89</ele>
			<time>2015-03-08T18:27:24Z</time>
			<fix>3d</fix>
		</trkpt>
		<trkpt lat="35.167726" lon="-106.432013">
			<ele>2339.38</ele>
			<time>2015-03-08T18:27:25Z</time>
			<fix>3d</fix>
		</trkpt>
		<trkpt lat="35.167719" lon="-106.432015">
			<ele>2339.29</ele>
			<time>2015-03-08T18:27:26Z</time>
			<fix>3d</fix>
		</trkpt>
		<trkpt lat="35.167716" lon="-106.432014">
			<ele>2339.19</ele>
			<time>2015-03-08T18:27:27Z</time>
			<fix>3d</fix>
		</trkpt>
		<trkpt lat="35.167708" lon="-106.432017">
			<ele>2339.20</ele>
			<time>2015-03-08T18:27:28Z</time>
			<fix>3d</fix>
		</trkpt>
		<trkpt lat="35.167681" lon="-106.432029">
			<ele>2339.01</ele>
			<time>2015-03-08T18:27:29Z</time>
			<fix>3d</fix>
		</trkpt>
		<trkpt lat="35.167672" lon="-106.432027">
			<ele>2338.91</ele>
			<time>2015-03-08T18:27:30Z</time>
			<fix>3d</fix>
		</trkpt>
		<trkpt lat="35.167662" lon="-106.432025">
			<ele>2338.50</ele>
			<time>2015-03-08T18:27:31Z</time>
			<fix>3d</fix>
		</trkpt>
		<trkpt lat="35.167657" lon="-106.432024">
			<ele>2338.31</ele>
			<time>2015-03-08T18:27:32Z</time>
			<fix>3d</fix>
		</trkpt>
		<trkpt lat="35.167642" lon="-106.432025">
			<ele>2338.21</ele>
			<time>2015-03-08T18:27:33Z</time>
			<fix>3d</fix>
		</trkpt>
		<trkpt lat="35.167637" lon="-106.432027">
			<ele>2338.15</ele>
			<time>2015-03-08T18:27:38Z</time>
			<fix>3d</fix>
		</trkpt>
		<trkpt lat="35.167632" lon="-106.432028">
			<ele>2338.16</ele>
			<time>2015-03-08T18:27:39Z</time>
			<fix>3d</fix>
		</trkpt>
		<trkpt lat="35.167627" lon="-106.432029">
			<ele>2338.16</ele>
			<time>2015-03-08T18:27:40Z</time>
			<fix>3d</fix>
		</trkpt>
		<trkpt lat="35.167620" lon="-106.432029">
			<ele>2338.17</ele>
			<time>2015-03-08T18:27:41Z</time>
			<fix>3d</fix>
		</trkpt>
		<trkpt lat="35.167603" lon="-106.432029">
			<ele>2338.07</ele>
			<time>2015-03-08T18:27:42Z</time>
			<fix>3d</fix>
		</trkpt>
		<trkpt lat="35.167596" lon="-106.432024">
			<ele>2336.95</ele>
			<time>2015-03-08T18:27:45Z</time>
			<fix>3d</fix>
		</trkpt>
		<trkpt lat="35.167587" lon="-106.432025">
			<ele>2336.95</ele>
			<time>2015-03-08T18:27:46Z</time>
			<fix>3d</fix>
		</trkpt>
		<trkpt lat="35.167579" lon="-106.432025">
			<ele>2336.96</ele>
			<time>2015-03-08T18:27:47Z</time>
			<fix>3d</fix>
		</trkpt>
		<trkpt lat="35.167570" lon="-106.432025">
			<ele>2336.97</ele>
			<time>2015-03-08T18:27:48Z</time>
			<fix>3d</fix>
		</trkpt>
		<trkpt lat="35.167563" lon="-106.432020">
			<ele>2336.88</ele>
			<time>2015-03-08T18:27:50Z</time>
			<fix>3d</fix>
		</trkpt>
		<trkpt lat="35.167553" lon="-106.432022">
			<ele>2336.78</ele>
			<time>2015-03-08T18:27:51Z</time>
			<fix>3d</fix>
		</trkpt>
		<trkpt lat="35.167546" lon="-106.432017">
			<ele>2336.69</ele>
			<time>2015-03-08T18:27:53Z</time>
			<fix>3d</fix>
		</trkpt>
		<trkpt lat="35.167538" lon="-106.432012">
			<ele>2336.49</ele>
			<time>2015-03-08T18:27:55Z</time>
			<fix>3d</fix>
		</trkpt>
		<trkpt lat="35.167534" lon="-106.432009">
			<ele>2336.50</ele>
			<time>2015-03-08T18:27:56Z</time>
			<fix>3d</fix>
		</trkpt>
		<trkpt lat="35.167500" lon="-106.432007">
			<ele>2336.30</ele>
			<time>2015-03-08T18:27:57Z</time>
			<fix>3d</fix>
		</trkpt>
		<trkpt lat="35.167492" lon="-106.432008">
			<ele>2336.05</ele>
			<time>2015-03-08T18:28:03Z</time>
			<fix>3d</fix>
		</trkpt>
		<trkpt lat="35.167487" lon="-106.432006">
			<ele>2335.88</ele>
			<time>2015-03-08T18:28:08Z</time>
			<fix>3d</fix>
		</trkpt>
		<trkpt lat="35.167482" lon="-106.432009">
			<ele>2335.88</ele>
			<time>2015-03-08T18:28:09Z</time>
			<fix>3d</fix>
		</trkpt>
		<trkpt lat="35.167467" lon="-106.432015">
			<ele>2335.78</ele>
			<time>2015-03-08T18:28:10Z</time>
			<fix>3d</fix>
		</trkpt>
		<trkpt lat="35.167451" lon="-106.432022">
			<ele>2335.48</ele>
			<time>2015-03-08T18:28:11Z</time>
			<fix>3d</fix>
		</trkpt>
		<trkpt lat="35.167448" lon="-106.432021">
			<ele>2335.38</ele>
			<time>2015-03-08T18:28:12Z</time>
			<fix>3d</fix>
		</trkpt>
		<trkpt lat="35.167437" lon="-106.432022">
			<ele>2335.38</ele>
			<time>2015-03-08T18:28:13Z</time>
			<fix>3d</fix>
		</trkpt>
		<trkpt lat="35.167424" lon="-106.432040">
			<ele>2335.32</ele>
			<time>2015-03-08T18:28:20Z</time>
			<fix>3d</fix>
		</trkpt>
		<trkpt lat="35.167417" lon="-106.432045">
			<ele>2335.35</ele>
			<time>2015-03-08T18:28:25Z</time>
			<fix>3d</fix>
		</trkpt>
		<trkpt lat="35.167415" lon="-106.432050">
			<ele>2335.35</ele>
			<time>2015-03-08T18:28:26Z</time>
			<fix>3d</fix>
		</trkpt>
		<trkpt lat="35.167408" lon="-106.432055">
			<ele>2335.48</ele>
			<time>2015-03-08T18:28:29Z</time>
			<fix>3d</fix>
		</trkpt>
		<trkpt lat="35.167402" lon="-106.432064">
			<ele>2335.48</ele>
			<time>2015-03-08T18:28:30Z</time>
			<fix>3d</fix>
		</trkpt>
		<trkpt lat="35.167397" lon="-106.432072">
			<ele>2335.49</ele>
			<time>2015-03-08T18:28:31Z</time>
			<fix>3d</fix>
		</trkpt>
		<trkpt lat="35.167391" lon="-106.432080">
			<ele>2335.49</ele>
			<time>2015-03-08T18:28:32Z</time>
			<fix>3d</fix>
		</trkpt>
		<trkpt lat="35.167389" lon="-106.432080">
			<ele>2335.50</ele>
			<time>2015-03-08T18:28:33Z</time>
			<fix>3d</fix>
		</trkpt>
		<trkpt lat="35.167385" lon="-106.432090">
			<ele>2335.51</ele>
			<time>2015-03-08T18:28:34Z</time>
			<fix>3d</fix>
		</trkpt>
		<trkpt lat="35.167381" lon="-106.432099">
			<ele>2335.51</ele>
			<time>2015-03-08T18:28:35Z</time>
			<fix>3d</fix>
		</trkpt>
		<trkpt lat="35.167378" lon="-106.432107">
			<ele>2335.62</ele>
			<time>2015-03-08T18:28:36Z</time>
			<fix>3d</fix>
		</trkpt>
		<trkpt lat="35.167375" lon="-106.432115">
			<ele>2335.63</ele>
			<time>2015-03-08T18:28:37Z</time>
			<fix>3d</fix>
		</trkpt>
		<trkpt lat="35.167370" lon="-106.432124">
			<ele>2335.75</ele>
			<time>2015-03-08T18:28:39Z</time>
			<fix>3d</fix>
		</trkpt>
		<trkpt lat="35.167367" lon="-106.432134">
			<ele>2335.86</ele>
			<time>2015-03-08T18:28:40Z</time>
			<fix>3d</fix>
		</trkpt>
		<trkpt lat="35.167363" lon="-106.432143">
			<ele>2336.07</ele>
			<time>2015-03-08T18:28:41Z</time>
			<fix>3d</fix>
		</trkpt>
		<trkpt lat="35.167351" lon="-106.432161">
			<ele>2336.29</ele>
			<time>2015-03-08T18:28:42Z</time>
			<fix>3d</fix>
		</trkpt>
		<trkpt lat="35.167345" lon="-106.432165">
			<ele>2336.40</ele>
			<time>2015-03-08T18:28:44Z</time>
			<fix>3d</fix>
		</trkpt>
		<trkpt lat="35.167340" lon="-106.432172">
			<ele>2337.46</ele>
			<time>2015-03-08T18:28:45Z</time>
			<fix>3d</fix>
		</trkpt>
		<trkpt lat="35.167333" lon="-106.432176">
			<ele>2337.48</ele>
			<time>2015-03-08T18:28:50Z</time>
			<fix>3d</fix>
		</trkpt>
		<trkpt lat="35.167325" lon="-106.432226">
			<ele>2338.17</ele>
			<time>2015-03-08T18:29:15Z</time>
			<fix>3d</fix>
		</trkpt>
		<trkpt lat="35.167329" lon="-106.432235">
			<ele>2338.37</ele>
			<time>2015-03-08T18:29:27Z</time>
			<fix>3d</fix>
		</trkpt>
		<trkpt lat="35.167329" lon="-106.432245">
			<ele>2339.24</ele>
			<time>2015-03-08T18:29:53Z</time>
			<fix>3d</fix>
		</trkpt>
		<trkpt lat="35.167328" lon="-106.432262">
			<ele>2339.35</ele>
			<time>2015-03-08T18:29:54Z</time>
			<fix>3d</fix>
		</trkpt>
		<trkpt lat="35.167322" lon="-106.432269">
			<ele>2339.61</ele>
			<time>2015-03-08T18:30:12Z</time>
			<fix>3d</fix>
		</trkpt>
		<trkpt lat="35.167317" lon="-106.432269">
			<ele>2339.67</ele>
			<time>2015-03-08T18:30:22Z</time>
			<fix>3d</fix>
		</trkpt>
		<trkpt lat="35.167307" lon="-106.432281">
			<ele>2339.74</ele>
			<time>2015-03-08T18:30:33Z</time>
			<fix>3d</fix>
		</trkpt>
		<trkpt lat="35.167302" lon="-106.432288">
			<ele>2339.76</ele>
			<time>2015-03-08T18:30:36Z</time>
			<fix>3d</fix>
		</trkpt>
		<trkpt lat="35.167301" lon="-106.432290">
			<ele>2339.77</ele>
			<time>2015-03-08T18:30:37Z</time>
			<fix>3d</fix>
		</trkpt>
		<trkpt lat="35.167301" lon="-106.432303">
			<ele>2339.78</ele>
			<time>2015-03-08T18:30:38Z</time>
			<fix>3d</fix>
		</trkpt>
		<trkpt lat="35.167299" lon="-106.432305">
			<ele>2339.89</ele>
			<time>2015-03-08T18:30:40Z</time>
			<fix>3d</fix>
		</trkpt>
		<trkpt lat="35.167298" lon="-106.432319">
			<ele>2339.90</ele>
			<time>2015-03-08T18:30:41Z</time>
			<fix>3d</fix>
		</trkpt>
		<trkpt lat="35.167296" lon="-106.432321">
			<ele>2339.90</ele>
			<time>2015-03-08T18:30:42Z</time>
			<fix>3d</fix>
		</trkpt>
		<trkpt lat="35.167294" lon="-106.432336">
			<ele>2339.91</ele>
			<time>2015-03-08T18:30:43Z</time>
			<fix>3d</fix>
		</trkpt>
		<trkpt lat="35.167292" lon="-106.432338">
			<ele>2339.91</ele>
			<time>2015-03-08T18:30:44Z</time>
			<fix>3d</fix>
		</trkpt>
		<trkpt lat="35.167289" lon="-106.432352">
			<ele>2339.92</ele>
			<time>2015-03-08T18:30:45Z</time>
			<fix>3d</fix>
		</trkpt>
		<trkpt lat="35.167288" lon="-106.432353">
			<ele>2339.93</ele>
			<time>2015-03-08T18:30:47Z</time>
			<fix>3d</fix>
		</trkpt>
		<trkpt lat="35.167285" lon="-106.432402">
			<ele>2339.93</ele>
			<time>2015-03-08T18:30:48Z</time>
			<fix>3d</fix>
		</trkpt>
		<trkpt lat="35.167286" lon="-106.432410">
			<ele>2340.06</ele>
			<time>2015-03-08T18:30:53Z</time>
			<fix>3d</fix>
		</trkpt>
		<trkpt lat="35.167290" lon="-106.432419">
			<ele>2339.87</ele>
			<time>2015-03-08T18:30:56Z</time>
			<fix>3d</fix>
		</trkpt>
		<trkpt lat="35.167293" lon="-106.432432">
			<ele>2339.87</ele>
			<time>2015-03-08T18:30:57Z</time>
			<fix>3d</fix>
		</trkpt>
		<trkpt lat="35.167294" lon="-106.432439">
			<ele>2339.56</ele>
			<time>2015-03-08T18:31:01Z</time>
			<fix>3d</fix>
		</trkpt>
		<trkpt lat="35.167300" lon="-106.432491">
			<ele>2339.25</ele>
			<time>2015-03-08T18:31:04Z</time>
			<fix>3d</fix>
		</trkpt>
		<trkpt lat="35.167298" lon="-106.432513">
			<ele>2338.74</ele>
			<time>2015-03-08T18:31:05Z</time>
			<fix>3d</fix>
		</trkpt>
		<trkpt lat="35.167297" lon="-106.432524">
			<ele>2338.64</ele>
			<time>2015-03-08T18:31:07Z</time>
			<fix>3d</fix>
		</trkpt>
		<trkpt lat="35.167302" lon="-106.432532">
			<ele>2338.34</ele>
			<time>2015-03-08T18:31:12Z</time>
			<fix>3d</fix>
		</trkpt>
		<trkpt lat="35.167307" lon="-106.432540">
			<ele>2338.37</ele>
			<time>2015-03-08T18:31:20Z</time>
			<fix>3d</fix>
		</trkpt>
		<trkpt lat="35.167310" lon="-106.432546">
			<ele>2338.29</ele>
			<time>2015-03-08T18:31:27Z</time>
			<fix>3d</fix>
		</trkpt>
		<trkpt lat="35.167321" lon="-106.432567">
			<ele>2338.29</ele>
			<time>2015-03-08T18:31:28Z</time>
			<fix>3d</fix>
		</trkpt>
		<trkpt lat="35.167321" lon="-106.432578">
			<ele>2338.00</ele>
			<time>2015-03-08T18:31:37Z</time>
			<fix>3d</fix>
		</trkpt>
		<trkpt lat="35.167322" lon="-106.432590">
			<ele>2337.50</ele>
			<time>2015-03-08T18:31:44Z</time>
			<fix>3d</fix>
		</trkpt>
		<trkpt lat="35.167323" lon="-106.432635">
			<ele>2336.69</ele>
			<time>2015-03-08T18:31:53Z</time>
			<fix>3d</fix>
		</trkpt>
		<trkpt lat="35.167328" lon="-106.432641">
			<ele>2336.59</ele>
			<time>2015-03-08T18:31:54Z</time>
			<fix>3d</fix>
		</trkpt>
		<trkpt lat="35.167340" lon="-106.432658">
			<ele>2336.59</ele>
			<time>2015-03-08T18:31:55Z</time>
			<fix>3d</fix>
		</trkpt>
		<trkpt lat="35.167346" lon="-106.432664">
			<ele>2336.49</ele>
			<time>2015-03-08T18:31:57Z</time>
			<fix>3d</fix>
		</trkpt>
		<trkpt lat="35.167351" lon="-106.432669">
			<ele>2336.50</ele>
			<time>2015-03-08T18:31:58Z</time>
			<fix>3d</fix>
		</trkpt>
		<trkpt lat="35.167368" lon="-106.432688">
			<ele>2336.34</ele>
			<time>2015-03-08T18:31:59Z</time>
			<fix>3d</fix>
		</trkpt>
		<trkpt lat="35.167373" lon="-106.432696">
			<ele>2336.25</ele>
			<time>2015-03-08T18:32:06Z</time>
			<fix>3d</fix>
		</trkpt>
		<trkpt lat="35.167374" lon="-106.432698">
			<ele>2336.15</ele>
			<time>2015-03-08T18:32:09Z</time>
			<fix>3d</fix>
		</trkpt>
		<trkpt lat="35.167379" lon="-106.432718">
			<ele>2336.15</ele>
			<time>2015-03-08T18:32:10Z</time>
			<fix>3d</fix>
		</trkpt>
		<trkpt lat="35.167384" lon="-106.432723">
			<ele>2336.16</ele>
			<time>2015-03-08T18:32:14Z</time>
			<fix>3d</fix>
		</trkpt>
		<trkpt lat="35.167400" lon="-106.432758">
			<ele>2335.86</ele>
			<time>2015-03-08T18:32:19Z</time>
			<fix>3d</fix>
		</trkpt>
		<trkpt lat="35.167399" lon="-106.432773">
			<ele>2335.44</ele>
			<time>2015-03-08T18:32:24Z</time>
			<fix>3d</fix>
		</trkpt>
		<trkpt lat="35.167400" lon="-106.432783">
			<ele>2335.14</ele>
			<time>2015-03-08T18:32:29Z</time>
			<fix>3d</fix>
		</trkpt>
		<trkpt lat="35.167406" lon="-106.432812">
			<ele>2334.83</ele>
			<time>2015-03-08T18:32:38Z</time>
			<fix>3d</fix>
		</trkpt>
		<trkpt lat="35.167407" lon="-106.432817">
			<ele>2334.52</ele>
			<time>2015-03-08T18:32:44Z</time>
			<fix>3d</fix>
		</trkpt>
		<trkpt lat="35.167405" lon="-106.432824">
			<ele>2334.53</ele>
			<time>2015-03-08T18:32:47Z</time>
			<fix>3d</fix>
		</trkpt>
		<trkpt lat="35.167403" lon="-106.432828">
			<ele>2334.63</ele>
			<time>2015-03-08T18:32:50Z</time>
			<fix>3d</fix>
		</trkpt>
		<trkpt lat="35.167404" lon="-106.432854">
			<ele>2334.63</ele>
			<time>2015-03-08T18:32:51Z</time>
			<fix>3d</fix>
		</trkpt>
		<trkpt lat="35.167405" lon="-106.432855">
			<ele>2334.85</ele>
			<time>2015-03-08T18:32:57Z</time>
			<fix>3d</fix>
		</trkpt>
		<trkpt lat="35.167418" lon="-106.432889">
			<ele>2334.85</ele>
			<time>2015-03-08T18:32:58Z</time>
			<fix>3d</fix>
		</trkpt>
		<trkpt lat="35.167414" lon="-106.432892">
			<ele>2334.84</ele>
			<time>2015-03-08T18:33:07Z</time>
			<fix>3d</fix>
		</trkpt>
		<trkpt lat="35.167416" lon="-106.432919">
			<ele>2334.84</ele>
			<time>2015-03-08T18:33:08Z</time>
			<fix>3d</fix>
		</trkpt>
		<trkpt lat="35.167420" lon="-106.432920">
			<ele>2334.74</ele>
			<time>2015-03-08T18:33:14Z</time>
			<fix>3d</fix>
		</trkpt>
		<trkpt lat="35.167428" lon="-106.432937">
			<ele>2334.75</ele>
			<time>2015-03-08T18:33:15Z</time>
			<fix>3d</fix>
		</trkpt>
		<trkpt lat="35.167438" lon="-106.432952">
			<ele>2334.55</ele>
			<time>2015-03-08T18:33:24Z</time>
			<fix>3d</fix>
		</trkpt>
		<trkpt lat="35.167440" lon="-106.432958">
			<ele>2334.56</ele>
			<time>2015-03-08T18:33:27Z</time>
			<fix>3d</fix>
		</trkpt>
		<trkpt lat="35.167445" lon="-106.432974">
			<ele>2334.56</ele>
			<time>2015-03-08T18:33:28Z</time>
			<fix>3d</fix>
		</trkpt>
		<trkpt lat="35.167459" lon="-106.433020">
			<ele>2334.56</ele>
			<time>2015-03-08T18:33:29Z</time>
			<fix>3d</fix>
		</trkpt>
		<trkpt lat="35.167462" lon="-106.433029">
			<ele>2334.47</ele>
			<time>2015-03-08T18:33:33Z</time>
			<fix>3d</fix>
		</trkpt>
		<trkpt lat="35.167466" lon="-106.433038">
			<ele>2334.37</ele>
			<time>2015-03-08T18:33:36Z</time>
			<fix>3d</fix>
		</trkpt>
		<trkpt lat="35.167469" lon="-106.433047">
			<ele>2334.37</ele>
			<time>2015-03-08T18:33:38Z</time>
			<fix>3d</fix>
		</trkpt>
		<trkpt lat="35.167473" lon="-106.433059">
			<ele>2334.38</ele>
			<time>2015-03-08T18:33:39Z</time>
			<fix>3d</fix>
		</trkpt>
		<trkpt lat="35.167474" lon="-106.433060">
			<ele>2334.38</ele>
			<time>2015-03-08T18:33:40Z</time>
			<fix>3d</fix>
		</trkpt>
		<trkpt lat="35.167479" lon="-106.433073">
			<ele>2334.27</ele>
			<time>2015-03-08T18:33:41Z</time>
			<fix>3d</fix>
		</trkpt>
		<trkpt lat="35.167483" lon="-106.433084">
			<ele>2334.28</ele>
			<time>2015-03-08T18:33:42Z</time>
			<fix>3d</fix>
		</trkpt>
		<trkpt lat="35.167486" lon="-106.433090">
			<ele>2334.18</ele>
			<time>2015-03-08T18:33:46Z</time>
			<fix>3d</fix>
		</trkpt>
		<trkpt lat="35.167505" lon="-106.433147">
			<ele>2334.08</ele>
			<time>2015-03-08T18:33:47Z</time>
			<fix>3d</fix>
		</trkpt>
		<trkpt lat="35.167509" lon="-106.433154">
			<ele>2333.67</ele>
			<time>2015-03-08T18:33:52Z</time>
			<fix>3d</fix>
		</trkpt>
		<trkpt lat="35.167513" lon="-106.433163">
			<ele>2333.35</ele>
			<time>2015-03-08T18:33:53Z</time>
			<fix>3d</fix>
		</trkpt>
		<trkpt lat="35.167517" lon="-106.433172">
			<ele>2332.94</ele>
			<time>2015-03-08T18:33:54Z</time>
			<fix>3d</fix>
		</trkpt>
		<trkpt lat="35.167521" lon="-106.433181">
			<ele>2332.94</ele>
			<time>2015-03-08T18:33:55Z</time>
			<fix>3d</fix>
		</trkpt>
		<trkpt lat="35.167524" lon="-106.433190">
			<ele>2332.94</ele>
			<time>2015-03-08T18:33:56Z</time>
			<fix>3d</fix>
		</trkpt>
		<trkpt lat="35.167527" lon="-106.433200">
			<ele>2332.84</ele>
			<time>2015-03-08T18:33:58Z</time>
			<fix>3d</fix>
		</trkpt>
		<trkpt lat="35.167530" lon="-106.433212">
			<ele>2332.66</ele>
			<time>2015-03-08T18:33:59Z</time>
			<fix>3d</fix>
		</trkpt>
		<trkpt lat="35.167538" lon="-106.433239">
			<ele>2332.66</ele>
			<time>2015-03-08T18:34:02Z</time>
			<fix>3d</fix>
		</trkpt>
		<trkpt lat="35.167547" lon="-106.433273">
			<ele>2332.67</ele>
			<time>2015-03-08T18:34:03Z</time>
			<fix>3d</fix>
		</trkpt>
		<trkpt lat="35.167549" lon="-106.433280">
			<ele>2332.57</ele>
			<time>2015-03-08T18:34:06Z</time>
			<fix>3d</fix>
		</trkpt>
		<trkpt lat="35.167553" lon="-106.433284">
			<ele>2332.57</ele>
			<time>2015-03-08T18:34:07Z</time>
			<fix>3d</fix>
		</trkpt>
		<trkpt lat="35.167559" lon="-106.433291">
			<ele>2332.57</ele>
			<time>2015-03-08T18:34:09Z</time>
			<fix>3d</fix>
		</trkpt>
		<trkpt lat="35.167564" lon="-106.433296">
			<ele>2332.47</ele>
			<time>2015-03-08T18:34:11Z</time>
			<fix>3d</fix>
		</trkpt>
		<trkpt lat="35.167570" lon="-106.433302">
			<ele>2332.47</ele>
			<time>2015-03-08T18:34:14Z</time>
			<fix>3d</fix>
		</trkpt>
		<trkpt lat="35.167574" lon="-106.433306">
			<ele>2332.47</ele>
			<time>2015-03-08T18:34:18Z</time>
			<fix>3d</fix>
		</trkpt>
		<trkpt lat="35.167591" lon="-106.433327">
			<ele>2331.95</ele>
			<time>2015-03-08T18:34:25Z</time>
			<fix>3d</fix>
		</trkpt>
		<trkpt lat="35.167601" lon="-106.433356">
			<ele>2331.84</ele>
			<time>2015-03-08T18:34:26Z</time>
			<fix>3d</fix>
		</trkpt>
		<trkpt lat="35.167603" lon="-106.433358">
			<ele>2331.42</ele>
			<time>2015-03-08T18:34:37Z</time>
			<fix>3d</fix>
		</trkpt>
		<trkpt lat="35.167606" lon="-106.433366">
			<ele>2331.32</ele>
			<time>2015-03-08T18:34:40Z</time>
			<fix>3d</fix>
		</trkpt>
		<trkpt lat="35.167608" lon="-106.433374">
			<ele>2330.80</ele>
			<time>2015-03-08T18:34:44Z</time>
			<fix>3d</fix>
		</trkpt>
		<trkpt lat="35.167611" lon="-106.433382">
			<ele>2330.69</ele>
			<time>2015-03-08T18:34:45Z</time>
			<fix>3d</fix>
		</trkpt>
		<trkpt lat="35.167618" lon="-106.433401">
			<ele>2330.69</ele>
			<time>2015-03-08T18:34:46Z</time>
			<fix>3d</fix>
		</trkpt>
		<trkpt lat="35.167621" lon="-106.433407">
			<ele>2330.48</ele>
			<time>2015-03-08T18:34:47Z</time>
			<fix>3d</fix>
		</trkpt>
		<trkpt lat="35.167624" lon="-106.433414">
			<ele>2330.06</ele>
			<time>2015-03-08T18:34:48Z</time>
			<fix>3d</fix>
		</trkpt>
		<trkpt lat="35.167626" lon="-106.433422">
			<ele>2329.86</ele>
			<time>2015-03-08T18:34:49Z</time>
			<fix>3d</fix>
		</trkpt>
		<trkpt lat="35.167628" lon="-106.433431">
			<ele>2329.54</ele>
			<time>2015-03-08T18:34:50Z</time>
			<fix>3d</fix>
		</trkpt>
		<trkpt lat="35.167631" lon="-106.433439">
			<ele>2329.44</ele>
			<time>2015-03-08T18:34:51Z</time>
			<fix>3d</fix>
		</trkpt>
		<trkpt lat="35.167634" lon="-106.433447">
			<ele>2329.13</ele>
			<time>2015-03-08T18:34:52Z</time>
			<fix>3d</fix>
		</trkpt>
		<trkpt lat="35.167637" lon="-106.433455">
			<ele>2328.81</ele>
			<time>2015-03-08T18:34:53Z</time>
			<fix>3d</fix>
		</trkpt>
		<trkpt lat="35.167640" lon="-106.433464">
			<ele>2328.81</ele>
			<time>2015-03-08T18:34:54Z</time>
			<fix>3d</fix>
		</trkpt>
		<trkpt lat="35.167644" lon="-106.433473">
			<ele>2328.71</ele>
			<time>2015-03-08T18:34:55Z</time>
			<fix>3d</fix>
		</trkpt>
		<trkpt lat="35.167651" lon="-106.433494">
			<ele>2328.61</ele>
			<time>2015-03-08T18:34:56Z</time>
			<fix>3d</fix>
		</trkpt>
		<trkpt lat="35.167652" lon="-106.433501">
			<ele>2328.61</ele>
			<time>2015-03-08T18:34:57Z</time>
			<fix>3d</fix>
		</trkpt>
		<trkpt lat="35.167655" lon="-106.433508">
			<ele>2328.29</ele>
			<time>2015-03-08T18:34:58Z</time>
			<fix>3d</fix>
		</trkpt>
		<trkpt lat="35.167660" lon="-106.433529">
			<ele>2328.24</ele>
			<time>2015-03-08T18:34:59Z</time>
			<fix>3d</fix>
		</trkpt>
		<trkpt lat="35.167662" lon="-106.433534">
			<ele>2328.14</ele>
			<time>2015-03-08T18:35:00Z</time>
			<fix>3d</fix>
		</trkpt>
		<trkpt lat="35.167664" lon="-106.433541">
			<ele>2328.03</ele>
			<time>2015-03-08T18:35:01Z</time>
			<fix>3d</fix>
		</trkpt>
		<trkpt lat="35.167666" lon="-106.433548">
			<ele>2327.93</ele>
			<time>2015-03-08T18:35:02Z</time>
			<fix>3d</fix>
		</trkpt>
		<trkpt lat="35.167669" lon="-106.433555">
			<ele>2327.72</ele>
			<time>2015-03-08T18:35:03Z</time>
			<fix>3d</fix>
		</trkpt>
		<trkpt lat="35.167673" lon="-106.433563">
			<ele>2327.09</ele>
			<time>2015-03-08T18:35:04Z</time>
			<fix>3d</fix>
		</trkpt>
		<trkpt lat="35.167683" lon="-106.433582">
			<ele>2326.99</ele>
			<time>2015-03-08T18:35:05Z</time>
			<fix>3d</fix>
		</trkpt>
		<trkpt lat="35.167686" lon="-106.433587">
			<ele>2326.89</ele>
			<time>2015-03-08T18:35:06Z</time>
			<fix>3d</fix>
		</trkpt>
		<trkpt lat="35.167690" lon="-106.433593">
			<ele>2326.89</ele>
			<time>2015-03-08T18:35:08Z</time>
			<fix>3d</fix>
		</trkpt>
		<trkpt lat="35.167696" lon="-106.433603">
			<ele>2326.89</ele>
			<time>2015-03-08T18:35:09Z</time>
			<fix>3d</fix>
		</trkpt>
		<trkpt lat="35.167701" lon="-106.433609">
			<ele>2326.58</ele>
			<time>2015-03-08T18:35:13Z</time>
			<fix>3d</fix>
		</trkpt>
		<trkpt lat="35.167708" lon="-106.433625">
			<ele>2326.48</ele>
			<time>2015-03-08T18:35:14Z</time>
			<fix>3d</fix>
		</trkpt>
		<trkpt lat="35.167716" lon="-106.433639">
			<ele>2326.37</ele>
			<time>2015-03-08T18:35:15Z</time>
			<fix>3d</fix>
		</trkpt>
		<trkpt lat="35.167722" lon="-106.433652">
			<ele>2326.27</ele>
			<time>2015-03-08T18:35:16Z</time>
			<fix>3d</fix>
		</trkpt>
		<trkpt lat="35.167724" lon="-106.433654">
			<ele>2325.33</ele>
			<time>2015-03-08T18:35:18Z</time>
			<fix>3d</fix>
		</trkpt>
		<trkpt lat="35.167731" lon="-106.433669">
			<ele>2325.23</ele>
			<time>2015-03-08T18:35:19Z</time>
			<fix>3d</fix>
		</trkpt>
		<trkpt lat="35.167737" lon="-106.433682">
			<ele>2325.12</ele>
			<time>2015-03-08T18:35:20Z</time>
			<fix>3d</fix>
		</trkpt>
		<trkpt lat="35.167743" lon="-106.433694">
			<ele>2324.91</ele>
			<time>2015-03-08T18:35:21Z</time>
			<fix>3d</fix>
		</trkpt>
		<trkpt lat="35.167744" lon="-106.433695">
			<ele>2324.91</ele>
			<time>2015-03-08T18:35:22Z</time>
			<fix>3d</fix>
		</trkpt>
		<trkpt lat="35.167749" lon="-106.433708">
			<ele>2324.81</ele>
			<time>2015-03-08T18:35:23Z</time>
			<fix>3d</fix>
		</trkpt>
		<trkpt lat="35.167754" lon="-106.433720">
			<ele>2324.81</ele>
			<time>2015-03-08T18:35:24Z</time>
			<fix>3d</fix>
		</trkpt>
		<trkpt lat="35.167758" lon="-106.433731">
			<ele>2324.81</ele>
			<time>2015-03-08T18:35:25Z</time>
			<fix>3d</fix>
		</trkpt>
		<trkpt lat="35.167762" lon="-106.433741">
			<ele>2324.71</ele>
			<time>2015-03-08T18:35:26Z</time>
			<fix>3d</fix>
		</trkpt>
		<trkpt lat="35.167763" lon="-106.433742">
			<ele>2324.29</ele>
			<time>2015-03-08T18:35:28Z</time>
			<fix>3d</fix>
		</trkpt>
		<trkpt lat="35.167777" lon="-106.433783">
			<ele>2324.18</ele>
			<time>2015-03-08T18:35:29Z</time>
			<fix>3d</fix>
		</trkpt>
		<trkpt lat="35.167783" lon="-106.433790">
			<ele>2323.97</ele>
			<time>2015-03-08T18:35:35Z</time>
			<fix>3d</fix>
		</trkpt>
		<trkpt lat="35.167789" lon="-106.433798">
			<ele>2323.65</ele>
			<time>2015-03-08T18:35:44Z</time>
			<fix>3d</fix>
		</trkpt>
		<trkpt lat="35.167793" lon="-106.433807">
			<ele>2323.53</ele>
			<time>2015-03-08T18:35:56Z</time>
			<fix>3d</fix>
		</trkpt>
		<trkpt lat="35.167793" lon="-106.433809">
			<ele>2323.45</ele>
			<time>2015-03-08T18:36:00Z</time>
			<fix>3d</fix>
		</trkpt>
		<trkpt lat="35.167794" lon="-106.433818">
			<ele>2323.34</ele>
			<time>2015-03-08T18:36:01Z</time>
			<fix>3d</fix>
		</trkpt>
		<trkpt lat="35.167796" lon="-106.433827">
			<ele>2323.34</ele>
			<time>2015-03-08T18:36:02Z</time>
			<fix>3d</fix>
		</trkpt>
		<trkpt lat="35.167799" lon="-106.433835">
			<ele>2323.34</ele>
			<time>2015-03-08T18:36:03Z</time>
			<fix>3d</fix>
		</trkpt>
		<trkpt lat="35.167806" lon="-106.433854">
			<ele>2323.24</ele>
			<time>2015-03-08T18:36:04Z</time>
			<fix>3d</fix>
		</trkpt>
		<trkpt lat="35.167810" lon="-106.433867">
			<ele>2322.92</ele>
			<time>2015-03-08T18:36:05Z</time>
			<fix>3d</fix>
		</trkpt>
		<trkpt lat="35.167810" lon="-106.433871">
			<ele>2322.50</ele>
			<time>2015-03-08T18:36:07Z</time>
			<fix>3d</fix>
		</trkpt>
		<trkpt lat="35.167811" lon="-106.433878">
			<ele>2322.50</ele>
			<time>2015-03-08T18:36:08Z</time>
			<fix>3d</fix>
		</trkpt>
		<trkpt lat="35.167812" lon="-106.433886">
			<ele>2322.39</ele>
			<time>2015-03-08T18:36:09Z</time>
			<fix>3d</fix>
		</trkpt>
		<trkpt lat="35.167814" lon="-106.433896">
			<ele>2321.34</ele>
			<time>2015-03-08T18:36:13Z</time>
			<fix>3d</fix>
		</trkpt>
		<trkpt lat="35.167825" lon="-106.433934">
			<ele>2321.13</ele>
			<time>2015-03-08T18:36:14Z</time>
			<fix>3d</fix>
		</trkpt>
		<trkpt lat="35.167826" lon="-106.433940">
			<ele>2320.71</ele>
			<time>2015-03-08T18:36:19Z</time>
			<fix>3d</fix>
		</trkpt>
		<trkpt lat="35.167829" lon="-106.433948">
			<ele>2320.29</ele>
			<time>2015-03-08T18:36:20Z</time>
			<fix>3d</fix>
		</trkpt>
		<trkpt lat="35.167832" lon="-106.433956">
			<ele>2320.08</ele>
			<time>2015-03-08T18:36:22Z</time>
			<fix>3d</fix>
		</trkpt>
		<trkpt lat="35.167835" lon="-106.433966">
			<ele>2319.66</ele>
			<time>2015-03-08T18:36:23Z</time>
			<fix>3d</fix>
		</trkpt>
		<trkpt lat="35.167839" lon="-106.433976">
			<ele>2318.93</ele>
			<time>2015-03-08T18:36:24Z</time>
			<fix>3d</fix>
		</trkpt>
		<trkpt lat="35.167842" lon="-106.433985">
			<ele>2319.04</ele>
			<time>2015-03-08T18:36:25Z</time>
			<fix>3d</fix>
		</trkpt>
		<trkpt lat="35.167855" lon="-106.434018">
			<ele>2318.93</ele>
			<time>2015-03-08T18:36:30Z</time>
			<fix>3d</fix>
		</trkpt>
		<trkpt lat="35.167869" lon="-106.434055">
			<ele>2318.82</ele>
			<time>2015-03-08T18:36:31Z</time>
			<fix>3d</fix>
		</trkpt>
		<trkpt lat="35.167871" lon="-106.434065">
			<ele>2318.50</ele>
			<time>2015-03-08T18:36:36Z</time>
			<fix>3d</fix>
		</trkpt>
		<trkpt lat="35.167876" lon="-106.434073">
			<ele>2318.38</ele>
			<time>2015-03-08T18:36:42Z</time>
			<fix>3d</fix>
		</trkpt>
		<trkpt lat="35.167881" lon="-106.434082">
			<ele>2318.35</ele>
			<time>2015-03-08T18:36:54Z</time>
			<fix>3d</fix>
		</trkpt>
		<trkpt lat="35.167884" lon="-106.434087">
			<ele>2318.34</ele>
			<time>2015-03-08T18:37:02Z</time>
			<fix>3d</fix>
		</trkpt>
		<trkpt lat="35.167891" lon="-106.434097">
			<ele>2318.03</ele>
			<time>2015-03-08T18:37:30Z</time>
			<fix>3d</fix>
		</trkpt>
		<trkpt lat="35.167898" lon="-106.434101">
			<ele>2317.41</ele>
			<time>2015-03-08T18:37:35Z</time>
			<fix>3d</fix>
		</trkpt>
		<trkpt lat="35.167901" lon="-106.434110">
			<ele>2317.31</ele>
			<time>2015-03-08T18:37:36Z</time>
			<fix>3d</fix>
		</trkpt>
		<trkpt lat="35.167905" lon="-106.434120">
			<ele>2317.20</ele>
			<time>2015-03-08T18:37:37Z</time>
			<fix>3d</fix>
		</trkpt>
		<trkpt lat="35.167907" lon="-106.434127">
			<ele>2316.99</ele>
			<time>2015-03-08T18:37:38Z</time>
			<fix>3d</fix>
		</trkpt>
		<trkpt lat="35.167905" lon="-106.434134">
			<ele>2316.66</ele>
			<time>2015-03-08T18:37:44Z</time>
			<fix>3d</fix>
		</trkpt>
		<trkpt lat="35.167910" lon="-106.434162">
			<ele>2316.55</ele>
			<time>2015-03-08T18:37:45Z</time>
			<fix>3d</fix>
		</trkpt>
		<trkpt lat="35.167914" lon="-106.434170">
			<ele>2315.50</ele>
			<time>2015-03-08T18:37:47Z</time>
			<fix>3d</fix>
		</trkpt>
		<trkpt lat="35.167917" lon="-106.434179">
			<ele>2315.08</ele>
			<time>2015-03-08T18:37:48Z</time>
			<fix>3d</fix>
		</trkpt>
		<trkpt lat="35.167928" lon="-106.434201">
			<ele>2314.14</ele>
			<time>2015-03-08T18:37:49Z</time>
			<fix>3d</fix>
		</trkpt>
		<trkpt lat="35.167927" lon="-106.434201">
			<ele>2314.12</ele>
			<time>2015-03-08T18:37:53Z</time>
			<fix>3d</fix>
		</trkpt>
		<trkpt lat="35.167920" lon="-106.434231">
			<ele>2314.11</ele>
			<time>2015-03-08T18:37:54Z</time>
			<fix>3d</fix>
		</trkpt>
		<trkpt lat="35.167917" lon="-106.434232">
			<ele>2314.11</ele>
			<time>2015-03-08T18:37:55Z</time>
			<fix>3d</fix>
		</trkpt>
		<trkpt lat="35.167904" lon="-106.434245">
			<ele>2314.10</ele>
			<time>2015-03-08T18:37:56Z</time>
			<fix>3d</fix>
		</trkpt>
		<trkpt lat="35.167899" lon="-106.434248">
			<ele>2314.09</ele>
			<time>2015-03-08T18:37:58Z</time>
			<fix>3d</fix>
		</trkpt>
		<trkpt lat="35.167891" lon="-106.434256">
			<ele>2313.98</ele>
			<time>2015-03-08T18:37:59Z</time>
			<fix>3d</fix>
		</trkpt>
		<trkpt lat="35.167886" lon="-106.434257">
			<ele>2313.86</ele>
			<time>2015-03-08T18:38:01Z</time>
			<fix>3d</fix>
		</trkpt>
		<trkpt lat="35.167878" lon="-106.434281">
			<ele>2313.65</ele>
			<time>2015-03-08T18:38:02Z</time>
			<fix>3d</fix>
		</trkpt>
		<trkpt lat="35.167876" lon="-106.434284">
			<ele>2312.49</ele>
			<time>2015-03-08T18:38:05Z</time>
			<fix>3d</fix>
		</trkpt>
		<trkpt lat="35.167874" lon="-106.434293">
			<ele>2312.17</ele>
			<time>2015-03-08T18:38:06Z</time>
			<fix>3d</fix>
		</trkpt>
		<trkpt lat="35.167872" lon="-106.434302">
			<ele>2312.17</ele>
			<time>2015-03-08T18:38:07Z</time>
			<fix>3d</fix>
		</trkpt>
		<trkpt lat="35.167855" lon="-106.434327">
			<ele>2312.17</ele>
			<time>2015-03-08T18:38:08Z</time>
			<fix>3d</fix>
		</trkpt>
		<trkpt lat="35.167840" lon="-106.434333">
			<ele>2312.16</ele>
			<time>2015-03-08T18:38:09Z</time>
			<fix>3d</fix>
		</trkpt>
		<trkpt lat="35.167832" lon="-106.434334">
			<ele>2312.06</ele>
			<time>2015-03-08T18:38:10Z</time>
			<fix>3d</fix>
		</trkpt>
		<trkpt lat="35.167824" lon="-106.434339">
			<ele>2312.05</ele>
			<time>2015-03-08T18:38:11Z</time>
			<fix>3d</fix>
		</trkpt>
		<trkpt lat="35.167817" lon="-106.434342">
			<ele>2310.48</ele>
			<time>2015-03-08T18:38:14Z</time>
			<fix>3d</fix>
		</trkpt>
		<trkpt lat="35.167810" lon="-106.434356">
			<ele>2310.27</ele>
			<time>2015-03-08T18:38:15Z</time>
			<fix>3d</fix>
		</trkpt>
		<trkpt lat="35.167806" lon="-106.434358">
			<ele>2310.27</ele>
			<time>2015-03-08T18:38:17Z</time>
			<fix>3d</fix>
		</trkpt>
		<trkpt lat="35.167800" lon="-106.434376">
			<ele>2310.17</ele>
			<time>2015-03-08T18:38:18Z</time>
			<fix>3d</fix>
		</trkpt>
		<trkpt lat="35.167799" lon="-106.434376">
			<ele>2310.06</ele>
			<time>2015-03-08T18:38:19Z</time>
			<fix>3d</fix>
		</trkpt>
		<trkpt lat="35.167795" lon="-106.434397">
			<ele>2309.85</ele>
			<time>2015-03-08T18:38:20Z</time>
			<fix>3d</fix>
		</trkpt>
		<trkpt lat="35.167790" lon="-106.434411">
			<ele>2309.75</ele>
			<time>2015-03-08T18:38:21Z</time>
			<fix>3d</fix>
		</trkpt>
		<trkpt lat="35.167785" lon="-106.434420">
			<ele>2309.54</ele>
			<time>2015-03-08T18:38:25Z</time>
			<fix>3d</fix>
		</trkpt>
		<trkpt lat="35.167792" lon="-106.434454">
			<ele>2309.45</ele>
			<time>2015-03-08T18:38:26Z</time>
			<fix>3d</fix>
		</trkpt>
		<trkpt lat="35.167795" lon="-106.434458">
			<ele>2309.35</ele>
			<time>2015-03-08T18:38:29Z</time>
			<fix>3d</fix>
		</trkpt>
		<trkpt lat="35.167788" lon="-106.434474">
			<ele>2309.14</ele>
			<time>2015-03-08T18:38:30Z</time>
			<fix>3d</fix>
		</trkpt>
		<trkpt lat="35.167779" lon="-106.434475">
			<ele>2308.72</ele>
			<time>2015-03-08T18:38:31Z</time>
			<fix>3d</fix>
		</trkpt>
		<trkpt lat="35.167774" lon="-106.434477">
			<ele>2307.47</ele>
			<time>2015-03-08T18:38:32Z</time>
			<fix>3d</fix>
		</trkpt>
		<trkpt lat="35.167759" lon="-106.434483">
			<ele>2307.57</ele>
			<time>2015-03-08T18:38:33Z</time>
			<fix>3d</fix>
		</trkpt>
		<trkpt lat="35.167751" lon="-106.434485">
			<ele>2307.47</ele>
			<time>2015-03-08T18:38:35Z</time>
			<fix>3d</fix>
		</trkpt>
		<trkpt lat="35.167735" lon="-106.434498">
			<ele>2307.37</ele>
			<time>2015-03-08T18:38:36Z</time>
			<fix>3d</fix>
		</trkpt>
		<trkpt lat="35.167731" lon="-106.434503">
			<ele>2307.27</ele>
			<time>2015-03-08T18:38:37Z</time>
			<fix>3d</fix>
		</trkpt>
		<trkpt lat="35.167727" lon="-106.434509">
			<ele>2306.75</ele>
			<time>2015-03-08T18:38:38Z</time>
			<fix>3d</fix>
		</trkpt>
		<trkpt lat="35.167723" lon="-106.434515">
			<ele>2306.12</ele>
			<time>2015-03-08T18:38:39Z</time>
			<fix>3d</fix>
		</trkpt>
		<trkpt lat="35.167710" lon="-106.434526">
			<ele>2306.02</ele>
			<time>2015-03-08T18:38:40Z</time>
			<fix>3d</fix>
		</trkpt>
		<trkpt lat="35.167706" lon="-106.434530">
			<ele>2305.71</ele>
			<time>2015-03-08T18:38:41Z</time>
			<fix>3d</fix>
		</trkpt>
		<trkpt lat="35.167700" lon="-106.434534">
			<ele>2305.51</ele>
			<time>2015-03-08T18:38:42Z</time>
			<fix>3d</fix>
		</trkpt>
		<trkpt lat="35.167693" lon="-106.434538">
			<ele>2305.10</ele>
			<time>2015-03-08T18:38:43Z</time>
			<fix>3d</fix>
		</trkpt>
		<trkpt lat="35.167678" lon="-106.434553">
			<ele>2305.00</ele>
			<time>2015-03-08T18:38:44Z</time>
			<fix>3d</fix>
		</trkpt>
		<trkpt lat="35.167666" lon="-106.434574">
			<ele>2304.90</ele>
			<time>2015-03-08T18:38:45Z</time>
			<fix>3d</fix>
		</trkpt>
		<trkpt lat="35.167658" lon="-106.434581">
			<ele>2304.91</ele>
			<time>2015-03-08T18:38:46Z</time>
			<fix>3d</fix>
		</trkpt>
		<trkpt lat="35.167655" lon="-106.434586">
			<ele>2304.81</ele>
			<time>2015-03-08T18:38:47Z</time>
			<fix>3d</fix>
		</trkpt>
		<trkpt lat="35.167651" lon="-106.434592">
			<ele>2304.19</ele>
			<time>2015-03-08T18:38:48Z</time>
			<fix>3d</fix>
		</trkpt>
		<trkpt lat="35.167642" lon="-106.434610">
			<ele>2303.16</ele>
			<time>2015-03-08T18:38:49Z</time>
			<fix>3d</fix>
		</trkpt>
		<trkpt lat="35.167635" lon="-106.434623">
			<ele>2303.17</ele>
			<time>2015-03-08T18:38:50Z</time>
			<fix>3d</fix>
		</trkpt>
		<trkpt lat="35.167619" lon="-106.434651">
			<ele>2302.28</ele>
			<time>2015-03-08T18:38:56Z</time>
			<fix>3d</fix>
		</trkpt>
		<trkpt lat="35.167617" lon="-106.434652">
			<ele>2302.08</ele>
			<time>2015-03-08T18:38:57Z</time>
			<fix>3d</fix>
		</trkpt>
		<trkpt lat="35.167610" lon="-106.434661">
			<ele>2302.09</ele>
			<time>2015-03-08T18:38:58Z</time>
			<fix>3d</fix>
		</trkpt>
		<trkpt lat="35.167588" lon="-106.434687">
			<ele>2301.99</ele>
			<time>2015-03-08T18:38:59Z</time>
			<fix>3d</fix>
		</trkpt>
		<trkpt lat="35.167581" lon="-106.434688">
			<ele>2301.79</ele>
			<time>2015-03-08T18:39:00Z</time>
			<fix>3d</fix>
		</trkpt>
		<trkpt lat="35.167571" lon="-106.434690">
			<ele>2301.60</ele>
			<time>2015-03-08T18:39:01Z</time>
			<fix>3d</fix>
		</trkpt>
		<trkpt lat="35.167561" lon="-106.434692">
			<ele>2301.50</ele>
			<time>2015-03-08T18:39:02Z</time>
			<fix>3d</fix>
		</trkpt>
		<trkpt lat="35.167557" lon="-106.434693">
			<ele>2301.30</ele>
			<time>2015-03-08T18:39:03Z</time>
			<fix>3d</fix>
		</trkpt>
		<trkpt lat="35.167544" lon="-106.434696">
			<ele>2301.31</ele>
			<time>2015-03-08T18:39:04Z</time>
			<fix>3d</fix>
		</trkpt>
		<trkpt lat="35.167532" lon="-106.434702">
			<ele>2301.22</ele>
			<time>2015-03-08T18:39:05Z</time>
			<fix>3d</fix>
		</trkpt>
		<trkpt lat="35.167496" lon="-106.434730">
			<ele>2299.83</ele>
			<time>2015-03-08T18:39:12Z</time>
			<fix>3d</fix>
		</trkpt>
		<trkpt lat="35.167484" lon="-106.434727">
			<ele>2299.84</ele>
			<time>2015-03-08T18:39:13Z</time>
			<fix>3d</fix>
		</trkpt>
		<trkpt lat="35.167482" lon="-106.434725">
			<ele>2299.65</ele>
			<time>2015-03-08T18:39:15Z</time>
			<fix>3d</fix>
		</trkpt>
		<trkpt lat="35.167460" lon="-106.434738">
			<ele>2298.94</ele>
			<time>2015-03-08T18:39:16Z</time>
			<fix>3d</fix>
		</trkpt>
		<trkpt lat="35.167456" lon="-106.434734">
			<ele>2298.76</ele>
			<time>2015-03-08T18:39:19Z</time>
			<fix>3d</fix>
		</trkpt>
		<trkpt lat="35.167446" lon="-106.434741">
			<ele>2298.67</ele>
			<time>2015-03-08T18:39:20Z</time>
			<fix>3d</fix>
		</trkpt>
		<trkpt lat="35.167438" lon="-106.434737">
			<ele>2298.39</ele>
			<time>2015-03-08T18:39:24Z</time>
			<fix>3d</fix>
		</trkpt>
		<trkpt lat="35.167420" lon="-106.434760">
			<ele>2298.20</ele>
			<time>2015-03-08T18:39:25Z</time>
			<fix>3d</fix>
		</trkpt>
		<trkpt lat="35.167415" lon="-106.434764">
			<ele>2298.11</ele>
			<time>2015-03-08T18:39:33Z</time>
			<fix>3d</fix>
		</trkpt>
		<trkpt lat="35.167392" lon="-106.434777">
			<ele>2298.11</ele>
			<time>2015-03-08T18:39:34Z</time>
			<fix>3d</fix>
		</trkpt>
		<trkpt lat="35.167387" lon="-106.434775">
			<ele>2298.13</ele>
			<time>2015-03-08T18:39:36Z</time>
			<fix>3d</fix>
		</trkpt>
		<trkpt lat="35.167370" lon="-106.434776">
			<ele>2298.03</ele>
			<time>2015-03-08T18:39:37Z</time>
			<fix>3d</fix>
		</trkpt>
		<trkpt lat="35.167365" lon="-106.434777">
			<ele>2298.04</ele>
			<time>2015-03-08T18:39:38Z</time>
			<fix>3d</fix>
		</trkpt>
		<trkpt lat="35.167357" lon="-106.434772">
			<ele>2297.85</ele>
			<time>2015-03-08T18:39:40Z</time>
			<fix>3d</fix>
		</trkpt>
		<trkpt lat="35.167356" lon="-106.434771">
			<ele>2297.65</ele>
			<time>2015-03-08T18:39:41Z</time>
			<fix>3d</fix>
		</trkpt>
		<trkpt lat="35.167348" lon="-106.434771">
			<ele>2296.72</ele>
			<time>2015-03-08T18:39:42Z</time>
			<fix>3d</fix>
		</trkpt>
		<trkpt lat="35.167339" lon="-106.434771">
			<ele>2296.52</ele>
			<time>2015-03-08T18:39:43Z</time>
			<fix>3d</fix>
		</trkpt>
		<trkpt lat="35.167333" lon="-106.434767">
			<ele>2296.54</ele>
			<time>2015-03-08T18:39:45Z</time>
			<fix>3d</fix>
		</trkpt>
		<trkpt lat="35.167323" lon="-106.434767">
			<ele>2296.44</ele>
			<time>2015-03-08T18:39:46Z</time>
			<fix>3d</fix>
		</trkpt>
		<trkpt lat="35.167315" lon="-106.434762">
			<ele>2296.34</ele>
			<time>2015-03-08T18:39:48Z</time>
			<fix>3d</fix>
		</trkpt>
		<trkpt lat="35.167282" lon="-106.434764">
			<ele>2296.13</ele>
			<time>2015-03-08T18:39:49Z</time>
			<fix>3d</fix>
		</trkpt>
		<trkpt lat="35.167273" lon="-106.434764">
			<ele>2295.83</ele>
			<time>2015-03-08T18:39:52Z</time>
			<fix>3d</fix>
		</trkpt>
		<trkpt lat="35.167270" lon="-106.434762">
			<ele>2295.73</ele>
			<time>2015-03-08T18:39:54Z</time>
			<fix>3d</fix>
		</trkpt>
		<trkpt lat="35.167263" lon="-106.434767">
			<ele>2295.73</ele>
			<time>2015-03-08T18:39:55Z</time>
			<fix>3d</fix>
		</trkpt>
		<trkpt lat="35.167255" lon="-106.434766">
			<ele>2295.73</ele>
			<time>2015-03-08T18:39:57Z</time>
			<fix>3d</fix>
		</trkpt>
		<trkpt lat="35.167251" lon="-106.434767">
			<ele>2295.63</ele>
			<time>2015-03-08T18:39:58Z</time>
			<fix>3d</fix>
		</trkpt>
		<trkpt lat="35.167174" lon="-106.434824">
			<ele>2295.64</ele>
			<time>2015-03-08T18:40:04Z</time>
			<fix>3d</fix>
		</trkpt>
		<trkpt lat="35.167170" lon="-106.434831">
			<ele>2295.54</ele>
			<time>2015-03-08T18:40:05Z</time>
			<fix>3d</fix>
		</trkpt>
		<trkpt lat="35.167164" lon="-106.434832">
			<ele>2295.67</ele>
			<time>2015-03-08T18:40:09Z</time>
			<fix>3d</fix>
		</trkpt>
		<trkpt lat="35.167161" lon="-106.434832">
			<ele>2295.67</ele>
			<time>2015-03-08T18:40:10Z</time>
			<fix>3d</fix>
		</trkpt>
		<trkpt lat="35.167131" lon="-106.434865">
			<ele>2295.70</ele>
			<time>2015-03-08T18:40:16Z</time>
			<fix>3d</fix>
		</trkpt>
		<trkpt lat="35.167117" lon="-106.434878">
			<ele>2295.71</ele>
			<time>2015-03-08T18:40:18Z</time>
			<fix>3d</fix>
		</trkpt>
		<trkpt lat="35.167111" lon="-106.434879">
			<ele>2295.72</ele>
			<time>2015-03-08T18:40:20Z</time>
			<fix>3d</fix>
		</trkpt>
		<trkpt lat="35.167090" lon="-106.434887">
			<ele>2295.73</ele>
			<time>2015-03-08T18:40:21Z</time>
			<fix>3d</fix>
		</trkpt>
		<trkpt lat="35.167083" lon="-106.434889">
			<ele>2295.73</ele>
			<time>2015-03-08T18:40:23Z</time>
			<fix>3d</fix>
		</trkpt>
		<trkpt lat="35.167075" lon="-106.434894">
			<ele>2296.01</ele>
			<time>2015-03-08T18:40:27Z</time>
			<fix>3d</fix>
		</trkpt>
		<trkpt lat="35.167069" lon="-106.434900">
			<ele>2296.13</ele>
			<time>2015-03-08T18:40:31Z</time>
			<fix>3d</fix>
		</trkpt>
		<trkpt lat="35.167062" lon="-106.434906">
			<ele>2296.36</ele>
			<time>2015-03-08T18:40:37Z</time>
			<fix>3d</fix>
		</trkpt>
		<trkpt lat="35.167054" lon="-106.434911">
			<ele>2296.28</ele>
			<time>2015-03-08T18:40:49Z</time>
			<fix>3d</fix>
		</trkpt>
		<trkpt lat="35.167048" lon="-106.434911">
			<ele>2296.42</ele>
			<time>2015-03-08T18:41:08Z</time>
			<fix>3d</fix>
		</trkpt>
		<trkpt lat="35.167038" lon="-106.434915">
			<ele>2296.42</ele>
			<time>2015-03-08T18:41:09Z</time>
			<fix>3d</fix>
		</trkpt>
		<trkpt lat="35.167027" lon="-106.434941">
			<ele>2295.52</ele>
			<time>2015-03-08T18:41:32Z</time>
			<fix>3d</fix>
		</trkpt>
		<trkpt lat="35.167027" lon="-106.434946">
			<ele>2295.41</ele>
			<time>2015-03-08T18:41:33Z</time>
			<fix>3d</fix>
		</trkpt>
		<trkpt lat="35.167025" lon="-106.434959">
			<ele>2295.21</ele>
			<time>2015-03-08T18:41:34Z</time>
			<fix>3d</fix>
		</trkpt>
		<trkpt lat="35.167022" lon="-106.434963">
			<ele>2295.11</ele>
			<time>2015-03-08T18:41:37Z</time>
			<fix>3d</fix>
		</trkpt>
		<trkpt lat="35.167029" lon="-106.434990">
			<ele>2294.59</ele>
			<time>2015-03-08T18:41:44Z</time>
			<fix>3d</fix>
		</trkpt>
		<trkpt lat="35.167031" lon="-106.434992">
			<ele>2294.29</ele>
			<time>2015-03-08T18:41:49Z</time>
			<fix>3d</fix>
		</trkpt>
		<trkpt lat="35.167035" lon="-106.435001">
			<ele>2293.98</ele>
			<time>2015-03-08T18:41:50Z</time>
			<fix>3d</fix>
		</trkpt>
		<trkpt lat="35.167037" lon="-106.435011">
			<ele>2293.36</ele>
			<time>2015-03-08T18:41:52Z</time>
			<fix>3d</fix>
		</trkpt>
		<trkpt lat="35.167045" lon="-106.435041">
			<ele>2293.36</ele>
			<time>2015-03-08T18:41:53Z</time>
			<fix>3d</fix>
		</trkpt>
		<trkpt lat="35.167054" lon="-106.435060">
			<ele>2293.36</ele>
			<time>2015-03-08T18:41:54Z</time>
			<fix>3d</fix>
		</trkpt>
		<trkpt lat="35.167055" lon="-106.435059">
			<ele>2293.36</ele>
			<time>2015-03-08T18:41:55Z</time>
			<fix>3d</fix>
		</trkpt>
		<trkpt lat="35.167061" lon="-106.435067">
			<ele>2293.36</ele>
			<time>2015-03-08T18:41:56Z</time>
			<fix>3d</fix>
		</trkpt>
		<trkpt lat="35.167069" lon="-106.435076">
			<ele>2293.36</ele>
			<time>2015-03-08T18:41:57Z</time>
			<fix>3d</fix>
		</trkpt>
		<trkpt lat="35.167071" lon="-106.435078">
			<ele>2293.36</ele>
			<time>2015-03-08T18:41:59Z</time>
			<fix>3d</fix>
		</trkpt>
		<trkpt lat="35.167097" lon="-106.435133">
			<ele>2293.36</ele>
			<time>2015-03-08T18:42:00Z</time>
			<fix>3d</fix>
		</trkpt>
		<trkpt lat="35.167100" lon="-106.435143">
			<ele>2293.16</ele>
			<time>2015-03-08T18:42:02Z</time>
			<fix>3d</fix>
		</trkpt>
		<trkpt lat="35.167101" lon="-106.435152">
			<ele>2293.06</ele>
			<time>2015-03-08T18:42:06Z</time>
			<fix>3d</fix>
		</trkpt>
		<trkpt lat="35.167102" lon="-106.435161">
			<ele>2292.95</ele>
			<time>2015-03-08T18:42:10Z</time>
			<fix>3d</fix>
		</trkpt>
		<trkpt lat="35.167103" lon="-106.435166">
			<ele>2293.06</ele>
			<time>2015-03-08T18:42:13Z</time>
			<fix>3d</fix>
		</trkpt>
		<trkpt lat="35.167117" lon="-106.435202">
			<ele>2292.95</ele>
			<time>2015-03-08T18:42:14Z</time>
			<fix>3d</fix>
		</trkpt>
		<trkpt lat="35.167124" lon="-106.435206">
			<ele>2292.74</ele>
			<time>2015-03-08T18:42:17Z</time>
			<fix>3d</fix>
		</trkpt>
		<trkpt lat="35.167128" lon="-106.435208">
			<ele>2292.43</ele>
			<time>2015-03-08T18:42:20Z</time>
			<fix>3d</fix>
		</trkpt>
		<trkpt lat="35.167135" lon="-106.435215">
			<ele>2292.43</ele>
			<time>2015-03-08T18:42:21Z</time>
			<fix>3d</fix>
		</trkpt>
		<trkpt lat="35.167143" lon="-106.435220">
			<ele>2292.12</ele>
			<time>2015-03-08T18:42:22Z</time>
			<fix>3d</fix>
		</trkpt>
		<trkpt lat="35.167151" lon="-106.435223">
			<ele>2292.02</ele>
			<time>2015-03-08T18:42:25Z</time>
			<fix>3d</fix>
		</trkpt>
		<trkpt lat="35.167153" lon="-106.435223">
			<ele>2292.19</ele>
			<time>2015-03-08T18:42:26Z</time>
			<fix>3d</fix>
		</trkpt>
		<trkpt lat="35.167184" lon="-106.435248">
			<ele>2292.19</ele>
			<time>2015-03-08T18:42:27Z</time>
			<fix>3d</fix>
		</trkpt>
		<trkpt lat="35.167189" lon="-106.435257">
			<ele>2292.09</ele>
			<time>2015-03-08T18:42:33Z</time>
			<fix>3d</fix>
		</trkpt>
		<trkpt lat="35.167195" lon="-106.435265">
			<ele>2291.57</ele>
			<time>2015-03-08T18:42:41Z</time>
			<fix>3d</fix>
		</trkpt>
		<trkpt lat="35.167199" lon="-106.435266">
			<ele>2291.27</ele>
			<time>2015-03-08T18:42:45Z</time>
			<fix>3d</fix>
		</trkpt>
		<trkpt lat="35.167208" lon="-106.435279">
			<ele>2291.27</ele>
			<time>2015-03-08T18:42:46Z</time>
			<fix>3d</fix>
		</trkpt>
		<trkpt lat="35.167211" lon="-106.435282">
			<ele>2291.06</ele>
			<time>2015-03-08T18:42:48Z</time>
			<fix>3d</fix>
		</trkpt>
		<trkpt lat="35.167238" lon="-106.435330">
			<ele>2290.03</ele>
			<time>2015-03-08T18:42:57Z</time>
			<fix>3d</fix>
		</trkpt>
		<trkpt lat="35.167241" lon="-106.435338">
			<ele>2290.03</ele>
			<time>2015-03-08T18:42:58Z</time>
			<fix>3d</fix>
		</trkpt>
		<trkpt lat="35.167244" lon="-106.435346">
			<ele>2289.93</ele>
			<time>2015-03-08T18:42:59Z</time>
			<fix>3d</fix>
		</trkpt>
		<trkpt lat="35.167256" lon="-106.435370">
			<ele>2289.83</ele>
			<time>2015-03-08T18:43:00Z</time>
			<fix>3d</fix>
		</trkpt>
		<trkpt lat="35.167256" lon="-106.435376">
			<ele>2288.90</ele>
			<time>2015-03-08T18:43:04Z</time>
			<fix>3d</fix>
		</trkpt>
		<trkpt lat="35.167254" lon="-106.435385">
			<ele>2288.80</ele>
			<time>2015-03-08T18:43:08Z</time>
			<fix>3d</fix>
		</trkpt>
		<trkpt lat="35.167252" lon="-106.435396">
			<ele>2288.49</ele>
			<time>2015-03-08T18:43:09Z</time>
			<fix>3d</fix>
		</trkpt>
		<trkpt lat="35.167250" lon="-106.435406">
			<ele>2288.28</ele>
			<time>2015-03-08T18:43:10Z</time>
			<fix>3d</fix>
		</trkpt>
		<trkpt lat="35.167248" lon="-106.435416">
			<ele>2288.18</ele>
			<time>2015-03-08T18:43:11Z</time>
			<fix>3d</fix>
		</trkpt>
		<trkpt lat="35.167241" lon="-106.435436">
			<ele>2288.18</ele>
			<time>2015-03-08T18:43:12Z</time>
			<fix>3d</fix>
		</trkpt>
		<trkpt lat="35.167235" lon="-106.435451">
			<ele>2288.18</ele>
			<time>2015-03-08T18:43:13Z</time>
			<fix>3d</fix>
		</trkpt>
		<trkpt lat="35.167232" lon="-106.435459">
			<ele>2285.60</ele>
			<time>2015-03-08T18:43:24Z</time>
			<fix>3d</fix>
		</trkpt>
		<trkpt lat="35.167236" lon="-106.435499">
			<ele>2285.60</ele>
			<time>2015-03-08T18:43:25Z</time>
			<fix>3d</fix>
		</trkpt>
		<trkpt lat="35.167236" lon="-106.435509">
			<ele>2285.75</ele>
			<time>2015-03-08T18:43:28Z</time>
			<fix>3d</fix>
		</trkpt>
		<trkpt lat="35.167231" lon="-106.435554">
			<ele>2285.75</ele>
			<time>2015-03-08T18:43:29Z</time>
			<fix>3d</fix>
		</trkpt>
		<trkpt lat="35.167232" lon="-106.435556">
			<ele>2285.24</ele>
			<time>2015-03-08T18:43:34Z</time>
			<fix>3d</fix>
		</trkpt>
		<trkpt lat="35.167239" lon="-106.435568">
			<ele>2285.24</ele>
			<time>2015-03-08T18:43:35Z</time>
			<fix>3d</fix>
		</trkpt>
		<trkpt lat="35.167247" lon="-106.435578">
			<ele>2285.03</ele>
			<time>2015-03-08T18:43:36Z</time>
			<fix>3d</fix>
		</trkpt>
		<trkpt lat="35.167283" lon="-106.435621">
			<ele>2284.62</ele>
			<time>2015-03-08T18:43:38Z</time>
			<fix>3d</fix>
		</trkpt>
		<trkpt lat="35.167289" lon="-106.435629">
			<ele>2284.52</ele>
			<time>2015-03-08T18:43:41Z</time>
			<fix>3d</fix>
		</trkpt>
		<trkpt lat="35.167294" lon="-106.435634">
			<ele>2284.42</ele>
			<time>2015-03-08T18:43:43Z</time>
			<fix>3d</fix>
		</trkpt>
		<trkpt lat="35.167299" lon="-106.435641">
			<ele>2284.42</ele>
			<time>2015-03-08T18:43:46Z</time>
			<fix>3d</fix>
		</trkpt>
		<trkpt lat="35.167305" lon="-106.435649">
			<ele>2284.32</ele>
			<time>2015-03-08T18:43:49Z</time>
			<fix>3d</fix>
		</trkpt>
		<trkpt lat="35.167311" lon="-106.435657">
			<ele>2284.33</ele>
			<time>2015-03-08T18:43:52Z</time>
			<fix>3d</fix>
		</trkpt>
		<trkpt lat="35.167316" lon="-106.435662">
			<ele>2284.33</ele>
			<time>2015-03-08T18:43:54Z</time>
			<fix>3d</fix>
		</trkpt>
		<trkpt lat="35.167322" lon="-106.435669">
			<ele>2284.23</ele>
			<time>2015-03-08T18:43:57Z</time>
			<fix>3d</fix>
		</trkpt>
		<trkpt lat="35.167327" lon="-106.435675">
			<ele>2284.23</ele>
			<time>2015-03-08T18:44:00Z</time>
			<fix>3d</fix>
		</trkpt>
		<trkpt lat="35.167333" lon="-106.435680">
			<ele>2284.23</ele>
			<time>2015-03-08T18:44:03Z</time>
			<fix>3d</fix>
		</trkpt>
		<trkpt lat="35.167340" lon="-106.435686">
			<ele>2284.24</ele>
			<time>2015-03-08T18:44:07Z</time>
			<fix>3d</fix>
		</trkpt>
		<trkpt lat="35.167343" lon="-106.435689">
			<ele>2284.24</ele>
			<time>2015-03-08T18:44:09Z</time>
			<fix>3d</fix>
		</trkpt>
		<trkpt lat="35.167449" lon="-106.435682">
			<ele>2283.71</ele>
			<time>2015-03-08T18:45:06Z</time>
			<fix>3d</fix>
		</trkpt>
		<trkpt lat="35.167514" lon="-106.435764">
			<ele>2281.99</ele>
			<time>2015-03-08T18:45:13Z</time>
			<fix>3d</fix>
		</trkpt>
		<trkpt lat="35.167518" lon="-106.435773">
			<ele>2281.68</ele>
			<time>2015-03-08T18:45:14Z</time>
			<fix>3d</fix>
		</trkpt>
		<trkpt lat="35.167523" lon="-106.435775">
			<ele>2281.57</ele>
			<time>2015-03-08T18:45:16Z</time>
			<fix>3d</fix>
		</trkpt>
		<trkpt lat="35.167533" lon="-106.435789">
			<ele>2281.56</ele>
			<time>2015-03-08T18:45:17Z</time>
			<fix>3d</fix>
		</trkpt>
		<trkpt lat="35.167539" lon="-106.435794">
			<ele>2281.24</ele>
			<time>2015-03-08T18:45:21Z</time>
			<fix>3d</fix>
		</trkpt>
		<trkpt lat="35.167559" lon="-106.435810">
			<ele>2281.28</ele>
			<time>2015-03-08T18:45:22Z</time>
			<fix>3d</fix>
		</trkpt>
		<trkpt lat="35.167564" lon="-106.435812">
			<ele>2280.97</ele>
			<time>2015-03-08T18:45:26Z</time>
			<fix>3d</fix>
		</trkpt>
		<trkpt lat="35.167569" lon="-106.435814">
			<ele>2280.97</ele>
			<time>2015-03-08T18:45:27Z</time>
			<fix>3d</fix>
		</trkpt>
		<trkpt lat="35.167574" lon="-106.435817">
			<ele>2280.76</ele>
			<time>2015-03-08T18:45:28Z</time>
			<fix>3d</fix>
		</trkpt>
		<trkpt lat="35.167580" lon="-106.435819">
			<ele>2280.03</ele>
			<time>2015-03-08T18:45:30Z</time>
			<fix>3d</fix>
		</trkpt>
		<trkpt lat="35.167588" lon="-106.435823">
			<ele>2279.93</ele>
			<time>2015-03-08T18:45:31Z</time>
			<fix>3d</fix>
		</trkpt>
		<trkpt lat="35.167592" lon="-106.435822">
			<ele>2279.93</ele>
			<time>2015-03-08T18:45:33Z</time>
			<fix>3d</fix>
		</trkpt>
		<trkpt lat="35.167619" lon="-106.435838">
			<ele>2279.93</ele>
			<time>2015-03-08T18:45:34Z</time>
			<fix>3d</fix>
		</trkpt>
		<trkpt lat="35.167635" lon="-106.435846">
			<ele>2279.92</ele>
			<time>2015-03-08T18:45:35Z</time>
			<fix>3d</fix>
		</trkpt>
		<trkpt lat="35.167642" lon="-106.435849">
			<ele>2279.92</ele>
			<time>2015-03-08T18:45:37Z</time>
			<fix>3d</fix>
		</trkpt>
		<trkpt lat="35.167649" lon="-106.435853">
			<ele>2279.82</ele>
			<time>2015-03-08T18:45:38Z</time>
			<fix>3d</fix>
		</trkpt>
		<trkpt lat="35.167657" lon="-106.435857">
			<ele>2279.71</ele>
			<time>2015-03-08T18:45:40Z</time>
			<fix>3d</fix>
		</trkpt>
		<trkpt lat="35.167664" lon="-106.435862">
			<ele>2279.30</ele>
			<time>2015-03-08T18:45:42Z</time>
			<fix>3d</fix>
		</trkpt>
		<trkpt lat="35.167672" lon="-106.435861">
			<ele>2278.89</ele>
			<time>2015-03-08T18:45:46Z</time>
			<fix>3d</fix>
		</trkpt>
		<trkpt lat="35.167680" lon="-106.435863">
			<ele>2278.47</ele>
			<time>2015-03-08T18:45:49Z</time>
			<fix>3d</fix>
		</trkpt>
		<trkpt lat="35.167688" lon="-106.435867">
			<ele>2278.16</ele>
			<time>2015-03-08T18:45:53Z</time>
			<fix>3d</fix>
		</trkpt>
		<trkpt lat="35.167695" lon="-106.435879">
			<ele>2278.16</ele>
			<time>2015-03-08T18:45:54Z</time>
			<fix>3d</fix>
		</trkpt>
		<trkpt lat="35.167696" lon="-106.435880">
			<ele>2278.06</ele>
			<time>2015-03-08T18:45:56Z</time>
			<fix>3d</fix>
		</trkpt>
		<trkpt lat="35.167700" lon="-106.435891">
			<ele>2278.06</ele>
			<time>2015-03-08T18:45:57Z</time>
			<fix>3d</fix>
		</trkpt>
		<trkpt lat="35.167704" lon="-106.435901">
			<ele>2277.96</ele>
			<time>2015-03-08T18:45:58Z</time>
			<fix>3d</fix>
		</trkpt>
		<trkpt lat="35.167708" lon="-106.435908">
			<ele>2277.75</ele>
			<time>2015-03-08T18:45:59Z</time>
			<fix>3d</fix>
		</trkpt>
		<trkpt lat="35.167711" lon="-106.435914">
			<ele>2277.65</ele>
			<time>2015-03-08T18:46:00Z</time>
			<fix>3d</fix>
		</trkpt>
		<trkpt lat="35.167714" lon="-106.435919">
			<ele>2277.65</ele>
			<time>2015-03-08T18:46:01Z</time>
			<fix>3d</fix>
		</trkpt>
		<trkpt lat="35.167717" lon="-106.435923">
			<ele>2277.65</ele>
			<time>2015-03-08T18:46:02Z</time>
			<fix>3d</fix>
		</trkpt>
		<trkpt lat="35.167720" lon="-106.435929">
			<ele>2277.55</ele>
			<time>2015-03-08T18:46:03Z</time>
			<fix>3d</fix>
		</trkpt>
		<trkpt lat="35.167724" lon="-106.435938">
			<ele>2276.83</ele>
			<time>2015-03-08T18:46:10Z</time>
			<fix>3d</fix>
		</trkpt>
		<trkpt lat="35.167725" lon="-106.435941">
			<ele>2276.73</ele>
			<time>2015-03-08T18:46:13Z</time>
			<fix>3d</fix>
		</trkpt>
		<trkpt lat="35.167737" lon="-106.435988">
			<ele>2276.31</ele>
			<time>2015-03-08T18:46:14Z</time>
			<fix>3d</fix>
		</trkpt>
		<trkpt lat="35.167743" lon="-106.435994">
			<ele>2276.11</ele>
			<time>2015-03-08T18:46:15Z</time>
			<fix>3d</fix>
		</trkpt>
		<trkpt lat="35.167739" lon="-106.436002">
			<ele>2274.89</ele>
			<time>2015-03-08T18:46:27Z</time>
			<fix>3d</fix>
		</trkpt>
		<trkpt lat="35.167739" lon="-106.436012">
			<ele>2273.84</ele>
			<time>2015-03-08T18:46:37Z</time>
			<fix>3d</fix>
		</trkpt>
		<trkpt lat="35.167749" lon="-106.436031">
			<ele>2273.73</ele>
			<time>2015-03-08T18:46:38Z</time>
			<fix>3d</fix>
		</trkpt>
		<trkpt lat="35.167748" lon="-106.436041">
			<ele>2273.42</ele>
			<time>2015-03-08T18:46:42Z</time>
			<fix>3d</fix>
		</trkpt>
		<trkpt lat="35.167743" lon="-106.436041">
			<ele>2272.28</ele>
			<time>2015-03-08T18:46:44Z</time>
			<fix>3d</fix>
		</trkpt>
		<trkpt lat="35.167737" lon="-106.436045">
			<ele>2272.28</ele>
			<time>2015-03-08T18:46:45Z</time>
			<fix>3d</fix>
		</trkpt>
		<trkpt lat="35.167731" lon="-106.436050">
			<ele>2272.18</ele>
			<time>2015-03-08T18:46:46Z</time>
			<fix>3d</fix>
		</trkpt>
		<trkpt lat="35.167725" lon="-106.436056">
			<ele>2272.07</ele>
			<time>2015-03-08T18:46:47Z</time>
			<fix>3d</fix>
		</trkpt>
		<trkpt lat="35.167721" lon="-106.436056">
			<ele>2271.66</ele>
			<time>2015-03-08T18:46:48Z</time>
			<fix>3d</fix>
		</trkpt>
		<trkpt lat="35.167713" lon="-106.436065">
			<ele>2271.56</ele>
			<time>2015-03-08T18:46:49Z</time>
			<fix>3d</fix>
		</trkpt>
		<trkpt lat="35.167709" lon="-106.436065">
			<ele>2271.46</ele>
			<time>2015-03-08T18:46:50Z</time>
			<fix>3d</fix>
		</trkpt>
		<trkpt lat="35.167677" lon="-106.436103">
			<ele>2271.46</ele>
			<time>2015-03-08T18:46:51Z</time>
			<fix>3d</fix>
		</trkpt>
		<trkpt lat="35.167673" lon="-106.436104">
			<ele>2271.35</ele>
			<time>2015-03-08T18:46:52Z</time>
			<fix>3d</fix>
		</trkpt>
		<trkpt lat="35.167658" lon="-106.436110">
			<ele>2271.35</ele>
			<time>2015-03-08T18:46:53Z</time>
			<fix>3d</fix>
		</trkpt>
		<trkpt lat="35.167652" lon="-106.436112">
			<ele>2271.04</ele>
			<time>2015-03-08T18:46:55Z</time>
			<fix>3d</fix>
		</trkpt>
		<trkpt lat="35.167642" lon="-106.436129">
			<ele>2271.04</ele>
			<time>2015-03-08T18:46:56Z</time>
			<fix>3d</fix>
		</trkpt>
		<trkpt lat="35.167643" lon="-106.436134">
			<ele>2271.04</ele>
			<time>2015-03-08T18:46:57Z</time>
			<fix>3d</fix>
		</trkpt>
		<trkpt lat="35.167643" lon="-106.436142">
			<ele>2270.73</ele>
			<time>2015-03-08T18:46:59Z</time>
			<fix>3d</fix>
		</trkpt>
		<trkpt lat="35.167637" lon="-106.436158">
			<ele>2270.32</ele>
			<time>2015-03-08T18:47:04Z</time>
			<fix>3d</fix>
		</trkpt>
		<trkpt lat="35.167633" lon="-106.436176">
			<ele>2270.01</ele>
			<time>2015-03-08T18:47:05Z</time>
			<fix>3d</fix>
		</trkpt>
		<trkpt lat="35.167625" lon="-106.436193">
			<ele>2270.01</ele>
			<time>2015-03-08T18:47:06Z</time>
			<fix>3d</fix>
		</trkpt>
		<trkpt lat="35.167623" lon="-106.436196">
			<ele>2269.91</ele>
			<time>2015-03-08T18:47:07Z</time>
			<fix>3d</fix>
		</trkpt>
		<trkpt lat="35.167620" lon="-106.436214">
			<ele>2269.81</ele>
			<time>2015-03-08T18:47:08Z</time>
			<fix>3d</fix>
		</trkpt>
		<trkpt lat="35.167619" lon="-106.436230">
			<ele>2269.60</ele>
			<time>2015-03-08T18:47:09Z</time>
			<fix>3d</fix>
		</trkpt>
		<trkpt lat="35.167621" lon="-106.436246">
			<ele>2269.50</ele>
			<time>2015-03-08T18:47:10Z</time>
			<fix>3d</fix>
		</trkpt>
		<trkpt lat="35.167641" lon="-106.436300">
			<ele>2269.40</ele>
			<time>2015-03-08T18:47:11Z</time>
			<fix>3d</fix>
		</trkpt>
		<trkpt lat="35.167650" lon="-106.436310">
			<ele>2268.98</ele>
			<time>2015-03-08T18:47:12Z</time>
			<fix>3d</fix>
		</trkpt>
		<trkpt lat="35.167660" lon="-106.436324">
			<ele>2268.78</ele>
			<time>2015-03-08T18:47:13Z</time>
			<fix>3d</fix>
		</trkpt>
		<trkpt lat="35.167669" lon="-106.436340">
			<ele>2268.78</ele>
			<time>2015-03-08T18:47:14Z</time>
			<fix>3d</fix>
		</trkpt>
		<trkpt lat="35.167678" lon="-106.436355">
			<ele>2268.57</ele>
			<time>2015-03-08T18:47:15Z</time>
			<fix>3d</fix>
		</trkpt>
		<trkpt lat="35.167682" lon="-106.436358">
			<ele>2268.47</ele>
			<time>2015-03-08T18:47:18Z</time>
			<fix>3d</fix>
		</trkpt>
		<trkpt lat="35.167700" lon="-106.436380">
			<ele>2268.47</ele>
			<time>2015-03-08T18:47:20Z</time>
			<fix>3d</fix>
		</trkpt>
		<trkpt lat="35.167755" lon="-106.436449">
			<ele>2268.09</ele>
			<time>2015-03-08T18:47:22Z</time>
			<fix>3d</fix>
		</trkpt>
		<trkpt lat="35.167772" lon="-106.436471">
			<ele>2267.06</ele>
			<time>2015-03-08T18:47:24Z</time>
			<fix>3d</fix>
		</trkpt>
		<trkpt lat="35.167808" lon="-106.436502">
			<ele>2267.07</ele>
			<time>2015-03-08T18:47:28Z</time>
			<fix>3d</fix>
		</trkpt>
		<trkpt lat="35.167822" lon="-106.436514">
			<ele>2267.07</ele>
			<time>2015-03-08T18:47:29Z</time>
			<fix>3d</fix>
		</trkpt>
		<trkpt lat="35.167828" lon="-106.436517">
			<ele>2266.97</ele>
			<time>2015-03-08T18:47:31Z</time>
			<fix>3d</fix>
		</trkpt>
		<trkpt lat="35.167836" lon="-106.436526">
			<ele>2266.77</ele>
			<time>2015-03-08T18:47:32Z</time>
			<fix>3d</fix>
		</trkpt>
		<trkpt lat="35.167858" lon="-106.436548">
			<ele>2266.56</ele>
			<time>2015-03-08T18:47:33Z</time>
			<fix>3d</fix>
		</trkpt>
		<trkpt lat="35.167864" lon="-106.436554">
			<ele>2266.56</ele>
			<time>2015-03-08T18:47:34Z</time>
			<fix>3d</fix>
		</trkpt>
		<trkpt lat="35.167871" lon="-106.436560">
			<ele>2266.56</ele>
			<time>2015-03-08T18:47:35Z</time>
			<fix>3d</fix>
		</trkpt>
		<trkpt lat="35.167900" lon="-106.436591">
			<ele>2266.36</ele>
			<time>2015-03-08T18:47:36Z</time>
			<fix>3d</fix>
		</trkpt>
		<trkpt lat="35.167911" lon="-106.436599">
			<ele>2266.26</ele>
			<time>2015-03-08T18:47:37Z</time>
			<fix>3d</fix>
		</trkpt>
		<trkpt lat="35.167924" lon="-106.436607">
			<ele>2266.26</ele>
			<time>2015-03-08T18:47:38Z</time>
			<fix>3d</fix>
		</trkpt>
		<trkpt lat="35.167937" lon="-106.436617">
			<ele>2266.06</ele>
			<time>2015-03-08T18:47:39Z</time>
			<fix>3d</fix>
		</trkpt>
		<trkpt lat="35.167956" lon="-106.436635">
			<ele>2265.85</ele>
			<time>2015-03-08T18:47:40Z</time>
			<fix>3d</fix>
		</trkpt>
		<trkpt lat="35.167970" lon="-106.436643">
			<ele>2265.75</ele>
			<time>2015-03-08T18:47:41Z</time>
			<fix>3d</fix>
		</trkpt>
		<trkpt lat="35.167978" lon="-106.436645">
			<ele>2265.35</ele>
			<time>2015-03-08T18:47:44Z</time>
			<fix>3d</fix>
		</trkpt>
		<trkpt lat="35.167990" lon="-106.436667">
			<ele>2264.83</ele>
			<time>2015-03-08T18:47:45Z</time>
			<fix>3d</fix>
		</trkpt>
		<trkpt lat="35.167994" lon="-106.436674">
			<ele>2264.34</ele>
			<time>2015-03-08T18:47:51Z</time>
			<fix>3d</fix>
		</trkpt>
		<trkpt lat="35.167995" lon="-106.436689">
			<ele>2263.72</ele>
			<time>2015-03-08T18:47:52Z</time>
			<fix>3d</fix>
		</trkpt>
		<trkpt lat="35.168003" lon="-106.436693">
			<ele>2263.52</ele>
			<time>2015-03-08T18:47:55Z</time>
			<fix>3d</fix>
		</trkpt>
		<trkpt lat="35.168008" lon="-106.436697">
			<ele>2263.53</ele>
			<time>2015-03-08T18:47:56Z</time>
			<fix>3d</fix>
		</trkpt>
		<trkpt lat="35.168024" lon="-106.436717">
			<ele>2263.53</ele>
			<time>2015-03-08T18:47:57Z</time>
			<fix>3d</fix>
		</trkpt>
		<trkpt lat="35.168028" lon="-106.436720">
			<ele>2263.65</ele>
			<time>2015-03-08T18:48:00Z</time>
			<fix>3d</fix>
		</trkpt>
		<trkpt lat="35.168034" lon="-106.436727">
			<ele>2263.65</ele>
			<time>2015-03-08T18:48:01Z</time>
			<fix>3d</fix>
		</trkpt>
		<trkpt lat="35.168035" lon="-106.436727">
			<ele>2263.76</ele>
			<time>2015-03-08T18:48:02Z</time>
			<fix>3d</fix>
		</trkpt>
		<trkpt lat="35.168042" lon="-106.436735">
			<ele>2263.76</ele>
			<time>2015-03-08T18:48:03Z</time>
			<fix>3d</fix>
		</trkpt>
		<trkpt lat="35.168068" lon="-106.436766">
			<ele>2263.87</ele>
			<time>2015-03-08T18:48:04Z</time>
			<fix>3d</fix>
		</trkpt>
		<trkpt lat="35.168076" lon="-106.436771">
			<ele>2263.98</ele>
			<time>2015-03-08T18:48:06Z</time>
			<fix>3d</fix>
		</trkpt>
		<trkpt lat="35.168090" lon="-106.436785">
			<ele>2263.99</ele>
			<time>2015-03-08T18:48:07Z</time>
			<fix>3d</fix>
		</trkpt>
		<trkpt lat="35.168091" lon="-106.436785">
			<ele>2264.10</ele>
			<time>2015-03-08T18:48:09Z</time>
			<fix>3d</fix>
		</trkpt>
		<trkpt lat="35.168107" lon="-106.436809">
			<ele>2264.10</ele>
			<time>2015-03-08T18:48:10Z</time>
			<fix>3d</fix>
		</trkpt>
		<trkpt lat="35.168113" lon="-106.436816">
			<ele>2264.22</ele>
			<time>2015-03-08T18:48:13Z</time>
			<fix>3d</fix>
		</trkpt>
		<trkpt lat="35.168135" lon="-106.436857">
			<ele>2264.22</ele>
			<time>2015-03-08T18:48:14Z</time>
			<fix>3d</fix>
		</trkpt>
		<trkpt lat="35.168136" lon="-106.436860">
			<ele>2264.45</ele>
			<time>2015-03-08T18:48:18Z</time>
			<fix>3d</fix>
		</trkpt>
		<trkpt lat="35.168139" lon="-106.436867">
			<ele>2264.56</ele>
			<time>2015-03-08T18:48:19Z</time>
			<fix>3d</fix>
		</trkpt>
		<trkpt lat="35.168142" lon="-106.436875">
			<ele>2264.66</ele>
			<time>2015-03-08T18:48:20Z</time>
			<fix>3d</fix>
		</trkpt>
		<trkpt lat="35.168145" lon="-106.436884">
			<ele>2264.88</ele>
			<time>2015-03-08T18:48:21Z</time>
			<fix>3d</fix>
		</trkpt>
		<trkpt lat="35.168147" lon="-106.436893">
			<ele>2264.92</ele>
			<time>2015-03-08T18:48:22Z</time>
			<fix>3d</fix>
		</trkpt>
		<trkpt lat="35.168147" lon="-106.436900">
			<ele>2265.03</ele>
			<time>2015-03-08T18:48:23Z</time>
			<fix>3d</fix>
		</trkpt>
		<trkpt lat="35.168147" lon="-106.436922">
			<ele>2265.03</ele>
			<time>2015-03-08T18:48:24Z</time>
			<fix>3d</fix>
		</trkpt>
		<trkpt lat="35.168147" lon="-106.436929">
			<ele>2265.25</ele>
			<time>2015-03-08T18:48:27Z</time>
			<fix>3d</fix>
		</trkpt>
		<trkpt lat="35.168146" lon="-106.436936">
			<ele>2265.36</ele>
			<time>2015-03-08T18:48:28Z</time>
			<fix>3d</fix>
		</trkpt>
		<trkpt lat="35.168144" lon="-106.436944">
			<ele>2265.47</ele>
			<time>2015-03-08T18:48:30Z</time>
			<fix>3d</fix>
		</trkpt>
		<trkpt lat="35.168145" lon="-106.436955">
			<ele>2265.58</ele>
			<time>2015-03-08T18:48:31Z</time>
			<fix>3d</fix>
		</trkpt>
		<trkpt lat="35.168144" lon="-106.436956">
			<ele>2265.69</ele>
			<time>2015-03-08T18:48:32Z</time>
			<fix>3d</fix>
		</trkpt>
		<trkpt lat="35.168146" lon="-106.436970">
			<ele>2266.21</ele>
			<time>2015-03-08T18:48:33Z</time>
			<fix>3d</fix>
		</trkpt>
		<trkpt lat="35.168148" lon="-106.436982">
			<ele>2266.21</ele>
			<time>2015-03-08T18:48:34Z</time>
			<fix>3d</fix>
		</trkpt>
		<trkpt lat="35.168150" lon="-106.436994">
			<ele>2266.22</ele>
			<time>2015-03-08T18:48:35Z</time>
			<fix>3d</fix>
		</trkpt>
		<trkpt lat="35.168150" lon="-106.436996">
			<ele>2266.22</ele>
			<time>2015-03-08T18:48:36Z</time>
			<fix>3d</fix>
		</trkpt>
		<trkpt lat="35.168151" lon="-106.437010">
			<ele>2266.23</ele>
			<time>2015-03-08T18:48:37Z</time>
			<fix>3d</fix>
		</trkpt>
		<trkpt lat="35.168151" lon="-106.437012">
			<ele>2266.23</ele>
			<time>2015-03-08T18:48:38Z</time>
			<fix>3d</fix>
		</trkpt>
		<trkpt lat="35.168152" lon="-106.437028">
			<ele>2266.24</ele>
			<time>2015-03-08T18:48:39Z</time>
			<fix>3d</fix>
		</trkpt>
		<trkpt lat="35.168152" lon="-106.437043">
			<ele>2266.14</ele>
			<time>2015-03-08T18:48:40Z</time>
			<fix>3d</fix>
		</trkpt>
		<trkpt lat="35.168151" lon="-106.437046">
			<ele>2266.15</ele>
			<time>2015-03-08T18:48:42Z</time>
			<fix>3d</fix>
		</trkpt>
		<trkpt lat="35.168153" lon="-106.437061">
			<ele>2266.15</ele>
			<time>2015-03-08T18:48:43Z</time>
			<fix>3d</fix>
		</trkpt>
		<trkpt lat="35.168158" lon="-106.437090">
			<ele>2266.05</ele>
			<time>2015-03-08T18:48:44Z</time>
			<fix>3d</fix>
		</trkpt>
		<trkpt lat="35.168158" lon="-106.437100">
			<ele>2265.85</ele>
			<time>2015-03-08T18:48:46Z</time>
			<fix>3d</fix>
		</trkpt>
		<trkpt lat="35.168157" lon="-106.437109">
			<ele>2265.86</ele>
			<time>2015-03-08T18:48:47Z</time>
			<fix>3d</fix>
		</trkpt>
		<trkpt lat="35.168156" lon="-106.437118">
			<ele>2265.76</ele>
			<time>2015-03-08T18:48:48Z</time>
			<fix>3d</fix>
		</trkpt>
		<trkpt lat="35.168156" lon="-106.437127">
			<ele>2265.76</ele>
			<time>2015-03-08T18:48:49Z</time>
			<fix>3d</fix>
		</trkpt>
		<trkpt lat="35.168154" lon="-106.437135">
			<ele>2265.66</ele>
			<time>2015-03-08T18:48:50Z</time>
			<fix>3d</fix>
		</trkpt>
		<trkpt lat="35.168151" lon="-106.437154">
			<ele>2265.67</ele>
			<time>2015-03-08T18:48:51Z</time>
			<fix>3d</fix>
		</trkpt>
		<trkpt lat="35.168150" lon="-106.437164">
			<ele>2264.86</ele>
			<time>2015-03-08T18:48:56Z</time>
			<fix>3d</fix>
		</trkpt>
		<trkpt lat="35.168152" lon="-106.437174">
			<ele>2264.76</ele>
			<time>2015-03-08T18:48:57Z</time>
			<fix>3d</fix>
		</trkpt>
		<trkpt lat="35.168164" lon="-106.437222">
			<ele>2263.85</ele>
			<time>2015-03-08T18:49:02Z</time>
			<fix>3d</fix>
		</trkpt>
		<trkpt lat="35.168167" lon="-106.437230">
			<ele>2263.24</ele>
			<time>2015-03-08T18:49:05Z</time>
			<fix>3d</fix>
		</trkpt>
		<trkpt lat="35.168169" lon="-106.437236">
			<ele>2262.85</ele>
			<time>2015-03-08T18:49:09Z</time>
			<fix>3d</fix>
		</trkpt>
		<trkpt lat="35.168168" lon="-106.437242">
			<ele>2262.75</ele>
			<time>2015-03-08T18:49:11Z</time>
			<fix>3d</fix>
		</trkpt>
		<trkpt lat="35.168165" lon="-106.437270">
			<ele>2262.65</ele>
			<time>2015-03-08T18:49:12Z</time>
			<fix>3d</fix>
		</trkpt>
		<trkpt lat="35.168164" lon="-106.437308">
			<ele>2261.54</ele>
			<time>2015-03-08T18:49:18Z</time>
			<fix>3d</fix>
		</trkpt>
		<trkpt lat="35.168165" lon="-106.437310">
			<ele>2261.65</ele>
			<time>2015-03-08T18:49:19Z</time>
			<fix>3d</fix>
		</trkpt>
		<trkpt lat="35.168169" lon="-106.437321">
			<ele>2261.55</ele>
			<time>2015-03-08T18:49:20Z</time>
			<fix>3d</fix>
		</trkpt>
		<trkpt lat="35.168171" lon="-106.437327">
			<ele>2261.50</ele>
			<time>2015-03-08T18:49:23Z</time>
			<fix>3d</fix>
		</trkpt>
		<trkpt lat="35.168169" lon="-106.437339">
			<ele>2261.50</ele>
			<time>2015-03-08T18:49:24Z</time>
			<fix>3d</fix>
		</trkpt>
		<trkpt lat="35.168168" lon="-106.437344">
			<ele>2261.20</ele>
			<time>2015-03-08T18:49:26Z</time>
			<fix>3d</fix>
		</trkpt>
		<trkpt lat="35.168162" lon="-106.437349">
			<ele>2261.21</ele>
			<time>2015-03-08T18:49:27Z</time>
			<fix>3d</fix>
		</trkpt>
		<trkpt lat="35.168153" lon="-106.437353">
			<ele>2261.21</ele>
			<time>2015-03-08T18:49:28Z</time>
			<fix>3d</fix>
		</trkpt>
		<trkpt lat="35.168151" lon="-106.437358">
			<ele>2260.80</ele>
			<time>2015-03-08T18:49:30Z</time>
			<fix>3d</fix>
		</trkpt>
		<trkpt lat="35.168144" lon="-106.437363">
			<ele>2260.41</ele>
			<time>2015-03-08T18:49:35Z</time>
			<fix>3d</fix>
		</trkpt>
		<trkpt lat="35.168140" lon="-106.437363">
			<ele>2260.42</ele>
			<time>2015-03-08T18:49:37Z</time>
			<fix>3d</fix>
		</trkpt>
		<trkpt lat="35.168133" lon="-106.437373">
			<ele>2260.42</ele>
			<time>2015-03-08T18:49:38Z</time>
			<fix>3d</fix>
		</trkpt>
		<trkpt lat="35.168127" lon="-106.437374">
			<ele>2260.43</ele>
			<time>2015-03-08T18:49:40Z</time>
			<fix>3d</fix>
		</trkpt>
		<trkpt lat="35.168120" lon="-106.437385">
			<ele>2260.43</ele>
			<time>2015-03-08T18:49:41Z</time>
			<fix>3d</fix>
		</trkpt>
		<trkpt lat="35.168112" lon="-106.437394">
			<ele>2260.43</ele>
			<time>2015-03-08T18:49:42Z</time>
			<fix>3d</fix>
		</trkpt>
		<trkpt lat="35.168103" lon="-106.437394">
			<ele>2260.65</ele>
			<time>2015-03-08T18:49:45Z</time>
			<fix>3d</fix>
		</trkpt>
		<trkpt lat="35.168066" lon="-106.437426">
			<ele>2260.65</ele>
			<time>2015-03-08T18:49:46Z</time>
			<fix>3d</fix>
		</trkpt>
		<trkpt lat="35.168062" lon="-106.437427">
			<ele>2260.66</ele>
			<time>2015-03-08T18:49:48Z</time>
			<fix>3d</fix>
		</trkpt>
		<trkpt lat="35.168055" lon="-106.437433">
			<ele>2260.67</ele>
			<time>2015-03-08T18:49:49Z</time>
			<fix>3d</fix>
		</trkpt>
		<trkpt lat="35.168035" lon="-106.437448">
			<ele>2260.67</ele>
			<time>2015-03-08T18:49:50Z</time>
			<fix>3d</fix>
		</trkpt>
		<trkpt lat="35.168020" lon="-106.437461">
			<ele>2260.67</ele>
			<time>2015-03-08T18:49:51Z</time>
			<fix>3d</fix>
		</trkpt>
		<trkpt lat="35.168016" lon="-106.437467">
			<ele>2260.68</ele>
			<time>2015-03-08T18:49:52Z</time>
			<fix>3d</fix>
		</trkpt>
		<trkpt lat="35.168010" lon="-106.437474">
			<ele>2260.68</ele>
			<time>2015-03-08T18:49:53Z</time>
			<fix>3d</fix>
		</trkpt>
		<trkpt lat="35.167987" lon="-106.437498">
			<ele>2260.80</ele>
			<time>2015-03-08T18:49:56Z</time>
			<fix>3d</fix>
		</trkpt>
		<trkpt lat="35.167969" lon="-106.437506">
			<ele>2260.81</ele>
			<time>2015-03-08T18:49:57Z</time>
			<fix>3d</fix>
		</trkpt>
		<trkpt lat="35.167949" lon="-106.437518">
			<ele>2260.81</ele>
			<time>2015-03-08T18:49:58Z</time>
			<fix>3d</fix>
		</trkpt>
		<trkpt lat="35.167944" lon="-106.437520">
			<ele>2260.82</ele>
			<time>2015-03-08T18:49:59Z</time>
			<fix>3d</fix>
		</trkpt>
		<trkpt lat="35.167931" lon="-106.437535">
			<ele>2260.82</ele>
			<time>2015-03-08T18:50:00Z</time>
			<fix>3d</fix>
		</trkpt>
		<trkpt lat="35.167927" lon="-106.437537">
			<ele>2260.83</ele>
			<time>2015-03-08T18:50:01Z</time>
			<fix>3d</fix>
		</trkpt>
		<trkpt lat="35.167900" lon="-106.437574">
			<ele>2260.83</ele>
			<time>2015-03-08T18:50:02Z</time>
			<fix>3d</fix>
		</trkpt>
		<trkpt lat="35.167894" lon="-106.437581">
			<ele>2260.84</ele>
			<time>2015-03-08T18:50:03Z</time>
			<fix>3d</fix>
		</trkpt>
		<trkpt lat="35.167877" lon="-106.437593">
			<ele>2260.74</ele>
			<time>2015-03-08T18:50:04Z</time>
			<fix>3d</fix>
		</trkpt>
		<trkpt lat="35.167871" lon="-106.437598">
			<ele>2260.75</ele>
			<time>2015-03-08T18:50:06Z</time>
			<fix>3d</fix>
		</trkpt>
		<trkpt lat="35.167858" lon="-106.437615">
			<ele>2260.75</ele>
			<time>2015-03-08T18:50:07Z</time>
			<fix>3d</fix>
		</trkpt>
		<trkpt lat="35.167852" lon="-106.437621">
			<ele>2260.67</ele>
			<time>2015-03-08T18:50:10Z</time>
			<fix>3d</fix>
		</trkpt>
		<trkpt lat="35.167850" lon="-106.437622">
			<ele>2260.46</ele>
			<time>2015-03-08T18:50:11Z</time>
			<fix>3d</fix>
		</trkpt>
		<trkpt lat="35.167845" lon="-106.437635">
			<ele>2260.16</ele>
			<time>2015-03-08T18:50:12Z</time>
			<fix>3d</fix>
		</trkpt>
		<trkpt lat="35.167840" lon="-106.437646">
			<ele>2260.17</ele>
			<time>2015-03-08T18:50:13Z</time>
			<fix>3d</fix>
		</trkpt>
		<trkpt lat="35.167822" lon="-106.437680">
			<ele>2260.07</ele>
			<time>2015-03-08T18:50:14Z</time>
			<fix>3d</fix>
		</trkpt>
		<trkpt lat="35.167814" lon="-106.437685">
			<ele>2259.98</ele>
			<time>2015-03-08T18:50:17Z</time>
			<fix>3d</fix>
		</trkpt>
		<trkpt lat="35.167807" lon="-106.437692">
			<ele>2259.98</ele>
			<time>2015-03-08T18:50:18Z</time>
			<fix>3d</fix>
		</trkpt>
		<trkpt lat="35.167805" lon="-106.437701">
			<ele>2259.89</ele>
			<time>2015-03-08T18:50:21Z</time>
			<fix>3d</fix>
		</trkpt>
		<trkpt lat="35.167805" lon="-106.437707">
			<ele>2259.67</ele>
			<time>2015-03-08T18:50:22Z</time>
			<fix>3d</fix>
		</trkpt>
		<trkpt lat="35.167806" lon="-106.437713">
			<ele>2259.36</ele>
			<time>2015-03-08T18:50:23Z</time>
			<fix>3d</fix>
		</trkpt>
		<trkpt lat="35.167803" lon="-106.437737">
			<ele>2258.86</ele>
			<time>2015-03-08T18:50:28Z</time>
			<fix>3d</fix>
		</trkpt>
		<trkpt lat="35.167797" lon="-106.437750">
			<ele>2258.87</ele>
			<time>2015-03-08T18:50:29Z</time>
			<fix>3d</fix>
		</trkpt>
		<trkpt lat="35.167796" lon="-106.437752">
			<ele>2258.77</ele>
			<time>2015-03-08T18:50:30Z</time>
			<fix>3d</fix>
		</trkpt>
		<trkpt lat="35.167773" lon="-106.437776">
			<ele>2258.37</ele>
			<time>2015-03-08T18:50:34Z</time>
			<fix>3d</fix>
		</trkpt>
		<trkpt lat="35.167769" lon="-106.437778">
			<ele>2258.29</ele>
			<time>2015-03-08T18:50:40Z</time>
			<fix>3d</fix>
		</trkpt>
		<trkpt lat="35.167766" lon="-106.437793">
			<ele>2258.19</ele>
			<time>2015-03-08T18:50:41Z</time>
			<fix>3d</fix>
		</trkpt>
		<trkpt lat="35.167765" lon="-106.437792">
			<ele>2257.98</ele>
			<time>2015-03-08T18:50:42Z</time>
			<fix>3d</fix>
		</trkpt>
		<trkpt lat="35.167757" lon="-106.437798">
			<ele>2257.27</ele>
			<time>2015-03-08T18:50:44Z</time>
			<fix>3d</fix>
		</trkpt>
		<trkpt lat="35.167743" lon="-106.437814">
			<ele>2257.27</ele>
			<time>2015-03-08T18:50:45Z</time>
			<fix>3d</fix>
		</trkpt>
		<trkpt lat="35.167737" lon="-106.437819">
			<ele>2257.08</ele>
			<time>2015-03-08T18:50:48Z</time>
			<fix>3d</fix>
		</trkpt>
		<trkpt lat="35.167723" lon="-106.437834">
			<ele>2256.87</ele>
			<time>2015-03-08T18:50:49Z</time>
			<fix>3d</fix>
		</trkpt>
		<trkpt lat="35.167710" lon="-106.437844">
			<ele>2256.78</ele>
			<time>2015-03-08T18:50:50Z</time>
			<fix>3d</fix>
		</trkpt>
		<trkpt lat="35.167695" lon="-106.437852">
			<ele>2256.78</ele>
			<time>2015-03-08T18:50:51Z</time>
			<fix>3d</fix>
		</trkpt>
		<trkpt lat="35.167688" lon="-106.437857">
			<ele>2256.89</ele>
			<time>2015-03-08T18:50:52Z</time>
			<fix>3d</fix>
		</trkpt>
		<trkpt lat="35.167681" lon="-106.437856">
			<ele>2256.90</ele>
			<time>2015-03-08T18:50:54Z</time>
			<fix>3d</fix>
		</trkpt>
		<trkpt lat="35.167640" lon="-106.437884">
			<ele>2256.90</ele>
			<time>2015-03-08T18:50:55Z</time>
			<fix>3d</fix>
		</trkpt>
		<trkpt lat="35.167629" lon="-106.437885">
			<ele>2256.90</ele>
			<time>2015-03-08T18:50:56Z</time>
			<fix>3d</fix>
		</trkpt>
		<trkpt lat="35.167623" lon="-106.437886">
			<ele>2256.91</ele>
			<time>2015-03-08T18:50:57Z</time>
			<fix>3d</fix>
		</trkpt>
		<trkpt lat="35.167617" lon="-106.437888">
			<ele>2256.81</ele>
			<time>2015-03-08T18:50:59Z</time>
			<fix>3d</fix>
		</trkpt>
		<trkpt lat="35.167613" lon="-106.437894">
			<ele>2256.82</ele>
			<time>2015-03-08T18:51:00Z</time>
			<fix>3d</fix>
		</trkpt>
		<trkpt lat="35.167606" lon="-106.437914">
			<ele>2256.83</ele>
			<time>2015-03-08T18:51:02Z</time>
			<fix>3d</fix>
		</trkpt>
		<trkpt lat="35.167592" lon="-106.437950">
			<ele>2256.73</ele>
			<time>2015-03-08T18:51:04Z</time>
			<fix>3d</fix>
		</trkpt>
		<trkpt lat="35.167583" lon="-106.437960">
			<ele>2256.64</ele>
			<time>2015-03-08T18:51:07Z</time>
			<fix>3d</fix>
		</trkpt>
		<trkpt lat="35.167578" lon="-106.437968">
			<ele>2256.66</ele>
			<time>2015-03-08T18:51:11Z</time>
			<fix>3d</fix>
		</trkpt>
		<trkpt lat="35.167575" lon="-106.437987">
			<ele>2256.66</ele>
			<time>2015-03-08T18:51:12Z</time>
			<fix>3d</fix>
		</trkpt>
		<trkpt lat="35.167571" lon="-106.437995">
			<ele>2256.46</ele>
			<time>2015-03-08T18:51:15Z</time>
			<fix>3d</fix>
		</trkpt>
		<trkpt lat="35.167570" lon="-106.438016">
			<ele>2256.16</ele>
			<time>2015-03-08T18:51:16Z</time>
			<fix>3d</fix>
		</trkpt>
		<trkpt lat="35.167565" lon="-106.438035">
			<ele>2255.54</ele>
			<time>2015-03-08T18:51:17Z</time>
			<fix>3d</fix>
		</trkpt>
		<trkpt lat="35.167560" lon="-106.438051">
			<ele>2255.75</ele>
			<time>2015-03-08T18:51:18Z</time>
			<fix>3d</fix>
		</trkpt>
		<trkpt lat="35.167554" lon="-106.438064">
			<ele>2255.65</ele>
			<time>2015-03-08T18:51:19Z</time>
			<fix>3d</fix>
		</trkpt>
		<trkpt lat="35.167537" lon="-106.438104">
			<ele>2255.34</ele>
			<time>2015-03-08T18:51:20Z</time>
			<fix>3d</fix>
		</trkpt>
		<trkpt lat="35.167538" lon="-106.438114">
			<ele>2254.83</ele>
			<time>2015-03-08T18:51:23Z</time>
			<fix>3d</fix>
		</trkpt>
		<trkpt lat="35.167539" lon="-106.438115">
			<ele>2254.83</ele>
			<time>2015-03-08T18:51:24Z</time>
			<fix>3d</fix>
		</trkpt>
		<trkpt lat="35.167544" lon="-106.438131">
			<ele>2254.84</ele>
			<time>2015-03-08T18:51:25Z</time>
			<fix>3d</fix>
		</trkpt>
		<trkpt lat="35.167552" lon="-106.438146">
			<ele>2254.84</ele>
			<time>2015-03-08T18:51:26Z</time>
			<fix>3d</fix>
		</trkpt>
		<trkpt lat="35.167582" lon="-106.438197">
			<ele>2254.84</ele>
			<time>2015-03-08T18:51:28Z</time>
			<fix>3d</fix>
		</trkpt>
		<trkpt lat="35.167588" lon="-106.438209">
			<ele>2254.74</ele>
			<time>2015-03-08T18:51:29Z</time>
			<fix>3d</fix>
		</trkpt>
		<trkpt lat="35.167593" lon="-106.438224">
			<ele>2254.84</ele>
			<time>2015-03-08T18:51:30Z</time>
			<fix>3d</fix>
		</trkpt>
		<trkpt lat="35.167599" lon="-106.438239">
			<ele>2254.85</ele>
			<time>2015-03-08T18:51:31Z</time>
			<fix>3d</fix>
		</trkpt>
		<trkpt lat="35.167603" lon="-106.438244">
			<ele>2254.75</ele>
			<time>2015-03-08T18:51:34Z</time>
			<fix>3d</fix>
		</trkpt>
		<trkpt lat="35.167631" lon="-106.438309">
			<ele>2254.75</ele>
			<time>2015-03-08T18:51:35Z</time>
			<fix>3d</fix>
		</trkpt>
		<trkpt lat="35.167629" lon="-106.438313">
			<ele>2254.02</ele>
			<time>2015-03-08T18:51:38Z</time>
			<fix>3d</fix>
		</trkpt>
		<trkpt lat="35.167625" lon="-106.438329">
			<ele>2253.82</ele>
			<time>2015-03-08T18:51:39Z</time>
			<fix>3d</fix>
		</trkpt>
		<trkpt lat="35.167620" lon="-106.438333">
			<ele>2252.68</ele>
			<time>2015-03-08T18:51:47Z</time>
			<fix>3d</fix>
		</trkpt>
		<trkpt lat="35.167619" lon="-106.438340">
			<ele>2252.58</ele>
			<time>2015-03-08T18:51:48Z</time>
			<fix>3d</fix>
		</trkpt>
		<trkpt lat="35.167616" lon="-106.438359">
			<ele>2252.58</ele>
			<time>2015-03-08T18:51:49Z</time>
			<fix>3d</fix>
		</trkpt>
		<trkpt lat="35.167619" lon="-106.438376">
			<ele>2252.37</ele>
			<time>2015-03-08T18:51:50Z</time>
			<fix>3d</fix>
		</trkpt>
		<trkpt lat="35.167619" lon="-106.438375">
			<ele>2252.17</ele>
			<time>2015-03-08T18:51:51Z</time>
			<fix>3d</fix>
		</trkpt>
		<trkpt lat="35.167631" lon="-106.438400">
			<ele>2251.65</ele>
			<time>2015-03-08T18:51:52Z</time>
			<fix>3d</fix>
		</trkpt>
		<trkpt lat="35.167632" lon="-106.438400">
			<ele>2251.65</ele>
			<time>2015-03-08T18:51:53Z</time>
			<fix>3d</fix>
		</trkpt>
		<trkpt lat="35.167639" lon="-106.438410">
			<ele>2251.34</ele>
			<time>2015-03-08T18:51:54Z</time>
			<fix>3d</fix>
		</trkpt>
		<trkpt lat="35.167647" lon="-106.438421">
			<ele>2251.24</ele>
			<time>2015-03-08T18:51:55Z</time>
			<fix>3d</fix>
		</trkpt>
		<trkpt lat="35.167650" lon="-106.438422">
			<ele>2250.83</ele>
			<time>2015-03-08T18:51:56Z</time>
			<fix>3d</fix>
		</trkpt>
		<trkpt lat="35.167679" lon="-106.438455">
			<ele>2250.41</ele>
			<time>2015-03-08T18:51:57Z</time>
			<fix>3d</fix>
		</trkpt>
		<trkpt lat="35.167697" lon="-106.438474">
			<ele>2250.41</ele>
			<time>2015-03-08T18:51:58Z</time>
			<fix>3d</fix>
		</trkpt>
		<trkpt lat="35.167709" lon="-106.438487">
			<ele>2250.41</ele>
			<time>2015-03-08T18:51:59Z</time>
			<fix>3d</fix>
		</trkpt>
		<trkpt lat="35.167714" lon="-106.438492">
			<ele>2250.41</ele>
			<time>2015-03-08T18:52:00Z</time>
			<fix>3d</fix>
		</trkpt>
		<trkpt lat="35.167730" lon="-106.438507">
			<ele>2250.31</ele>
			<time>2015-03-08T18:52:01Z</time>
			<fix>3d</fix>
		</trkpt>
		<trkpt lat="35.167732" lon="-106.438506">
			<ele>2250.31</ele>
			<time>2015-03-08T18:52:03Z</time>
			<fix>3d</fix>
		</trkpt>
		<trkpt lat="35.167742" lon="-106.438515">
			<ele>2250.21</ele>
			<time>2015-03-08T18:52:04Z</time>
			<fix>3d</fix>
		</trkpt>
		<trkpt lat="35.167752" lon="-106.438525">
			<ele>2250.11</ele>
			<time>2015-03-08T18:52:05Z</time>
			<fix>3d</fix>
		</trkpt>
		<trkpt lat="35.167758" lon="-106.438528">
			<ele>2249.59</ele>
			<time>2015-03-08T18:52:08Z</time>
			<fix>3d</fix>
		</trkpt>
		<trkpt lat="35.167771" lon="-106.438542">
			<ele>2249.49</ele>
			<time>2015-03-08T18:52:09Z</time>
			<fix>3d</fix>
		</trkpt>
		<trkpt lat="35.167808" lon="-106.438581">
			<ele>2249.49</ele>
			<time>2015-03-08T18:52:10Z</time>
			<fix>3d</fix>
		</trkpt>
		<trkpt lat="35.167810" lon="-106.438582">
			<ele>2249.49</ele>
			<time>2015-03-08T18:52:12Z</time>
			<fix>3d</fix>
		</trkpt>
		<trkpt lat="35.167822" lon="-106.438592">
			<ele>2249.29</ele>
			<time>2015-03-08T18:52:13Z</time>
			<fix>3d</fix>
		</trkpt>
		<trkpt lat="35.167829" lon="-106.438597">
			<ele>2248.98</ele>
			<time>2015-03-08T18:52:17Z</time>
			<fix>3d</fix>
		</trkpt>
		<trkpt lat="35.167834" lon="-106.438603">
			<ele>2248.98</ele>
			<time>2015-03-08T18:52:20Z</time>
			<fix>3d</fix>
		</trkpt>
		<trkpt lat="35.167840" lon="-106.438609">
			<ele>2248.88</ele>
			<time>2015-03-08T18:52:24Z</time>
			<fix>3d</fix>
		</trkpt>
		<trkpt lat="35.167847" lon="-106.438614">
			<ele>2248.68</ele>
			<time>2015-03-08T18:52:31Z</time>
			<fix>3d</fix>
		</trkpt>
		<trkpt lat="35.167854" lon="-106.438616">
			<ele>2248.06</ele>
			<time>2015-03-08T18:52:39Z</time>
			<fix>3d</fix>
		</trkpt>
		<trkpt lat="35.167860" lon="-106.438619">
			<ele>2247.65</ele>
			<time>2015-03-08T18:52:43Z</time>
			<fix>3d</fix>
		</trkpt>
		<trkpt lat="35.167868" lon="-106.438633">
			<ele>2247.65</ele>
			<time>2015-03-08T18:52:44Z</time>
			<fix>3d</fix>
		</trkpt>
		<trkpt lat="35.167873" lon="-106.438643">
			<ele>2247.55</ele>
			<time>2015-03-08T18:52:45Z</time>
			<fix>3d</fix>
		</trkpt>
		<trkpt lat="35.167872" lon="-106.438649">
			<ele>2247.45</ele>
			<time>2015-03-08T18:52:48Z</time>
			<fix>3d</fix>
		</trkpt>
		<trkpt lat="35.167865" lon="-106.438670">
			<ele>2247.34</ele>
			<time>2015-03-08T18:52:49Z</time>
			<fix>3d</fix>
		</trkpt>
		<trkpt lat="35.167861" lon="-106.438675">
			<ele>2247.13</ele>
			<time>2015-03-08T18:52:50Z</time>
			<fix>3d</fix>
		</trkpt>
		<trkpt lat="35.167855" lon="-106.438678">
			<ele>2246.10</ele>
			<time>2015-03-08T18:52:51Z</time>
			<fix>3d</fix>
		</trkpt>
		<trkpt lat="35.167848" lon="-106.438683">
			<ele>2245.79</ele>
			<time>2015-03-08T18:52:52Z</time>
			<fix>3d</fix>
		</trkpt>
		<trkpt lat="35.167846" lon="-106.438686">
			<ele>2245.79</ele>
			<time>2015-03-08T18:52:53Z</time>
			<fix>3d</fix>
		</trkpt>
		<trkpt lat="35.167839" lon="-106.438695">
			<ele>2245.79</ele>
			<time>2015-03-08T18:52:54Z</time>
			<fix>3d</fix>
		</trkpt>
		<trkpt lat="35.167837" lon="-106.438704">
			<ele>2245.68</ele>
			<time>2015-03-08T18:52:58Z</time>
			<fix>3d</fix>
		</trkpt>
		<trkpt lat="35.167839" lon="-106.438709">
			<ele>2245.57</ele>
			<time>2015-03-08T18:53:00Z</time>
			<fix>3d</fix>
		</trkpt>
		<trkpt lat="35.167841" lon="-106.438718">
			<ele>2245.37</ele>
			<time>2015-03-08T18:53:01Z</time>
			<fix>3d</fix>
		</trkpt>
		<trkpt lat="35.167846" lon="-106.438751">
			<ele>2245.26</ele>
			<time>2015-03-08T18:53:02Z</time>
			<fix>3d</fix>
		</trkpt>
		<trkpt lat="35.167846" lon="-106.438764">
			<ele>2245.16</ele>
			<time>2015-03-08T18:53:03Z</time>
			<fix>3d</fix>
		</trkpt>
		<trkpt lat="35.167846" lon="-106.438768">
			<ele>2244.64</ele>
			<time>2015-03-08T18:53:05Z</time>
			<fix>3d</fix>
		</trkpt>
		<trkpt lat="35.167852" lon="-106.438785">
			<ele>2244.64</ele>
			<time>2015-03-08T18:53:06Z</time>
			<fix>3d</fix>
		</trkpt>
		<trkpt lat="35.167854" lon="-106.438791">
			<ele>2244.53</ele>
			<time>2015-03-08T18:53:07Z</time>
			<fix>3d</fix>
		</trkpt>
		<trkpt lat="35.167863" lon="-106.438811">
			<ele>2244.33</ele>
			<time>2015-03-08T18:53:08Z</time>
			<fix>3d</fix>
		</trkpt>
		<trkpt lat="35.167869" lon="-106.438826">
			<ele>2243.91</ele>
			<time>2015-03-08T18:53:09Z</time>
			<fix>3d</fix>
		</trkpt>
		<trkpt lat="35.167888" lon="-106.438863">
			<ele>2243.60</ele>
			<time>2015-03-08T18:53:12Z</time>
			<fix>3d</fix>
		</trkpt>
		<trkpt lat="35.167896" lon="-106.438871">
			<ele>2243.50</ele>
			<time>2015-03-08T18:53:13Z</time>
			<fix>3d</fix>
		</trkpt>
		<trkpt lat="35.167902" lon="-106.438875">
			<ele>2243.50</ele>
			<time>2015-03-08T18:53:14Z</time>
			<fix>3d</fix>
		</trkpt>
		<trkpt lat="35.167903" lon="-106.438878">
			<ele>2243.39</ele>
			<time>2015-03-08T18:53:15Z</time>
			<fix>3d</fix>
		</trkpt>
		<trkpt lat="35.167911" lon="-106.438888">
			<ele>2242.87</ele>
			<time>2015-03-08T18:53:16Z</time>
			<fix>3d</fix>
		</trkpt>
		<trkpt lat="35.167920" lon="-106.438897">
			<ele>2242.77</ele>
			<time>2015-03-08T18:53:17Z</time>
			<fix>3d</fix>
		</trkpt>
		<trkpt lat="35.167937" lon="-106.438915">
			<ele>2242.77</ele>
			<time>2015-03-08T18:53:18Z</time>
			<fix>3d</fix>
		</trkpt>
		<trkpt lat="35.167945" lon="-106.438920">
			<ele>2242.77</ele>
			<time>2015-03-08T18:53:19Z</time>
			<fix>3d</fix>
		</trkpt>
		<trkpt lat="35.167952" lon="-106.438921">
			<ele>2242.58</ele>
			<time>2015-03-08T18:53:23Z</time>
			<fix>3d</fix>
		</trkpt>
		<trkpt lat="35.167960" lon="-106.438930">
			<ele>2242.17</ele>
			<time>2015-03-08T18:53:24Z</time>
			<fix>3d</fix>
		</trkpt>
		<trkpt lat="35.167965" lon="-106.438939">
			<ele>2241.65</ele>
			<time>2015-03-08T18:53:26Z</time>
			<fix>3d</fix>
		</trkpt>
		<trkpt lat="35.167965" lon="-106.438945">
			<ele>2241.54</ele>
			<time>2015-03-08T18:53:28Z</time>
			<fix>3d</fix>
		</trkpt>
		<trkpt lat="35.167964" lon="-106.438951">
			<ele>2241.54</ele>
			<time>2015-03-08T18:53:29Z</time>
			<fix>3d</fix>
		</trkpt>
		<trkpt lat="35.167947" lon="-106.438970">
			<ele>2241.44</ele>
			<time>2015-03-08T18:53:31Z</time>
			<fix>3d</fix>
		</trkpt>
		<trkpt lat="35.167940" lon="-106.438968">
			<ele>2241.44</ele>
			<time>2015-03-08T18:53:32Z</time>
			<fix>3d</fix>
		</trkpt>
		<trkpt lat="35.167934" lon="-106.438968">
			<ele>2241.43</ele>
			<time>2015-03-08T18:53:34Z</time>
			<fix>3d</fix>
		</trkpt>
		<trkpt lat="35.167929" lon="-106.438972">
			<ele>2241.43</ele>
			<time>2015-03-08T18:53:35Z</time>
			<fix>3d</fix>
		</trkpt>
		<trkpt lat="35.167925" lon="-106.438978">
			<ele>2241.43</ele>
			<time>2015-03-08T18:53:37Z</time>
			<fix>3d</fix>
		</trkpt>
		<trkpt lat="35.167923" lon="-106.438989">
			<ele>2241.33</ele>
			<time>2015-03-08T18:53:38Z</time>
			<fix>3d</fix>
		</trkpt>
		<trkpt lat="35.167925" lon="-106.439027">
			<ele>2241.22</ele>
			<time>2015-03-08T18:53:40Z</time>
			<fix>3d</fix>
		</trkpt>
		<trkpt lat="35.167931" lon="-106.439046">
			<ele>2241.12</ele>
			<time>2015-03-08T18:53:41Z</time>
			<fix>3d</fix>
		</trkpt>
		<trkpt lat="35.167932" lon="-106.439062">
			<ele>2241.01</ele>
			<time>2015-03-08T18:53:43Z</time>
			<fix>3d</fix>
		</trkpt>
		<trkpt lat="35.167936" lon="-106.439069">
			<ele>2239.67</ele>
			<time>2015-03-08T18:53:49Z</time>
			<fix>3d</fix>
		</trkpt>
		<trkpt lat="35.167934" lon="-106.439084">
			<ele>2239.25</ele>
			<time>2015-03-08T18:53:50Z</time>
			<fix>3d</fix>
		</trkpt>
		<trkpt lat="35.167928" lon="-106.439091">
			<ele>2238.74</ele>
			<time>2015-03-08T18:53:52Z</time>
			<fix>3d</fix>
		</trkpt>
		<trkpt lat="35.167925" lon="-106.439095">
			<ele>2238.74</ele>
			<time>2015-03-08T18:53:53Z</time>
			<fix>3d</fix>
		</trkpt>
		<trkpt lat="35.167919" lon="-106.439100">
			<ele>2238.64</ele>
			<time>2015-03-08T18:53:55Z</time>
			<fix>3d</fix>
		</trkpt>
		<trkpt lat="35.167913" lon="-106.439105">
			<ele>2238.53</ele>
			<time>2015-03-08T18:53:58Z</time>
			<fix>3d</fix>
		</trkpt>
		<trkpt lat="35.167912" lon="-106.439114">
			<ele>2238.53</ele>
			<time>2015-03-08T18:53:59Z</time>
			<fix>3d</fix>
		</trkpt>
		<trkpt lat="35.167911" lon="-106.439123">
			<ele>2238.53</ele>
			<time>2015-03-08T18:54:00Z</time>
			<fix>3d</fix>
		</trkpt>
		<trkpt lat="35.167909" lon="-106.439132">
			<ele>2238.53</ele>
			<time>2015-03-08T18:54:01Z</time>
			<fix>3d</fix>
		</trkpt>
		<trkpt lat="35.167907" lon="-106.439139">
			<ele>2238.54</ele>
			<time>2015-03-08T18:54:02Z</time>
			<fix>3d</fix>
		</trkpt>
		<trkpt lat="35.167904" lon="-106.439146">
			<ele>2238.54</ele>
			<time>2015-03-08T18:54:03Z</time>
			<fix>3d</fix>
		</trkpt>
		<trkpt lat="35.167899" lon="-106.439154">
			<ele>2238.33</ele>
			<time>2015-03-08T18:54:05Z</time>
			<fix>3d</fix>
		</trkpt>
		<trkpt lat="35.167896" lon="-106.439164">
			<ele>2238.33</ele>
			<time>2015-03-08T18:54:06Z</time>
			<fix>3d</fix>
		</trkpt>
		<trkpt lat="35.167893" lon="-106.439174">
			<ele>2238.02</ele>
			<time>2015-03-08T18:54:07Z</time>
			<fix>3d</fix>
		</trkpt>
		<trkpt lat="35.167889" lon="-106.439179">
			<ele>2236.99</ele>
			<time>2015-03-08T18:54:10Z</time>
			<fix>3d</fix>
		</trkpt>
		<trkpt lat="35.167889" lon="-106.439198">
			<ele>2236.99</ele>
			<time>2015-03-08T18:54:11Z</time>
			<fix>3d</fix>
		</trkpt>
		<trkpt lat="35.167888" lon="-106.439204">
			<ele>2237.00</ele>
			<time>2015-03-08T18:54:13Z</time>
			<fix>3d</fix>
		</trkpt>
		<trkpt lat="35.167887" lon="-106.439209">
			<ele>2237.00</ele>
			<time>2015-03-08T18:54:14Z</time>
			<fix>3d</fix>
		</trkpt>
		<trkpt lat="35.167888" lon="-106.439233">
			<ele>2237.00</ele>
			<time>2015-03-08T18:54:15Z</time>
			<fix>3d</fix>
		</trkpt>
		<trkpt lat="35.167883" lon="-106.439309">
			<ele>2236.24</ele>
			<time>2015-03-08T18:54:23Z</time>
			<fix>3d</fix>
		</trkpt>
		<trkpt lat="35.167881" lon="-106.439324">
			<ele>2235.73</ele>
			<time>2015-03-08T18:54:24Z</time>
			<fix>3d</fix>
		</trkpt>
		<trkpt lat="35.167880" lon="-106.439338">
			<ele>2235.42</ele>
			<time>2015-03-08T18:54:25Z</time>
			<fix>3d</fix>
		</trkpt>
		<trkpt lat="35.167878" lon="-106.439350">
			<ele>2235.01</ele>
			<time>2015-03-08T18:54:26Z</time>
			<fix>3d</fix>
		</trkpt>
		<trkpt lat="35.167877" lon="-106.439362">
			<ele>2234.91</ele>
			<time>2015-03-08T18:54:27Z</time>
			<fix>3d</fix>
		</trkpt>
		<trkpt lat="35.167876" lon="-106.439374">
			<ele>2234.91</ele>
			<time>2015-03-08T18:54:28Z</time>
			<fix>3d</fix>
		</trkpt>
		<trkpt lat="35.167869" lon="-106.439430">
			<ele>2234.20</ele>
			<time>2015-03-08T18:54:34Z</time>
			<fix>3d</fix>
		</trkpt>
		<trkpt lat="35.167869" lon="-106.439444">
			<ele>2234.20</ele>
			<time>2015-03-08T18:54:35Z</time>
			<fix>3d</fix>
		</trkpt>
		<trkpt lat="35.167869" lon="-106.439446">
			<ele>2234.10</ele>
			<time>2015-03-08T18:54:36Z</time>
			<fix>3d</fix>
		</trkpt>
		<trkpt lat="35.167873" lon="-106.439459">
			<ele>2234.10</ele>
			<time>2015-03-08T18:54:37Z</time>
			<fix>3d</fix>
		</trkpt>
		<trkpt lat="35.167888" lon="-106.439501">
			<ele>2234.10</ele>
			<time>2015-03-08T18:54:38Z</time>
			<fix>3d</fix>
		</trkpt>
		<trkpt lat="35.167890" lon="-106.439506">
			<ele>2234.11</ele>
			<time>2015-03-08T18:54:41Z</time>
			<fix>3d</fix>
		</trkpt>
		<trkpt lat="35.167892" lon="-106.439516">
			<ele>2234.11</ele>
			<time>2015-03-08T18:54:42Z</time>
			<fix>3d</fix>
		</trkpt>
		<trkpt lat="35.167896" lon="-106.439541">
			<ele>2234.11</ele>
			<time>2015-03-08T18:54:43Z</time>
			<fix>3d</fix>
		</trkpt>
		<trkpt lat="35.167894" lon="-106.439556">
			<ele>2234.01</ele>
			<time>2015-03-08T18:54:44Z</time>
			<fix>3d</fix>
		</trkpt>
		<trkpt lat="35.167889" lon="-106.439564">
			<ele>2232.88</ele>
			<time>2015-03-08T18:54:48Z</time>
			<fix>3d</fix>
		</trkpt>
		<trkpt lat="35.167889" lon="-106.439566">
			<ele>2232.78</ele>
			<time>2015-03-08T18:54:49Z</time>
			<fix>3d</fix>
		</trkpt>
		<trkpt lat="35.167889" lon="-106.439586">
			<ele>2232.78</ele>
			<time>2015-03-08T18:54:50Z</time>
			<fix>3d</fix>
		</trkpt>
		<trkpt lat="35.167892" lon="-106.439659">
			<ele>2232.58</ele>
			<time>2015-03-08T18:54:52Z</time>
			<fix>3d</fix>
		</trkpt>
		<trkpt lat="35.167892" lon="-106.439658">
			<ele>2232.58</ele>
			<time>2015-03-08T18:54:54Z</time>
			<fix>3d</fix>
		</trkpt>
		<trkpt lat="35.167897" lon="-106.439669">
			<ele>2232.48</ele>
			<time>2015-03-08T18:54:55Z</time>
			<fix>3d</fix>
		</trkpt>
		<trkpt lat="35.167902" lon="-106.439680">
			<ele>2232.48</ele>
			<time>2015-03-08T18:54:56Z</time>
			<fix>3d</fix>
		</trkpt>
		<trkpt lat="35.167902" lon="-106.439680">
			<ele>2232.38</ele>
			<time>2015-03-08T18:54:57Z</time>
			<fix>3d</fix>
		</trkpt>
		<trkpt lat="35.167926" lon="-106.439723">
			<ele>2231.87</ele>
			<time>2015-03-08T18:54:59Z</time>
			<fix>3d</fix>
		</trkpt>
		<trkpt lat="35.167935" lon="-106.439746">
			<ele>2231.87</ele>
			<time>2015-03-08T18:55:00Z</time>
			<fix>3d</fix>
		</trkpt>
		<trkpt lat="35.167938" lon="-106.439753">
			<ele>2231.05</ele>
			<time>2015-03-08T18:55:06Z</time>
			<fix>3d</fix>
		</trkpt>
		<trkpt lat="35.167944" lon="-106.439797">
			<ele>2230.74</ele>
			<time>2015-03-08T18:55:07Z</time>
			<fix>3d</fix>
		</trkpt>
		<trkpt lat="35.167941" lon="-106.439806">
			<ele>2230.13</ele>
			<time>2015-03-08T18:55:11Z</time>
			<fix>3d</fix>
		</trkpt>
		<trkpt lat="35.167940" lon="-106.439822">
			<ele>2230.03</ele>
			<time>2015-03-08T18:55:12Z</time>
			<fix>3d</fix>
		</trkpt>
		<trkpt lat="35.167940" lon="-106.439821">
			<ele>2229.93</ele>
			<time>2015-03-08T18:55:13Z</time>
			<fix>3d</fix>
		</trkpt>
		<trkpt lat="35.167965" lon="-106.439841">
			<ele>2229.62</ele>
			<time>2015-03-08T18:55:14Z</time>
			<fix>3d</fix>
		</trkpt>
		<trkpt lat="35.167979" lon="-106.439856">
			<ele>2228.90</ele>
			<time>2015-03-08T18:55:15Z</time>
			<fix>3d</fix>
		</trkpt>
		<trkpt lat="35.167982" lon="-106.439860">
			<ele>2228.69</ele>
			<time>2015-03-08T18:55:17Z</time>
			<fix>3d</fix>
		</trkpt>
		<trkpt lat="35.167991" lon="-106.439880">
			<ele>2228.69</ele>
			<time>2015-03-08T18:55:18Z</time>
			<fix>3d</fix>
		</trkpt>
		<trkpt lat="35.167986" lon="-106.439885">
			<ele>2228.70</ele>
			<time>2015-03-08T18:55:21Z</time>
			<fix>3d</fix>
		</trkpt>
		<trkpt lat="35.167980" lon="-106.439894">
			<ele>2228.89</ele>
			<time>2015-03-08T18:55:22Z</time>
			<fix>3d</fix>
		</trkpt>
		<trkpt lat="35.167977" lon="-106.439898">
			<ele>2228.89</ele>
			<time>2015-03-08T18:55:23Z</time>
			<fix>3d</fix>
		</trkpt>
		<trkpt lat="35.167973" lon="-106.439902">
			<ele>2228.79</ele>
			<time>2015-03-08T18:55:24Z</time>
			<fix>3d</fix>
		</trkpt>
		<trkpt lat="35.167961" lon="-106.439911">
			<ele>2228.79</ele>
			<time>2015-03-08T18:55:25Z</time>
			<fix>3d</fix>
		</trkpt>
		<trkpt lat="35.167957" lon="-106.439913">
			<ele>2228.79</ele>
			<time>2015-03-08T18:55:26Z</time>
			<fix>3d</fix>
		</trkpt>
		<trkpt lat="35.167949" lon="-106.439916">
			<ele>2227.35</ele>
			<time>2015-03-08T18:55:30Z</time>
			<fix>3d</fix>
		</trkpt>
		<trkpt lat="35.167941" lon="-106.439921">
			<ele>2227.25</ele>
			<time>2015-03-08T18:55:33Z</time>
			<fix>3d</fix>
		</trkpt>
		<trkpt lat="35.167939" lon="-106.439924">
			<ele>2226.63</ele>
			<time>2015-03-08T18:55:34Z</time>
			<fix>3d</fix>
		</trkpt>
		<trkpt lat="35.167934" lon="-106.439941">
			<ele>2226.53</ele>
			<time>2015-03-08T18:55:35Z</time>
			<fix>3d</fix>
		</trkpt>
		<trkpt lat="35.167930" lon="-106.439956">
			<ele>2226.43</ele>
			<time>2015-03-08T18:55:36Z</time>
			<fix>3d</fix>
		</trkpt>
		<trkpt lat="35.167924" lon="-106.439970">
			<ele>2226.43</ele>
			<time>2015-03-08T18:55:37Z</time>
			<fix>3d</fix>
		</trkpt>
		<trkpt lat="35.167910" lon="-106.439999">
			<ele>2226.23</ele>
			<time>2015-03-08T18:55:38Z</time>
			<fix>3d</fix>
		</trkpt>
		<trkpt lat="35.167906" lon="-106.440006">
			<ele>2226.23</ele>
			<time>2015-03-08T18:55:39Z</time>
			<fix>3d</fix>
		</trkpt>
		<trkpt lat="35.167902" lon="-106.440014">
			<ele>2225.92</ele>
			<time>2015-03-08T18:55:40Z</time>
			<fix>3d</fix>
		</trkpt>
		<trkpt lat="35.167896" lon="-106.440021">
			<ele>2225.51</ele>
			<time>2015-03-08T18:55:42Z</time>
			<fix>3d</fix>
		</trkpt>
		<trkpt lat="35.167879" lon="-106.440040">
			<ele>2225.52</ele>
			<time>2015-03-08T18:55:43Z</time>
			<fix>3d</fix>
		</trkpt>
		<trkpt lat="35.167873" lon="-106.440044">
			<ele>2225.53</ele>
			<time>2015-03-08T18:55:46Z</time>
			<fix>3d</fix>
		</trkpt>
		<trkpt lat="35.167867" lon="-106.440051">
			<ele>2225.32</ele>
			<time>2015-03-08T18:55:47Z</time>
			<fix>3d</fix>
		</trkpt>
		<trkpt lat="35.167862" lon="-106.440058">
			<ele>2225.12</ele>
			<time>2015-03-08T18:55:48Z</time>
			<fix>3d</fix>
		</trkpt>
		<trkpt lat="35.167858" lon="-106.440066">
			<ele>2224.91</ele>
			<time>2015-03-08T18:55:49Z</time>
			<fix>3d</fix>
		</trkpt>
		<trkpt lat="35.167847" lon="-106.440083">
			<ele>2224.81</ele>
			<time>2015-03-08T18:55:50Z</time>
			<fix>3d</fix>
		</trkpt>
		<trkpt lat="35.167844" lon="-106.440087">
			<ele>2224.71</ele>
			<time>2015-03-08T18:55:51Z</time>
			<fix>3d</fix>
		</trkpt>
		<trkpt lat="35.167840" lon="-106.440091">
			<ele>2224.51</ele>
			<time>2015-03-08T18:55:52Z</time>
			<fix>3d</fix>
		</trkpt>
		<trkpt lat="35.167835" lon="-106.440095">
			<ele>2224.41</ele>
			<time>2015-03-08T18:55:53Z</time>
			<fix>3d</fix>
		</trkpt>
		<trkpt lat="35.167824" lon="-106.440101">
			<ele>2224.41</ele>
			<time>2015-03-08T18:55:54Z</time>
			<fix>3d</fix>
		</trkpt>
		<trkpt lat="35.167823" lon="-106.440100">
			<ele>2224.32</ele>
			<time>2015-03-08T18:55:56Z</time>
			<fix>3d</fix>
		</trkpt>
		<trkpt lat="35.167819" lon="-106.440120">
			<ele>2223.61</ele>
			<time>2015-03-08T18:56:01Z</time>
			<fix>3d</fix>
		</trkpt>
		<trkpt lat="35.167811" lon="-106.440124">
			<ele>2223.10</ele>
			<time>2015-03-08T18:56:03Z</time>
			<fix>3d</fix>
		</trkpt>
		<trkpt lat="35.167804" lon="-106.440129">
			<ele>2222.90</ele>
			<time>2015-03-08T18:56:04Z</time>
			<fix>3d</fix>
		</trkpt>
		<trkpt lat="35.167801" lon="-106.440129">
			<ele>2222.80</ele>
			<time>2015-03-08T18:56:05Z</time>
			<fix>3d</fix>
		</trkpt>
		<trkpt lat="35.167793" lon="-106.440136">
			<ele>2222.81</ele>
			<time>2015-03-08T18:56:06Z</time>
			<fix>3d</fix>
		</trkpt>
		<trkpt lat="35.167790" lon="-106.440135">
			<ele>2222.81</ele>
			<time>2015-03-08T18:56:07Z</time>
			<fix>3d</fix>
		</trkpt>
		<trkpt lat="35.167781" lon="-106.440141">
			<ele>2222.82</ele>
			<time>2015-03-08T18:56:08Z</time>
			<fix>3d</fix>
		</trkpt>
		<trkpt lat="35.167778" lon="-106.440140">
			<ele>2222.82</ele>
			<time>2015-03-08T18:56:09Z</time>
			<fix>3d</fix>
		</trkpt>
		<trkpt lat="35.167772" lon="-106.440143">
			<ele>2222.83</ele>
			<time>2015-03-08T18:56:10Z</time>
			<fix>3d</fix>
		</trkpt>
		<trkpt lat="35.167759" lon="-106.440147">
			<ele>2222.83</ele>
			<time>2015-03-08T18:56:11Z</time>
			<fix>3d</fix>
		</trkpt>
		<trkpt lat="35.167752" lon="-106.440146">
			<ele>2222.94</ele>
			<time>2015-03-08T18:56:13Z</time>
			<fix>3d</fix>
		</trkpt>
		<trkpt lat="35.167749" lon="-106.440144">
			<ele>2222.95</ele>
			<time>2015-03-08T18:56:14Z</time>
			<fix>3d</fix>
		</trkpt>
		<trkpt lat="35.167742" lon="-106.440145">
			<ele>2223.06</ele>
			<time>2015-03-08T18:56:15Z</time>
			<fix>3d</fix>
		</trkpt>
		<trkpt lat="35.167721" lon="-106.440148">
			<ele>2223.06</ele>
			<time>2015-03-08T18:56:16Z</time>
			<fix>3d</fix>
		</trkpt>
		<trkpt lat="35.167718" lon="-106.440147">
			<ele>2223.19</ele>
			<time>2015-03-08T18:56:21Z</time>
			<fix>3d</fix>
		</trkpt>
		<trkpt lat="35.167711" lon="-106.440145">
			<ele>2223.58</ele>
			<time>2015-03-08T18:56:23Z</time>
			<fix>3d</fix>
		</trkpt>
		<trkpt lat="35.167700" lon="-106.440151">
			<ele>2222.97</ele>
			<time>2015-03-08T18:56:25Z</time>
			<fix>3d</fix>
		</trkpt>
		<trkpt lat="35.167688" lon="-106.440159">
			<ele>2222.77</ele>
			<time>2015-03-08T18:56:26Z</time>
			<fix>3d</fix>
		</trkpt>
		<trkpt lat="35.167677" lon="-106.440169">
			<ele>2222.78</ele>
			<time>2015-03-08T18:56:27Z</time>
			<fix>3d</fix>
		</trkpt>
		<trkpt lat="35.167663" lon="-106.440185">
			<ele>2222.78</ele>
			<time>2015-03-08T18:56:28Z</time>
			<fix>3d</fix>
		</trkpt>
		<trkpt lat="35.167659" lon="-106.440186">
			<ele>2222.68</ele>
			<time>2015-03-08T18:56:29Z</time>
			<fix>3d</fix>
		</trkpt>
		<trkpt lat="35.167642" lon="-106.440190">
			<ele>2222.69</ele>
			<time>2015-03-08T18:56:30Z</time>
			<fix>3d</fix>
		</trkpt>
		<trkpt lat="35.167636" lon="-106.440191">
			<ele>2222.59</ele>
			<time>2015-03-08T18:56:31Z</time>
			<fix>3d</fix>
		</trkpt>
		<trkpt lat="35.167613" lon="-106.440197">
			<ele>2222.59</ele>
			<time>2015-03-08T18:56:32Z</time>
			<fix>3d</fix>
		</trkpt>
		<trkpt lat="35.167601" lon="-106.440200">
			<ele>2222.29</ele>
			<time>2015-03-08T18:56:34Z</time>
			<fix>3d</fix>
		</trkpt>
		<trkpt lat="35.167598" lon="-106.440197">
			<ele>2221.99</ele>
			<time>2015-03-08T18:56:36Z</time>
			<fix>3d</fix>
		</trkpt>
		<trkpt lat="35.167592" lon="-106.440204">
			<ele>2221.79</ele>
			<time>2015-03-08T18:56:37Z</time>
			<fix>3d</fix>
		</trkpt>
		<trkpt lat="35.167576" lon="-106.440222">
			<ele>2221.48</ele>
			<time>2015-03-08T18:56:38Z</time>
			<fix>3d</fix>
		</trkpt>
		<trkpt lat="35.167570" lon="-106.440228">
			<ele>2221.39</ele>
			<time>2015-03-08T18:56:39Z</time>
			<fix>3d</fix>
		</trkpt>
		<trkpt lat="35.167565" lon="-106.440236">
			<ele>2221.39</ele>
			<time>2015-03-08T18:56:40Z</time>
			<fix>3d</fix>
		</trkpt>
		<trkpt lat="35.167546" lon="-106.440272">
			<ele>2221.09</ele>
			<time>2015-03-08T18:56:41Z</time>
			<fix>3d</fix>
		</trkpt>
		<trkpt lat="35.167541" lon="-106.440274">
			<ele>2220.79</ele>
			<time>2015-03-08T18:56:43Z</time>
			<fix>3d</fix>
		</trkpt>
		<trkpt lat="35.167523" lon="-106.440287">
			<ele>2220.79</ele>
			<time>2015-03-08T18:56:44Z</time>
			<fix>3d</fix>
		</trkpt>
		<trkpt lat="35.167516" lon="-106.440289">
			<ele>2220.70</ele>
			<time>2015-03-08T18:56:46Z</time>
			<fix>3d</fix>
		</trkpt>
		<trkpt lat="35.167491" lon="-106.440307">
			<ele>2220.71</ele>
			<time>2015-03-08T18:56:47Z</time>
			<fix>3d</fix>
		</trkpt>
		<trkpt lat="35.167486" lon="-106.440313">
			<ele>2220.63</ele>
			<time>2015-03-08T18:56:50Z</time>
			<fix>3d</fix>
		</trkpt>
		<trkpt lat="35.167481" lon="-106.440318">
			<ele>2220.53</ele>
			<time>2015-03-08T18:56:52Z</time>
			<fix>3d</fix>
		</trkpt>
		<trkpt lat="35.167475" lon="-106.440323">
			<ele>2220.44</ele>
			<time>2015-03-08T18:56:54Z</time>
			<fix>3d</fix>
		</trkpt>
		<trkpt lat="35.167470" lon="-106.440328">
			<ele>2220.46</ele>
			<time>2015-03-08T18:56:56Z</time>
			<fix>3d</fix>
		</trkpt>
		<trkpt lat="35.167464" lon="-106.440332">
			<ele>2220.37</ele>
			<time>2015-03-08T18:56:58Z</time>
			<fix>3d</fix>
		</trkpt>
		<trkpt lat="35.167457" lon="-106.440336">
			<ele>2220.38</ele>
			<time>2015-03-08T18:57:00Z</time>
			<fix>3d</fix>
		</trkpt>
		<trkpt lat="35.167451" lon="-106.440339">
			<ele>2220.39</ele>
			<time>2015-03-08T18:57:02Z</time>
			<fix>3d</fix>
		</trkpt>
		<trkpt lat="35.167443" lon="-106.440344">
			<ele>2220.41</ele>
			<time>2015-03-08T18:57:05Z</time>
			<fix>3d</fix>
		</trkpt>
		<trkpt lat="35.167435" lon="-106.440348">
			<ele>2220.43</ele>
			<time>2015-03-08T18:57:08Z</time>
			<fix>3d</fix>
		</trkpt>
		<trkpt lat="35.167427" lon="-106.440353">
			<ele>2220.46</ele>
			<time>2015-03-08T18:57:12Z</time>
			<fix>3d</fix>
		</trkpt>
		<trkpt lat="35.167420" lon="-106.440355">
			<ele>2220.37</ele>
			<time>2015-03-08T18:57:14Z</time>
			<fix>3d</fix>
		</trkpt>
		<trkpt lat="35.167379" lon="-106.440387">
			<ele>2220.27</ele>
			<time>2015-03-08T18:57:15Z</time>
			<fix>3d</fix>
		</trkpt>
		<trkpt lat="35.167376" lon="-106.440396">
			<ele>2220.00</ele>
			<time>2015-03-08T18:57:22Z</time>
			<fix>3d</fix>
		</trkpt>
		<trkpt lat="35.167374" lon="-106.440403">
			<ele>2220.01</ele>
			<time>2015-03-08T18:57:23Z</time>
			<fix>3d</fix>
		</trkpt>
		<trkpt lat="35.167372" lon="-106.440409">
			<ele>2219.91</ele>
			<time>2015-03-08T18:57:24Z</time>
			<fix>3d</fix>
		</trkpt>
		<trkpt lat="35.167363" lon="-106.440422">
			<ele>2219.82</ele>
			<time>2015-03-08T18:57:25Z</time>
			<fix>3d</fix>
		</trkpt>
		<trkpt lat="35.167355" lon="-106.440424">
			<ele>2219.53</ele>
			<time>2015-03-08T18:57:28Z</time>
			<fix>3d</fix>
		</trkpt>
		<trkpt lat="35.167351" lon="-106.440433">
			<ele>2219.54</ele>
			<time>2015-03-08T18:57:30Z</time>
			<fix>3d</fix>
		</trkpt>
		<trkpt lat="35.167350" lon="-106.440444">
			<ele>2219.55</ele>
			<time>2015-03-08T18:57:31Z</time>
			<fix>3d</fix>
		</trkpt>
		<trkpt lat="35.167351" lon="-106.440482">
			<ele>2219.55</ele>
			<time>2015-03-08T18:57:32Z</time>
			<fix>3d</fix>
		</trkpt>
		<trkpt lat="35.167352" lon="-106.440486">
			<ele>2219.57</ele>
			<time>2015-03-08T18:57:34Z</time>
			<fix>3d</fix>
		</trkpt>
		<trkpt lat="35.167354" lon="-106.440493">
			<ele>2219.47</ele>
			<time>2015-03-08T18:57:35Z</time>
			<fix>3d</fix>
		</trkpt>
		<trkpt lat="35.167360" lon="-106.440518">
			<ele>2219.48</ele>
			<time>2015-03-08T18:57:36Z</time>
			<fix>3d</fix>
		</trkpt>
		<trkpt lat="35.167359" lon="-106.440526">
			<ele>2219.11</ele>
			<time>2015-03-08T18:57:41Z</time>
			<fix>3d</fix>
		</trkpt>
		<trkpt lat="35.167357" lon="-106.440555">
			<ele>2219.02</ele>
			<time>2015-03-08T18:57:42Z</time>
			<fix>3d</fix>
		</trkpt>
		<trkpt lat="35.167359" lon="-106.440564">
			<ele>2218.93</ele>
			<time>2015-03-08T18:57:44Z</time>
			<fix>3d</fix>
		</trkpt>
		<trkpt lat="35.167358" lon="-106.440574">
			<ele>2218.85</ele>
			<time>2015-03-08T18:57:47Z</time>
			<fix>3d</fix>
		</trkpt>
		<trkpt lat="35.167351" lon="-106.440593">
			<ele>2218.76</ele>
			<time>2015-03-08T18:57:48Z</time>
			<fix>3d</fix>
		</trkpt>
		<trkpt lat="35.167343" lon="-106.440611">
			<ele>2218.66</ele>
			<time>2015-03-08T18:57:49Z</time>
			<fix>3d</fix>
		</trkpt>
		<trkpt lat="35.167335" lon="-106.440615">
			<ele>2218.57</ele>
			<time>2015-03-08T18:57:50Z</time>
			<fix>3d</fix>
		</trkpt>
		<trkpt lat="35.167330" lon="-106.440617">
			<ele>2218.59</ele>
			<time>2015-03-08T18:57:52Z</time>
			<fix>3d</fix>
		</trkpt>
		<trkpt lat="35.167321" lon="-106.440650">
			<ele>2218.60</ele>
			<time>2015-03-08T18:57:53Z</time>
			<fix>3d</fix>
		</trkpt>
		<trkpt lat="35.167319" lon="-106.440652">
			<ele>2218.31</ele>
			<time>2015-03-08T18:57:55Z</time>
			<fix>3d</fix>
		</trkpt>
		<trkpt lat="35.167322" lon="-106.440684">
			<ele>2217.90</ele>
			<time>2015-03-08T18:57:56Z</time>
			<fix>3d</fix>
		</trkpt>
		<trkpt lat="35.167322" lon="-106.440694">
			<ele>2217.61</ele>
			<time>2015-03-08T18:57:58Z</time>
			<fix>3d</fix>
		</trkpt>
		<trkpt lat="35.167319" lon="-106.440698">
			<ele>2217.63</ele>
			<time>2015-03-08T18:58:00Z</time>
			<fix>3d</fix>
		</trkpt>
		<trkpt lat="35.167319" lon="-106.440732">
			<ele>2217.54</ele>
			<time>2015-03-08T18:58:01Z</time>
			<fix>3d</fix>
		</trkpt>
		<trkpt lat="35.167311" lon="-106.440741">
			<ele>2217.44</ele>
			<time>2015-03-08T18:58:02Z</time>
			<fix>3d</fix>
		</trkpt>
		<trkpt lat="35.167304" lon="-106.440758">
			<ele>2216.76</ele>
			<time>2015-03-08T18:58:06Z</time>
			<fix>3d</fix>
		</trkpt>
		<trkpt lat="35.167299" lon="-106.440771">
			<ele>2216.36</ele>
			<time>2015-03-08T18:58:07Z</time>
			<fix>3d</fix>
		</trkpt>
		<trkpt lat="35.167293" lon="-106.440778">
			<ele>2216.18</ele>
			<time>2015-03-08T18:58:10Z</time>
			<fix>3d</fix>
		</trkpt>
		<trkpt lat="35.167292" lon="-106.440788">
			<ele>2216.00</ele>
			<time>2015-03-08T18:58:13Z</time>
			<fix>3d</fix>
		</trkpt>
		<trkpt lat="35.167295" lon="-106.440814">
			<ele>2215.90</ele>
			<time>2015-03-08T18:58:14Z</time>
			<fix>3d</fix>
		</trkpt>
		<trkpt lat="35.167298" lon="-106.440837">
			<ele>2215.81</ele>
			<time>2015-03-08T18:58:15Z</time>
			<fix>3d</fix>
		</trkpt>
		<trkpt lat="35.167302" lon="-106.440858">
			<ele>2215.82</ele>
			<time>2015-03-08T18:58:16Z</time>
			<fix>3d</fix>
		</trkpt>
		<trkpt lat="35.167304" lon="-106.440867">
			<ele>2215.42</ele>
			<time>2015-03-08T18:58:18Z</time>
			<fix>3d</fix>
		</trkpt>
		<trkpt lat="35.167330" lon="-106.440947">
			<ele>2215.12</ele>
			<time>2015-03-08T18:58:20Z</time>
			<fix>3d</fix>
		</trkpt>
		<trkpt lat="35.167340" lon="-106.440960">
			<ele>2215.13</ele>
			<time>2015-03-08T18:58:21Z</time>
			<fix>3d</fix>
		</trkpt>
		<trkpt lat="35.167345" lon="-106.440968">
			<ele>2215.03</ele>
			<time>2015-03-08T18:58:22Z</time>
			<fix>3d</fix>
		</trkpt>
		<trkpt lat="35.167345" lon="-106.440977">
			<ele>2214.53</ele>
			<time>2015-03-08T18:58:24Z</time>
			<fix>3d</fix>
		</trkpt>
		<trkpt lat="35.167345" lon="-106.440985">
			<ele>2214.43</ele>
			<time>2015-03-08T18:58:25Z</time>
			<fix>3d</fix>
		</trkpt>
		<trkpt lat="35.167341" lon="-106.440992">
			<ele>2214.24</ele>
			<time>2015-03-08T18:58:27Z</time>
			<fix>3d</fix>
		</trkpt>
		<trkpt lat="35.167338" lon="-106.441000">
			<ele>2214.14</ele>
			<time>2015-03-08T18:58:28Z</time>
			<fix>3d</fix>
		</trkpt>
		<trkpt lat="35.167330" lon="-106.441020">
			<ele>2214.05</ele>
			<time>2015-03-08T18:58:29Z</time>
			<fix>3d</fix>
		</trkpt>
		<trkpt lat="35.167327" lon="-106.441030">
			<ele>2213.85</ele>
			<time>2015-03-08T18:58:31Z</time>
			<fix>3d</fix>
		</trkpt>
		<trkpt lat="35.167325" lon="-106.441039">
			<ele>2213.76</ele>
			<time>2015-03-08T18:58:33Z</time>
			<fix>3d</fix>
		</trkpt>
		<trkpt lat="35.167325" lon="-106.441050">
			<ele>2213.66</ele>
			<time>2015-03-08T18:58:34Z</time>
			<fix>3d</fix>
		</trkpt>
		<trkpt lat="35.167325" lon="-106.441058">
			<ele>2213.57</ele>
			<time>2015-03-08T18:58:37Z</time>
			<fix>3d</fix>
		</trkpt>
		<trkpt lat="35.167325" lon="-106.441068">
			<ele>2213.27</ele>
			<time>2015-03-08T18:58:39Z</time>
			<fix>3d</fix>
		</trkpt>
		<trkpt lat="35.167326" lon="-106.441075">
			<ele>2213.18</ele>
			<time>2015-03-08T18:58:40Z</time>
			<fix>3d</fix>
		</trkpt>
		<trkpt lat="35.167333" lon="-106.441105">
			<ele>2213.18</ele>
			<time>2015-03-08T18:58:41Z</time>
			<fix>3d</fix>
		</trkpt>
		<trkpt lat="35.167341" lon="-106.441129">
			<ele>2213.19</ele>
			<time>2015-03-08T18:58:42Z</time>
			<fix>3d</fix>
		</trkpt>
		<trkpt lat="35.167378" lon="-106.441198">
			<ele>2213.09</ele>
			<time>2015-03-08T18:58:44Z</time>
			<fix>3d</fix>
		</trkpt>
		<trkpt lat="35.167386" lon="-106.441204">
			<ele>2212.99</ele>
			<time>2015-03-08T18:58:45Z</time>
			<fix>3d</fix>
		</trkpt>
		<trkpt lat="35.167392" lon="-106.441206">
			<ele>2213.00</ele>
			<time>2015-03-08T18:58:46Z</time>
			<fix>3d</fix>
		</trkpt>
		<trkpt lat="35.167398" lon="-106.441208">
			<ele>2212.90</ele>
			<time>2015-03-08T18:58:47Z</time>
			<fix>3d</fix>
		</trkpt>
		<trkpt lat="35.167402" lon="-106.441210">
			<ele>2212.90</ele>
			<time>2015-03-08T18:58:48Z</time>
			<fix>3d</fix>
		</trkpt>
		<trkpt lat="35.167409" lon="-106.441214">
			<ele>2212.80</ele>
			<time>2015-03-08T18:58:49Z</time>
			<fix>3d</fix>
		</trkpt>
		<trkpt lat="35.167419" lon="-106.441223">
			<ele>2212.70</ele>
			<time>2015-03-08T18:58:52Z</time>
			<fix>3d</fix>
		</trkpt>
		<trkpt lat="35.167419" lon="-106.441235">
			<ele>2212.70</ele>
			<time>2015-03-08T18:58:53Z</time>
			<fix>3d</fix>
		</trkpt>
		<trkpt lat="35.167423" lon="-106.441244">
			<ele>2212.61</ele>
			<time>2015-03-08T18:58:58Z</time>
			<fix>3d</fix>
		</trkpt>
		<trkpt lat="35.167422" lon="-106.441250">
			<ele>2212.62</ele>
			<time>2015-03-08T18:59:05Z</time>
			<fix>3d</fix>
		</trkpt>
		<trkpt lat="35.167424" lon="-106.441256">
			<ele>2212.62</ele>
			<time>2015-03-08T18:59:06Z</time>
			<fix>3d</fix>
		</trkpt>
		<trkpt lat="35.167426" lon="-106.441264">
			<ele>2212.52</ele>
			<time>2015-03-08T18:59:07Z</time>
			<fix>3d</fix>
		</trkpt>
		<trkpt lat="35.167433" lon="-106.441285">
			<ele>2212.42</ele>
			<time>2015-03-08T18:59:08Z</time>
			<fix>3d</fix>
		</trkpt>
		<trkpt lat="35.167434" lon="-106.441291">
			<ele>2212.32</ele>
			<time>2015-03-08T18:59:09Z</time>
			<fix>3d</fix>
		</trkpt>
		<trkpt lat="35.167435" lon="-106.441298">
			<ele>2212.22</ele>
			<time>2015-03-08T18:59:10Z</time>
			<fix>3d</fix>
		</trkpt>
		<trkpt lat="35.167439" lon="-106.441322">
			<ele>2212.11</ele>
			<time>2015-03-08T18:59:11Z</time>
			<fix>3d</fix>
		</trkpt>
		<trkpt lat="35.167437" lon="-106.441331">
			<ele>2211.08</ele>
			<time>2015-03-08T18:59:15Z</time>
			<fix>3d</fix>
		</trkpt>
		<trkpt lat="35.167437" lon="-106.441339">
			<ele>2210.88</ele>
			<time>2015-03-08T18:59:16Z</time>
			<fix>3d</fix>
		</trkpt>
		<trkpt lat="35.167436" lon="-106.441347">
			<ele>2210.47</ele>
			<time>2015-03-08T18:59:17Z</time>
			<fix>3d</fix>
		</trkpt>
		<trkpt lat="35.167433" lon="-106.441365">
			<ele>2210.47</ele>
			<time>2015-03-08T18:59:18Z</time>
			<fix>3d</fix>
		</trkpt>
		<trkpt lat="35.167428" lon="-106.441375">
			<ele>2210.47</ele>
			<time>2015-03-08T18:59:19Z</time>
			<fix>3d</fix>
		</trkpt>
		<trkpt lat="35.167424" lon="-106.441384">
			<ele>2210.37</ele>
			<time>2015-03-08T18:59:21Z</time>
			<fix>3d</fix>
		</trkpt>
		<trkpt lat="35.167420" lon="-106.441390">
			<ele>2210.26</ele>
			<time>2015-03-08T18:59:22Z</time>
			<fix>3d</fix>
		</trkpt>
		<trkpt lat="35.167416" lon="-106.441395">
			<ele>2210.27</ele>
			<time>2015-03-08T18:59:23Z</time>
			<fix>3d</fix>
		</trkpt>
		<trkpt lat="35.167411" lon="-106.441401">
			<ele>2210.27</ele>
			<time>2015-03-08T18:59:24Z</time>
			<fix>3d</fix>
		</trkpt>
		<trkpt lat="35.167399" lon="-106.441414">
			<ele>2210.27</ele>
			<time>2015-03-08T18:59:25Z</time>
			<fix>3d</fix>
		</trkpt>
		<trkpt lat="35.167395" lon="-106.441416">
			<ele>2210.16</ele>
			<time>2015-03-08T18:59:26Z</time>
			<fix>3d</fix>
		</trkpt>
		<trkpt lat="35.167384" lon="-106.441422">
			<ele>2210.06</ele>
			<time>2015-03-08T18:59:27Z</time>
			<fix>3d</fix>
		</trkpt>
		<trkpt lat="35.167377" lon="-106.441427">
			<ele>2209.34</ele>
			<time>2015-03-08T18:59:29Z</time>
			<fix>3d</fix>
		</trkpt>
		<trkpt lat="35.167373" lon="-106.441426">
			<ele>2208.82</ele>
			<time>2015-03-08T18:59:31Z</time>
			<fix>3d</fix>
		</trkpt>
		<trkpt lat="35.167368" lon="-106.441434">
			<ele>2208.82</ele>
			<time>2015-03-08T18:59:32Z</time>
			<fix>3d</fix>
		</trkpt>
		<trkpt lat="35.167361" lon="-106.441440">
			<ele>2208.21</ele>
			<time>2015-03-08T18:59:37Z</time>
			<fix>3d</fix>
		</trkpt>
		<trkpt lat="35.167360" lon="-106.441443">
			<ele>2208.11</ele>
			<time>2015-03-08T18:59:39Z</time>
			<fix>3d</fix>
		</trkpt>
		<trkpt lat="35.167362" lon="-106.441457">
			<ele>2208.01</ele>
			<time>2015-03-08T18:59:40Z</time>
			<fix>3d</fix>
		</trkpt>
		<trkpt lat="35.167365" lon="-106.441467">
			<ele>2208.01</ele>
			<time>2015-03-08T18:59:42Z</time>
			<fix>3d</fix>
		</trkpt>
		<trkpt lat="35.167369" lon="-106.441491">
			<ele>2208.01</ele>
			<time>2015-03-08T18:59:43Z</time>
			<fix>3d</fix>
		</trkpt>
		<trkpt lat="35.167370" lon="-106.441492">
			<ele>2207.91</ele>
			<time>2015-03-08T18:59:45Z</time>
			<fix>3d</fix>
		</trkpt>
		<trkpt lat="35.167381" lon="-106.441512">
			<ele>2207.50</ele>
			<time>2015-03-08T18:59:48Z</time>
			<fix>3d</fix>
		</trkpt>
		<trkpt lat="35.167384" lon="-106.441519">
			<ele>2206.58</ele>
			<time>2015-03-08T18:59:53Z</time>
			<fix>3d</fix>
		</trkpt>
		<trkpt lat="35.167389" lon="-106.441533">
			<ele>2206.48</ele>
			<time>2015-03-08T18:59:54Z</time>
			<fix>3d</fix>
		</trkpt>
		<trkpt lat="35.167385" lon="-106.441539">
			<ele>2205.77</ele>
			<time>2015-03-08T18:59:59Z</time>
			<fix>3d</fix>
		</trkpt>
		<trkpt lat="35.167381" lon="-106.441541">
			<ele>2204.95</ele>
			<time>2015-03-08T19:00:01Z</time>
			<fix>3d</fix>
		</trkpt>
		<trkpt lat="35.167376" lon="-106.441541">
			<ele>2204.95</ele>
			<time>2015-03-08T19:00:02Z</time>
			<fix>3d</fix>
		</trkpt>
		<trkpt lat="35.167364" lon="-106.441541">
			<ele>2204.95</ele>
			<time>2015-03-08T19:00:03Z</time>
			<fix>3d</fix>
		</trkpt>
		<trkpt lat="35.167351" lon="-106.441542">
			<ele>2204.85</ele>
			<time>2015-03-08T19:00:04Z</time>
			<fix>3d</fix>
		</trkpt>
		<trkpt lat="35.167342" lon="-106.441537">
			<ele>2204.55</ele>
			<time>2015-03-08T19:00:05Z</time>
			<fix>3d</fix>
		</trkpt>
		<trkpt lat="35.167337" lon="-106.441533">
			<ele>2203.93</ele>
			<time>2015-03-08T19:00:07Z</time>
			<fix>3d</fix>
		</trkpt>
		<trkpt lat="35.167330" lon="-106.441532">
			<ele>2204.04</ele>
			<time>2015-03-08T19:00:09Z</time>
			<fix>3d</fix>
		</trkpt>
		<trkpt lat="35.167314" lon="-106.441534">
			<ele>2204.04</ele>
			<time>2015-03-08T19:00:10Z</time>
			<fix>3d</fix>
		</trkpt>
		<trkpt lat="35.167296" lon="-106.441542">
			<ele>2204.14</ele>
			<time>2015-03-08T19:00:11Z</time>
			<fix>3d</fix>
		</trkpt>
		<trkpt lat="35.167288" lon="-106.441540">
			<ele>2204.25</ele>
			<time>2015-03-08T19:00:14Z</time>
			<fix>3d</fix>
		</trkpt>
		<trkpt lat="35.167277" lon="-106.441545">
			<ele>2204.25</ele>
			<time>2015-03-08T19:00:15Z</time>
			<fix>3d</fix>
		</trkpt>
		<trkpt lat="35.167267" lon="-106.441550">
			<ele>2204.25</ele>
			<time>2015-03-08T19:00:16Z</time>
			<fix>3d</fix>
		</trkpt>
		<trkpt lat="35.167259" lon="-106.441556">
			<ele>2204.25</ele>
			<time>2015-03-08T19:00:17Z</time>
			<fix>3d</fix>
		</trkpt>
		<trkpt lat="35.167252" lon="-106.441557">
			<ele>2204.25</ele>
			<time>2015-03-08T19:00:19Z</time>
			<fix>3d</fix>
		</trkpt>
		<trkpt lat="35.167243" lon="-106.441570">
			<ele>2204.15</ele>
			<time>2015-03-08T19:00:20Z</time>
			<fix>3d</fix>
		</trkpt>
		<trkpt lat="35.167235" lon="-106.441574">
			<ele>2204.02</ele>
			<time>2015-03-08T19:00:22Z</time>
			<fix>3d</fix>
		</trkpt>
		<trkpt lat="35.167226" lon="-106.441590">
			<ele>2203.71</ele>
			<time>2015-03-08T19:00:23Z</time>
			<fix>3d</fix>
		</trkpt>
		<trkpt lat="35.167186" lon="-106.441648">
			<ele>2202.90</ele>
			<time>2015-03-08T19:00:25Z</time>
			<fix>3d</fix>
		</trkpt>
		<trkpt lat="35.167178" lon="-106.441651">
			<ele>2202.50</ele>
			<time>2015-03-08T19:00:28Z</time>
			<fix>3d</fix>
		</trkpt>
		<trkpt lat="35.167160" lon="-106.441676">
			<ele>2202.50</ele>
			<time>2015-03-08T19:00:29Z</time>
			<fix>3d</fix>
		</trkpt>
		<trkpt lat="35.167155" lon="-106.441680">
			<ele>2202.50</ele>
			<time>2015-03-08T19:00:30Z</time>
			<fix>3d</fix>
		</trkpt>
		<trkpt lat="35.167151" lon="-106.441690">
			<ele>2202.50</ele>
			<time>2015-03-08T19:00:31Z</time>
			<fix>3d</fix>
		</trkpt>
		<trkpt lat="35.167145" lon="-106.441696">
			<ele>2202.51</ele>
			<time>2015-03-08T19:00:32Z</time>
			<fix>3d</fix>
		</trkpt>
		<trkpt lat="35.167133" lon="-106.441707">
			<ele>2202.41</ele>
			<time>2015-03-08T19:00:33Z</time>
			<fix>3d</fix>
		</trkpt>
		<trkpt lat="35.167127" lon="-106.441712">
			<ele>2202.31</ele>
			<time>2015-03-08T19:00:35Z</time>
			<fix>3d</fix>
		</trkpt>
		<trkpt lat="35.167123" lon="-106.441715">
			<ele>2202.21</ele>
			<time>2015-03-08T19:00:36Z</time>
			<fix>3d</fix>
		</trkpt>
		<trkpt lat="35.167118" lon="-106.441719">
			<ele>2201.90</ele>
			<time>2015-03-08T19:00:38Z</time>
			<fix>3d</fix>
		</trkpt>
		<trkpt lat="35.167118" lon="-106.441728">
			<ele>2201.80</ele>
			<time>2015-03-08T19:00:39Z</time>
			<fix>3d</fix>
		</trkpt>
		<trkpt lat="35.167126" lon="-106.441790">
			<ele>2201.30</ele>
			<time>2015-03-08T19:00:44Z</time>
			<fix>3d</fix>
		</trkpt>
		<trkpt lat="35.167120" lon="-106.441796">
			<ele>2201.20</ele>
			<time>2015-03-08T19:00:45Z</time>
			<fix>3d</fix>
		</trkpt>
		<trkpt lat="35.167113" lon="-106.441800">
			<ele>2201.11</ele>
			<time>2015-03-08T19:00:49Z</time>
			<fix>3d</fix>
		</trkpt>
		<trkpt lat="35.167110" lon="-106.441814">
			<ele>2201.11</ele>
			<time>2015-03-08T19:00:50Z</time>
			<fix>3d</fix>
		</trkpt>
		<trkpt lat="35.167108" lon="-106.441816">
			<ele>2201.01</ele>
			<time>2015-03-08T19:00:51Z</time>
			<fix>3d</fix>
		</trkpt>
		<trkpt lat="35.167104" lon="-106.441833">
			<ele>2201.01</ele>
			<time>2015-03-08T19:00:52Z</time>
			<fix>3d</fix>
		</trkpt>
		<trkpt lat="35.167099" lon="-106.441847">
			<ele>2201.02</ele>
			<time>2015-03-08T19:00:53Z</time>
			<fix>3d</fix>
		</trkpt>
		<trkpt lat="35.167096" lon="-106.441849">
			<ele>2201.02</ele>
			<time>2015-03-08T19:00:54Z</time>
			<fix>3d</fix>
		</trkpt>
		<trkpt lat="35.167090" lon="-106.441865">
			<ele>2200.92</ele>
			<time>2015-03-08T19:00:55Z</time>
			<fix>3d</fix>
		</trkpt>
		<trkpt lat="35.167085" lon="-106.441879">
			<ele>2200.92</ele>
			<time>2015-03-08T19:00:56Z</time>
			<fix>3d</fix>
		</trkpt>
		<trkpt lat="35.167079" lon="-106.441887">
			<ele>2200.82</ele>
			<time>2015-03-08T19:00:59Z</time>
			<fix>3d</fix>
		</trkpt>
		<trkpt lat="35.167075" lon="-106.441971">
			<ele>2200.62</ele>
			<time>2015-03-08T19:01:01Z</time>
			<fix>3d</fix>
		</trkpt>
		<trkpt lat="35.167074" lon="-106.441980">
			<ele>2200.42</ele>
			<time>2015-03-08T19:01:03Z</time>
			<fix>3d</fix>
		</trkpt>
		<trkpt lat="35.167075" lon="-106.441992">
			<ele>2200.02</ele>
			<time>2015-03-08T19:01:04Z</time>
			<fix>3d</fix>
		</trkpt>
		<trkpt lat="35.167074" lon="-106.442005">
			<ele>2199.71</ele>
			<time>2015-03-08T19:01:05Z</time>
			<fix>3d</fix>
		</trkpt>
		<trkpt lat="35.167074" lon="-106.442018">
			<ele>2199.61</ele>
			<time>2015-03-08T19:01:06Z</time>
			<fix>3d</fix>
		</trkpt>
		<trkpt lat="35.167071" lon="-106.442060">
			<ele>2199.51</ele>
			<time>2015-03-08T19:01:07Z</time>
			<fix>3d</fix>
		</trkpt>
		<trkpt lat="35.167071" lon="-106.442062">
			<ele>2199.31</ele>
			<time>2015-03-08T19:01:08Z</time>
			<fix>3d</fix>
		</trkpt>
		<trkpt lat="35.167067" lon="-106.442072">
			<ele>2199.11</ele>
			<time>2015-03-08T19:01:09Z</time>
			<fix>3d</fix>
		</trkpt>
		<trkpt lat="35.167064" lon="-106.442079">
			<ele>2199.11</ele>
			<time>2015-03-08T19:01:11Z</time>
			<fix>3d</fix>
		</trkpt>
		<trkpt lat="35.167061" lon="-106.442088">
			<ele>2199.02</ele>
			<time>2015-03-08T19:01:13Z</time>
			<fix>3d</fix>
		</trkpt>
		<trkpt lat="35.167060" lon="-106.442100">
			<ele>2199.02</ele>
			<time>2015-03-08T19:01:14Z</time>
			<fix>3d</fix>
		</trkpt>
		<trkpt lat="35.167049" lon="-106.442138">
			<ele>2198.92</ele>
			<time>2015-03-08T19:01:15Z</time>
			<fix>3d</fix>
		</trkpt>
		<trkpt lat="35.167044" lon="-106.442146">
			<ele>2198.82</ele>
			<time>2015-03-08T19:01:17Z</time>
			<fix>3d</fix>
		</trkpt>
		<trkpt lat="35.167035" lon="-106.442160">
			<ele>2198.31</ele>
			<time>2015-03-08T19:01:18Z</time>
			<fix>3d</fix>
		</trkpt>
		<trkpt lat="35.167033" lon="-106.442159">
			<ele>2197.70</ele>
			<time>2015-03-08T19:01:20Z</time>
			<fix>3d</fix>
		</trkpt>
		<trkpt lat="35.167062" lon="-106.442184">
			<ele>2197.36</ele>
			<time>2015-03-08T19:01:24Z</time>
			<fix>3d</fix>
		</trkpt>
		<trkpt lat="35.167064" lon="-106.442186">
			<ele>2196.65</ele>
			<time>2015-03-08T19:01:26Z</time>
			<fix>3d</fix>
		</trkpt>
		<trkpt lat="35.167069" lon="-106.442200">
			<ele>2196.55</ele>
			<time>2015-03-08T19:01:27Z</time>
			<fix>3d</fix>
		</trkpt>
		<trkpt lat="35.167070" lon="-106.442200">
			<ele>2196.24</ele>
			<time>2015-03-08T19:01:29Z</time>
			<fix>3d</fix>
		</trkpt>
		<trkpt lat="35.167071" lon="-106.442214">
			<ele>2196.24</ele>
			<time>2015-03-08T19:01:30Z</time>
			<fix>3d</fix>
		</trkpt>
		<trkpt lat="35.167071" lon="-106.442222">
			<ele>2195.32</ele>
			<time>2015-03-08T19:01:36Z</time>
			<fix>3d</fix>
		</trkpt>
		<trkpt lat="35.167068" lon="-106.442227">
			<ele>2195.22</ele>
			<time>2015-03-08T19:01:37Z</time>
			<fix>3d</fix>
		</trkpt>
		<trkpt lat="35.167052" lon="-106.442257">
			<ele>2195.12</ele>
			<time>2015-03-08T19:01:40Z</time>
			<fix>3d</fix>
		</trkpt>
		<trkpt lat="35.167043" lon="-106.442257">
			<ele>2195.02</ele>
			<time>2015-03-08T19:01:42Z</time>
			<fix>3d</fix>
		</trkpt>
		<trkpt lat="35.167038" lon="-106.442256">
			<ele>2194.92</ele>
			<time>2015-03-08T19:01:43Z</time>
			<fix>3d</fix>
		</trkpt>
		<trkpt lat="35.167022" lon="-106.442258">
			<ele>2194.92</ele>
			<time>2015-03-08T19:01:44Z</time>
			<fix>3d</fix>
		</trkpt>
		<trkpt lat="35.167020" lon="-106.442257">
			<ele>2194.92</ele>
			<time>2015-03-08T19:01:45Z</time>
			<fix>3d</fix>
		</trkpt>
		<trkpt lat="35.167007" lon="-106.442265">
			<ele>2194.71</ele>
			<time>2015-03-08T19:01:46Z</time>
			<fix>3d</fix>
		</trkpt>
		<trkpt lat="35.167004" lon="-106.442263">
			<ele>2194.61</ele>
			<time>2015-03-08T19:01:47Z</time>
			<fix>3d</fix>
		</trkpt>
		<trkpt lat="35.166991" lon="-106.442277">
			<ele>2194.51</ele>
			<time>2015-03-08T19:01:48Z</time>
			<fix>3d</fix>
		</trkpt>
		<trkpt lat="35.166986" lon="-106.442280">
			<ele>2194.30</ele>
			<time>2015-03-08T19:01:50Z</time>
			<fix>3d</fix>
		</trkpt>
		<trkpt lat="35.166981" lon="-106.442285">
			<ele>2192.87</ele>
			<time>2015-03-08T19:01:53Z</time>
			<fix>3d</fix>
		</trkpt>
		<trkpt lat="35.166976" lon="-106.442292">
			<ele>2192.87</ele>
			<time>2015-03-08T19:01:54Z</time>
			<fix>3d</fix>
		</trkpt>
		<trkpt lat="35.166970" lon="-106.442299">
			<ele>2192.87</ele>
			<time>2015-03-08T19:01:55Z</time>
			<fix>3d</fix>
		</trkpt>
		<trkpt lat="35.166946" lon="-106.442322">
			<ele>2192.87</ele>
			<time>2015-03-08T19:01:56Z</time>
			<fix>3d</fix>
		</trkpt>
		<trkpt lat="35.166939" lon="-106.442328">
			<ele>2192.77</ele>
			<time>2015-03-08T19:01:58Z</time>
			<fix>3d</fix>
		</trkpt>
		<trkpt lat="35.166925" lon="-106.442343">
			<ele>2192.77</ele>
			<time>2015-03-08T19:01:59Z</time>
			<fix>3d</fix>
		</trkpt>
		<trkpt lat="35.166914" lon="-106.442346">
			<ele>2192.26</ele>
			<time>2015-03-08T19:02:04Z</time>
			<fix>3d</fix>
		</trkpt>
		<trkpt lat="35.166910" lon="-106.442353">
			<ele>2192.16</ele>
			<time>2015-03-08T19:02:05Z</time>
			<fix>3d</fix>
		</trkpt>
		<trkpt lat="35.166905" lon="-106.442360">
			<ele>2192.06</ele>
			<time>2015-03-08T19:02:06Z</time>
			<fix>3d</fix>
		</trkpt>
		<trkpt lat="35.166900" lon="-106.442361">
			<ele>2191.66</ele>
			<time>2015-03-08T19:02:08Z</time>
			<fix>3d</fix>
		</trkpt>
		<trkpt lat="35.166892" lon="-106.442375">
			<ele>2191.66</ele>
			<time>2015-03-08T19:02:09Z</time>
			<fix>3d</fix>
		</trkpt>
		<trkpt lat="35.166879" lon="-106.442391">
			<ele>2191.46</ele>
			<time>2015-03-08T19:02:12Z</time>
			<fix>3d</fix>
		</trkpt>
		<trkpt lat="35.166848" lon="-106.442443">
			<ele>2191.26</ele>
			<time>2015-03-08T19:02:13Z</time>
			<fix>3d</fix>
		</trkpt>
		<trkpt lat="35.166846" lon="-106.442449">
			<ele>2190.15</ele>
			<time>2015-03-08T19:02:17Z</time>
			<fix>3d</fix>
		</trkpt>
		<trkpt lat="35.166847" lon="-106.442466">
			<ele>2190.16</ele>
			<time>2015-03-08T19:02:18Z</time>
			<fix>3d</fix>
		</trkpt>
		<trkpt lat="35.166850" lon="-106.442532">
			<ele>2190.06</ele>
			<time>2015-03-08T19:02:20Z</time>
			<fix>3d</fix>
		</trkpt>
		<trkpt lat="35.166848" lon="-106.442536">
			<ele>2189.09</ele>
			<time>2015-03-08T19:02:24Z</time>
			<fix>3d</fix>
		</trkpt>
		<trkpt lat="35.166844" lon="-106.442549">
			<ele>2188.89</ele>
			<time>2015-03-08T19:02:25Z</time>
			<fix>3d</fix>
		</trkpt>
		<trkpt lat="35.166843" lon="-106.442562">
			<ele>2188.89</ele>
			<time>2015-03-08T19:02:26Z</time>
			<fix>3d</fix>
		</trkpt>
		<trkpt lat="35.166839" lon="-106.442575">
			<ele>2188.90</ele>
			<time>2015-03-08T19:02:27Z</time>
			<fix>3d</fix>
		</trkpt>
		<trkpt lat="35.166833" lon="-106.442581">
			<ele>2188.71</ele>
			<time>2015-03-08T19:02:30Z</time>
			<fix>3d</fix>
		</trkpt>
		<trkpt lat="35.166857" lon="-106.442690">
			<ele>2188.72</ele>
			<time>2015-03-08T19:02:32Z</time>
			<fix>3d</fix>
		</trkpt>
		<trkpt lat="35.166867" lon="-106.442700">
			<ele>2188.72</ele>
			<time>2015-03-08T19:02:33Z</time>
			<fix>3d</fix>
		</trkpt>
		<trkpt lat="35.166875" lon="-106.442710">
			<ele>2188.73</ele>
			<time>2015-03-08T19:02:34Z</time>
			<fix>3d</fix>
		</trkpt>
		<trkpt lat="35.166883" lon="-106.442718">
			<ele>2188.73</ele>
			<time>2015-03-08T19:02:35Z</time>
			<fix>3d</fix>
		</trkpt>
		<trkpt lat="35.166888" lon="-106.442725">
			<ele>2188.74</ele>
			<time>2015-03-08T19:02:36Z</time>
			<fix>3d</fix>
		</trkpt>
		<trkpt lat="35.166893" lon="-106.442732">
			<ele>2188.54</ele>
			<time>2015-03-08T19:02:39Z</time>
			<fix>3d</fix>
		</trkpt>
		<trkpt lat="35.166896" lon="-106.442743">
			<ele>2188.55</ele>
			<time>2015-03-08T19:02:40Z</time>
			<fix>3d</fix>
		</trkpt>
		<trkpt lat="35.166895" lon="-106.442768">
			<ele>2188.46</ele>
			<time>2015-03-08T19:02:44Z</time>
			<fix>3d</fix>
		</trkpt>
		<trkpt lat="35.166885" lon="-106.442773">
			<ele>2188.37</ele>
			<time>2015-03-08T19:02:45Z</time>
			<fix>3d</fix>
		</trkpt>
		<trkpt lat="35.166881" lon="-106.442775">
			<ele>2188.17</ele>
			<time>2015-03-08T19:02:46Z</time>
			<fix>3d</fix>
		</trkpt>
		<trkpt lat="35.166871" lon="-106.442781">
			<ele>2188.07</ele>
			<time>2015-03-08T19:02:47Z</time>
			<fix>3d</fix>
		</trkpt>
		<trkpt lat="35.166866" lon="-106.442784">
			<ele>2187.37</ele>
			<time>2015-03-08T19:02:50Z</time>
			<fix>3d</fix>
		</trkpt>
		<trkpt lat="35.166862" lon="-106.442791">
			<ele>2187.37</ele>
			<time>2015-03-08T19:02:51Z</time>
			<fix>3d</fix>
		</trkpt>
		<trkpt lat="35.166856" lon="-106.442796">
			<ele>2187.48</ele>
			<time>2015-03-08T19:02:53Z</time>
			<fix>3d</fix>
		</trkpt>
		<trkpt lat="35.166849" lon="-106.442796">
			<ele>2187.60</ele>
			<time>2015-03-08T19:02:56Z</time>
			<fix>3d</fix>
		</trkpt>
		<trkpt lat="35.166827" lon="-106.442830">
			<ele>2187.50</ele>
			<time>2015-03-08T19:02:57Z</time>
			<fix>3d</fix>
		</trkpt>
		<trkpt lat="35.166822" lon="-106.442846">
			<ele>2186.59</ele>
			<time>2015-03-08T19:02:59Z</time>
			<fix>3d</fix>
		</trkpt>
		<trkpt lat="35.166820" lon="-106.442850">
			<ele>2186.39</ele>
			<time>2015-03-08T19:03:01Z</time>
			<fix>3d</fix>
		</trkpt>
		<trkpt lat="35.166812" lon="-106.442871">
			<ele>2186.40</ele>
			<time>2015-03-08T19:03:02Z</time>
			<fix>3d</fix>
		</trkpt>
		<trkpt lat="35.166813" lon="-106.442881">
			<ele>2186.31</ele>
			<time>2015-03-08T19:03:05Z</time>
			<fix>3d</fix>
		</trkpt>
		<trkpt lat="35.166814" lon="-106.442882">
			<ele>2186.11</ele>
			<time>2015-03-08T19:03:06Z</time>
			<fix>3d</fix>
		</trkpt>
		<trkpt lat="35.166828" lon="-106.442928">
			<ele>2186.11</ele>
			<time>2015-03-08T19:03:07Z</time>
			<fix>3d</fix>
		</trkpt>
		<trkpt lat="35.166833" lon="-106.442938">
			<ele>2186.02</ele>
			<time>2015-03-08T19:03:08Z</time>
			<fix>3d</fix>
		</trkpt>
		<trkpt lat="35.166835" lon="-106.442940">
			<ele>2185.72</ele>
			<time>2015-03-08T19:03:10Z</time>
			<fix>3d</fix>
		</trkpt>
		<trkpt lat="35.166862" lon="-106.442989">
			<ele>2185.21</ele>
			<time>2015-03-08T19:03:11Z</time>
			<fix>3d</fix>
		</trkpt>
		<trkpt lat="35.166866" lon="-106.442997">
			<ele>2185.02</ele>
			<time>2015-03-08T19:03:15Z</time>
			<fix>3d</fix>
		</trkpt>
		<trkpt lat="35.166868" lon="-106.443006">
			<ele>2184.92</ele>
			<time>2015-03-08T19:03:16Z</time>
			<fix>3d</fix>
		</trkpt>
		<trkpt lat="35.166872" lon="-106.443030">
			<ele>2184.83</ele>
			<time>2015-03-08T19:03:17Z</time>
			<fix>3d</fix>
		</trkpt>
		<trkpt lat="35.166872" lon="-106.443037">
			<ele>2184.52</ele>
			<time>2015-03-08T19:03:18Z</time>
			<fix>3d</fix>
		</trkpt>
		<trkpt lat="35.166874" lon="-106.443046">
			<ele>2183.92</ele>
			<time>2015-03-08T19:03:20Z</time>
			<fix>3d</fix>
		</trkpt>
		<trkpt lat="35.166878" lon="-106.443059">
			<ele>2183.82</ele>
			<time>2015-03-08T19:03:21Z</time>
			<fix>3d</fix>
		</trkpt>
		<trkpt lat="35.166882" lon="-106.443071">
			<ele>2183.65</ele>
			<time>2015-03-08T19:03:22Z</time>
			<fix>3d</fix>
		</trkpt>
		<trkpt lat="35.166884" lon="-106.443082">
			<ele>2183.65</ele>
			<time>2015-03-08T19:03:23Z</time>
			<fix>3d</fix>
		</trkpt>
		<trkpt lat="35.166885" lon="-106.443091">
			<ele>2183.66</ele>
			<time>2015-03-08T19:03:24Z</time>
			<fix>3d</fix>
		</trkpt>
		<trkpt lat="35.166885" lon="-106.443100">
			<ele>2183.56</ele>
			<time>2015-03-08T19:03:25Z</time>
			<fix>3d</fix>
		</trkpt>
		<trkpt lat="35.166887" lon="-106.443141">
			<ele>2182.66</ele>
			<time>2015-03-08T19:03:33Z</time>
			<fix>3d</fix>
		</trkpt>
		<trkpt lat="35.166884" lon="-106.443150">
			<ele>2182.66</ele>
			<time>2015-03-08T19:03:34Z</time>
			<fix>3d</fix>
		</trkpt>
		<trkpt lat="35.166873" lon="-106.443152">
			<ele>2182.36</ele>
			<time>2015-03-08T19:03:35Z</time>
			<fix>3d</fix>
		</trkpt>
		<trkpt lat="35.166866" lon="-106.443152">
			<ele>2181.85</ele>
			<time>2015-03-08T19:03:36Z</time>
			<fix>3d</fix>
		</trkpt>
		<trkpt lat="35.166863" lon="-106.443153">
			<ele>2181.86</ele>
			<time>2015-03-08T19:03:37Z</time>
			<fix>3d</fix>
		</trkpt>
		<trkpt lat="35.166852" lon="-106.443169">
			<ele>2181.86</ele>
			<time>2015-03-08T19:03:38Z</time>
			<fix>3d</fix>
		</trkpt>
		<trkpt lat="35.166847" lon="-106.443171">
			<ele>2181.86</ele>
			<time>2015-03-08T19:03:40Z</time>
			<fix>3d</fix>
		</trkpt>
		<trkpt lat="35.166844" lon="-106.443176">
			<ele>2181.87</ele>
			<time>2015-03-08T19:03:41Z</time>
			<fix>3d</fix>
		</trkpt>
		<trkpt lat="35.166839" lon="-106.443183">
			<ele>2181.67</ele>
			<time>2015-03-08T19:03:43Z</time>
			<fix>3d</fix>
		</trkpt>
		<trkpt lat="35.166833" lon="-106.443215">
			<ele>2181.36</ele>
			<time>2015-03-08T19:03:44Z</time>
			<fix>3d</fix>
		</trkpt>
		<trkpt lat="35.166835" lon="-106.443235">
			<ele>2180.86</ele>
			<time>2015-03-08T19:03:46Z</time>
			<fix>3d</fix>
		</trkpt>
		<trkpt lat="35.166835" lon="-106.443242">
			<ele>2180.86</ele>
			<time>2015-03-08T19:03:48Z</time>
			<fix>3d</fix>
		</trkpt>
		<trkpt lat="35.166832" lon="-106.443247">
			<ele>2180.87</ele>
			<time>2015-03-08T19:03:50Z</time>
			<fix>3d</fix>
		</trkpt>
		<trkpt lat="35.166830" lon="-106.443256">
			<ele>2180.77</ele>
			<time>2015-03-08T19:03:51Z</time>
			<fix>3d</fix>
		</trkpt>
		<trkpt lat="35.166828" lon="-106.443266">
			<ele>2180.67</ele>
			<time>2015-03-08T19:03:52Z</time>
			<fix>3d</fix>
		</trkpt>
		<trkpt lat="35.166825" lon="-106.443275">
			<ele>2180.68</ele>
			<time>2015-03-08T19:03:54Z</time>
			<fix>3d</fix>
		</trkpt>
		<trkpt lat="35.166822" lon="-106.443279">
			<ele>2180.48</ele>
			<time>2015-03-08T19:03:56Z</time>
			<fix>3d</fix>
		</trkpt>
		<trkpt lat="35.166821" lon="-106.443295">
			<ele>2180.17</ele>
			<time>2015-03-08T19:03:57Z</time>
			<fix>3d</fix>
		</trkpt>
		<trkpt lat="35.166819" lon="-106.443304">
			<ele>2179.17</ele>
			<time>2015-03-08T19:04:01Z</time>
			<fix>3d</fix>
		</trkpt>
		<trkpt lat="35.166818" lon="-106.443309">
			<ele>2179.17</ele>
			<time>2015-03-08T19:04:02Z</time>
			<fix>3d</fix>
		</trkpt>
		<trkpt lat="35.166818" lon="-106.443329">
			<ele>2179.07</ele>
			<time>2015-03-08T19:04:03Z</time>
			<fix>3d</fix>
		</trkpt>
		<trkpt lat="35.166815" lon="-106.443367">
			<ele>2178.87</ele>
			<time>2015-03-08T19:04:04Z</time>
			<fix>3d</fix>
		</trkpt>
		<trkpt lat="35.166810" lon="-106.443386">
			<ele>2178.67</ele>
			<time>2015-03-08T19:04:05Z</time>
			<fix>3d</fix>
		</trkpt>
		<trkpt lat="35.166809" lon="-106.443386">
			<ele>2178.67</ele>
			<time>2015-03-08T19:04:06Z</time>
			<fix>3d</fix>
		</trkpt>
		<trkpt lat="35.166810" lon="-106.443430">
			<ele>2177.87</ele>
			<time>2015-03-08T19:04:10Z</time>
			<fix>3d</fix>
		</trkpt>
		<trkpt lat="35.166811" lon="-106.443439">
			<ele>2177.27</ele>
			<time>2015-03-08T19:04:14Z</time>
			<fix>3d</fix>
		</trkpt>
		<trkpt lat="35.166812" lon="-106.443449">
			<ele>2177.18</ele>
			<time>2015-03-08T19:04:15Z</time>
			<fix>3d</fix>
		</trkpt>
		<trkpt lat="35.166811" lon="-106.443458">
			<ele>2177.18</ele>
			<time>2015-03-08T19:04:16Z</time>
			<fix>3d</fix>
		</trkpt>
		<trkpt lat="35.166808" lon="-106.443477">
			<ele>2177.19</ele>
			<time>2015-03-08T19:04:17Z</time>
			<fix>3d</fix>
		</trkpt>
		<trkpt lat="35.166806" lon="-106.443482">
			<ele>2177.09</ele>
			<time>2015-03-08T19:04:18Z</time>
			<fix>3d</fix>
		</trkpt>
		<trkpt lat="35.166803" lon="-106.443488">
			<ele>2176.89</ele>
			<time>2015-03-08T19:04:19Z</time>
			<fix>3d</fix>
		</trkpt>
		<trkpt lat="35.166793" lon="-106.443503">
			<ele>2176.38</ele>
			<time>2015-03-08T19:04:20Z</time>
			<fix>3d</fix>
		</trkpt>
		<trkpt lat="35.166784" lon="-106.443515">
			<ele>2176.28</ele>
			<time>2015-03-08T19:04:21Z</time>
			<fix>3d</fix>
		</trkpt>
		<trkpt lat="35.166772" lon="-106.443532">
			<ele>2176.41</ele>
			<time>2015-03-08T19:04:22Z</time>
			<fix>3d</fix>
		</trkpt>
		<trkpt lat="35.166769" lon="-106.443534">
			<ele>2176.42</ele>
			<time>2015-03-08T19:04:23Z</time>
			<fix>3d</fix>
		</trkpt>
		<trkpt lat="35.166758" lon="-106.443551">
			<ele>2176.32</ele>
			<time>2015-03-08T19:04:24Z</time>
			<fix>3d</fix>
		</trkpt>
		<trkpt lat="35.166756" lon="-106.443553">
			<ele>2176.33</ele>
			<time>2015-03-08T19:04:25Z</time>
			<fix>3d</fix>
		</trkpt>
		<trkpt lat="35.166744" lon="-106.443570">
			<ele>2176.33</ele>
			<time>2015-03-08T19:04:26Z</time>
			<fix>3d</fix>
		</trkpt>
		<trkpt lat="35.166736" lon="-106.443574">
			<ele>2176.34</ele>
			<time>2015-03-08T19:04:28Z</time>
			<fix>3d</fix>
		</trkpt>
		<trkpt lat="35.166724" lon="-106.443582">
			<ele>2176.35</ele>
			<time>2015-03-08T19:04:29Z</time>
			<fix>3d</fix>
		</trkpt>
		<trkpt lat="35.166723" lon="-106.443581">
			<ele>2176.35</ele>
			<time>2015-03-08T19:04:30Z</time>
			<fix>3d</fix>
		</trkpt>
		<trkpt lat="35.166715" lon="-106.443598">
			<ele>2176.26</ele>
			<time>2015-03-08T19:04:31Z</time>
			<fix>3d</fix>
		</trkpt>
		<trkpt lat="35.166716" lon="-106.443601">
			<ele>2175.97</ele>
			<time>2015-03-08T19:04:34Z</time>
			<fix>3d</fix>
		</trkpt>
		<trkpt lat="35.166718" lon="-106.443611">
			<ele>2175.77</ele>
			<time>2015-03-08T19:04:35Z</time>
			<fix>3d</fix>
		</trkpt>
		<trkpt lat="35.166717" lon="-106.443612">
			<ele>2175.68</ele>
			<time>2015-03-08T19:04:36Z</time>
			<fix>3d</fix>
		</trkpt>
		<trkpt lat="35.166718" lon="-106.443624">
			<ele>2175.38</ele>
			<time>2015-03-08T19:04:37Z</time>
			<fix>3d</fix>
		</trkpt>
		<trkpt lat="35.166716" lon="-106.443631">
			<ele>2174.99</ele>
			<time>2015-03-08T19:04:40Z</time>
			<fix>3d</fix>
		</trkpt>
		<trkpt lat="35.166717" lon="-106.443653">
			<ele>2174.90</ele>
			<time>2015-03-08T19:04:41Z</time>
			<fix>3d</fix>
		</trkpt>
		<trkpt lat="35.166716" lon="-106.443670">
			<ele>2174.80</ele>
			<time>2015-03-08T19:04:42Z</time>
			<fix>3d</fix>
		</trkpt>
		<trkpt lat="35.166715" lon="-106.443673">
			<ele>2174.81</ele>
			<time>2015-03-08T19:04:43Z</time>
			<fix>3d</fix>
		</trkpt>
		<trkpt lat="35.166715" lon="-106.443712">
			<ele>2174.61</ele>
			<time>2015-03-08T19:04:44Z</time>
			<fix>3d</fix>
		</trkpt>
		<trkpt lat="35.166714" lon="-106.443719">
			<ele>2174.62</ele>
			<time>2015-03-08T19:04:45Z</time>
			<fix>3d</fix>
		</trkpt>
		<trkpt lat="35.166711" lon="-106.443725">
			<ele>2174.42</ele>
			<time>2015-03-08T19:04:46Z</time>
			<fix>3d</fix>
		</trkpt>
		<trkpt lat="35.166709" lon="-106.443733">
			<ele>2174.42</ele>
			<time>2015-03-08T19:04:47Z</time>
			<fix>3d</fix>
		</trkpt>
		<trkpt lat="35.166703" lon="-106.443754">
			<ele>2174.12</ele>
			<time>2015-03-08T19:04:48Z</time>
			<fix>3d</fix>
		</trkpt>
		<trkpt lat="35.166695" lon="-106.443777">
			<ele>2174.13</ele>
			<time>2015-03-08T19:04:49Z</time>
			<fix>3d</fix>
		</trkpt>
		<trkpt lat="35.166695" lon="-106.443787">
			<ele>2173.94</ele>
			<time>2015-03-08T19:04:51Z</time>
			<fix>3d</fix>
		</trkpt>
		<trkpt lat="35.166695" lon="-106.443795">
			<ele>2173.95</ele>
			<time>2015-03-08T19:04:52Z</time>
			<fix>3d</fix>
		</trkpt>
		<trkpt lat="35.166692" lon="-106.443819">
			<ele>2173.95</ele>
			<time>2015-03-08T19:04:53Z</time>
			<fix>3d</fix>
		</trkpt>
		<trkpt lat="35.166687" lon="-106.443847">
			<ele>2173.96</ele>
			<time>2015-03-08T19:04:54Z</time>
			<fix>3d</fix>
		</trkpt>
		<trkpt lat="35.166683" lon="-106.443855">
			<ele>2173.97</ele>
			<time>2015-03-08T19:04:55Z</time>
			<fix>3d</fix>
		</trkpt>
		<trkpt lat="35.166681" lon="-106.443859">
			<ele>2173.87</ele>
			<time>2015-03-08T19:04:56Z</time>
			<fix>3d</fix>
		</trkpt>
		<trkpt lat="35.166677" lon="-106.443865">
			<ele>2173.69</ele>
			<time>2015-03-08T19:04:58Z</time>
			<fix>3d</fix>
		</trkpt>
		<trkpt lat="35.166667" lon="-106.443888">
			<ele>2173.49</ele>
			<time>2015-03-08T19:04:59Z</time>
			<fix>3d</fix>
		</trkpt>
		<trkpt lat="35.166661" lon="-106.443905">
			<ele>2173.40</ele>
			<time>2015-03-08T19:05:00Z</time>
			<fix>3d</fix>
		</trkpt>
		<trkpt lat="35.166658" lon="-106.443911">
			<ele>2172.89</ele>
			<time>2015-03-08T19:05:01Z</time>
			<fix>3d</fix>
		</trkpt>
		<trkpt lat="35.166652" lon="-106.443930">
			<ele>2172.59</ele>
			<time>2015-03-08T19:05:02Z</time>
			<fix>3d</fix>
		</trkpt>
		<trkpt lat="35.166648" lon="-106.443944">
			<ele>2172.71</ele>
			<time>2015-03-08T19:05:04Z</time>
			<fix>3d</fix>
		</trkpt>
		<trkpt lat="35.166638" lon="-106.443971">
			<ele>2172.63</ele>
			<time>2015-03-08T19:05:06Z</time>
			<fix>3d</fix>
		</trkpt>
		<trkpt lat="35.166630" lon="-106.443972">
			<ele>2172.65</ele>
			<time>2015-03-08T19:05:08Z</time>
			<fix>3d</fix>
		</trkpt>
		<trkpt lat="35.166622" lon="-106.443991">
			<ele>2172.38</ele>
			<time>2015-03-08T19:05:12Z</time>
			<fix>3d</fix>
		</trkpt>
		<trkpt lat="35.166616" lon="-106.443999">
			<ele>2171.99</ele>
			<time>2015-03-08T19:05:15Z</time>
			<fix>3d</fix>
		</trkpt>
		<trkpt lat="35.166615" lon="-106.444000">
			<ele>2171.69</ele>
			<time>2015-03-08T19:05:16Z</time>
			<fix>3d</fix>
		</trkpt>
		<trkpt lat="35.166615" lon="-106.444036">
			<ele>2171.50</ele>
			<time>2015-03-08T19:05:17Z</time>
			<fix>3d</fix>
		</trkpt>
		<trkpt lat="35.166619" lon="-106.444044">
			<ele>2171.51</ele>
			<time>2015-03-08T19:05:19Z</time>
			<fix>3d</fix>
		</trkpt>
		<trkpt lat="35.166619" lon="-106.444057">
			<ele>2171.52</ele>
			<time>2015-03-08T19:05:20Z</time>
			<fix>3d</fix>
		</trkpt>
		<trkpt lat="35.166614" lon="-106.444066">
			<ele>2171.59</ele>
			<time>2015-03-08T19:05:23Z</time>
			<fix>3d</fix>
		</trkpt>
		<trkpt lat="35.166611" lon="-106.444078">
			<ele>2171.60</ele>
			<time>2015-03-08T19:05:24Z</time>
			<fix>3d</fix>
		</trkpt>
		<trkpt lat="35.166601" lon="-106.444103">
			<ele>2171.51</ele>
			<time>2015-03-08T19:05:25Z</time>
			<fix>3d</fix>
		</trkpt>
		<trkpt lat="35.166589" lon="-106.444124">
			<ele>2171.41</ele>
			<time>2015-03-08T19:05:26Z</time>
			<fix>3d</fix>
		</trkpt>
		<trkpt lat="35.166581" lon="-106.444129">
			<ele>2171.21</ele>
			<time>2015-03-08T19:05:27Z</time>
			<fix>3d</fix>
		</trkpt>
		<trkpt lat="35.166571" lon="-106.444136">
			<ele>2171.22</ele>
			<time>2015-03-08T19:05:28Z</time>
			<fix>3d</fix>
		</trkpt>
		<trkpt lat="35.166559" lon="-106.444150">
			<ele>2171.13</ele>
			<time>2015-03-08T19:05:29Z</time>
			<fix>3d</fix>
		</trkpt>
		<trkpt lat="35.166551" lon="-106.444152">
			<ele>2171.03</ele>
			<time>2015-03-08T19:05:30Z</time>
			<fix>3d</fix>
		</trkpt>
		<trkpt lat="35.166547" lon="-106.444154">
			<ele>2171.04</ele>
			<time>2015-03-08T19:05:31Z</time>
			<fix>3d</fix>
		</trkpt>
		<trkpt lat="35.166533" lon="-106.444162">
			<ele>2171.04</ele>
			<time>2015-03-08T19:05:32Z</time>
			<fix>3d</fix>
		</trkpt>
		<trkpt lat="35.166516" lon="-106.444174">
			<ele>2170.85</ele>
			<time>2015-03-08T19:05:33Z</time>
			<fix>3d</fix>
		</trkpt>
		<trkpt lat="35.166504" lon="-106.444175">
			<ele>2170.65</ele>
			<time>2015-03-08T19:05:34Z</time>
			<fix>3d</fix>
		</trkpt>
		<trkpt lat="35.166490" lon="-106.444184">
			<ele>2170.55</ele>
			<time>2015-03-08T19:05:35Z</time>
			<fix>3d</fix>
		</trkpt>
		<trkpt lat="35.166483" lon="-106.444186">
			<ele>2170.56</ele>
			<time>2015-03-08T19:05:36Z</time>
			<fix>3d</fix>
		</trkpt>
		<trkpt lat="35.166478" lon="-106.444192">
			<ele>2170.57</ele>
			<time>2015-03-08T19:05:37Z</time>
			<fix>3d</fix>
		</trkpt>
		<trkpt lat="35.166476" lon="-106.444202">
			<ele>2170.47</ele>
			<time>2015-03-08T19:05:38Z</time>
			<fix>3d</fix>
		</trkpt>
		<trkpt lat="35.166479" lon="-106.444215">
			<ele>2170.48</ele>
			<time>2015-03-08T19:05:39Z</time>
			<fix>3d</fix>
		</trkpt>
		<trkpt lat="35.166481" lon="-106.444221">
			<ele>2170.40</ele>
			<time>2015-03-08T19:05:42Z</time>
			<fix>3d</fix>
		</trkpt>
		<trkpt lat="35.166481" lon="-106.444227">
			<ele>2170.40</ele>
			<time>2015-03-08T19:05:43Z</time>
			<fix>3d</fix>
		</trkpt>
		<trkpt lat="35.166480" lon="-106.444234">
			<ele>2170.31</ele>
			<time>2015-03-08T19:05:44Z</time>
			<fix>3d</fix>
		</trkpt>
		<trkpt lat="35.166479" lon="-106.444257">
			<ele>2170.11</ele>
			<time>2015-03-08T19:05:45Z</time>
			<fix>3d</fix>
		</trkpt>
		<trkpt lat="35.166479" lon="-106.444275">
			<ele>2170.01</ele>
			<time>2015-03-08T19:05:46Z</time>
			<fix>3d</fix>
		</trkpt>
		<trkpt lat="35.166479" lon="-106.444285">
			<ele>2169.74</ele>
			<time>2015-03-08T19:05:51Z</time>
			<fix>3d</fix>
		</trkpt>
		<trkpt lat="35.166483" lon="-106.444346">
			<ele>2169.74</ele>
			<time>2015-03-08T19:05:52Z</time>
			<fix>3d</fix>
		</trkpt>
		<trkpt lat="35.166483" lon="-106.444357">
			<ele>2169.25</ele>
			<time>2015-03-08T19:05:54Z</time>
			<fix>3d</fix>
		</trkpt>
		<trkpt lat="35.166482" lon="-106.444358">
			<ele>2169.36</ele>
			<time>2015-03-08T19:05:55Z</time>
			<fix>3d</fix>
		</trkpt>
		<trkpt lat="35.166483" lon="-106.444371">
			<ele>2169.26</ele>
			<time>2015-03-08T19:05:56Z</time>
			<fix>3d</fix>
		</trkpt>
		<trkpt lat="35.166482" lon="-106.444376">
			<ele>2169.28</ele>
			<time>2015-03-08T19:05:58Z</time>
			<fix>3d</fix>
		</trkpt>
		<trkpt lat="35.166481" lon="-106.444395">
			<ele>2169.28</ele>
			<time>2015-03-08T19:05:59Z</time>
			<fix>3d</fix>
		</trkpt>
		<trkpt lat="35.166479" lon="-106.444412">
			<ele>2169.29</ele>
			<time>2015-03-08T19:06:00Z</time>
			<fix>3d</fix>
		</trkpt>
		<trkpt lat="35.166482" lon="-106.444476">
			<ele>2169.31</ele>
			<time>2015-03-08T19:06:02Z</time>
			<fix>3d</fix>
		</trkpt>
		<trkpt lat="35.166485" lon="-106.444479">
			<ele>2169.32</ele>
			<time>2015-03-08T19:06:04Z</time>
			<fix>3d</fix>
		</trkpt>
		<trkpt lat="35.166489" lon="-106.444488">
			<ele>2169.33</ele>
			<time>2015-03-08T19:06:05Z</time>
			<fix>3d</fix>
		</trkpt>
		<trkpt lat="35.166494" lon="-106.444500">
			<ele>2169.34</ele>
			<time>2015-03-08T19:06:06Z</time>
			<fix>3d</fix>
		</trkpt>
		<trkpt lat="35.166501" lon="-106.444513">
			<ele>2169.34</ele>
			<time>2015-03-08T19:06:07Z</time>
			<fix>3d</fix>
		</trkpt>
		<trkpt lat="35.166508" lon="-106.444527">
			<ele>2169.35</ele>
			<time>2015-03-08T19:06:08Z</time>
			<fix>3d</fix>
		</trkpt>
		<trkpt lat="35.166511" lon="-106.444531">
			<ele>2169.26</ele>
			<time>2015-03-08T19:06:10Z</time>
			<fix>3d</fix>
		</trkpt>
		<trkpt lat="35.166519" lon="-106.444551">
			<ele>2169.06</ele>
			<time>2015-03-08T19:06:11Z</time>
			<fix>3d</fix>
		</trkpt>
		<trkpt lat="35.166534" lon="-106.444593">
			<ele>2168.66</ele>
			<time>2015-03-08T19:06:12Z</time>
			<fix>3d</fix>
		</trkpt>
		<trkpt lat="35.166537" lon="-106.444603">
			<ele>2168.57</ele>
			<time>2015-03-08T19:06:13Z</time>
			<fix>3d</fix>
		</trkpt>
		<trkpt lat="35.166541" lon="-106.444614">
			<ele>2168.27</ele>
			<time>2015-03-08T19:06:14Z</time>
			<fix>3d</fix>
		</trkpt>
		<trkpt lat="35.166546" lon="-106.444646">
			<ele>2168.07</ele>
			<time>2015-03-08T19:06:15Z</time>
			<fix>3d</fix>
		</trkpt>
		<trkpt lat="35.166555" lon="-106.444692">
			<ele>2168.07</ele>
			<time>2015-03-08T19:06:16Z</time>
			<fix>3d</fix>
		</trkpt>
		<trkpt lat="35.166563" lon="-106.444702">
			<ele>2168.08</ele>
			<time>2015-03-08T19:06:17Z</time>
			<fix>3d</fix>
		</trkpt>
		<trkpt lat="35.166579" lon="-106.444722">
			<ele>2168.09</ele>
			<time>2015-03-08T19:06:18Z</time>
			<fix>3d</fix>
		</trkpt>
		<trkpt lat="35.166589" lon="-106.444730">
			<ele>2167.99</ele>
			<time>2015-03-08T19:06:19Z</time>
			<fix>3d</fix>
		</trkpt>
		<trkpt lat="35.166607" lon="-106.444750">
			<ele>2168.00</ele>
			<time>2015-03-08T19:06:20Z</time>
			<fix>3d</fix>
		</trkpt>
		<trkpt lat="35.166611" lon="-106.444753">
			<ele>2168.00</ele>
			<time>2015-03-08T19:06:21Z</time>
			<fix>3d</fix>
		</trkpt>
		<trkpt lat="35.166625" lon="-106.444764">
			<ele>2168.24</ele>
			<time>2015-03-08T19:06:22Z</time>
			<fix>3d</fix>
		</trkpt>
		<trkpt lat="35.166641" lon="-106.444778">
			<ele>2168.25</ele>
			<time>2015-03-08T19:06:23Z</time>
			<fix>3d</fix>
		</trkpt>
		<trkpt lat="35.166643" lon="-106.444778">
			<ele>2168.26</ele>
			<time>2015-03-08T19:06:25Z</time>
			<fix>3d</fix>
		</trkpt>
		<trkpt lat="35.166652" lon="-106.444790">
			<ele>2168.37</ele>
			<time>2015-03-08T19:06:26Z</time>
			<fix>3d</fix>
		</trkpt>
		<trkpt lat="35.166649" lon="-106.444800">
			<ele>2170.04</ele>
			<time>2015-03-08T19:06:32Z</time>
			<fix>3d</fix>
		</trkpt>
		<trkpt lat="35.166640" lon="-106.444826">
			<ele>2170.25</ele>
			<time>2015-03-08T19:06:33Z</time>
			<fix>3d</fix>
		</trkpt>
		<trkpt lat="35.166632" lon="-106.444840">
			<ele>2170.25</ele>
			<time>2015-03-08T19:06:34Z</time>
			<fix>3d</fix>
		</trkpt>
		<trkpt lat="35.166627" lon="-106.444846">
			<ele>2170.47</ele>
			<time>2015-03-08T19:06:36Z</time>
			<fix>3d</fix>
		</trkpt>
		<trkpt lat="35.166625" lon="-106.444853">
			<ele>2170.57</ele>
			<time>2015-03-08T19:06:37Z</time>
			<fix>3d</fix>
		</trkpt>
		<trkpt lat="35.166622" lon="-106.444861">
			<ele>2171.09</ele>
			<time>2015-03-08T19:06:38Z</time>
			<fix>3d</fix>
		</trkpt>
		<trkpt lat="35.166617" lon="-106.444882">
			<ele>2171.29</ele>
			<time>2015-03-08T19:06:39Z</time>
			<fix>3d</fix>
		</trkpt>
		<trkpt lat="35.166612" lon="-106.444896">
			<ele>2171.20</ele>
			<time>2015-03-08T19:06:40Z</time>
			<fix>3d</fix>
		</trkpt>
		<trkpt lat="35.166608" lon="-106.444905">
			<ele>2171.41</ele>
			<time>2015-03-08T19:06:42Z</time>
			<fix>3d</fix>
		</trkpt>
		<trkpt lat="35.166605" lon="-106.444911">
			<ele>2171.41</ele>
			<time>2015-03-08T19:06:43Z</time>
			<fix>3d</fix>
		</trkpt>
		<trkpt lat="35.166601" lon="-106.444916">
			<ele>2171.52</ele>
			<time>2015-03-08T19:06:44Z</time>
			<fix>3d</fix>
		</trkpt>
		<trkpt lat="35.166598" lon="-106.444921">
			<ele>2171.52</ele>
			<time>2015-03-08T19:06:45Z</time>
			<fix>3d</fix>
		</trkpt>
		<trkpt lat="35.166590" lon="-106.444945">
			<ele>2171.52</ele>
			<time>2015-03-08T19:06:46Z</time>
			<fix>3d</fix>
		</trkpt>
		<trkpt lat="35.166585" lon="-106.444954">
			<ele>2171.74</ele>
			<time>2015-03-08T19:06:49Z</time>
			<fix>3d</fix>
		</trkpt>
		<trkpt lat="35.166582" lon="-106.444958">
			<ele>2172.25</ele>
			<time>2015-03-08T19:06:50Z</time>
			<fix>3d</fix>
		</trkpt>
		<trkpt lat="35.166578" lon="-106.444963">
			<ele>2172.67</ele>
			<time>2015-03-08T19:06:51Z</time>
			<fix>3d</fix>
		</trkpt>
		<trkpt lat="35.166574" lon="-106.444968">
			<ele>2172.67</ele>
			<time>2015-03-08T19:06:52Z</time>
			<fix>3d</fix>
		</trkpt>
		<trkpt lat="35.166566" lon="-106.444981">
			<ele>2172.78</ele>
			<time>2015-03-08T19:06:53Z</time>
			<fix>3d</fix>
		</trkpt>
		<trkpt lat="35.166559" lon="-106.444990">
			<ele>2172.88</ele>
			<time>2015-03-08T19:06:54Z</time>
			<fix>3d</fix>
		</trkpt>
		<trkpt lat="35.166551" lon="-106.445006">
			<ele>2172.89</ele>
			<time>2015-03-08T19:06:55Z</time>
			<fix>3d</fix>
		</trkpt>
		<trkpt lat="35.166547" lon="-106.445011">
			<ele>2173.41</ele>
			<time>2015-03-08T19:06:58Z</time>
			<fix>3d</fix>
		</trkpt>
		<trkpt lat="35.166546" lon="-106.445019">
			<ele>2173.52</ele>
			<time>2015-03-08T19:06:59Z</time>
			<fix>3d</fix>
		</trkpt>
		<trkpt lat="35.166539" lon="-106.445039">
			<ele>2173.63</ele>
			<time>2015-03-08T19:07:00Z</time>
			<fix>3d</fix>
		</trkpt>
		<trkpt lat="35.166533" lon="-106.445054">
			<ele>2173.63</ele>
			<time>2015-03-08T19:07:01Z</time>
			<fix>3d</fix>
		</trkpt>
		<trkpt lat="35.166527" lon="-106.445068">
			<ele>2173.74</ele>
			<time>2015-03-08T19:07:02Z</time>
			<fix>3d</fix>
		</trkpt>
		<trkpt lat="35.166520" lon="-106.445079">
			<ele>2173.85</ele>
			<time>2015-03-08T19:07:03Z</time>
			<fix>3d</fix>
		</trkpt>
		<trkpt lat="35.166513" lon="-106.445088">
			<ele>2173.96</ele>
			<time>2015-03-08T19:07:04Z</time>
			<fix>3d</fix>
		</trkpt>
		<trkpt lat="35.166511" lon="-106.445098">
			<ele>2174.19</ele>
			<time>2015-03-08T19:07:10Z</time>
			<fix>3d</fix>
		</trkpt>
		<trkpt lat="35.166514" lon="-106.445114">
			<ele>2174.19</ele>
			<time>2015-03-08T19:07:11Z</time>
			<fix>3d</fix>
		</trkpt>
		<trkpt lat="35.166522" lon="-106.445156">
			<ele>2174.10</ele>
			<time>2015-03-08T19:07:12Z</time>
			<fix>3d</fix>
		</trkpt>
		<trkpt lat="35.166519" lon="-106.445164">
			<ele>2173.20</ele>
			<time>2015-03-08T19:07:19Z</time>
			<fix>3d</fix>
		</trkpt>
		<trkpt lat="35.166510" lon="-106.445199">
			<ele>2173.10</ele>
			<time>2015-03-08T19:07:20Z</time>
			<fix>3d</fix>
		</trkpt>
		<trkpt lat="35.166513" lon="-106.445203">
			<ele>2173.11</ele>
			<time>2015-03-08T19:07:21Z</time>
			<fix>3d</fix>
		</trkpt>
		<trkpt lat="35.166521" lon="-106.445218">
			<ele>2173.39</ele>
			<time>2015-03-08T19:07:22Z</time>
			<fix>3d</fix>
		</trkpt>
		<trkpt lat="35.166522" lon="-106.445220">
			<ele>2173.29</ele>
			<time>2015-03-08T19:07:23Z</time>
			<fix>3d</fix>
		</trkpt>
		<trkpt lat="35.166529" lon="-106.445236">
			<ele>2173.19</ele>
			<time>2015-03-08T19:07:24Z</time>
			<fix>3d</fix>
		</trkpt>
		<trkpt lat="35.166526" lon="-106.445243">
			<ele>2173.10</ele>
			<time>2015-03-08T19:07:29Z</time>
			<fix>3d</fix>
		</trkpt>
		<trkpt lat="35.166522" lon="-106.445246">
			<ele>2173.10</ele>
			<time>2015-03-08T19:07:30Z</time>
			<fix>3d</fix>
		</trkpt>
		<trkpt lat="35.166509" lon="-106.445251">
			<ele>2173.10</ele>
			<time>2015-03-08T19:07:31Z</time>
			<fix>3d</fix>
		</trkpt>
		<trkpt lat="35.166502" lon="-106.445250">
			<ele>2172.80</ele>
			<time>2015-03-08T19:07:33Z</time>
			<fix>3d</fix>
		</trkpt>
		<trkpt lat="35.166500" lon="-106.445249">
			<ele>2172.39</ele>
			<time>2015-03-08T19:07:34Z</time>
			<fix>3d</fix>
		</trkpt>
		<trkpt lat="35.166492" lon="-106.445250">
			<ele>2172.19</ele>
			<time>2015-03-08T19:07:35Z</time>
			<fix>3d</fix>
		</trkpt>
		<trkpt lat="35.166474" lon="-106.445250">
			<ele>2171.89</ele>
			<time>2015-03-08T19:07:36Z</time>
			<fix>3d</fix>
		</trkpt>
		<trkpt lat="35.166456" lon="-106.445255">
			<ele>2171.89</ele>
			<time>2015-03-08T19:07:37Z</time>
			<fix>3d</fix>
		</trkpt>
		<trkpt lat="35.166447" lon="-106.445254">
			<ele>2171.89</ele>
			<time>2015-03-08T19:07:38Z</time>
			<fix>3d</fix>
		</trkpt>
		<trkpt lat="35.166442" lon="-106.445254">
			<ele>2171.79</ele>
			<time>2015-03-08T19:07:40Z</time>
			<fix>3d</fix>
		</trkpt>
		<trkpt lat="35.166427" lon="-106.445262">
			<ele>2171.59</ele>
			<time>2015-03-08T19:07:41Z</time>
			<fix>3d</fix>
		</trkpt>
		<trkpt lat="35.166418" lon="-106.445262">
			<ele>2171.08</ele>
			<time>2015-03-08T19:07:42Z</time>
			<fix>3d</fix>
		</trkpt>
		<trkpt lat="35.166415" lon="-106.445262">
			<ele>2170.77</ele>
			<time>2015-03-08T19:07:44Z</time>
			<fix>3d</fix>
		</trkpt>
		<trkpt lat="35.166406" lon="-106.445259">
			<ele>2170.77</ele>
			<time>2015-03-08T19:07:45Z</time>
			<fix>3d</fix>
		</trkpt>
		<trkpt lat="35.166396" lon="-106.445264">
			<ele>2170.67</ele>
			<time>2015-03-08T19:07:46Z</time>
			<fix>3d</fix>
		</trkpt>
		<trkpt lat="35.166391" lon="-106.445267">
			<ele>2170.78</ele>
			<time>2015-03-08T19:07:49Z</time>
			<fix>3d</fix>
		</trkpt>
		<trkpt lat="35.166388" lon="-106.445272">
			<ele>2170.68</ele>
			<time>2015-03-08T19:07:50Z</time>
			<fix>3d</fix>
		</trkpt>
		<trkpt lat="35.166381" lon="-106.445278">
			<ele>2170.68</ele>
			<time>2015-03-08T19:07:52Z</time>
			<fix>3d</fix>
		</trkpt>
		<trkpt lat="35.166373" lon="-106.445285">
			<ele>2170.68</ele>
			<time>2015-03-08T19:07:53Z</time>
			<fix>3d</fix>
		</trkpt>
		<trkpt lat="35.166355" lon="-106.445303">
			<ele>2170.68</ele>
			<time>2015-03-08T19:07:54Z</time>
			<fix>3d</fix>
		</trkpt>
		<trkpt lat="35.166350" lon="-106.445308">
			<ele>2170.79</ele>
			<time>2015-03-08T19:07:55Z</time>
			<fix>3d</fix>
		</trkpt>
		<trkpt lat="35.166333" lon="-106.445328">
			<ele>2170.89</ele>
			<time>2015-03-08T19:07:56Z</time>
			<fix>3d</fix>
		</trkpt>
		<trkpt lat="35.166325" lon="-106.445333">
			<ele>2170.89</ele>
			<time>2015-03-08T19:07:57Z</time>
			<fix>3d</fix>
		</trkpt>
		<trkpt lat="35.166316" lon="-106.445343">
			<ele>2170.89</ele>
			<time>2015-03-08T19:07:58Z</time>
			<fix>3d</fix>
		</trkpt>
		<trkpt lat="35.166313" lon="-106.445342">
			<ele>2170.90</ele>
			<time>2015-03-08T19:07:59Z</time>
			<fix>3d</fix>
		</trkpt>
		<trkpt lat="35.166299" lon="-106.445379">
			<ele>2170.79</ele>
			<time>2015-03-08T19:08:00Z</time>
			<fix>3d</fix>
		</trkpt>
		<trkpt lat="35.166296" lon="-106.445383">
			<ele>2170.80</ele>
			<time>2015-03-08T19:08:03Z</time>
			<fix>3d</fix>
		</trkpt>
		<trkpt lat="35.166292" lon="-106.445395">
			<ele>2170.70</ele>
			<time>2015-03-08T19:08:04Z</time>
			<fix>3d</fix>
		</trkpt>
		<trkpt lat="35.166288" lon="-106.445405">
			<ele>2170.70</ele>
			<time>2015-03-08T19:08:05Z</time>
			<fix>3d</fix>
		</trkpt>
		<trkpt lat="35.166275" lon="-106.445432">
			<ele>2170.81</ele>
			<time>2015-03-08T19:08:06Z</time>
			<fix>3d</fix>
		</trkpt>
		<trkpt lat="35.166257" lon="-106.445461">
			<ele>2170.71</ele>
			<time>2015-03-08T19:08:07Z</time>
			<fix>3d</fix>
		</trkpt>
		<trkpt lat="35.166253" lon="-106.445460">
			<ele>2170.81</ele>
			<time>2015-03-08T19:08:08Z</time>
			<fix>3d</fix>
		</trkpt>
		<trkpt lat="35.166243" lon="-106.445466">
			<ele>2170.81</ele>
			<time>2015-03-08T19:08:09Z</time>
			<fix>3d</fix>
		</trkpt>
		<trkpt lat="35.166234" lon="-106.445475">
			<ele>2170.71</ele>
			<time>2015-03-08T19:08:10Z</time>
			<fix>3d</fix>
		</trkpt>
		<trkpt lat="35.166189" lon="-106.445515">
			<ele>2170.72</ele>
			<time>2015-03-08T19:08:12Z</time>
			<fix>3d</fix>
		</trkpt>
		<trkpt lat="35.166175" lon="-106.445532">
			<ele>2170.62</ele>
			<time>2015-03-08T19:08:13Z</time>
			<fix>3d</fix>
		</trkpt>
		<trkpt lat="35.166163" lon="-106.445541">
			<ele>2170.52</ele>
			<time>2015-03-08T19:08:14Z</time>
			<fix>3d</fix>
		</trkpt>
		<trkpt lat="35.166159" lon="-106.445547">
			<ele>2170.01</ele>
			<time>2015-03-08T19:08:16Z</time>
			<fix>3d</fix>
		</trkpt>
		<trkpt lat="35.166156" lon="-106.445556">
			<ele>2170.02</ele>
			<time>2015-03-08T19:08:17Z</time>
			<fix>3d</fix>
		</trkpt>
		<trkpt lat="35.166152" lon="-106.445564">
			<ele>2170.02</ele>
			<time>2015-03-08T19:08:18Z</time>
			<fix>3d</fix>
		</trkpt>
		<trkpt lat="35.166148" lon="-106.445571">
			<ele>2170.02</ele>
			<time>2015-03-08T19:08:19Z</time>
			<fix>3d</fix>
		</trkpt>
		<trkpt lat="35.166144" lon="-106.445579">
			<ele>2170.03</ele>
			<time>2015-03-08T19:08:20Z</time>
			<fix>3d</fix>
		</trkpt>
		<trkpt lat="35.166125" lon="-106.445599">
			<ele>2170.03</ele>
			<time>2015-03-08T19:08:21Z</time>
			<fix>3d</fix>
		</trkpt>
		<trkpt lat="35.166121" lon="-106.445608">
			<ele>2170.53</ele>
			<time>2015-03-08T19:08:27Z</time>
			<fix>3d</fix>
		</trkpt>
		<trkpt lat="35.166124" lon="-106.445619">
			<ele>2170.53</ele>
			<time>2015-03-08T19:08:28Z</time>
			<fix>3d</fix>
		</trkpt>
		<trkpt lat="35.166126" lon="-106.445630">
			<ele>2170.54</ele>
			<time>2015-03-08T19:08:29Z</time>
			<fix>3d</fix>
		</trkpt>
		<trkpt lat="35.166128" lon="-106.445640">
			<ele>2170.44</ele>
			<time>2015-03-08T19:08:30Z</time>
			<fix>3d</fix>
		</trkpt>
		<trkpt lat="35.166127" lon="-106.445663">
			<ele>2170.44</ele>
			<time>2015-03-08T19:08:31Z</time>
			<fix>3d</fix>
		</trkpt>
		<trkpt lat="35.166124" lon="-106.445665">
			<ele>2170.25</ele>
			<time>2015-03-08T19:08:34Z</time>
			<fix>3d</fix>
		</trkpt>
		<trkpt lat="35.166122" lon="-106.445679">
			<ele>2170.15</ele>
			<time>2015-03-08T19:08:35Z</time>
			<fix>3d</fix>
		</trkpt>
		<trkpt lat="35.166120" lon="-106.445681">
			<ele>2170.05</ele>
			<time>2015-03-08T19:08:36Z</time>
			<fix>3d</fix>
		</trkpt>
		<trkpt lat="35.166117" lon="-106.445696">
			<ele>2170.06</ele>
			<time>2015-03-08T19:08:37Z</time>
			<fix>3d</fix>
		</trkpt>
		<trkpt lat="35.166114" lon="-106.445709">
			<ele>2170.06</ele>
			<time>2015-03-08T19:08:38Z</time>
			<fix>3d</fix>
		</trkpt>
		<trkpt lat="35.166111" lon="-106.445721">
			<ele>2169.97</ele>
			<time>2015-03-08T19:08:39Z</time>
			<fix>3d</fix>
		</trkpt>
		<trkpt lat="35.166108" lon="-106.445724">
			<ele>2169.67</ele>
			<time>2015-03-08T19:08:41Z</time>
			<fix>3d</fix>
		</trkpt>
		<trkpt lat="35.166105" lon="-106.445738">
			<ele>2169.57</ele>
			<time>2015-03-08T19:08:42Z</time>
			<fix>3d</fix>
		</trkpt>
		<trkpt lat="35.166102" lon="-106.445751">
			<ele>2169.57</ele>
			<time>2015-03-08T19:08:43Z</time>
			<fix>3d</fix>
		</trkpt>
		<trkpt lat="35.166094" lon="-106.445780">
			<ele>2169.48</ele>
			<time>2015-03-08T19:08:44Z</time>
			<fix>3d</fix>
		</trkpt>
		<trkpt lat="35.166092" lon="-106.445787">
			<ele>2169.48</ele>
			<time>2015-03-08T19:08:45Z</time>
			<fix>3d</fix>
		</trkpt>
		<trkpt lat="35.166089" lon="-106.445795">
			<ele>2169.38</ele>
			<time>2015-03-08T19:08:46Z</time>
			<fix>3d</fix>
		</trkpt>
		<trkpt lat="35.166083" lon="-106.445817">
			<ele>2169.08</ele>
			<time>2015-03-08T19:08:47Z</time>
			<fix>3d</fix>
		</trkpt>
		<trkpt lat="35.166082" lon="-106.445825">
			<ele>2168.88</ele>
			<time>2015-03-08T19:08:48Z</time>
			<fix>3d</fix>
		</trkpt>
		<trkpt lat="35.166081" lon="-106.445834">
			<ele>2168.89</ele>
			<time>2015-03-08T19:08:49Z</time>
			<fix>3d</fix>
		</trkpt>
		<trkpt lat="35.166075" lon="-106.445856">
			<ele>2168.79</ele>
			<time>2015-03-08T19:08:50Z</time>
			<fix>3d</fix>
		</trkpt>
		<trkpt lat="35.166072" lon="-106.445863">
			<ele>2168.80</ele>
			<time>2015-03-08T19:08:51Z</time>
			<fix>3d</fix>
		</trkpt>
		<trkpt lat="35.166059" lon="-106.445886">
			<ele>2168.70</ele>
			<time>2015-03-08T19:08:52Z</time>
			<fix>3d</fix>
		</trkpt>
		<trkpt lat="35.166052" lon="-106.445890">
			<ele>2168.50</ele>
			<time>2015-03-08T19:08:53Z</time>
			<fix>3d</fix>
		</trkpt>
		<trkpt lat="35.166043" lon="-106.445908">
			<ele>2168.20</ele>
			<time>2015-03-08T19:08:54Z</time>
			<fix>3d</fix>
		</trkpt>
		<trkpt lat="35.166036" lon="-106.445910">
			<ele>2167.69</ele>
			<time>2015-03-08T19:08:56Z</time>
			<fix>3d</fix>
		</trkpt>
		<trkpt lat="35.166031" lon="-106.445917">
			<ele>2167.49</ele>
			<time>2015-03-08T19:08:57Z</time>
			<fix>3d</fix>
		</trkpt>
		<trkpt lat="35.166025" lon="-106.445924">
			<ele>2167.50</ele>
			<time>2015-03-08T19:08:58Z</time>
			<fix>3d</fix>
		</trkpt>
		<trkpt lat="35.166010" lon="-106.445941">
			<ele>2167.50</ele>
			<time>2015-03-08T19:08:59Z</time>
			<fix>3d</fix>
		</trkpt>
		<trkpt lat="35.166004" lon="-106.445947">
			<ele>2167.61</ele>
			<time>2015-03-08T19:09:01Z</time>
			<fix>3d</fix>
		</trkpt>
		<trkpt lat="35.166002" lon="-106.445947">
			<ele>2167.62</ele>
			<time>2015-03-08T19:09:02Z</time>
			<fix>3d</fix>
		</trkpt>
		<trkpt lat="35.165973" lon="-106.445999">
			<ele>2167.65</ele>
			<time>2015-03-08T19:09:07Z</time>
			<fix>3d</fix>
		</trkpt>
		<trkpt lat="35.165961" lon="-106.446020">
			<ele>2167.55</ele>
			<time>2015-03-08T19:09:08Z</time>
			<fix>3d</fix>
		</trkpt>
		<trkpt lat="35.165956" lon="-106.446028">
			<ele>2167.57</ele>
			<time>2015-03-08T19:09:10Z</time>
			<fix>3d</fix>
		</trkpt>
		<trkpt lat="35.165953" lon="-106.446036">
			<ele>2167.47</ele>
			<time>2015-03-08T19:09:11Z</time>
			<fix>3d</fix>
		</trkpt>
		<trkpt lat="35.165943" lon="-106.446068">
			<ele>2166.76</ele>
			<time>2015-03-08T19:09:12Z</time>
			<fix>3d</fix>
		</trkpt>
		<trkpt lat="35.165936" lon="-106.446075">
			<ele>2165.85</ele>
			<time>2015-03-08T19:09:13Z</time>
			<fix>3d</fix>
		</trkpt>
		<trkpt lat="35.165934" lon="-106.446080">
			<ele>2165.76</ele>
			<time>2015-03-08T19:09:14Z</time>
			<fix>3d</fix>
		</trkpt>
		<trkpt lat="35.165931" lon="-106.446087">
			<ele>2165.76</ele>
			<time>2015-03-08T19:09:15Z</time>
			<fix>3d</fix>
		</trkpt>
		<trkpt lat="35.165923" lon="-106.446118">
			<ele>2165.88</ele>
			<time>2015-03-08T19:09:16Z</time>
			<fix>3d</fix>
		</trkpt>
		<trkpt lat="35.165918" lon="-106.446122">
			<ele>2165.89</ele>
			<time>2015-03-08T19:09:18Z</time>
			<fix>3d</fix>
		</trkpt>
		<trkpt lat="35.165906" lon="-106.446137">
			<ele>2165.79</ele>
			<time>2015-03-08T19:09:19Z</time>
			<fix>3d</fix>
		</trkpt>
		<trkpt lat="35.165894" lon="-106.446142">
			<ele>2165.80</ele>
			<time>2015-03-08T19:09:20Z</time>
			<fix>3d</fix>
		</trkpt>
		<trkpt lat="35.165890" lon="-106.446145">
			<ele>2165.81</ele>
			<time>2015-03-08T19:09:21Z</time>
			<fix>3d</fix>
		</trkpt>
		<trkpt lat="35.165878" lon="-106.446156">
			<ele>2166.26</ele>
			<time>2015-03-08T19:09:22Z</time>
			<fix>3d</fix>
		</trkpt>
		<trkpt lat="35.165870" lon="-106.446165">
			<ele>2166.16</ele>
			<time>2015-03-08T19:09:23Z</time>
			<fix>3d</fix>
		</trkpt>
		<trkpt lat="35.165864" lon="-106.446172">
			<ele>2165.87</ele>
			<time>2015-03-08T19:09:25Z</time>
			<fix>3d</fix>
		</trkpt>
		<trkpt lat="35.165858" lon="-106.446180">
			<ele>2165.68</ele>
			<time>2015-03-08T19:09:27Z</time>
			<fix>3d</fix>
		</trkpt>
		<trkpt lat="35.165856" lon="-106.446181">
			<ele>2165.39</ele>
			<time>2015-03-08T19:09:28Z</time>
			<fix>3d</fix>
		</trkpt>
		<trkpt lat="35.165854" lon="-106.446194">
			<ele>2165.19</ele>
			<time>2015-03-08T19:09:29Z</time>
			<fix>3d</fix>
		</trkpt>
		<trkpt lat="35.165852" lon="-106.446206">
			<ele>2165.20</ele>
			<time>2015-03-08T19:09:30Z</time>
			<fix>3d</fix>
		</trkpt>
		<trkpt lat="35.165851" lon="-106.446208">
			<ele>2165.21</ele>
			<time>2015-03-08T19:09:31Z</time>
			<fix>3d</fix>
		</trkpt>
		<trkpt lat="35.165848" lon="-106.446224">
			<ele>2165.22</ele>
			<time>2015-03-08T19:09:32Z</time>
			<fix>3d</fix>
		</trkpt>
		<trkpt lat="35.165847" lon="-106.446227">
			<ele>2165.23</ele>
			<time>2015-03-08T19:09:33Z</time>
			<fix>3d</fix>
		</trkpt>
		<trkpt lat="35.165845" lon="-106.446246">
			<ele>2165.23</ele>
			<time>2015-03-08T19:09:34Z</time>
			<fix>3d</fix>
		</trkpt>
		<trkpt lat="35.165848" lon="-106.446288">
			<ele>2165.24</ele>
			<time>2015-03-08T19:09:35Z</time>
			<fix>3d</fix>
		</trkpt>
		<trkpt lat="35.165854" lon="-106.446317">
			<ele>2165.45</ele>
			<time>2015-03-08T19:09:36Z</time>
			<fix>3d</fix>
		</trkpt>
		<trkpt lat="35.165850" lon="-106.446326">
			<ele>2165.36</ele>
			<time>2015-03-08T19:09:38Z</time>
			<fix>3d</fix>
		</trkpt>
		<trkpt lat="35.165847" lon="-106.446331">
			<ele>2165.37</ele>
			<time>2015-03-08T19:09:39Z</time>
			<fix>3d</fix>
		</trkpt>
		<trkpt lat="35.165842" lon="-106.446338">
			<ele>2165.28</ele>
			<time>2015-03-08T19:09:41Z</time>
			<fix>3d</fix>
		</trkpt>
		<trkpt lat="35.165839" lon="-106.446349">
			<ele>2165.18</ele>
			<time>2015-03-08T19:09:42Z</time>
			<fix>3d</fix>
		</trkpt>
		<trkpt lat="35.165830" lon="-106.446374">
			<ele>2164.47</ele>
			<time>2015-03-08T19:09:43Z</time>
			<fix>3d</fix>
		</trkpt>
		<trkpt lat="35.165825" lon="-106.446382">
			<ele>2164.38</ele>
			<time>2015-03-08T19:09:44Z</time>
			<fix>3d</fix>
		</trkpt>
		<trkpt lat="35.165817" lon="-106.446390">
			<ele>2164.38</ele>
			<time>2015-03-08T19:09:45Z</time>
			<fix>3d</fix>
		</trkpt>
		<trkpt lat="35.165795" lon="-106.446411">
			<ele>2164.39</ele>
			<time>2015-03-08T19:09:46Z</time>
			<fix>3d</fix>
		</trkpt>
		<trkpt lat="35.165792" lon="-106.446411">
			<ele>2164.40</ele>
			<time>2015-03-08T19:09:47Z</time>
			<fix>3d</fix>
		</trkpt>
		<trkpt lat="35.165782" lon="-106.446420">
			<ele>2164.51</ele>
			<time>2015-03-08T19:09:48Z</time>
			<fix>3d</fix>
		</trkpt>
		<trkpt lat="35.165757" lon="-106.446441">
			<ele>2164.51</ele>
			<time>2015-03-08T19:09:49Z</time>
			<fix>3d</fix>
		</trkpt>
		<trkpt lat="35.165732" lon="-106.446455">
			<ele>2164.52</ele>
			<time>2015-03-08T19:09:50Z</time>
			<fix>3d</fix>
		</trkpt>
		<trkpt lat="35.165714" lon="-106.446465">
			<ele>2164.53</ele>
			<time>2015-03-08T19:09:51Z</time>
			<fix>3d</fix>
		</trkpt>
		<trkpt lat="35.165707" lon="-106.446467">
			<ele>2164.34</ele>
			<time>2015-03-08T19:09:53Z</time>
			<fix>3d</fix>
		</trkpt>
		<trkpt lat="35.165700" lon="-106.446476">
			<ele>2164.24</ele>
			<time>2015-03-08T19:09:54Z</time>
			<fix>3d</fix>
		</trkpt>
		<trkpt lat="35.165685" lon="-106.446496">
			<ele>2164.25</ele>
			<time>2015-03-08T19:09:55Z</time>
			<fix>3d</fix>
		</trkpt>
		<trkpt lat="35.165676" lon="-106.446510">
			<ele>2164.15</ele>
			<time>2015-03-08T19:09:56Z</time>
			<fix>3d</fix>
		</trkpt>
		<trkpt lat="35.165667" lon="-106.446525">
			<ele>2163.75</ele>
			<time>2015-03-08T19:09:57Z</time>
			<fix>3d</fix>
		</trkpt>
		<trkpt lat="35.165659" lon="-106.446538">
			<ele>2163.14</ele>
			<time>2015-03-08T19:09:58Z</time>
			<fix>3d</fix>
		</trkpt>
		<trkpt lat="35.165656" lon="-106.446543">
			<ele>2163.05</ele>
			<time>2015-03-08T19:09:59Z</time>
			<fix>3d</fix>
		</trkpt>
		<trkpt lat="35.165645" lon="-106.446563">
			<ele>2163.06</ele>
			<time>2015-03-08T19:10:00Z</time>
			<fix>3d</fix>
		</trkpt>
		<trkpt lat="35.165639" lon="-106.446564">
			<ele>2162.97</ele>
			<time>2015-03-08T19:10:02Z</time>
			<fix>3d</fix>
		</trkpt>
		<trkpt lat="35.165635" lon="-106.446568">
			<ele>2162.88</ele>
			<time>2015-03-08T19:10:03Z</time>
			<fix>3d</fix>
		</trkpt>
		<trkpt lat="35.165624" lon="-106.446580">
			<ele>2162.88</ele>
			<time>2015-03-08T19:10:04Z</time>
			<fix>3d</fix>
		</trkpt>
		<trkpt lat="35.165621" lon="-106.446585">
			<ele>2162.79</ele>
			<time>2015-03-08T19:10:05Z</time>
			<fix>3d</fix>
		</trkpt>
		<trkpt lat="35.165610" lon="-106.446608">
			<ele>2162.80</ele>
			<time>2015-03-08T19:10:06Z</time>
			<fix>3d</fix>
		</trkpt>
		<trkpt lat="35.165603" lon="-106.446614">
			<ele>2162.80</ele>
			<time>2015-03-08T19:10:07Z</time>
			<fix>3d</fix>
		</trkpt>
		<trkpt lat="35.165598" lon="-106.446615">
			<ele>2162.62</ele>
			<time>2015-03-08T19:10:10Z</time>
			<fix>3d</fix>
		</trkpt>
		<trkpt lat="35.165596" lon="-106.446627">
			<ele>2162.53</ele>
			<time>2015-03-08T19:10:11Z</time>
			<fix>3d</fix>
		</trkpt>
		<trkpt lat="35.165594" lon="-106.446639">
			<ele>2162.33</ele>
			<time>2015-03-08T19:10:12Z</time>
			<fix>3d</fix>
		</trkpt>
		<trkpt lat="35.165588" lon="-106.446672">
			<ele>2162.34</ele>
			<time>2015-03-08T19:10:13Z</time>
			<fix>3d</fix>
		</trkpt>
		<trkpt lat="35.165587" lon="-106.446673">
			<ele>2162.25</ele>
			<time>2015-03-08T19:10:14Z</time>
			<fix>3d</fix>
		</trkpt>
		<trkpt lat="35.165584" lon="-106.446685">
			<ele>2162.15</ele>
			<time>2015-03-08T19:10:15Z</time>
			<fix>3d</fix>
		</trkpt>
		<trkpt lat="35.165580" lon="-106.446699">
			<ele>2162.16</ele>
			<time>2015-03-08T19:10:16Z</time>
			<fix>3d</fix>
		</trkpt>
		<trkpt lat="35.165568" lon="-106.446731">
			<ele>2162.17</ele>
			<time>2015-03-08T19:10:17Z</time>
			<fix>3d</fix>
		</trkpt>
		<trkpt lat="35.165567" lon="-106.446732">
			<ele>2162.07</ele>
			<time>2015-03-08T19:10:18Z</time>
			<fix>3d</fix>
		</trkpt>
		<trkpt lat="35.165558" lon="-106.446759">
			<ele>2162.08</ele>
			<time>2015-03-08T19:10:19Z</time>
			<fix>3d</fix>
		</trkpt>
		<trkpt lat="35.165550" lon="-106.446771">
			<ele>2161.68</ele>
			<time>2015-03-08T19:10:20Z</time>
			<fix>3d</fix>
		</trkpt>
		<trkpt lat="35.165547" lon="-106.446775">
			<ele>2161.28</ele>
			<time>2015-03-08T19:10:21Z</time>
			<fix>3d</fix>
		</trkpt>
		<trkpt lat="35.165545" lon="-106.446781">
			<ele>2161.22</ele>
			<time>2015-03-08T19:10:22Z</time>
			<fix>3d</fix>
		</trkpt>
		<trkpt lat="35.165539" lon="-106.446799">
			<ele>2161.23</ele>
			<time>2015-03-08T19:10:23Z</time>
			<fix>3d</fix>
		</trkpt>
		<trkpt lat="35.165530" lon="-106.446812">
			<ele>2161.24</ele>
			<time>2015-03-08T19:10:24Z</time>
			<fix>3d</fix>
		</trkpt>
		<trkpt lat="35.165520" lon="-106.446822">
			<ele>2161.25</ele>
			<time>2015-03-08T19:10:25Z</time>
			<fix>3d</fix>
		</trkpt>
		<trkpt lat="35.165503" lon="-106.446837">
			<ele>2161.16</ele>
			<time>2015-03-08T19:10:26Z</time>
			<fix>3d</fix>
		</trkpt>
		<trkpt lat="35.165490" lon="-106.446852">
			<ele>2161.17</ele>
			<time>2015-03-08T19:10:27Z</time>
			<fix>3d</fix>
		</trkpt>
		<trkpt lat="35.165481" lon="-106.446858">
			<ele>2161.18</ele>
			<time>2015-03-08T19:10:28Z</time>
			<fix>3d</fix>
		</trkpt>
		<trkpt lat="35.165472" lon="-106.446867">
			<ele>2161.19</ele>
			<time>2015-03-08T19:10:29Z</time>
			<fix>3d</fix>
		</trkpt>
		<trkpt lat="35.165461" lon="-106.446884">
			<ele>2161.20</ele>
			<time>2015-03-08T19:10:30Z</time>
			<fix>3d</fix>
		</trkpt>
		<trkpt lat="35.165453" lon="-106.446893">
			<ele>2161.10</ele>
			<time>2015-03-08T19:10:31Z</time>
			<fix>3d</fix>
		</trkpt>
		<trkpt lat="35.165446" lon="-106.446896">
			<ele>2161.11</ele>
			<time>2015-03-08T19:10:32Z</time>
			<fix>3d</fix>
		</trkpt>
		<trkpt lat="35.165440" lon="-106.446902">
			<ele>2161.03</ele>
			<time>2015-03-08T19:10:34Z</time>
			<fix>3d</fix>
		</trkpt>
		<trkpt lat="35.165434" lon="-106.446916">
			<ele>2161.04</ele>
			<time>2015-03-08T19:10:35Z</time>
			<fix>3d</fix>
		</trkpt>
		<trkpt lat="35.165433" lon="-106.446920">
			<ele>2160.95</ele>
			<time>2015-03-08T19:10:36Z</time>
			<fix>3d</fix>
		</trkpt>
		<trkpt lat="35.165426" lon="-106.446949">
			<ele>2160.88</ele>
			<time>2015-03-08T19:10:40Z</time>
			<fix>3d</fix>
		</trkpt>
		<trkpt lat="35.165419" lon="-106.446967">
			<ele>2160.69</ele>
			<time>2015-03-08T19:10:41Z</time>
			<fix>3d</fix>
		</trkpt>
		<trkpt lat="35.165417" lon="-106.446970">
			<ele>2159.98</ele>
			<time>2015-03-08T19:10:42Z</time>
			<fix>3d</fix>
		</trkpt>
		<trkpt lat="35.165415" lon="-106.446983">
			<ele>2159.79</ele>
			<time>2015-03-08T19:10:43Z</time>
			<fix>3d</fix>
		</trkpt>
		<trkpt lat="35.165416" lon="-106.446988">
			<ele>2159.80</ele>
			<time>2015-03-08T19:10:44Z</time>
			<fix>3d</fix>
		</trkpt>
		<trkpt lat="35.165435" lon="-106.447018">
			<ele>2159.81</ele>
			<time>2015-03-08T19:10:45Z</time>
			<fix>3d</fix>
		</trkpt>
		<trkpt lat="35.165451" lon="-106.447030">
			<ele>2159.71</ele>
			<time>2015-03-08T19:10:46Z</time>
			<fix>3d</fix>
		</trkpt>
		<trkpt lat="35.165454" lon="-106.447034">
			<ele>2159.53</ele>
			<time>2015-03-08T19:10:48Z</time>
			<fix>3d</fix>
		</trkpt>
		<trkpt lat="35.165455" lon="-106.447040">
			<ele>2159.02</ele>
			<time>2015-03-08T19:10:49Z</time>
			<fix>3d</fix>
		</trkpt>
		<trkpt lat="35.165442" lon="-106.447062">
			<ele>2158.85</ele>
			<time>2015-03-08T19:10:52Z</time>
			<fix>3d</fix>
		</trkpt>
		<trkpt lat="35.165440" lon="-106.447067">
			<ele>2158.85</ele>
			<time>2015-03-08T19:10:53Z</time>
			<fix>3d</fix>
		</trkpt>
		<trkpt lat="35.165431" lon="-106.447084">
			<ele>2158.86</ele>
			<time>2015-03-08T19:10:54Z</time>
			<fix>3d</fix>
		</trkpt>
		<trkpt lat="35.165423" lon="-106.447098">
			<ele>2158.77</ele>
			<time>2015-03-08T19:10:55Z</time>
			<fix>3d</fix>
		</trkpt>
		<trkpt lat="35.165416" lon="-106.447110">
			<ele>2158.67</ele>
			<time>2015-03-08T19:10:56Z</time>
			<fix>3d</fix>
		</trkpt>
		<trkpt lat="35.165409" lon="-106.447133">
			<ele>2158.27</ele>
			<time>2015-03-08T19:10:57Z</time>
			<fix>3d</fix>
		</trkpt>
		<trkpt lat="35.165402" lon="-106.447146">
			<ele>2158.18</ele>
			<time>2015-03-08T19:10:58Z</time>
			<fix>3d</fix>
		</trkpt>
		<trkpt lat="35.165399" lon="-106.447148">
			<ele>2158.08</ele>
			<time>2015-03-08T19:10:59Z</time>
			<fix>3d</fix>
		</trkpt>
		<trkpt lat="35.165395" lon="-106.447153">
			<ele>2158.09</ele>
			<time>2015-03-08T19:11:00Z</time>
			<fix>3d</fix>
		</trkpt>
		<trkpt lat="35.165391" lon="-106.447159">
			<ele>2158.10</ele>
			<time>2015-03-08T19:11:01Z</time>
			<fix>3d</fix>
		</trkpt>
		<trkpt lat="35.165386" lon="-106.447165">
			<ele>2158.11</ele>
			<time>2015-03-08T19:11:02Z</time>
			<fix>3d</fix>
		</trkpt>
		<trkpt lat="35.165390" lon="-106.447226">
			<ele>2158.14</ele>
			<time>2015-03-08T19:11:06Z</time>
			<fix>3d</fix>
		</trkpt>
		<trkpt lat="35.165385" lon="-106.447232">
			<ele>2158.05</ele>
			<time>2015-03-08T19:11:07Z</time>
			<fix>3d</fix>
		</trkpt>
		<trkpt lat="35.165384" lon="-106.447244">
			<ele>2158.05</ele>
			<time>2015-03-08T19:11:08Z</time>
			<fix>3d</fix>
		</trkpt>
		<trkpt lat="35.165390" lon="-106.447250">
			<ele>2157.86</ele>
			<time>2015-03-08T19:11:10Z</time>
			<fix>3d</fix>
		</trkpt>
		<trkpt lat="35.165394" lon="-106.447253">
			<ele>2157.87</ele>
			<time>2015-03-08T19:11:11Z</time>
			<fix>3d</fix>
		</trkpt>
		<trkpt lat="35.165399" lon="-106.447255">
			<ele>2157.79</ele>
			<time>2015-03-08T19:11:14Z</time>
			<fix>3d</fix>
		</trkpt>
		<trkpt lat="35.165426" lon="-106.447272">
			<ele>2157.79</ele>
			<time>2015-03-08T19:11:15Z</time>
			<fix>3d</fix>
		</trkpt>
		<trkpt lat="35.165426" lon="-106.447282">
			<ele>2157.70</ele>
			<time>2015-03-08T19:11:18Z</time>
			<fix>3d</fix>
		</trkpt>
		<trkpt lat="35.165429" lon="-106.447303">
			<ele>2157.71</ele>
			<time>2015-03-08T19:11:19Z</time>
			<fix>3d</fix>
		</trkpt>
		<trkpt lat="35.165430" lon="-106.447312">
			<ele>2157.41</ele>
			<time>2015-03-08T19:11:21Z</time>
			<fix>3d</fix>
		</trkpt>
		<trkpt lat="35.165432" lon="-106.447326">
			<ele>2157.39</ele>
			<time>2015-03-08T19:11:22Z</time>
			<fix>3d</fix>
		</trkpt>
		<trkpt lat="35.165434" lon="-106.447340">
			<ele>2157.40</ele>
			<time>2015-03-08T19:11:23Z</time>
			<fix>3d</fix>
		</trkpt>
		<trkpt lat="35.165434" lon="-106.447342">
			<ele>2157.30</ele>
			<time>2015-03-08T19:11:24Z</time>
			<fix>3d</fix>
		</trkpt>
		<trkpt lat="35.165448" lon="-106.447396">
			<ele>2157.30</ele>
			<time>2015-03-08T19:11:25Z</time>
			<fix>3d</fix>
		</trkpt>
		<trkpt lat="35.165456" lon="-106.447405">
			<ele>2157.20</ele>
			<time>2015-03-08T19:11:26Z</time>
			<fix>3d</fix>
		</trkpt>
		<trkpt lat="35.165456" lon="-106.447412">
			<ele>2157.32</ele>
			<time>2015-03-08T19:11:28Z</time>
			<fix>3d</fix>
		</trkpt>
		<trkpt lat="35.165454" lon="-106.447418">
			<ele>2157.32</ele>
			<time>2015-03-08T19:11:29Z</time>
			<fix>3d</fix>
		</trkpt>
		<trkpt lat="35.165449" lon="-106.447440">
			<ele>2157.22</ele>
			<time>2015-03-08T19:11:30Z</time>
			<fix>3d</fix>
		</trkpt>
		<trkpt lat="35.165447" lon="-106.447448">
			<ele>2156.71</ele>
			<time>2015-03-08T19:11:31Z</time>
			<fix>3d</fix>
		</trkpt>
		<trkpt lat="35.165445" lon="-106.447458">
			<ele>2156.41</ele>
			<time>2015-03-08T19:11:32Z</time>
			<fix>3d</fix>
		</trkpt>
		<trkpt lat="35.165443" lon="-106.447463">
			<ele>2156.42</ele>
			<time>2015-03-08T19:11:34Z</time>
			<fix>3d</fix>
		</trkpt>
		<trkpt lat="35.165444" lon="-106.447482">
			<ele>2156.32</ele>
			<time>2015-03-08T19:11:35Z</time>
			<fix>3d</fix>
		</trkpt>
		<trkpt lat="35.165444" lon="-106.447501">
			<ele>2156.33</ele>
			<time>2015-03-08T19:11:36Z</time>
			<fix>3d</fix>
		</trkpt>
		<trkpt lat="35.165445" lon="-106.447518">
			<ele>2156.13</ele>
			<time>2015-03-08T19:11:37Z</time>
			<fix>3d</fix>
		</trkpt>
		<trkpt lat="35.165444" lon="-106.447521">
			<ele>2155.72</ele>
			<time>2015-03-08T19:11:38Z</time>
			<fix>3d</fix>
		</trkpt>
		<trkpt lat="35.165444" lon="-106.447539">
			<ele>2155.62</ele>
			<time>2015-03-08T19:11:39Z</time>
			<fix>3d</fix>
		</trkpt>
		<trkpt lat="35.165443" lon="-106.447556">
			<ele>2155.63</ele>
			<time>2015-03-08T19:11:40Z</time>
			<fix>3d</fix>
		</trkpt>
		<trkpt lat="35.165439" lon="-106.447591">
			<ele>2155.53</ele>
			<time>2015-03-08T19:11:41Z</time>
			<fix>3d</fix>
		</trkpt>
		<trkpt lat="35.165434" lon="-106.447611">
			<ele>2155.33</ele>
			<time>2015-03-08T19:11:42Z</time>
			<fix>3d</fix>
		</trkpt>
		<trkpt lat="35.165433" lon="-106.447620">
			<ele>2154.83</ele>
			<time>2015-03-08T19:11:44Z</time>
			<fix>3d</fix>
		</trkpt>
		<trkpt lat="35.165434" lon="-106.447630">
			<ele>2154.83</ele>
			<time>2015-03-08T19:11:45Z</time>
			<fix>3d</fix>
		</trkpt>
		<trkpt lat="35.165435" lon="-106.447668">
			<ele>2154.63</ele>
			<time>2015-03-08T19:11:46Z</time>
			<fix>3d</fix>
		</trkpt>
		<trkpt lat="35.165433" lon="-106.447680">
			<ele>2154.54</ele>
			<time>2015-03-08T19:11:47Z</time>
			<fix>3d</fix>
		</trkpt>
		<trkpt lat="35.165440" lon="-106.447685">
			<ele>2154.55</ele>
			<time>2015-03-08T19:11:50Z</time>
			<fix>3d</fix>
		</trkpt>
		<trkpt lat="35.165445" lon="-106.447690">
			<ele>2154.56</ele>
			<time>2015-03-08T19:11:53Z</time>
			<fix>3d</fix>
		</trkpt>
		<trkpt lat="35.165448" lon="-106.447694">
			<ele>2154.67</ele>
			<time>2015-03-08T19:11:54Z</time>
			<fix>3d</fix>
		</trkpt>
		<trkpt lat="35.165450" lon="-106.447709">
			<ele>2154.57</ele>
			<time>2015-03-08T19:11:55Z</time>
			<fix>3d</fix>
		</trkpt>
		<trkpt lat="35.165448" lon="-106.447722">
			<ele>2154.57</ele>
			<time>2015-03-08T19:11:56Z</time>
			<fix>3d</fix>
		</trkpt>
		<trkpt lat="35.165447" lon="-106.447729">
			<ele>2154.57</ele>
			<time>2015-03-08T19:11:57Z</time>
			<fix>3d</fix>
		</trkpt>
		<trkpt lat="35.165446" lon="-106.447752">
			<ele>2154.57</ele>
			<time>2015-03-08T19:11:58Z</time>
			<fix>3d</fix>
		</trkpt>
		<trkpt lat="35.165445" lon="-106.447761">
			<ele>2154.47</ele>
			<time>2015-03-08T19:11:59Z</time>
			<fix>3d</fix>
		</trkpt>
		<trkpt lat="35.165444" lon="-106.447771">
			<ele>2154.37</ele>
			<time>2015-03-08T19:12:00Z</time>
			<fix>3d</fix>
		</trkpt>
		<trkpt lat="35.165442" lon="-106.447782">
			<ele>2154.07</ele>
			<time>2015-03-08T19:12:01Z</time>
			<fix>3d</fix>
		</trkpt>
		<trkpt lat="35.165438" lon="-106.447809">
			<ele>2154.07</ele>
			<time>2015-03-08T19:12:02Z</time>
			<fix>3d</fix>
		</trkpt>
		<trkpt lat="35.165435" lon="-106.447818">
			<ele>2152.85</ele>
			<time>2015-03-08T19:12:05Z</time>
			<fix>3d</fix>
		</trkpt>
		<trkpt lat="35.165431" lon="-106.447851">
			<ele>2152.54</ele>
			<time>2015-03-08T19:12:06Z</time>
			<fix>3d</fix>
		</trkpt>
		<trkpt lat="35.165431" lon="-106.447859">
			<ele>2152.65</ele>
			<time>2015-03-08T19:12:07Z</time>
			<fix>3d</fix>
		</trkpt>
		<trkpt lat="35.165427" lon="-106.447878">
			<ele>2152.55</ele>
			<time>2015-03-08T19:12:08Z</time>
			<fix>3d</fix>
		</trkpt>
		<trkpt lat="35.165421" lon="-106.447891">
			<ele>2152.55</ele>
			<time>2015-03-08T19:12:09Z</time>
			<fix>3d</fix>
		</trkpt>
		<trkpt lat="35.165418" lon="-106.447895">
			<ele>2152.55</ele>
			<time>2015-03-08T19:12:11Z</time>
			<fix>3d</fix>
		</trkpt>
		<trkpt lat="35.165416" lon="-106.447917">
			<ele>2152.56</ele>
			<time>2015-03-08T19:12:12Z</time>
			<fix>3d</fix>
		</trkpt>
		<trkpt lat="35.165418" lon="-106.447924">
			<ele>2152.46</ele>
			<time>2015-03-08T19:12:15Z</time>
			<fix>3d</fix>
		</trkpt>
		<trkpt lat="35.165419" lon="-106.447935">
			<ele>2152.46</ele>
			<time>2015-03-08T19:12:16Z</time>
			<fix>3d</fix>
		</trkpt>
		<trkpt lat="35.165417" lon="-106.447939">
			<ele>2152.46</ele>
			<time>2015-03-08T19:12:17Z</time>
			<fix>3d</fix>
		</trkpt>
		<trkpt lat="35.165429" lon="-106.447950">
			<ele>2152.47</ele>
			<time>2015-03-08T19:12:18Z</time>
			<fix>3d</fix>
		</trkpt>
		<trkpt lat="35.165467" lon="-106.447987">
			<ele>2152.26</ele>
			<time>2015-03-08T19:12:19Z</time>
			<fix>3d</fix>
		</trkpt>
		<trkpt lat="35.165483" lon="-106.448004">
			<ele>2152.06</ele>
			<time>2015-03-08T19:12:20Z</time>
			<fix>3d</fix>
		</trkpt>
		<trkpt lat="35.165480" lon="-106.448013">
			<ele>2152.16</ele>
			<time>2015-03-08T19:12:24Z</time>
			<fix>3d</fix>
		</trkpt>
		<trkpt lat="35.165472" lon="-106.448022">
			<ele>2152.06</ele>
			<time>2015-03-08T19:12:25Z</time>
			<fix>3d</fix>
		</trkpt>
		<trkpt lat="35.165455" lon="-106.448041">
			<ele>2152.06</ele>
			<time>2015-03-08T19:12:26Z</time>
			<fix>3d</fix>
		</trkpt>
		<trkpt lat="35.165450" lon="-106.448042">
			<ele>2151.86</ele>
			<time>2015-03-08T19:12:28Z</time>
			<fix>3d</fix>
		</trkpt>
		<trkpt lat="35.165431" lon="-106.448063">
			<ele>2151.87</ele>
			<time>2015-03-08T19:12:29Z</time>
			<fix>3d</fix>
		</trkpt>
		<trkpt lat="35.165415" lon="-106.448067">
			<ele>2151.66</ele>
			<time>2015-03-08T19:12:30Z</time>
			<fix>3d</fix>
		</trkpt>
		<trkpt lat="35.165400" lon="-106.448097">
			<ele>2151.27</ele>
			<time>2015-03-08T19:12:34Z</time>
			<fix>3d</fix>
		</trkpt>
		<trkpt lat="35.165406" lon="-106.448105">
			<ele>2151.27</ele>
			<time>2015-03-08T19:12:35Z</time>
			<fix>3d</fix>
		</trkpt>
		<trkpt lat="35.165410" lon="-106.448110">
			<ele>2150.76</ele>
			<time>2015-03-08T19:12:36Z</time>
			<fix>3d</fix>
		</trkpt>
		<trkpt lat="35.165419" lon="-106.448126">
			<ele>2150.05</ele>
			<time>2015-03-08T19:12:37Z</time>
			<fix>3d</fix>
		</trkpt>
		<trkpt lat="35.165421" lon="-106.448131">
			<ele>2150.05</ele>
			<time>2015-03-08T19:12:38Z</time>
			<fix>3d</fix>
		</trkpt>
		<trkpt lat="35.165421" lon="-106.448138">
			<ele>2150.05</ele>
			<time>2015-03-08T19:12:39Z</time>
			<fix>3d</fix>
		</trkpt>
		<trkpt lat="35.165416" lon="-106.448155">
			<ele>2150.06</ele>
			<time>2015-03-08T19:12:40Z</time>
			<fix>3d</fix>
		</trkpt>
		<trkpt lat="35.165408" lon="-106.448176">
			<ele>2149.96</ele>
			<time>2015-03-08T19:12:41Z</time>
			<fix>3d</fix>
		</trkpt>
		<trkpt lat="35.165401" lon="-106.448185">
			<ele>2149.86</ele>
			<time>2015-03-08T19:12:42Z</time>
			<fix>3d</fix>
		</trkpt>
		<trkpt lat="35.165402" lon="-106.448198">
			<ele>2149.76</ele>
			<time>2015-03-08T19:12:44Z</time>
			<fix>3d</fix>
		</trkpt>
		<trkpt lat="35.165403" lon="-106.448203">
			<ele>2149.76</ele>
			<time>2015-03-08T19:12:45Z</time>
			<fix>3d</fix>
		</trkpt>
		<trkpt lat="35.165404" lon="-106.448209">
			<ele>2148.75</ele>
			<time>2015-03-08T19:12:47Z</time>
			<fix>3d</fix>
		</trkpt>
		<trkpt lat="35.165408" lon="-106.448219">
			<ele>2148.65</ele>
			<time>2015-03-08T19:12:48Z</time>
			<fix>3d</fix>
		</trkpt>
		<trkpt lat="35.165412" lon="-106.448228">
			<ele>2148.65</ele>
			<time>2015-03-08T19:12:49Z</time>
			<fix>3d</fix>
		</trkpt>
		<trkpt lat="35.165416" lon="-106.448238">
			<ele>2148.65</ele>
			<time>2015-03-08T19:12:50Z</time>
			<fix>3d</fix>
		</trkpt>
		<trkpt lat="35.165416" lon="-106.448249">
			<ele>2148.66</ele>
			<time>2015-03-08T19:12:51Z</time>
			<fix>3d</fix>
		</trkpt>
		<trkpt lat="35.165415" lon="-106.448260">
			<ele>2148.66</ele>
			<time>2015-03-08T19:12:52Z</time>
			<fix>3d</fix>
		</trkpt>
		<trkpt lat="35.165414" lon="-106.448272">
			<ele>2148.66</ele>
			<time>2015-03-08T19:12:53Z</time>
			<fix>3d</fix>
		</trkpt>
		<trkpt lat="35.165415" lon="-106.448301">
			<ele>2148.66</ele>
			<time>2015-03-08T19:12:54Z</time>
			<fix>3d</fix>
		</trkpt>
		<trkpt lat="35.165417" lon="-106.448311">
			<ele>2148.57</ele>
			<time>2015-03-08T19:12:56Z</time>
			<fix>3d</fix>
		</trkpt>
		<trkpt lat="35.165420" lon="-106.448348">
			<ele>2148.57</ele>
			<time>2015-03-08T19:12:57Z</time>
			<fix>3d</fix>
		</trkpt>
		<trkpt lat="35.165419" lon="-106.448352">
			<ele>2148.58</ele>
			<time>2015-03-08T19:13:00Z</time>
			<fix>3d</fix>
		</trkpt>
		<trkpt lat="35.165422" lon="-106.448365">
			<ele>2148.48</ele>
			<time>2015-03-08T19:13:01Z</time>
			<fix>3d</fix>
		</trkpt>
		<trkpt lat="35.165422" lon="-106.448367">
			<ele>2148.28</ele>
			<time>2015-03-08T19:13:02Z</time>
			<fix>3d</fix>
		</trkpt>
		<trkpt lat="35.165425" lon="-106.448380">
			<ele>2148.28</ele>
			<time>2015-03-08T19:13:03Z</time>
			<fix>3d</fix>
		</trkpt>
		<trkpt lat="35.165424" lon="-106.448383">
			<ele>2148.08</ele>
			<time>2015-03-08T19:13:05Z</time>
			<fix>3d</fix>
		</trkpt>
		<trkpt lat="35.165425" lon="-106.448398">
			<ele>2147.98</ele>
			<time>2015-03-08T19:13:06Z</time>
			<fix>3d</fix>
		</trkpt>
		<trkpt lat="35.165426" lon="-106.448413">
			<ele>2147.58</ele>
			<time>2015-03-08T19:13:07Z</time>
			<fix>3d</fix>
		</trkpt>
		<trkpt lat="35.165429" lon="-106.448429">
			<ele>2147.27</ele>
			<time>2015-03-08T19:13:08Z</time>
			<fix>3d</fix>
		</trkpt>
		<trkpt lat="35.165432" lon="-106.448445">
			<ele>2147.17</ele>
			<time>2015-03-08T19:13:09Z</time>
			<fix>3d</fix>
		</trkpt>
		<trkpt lat="35.165439" lon="-106.448482">
			<ele>2147.18</ele>
			<time>2015-03-08T19:13:10Z</time>
			<fix>3d</fix>
		</trkpt>
		<trkpt lat="35.165439" lon="-106.448482">
			<ele>2147.08</ele>
			<time>2015-03-08T19:13:11Z</time>
			<fix>3d</fix>
		</trkpt>
		<trkpt lat="35.165446" lon="-106.448495">
			<ele>2147.08</ele>
			<time>2015-03-08T19:13:12Z</time>
			<fix>3d</fix>
		</trkpt>
		<trkpt lat="35.165454" lon="-106.448509">
			<ele>2147.09</ele>
			<time>2015-03-08T19:13:14Z</time>
			<fix>3d</fix>
		</trkpt>
		<trkpt lat="35.165479" lon="-106.448552">
			<ele>2146.99</ele>
			<time>2015-03-08T19:13:15Z</time>
			<fix>3d</fix>
		</trkpt>
		<trkpt lat="35.165482" lon="-106.448556">
			<ele>2146.79</ele>
			<time>2015-03-08T19:13:17Z</time>
			<fix>3d</fix>
		</trkpt>
		<trkpt lat="35.165487" lon="-106.448563">
			<ele>2146.69</ele>
			<time>2015-03-08T19:13:18Z</time>
			<fix>3d</fix>
		</trkpt>
		<trkpt lat="35.165494" lon="-106.448572">
			<ele>2146.49</ele>
			<time>2015-03-08T19:13:19Z</time>
			<fix>3d</fix>
		</trkpt>
		<trkpt lat="35.165502" lon="-106.448581">
			<ele>2146.39</ele>
			<time>2015-03-08T19:13:20Z</time>
			<fix>3d</fix>
		</trkpt>
		<trkpt lat="35.165522" lon="-106.448606">
			<ele>2146.30</ele>
			<time>2015-03-08T19:13:21Z</time>
			<fix>3d</fix>
		</trkpt>
		<trkpt lat="35.165537" lon="-106.448627">
			<ele>2146.51</ele>
			<time>2015-03-08T19:13:22Z</time>
			<fix>3d</fix>
		</trkpt>
		<trkpt lat="35.165543" lon="-106.448641">
			<ele>2146.41</ele>
			<time>2015-03-08T19:13:24Z</time>
			<fix>3d</fix>
		</trkpt>
		<trkpt lat="35.165545" lon="-106.448645">
			<ele>2146.12</ele>
			<time>2015-03-08T19:13:27Z</time>
			<fix>3d</fix>
		</trkpt>
		<trkpt lat="35.165551" lon="-106.448653">
			<ele>2145.62</ele>
			<time>2015-03-08T19:13:30Z</time>
			<fix>3d</fix>
		</trkpt>
		<trkpt lat="35.165572" lon="-106.448682">
			<ele>2145.52</ele>
			<time>2015-03-08T19:13:31Z</time>
			<fix>3d</fix>
		</trkpt>
		<trkpt lat="35.165573" lon="-106.448682">
			<ele>2145.32</ele>
			<time>2015-03-08T19:13:32Z</time>
			<fix>3d</fix>
		</trkpt>
		<trkpt lat="35.165580" lon="-106.448692">
			<ele>2144.91</ele>
			<time>2015-03-08T19:13:33Z</time>
			<fix>3d</fix>
		</trkpt>
		<trkpt lat="35.165581" lon="-106.448693">
			<ele>2144.81</ele>
			<time>2015-03-08T19:13:34Z</time>
			<fix>3d</fix>
		</trkpt>
		<trkpt lat="35.165601" lon="-106.448724">
			<ele>2144.82</ele>
			<time>2015-03-08T19:13:35Z</time>
			<fix>3d</fix>
		</trkpt>
		<trkpt lat="35.165613" lon="-106.448741">
			<ele>2144.82</ele>
			<time>2015-03-08T19:13:36Z</time>
			<fix>3d</fix>
		</trkpt>
		<trkpt lat="35.165617" lon="-106.448747">
			<ele>2144.72</ele>
			<time>2015-03-08T19:13:37Z</time>
			<fix>3d</fix>
		</trkpt>
		<trkpt lat="35.165622" lon="-106.448754">
			<ele>2144.72</ele>
			<time>2015-03-08T19:13:38Z</time>
			<fix>3d</fix>
		</trkpt>
		<trkpt lat="35.165628" lon="-106.448762">
			<ele>2144.73</ele>
			<time>2015-03-08T19:13:40Z</time>
			<fix>3d</fix>
		</trkpt>
		<trkpt lat="35.165629" lon="-106.448762">
			<ele>2144.63</ele>
			<time>2015-03-08T19:13:41Z</time>
			<fix>3d</fix>
		</trkpt>
		<trkpt lat="35.165638" lon="-106.448775">
			<ele>2144.53</ele>
			<time>2015-03-08T19:13:42Z</time>
			<fix>3d</fix>
		</trkpt>
		<trkpt lat="35.165646" lon="-106.448787">
			<ele>2144.02</ele>
			<time>2015-03-08T19:13:43Z</time>
			<fix>3d</fix>
		</trkpt>
		<trkpt lat="35.165653" lon="-106.448798">
			<ele>2143.61</ele>
			<time>2015-03-08T19:13:44Z</time>
			<fix>3d</fix>
		</trkpt>
		<trkpt lat="35.165660" lon="-106.448808">
			<ele>2143.51</ele>
			<time>2015-03-08T19:13:45Z</time>
			<fix>3d</fix>
		</trkpt>
		<trkpt lat="35.165663" lon="-106.448817">
			<ele>2143.62</ele>
			<time>2015-03-08T19:13:46Z</time>
			<fix>3d</fix>
		</trkpt>
		<trkpt lat="35.165658" lon="-106.448847">
			<ele>2143.62</ele>
			<time>2015-03-08T19:13:48Z</time>
			<fix>3d</fix>
		</trkpt>
		<trkpt lat="35.165653" lon="-106.448863">
			<ele>2143.23</ele>
			<time>2015-03-08T19:13:53Z</time>
			<fix>3d</fix>
		</trkpt>
		<trkpt lat="35.165655" lon="-106.448877">
			<ele>2142.61</ele>
			<time>2015-03-08T19:13:54Z</time>
			<fix>3d</fix>
		</trkpt>
		<trkpt lat="35.165666" lon="-106.448916">
			<ele>2142.41</ele>
			<time>2015-03-08T19:13:57Z</time>
			<fix>3d</fix>
		</trkpt>
		<trkpt lat="35.165668" lon="-106.448920">
			<ele>2142.31</ele>
			<time>2015-03-08T19:13:58Z</time>
			<fix>3d</fix>
		</trkpt>
		<trkpt lat="35.165685" lon="-106.448947">
			<ele>2142.32</ele>
			<time>2015-03-08T19:13:59Z</time>
			<fix>3d</fix>
		</trkpt>
		<trkpt lat="35.165693" lon="-106.448958">
			<ele>2142.32</ele>
			<time>2015-03-08T19:14:00Z</time>
			<fix>3d</fix>
		</trkpt>
		<trkpt lat="35.165703" lon="-106.448973">
			<ele>2142.32</ele>
			<time>2015-03-08T19:14:01Z</time>
			<fix>3d</fix>
		</trkpt>
		<trkpt lat="35.165707" lon="-106.448980">
			<ele>2142.42</ele>
			<time>2015-03-08T19:14:02Z</time>
			<fix>3d</fix>
		</trkpt>
		<trkpt lat="35.165730" lon="-106.449014">
			<ele>2142.32</ele>
			<time>2015-03-08T19:14:03Z</time>
			<fix>3d</fix>
		</trkpt>
		<trkpt lat="35.165745" lon="-106.449029">
			<ele>2142.43</ele>
			<time>2015-03-08T19:14:04Z</time>
			<fix>3d</fix>
		</trkpt>
		<trkpt lat="35.165753" lon="-106.449036">
			<ele>2142.63</ele>
			<time>2015-03-08T19:14:05Z</time>
			<fix>3d</fix>
		</trkpt>
		<trkpt lat="35.165761" lon="-106.449046">
			<ele>2142.74</ele>
			<time>2015-03-08T19:14:06Z</time>
			<fix>3d</fix>
		</trkpt>
		<trkpt lat="35.165768" lon="-106.449059">
			<ele>2142.74</ele>
			<time>2015-03-08T19:14:08Z</time>
			<fix>3d</fix>
		</trkpt>
		<trkpt lat="35.165779" lon="-106.449085">
			<ele>2142.94</ele>
			<time>2015-03-08T19:14:09Z</time>
			<fix>3d</fix>
		</trkpt>
		<trkpt lat="35.165779" lon="-106.449093">
			<ele>2142.94</ele>
			<time>2015-03-08T19:14:12Z</time>
			<fix>3d</fix>
		</trkpt>
		<trkpt lat="35.165780" lon="-106.449100">
			<ele>2142.84</ele>
			<time>2015-03-08T19:14:13Z</time>
			<fix>3d</fix>
		</trkpt>
		<trkpt lat="35.165781" lon="-106.449118">
			<ele>2142.64</ele>
			<time>2015-03-08T19:14:14Z</time>
			<fix>3d</fix>
		</trkpt>
		<trkpt lat="35.165780" lon="-106.449132">
			<ele>2142.02</ele>
			<time>2015-03-08T19:14:15Z</time>
			<fix>3d</fix>
		</trkpt>
		<trkpt lat="35.165779" lon="-106.449141">
			<ele>2141.72</ele>
			<time>2015-03-08T19:14:16Z</time>
			<fix>3d</fix>
		</trkpt>
		<trkpt lat="35.165773" lon="-106.449144">
			<ele>2141.72</ele>
			<time>2015-03-08T19:14:18Z</time>
			<fix>3d</fix>
		</trkpt>
		<trkpt lat="35.165770" lon="-106.449148">
			<ele>2141.61</ele>
			<time>2015-03-08T19:14:19Z</time>
			<fix>3d</fix>
		</trkpt>
		<trkpt lat="35.165765" lon="-106.449158">
			<ele>2141.51</ele>
			<time>2015-03-08T19:14:20Z</time>
			<fix>3d</fix>
		</trkpt>
		<trkpt lat="35.165762" lon="-106.449168">
			<ele>2141.72</ele>
			<time>2015-03-08T19:14:22Z</time>
			<fix>3d</fix>
		</trkpt>
		<trkpt lat="35.165760" lon="-106.449175">
			<ele>2141.71</ele>
			<time>2015-03-08T19:14:23Z</time>
			<fix>3d</fix>
		</trkpt>
		<trkpt lat="35.165757" lon="-106.449182">
			<ele>2141.71</ele>
			<time>2015-03-08T19:14:25Z</time>
			<fix>3d</fix>
		</trkpt>
		<trkpt lat="35.165756" lon="-106.449192">
			<ele>2141.61</ele>
			<time>2015-03-08T19:14:26Z</time>
			<fix>3d</fix>
		</trkpt>
		<trkpt lat="35.165755" lon="-106.449193">
			<ele>2141.50</ele>
			<time>2015-03-08T19:14:27Z</time>
			<fix>3d</fix>
		</trkpt>
		<trkpt lat="35.165755" lon="-106.449226">
			<ele>2141.09</ele>
			<time>2015-03-08T19:14:28Z</time>
			<fix>3d</fix>
		</trkpt>
		<trkpt lat="35.165754" lon="-106.449227">
			<ele>2140.99</ele>
			<time>2015-03-08T19:14:29Z</time>
			<fix>3d</fix>
		</trkpt>
		<trkpt lat="35.165753" lon="-106.449239">
			<ele>2140.89</ele>
			<time>2015-03-08T19:14:30Z</time>
			<fix>3d</fix>
		</trkpt>
		<trkpt lat="35.165752" lon="-106.449250">
			<ele>2140.89</ele>
			<time>2015-03-08T19:14:31Z</time>
			<fix>3d</fix>
		</trkpt>
		<trkpt lat="35.165749" lon="-106.449277">
			<ele>2140.89</ele>
			<time>2015-03-08T19:14:32Z</time>
			<fix>3d</fix>
		</trkpt>
		<trkpt lat="35.165750" lon="-106.449301">
			<ele>2140.78</ele>
			<time>2015-03-08T19:14:33Z</time>
			<fix>3d</fix>
		</trkpt>
		<trkpt lat="35.165753" lon="-106.449308">
			<ele>2140.37</ele>
			<time>2015-03-08T19:14:36Z</time>
			<fix>3d</fix>
		</trkpt>
		<trkpt lat="35.165762" lon="-106.449335">
			<ele>2140.36</ele>
			<time>2015-03-08T19:14:37Z</time>
			<fix>3d</fix>
		</trkpt>
		<trkpt lat="35.165766" lon="-106.449339">
			<ele>2139.73</ele>
			<time>2015-03-08T19:14:44Z</time>
			<fix>3d</fix>
		</trkpt>
		<trkpt lat="35.165769" lon="-106.449348">
			<ele>2139.32</ele>
			<time>2015-03-08T19:14:46Z</time>
			<fix>3d</fix>
		</trkpt>
		<trkpt lat="35.165768" lon="-106.449350">
			<ele>2138.90</ele>
			<time>2015-03-08T19:14:47Z</time>
			<fix>3d</fix>
		</trkpt>
		<trkpt lat="35.165770" lon="-106.449362">
			<ele>2138.59</ele>
			<time>2015-03-08T19:14:48Z</time>
			<fix>3d</fix>
		</trkpt>
		<trkpt lat="35.165770" lon="-106.449372">
			<ele>2138.39</ele>
			<time>2015-03-08T19:14:49Z</time>
			<fix>3d</fix>
		</trkpt>
		<trkpt lat="35.165773" lon="-106.449402">
			<ele>2138.28</ele>
			<time>2015-03-08T19:14:50Z</time>
			<fix>3d</fix>
		</trkpt>
		<trkpt lat="35.165776" lon="-106.449404">
			<ele>2138.17</ele>
			<time>2015-03-08T19:14:52Z</time>
			<fix>3d</fix>
		</trkpt>
		<trkpt lat="35.165783" lon="-106.449411">
			<ele>2137.76</ele>
			<time>2015-03-08T19:14:53Z</time>
			<fix>3d</fix>
		</trkpt>
		<trkpt lat="35.165786" lon="-106.449420">
			<ele>2137.55</ele>
			<time>2015-03-08T19:14:54Z</time>
			<fix>3d</fix>
		</trkpt>
		<trkpt lat="35.165784" lon="-106.449429">
			<ele>2137.23</ele>
			<time>2015-03-08T19:14:57Z</time>
			<fix>3d</fix>
		</trkpt>
		<trkpt lat="35.165776" lon="-106.449436">
			<ele>2137.23</ele>
			<time>2015-03-08T19:14:58Z</time>
			<fix>3d</fix>
		</trkpt>
		<trkpt lat="35.165774" lon="-106.449435">
			<ele>2137.02</ele>
			<time>2015-03-08T19:14:59Z</time>
			<fix>3d</fix>
		</trkpt>
		<trkpt lat="35.165764" lon="-106.449447">
			<ele>2136.60</ele>
			<time>2015-03-08T19:15:02Z</time>
			<fix>3d</fix>
		</trkpt>
		<trkpt lat="35.165757" lon="-106.449464">
			<ele>2136.40</ele>
			<time>2015-03-08T19:15:03Z</time>
			<fix>3d</fix>
		</trkpt>
		<trkpt lat="35.165746" lon="-106.449483">
			<ele>2135.98</ele>
			<time>2015-03-08T19:15:04Z</time>
			<fix>3d</fix>
		</trkpt>
		<trkpt lat="35.165738" lon="-106.449487">
			<ele>2135.87</ele>
			<time>2015-03-08T19:15:07Z</time>
			<fix>3d</fix>
		</trkpt>
		<trkpt lat="35.165730" lon="-106.449504">
			<ele>2135.76</ele>
			<time>2015-03-08T19:15:08Z</time>
			<fix>3d</fix>
		</trkpt>
		<trkpt lat="35.165727" lon="-106.449511">
			<ele>2135.34</ele>
			<time>2015-03-08T19:15:11Z</time>
			<fix>3d</fix>
		</trkpt>
		<trkpt lat="35.165726" lon="-106.449524">
			<ele>2134.62</ele>
			<time>2015-03-08T19:15:12Z</time>
			<fix>3d</fix>
		</trkpt>
		<trkpt lat="35.165727" lon="-106.449537">
			<ele>2134.52</ele>
			<time>2015-03-08T19:15:13Z</time>
			<fix>3d</fix>
		</trkpt>
		<trkpt lat="35.165735" lon="-106.449568">
			<ele>2134.52</ele>
			<time>2015-03-08T19:15:14Z</time>
			<fix>3d</fix>
		</trkpt>
		<trkpt lat="35.165745" lon="-106.449586">
			<ele>2134.51</ele>
			<time>2015-03-08T19:15:15Z</time>
			<fix>3d</fix>
		</trkpt>
		<trkpt lat="35.165750" lon="-106.449592">
			<ele>2134.51</ele>
			<time>2015-03-08T19:15:17Z</time>
			<fix>3d</fix>
		</trkpt>
		<trkpt lat="35.165770" lon="-106.449615">
			<ele>2134.40</ele>
			<time>2015-03-08T19:15:18Z</time>
			<fix>3d</fix>
		</trkpt>
		<trkpt lat="35.165775" lon="-106.449621">
			<ele>2134.45</ele>
			<time>2015-03-08T19:15:22Z</time>
			<fix>3d</fix>
		</trkpt>
		<trkpt lat="35.165781" lon="-106.449626">
			<ele>2134.24</ele>
			<time>2015-03-08T19:15:25Z</time>
			<fix>3d</fix>
		</trkpt>
		<trkpt lat="35.165783" lon="-106.449627">
			<ele>2134.22</ele>
			<time>2015-03-08T19:15:28Z</time>
			<fix>3d</fix>
		</trkpt>
		<trkpt lat="35.165792" lon="-106.449643">
			<ele>2134.11</ele>
			<time>2015-03-08T19:15:29Z</time>
			<fix>3d</fix>
		</trkpt>
		<trkpt lat="35.165794" lon="-106.449648">
			<ele>2133.98</ele>
			<time>2015-03-08T19:15:34Z</time>
			<fix>3d</fix>
		</trkpt>
		<trkpt lat="35.165798" lon="-106.449654">
			<ele>2133.87</ele>
			<time>2015-03-08T19:15:36Z</time>
			<fix>3d</fix>
		</trkpt>
		<trkpt lat="35.165787" lon="-106.449661">
			<ele>2132.31</ele>
			<time>2015-03-08T19:15:40Z</time>
			<fix>3d</fix>
		</trkpt>
		<trkpt lat="35.165776" lon="-106.449667">
			<ele>2132.30</ele>
			<time>2015-03-08T19:15:41Z</time>
			<fix>3d</fix>
		</trkpt>
		<trkpt lat="35.165766" lon="-106.449673">
			<ele>2132.20</ele>
			<time>2015-03-08T19:15:42Z</time>
			<fix>3d</fix>
		</trkpt>
		<trkpt lat="35.165762" lon="-106.449686">
			<ele>2131.88</ele>
			<time>2015-03-08T19:15:44Z</time>
			<fix>3d</fix>
		</trkpt>
		<trkpt lat="35.165760" lon="-106.449689">
			<ele>2131.56</ele>
			<time>2015-03-08T19:15:46Z</time>
			<fix>3d</fix>
		</trkpt>
		<trkpt lat="35.165767" lon="-106.449711">
			<ele>2131.56</ele>
			<time>2015-03-08T19:15:47Z</time>
			<fix>3d</fix>
		</trkpt>
		<trkpt lat="35.165778" lon="-106.449725">
			<ele>2131.55</ele>
			<time>2015-03-08T19:15:48Z</time>
			<fix>3d</fix>
		</trkpt>
		<trkpt lat="35.165787" lon="-106.449737">
			<ele>2131.55</ele>
			<time>2015-03-08T19:15:49Z</time>
			<fix>3d</fix>
		</trkpt>
		<trkpt lat="35.165788" lon="-106.449740">
			<ele>2131.55</ele>
			<time>2015-03-08T19:15:50Z</time>
			<fix>3d</fix>
		</trkpt>
		<trkpt lat="35.165806" lon="-106.449771">
			<ele>2131.53</ele>
			<time>2015-03-08T19:15:53Z</time>
			<fix>3d</fix>
		</trkpt>
		<trkpt lat="35.165813" lon="-106.449782">
			<ele>2131.53</ele>
			<time>2015-03-08T19:15:54Z</time>
			<fix>3d</fix>
		</trkpt>
		<trkpt lat="35.165824" lon="-106.449804">
			<ele>2131.53</ele>
			<time>2015-03-08T19:15:55Z</time>
			<fix>3d</fix>
		</trkpt>
		<trkpt lat="35.165829" lon="-106.449810">
			<ele>2131.52</ele>
			<time>2015-03-08T19:15:56Z</time>
			<fix>3d</fix>
		</trkpt>
		<trkpt lat="35.165836" lon="-106.449822">
			<ele>2131.52</ele>
			<time>2015-03-08T19:15:57Z</time>
			<fix>3d</fix>
		</trkpt>
		<trkpt lat="35.165849" lon="-106.449847">
			<ele>2131.51</ele>
			<time>2015-03-08T19:15:58Z</time>
			<fix>3d</fix>
		</trkpt>
		<trkpt lat="35.165852" lon="-106.449857">
			<ele>2131.61</ele>
			<time>2015-03-08T19:15:59Z</time>
			<fix>3d</fix>
		</trkpt>
		<trkpt lat="35.165852" lon="-106.449862">
			<ele>2131.61</ele>
			<time>2015-03-08T19:16:00Z</time>
			<fix>3d</fix>
		</trkpt>
		<trkpt lat="35.165854" lon="-106.449870">
			<ele>2131.61</ele>
			<time>2015-03-08T19:16:01Z</time>
			<fix>3d</fix>
		</trkpt>
		<trkpt lat="35.165863" lon="-106.449891">
			<ele>2131.60</ele>
			<time>2015-03-08T19:16:02Z</time>
			<fix>3d</fix>
		</trkpt>
		<trkpt lat="35.165876" lon="-106.449916">
			<ele>2131.50</ele>
			<time>2015-03-08T19:16:03Z</time>
			<fix>3d</fix>
		</trkpt>
		<trkpt lat="35.165877" lon="-106.449919">
			<ele>2131.39</ele>
			<time>2015-03-08T19:16:04Z</time>
			<fix>3d</fix>
		</trkpt>
		<trkpt lat="35.165884" lon="-106.449931">
			<ele>2131.29</ele>
			<time>2015-03-08T19:16:05Z</time>
			<fix>3d</fix>
		</trkpt>
		<trkpt lat="35.165886" lon="-106.449937">
			<ele>2131.28</ele>
			<time>2015-03-08T19:16:06Z</time>
			<fix>3d</fix>
		</trkpt>
		<trkpt lat="35.165892" lon="-106.449956">
			<ele>2131.18</ele>
			<time>2015-03-08T19:16:07Z</time>
			<fix>3d</fix>
		</trkpt>
		<trkpt lat="35.165894" lon="-106.449963">
			<ele>2131.07</ele>
			<time>2015-03-08T19:16:08Z</time>
			<fix>3d</fix>
		</trkpt>
		<trkpt lat="35.165904" lon="-106.449994">
			<ele>2131.06</ele>
			<time>2015-03-08T19:16:09Z</time>
			<fix>3d</fix>
		</trkpt>
		<trkpt lat="35.165907" lon="-106.450002">
			<ele>2130.95</ele>
			<time>2015-03-08T19:16:12Z</time>
			<fix>3d</fix>
		</trkpt>
		<trkpt lat="35.165913" lon="-106.450018">
			<ele>2130.94</ele>
			<time>2015-03-08T19:16:13Z</time>
			<fix>3d</fix>
		</trkpt>
		<trkpt lat="35.165915" lon="-106.450024">
			<ele>2130.94</ele>
			<time>2015-03-08T19:16:14Z</time>
			<fix>3d</fix>
		</trkpt>
		<trkpt lat="35.165927" lon="-106.450053">
			<ele>2130.93</ele>
			<time>2015-03-08T19:16:15Z</time>
			<fix>3d</fix>
		</trkpt>
		<trkpt lat="35.165928" lon="-106.450056">
			<ele>2130.93</ele>
			<time>2015-03-08T19:16:16Z</time>
			<fix>3d</fix>
		</trkpt>
		<trkpt lat="35.165936" lon="-106.450069">
			<ele>2130.92</ele>
			<time>2015-03-08T19:16:17Z</time>
			<fix>3d</fix>
		</trkpt>
		<trkpt lat="35.165941" lon="-106.450080">
			<ele>2130.92</ele>
			<time>2015-03-08T19:16:18Z</time>
			<fix>3d</fix>
		</trkpt>
		<trkpt lat="35.165944" lon="-106.450085">
			<ele>2131.01</ele>
			<time>2015-03-08T19:16:19Z</time>
			<fix>3d</fix>
		</trkpt>
		<trkpt lat="35.165953" lon="-106.450099">
			<ele>2130.91</ele>
			<time>2015-03-08T19:16:20Z</time>
			<fix>3d</fix>
		</trkpt>
		<trkpt lat="35.165962" lon="-106.450111">
			<ele>2130.90</ele>
			<time>2015-03-08T19:16:21Z</time>
			<fix>3d</fix>
		</trkpt>
		<trkpt lat="35.165966" lon="-106.450115">
			<ele>2131.25</ele>
			<time>2015-03-08T19:16:22Z</time>
			<fix>3d</fix>
		</trkpt>
		<trkpt lat="35.165970" lon="-106.450121">
			<ele>2131.24</ele>
			<time>2015-03-08T19:16:23Z</time>
			<fix>3d</fix>
		</trkpt>
		<trkpt lat="35.165976" lon="-106.450129">
			<ele>2131.23</ele>
			<time>2015-03-08T19:16:24Z</time>
			<fix>3d</fix>
		</trkpt>
		<trkpt lat="35.165982" lon="-106.450137">
			<ele>2131.23</ele>
			<time>2015-03-08T19:16:25Z</time>
			<fix>3d</fix>
		</trkpt>
		<trkpt lat="35.165999" lon="-106.450160">
			<ele>2131.22</ele>
			<time>2015-03-08T19:16:26Z</time>
			<fix>3d</fix>
		</trkpt>
		<trkpt lat="35.166011" lon="-106.450176">
			<ele>2131.22</ele>
			<time>2015-03-08T19:16:27Z</time>
			<fix>3d</fix>
		</trkpt>
		<trkpt lat="35.166016" lon="-106.450181">
			<ele>2131.11</ele>
			<time>2015-03-08T19:16:28Z</time>
			<fix>3d</fix>
		</trkpt>
		<trkpt lat="35.166024" lon="-106.450196">
			<ele>2131.00</ele>
			<time>2015-03-08T19:16:29Z</time>
			<fix>3d</fix>
		</trkpt>
		<trkpt lat="35.166029" lon="-106.450209">
			<ele>2130.99</ele>
			<time>2015-03-08T19:16:30Z</time>
			<fix>3d</fix>
		</trkpt>
		<trkpt lat="35.166034" lon="-106.450222">
			<ele>2130.98</ele>
			<time>2015-03-08T19:16:31Z</time>
			<fix>3d</fix>
		</trkpt>
		<trkpt lat="35.166036" lon="-106.450226">
			<ele>2130.88</ele>
			<time>2015-03-08T19:16:32Z</time>
			<fix>3d</fix>
		</trkpt>
		<trkpt lat="35.166050" lon="-106.450252">
			<ele>2130.87</ele>
			<time>2015-03-08T19:16:33Z</time>
			<fix>3d</fix>
		</trkpt>
		<trkpt lat="35.166061" lon="-106.450263">
			<ele>2130.76</ele>
			<time>2015-03-08T19:16:34Z</time>
			<fix>3d</fix>
		</trkpt>
		<trkpt lat="35.166072" lon="-106.450274">
			<ele>2130.75</ele>
			<time>2015-03-08T19:16:35Z</time>
			<fix>3d</fix>
		</trkpt>
		<trkpt lat="35.166077" lon="-106.450280">
			<ele>2130.75</ele>
			<time>2015-03-08T19:16:36Z</time>
			<fix>3d</fix>
		</trkpt>
		<trkpt lat="35.166079" lon="-106.450284">
			<ele>2130.64</ele>
			<time>2015-03-08T19:16:37Z</time>
			<fix>3d</fix>
		</trkpt>
		<trkpt lat="35.166088" lon="-106.450305">
			<ele>2130.53</ele>
			<time>2015-03-08T19:16:38Z</time>
			<fix>3d</fix>
		</trkpt>
		<trkpt lat="35.166091" lon="-106.450312">
			<ele>2130.09</ele>
			<time>2015-03-08T19:16:42Z</time>
			<fix>3d</fix>
		</trkpt>
		<trkpt lat="35.166107" lon="-106.450346">
			<ele>2130.08</ele>
			<time>2015-03-08T19:16:43Z</time>
			<fix>3d</fix>
		</trkpt>
		<trkpt lat="35.166107" lon="-106.450351">
			<ele>2129.97</ele>
			<time>2015-03-08T19:16:44Z</time>
			<fix>3d</fix>
		</trkpt>
		<trkpt lat="35.166106" lon="-106.450366">
			<ele>2129.86</ele>
			<time>2015-03-08T19:16:45Z</time>
			<fix>3d</fix>
		</trkpt>
		<trkpt lat="35.166105" lon="-106.450368">
			<ele>2129.55</ele>
			<time>2015-03-08T19:16:46Z</time>
			<fix>3d</fix>
		</trkpt>
		<trkpt lat="35.166101" lon="-106.450380">
			<ele>2129.13</ele>
			<time>2015-03-08T19:16:47Z</time>
			<fix>3d</fix>
		</trkpt>
		<trkpt lat="35.166101" lon="-106.450382">
			<ele>2128.92</ele>
			<time>2015-03-08T19:16:48Z</time>
			<fix>3d</fix>
		</trkpt>
		<trkpt lat="35.166108" lon="-106.450397">
			<ele>2128.71</ele>
			<time>2015-03-08T19:16:49Z</time>
			<fix>3d</fix>
		</trkpt>
		<trkpt lat="35.166110" lon="-106.450399">
			<ele>2128.39</ele>
			<time>2015-03-08T19:16:50Z</time>
			<fix>3d</fix>
		</trkpt>
		<trkpt lat="35.166109" lon="-106.450409">
			<ele>2128.38</ele>
			<time>2015-03-08T19:16:51Z</time>
			<fix>3d</fix>
		</trkpt>
		<trkpt lat="35.166105" lon="-106.450416">
			<ele>2128.27</ele>
			<time>2015-03-08T19:16:52Z</time>
			<fix>3d</fix>
		</trkpt>
		<trkpt lat="35.166104" lon="-106.450419">
			<ele>2128.27</ele>
			<time>2015-03-08T19:16:53Z</time>
			<fix>3d</fix>
		</trkpt>
		<trkpt lat="35.166098" lon="-106.450429">
			<ele>2128.26</ele>
			<time>2015-03-08T19:16:54Z</time>
			<fix>3d</fix>
		</trkpt>
		<trkpt lat="35.166093" lon="-106.450438">
			<ele>2128.05</ele>
			<time>2015-03-08T19:16:55Z</time>
			<fix>3d</fix>
		</trkpt>
		<trkpt lat="35.166085" lon="-106.450442">
			<ele>2128.04</ele>
			<time>2015-03-08T19:16:57Z</time>
			<fix>3d</fix>
		</trkpt>
		<trkpt lat="35.166080" lon="-106.450446">
			<ele>2128.03</ele>
			<time>2015-03-08T19:16:58Z</time>
			<fix>3d</fix>
		</trkpt>
		<trkpt lat="35.166074" lon="-106.450450">
			<ele>2127.92</ele>
			<time>2015-03-08T19:16:59Z</time>
			<fix>3d</fix>
		</trkpt>
		<trkpt lat="35.166070" lon="-106.450456">
			<ele>2127.71</ele>
			<time>2015-03-08T19:17:00Z</time>
			<fix>3d</fix>
		</trkpt>
		<trkpt lat="35.166063" lon="-106.450473">
			<ele>2127.60</ele>
			<time>2015-03-08T19:17:01Z</time>
			<fix>3d</fix>
		</trkpt>
		<trkpt lat="35.166062" lon="-106.450479">
			<ele>2127.08</ele>
			<time>2015-03-08T19:17:02Z</time>
			<fix>3d</fix>
		</trkpt>
		<trkpt lat="35.166060" lon="-106.450486">
			<ele>2126.97</ele>
			<time>2015-03-08T19:17:03Z</time>
			<fix>3d</fix>
		</trkpt>
		<trkpt lat="35.166056" lon="-106.450494">
			<ele>2126.96</ele>
			<time>2015-03-08T19:17:05Z</time>
			<fix>3d</fix>
		</trkpt>
		<trkpt lat="35.166054" lon="-106.450524">
			<ele>2126.96</ele>
			<time>2015-03-08T19:17:06Z</time>
			<fix>3d</fix>
		</trkpt>
		<trkpt lat="35.166056" lon="-106.450544">
			<ele>2126.85</ele>
			<time>2015-03-08T19:17:07Z</time>
			<fix>3d</fix>
		</trkpt>
		<trkpt lat="35.166066" lon="-106.450571">
			<ele>2126.84</ele>
			<time>2015-03-08T19:17:08Z</time>
			<fix>3d</fix>
		</trkpt>
		<trkpt lat="35.166069" lon="-106.450575">
			<ele>2126.74</ele>
			<time>2015-03-08T19:17:09Z</time>
			<fix>3d</fix>
		</trkpt>
		<trkpt lat="35.166075" lon="-106.450582">
			<ele>2126.53</ele>
			<time>2015-03-08T19:17:10Z</time>
			<fix>3d</fix>
		</trkpt>
		<trkpt lat="35.166082" lon="-106.450590">
			<ele>2126.31</ele>
			<time>2015-03-08T19:17:11Z</time>
			<fix>3d</fix>
		</trkpt>
		<trkpt lat="35.166099" lon="-106.450611">
			<ele>2126.21</ele>
			<time>2015-03-08T19:17:12Z</time>
			<fix>3d</fix>
		</trkpt>
		<trkpt lat="35.166103" lon="-106.450618">
			<ele>2126.20</ele>
			<time>2015-03-08T19:17:13Z</time>
			<fix>3d</fix>
		</trkpt>
		<trkpt lat="35.166106" lon="-106.450625">
			<ele>2125.99</ele>
			<time>2015-03-08T19:17:14Z</time>
			<fix>3d</fix>
		</trkpt>
		<trkpt lat="35.166110" lon="-106.450633">
			<ele>2125.37</ele>
			<time>2015-03-08T19:17:16Z</time>
			<fix>3d</fix>
		</trkpt>
		<trkpt lat="35.166114" lon="-106.450692">
			<ele>2125.24</ele>
			<time>2015-03-08T19:17:20Z</time>
			<fix>3d</fix>
		</trkpt>
		<trkpt lat="35.166113" lon="-106.450704">
			<ele>2124.96</ele>
			<time>2015-03-08T19:17:22Z</time>
			<fix>3d</fix>
		</trkpt>
		<trkpt lat="35.166117" lon="-106.450714">
			<ele>2124.65</ele>
			<time>2015-03-08T19:17:23Z</time>
			<fix>3d</fix>
		</trkpt>
		<trkpt lat="35.166124" lon="-106.450725">
			<ele>2124.64</ele>
			<time>2015-03-08T19:17:24Z</time>
			<fix>3d</fix>
		</trkpt>
		<trkpt lat="35.166136" lon="-106.450747">
			<ele>2124.64</ele>
			<time>2015-03-08T19:17:25Z</time>
			<fix>3d</fix>
		</trkpt>
		<trkpt lat="35.166138" lon="-106.450755">
			<ele>2124.52</ele>
			<time>2015-03-08T19:17:27Z</time>
			<fix>3d</fix>
		</trkpt>
		<trkpt lat="35.166139" lon="-106.450774">
			<ele>2124.52</ele>
			<time>2015-03-08T19:17:28Z</time>
			<fix>3d</fix>
		</trkpt>
		<trkpt lat="35.166146" lon="-106.450779">
			<ele>2124.40</ele>
			<time>2015-03-08T19:17:31Z</time>
			<fix>3d</fix>
		</trkpt>
		<trkpt lat="35.166153" lon="-106.450781">
			<ele>2124.38</ele>
			<time>2015-03-08T19:17:34Z</time>
			<fix>3d</fix>
		</trkpt>
		<trkpt lat="35.166161" lon="-106.450782">
			<ele>2124.25</ele>
			<time>2015-03-08T19:17:38Z</time>
			<fix>3d</fix>
		</trkpt>
		<trkpt lat="35.166169" lon="-106.450780">
			<ele>2124.33</ele>
			<time>2015-03-08T19:17:42Z</time>
			<fix>3d</fix>
		</trkpt>
		<trkpt lat="35.166181" lon="-106.450795">
			<ele>2124.30</ele>
			<time>2015-03-08T19:17:46Z</time>
			<fix>3d</fix>
		</trkpt>
		<trkpt lat="35.166182" lon="-106.450807">
			<ele>2124.29</ele>
			<time>2015-03-08T19:17:47Z</time>
			<fix>3d</fix>
		</trkpt>
		<trkpt lat="35.166181" lon="-106.450817">
			<ele>2124.27</ele>
			<time>2015-03-08T19:17:49Z</time>
			<fix>3d</fix>
		</trkpt>
		<trkpt lat="35.166177" lon="-106.450823">
			<ele>2124.27</ele>
			<time>2015-03-08T19:17:50Z</time>
			<fix>3d</fix>
		</trkpt>
		<trkpt lat="35.166172" lon="-106.450830">
			<ele>2124.26</ele>
			<time>2015-03-08T19:17:51Z</time>
			<fix>3d</fix>
		</trkpt>
		<trkpt lat="35.166158" lon="-106.450849">
			<ele>2124.25</ele>
			<time>2015-03-08T19:17:52Z</time>
			<fix>3d</fix>
		</trkpt>
		<trkpt lat="35.166154" lon="-106.450854">
			<ele>2124.24</ele>
			<time>2015-03-08T19:17:53Z</time>
			<fix>3d</fix>
		</trkpt>
		<trkpt lat="35.166142" lon="-106.450867">
			<ele>2124.23</ele>
			<time>2015-03-08T19:17:54Z</time>
			<fix>3d</fix>
		</trkpt>
		<trkpt lat="35.166134" lon="-106.450878">
			<ele>2124.23</ele>
			<time>2015-03-08T19:17:55Z</time>
			<fix>3d</fix>
		</trkpt>
		<trkpt lat="35.166132" lon="-106.450883">
			<ele>2123.90</ele>
			<time>2015-03-08T19:17:57Z</time>
			<fix>3d</fix>
		</trkpt>
		<trkpt lat="35.166131" lon="-106.450893">
			<ele>2124.00</ele>
			<time>2015-03-08T19:17:58Z</time>
			<fix>3d</fix>
		</trkpt>
		<trkpt lat="35.166130" lon="-106.450894">
			<ele>2123.99</ele>
			<time>2015-03-08T19:17:59Z</time>
			<fix>3d</fix>
		</trkpt>
		<trkpt lat="35.166130" lon="-106.450907">
			<ele>2123.88</ele>
			<time>2015-03-08T19:18:00Z</time>
			<fix>3d</fix>
		</trkpt>
		<trkpt lat="35.166126" lon="-106.450933">
			<ele>2123.77</ele>
			<time>2015-03-08T19:18:01Z</time>
			<fix>3d</fix>
		</trkpt>
		<trkpt lat="35.166121" lon="-106.450949">
			<ele>2123.76</ele>
			<time>2015-03-08T19:18:02Z</time>
			<fix>3d</fix>
		</trkpt>
		<trkpt lat="35.166121" lon="-106.450955">
			<ele>2123.45</ele>
			<time>2015-03-08T19:18:03Z</time>
			<fix>3d</fix>
		</trkpt>
		<trkpt lat="35.166115" lon="-106.450971">
			<ele>2123.03</ele>
			<time>2015-03-08T19:18:04Z</time>
			<fix>3d</fix>
		</trkpt>
		<trkpt lat="35.166107" lon="-106.450981">
			<ele>2122.92</ele>
			<time>2015-03-08T19:18:05Z</time>
			<fix>3d</fix>
		</trkpt>
		<trkpt lat="35.166097" lon="-106.450995">
			<ele>2122.91</ele>
			<time>2015-03-08T19:18:06Z</time>
			<fix>3d</fix>
		</trkpt>
		<trkpt lat="35.166100" lon="-106.451009">
			<ele>2122.69</ele>
			<time>2015-03-08T19:18:09Z</time>
			<fix>3d</fix>
		</trkpt>
		<trkpt lat="35.166101" lon="-106.451010">
			<ele>2122.47</ele>
			<time>2015-03-08T19:18:11Z</time>
			<fix>3d</fix>
		</trkpt>
		<trkpt lat="35.166106" lon="-106.451023">
			<ele>2122.16</ele>
			<time>2015-03-08T19:18:12Z</time>
			<fix>3d</fix>
		</trkpt>
		<trkpt lat="35.166104" lon="-106.451031">
			<ele>2121.92</ele>
			<time>2015-03-08T19:18:16Z</time>
			<fix>3d</fix>
		</trkpt>
		<trkpt lat="35.166094" lon="-106.451045">
			<ele>2121.40</ele>
			<time>2015-03-08T19:18:17Z</time>
			<fix>3d</fix>
		</trkpt>
		<trkpt lat="35.166092" lon="-106.451050">
			<ele>2121.08</ele>
			<time>2015-03-08T19:18:20Z</time>
			<fix>3d</fix>
		</trkpt>
		<trkpt lat="35.166090" lon="-106.451058">
			<ele>2120.66</ele>
			<time>2015-03-08T19:18:21Z</time>
			<fix>3d</fix>
		</trkpt>
		<trkpt lat="35.166087" lon="-106.451066">
			<ele>2120.60</ele>
			<time>2015-03-08T19:18:22Z</time>
			<fix>3d</fix>
		</trkpt>
		<trkpt lat="35.166079" lon="-106.451085">
			<ele>2120.60</ele>
			<time>2015-03-08T19:18:23Z</time>
			<fix>3d</fix>
		</trkpt>
		<trkpt lat="35.166064" lon="-106.451102">
			<ele>2120.49</ele>
			<time>2015-03-08T19:18:24Z</time>
			<fix>3d</fix>
		</trkpt>
		<trkpt lat="35.166053" lon="-106.451107">
			<ele>2120.48</ele>
			<time>2015-03-08T19:18:25Z</time>
			<fix>3d</fix>
		</trkpt>
		<trkpt lat="35.166047" lon="-106.451108">
			<ele>2120.16</ele>
			<time>2015-03-08T19:18:27Z</time>
			<fix>3d</fix>
		</trkpt>
		<trkpt lat="35.166044" lon="-106.451115">
			<ele>2120.05</ele>
			<time>2015-03-08T19:18:28Z</time>
			<fix>3d</fix>
		</trkpt>
		<trkpt lat="35.166040" lon="-106.451123">
			<ele>2119.94</ele>
			<time>2015-03-08T19:18:29Z</time>
			<fix>3d</fix>
		</trkpt>
		<trkpt lat="35.166038" lon="-106.451124">
			<ele>2119.73</ele>
			<time>2015-03-08T19:18:30Z</time>
			<fix>3d</fix>
		</trkpt>
		<trkpt lat="35.166036" lon="-106.451135">
			<ele>2118.70</ele>
			<time>2015-03-08T19:18:31Z</time>
			<fix>3d</fix>
		</trkpt>
		<trkpt lat="35.166027" lon="-106.451162">
			<ele>2118.27</ele>
			<time>2015-03-08T19:18:34Z</time>
			<fix>3d</fix>
		</trkpt>
		<trkpt lat="35.166018" lon="-106.451196">
			<ele>2118.26</ele>
			<time>2015-03-08T19:18:35Z</time>
			<fix>3d</fix>
		</trkpt>
		<trkpt lat="35.166010" lon="-106.451224">
			<ele>2118.02</ele>
			<time>2015-03-08T19:18:40Z</time>
			<fix>3d</fix>
		</trkpt>
		<trkpt lat="35.166007" lon="-106.451231">
			<ele>2117.91</ele>
			<time>2015-03-08T19:18:42Z</time>
			<fix>3d</fix>
		</trkpt>
		<trkpt lat="35.166003" lon="-106.451236">
			<ele>2117.90</ele>
			<time>2015-03-08T19:18:43Z</time>
			<fix>3d</fix>
		</trkpt>
		<trkpt lat="35.165998" lon="-106.451240">
			<ele>2117.79</ele>
			<time>2015-03-08T19:18:45Z</time>
			<fix>3d</fix>
		</trkpt>
		<trkpt lat="35.165980" lon="-106.451272">
			<ele>2117.78</ele>
			<time>2015-03-08T19:18:46Z</time>
			<fix>3d</fix>
		</trkpt>
		<trkpt lat="35.165980" lon="-106.451273">
			<ele>2117.67</ele>
			<time>2015-03-08T19:18:48Z</time>
			<fix>3d</fix>
		</trkpt>
		<trkpt lat="35.165980" lon="-106.451293">
			<ele>2117.56</ele>
			<time>2015-03-08T19:18:49Z</time>
			<fix>3d</fix>
		</trkpt>
		<trkpt lat="35.165981" lon="-106.451299">
			<ele>2117.41</ele>
			<time>2015-03-08T19:18:56Z</time>
			<fix>3d</fix>
		</trkpt>
		<trkpt lat="35.165985" lon="-106.451314">
			<ele>2117.30</ele>
			<time>2015-03-08T19:18:57Z</time>
			<fix>3d</fix>
		</trkpt>
		<trkpt lat="35.165993" lon="-106.451319">
			<ele>2117.14</ele>
			<time>2015-03-08T19:19:05Z</time>
			<fix>3d</fix>
		</trkpt>
		<trkpt lat="35.165999" lon="-106.451327">
			<ele>2116.86</ele>
			<time>2015-03-08T19:19:15Z</time>
			<fix>3d</fix>
		</trkpt>
		<trkpt lat="35.166004" lon="-106.451334">
			<ele>2116.70</ele>
			<time>2015-03-08T19:19:22Z</time>
			<fix>3d</fix>
		</trkpt>
		<trkpt lat="35.166010" lon="-106.451340">
			<ele>2116.56</ele>
			<time>2015-03-08T19:19:27Z</time>
			<fix>3d</fix>
		</trkpt>
		<trkpt lat="35.166016" lon="-106.451347">
			<ele>2116.41</ele>
			<time>2015-03-08T19:19:34Z</time>
			<fix>3d</fix>
		</trkpt>
		<trkpt lat="35.166022" lon="-106.451354">
			<ele>2116.36</ele>
			<time>2015-03-08T19:19:42Z</time>
			<fix>3d</fix>
		</trkpt>
		<trkpt lat="35.166024" lon="-106.451356">
			<ele>2116.33</ele>
			<time>2015-03-08T19:19:46Z</time>
			<fix>3d</fix>
		</trkpt>
		<trkpt lat="35.166304" lon="-106.451574">
			<ele>2116.33</ele>
			<time>2015-03-08T19:21:15Z</time>
			<fix>3d</fix>
		</trkpt>
		<trkpt lat="35.166287" lon="-106.451562">
			<ele>2116.33</ele>
			<time>2015-03-08T19:21:16Z</time>
			<fix>3d</fix>
		</trkpt>
		<trkpt lat="35.166283" lon="-106.451555">
			<ele>2116.23</ele>
			<time>2015-03-08T19:21:17Z</time>
			<fix>3d</fix>
		</trkpt>
		<trkpt lat="35.166277" lon="-106.451547">
			<ele>2116.33</ele>
			<time>2015-03-08T19:21:18Z</time>
			<fix>3d</fix>
		</trkpt>
		<trkpt lat="35.166271" lon="-106.451539">
			<ele>2116.33</ele>
			<time>2015-03-08T19:21:19Z</time>
			<fix>3d</fix>
		</trkpt>
		<trkpt lat="35.166265" lon="-106.451531">
			<ele>2116.33</ele>
			<time>2015-03-08T19:21:20Z</time>
			<fix>3d</fix>
		</trkpt>
		<trkpt lat="35.166259" lon="-106.451524">
			<ele>2116.33</ele>
			<time>2015-03-08T19:21:21Z</time>
			<fix>3d</fix>
		</trkpt>
		<trkpt lat="35.166254" lon="-106.451518">
			<ele>2116.23</ele>
			<time>2015-03-08T19:21:22Z</time>
			<fix>3d</fix>
		</trkpt>
		<trkpt lat="35.166249" lon="-106.451512">
			<ele>2116.23</ele>
			<time>2015-03-08T19:21:23Z</time>
			<fix>3d</fix>
		</trkpt>
		<trkpt lat="35.166245" lon="-106.451506">
			<ele>2116.23</ele>
			<time>2015-03-08T19:21:24Z</time>
			<fix>3d</fix>
		</trkpt>
		<trkpt lat="35.166240" lon="-106.451501">
			<ele>2116.23</ele>
			<time>2015-03-08T19:21:25Z</time>
			<fix>3d</fix>
		</trkpt>
		<trkpt lat="35.166237" lon="-106.451496">
			<ele>2116.23</ele>
			<time>2015-03-08T19:21:26Z</time>
			<fix>3d</fix>
		</trkpt>
		<trkpt lat="35.166233" lon="-106.451491">
			<ele>2116.23</ele>
			<time>2015-03-08T19:21:27Z</time>
			<fix>3d</fix>
		</trkpt>
		<trkpt lat="35.166229" lon="-106.451487">
			<ele>2116.23</ele>
			<time>2015-03-08T19:21:28Z</time>
			<fix>3d</fix>
		</trkpt>
		<trkpt lat="35.166223" lon="-106.451479">
			<ele>2116.23</ele>
			<time>2015-03-08T19:21:30Z</time>
			<fix>3d</fix>
		</trkpt>
		<trkpt lat="35.166153" lon="-106.451456">
			<ele>2116.12</ele>
			<time>2015-03-08T19:21:32Z</time>
			<fix>3d</fix>
		</trkpt>
		<trkpt lat="35.166149" lon="-106.451453">
			<ele>2116.21</ele>
			<time>2015-03-08T19:21:34Z</time>
			<fix>3d</fix>
		</trkpt>
		<trkpt lat="35.166136" lon="-106.451450">
			<ele>2116.20</ele>
			<time>2015-03-08T19:21:35Z</time>
			<fix>3d</fix>
		</trkpt>
		<trkpt lat="35.166135" lon="-106.451454">
			<ele>2116.49</ele>
			<time>2015-03-08T19:21:37Z</time>
			<fix>3d</fix>
		</trkpt>
		<trkpt lat="35.166127" lon="-106.451467">
			<ele>2116.86</ele>
			<time>2015-03-08T19:21:41Z</time>
			<fix>3d</fix>
		</trkpt>
		<trkpt lat="35.166120" lon="-106.451466">
			<ele>2116.82</ele>
			<time>2015-03-08T19:21:45Z</time>
			<fix>3d</fix>
		</trkpt>
		<trkpt lat="35.166112" lon="-106.451464">
			<ele>2116.77</ele>
			<time>2015-03-08T19:21:50Z</time>
			<fix>3d</fix>
		</trkpt>
		<trkpt lat="35.166105" lon="-106.451460">
			<ele>2116.63</ele>
			<time>2015-03-08T19:21:53Z</time>
			<fix>3d</fix>
		</trkpt>
		<trkpt lat="35.166098" lon="-106.451460">
			<ele>2116.60</ele>
			<time>2015-03-08T19:21:56Z</time>
			<fix>3d</fix>
		</trkpt>
		<trkpt lat="35.166093" lon="-106.451469">
			<ele>2117.03</ele>
			<time>2015-03-08T19:22:02Z</time>
			<fix>3d</fix>
		</trkpt>
		<trkpt lat="35.166090" lon="-106.451474">
			<ele>2117.12</ele>
			<time>2015-03-08T19:22:03Z</time>
			<fix>3d</fix>
		</trkpt>
		<trkpt lat="35.166077" lon="-106.451483">
			<ele>2117.52</ele>
			<time>2015-03-08T19:22:04Z</time>
			<fix>3d</fix>
		</trkpt>
		<trkpt lat="35.166070" lon="-106.451480">
			<ele>2117.68</ele>
			<time>2015-03-08T19:22:07Z</time>
			<fix>3d</fix>
		</trkpt>
		<trkpt lat="35.166066" lon="-106.451488">
			<ele>2117.70</ele>
			<time>2015-03-08T19:22:08Z</time>
			<fix>3d</fix>
		</trkpt>
		<trkpt lat="35.166065" lon="-106.451497">
			<ele>2117.79</ele>
			<time>2015-03-08T19:22:09Z</time>
			<fix>3d</fix>
		</trkpt>
		<trkpt lat="35.166069" lon="-106.451520">
			<ele>2117.77</ele>
			<time>2015-03-08T19:22:10Z</time>
			<fix>3d</fix>
		</trkpt>
		<trkpt lat="35.166071" lon="-106.451526">
			<ele>2117.76</ele>
			<time>2015-03-08T19:22:11Z</time>
			<fix>3d</fix>
		</trkpt>
		<trkpt lat="35.166073" lon="-106.451533">
			<ele>2117.74</ele>
			<time>2015-03-08T19:22:12Z</time>
			<fix>3d</fix>
		</trkpt>
		<trkpt lat="35.166075" lon="-106.451542">
			<ele>2117.70</ele>
			<time>2015-03-08T19:22:15Z</time>
			<fix>3d</fix>
		</trkpt>
		<trkpt lat="35.166083" lon="-106.451586">
			<ele>2117.68</ele>
			<time>2015-03-08T19:22:16Z</time>
			<fix>3d</fix>
		</trkpt>
		<trkpt lat="35.166079" lon="-106.451594">
			<ele>2117.67</ele>
			<time>2015-03-08T19:22:17Z</time>
			<fix>3d</fix>
		</trkpt>
		<trkpt lat="35.166078" lon="-106.451609">
			<ele>2117.65</ele>
			<time>2015-03-08T19:22:18Z</time>
			<fix>3d</fix>
		</trkpt>
		<trkpt lat="35.166078" lon="-106.451615">
			<ele>2117.64</ele>
			<time>2015-03-08T19:22:19Z</time>
			<fix>3d</fix>
		</trkpt>
		<trkpt lat="35.166076" lon="-106.451621">
			<ele>2117.62</ele>
			<time>2015-03-08T19:22:20Z</time>
			<fix>3d</fix>
		</trkpt>
		<trkpt lat="35.166073" lon="-106.451627">
			<ele>2117.61</ele>
			<time>2015-03-08T19:22:21Z</time>
			<fix>3d</fix>
		</trkpt>
		<trkpt lat="35.166059" lon="-106.451652">
			<ele>2117.39</ele>
			<time>2015-03-08T19:22:22Z</time>
			<fix>3d</fix>
		</trkpt>
		<trkpt lat="35.166053" lon="-106.451656">
			<ele>2117.26</ele>
			<time>2015-03-08T19:22:24Z</time>
			<fix>3d</fix>
		</trkpt>
		<trkpt lat="35.166049" lon="-106.451659">
			<ele>2117.25</ele>
			<time>2015-03-08T19:22:25Z</time>
			<fix>3d</fix>
		</trkpt>
		<trkpt lat="35.166045" lon="-106.451662">
			<ele>2117.23</ele>
			<time>2015-03-08T19:22:26Z</time>
			<fix>3d</fix>
		</trkpt>
		<trkpt lat="35.166031" lon="-106.451684">
			<ele>2117.22</ele>
			<time>2015-03-08T19:22:27Z</time>
			<fix>3d</fix>
		</trkpt>
		<trkpt lat="35.166023" lon="-106.451696">
			<ele>2117.10</ele>
			<time>2015-03-08T19:22:28Z</time>
			<fix>3d</fix>
		</trkpt>
		<trkpt lat="35.166015" lon="-106.451699">
			<ele>2117.06</ele>
			<time>2015-03-08T19:22:31Z</time>
			<fix>3d</fix>
		</trkpt>
		<trkpt lat="35.166014" lon="-106.451700">
			<ele>2117.05</ele>
			<time>2015-03-08T19:22:32Z</time>
			<fix>3d</fix>
		</trkpt>
		<trkpt lat="35.166011" lon="-106.451713">
			<ele>2117.04</ele>
			<time>2015-03-08T19:22:33Z</time>
			<fix>3d</fix>
		</trkpt>
		<trkpt lat="35.166009" lon="-106.451725">
			<ele>2117.03</ele>
			<time>2015-03-08T19:22:34Z</time>
			<fix>3d</fix>
		</trkpt>
		<trkpt lat="35.166007" lon="-106.451755">
			<ele>2117.01</ele>
			<time>2015-03-08T19:22:35Z</time>
			<fix>3d</fix>
		</trkpt>
		<trkpt lat="35.166013" lon="-106.451786">
			<ele>2117.00</ele>
			<time>2015-03-08T19:22:36Z</time>
			<fix>3d</fix>
		</trkpt>
		<trkpt lat="35.166019" lon="-106.451804">
			<ele>2116.99</ele>
			<time>2015-03-08T19:22:37Z</time>
			<fix>3d</fix>
		</trkpt>
		<trkpt lat="35.166016" lon="-106.451811">
			<ele>2116.67</ele>
			<time>2015-03-08T19:22:38Z</time>
			<fix>3d</fix>
		</trkpt>
		<trkpt lat="35.166008" lon="-106.451830">
			<ele>2116.15</ele>
			<time>2015-03-08T19:22:39Z</time>
			<fix>3d</fix>
		</trkpt>
		<trkpt lat="35.165999" lon="-106.451844">
			<ele>2115.93</ele>
			<time>2015-03-08T19:22:40Z</time>
			<fix>3d</fix>
		</trkpt>
		<trkpt lat="35.165993" lon="-106.451852">
			<ele>2115.47</ele>
			<time>2015-03-08T19:22:44Z</time>
			<fix>3d</fix>
		</trkpt>
		<trkpt lat="35.166006" lon="-106.451889">
			<ele>2115.36</ele>
			<time>2015-03-08T19:22:45Z</time>
			<fix>3d</fix>
		</trkpt>
		<trkpt lat="35.166009" lon="-106.451892">
			<ele>2115.11</ele>
			<time>2015-03-08T19:22:49Z</time>
			<fix>3d</fix>
		</trkpt>
		<trkpt lat="35.166024" lon="-106.451922">
			<ele>2114.89</ele>
			<time>2015-03-08T19:22:50Z</time>
			<fix>3d</fix>
		</trkpt>
		<trkpt lat="35.166025" lon="-106.451923">
			<ele>2114.56</ele>
			<time>2015-03-08T19:22:52Z</time>
			<fix>3d</fix>
		</trkpt>
		<trkpt lat="35.166032" lon="-106.451935">
			<ele>2114.44</ele>
			<time>2015-03-08T19:22:53Z</time>
			<fix>3d</fix>
		</trkpt>
		<trkpt lat="35.166047" lon="-106.451960">
			<ele>2114.13</ele>
			<time>2015-03-08T19:22:54Z</time>
			<fix>3d</fix>
		</trkpt>
		<trkpt lat="35.166051" lon="-106.451967">
			<ele>2114.01</ele>
			<time>2015-03-08T19:22:55Z</time>
			<fix>3d</fix>
		</trkpt>
		<trkpt lat="35.166057" lon="-106.451973">
			<ele>2113.99</ele>
			<time>2015-03-08T19:22:57Z</time>
			<fix>3d</fix>
		</trkpt>
		<trkpt lat="35.166078" lon="-106.451998">
			<ele>2113.85</ele>
			<time>2015-03-08T19:23:00Z</time>
			<fix>3d</fix>
		</trkpt>
		<trkpt lat="35.166080" lon="-106.452016">
			<ele>2113.84</ele>
			<time>2015-03-08T19:23:01Z</time>
			<fix>3d</fix>
		</trkpt>
		<trkpt lat="35.166079" lon="-106.452043">
			<ele>2113.46</ele>
			<time>2015-03-08T19:23:07Z</time>
			<fix>3d</fix>
		</trkpt>
		<trkpt lat="35.166078" lon="-106.452053">
			<ele>2113.56</ele>
			<time>2015-03-08T19:23:09Z</time>
			<fix>3d</fix>
		</trkpt>
		<trkpt lat="35.166079" lon="-106.452063">
			<ele>2113.55</ele>
			<time>2015-03-08T19:23:10Z</time>
			<fix>3d</fix>
		</trkpt>
		<trkpt lat="35.166081" lon="-106.452089">
			<ele>2113.64</ele>
			<time>2015-03-08T19:23:11Z</time>
			<fix>3d</fix>
		</trkpt>
		<trkpt lat="35.166081" lon="-106.452096">
			<ele>2113.83</ele>
			<time>2015-03-08T19:23:12Z</time>
			<fix>3d</fix>
		</trkpt>
		<trkpt lat="35.166082" lon="-106.452115">
			<ele>2113.82</ele>
			<time>2015-03-08T19:23:13Z</time>
			<fix>3d</fix>
		</trkpt>
		<trkpt lat="35.166080" lon="-106.452128">
			<ele>2114.12</ele>
			<time>2015-03-08T19:23:14Z</time>
			<fix>3d</fix>
		</trkpt>
		<trkpt lat="35.166076" lon="-106.452139">
			<ele>2114.72</ele>
			<time>2015-03-08T19:23:15Z</time>
			<fix>3d</fix>
		</trkpt>
		<trkpt lat="35.166074" lon="-106.452150">
			<ele>2115.02</ele>
			<time>2015-03-08T19:23:16Z</time>
			<fix>3d</fix>
		</trkpt>
		<trkpt lat="35.166073" lon="-106.452153">
			<ele>2115.00</ele>
			<time>2015-03-08T19:23:17Z</time>
			<fix>3d</fix>
		</trkpt>
		<trkpt lat="35.166064" lon="-106.452170">
			<ele>2115.10</ele>
			<time>2015-03-08T19:23:18Z</time>
			<fix>3d</fix>
		</trkpt>
		<trkpt lat="35.166061" lon="-106.452171">
			<ele>2115.08</ele>
			<time>2015-03-08T19:23:19Z</time>
			<fix>3d</fix>
		</trkpt>
		<trkpt lat="35.166052" lon="-106.452178">
			<ele>2115.07</ele>
			<time>2015-03-08T19:23:20Z</time>
			<fix>3d</fix>
		</trkpt>
		<trkpt lat="35.166043" lon="-106.452191">
			<ele>2115.16</ele>
			<time>2015-03-08T19:23:21Z</time>
			<fix>3d</fix>
		</trkpt>
		<trkpt lat="35.166041" lon="-106.452193">
			<ele>2115.05</ele>
			<time>2015-03-08T19:23:22Z</time>
			<fix>3d</fix>
		</trkpt>
		<trkpt lat="35.166030" lon="-106.452207">
			<ele>2115.04</ele>
			<time>2015-03-08T19:23:23Z</time>
			<fix>3d</fix>
		</trkpt>
		<trkpt lat="35.166021" lon="-106.452217">
			<ele>2115.03</ele>
			<time>2015-03-08T19:23:24Z</time>
			<fix>3d</fix>
		</trkpt>
		<trkpt lat="35.166016" lon="-106.452224">
			<ele>2115.02</ele>
			<time>2015-03-08T19:23:25Z</time>
			<fix>3d</fix>
		</trkpt>
		<trkpt lat="35.166010" lon="-106.452232">
			<ele>2114.91</ele>
			<time>2015-03-08T19:23:26Z</time>
			<fix>3d</fix>
		</trkpt>
		<trkpt lat="35.166008" lon="-106.452236">
			<ele>2114.79</ele>
			<time>2015-03-08T19:23:27Z</time>
			<fix>3d</fix>
		</trkpt>
		<trkpt lat="35.165998" lon="-106.452256">
			<ele>2114.48</ele>
			<time>2015-03-08T19:23:28Z</time>
			<fix>3d</fix>
		</trkpt>
		<trkpt lat="35.165992" lon="-106.452262">
			<ele>2113.83</ele>
			<time>2015-03-08T19:23:31Z</time>
			<fix>3d</fix>
		</trkpt>
		<trkpt lat="35.165985" lon="-106.452275">
			<ele>2113.82</ele>
			<time>2015-03-08T19:23:32Z</time>
			<fix>3d</fix>
		</trkpt>
		<trkpt lat="35.165979" lon="-106.452288">
			<ele>2113.81</ele>
			<time>2015-03-08T19:23:33Z</time>
			<fix>3d</fix>
		</trkpt>
		<trkpt lat="35.165975" lon="-106.452293">
			<ele>2113.80</ele>
			<time>2015-03-08T19:23:35Z</time>
			<fix>3d</fix>
		</trkpt>
		<trkpt lat="35.165964" lon="-106.452320">
			<ele>2113.79</ele>
			<time>2015-03-08T19:23:36Z</time>
			<fix>3d</fix>
		</trkpt>
		<trkpt lat="35.165957" lon="-106.452326">
			<ele>2113.78</ele>
			<time>2015-03-08T19:23:37Z</time>
			<fix>3d</fix>
		</trkpt>
		<trkpt lat="35.165947" lon="-106.452334">
			<ele>2113.77</ele>
			<time>2015-03-08T19:23:38Z</time>
			<fix>3d</fix>
		</trkpt>
		<trkpt lat="35.165935" lon="-106.452351">
			<ele>2113.76</ele>
			<time>2015-03-08T19:23:39Z</time>
			<fix>3d</fix>
		</trkpt>
		<trkpt lat="35.165929" lon="-106.452358">
			<ele>2113.75</ele>
			<time>2015-03-08T19:23:40Z</time>
			<fix>3d</fix>
		</trkpt>
		<trkpt lat="35.165926" lon="-106.452371">
			<ele>2113.74</ele>
			<time>2015-03-08T19:23:41Z</time>
			<fix>3d</fix>
		</trkpt>
		<trkpt lat="35.165922" lon="-106.452396">
			<ele>2113.83</ele>
			<time>2015-03-08T19:23:42Z</time>
			<fix>3d</fix>
		</trkpt>
		<trkpt lat="35.165915" lon="-106.452402">
			<ele>2113.82</ele>
			<time>2015-03-08T19:23:43Z</time>
			<fix>3d</fix>
		</trkpt>
		<trkpt lat="35.165905" lon="-106.452413">
			<ele>2113.81</ele>
			<time>2015-03-08T19:23:44Z</time>
			<fix>3d</fix>
		</trkpt>
		<trkpt lat="35.165896" lon="-106.452426">
			<ele>2113.70</ele>
			<time>2015-03-08T19:23:45Z</time>
			<fix>3d</fix>
		</trkpt>
		<trkpt lat="35.165887" lon="-106.452438">
			<ele>2113.69</ele>
			<time>2015-03-08T19:23:46Z</time>
			<fix>3d</fix>
		</trkpt>
		<trkpt lat="35.165884" lon="-106.452444">
			<ele>2113.58</ele>
			<time>2015-03-08T19:23:47Z</time>
			<fix>3d</fix>
		</trkpt>
		<trkpt lat="35.165871" lon="-106.452470">
			<ele>2113.57</ele>
			<time>2015-03-08T19:23:48Z</time>
			<fix>3d</fix>
		</trkpt>
		<trkpt lat="35.165866" lon="-106.452477">
			<ele>2113.56</ele>
			<time>2015-03-08T19:23:49Z</time>
			<fix>3d</fix>
		</trkpt>
		<trkpt lat="35.165863" lon="-106.452488">
			<ele>2113.55</ele>
			<time>2015-03-08T19:23:50Z</time>
			<fix>3d</fix>
		</trkpt>
		<trkpt lat="35.165860" lon="-106.452497">
			<ele>2113.63</ele>
			<time>2015-03-08T19:23:53Z</time>
			<fix>3d</fix>
		</trkpt>
		<trkpt lat="35.165859" lon="-106.452512">
			<ele>2113.62</ele>
			<time>2015-03-08T19:23:54Z</time>
			<fix>3d</fix>
		</trkpt>
		<trkpt lat="35.165858" lon="-106.452524">
			<ele>2113.61</ele>
			<time>2015-03-08T19:23:55Z</time>
			<fix>3d</fix>
		</trkpt>
		<trkpt lat="35.165841" lon="-106.452562">
			<ele>2113.59</ele>
			<time>2015-03-08T19:23:58Z</time>
			<fix>3d</fix>
		</trkpt>
		<trkpt lat="35.165841" lon="-106.452577">
			<ele>2113.35</ele>
			<time>2015-03-08T19:24:02Z</time>
			<fix>3d</fix>
		</trkpt>
		<trkpt lat="35.165841" lon="-106.452579">
			<ele>2113.24</ele>
			<time>2015-03-08T19:24:03Z</time>
			<fix>3d</fix>
		</trkpt>
		<trkpt lat="35.165842" lon="-106.452593">
			<ele>2113.13</ele>
			<time>2015-03-08T19:24:04Z</time>
			<fix>3d</fix>
		</trkpt>
		<trkpt lat="35.165841" lon="-106.452631">
			<ele>2113.02</ele>
			<time>2015-03-08T19:24:05Z</time>
			<fix>3d</fix>
		</trkpt>
		<trkpt lat="35.165838" lon="-106.452639">
			<ele>2112.98</ele>
			<time>2015-03-08T19:24:08Z</time>
			<fix>3d</fix>
		</trkpt>
		<trkpt lat="35.165830" lon="-106.452656">
			<ele>2112.87</ele>
			<time>2015-03-08T19:24:09Z</time>
			<fix>3d</fix>
		</trkpt>
		<trkpt lat="35.165818" lon="-106.452677">
			<ele>2112.15</ele>
			<time>2015-03-08T19:24:10Z</time>
			<fix>3d</fix>
		</trkpt>
		<trkpt lat="35.165811" lon="-106.452682">
			<ele>2111.94</ele>
			<time>2015-03-08T19:24:11Z</time>
			<fix>3d</fix>
		</trkpt>
		<trkpt lat="35.165805" lon="-106.452691">
			<ele>2111.83</ele>
			<time>2015-03-08T19:24:12Z</time>
			<fix>3d</fix>
		</trkpt>
		<trkpt lat="35.165803" lon="-106.452698">
			<ele>2111.30</ele>
			<time>2015-03-08T19:24:14Z</time>
			<fix>3d</fix>
		</trkpt>
		<trkpt lat="35.165798" lon="-106.452729">
			<ele>2111.40</ele>
			<time>2015-03-08T19:24:15Z</time>
			<fix>3d</fix>
		</trkpt>
		<trkpt lat="35.165797" lon="-106.452733">
			<ele>2111.39</ele>
			<time>2015-03-08T19:24:16Z</time>
			<fix>3d</fix>
		</trkpt>
		<trkpt lat="35.165792" lon="-106.452748">
			<ele>2111.29</ele>
			<time>2015-03-08T19:24:17Z</time>
			<fix>3d</fix>
		</trkpt>
		<trkpt lat="35.165791" lon="-106.452753">
			<ele>2111.28</ele>
			<time>2015-03-08T19:24:18Z</time>
			<fix>3d</fix>
		</trkpt>
		<trkpt lat="35.165790" lon="-106.452773">
			<ele>2111.27</ele>
			<time>2015-03-08T19:24:19Z</time>
			<fix>3d</fix>
		</trkpt>
		<trkpt lat="35.165790" lon="-106.452780">
			<ele>2111.27</ele>
			<time>2015-03-08T19:24:20Z</time>
			<fix>3d</fix>
		</trkpt>
		<trkpt lat="35.165794" lon="-106.452803">
			<ele>2111.26</ele>
			<time>2015-03-08T19:24:21Z</time>
			<fix>3d</fix>
		</trkpt>
		<trkpt lat="35.165795" lon="-106.452811">
			<ele>2111.25</ele>
			<time>2015-03-08T19:24:23Z</time>
			<fix>3d</fix>
		</trkpt>
		<trkpt lat="35.165796" lon="-106.452824">
			<ele>2111.24</ele>
			<time>2015-03-08T19:24:24Z</time>
			<fix>3d</fix>
		</trkpt>
		<trkpt lat="35.165795" lon="-106.452826">
			<ele>2111.24</ele>
			<time>2015-03-08T19:24:25Z</time>
			<fix>3d</fix>
		</trkpt>
		<trkpt lat="35.165797" lon="-106.452841">
			<ele>2111.23</ele>
			<time>2015-03-08T19:24:26Z</time>
			<fix>3d</fix>
		</trkpt>
		<trkpt lat="35.165799" lon="-106.452857">
			<ele>2111.23</ele>
			<time>2015-03-08T19:24:27Z</time>
			<fix>3d</fix>
		</trkpt>
		<trkpt lat="35.165807" lon="-106.452901">
			<ele>2111.61</ele>
			<time>2015-03-08T19:24:32Z</time>
			<fix>3d</fix>
		</trkpt>
		<trkpt lat="35.165809" lon="-106.452914">
			<ele>2111.60</ele>
			<time>2015-03-08T19:24:33Z</time>
			<fix>3d</fix>
		</trkpt>
		<trkpt lat="35.165807" lon="-106.452943">
			<ele>2111.59</ele>
			<time>2015-03-08T19:24:34Z</time>
			<fix>3d</fix>
		</trkpt>
		<trkpt lat="35.165799" lon="-106.452971">
			<ele>2111.59</ele>
			<time>2015-03-08T19:24:35Z</time>
			<fix>3d</fix>
		</trkpt>
		<trkpt lat="35.165798" lon="-106.452974">
			<ele>2111.48</ele>
			<time>2015-03-08T19:24:36Z</time>
			<fix>3d</fix>
		</trkpt>
		<trkpt lat="35.165792" lon="-106.452986">
			<ele>2111.37</ele>
			<time>2015-03-08T19:24:37Z</time>
			<fix>3d</fix>
		</trkpt>
		<trkpt lat="35.165788" lon="-106.453009">
			<ele>2111.06</ele>
			<time>2015-03-08T19:24:38Z</time>
			<fix>3d</fix>
		</trkpt>
		<trkpt lat="35.165786" lon="-106.453011">
			<ele>2110.95</ele>
			<time>2015-03-08T19:24:40Z</time>
			<fix>3d</fix>
		</trkpt>
		<trkpt lat="35.165782" lon="-106.453032">
			<ele>2110.94</ele>
			<time>2015-03-08T19:24:41Z</time>
			<fix>3d</fix>
		</trkpt>
		<trkpt lat="35.165772" lon="-106.453055">
			<ele>2110.83</ele>
			<time>2015-03-08T19:24:42Z</time>
			<fix>3d</fix>
		</trkpt>
		<trkpt lat="35.165761" lon="-106.453067">
			<ele>2110.73</ele>
			<time>2015-03-08T19:24:43Z</time>
			<fix>3d</fix>
		</trkpt>
		<trkpt lat="35.165755" lon="-106.453075">
			<ele>2109.80</ele>
			<time>2015-03-08T19:24:45Z</time>
			<fix>3d</fix>
		</trkpt>
		<trkpt lat="35.165747" lon="-106.453090">
			<ele>2110.00</ele>
			<time>2015-03-08T19:24:46Z</time>
			<fix>3d</fix>
		</trkpt>
		<trkpt lat="35.165745" lon="-106.453096">
			<ele>2109.99</ele>
			<time>2015-03-08T19:24:47Z</time>
			<fix>3d</fix>
		</trkpt>
		<trkpt lat="35.165739" lon="-106.453120">
			<ele>2109.99</ele>
			<time>2015-03-08T19:24:48Z</time>
			<fix>3d</fix>
		</trkpt>
		<trkpt lat="35.165736" lon="-106.453128">
			<ele>2109.87</ele>
			<time>2015-03-08T19:24:50Z</time>
			<fix>3d</fix>
		</trkpt>
		<trkpt lat="35.165728" lon="-106.453143">
			<ele>2109.67</ele>
			<time>2015-03-08T19:24:51Z</time>
			<fix>3d</fix>
		</trkpt>
		<trkpt lat="35.165725" lon="-106.453148">
			<ele>2109.36</ele>
			<time>2015-03-08T19:24:52Z</time>
			<fix>3d</fix>
		</trkpt>
		<trkpt lat="35.165724" lon="-106.453154">
			<ele>2109.25</ele>
			<time>2015-03-08T19:24:53Z</time>
			<fix>3d</fix>
		</trkpt>
		<trkpt lat="35.165723" lon="-106.453162">
			<ele>2109.05</ele>
			<time>2015-03-08T19:24:54Z</time>
			<fix>3d</fix>
		</trkpt>
		<trkpt lat="35.165718" lon="-106.453183">
			<ele>2108.64</ele>
			<time>2015-03-08T19:24:55Z</time>
			<fix>3d</fix>
		</trkpt>
		<trkpt lat="35.165710" lon="-106.453206">
			<ele>2108.63</ele>
			<time>2015-03-08T19:24:56Z</time>
			<fix>3d</fix>
		</trkpt>
		<trkpt lat="35.165707" lon="-106.453208">
			<ele>2108.33</ele>
			<time>2015-03-08T19:24:57Z</time>
			<fix>3d</fix>
		</trkpt>
		<trkpt lat="35.165703" lon="-106.453222">
			<ele>2108.12</ele>
			<time>2015-03-08T19:24:58Z</time>
			<fix>3d</fix>
		</trkpt>
		<trkpt lat="35.165702" lon="-106.453230">
			<ele>2107.91</ele>
			<time>2015-03-08T19:25:00Z</time>
			<fix>3d</fix>
		</trkpt>
		<trkpt lat="35.165699" lon="-106.453251">
			<ele>2107.91</ele>
			<time>2015-03-08T19:25:01Z</time>
			<fix>3d</fix>
		</trkpt>
		<trkpt lat="35.165698" lon="-106.453257">
			<ele>2107.80</ele>
			<time>2015-03-08T19:25:02Z</time>
			<fix>3d</fix>
		</trkpt>
		<trkpt lat="35.165697" lon="-106.453284">
			<ele>2107.80</ele>
			<time>2015-03-08T19:25:03Z</time>
			<fix>3d</fix>
		</trkpt>
		<trkpt lat="35.165692" lon="-106.453294">
			<ele>2107.80</ele>
			<time>2015-03-08T19:25:04Z</time>
			<fix>3d</fix>
		</trkpt>
		<trkpt lat="35.165687" lon="-106.453299">
			<ele>2107.69</ele>
			<time>2015-03-08T19:25:05Z</time>
			<fix>3d</fix>
		</trkpt>
		<trkpt lat="35.165685" lon="-106.453303">
			<ele>2107.59</ele>
			<time>2015-03-08T19:25:06Z</time>
			<fix>3d</fix>
		</trkpt>
		<trkpt lat="35.165683" lon="-106.453309">
			<ele>2107.58</ele>
			<time>2015-03-08T19:25:07Z</time>
			<fix>3d</fix>
		</trkpt>
		<trkpt lat="35.165681" lon="-106.453316">
			<ele>2107.83</ele>
			<time>2015-03-08T19:25:08Z</time>
			<fix>3d</fix>
		</trkpt>
		<trkpt lat="35.165679" lon="-106.453324">
			<ele>2107.63</ele>
			<time>2015-03-08T19:25:09Z</time>
			<fix>3d</fix>
		</trkpt>
		<trkpt lat="35.165677" lon="-106.453333">
			<ele>2107.32</ele>
			<time>2015-03-08T19:25:10Z</time>
			<fix>3d</fix>
		</trkpt>
		<trkpt lat="35.165671" lon="-106.453367">
			<ele>2107.21</ele>
			<time>2015-03-08T19:25:11Z</time>
			<fix>3d</fix>
		</trkpt>
		<trkpt lat="35.165667" lon="-106.453375">
			<ele>2107.21</ele>
			<time>2015-03-08T19:25:12Z</time>
			<fix>3d</fix>
		</trkpt>
		<trkpt lat="35.165665" lon="-106.453387">
			<ele>2106.90</ele>
			<time>2015-03-08T19:25:13Z</time>
			<fix>3d</fix>
		</trkpt>
		<trkpt lat="35.165663" lon="-106.453400">
			<ele>2106.59</ele>
			<time>2015-03-08T19:25:14Z</time>
			<fix>3d</fix>
		</trkpt>
		<trkpt lat="35.165667" lon="-106.453415">
			<ele>2106.49</ele>
			<time>2015-03-08T19:25:15Z</time>
			<fix>3d</fix>
		</trkpt>
		<trkpt lat="35.165668" lon="-106.453422">
			<ele>2106.18</ele>
			<time>2015-03-08T19:25:16Z</time>
			<fix>3d</fix>
		</trkpt>
		<trkpt lat="35.165670" lon="-106.453443">
			<ele>2105.97</ele>
			<time>2015-03-08T19:25:17Z</time>
			<fix>3d</fix>
		</trkpt>
		<trkpt lat="35.165670" lon="-106.453460">
			<ele>2105.96</ele>
			<time>2015-03-08T19:25:18Z</time>
			<fix>3d</fix>
		</trkpt>
		<trkpt lat="35.165671" lon="-106.453477">
			<ele>2105.96</ele>
			<time>2015-03-08T19:25:19Z</time>
			<fix>3d</fix>
		</trkpt>
		<trkpt lat="35.165673" lon="-106.453493">
			<ele>2105.85</ele>
			<time>2015-03-08T19:25:20Z</time>
			<fix>3d</fix>
		</trkpt>
		<trkpt lat="35.165673" lon="-106.453499">
			<ele>2105.84</ele>
			<time>2015-03-08T19:25:21Z</time>
			<fix>3d</fix>
		</trkpt>
		<trkpt lat="35.165669" lon="-106.453507">
			<ele>2105.62</ele>
			<time>2015-03-08T19:25:24Z</time>
			<fix>3d</fix>
		</trkpt>
		<trkpt lat="35.165659" lon="-106.453562">
			<ele>2105.50</ele>
			<time>2015-03-08T19:25:28Z</time>
			<fix>3d</fix>
		</trkpt>
		<trkpt lat="35.165657" lon="-106.453571">
			<ele>2105.28</ele>
			<time>2015-03-08T19:25:30Z</time>
			<fix>3d</fix>
		</trkpt>
		<trkpt lat="35.165657" lon="-106.453581">
			<ele>2105.18</ele>
			<time>2015-03-08T19:25:31Z</time>
			<fix>3d</fix>
		</trkpt>
		<trkpt lat="35.165665" lon="-106.453606">
			<ele>2105.07</ele>
			<time>2015-03-08T19:25:32Z</time>
			<fix>3d</fix>
		</trkpt>
		<trkpt lat="35.165666" lon="-106.453606">
			<ele>2105.06</ele>
			<time>2015-03-08T19:25:33Z</time>
			<fix>3d</fix>
		</trkpt>
		<trkpt lat="35.165673" lon="-106.453615">
			<ele>2105.06</ele>
			<time>2015-03-08T19:25:34Z</time>
			<fix>3d</fix>
		</trkpt>
		<trkpt lat="35.165675" lon="-106.453616">
			<ele>2104.95</ele>
			<time>2015-03-08T19:25:35Z</time>
			<fix>3d</fix>
		</trkpt>
		<trkpt lat="35.165690" lon="-106.453646">
			<ele>2104.24</ele>
			<time>2015-03-08T19:25:36Z</time>
			<fix>3d</fix>
		</trkpt>
		<trkpt lat="35.165692" lon="-106.453653">
			<ele>2104.03</ele>
			<time>2015-03-08T19:25:37Z</time>
			<fix>3d</fix>
		</trkpt>
		<trkpt lat="35.165700" lon="-106.453675">
			<ele>2104.02</ele>
			<time>2015-03-08T19:25:38Z</time>
			<fix>3d</fix>
		</trkpt>
		<trkpt lat="35.165704" lon="-106.453702">
			<ele>2104.01</ele>
			<time>2015-03-08T19:25:39Z</time>
			<fix>3d</fix>
		</trkpt>
		<trkpt lat="35.165703" lon="-106.453710">
			<ele>2103.91</ele>
			<time>2015-03-08T19:25:40Z</time>
			<fix>3d</fix>
		</trkpt>
		<trkpt lat="35.165709" lon="-106.453744">
			<ele>2103.78</ele>
			<time>2015-03-08T19:25:43Z</time>
			<fix>3d</fix>
		</trkpt>
		<trkpt lat="35.165710" lon="-106.453749">
			<ele>2103.17</ele>
			<time>2015-03-08T19:25:44Z</time>
			<fix>3d</fix>
		</trkpt>
		<trkpt lat="35.165711" lon="-106.453755">
			<ele>2102.66</ele>
			<time>2015-03-08T19:25:45Z</time>
			<fix>3d</fix>
		</trkpt>
		<trkpt lat="35.165712" lon="-106.453763">
			<ele>2102.75</ele>
			<time>2015-03-08T19:25:46Z</time>
			<fix>3d</fix>
		</trkpt>
		<trkpt lat="35.165714" lon="-106.453781">
			<ele>2102.65</ele>
			<time>2015-03-08T19:25:47Z</time>
			<fix>3d</fix>
		</trkpt>
		<trkpt lat="35.165713" lon="-106.453786">
			<ele>2102.53</ele>
			<time>2015-03-08T19:25:49Z</time>
			<fix>3d</fix>
		</trkpt>
		<trkpt lat="35.165708" lon="-106.453806">
			<ele>2102.52</ele>
			<time>2015-03-08T19:25:50Z</time>
			<fix>3d</fix>
		</trkpt>
		<trkpt lat="35.165708" lon="-106.453832">
			<ele>2102.42</ele>
			<time>2015-03-08T19:25:51Z</time>
			<fix>3d</fix>
		</trkpt>
		<trkpt lat="35.165709" lon="-106.453840">
			<ele>2102.21</ele>
			<time>2015-03-08T19:25:52Z</time>
			<fix>3d</fix>
		</trkpt>
		<trkpt lat="35.165710" lon="-106.453862">
			<ele>2101.80</ele>
			<time>2015-03-08T19:25:53Z</time>
			<fix>3d</fix>
		</trkpt>
		<trkpt lat="35.165705" lon="-106.453877">
			<ele>2101.69</ele>
			<time>2015-03-08T19:25:54Z</time>
			<fix>3d</fix>
		</trkpt>
		<trkpt lat="35.165701" lon="-106.453891">
			<ele>2101.68</ele>
			<time>2015-03-08T19:25:55Z</time>
			<fix>3d</fix>
		</trkpt>
		<trkpt lat="35.165698" lon="-106.453898">
			<ele>2101.68</ele>
			<time>2015-03-08T19:25:56Z</time>
			<fix>3d</fix>
		</trkpt>
		<trkpt lat="35.165694" lon="-106.453917">
			<ele>2101.67</ele>
			<time>2015-03-08T19:25:57Z</time>
			<fix>3d</fix>
		</trkpt>
		<trkpt lat="35.165689" lon="-106.453932">
			<ele>2101.56</ele>
			<time>2015-03-08T19:25:58Z</time>
			<fix>3d</fix>
		</trkpt>
		<trkpt lat="35.165686" lon="-106.453940">
			<ele>2101.46</ele>
			<time>2015-03-08T19:25:59Z</time>
			<fix>3d</fix>
		</trkpt>
		<trkpt lat="35.165686" lon="-106.453952">
			<ele>2101.35</ele>
			<time>2015-03-08T19:26:00Z</time>
			<fix>3d</fix>
		</trkpt>
		<trkpt lat="35.165688" lon="-106.453966">
			<ele>2101.04</ele>
			<time>2015-03-08T19:26:01Z</time>
			<fix>3d</fix>
		</trkpt>
		<trkpt lat="35.165690" lon="-106.453972">
			<ele>2100.93</ele>
			<time>2015-03-08T19:26:02Z</time>
			<fix>3d</fix>
		</trkpt>
		<trkpt lat="35.165694" lon="-106.453990">
			<ele>2100.92</ele>
			<time>2015-03-08T19:26:03Z</time>
			<fix>3d</fix>
		</trkpt>
		<trkpt lat="35.165698" lon="-106.454006">
			<ele>2100.92</ele>
			<time>2015-03-08T19:26:04Z</time>
			<fix>3d</fix>
		</trkpt>
		<trkpt lat="35.165701" lon="-106.454021">
			<ele>2100.81</ele>
			<time>2015-03-08T19:26:05Z</time>
			<fix>3d</fix>
		</trkpt>
		<trkpt lat="35.165704" lon="-106.454047">
			<ele>2100.50</ele>
			<time>2015-03-08T19:26:06Z</time>
			<fix>3d</fix>
		</trkpt>
		<trkpt lat="35.165705" lon="-106.454051">
			<ele>2100.19</ele>
			<time>2015-03-08T19:26:07Z</time>
			<fix>3d</fix>
		</trkpt>
		<trkpt lat="35.165705" lon="-106.454068">
			<ele>2100.31</ele>
			<time>2015-03-08T19:26:08Z</time>
			<fix>3d</fix>
		</trkpt>
		<trkpt lat="35.165705" lon="-106.454069">
			<ele>2100.29</ele>
			<time>2015-03-08T19:26:10Z</time>
			<fix>3d</fix>
		</trkpt>
		<trkpt lat="35.165707" lon="-106.454081">
			<ele>2100.29</ele>
			<time>2015-03-08T19:26:11Z</time>
			<fix>3d</fix>
		</trkpt>
		<trkpt lat="35.165710" lon="-106.454094">
			<ele>2100.28</ele>
			<time>2015-03-08T19:26:12Z</time>
			<fix>3d</fix>
		</trkpt>
		<trkpt lat="35.165709" lon="-106.454095">
			<ele>2100.28</ele>
			<time>2015-03-08T19:26:13Z</time>
			<fix>3d</fix>
		</trkpt>
		<trkpt lat="35.165711" lon="-106.454109">
			<ele>2100.27</ele>
			<time>2015-03-08T19:26:14Z</time>
			<fix>3d</fix>
		</trkpt>
		<trkpt lat="35.165711" lon="-106.454121">
			<ele>2100.16</ele>
			<time>2015-03-08T19:26:15Z</time>
			<fix>3d</fix>
		</trkpt>
		<trkpt lat="35.165707" lon="-106.454146">
			<ele>2100.16</ele>
			<time>2015-03-08T19:26:16Z</time>
			<fix>3d</fix>
		</trkpt>
		<trkpt lat="35.165705" lon="-106.454152">
			<ele>2100.15</ele>
			<time>2015-03-08T19:26:17Z</time>
			<fix>3d</fix>
		</trkpt>
		<trkpt lat="35.165705" lon="-106.454159">
			<ele>2099.94</ele>
			<time>2015-03-08T19:26:18Z</time>
			<fix>3d</fix>
		</trkpt>
		<trkpt lat="35.165705" lon="-106.454167">
			<ele>2099.83</ele>
			<time>2015-03-08T19:26:19Z</time>
			<fix>3d</fix>
		</trkpt>
		<trkpt lat="35.165710" lon="-106.454206">
			<ele>2099.72</ele>
			<time>2015-03-08T19:26:20Z</time>
			<fix>3d</fix>
		</trkpt>
		<trkpt lat="35.165714" lon="-106.454214">
			<ele>2099.62</ele>
			<time>2015-03-08T19:26:21Z</time>
			<fix>3d</fix>
		</trkpt>
		<trkpt lat="35.165720" lon="-106.454227">
			<ele>2099.51</ele>
			<time>2015-03-08T19:26:22Z</time>
			<fix>3d</fix>
		</trkpt>
		<trkpt lat="35.165731" lon="-106.454250">
			<ele>2099.20</ele>
			<time>2015-03-08T19:26:23Z</time>
			<fix>3d</fix>
		</trkpt>
		<trkpt lat="35.165734" lon="-106.454256">
			<ele>2098.58</ele>
			<time>2015-03-08T19:26:25Z</time>
			<fix>3d</fix>
		</trkpt>
		<trkpt lat="35.165738" lon="-106.454262">
			<ele>2098.56</ele>
			<time>2015-03-08T19:26:27Z</time>
			<fix>3d</fix>
		</trkpt>
		<trkpt lat="35.165749" lon="-106.454285">
			<ele>2098.56</ele>
			<time>2015-03-08T19:26:28Z</time>
			<fix>3d</fix>
		</trkpt>
		<trkpt lat="35.165750" lon="-106.454291">
			<ele>2098.45</ele>
			<time>2015-03-08T19:26:29Z</time>
			<fix>3d</fix>
		</trkpt>
		<trkpt lat="35.165751" lon="-106.454310">
			<ele>2098.34</ele>
			<time>2015-03-08T19:26:30Z</time>
			<fix>3d</fix>
		</trkpt>
		<trkpt lat="35.165747" lon="-106.454329">
			<ele>2098.33</ele>
			<time>2015-03-08T19:26:31Z</time>
			<fix>3d</fix>
		</trkpt>
		<trkpt lat="35.165742" lon="-106.454336">
			<ele>2098.21</ele>
			<time>2015-03-08T19:26:34Z</time>
			<fix>3d</fix>
		</trkpt>
		<trkpt lat="35.165738" lon="-106.454360">
			<ele>2098.11</ele>
			<time>2015-03-08T19:26:35Z</time>
			<fix>3d</fix>
		</trkpt>
		<trkpt lat="35.165735" lon="-106.454364">
			<ele>2097.68</ele>
			<time>2015-03-08T19:26:38Z</time>
			<fix>3d</fix>
		</trkpt>
		<trkpt lat="35.165733" lon="-106.454372">
			<ele>2097.58</ele>
			<time>2015-03-08T19:26:39Z</time>
			<fix>3d</fix>
		</trkpt>
		<trkpt lat="35.165730" lon="-106.454380">
			<ele>2097.47</ele>
			<time>2015-03-08T19:26:40Z</time>
			<fix>3d</fix>
		</trkpt>
		<trkpt lat="35.165723" lon="-106.454400">
			<ele>2096.96</ele>
			<time>2015-03-08T19:26:41Z</time>
			<fix>3d</fix>
		</trkpt>
		<trkpt lat="35.165716" lon="-106.454413">
			<ele>2096.75</ele>
			<time>2015-03-08T19:26:42Z</time>
			<fix>3d</fix>
		</trkpt>
		<trkpt lat="35.165708" lon="-106.454425">
			<ele>2096.64</ele>
			<time>2015-03-08T19:26:43Z</time>
			<fix>3d</fix>
		</trkpt>
		<trkpt lat="35.165705" lon="-106.454430">
			<ele>2096.54</ele>
			<time>2015-03-08T19:26:44Z</time>
			<fix>3d</fix>
		</trkpt>
		<trkpt lat="35.165695" lon="-106.454440">
			<ele>2095.82</ele>
			<time>2015-03-08T19:26:46Z</time>
			<fix>3d</fix>
		</trkpt>
		<trkpt lat="35.165687" lon="-106.454460">
			<ele>2095.71</ele>
			<time>2015-03-08T19:26:47Z</time>
			<fix>3d</fix>
		</trkpt>
		<trkpt lat="35.165687" lon="-106.454470">
			<ele>2094.67</ele>
			<time>2015-03-08T19:26:54Z</time>
			<fix>3d</fix>
		</trkpt>
		<trkpt lat="35.165689" lon="-106.454482">
			<ele>2094.66</ele>
			<time>2015-03-08T19:26:55Z</time>
			<fix>3d</fix>
		</trkpt>
		<trkpt lat="35.165688" lon="-106.454511">
			<ele>2094.66</ele>
			<time>2015-03-08T19:26:56Z</time>
			<fix>3d</fix>
		</trkpt>
		<trkpt lat="35.165684" lon="-106.454529">
			<ele>2094.55</ele>
			<time>2015-03-08T19:26:57Z</time>
			<fix>3d</fix>
		</trkpt>
		<trkpt lat="35.165683" lon="-106.454529">
			<ele>2094.55</ele>
			<time>2015-03-08T19:26:58Z</time>
			<fix>3d</fix>
		</trkpt>
		<trkpt lat="35.165678" lon="-106.454550">
			<ele>2094.24</ele>
			<time>2015-03-08T19:26:59Z</time>
			<fix>3d</fix>
		</trkpt>
		<trkpt lat="35.165674" lon="-106.454567">
			<ele>2094.24</ele>
			<time>2015-03-08T19:27:00Z</time>
			<fix>3d</fix>
		</trkpt>
		<trkpt lat="35.165679" lon="-106.454574">
			<ele>2093.91</ele>
			<time>2015-03-08T19:27:06Z</time>
			<fix>3d</fix>
		</trkpt>
		<trkpt lat="35.165679" lon="-106.454590">
			<ele>2093.80</ele>
			<time>2015-03-08T19:27:07Z</time>
			<fix>3d</fix>
		</trkpt>
		<trkpt lat="35.165677" lon="-106.454595">
			<ele>2093.80</ele>
			<time>2015-03-08T19:27:08Z</time>
			<fix>3d</fix>
		</trkpt>
		<trkpt lat="35.165672" lon="-106.454611">
			<ele>2093.80</ele>
			<time>2015-03-08T19:27:09Z</time>
			<fix>3d</fix>
		</trkpt>
		<trkpt lat="35.165670" lon="-106.454616">
			<ele>2093.79</ele>
			<time>2015-03-08T19:27:10Z</time>
			<fix>3d</fix>
		</trkpt>
		<trkpt lat="35.165664" lon="-106.454634">
			<ele>2093.69</ele>
			<time>2015-03-08T19:27:11Z</time>
			<fix>3d</fix>
		</trkpt>
		<trkpt lat="35.165657" lon="-106.454658">
			<ele>2093.68</ele>
			<time>2015-03-08T19:27:12Z</time>
			<fix>3d</fix>
		</trkpt>
		<trkpt lat="35.165655" lon="-106.454660">
			<ele>2093.37</ele>
			<time>2015-03-08T19:27:13Z</time>
			<fix>3d</fix>
		</trkpt>
		<trkpt lat="35.165647" lon="-106.454669">
			<ele>2093.17</ele>
			<time>2015-03-08T19:27:14Z</time>
			<fix>3d</fix>
		</trkpt>
		<trkpt lat="35.165639" lon="-106.454684">
			<ele>2093.16</ele>
			<time>2015-03-08T19:27:15Z</time>
			<fix>3d</fix>
		</trkpt>
		<trkpt lat="35.165634" lon="-106.454698">
			<ele>2093.06</ele>
			<time>2015-03-08T19:27:16Z</time>
			<fix>3d</fix>
		</trkpt>
		<trkpt lat="35.165630" lon="-106.454705">
			<ele>2093.05</ele>
			<time>2015-03-08T19:27:17Z</time>
			<fix>3d</fix>
		</trkpt>
		<trkpt lat="35.165624" lon="-106.454721">
			<ele>2092.95</ele>
			<time>2015-03-08T19:27:18Z</time>
			<fix>3d</fix>
		</trkpt>
		<trkpt lat="35.165621" lon="-106.454736">
			<ele>2092.94</ele>
			<time>2015-03-08T19:27:19Z</time>
			<fix>3d</fix>
		</trkpt>
		<trkpt lat="35.165618" lon="-106.454743">
			<ele>2092.83</ele>
			<time>2015-03-08T19:27:20Z</time>
			<fix>3d</fix>
		</trkpt>
		<trkpt lat="35.165615" lon="-106.454754">
			<ele>2092.73</ele>
			<time>2015-03-08T19:27:21Z</time>
			<fix>3d</fix>
		</trkpt>
		<trkpt lat="35.165613" lon="-106.454766">
			<ele>2092.32</ele>
			<time>2015-03-08T19:27:22Z</time>
			<fix>3d</fix>
		</trkpt>
		<trkpt lat="35.165609" lon="-106.454785">
			<ele>2092.31</ele>
			<time>2015-03-08T19:27:23Z</time>
			<fix>3d</fix>
		</trkpt>
		<trkpt lat="35.165604" lon="-106.454798">
			<ele>2092.31</ele>
			<time>2015-03-08T19:27:24Z</time>
			<fix>3d</fix>
		</trkpt>
		<trkpt lat="35.165601" lon="-106.454806">
			<ele>2092.30</ele>
			<time>2015-03-08T19:27:25Z</time>
			<fix>3d</fix>
		</trkpt>
		<trkpt lat="35.165598" lon="-106.454817">
			<ele>2092.30</ele>
			<time>2015-03-08T19:27:26Z</time>
			<fix>3d</fix>
		</trkpt>
		<trkpt lat="35.165597" lon="-106.454830">
			<ele>2092.29</ele>
			<time>2015-03-08T19:27:27Z</time>
			<fix>3d</fix>
		</trkpt>
		<trkpt lat="35.165599" lon="-106.454852">
			<ele>2092.09</ele>
			<time>2015-03-08T19:27:28Z</time>
			<fix>3d</fix>
		</trkpt>
		<trkpt lat="35.165598" lon="-106.454860">
			<ele>2091.98</ele>
			<time>2015-03-08T19:27:29Z</time>
			<fix>3d</fix>
		</trkpt>
		<trkpt lat="35.165596" lon="-106.454879">
			<ele>2091.87</ele>
			<time>2015-03-08T19:27:30Z</time>
			<fix>3d</fix>
		</trkpt>
		<trkpt lat="35.165588" lon="-106.454891">
			<ele>2091.87</ele>
			<time>2015-03-08T19:27:31Z</time>
			<fix>3d</fix>
		</trkpt>
		<trkpt lat="35.165581" lon="-106.454894">
			<ele>2091.56</ele>
			<time>2015-03-08T19:27:32Z</time>
			<fix>3d</fix>
		</trkpt>
		<trkpt lat="35.165579" lon="-106.454896">
			<ele>2091.25</ele>
			<time>2015-03-08T19:27:33Z</time>
			<fix>3d</fix>
		</trkpt>
		<trkpt lat="35.165571" lon="-106.454904">
			<ele>2090.94</ele>
			<time>2015-03-08T19:27:34Z</time>
			<fix>3d</fix>
		</trkpt>
		<trkpt lat="35.165572" lon="-106.454908">
			<ele>2090.93</ele>
			<time>2015-03-08T19:27:35Z</time>
			<fix>3d</fix>
		</trkpt>
		<trkpt lat="35.165574" lon="-106.454915">
			<ele>2090.93</ele>
			<time>2015-03-08T19:27:36Z</time>
			<fix>3d</fix>
		</trkpt>
		<trkpt lat="35.165577" lon="-106.454922">
			<ele>2090.81</ele>
			<time>2015-03-08T19:27:38Z</time>
			<fix>3d</fix>
		</trkpt>
		<trkpt lat="35.165581" lon="-106.454933">
			<ele>2090.81</ele>
			<time>2015-03-08T19:27:39Z</time>
			<fix>3d</fix>
		</trkpt>
		<trkpt lat="35.165581" lon="-106.454934">
			<ele>2090.70</ele>
			<time>2015-03-08T19:27:40Z</time>
			<fix>3d</fix>
		</trkpt>
		<trkpt lat="35.165582" lon="-106.454945">
			<ele>2090.59</ele>
			<time>2015-03-08T19:27:41Z</time>
			<fix>3d</fix>
		</trkpt>
		<trkpt lat="35.165581" lon="-106.454954">
			<ele>2090.48</ele>
			<time>2015-03-08T19:27:42Z</time>
			<fix>3d</fix>
		</trkpt>
		<trkpt lat="35.165579" lon="-106.454962">
			<ele>2090.28</ele>
			<time>2015-03-08T19:27:43Z</time>
			<fix>3d</fix>
		</trkpt>
		<trkpt lat="35.165572" lon="-106.454979">
			<ele>2090.17</ele>
			<time>2015-03-08T19:27:44Z</time>
			<fix>3d</fix>
		</trkpt>
		<trkpt lat="35.165569" lon="-106.454984">
			<ele>2089.76</ele>
			<time>2015-03-08T19:27:45Z</time>
			<fix>3d</fix>
		</trkpt>
		<trkpt lat="35.165565" lon="-106.454989">
			<ele>2089.55</ele>
			<time>2015-03-08T19:27:46Z</time>
			<fix>3d</fix>
		</trkpt>
		<trkpt lat="35.165555" lon="-106.454999">
			<ele>2089.44</ele>
			<time>2015-03-08T19:27:47Z</time>
			<fix>3d</fix>
		</trkpt>
		<trkpt lat="35.165543" lon="-106.455011">
			<ele>2089.03</ele>
			<time>2015-03-08T19:27:48Z</time>
			<fix>3d</fix>
		</trkpt>
		<trkpt lat="35.165535" lon="-106.455014">
			<ele>2088.92</ele>
			<time>2015-03-08T19:27:50Z</time>
			<fix>3d</fix>
		</trkpt>
		<trkpt lat="35.165527" lon="-106.455040">
			<ele>2088.91</ele>
			<time>2015-03-08T19:27:51Z</time>
			<fix>3d</fix>
		</trkpt>
		<trkpt lat="35.165522" lon="-106.455047">
			<ele>2088.91</ele>
			<time>2015-03-08T19:27:52Z</time>
			<fix>3d</fix>
		</trkpt>
		<trkpt lat="35.165516" lon="-106.455056">
			<ele>2088.80</ele>
			<time>2015-03-08T19:27:53Z</time>
			<fix>3d</fix>
		</trkpt>
		<trkpt lat="35.165514" lon="-106.455061">
			<ele>2088.69</ele>
			<time>2015-03-08T19:27:54Z</time>
			<fix>3d</fix>
		</trkpt>
		<trkpt lat="35.165507" lon="-106.455074">
			<ele>2088.58</ele>
			<time>2015-03-08T19:27:55Z</time>
			<fix>3d</fix>
		</trkpt>
		<trkpt lat="35.165501" lon="-106.455083">
			<ele>2088.38</ele>
			<time>2015-03-08T19:27:56Z</time>
			<fix>3d</fix>
		</trkpt>
		<trkpt lat="35.165499" lon="-106.455087">
			<ele>2088.27</ele>
			<time>2015-03-08T19:27:57Z</time>
			<fix>3d</fix>
		</trkpt>
		<trkpt lat="35.165493" lon="-106.455100">
			<ele>2088.26</ele>
			<time>2015-03-08T19:27:58Z</time>
			<fix>3d</fix>
		</trkpt>
		<trkpt lat="35.165487" lon="-106.455110">
			<ele>2088.26</ele>
			<time>2015-03-08T19:27:59Z</time>
			<fix>3d</fix>
		</trkpt>
		<trkpt lat="35.165477" lon="-106.455126">
			<ele>2088.25</ele>
			<time>2015-03-08T19:28:00Z</time>
			<fix>3d</fix>
		</trkpt>
		<trkpt lat="35.165475" lon="-106.455127">
			<ele>2088.25</ele>
			<time>2015-03-08T19:28:01Z</time>
			<fix>3d</fix>
		</trkpt>
		<trkpt lat="35.165466" lon="-106.455138">
			<ele>2088.24</ele>
			<time>2015-03-08T19:28:02Z</time>
			<fix>3d</fix>
		</trkpt>
		<trkpt lat="35.165456" lon="-106.455156">
			<ele>2088.24</ele>
			<time>2015-03-08T19:28:03Z</time>
			<fix>3d</fix>
		</trkpt>
		<trkpt lat="35.165454" lon="-106.455159">
			<ele>2088.23</ele>
			<time>2015-03-08T19:28:04Z</time>
			<fix>3d</fix>
		</trkpt>
		<trkpt lat="35.165448" lon="-106.455173">
			<ele>2088.33</ele>
			<time>2015-03-08T19:28:05Z</time>
			<fix>3d</fix>
		</trkpt>
		<trkpt lat="35.165441" lon="-106.455187">
			<ele>2088.33</ele>
			<time>2015-03-08T19:28:06Z</time>
			<fix>3d</fix>
		</trkpt>
		<trkpt lat="35.165431" lon="-106.455199">
			<ele>2088.32</ele>
			<time>2015-03-08T19:28:07Z</time>
			<fix>3d</fix>
		</trkpt>
		<trkpt lat="35.165422" lon="-106.455209">
			<ele>2088.30</ele>
			<time>2015-03-08T19:28:08Z</time>
			<fix>3d</fix>
		</trkpt>
		<trkpt lat="35.165415" lon="-106.455220">
			<ele>2088.40</ele>
			<time>2015-03-08T19:28:09Z</time>
			<fix>3d</fix>
		</trkpt>
		<trkpt lat="35.165405" lon="-106.455240">
			<ele>2088.39</ele>
			<time>2015-03-08T19:28:10Z</time>
			<fix>3d</fix>
		</trkpt>
		<trkpt lat="35.165396" lon="-106.455246">
			<ele>2088.29</ele>
			<time>2015-03-08T19:28:11Z</time>
			<fix>3d</fix>
		</trkpt>
		<trkpt lat="35.165385" lon="-106.455264">
			<ele>2088.28</ele>
			<time>2015-03-08T19:28:12Z</time>
			<fix>3d</fix>
		</trkpt>
		<trkpt lat="35.165378" lon="-106.455270">
			<ele>2088.07</ele>
			<time>2015-03-08T19:28:15Z</time>
			<fix>3d</fix>
		</trkpt>
		<trkpt lat="35.165372" lon="-106.455271">
			<ele>2087.96</ele>
			<time>2015-03-08T19:28:17Z</time>
			<fix>3d</fix>
		</trkpt>
		<trkpt lat="35.165369" lon="-106.455272">
			<ele>2087.96</ele>
			<time>2015-03-08T19:28:18Z</time>
			<fix>3d</fix>
		</trkpt>
		<trkpt lat="35.165362" lon="-106.455285">
			<ele>2087.85</ele>
			<time>2015-03-08T19:28:19Z</time>
			<fix>3d</fix>
		</trkpt>
		<trkpt lat="35.165356" lon="-106.455296">
			<ele>2087.75</ele>
			<time>2015-03-08T19:28:20Z</time>
			<fix>3d</fix>
		</trkpt>
		<trkpt lat="35.165336" lon="-106.455337">
			<ele>2087.34</ele>
			<time>2015-03-08T19:28:21Z</time>
			<fix>3d</fix>
		</trkpt>
		<trkpt lat="35.165329" lon="-106.455344">
			<ele>2087.14</ele>
			<time>2015-03-08T19:28:22Z</time>
			<fix>3d</fix>
		</trkpt>
		<trkpt lat="35.165316" lon="-106.455362">
			<ele>2087.13</ele>
			<time>2015-03-08T19:28:23Z</time>
			<fix>3d</fix>
		</trkpt>
		<trkpt lat="35.165308" lon="-106.455369">
			<ele>2087.13</ele>
			<time>2015-03-08T19:28:24Z</time>
			<fix>3d</fix>
		</trkpt>
		<trkpt lat="35.165301" lon="-106.455381">
			<ele>2087.13</ele>
			<time>2015-03-08T19:28:25Z</time>
			<fix>3d</fix>
		</trkpt>
		<trkpt lat="35.165293" lon="-106.455395">
			<ele>2087.13</ele>
			<time>2015-03-08T19:28:26Z</time>
			<fix>3d</fix>
		</trkpt>
		<trkpt lat="35.165284" lon="-106.455416">
			<ele>2087.12</ele>
			<time>2015-03-08T19:28:27Z</time>
			<fix>3d</fix>
		</trkpt>
		<trkpt lat="35.165277" lon="-106.455422">
			<ele>2087.22</ele>
			<time>2015-03-08T19:28:28Z</time>
			<fix>3d</fix>
		</trkpt>
		<trkpt lat="35.165272" lon="-106.455431">
			<ele>2087.22</ele>
			<time>2015-03-08T19:28:29Z</time>
			<fix>3d</fix>
		</trkpt>
		<trkpt lat="35.165265" lon="-106.455442">
			<ele>2087.22</ele>
			<time>2015-03-08T19:28:30Z</time>
			<fix>3d</fix>
		</trkpt>
		<trkpt lat="35.165256" lon="-106.455451">
			<ele>2087.22</ele>
			<time>2015-03-08T19:28:31Z</time>
			<fix>3d</fix>
		</trkpt>
		<trkpt lat="35.165244" lon="-106.455466">
			<ele>2087.11</ele>
			<time>2015-03-08T19:28:32Z</time>
			<fix>3d</fix>
		</trkpt>
		<trkpt lat="35.165236" lon="-106.455469">
			<ele>2087.01</ele>
			<time>2015-03-08T19:28:33Z</time>
			<fix>3d</fix>
		</trkpt>
		<trkpt lat="35.165229" lon="-106.455473">
			<ele>2087.01</ele>
			<time>2015-03-08T19:28:34Z</time>
			<fix>3d</fix>
		</trkpt>
		<trkpt lat="35.165226" lon="-106.455475">
			<ele>2086.90</ele>
			<time>2015-03-08T19:28:35Z</time>
			<fix>3d</fix>
		</trkpt>
		<trkpt lat="35.165218" lon="-106.455484">
			<ele>2086.90</ele>
			<time>2015-03-08T19:28:36Z</time>
			<fix>3d</fix>
		</trkpt>
		<trkpt lat="35.165215" lon="-106.455488">
			<ele>2086.80</ele>
			<time>2015-03-08T19:28:37Z</time>
			<fix>3d</fix>
		</trkpt>
		<trkpt lat="35.165203" lon="-106.455510">
			<ele>2086.69</ele>
			<time>2015-03-08T19:28:38Z</time>
			<fix>3d</fix>
		</trkpt>
		<trkpt lat="35.165197" lon="-106.455515">
			<ele>2086.49</ele>
			<time>2015-03-08T19:28:39Z</time>
			<fix>3d</fix>
		</trkpt>
		<trkpt lat="35.165195" lon="-106.455519">
			<ele>2086.39</ele>
			<time>2015-03-08T19:28:40Z</time>
			<fix>3d</fix>
		</trkpt>
		<trkpt lat="35.165184" lon="-106.455540">
			<ele>2086.28</ele>
			<time>2015-03-08T19:28:41Z</time>
			<fix>3d</fix>
		</trkpt>
		<trkpt lat="35.165179" lon="-106.455547">
			<ele>2086.18</ele>
			<time>2015-03-08T19:28:43Z</time>
			<fix>3d</fix>
		</trkpt>
		<trkpt lat="35.165174" lon="-106.455564">
			<ele>2086.18</ele>
			<time>2015-03-08T19:28:44Z</time>
			<fix>3d</fix>
		</trkpt>
		<trkpt lat="35.165172" lon="-106.455589">
			<ele>2086.17</ele>
			<time>2015-03-08T19:28:45Z</time>
			<fix>3d</fix>
		</trkpt>
		<trkpt lat="35.165169" lon="-106.455597">
			<ele>2086.17</ele>
			<time>2015-03-08T19:28:46Z</time>
			<fix>3d</fix>
		</trkpt>
		<trkpt lat="35.165167" lon="-106.455610">
			<ele>2086.17</ele>
			<time>2015-03-08T19:28:47Z</time>
			<fix>3d</fix>
		</trkpt>
		<trkpt lat="35.165167" lon="-106.455636">
			<ele>2086.06</ele>
			<time>2015-03-08T19:28:48Z</time>
			<fix>3d</fix>
		</trkpt>
		<trkpt lat="35.165169" lon="-106.455654">
			<ele>2086.06</ele>
			<time>2015-03-08T19:28:49Z</time>
			<fix>3d</fix>
		</trkpt>
		<trkpt lat="35.165170" lon="-106.455658">
			<ele>2086.06</ele>
			<time>2015-03-08T19:28:50Z</time>
			<fix>3d</fix>
		</trkpt>
		<trkpt lat="35.165174" lon="-106.455675">
			<ele>2085.96</ele>
			<time>2015-03-08T19:28:51Z</time>
			<fix>3d</fix>
		</trkpt>
		<trkpt lat="35.165181" lon="-106.455694">
			<ele>2085.85</ele>
			<time>2015-03-08T19:28:52Z</time>
			<fix>3d</fix>
		</trkpt>
		<trkpt lat="35.165189" lon="-106.455724">
			<ele>2085.55</ele>
			<time>2015-03-08T19:28:53Z</time>
			<fix>3d</fix>
		</trkpt>
		<trkpt lat="35.165190" lon="-106.455744">
			<ele>2084.73</ele>
			<time>2015-03-08T19:28:54Z</time>
			<fix>3d</fix>
		</trkpt>
		<trkpt lat="35.165191" lon="-106.455764">
			<ele>2084.02</ele>
			<time>2015-03-08T19:28:55Z</time>
			<fix>3d</fix>
		</trkpt>
		<trkpt lat="35.165190" lon="-106.455784">
			<ele>2084.02</ele>
			<time>2015-03-08T19:28:56Z</time>
			<fix>3d</fix>
		</trkpt>
		<trkpt lat="35.165189" lon="-106.455794">
			<ele>2083.92</ele>
			<time>2015-03-08T19:28:57Z</time>
			<fix>3d</fix>
		</trkpt>
		<trkpt lat="35.165189" lon="-106.455809">
			<ele>2084.02</ele>
			<time>2015-03-08T19:28:58Z</time>
			<fix>3d</fix>
		</trkpt>
		<trkpt lat="35.165192" lon="-106.455826">
			<ele>2084.01</ele>
			<time>2015-03-08T19:28:59Z</time>
			<fix>3d</fix>
		</trkpt>
		<trkpt lat="35.165196" lon="-106.455842">
			<ele>2084.01</ele>
			<time>2015-03-08T19:29:00Z</time>
			<fix>3d</fix>
		</trkpt>
		<trkpt lat="35.165200" lon="-106.455860">
			<ele>2084.01</ele>
			<time>2015-03-08T19:29:01Z</time>
			<fix>3d</fix>
		</trkpt>
		<trkpt lat="35.165205" lon="-106.455889">
			<ele>2084.01</ele>
			<time>2015-03-08T19:29:02Z</time>
			<fix>3d</fix>
		</trkpt>
		<trkpt lat="35.165205" lon="-106.455900">
			<ele>2083.90</ele>
			<time>2015-03-08T19:29:03Z</time>
			<fix>3d</fix>
		</trkpt>
		<trkpt lat="35.165205" lon="-106.455922">
			<ele>2083.90</ele>
			<time>2015-03-08T19:29:04Z</time>
			<fix>3d</fix>
		</trkpt>
		<trkpt lat="35.165205" lon="-106.455931">
			<ele>2083.90</ele>
			<time>2015-03-08T19:29:05Z</time>
			<fix>3d</fix>
		</trkpt>
		<trkpt lat="35.165206" lon="-106.455951">
			<ele>2083.79</ele>
			<time>2015-03-08T19:29:06Z</time>
			<fix>3d</fix>
		</trkpt>
		<trkpt lat="35.165204" lon="-106.455959">
			<ele>2083.79</ele>
			<time>2015-03-08T19:29:07Z</time>
			<fix>3d</fix>
		</trkpt>
		<trkpt lat="35.165202" lon="-106.455978">
			<ele>2083.41</ele>
			<time>2015-03-08T19:29:08Z</time>
			<fix>3d</fix>
		</trkpt>
		<trkpt lat="35.165199" lon="-106.455990">
			<ele>2083.20</ele>
			<time>2015-03-08T19:29:09Z</time>
			<fix>3d</fix>
		</trkpt>
		<trkpt lat="35.165199" lon="-106.456011">
			<ele>2082.69</ele>
			<time>2015-03-08T19:29:10Z</time>
			<fix>3d</fix>
		</trkpt>
		<trkpt lat="35.165201" lon="-106.456027">
			<ele>2082.18</ele>
			<time>2015-03-08T19:29:11Z</time>
			<fix>3d</fix>
		</trkpt>
		<trkpt lat="35.165201" lon="-106.456035">
			<ele>2082.28</ele>
			<time>2015-03-08T19:29:12Z</time>
			<fix>3d</fix>
		</trkpt>
		<trkpt lat="35.165204" lon="-106.456055">
			<ele>2082.17</ele>
			<time>2015-03-08T19:29:13Z</time>
			<fix>3d</fix>
		</trkpt>
		<trkpt lat="35.165204" lon="-106.456072">
			<ele>2082.17</ele>
			<time>2015-03-08T19:29:14Z</time>
			<fix>3d</fix>
		</trkpt>
		<trkpt lat="35.165205" lon="-106.456081">
			<ele>2082.17</ele>
			<time>2015-03-08T19:29:15Z</time>
			<fix>3d</fix>
		</trkpt>
		<trkpt lat="35.165205" lon="-106.456095">
			<ele>2082.06</ele>
			<time>2015-03-08T19:29:16Z</time>
			<fix>3d</fix>
		</trkpt>
		<trkpt lat="35.165205" lon="-106.456110">
			<ele>2081.96</ele>
			<time>2015-03-08T19:29:17Z</time>
			<fix>3d</fix>
		</trkpt>
		<trkpt lat="35.165206" lon="-106.456124">
			<ele>2081.95</ele>
			<time>2015-03-08T19:29:18Z</time>
			<fix>3d</fix>
		</trkpt>
		<trkpt lat="35.165204" lon="-106.456150">
			<ele>2081.85</ele>
			<time>2015-03-08T19:29:19Z</time>
			<fix>3d</fix>
		</trkpt>
		<trkpt lat="35.165203" lon="-106.456168">
			<ele>2081.64</ele>
			<time>2015-03-08T19:29:20Z</time>
			<fix>3d</fix>
		</trkpt>
		<trkpt lat="35.165203" lon="-106.456171">
			<ele>2081.43</ele>
			<time>2015-03-08T19:29:21Z</time>
			<fix>3d</fix>
		</trkpt>
		<trkpt lat="35.165206" lon="-106.456183">
			<ele>2081.33</ele>
			<time>2015-03-08T19:29:22Z</time>
			<fix>3d</fix>
		</trkpt>
		<trkpt lat="35.165207" lon="-106.456188">
			<ele>2081.32</ele>
			<time>2015-03-08T19:29:23Z</time>
			<fix>3d</fix>
		</trkpt>
		<trkpt lat="35.165214" lon="-106.456205">
			<ele>2081.22</ele>
			<time>2015-03-08T19:29:24Z</time>
			<fix>3d</fix>
		</trkpt>
		<trkpt lat="35.165226" lon="-106.456231">
			<ele>2080.91</ele>
			<time>2015-03-08T19:29:25Z</time>
			<fix>3d</fix>
		</trkpt>
		<trkpt lat="35.165232" lon="-106.456248">
			<ele>2080.80</ele>
			<time>2015-03-08T19:29:26Z</time>
			<fix>3d</fix>
		</trkpt>
		<trkpt lat="35.165235" lon="-106.456256">
			<ele>2080.80</ele>
			<time>2015-03-08T19:29:27Z</time>
			<fix>3d</fix>
		</trkpt>
		<trkpt lat="35.165236" lon="-106.456260">
			<ele>2080.79</ele>
			<time>2015-03-08T19:29:28Z</time>
			<fix>3d</fix>
		</trkpt>
		<trkpt lat="35.165239" lon="-106.456283">
			<ele>2080.68</ele>
			<time>2015-03-08T19:29:29Z</time>
			<fix>3d</fix>
		</trkpt>
		<trkpt lat="35.165236" lon="-106.456289">
			<ele>2080.68</ele>
			<time>2015-03-08T19:29:30Z</time>
			<fix>3d</fix>
		</trkpt>
		<trkpt lat="35.165231" lon="-106.456298">
			<ele>2080.57</ele>
			<time>2015-03-08T19:29:31Z</time>
			<fix>3d</fix>
		</trkpt>
		<trkpt lat="35.165226" lon="-106.456309">
			<ele>2080.46</ele>
			<time>2015-03-08T19:29:32Z</time>
			<fix>3d</fix>
		</trkpt>
		<trkpt lat="35.165225" lon="-106.456314">
			<ele>2080.26</ele>
			<time>2015-03-08T19:29:33Z</time>
			<fix>3d</fix>
		</trkpt>
		<trkpt lat="35.165220" lon="-106.456341">
			<ele>2080.25</ele>
			<time>2015-03-08T19:29:34Z</time>
			<fix>3d</fix>
		</trkpt>
		<trkpt lat="35.165218" lon="-106.456343">
			<ele>2079.94</ele>
			<time>2015-03-08T19:29:35Z</time>
			<fix>3d</fix>
		</trkpt>
		<trkpt lat="35.165213" lon="-106.456355">
			<ele>2079.53</ele>
			<time>2015-03-08T19:29:36Z</time>
			<fix>3d</fix>
		</trkpt>
		<trkpt lat="35.165208" lon="-106.456367">
			<ele>2079.22</ele>
			<time>2015-03-08T19:29:37Z</time>
			<fix>3d</fix>
		</trkpt>
		<trkpt lat="35.165203" lon="-106.456379">
			<ele>2079.02</ele>
			<time>2015-03-08T19:29:38Z</time>
			<fix>3d</fix>
		</trkpt>
		<trkpt lat="35.165201" lon="-106.456384">
			<ele>2079.01</ele>
			<time>2015-03-08T19:29:39Z</time>
			<fix>3d</fix>
		</trkpt>
		<trkpt lat="35.165196" lon="-106.456399">
			<ele>2078.90</ele>
			<time>2015-03-08T19:29:40Z</time>
			<fix>3d</fix>
		</trkpt>
		<trkpt lat="35.165192" lon="-106.456411">
			<ele>2078.80</ele>
			<time>2015-03-08T19:29:41Z</time>
			<fix>3d</fix>
		</trkpt>
		<trkpt lat="35.165187" lon="-106.456431">
			<ele>2078.79</ele>
			<time>2015-03-08T19:29:42Z</time>
			<fix>3d</fix>
		</trkpt>
		<trkpt lat="35.165181" lon="-106.456436">
			<ele>2078.69</ele>
			<time>2015-03-08T19:29:43Z</time>
			<fix>3d</fix>
		</trkpt>
		<trkpt lat="35.165173" lon="-106.456445">
			<ele>2078.58</ele>
			<time>2015-03-08T19:29:44Z</time>
			<fix>3d</fix>
		</trkpt>
		<trkpt lat="35.165170" lon="-106.456449">
			<ele>2078.47</ele>
			<time>2015-03-08T19:29:45Z</time>
			<fix>3d</fix>
		</trkpt>
		<trkpt lat="35.165163" lon="-106.456463">
			<ele>2078.27</ele>
			<time>2015-03-08T19:29:46Z</time>
			<fix>3d</fix>
		</trkpt>
		<trkpt lat="35.165159" lon="-106.456475">
			<ele>2078.16</ele>
			<time>2015-03-08T19:29:47Z</time>
			<fix>3d</fix>
		</trkpt>
		<trkpt lat="35.165155" lon="-106.456487">
			<ele>2078.16</ele>
			<time>2015-03-08T19:29:48Z</time>
			<fix>3d</fix>
		</trkpt>
		<trkpt lat="35.165147" lon="-106.456506">
			<ele>2078.15</ele>
			<time>2015-03-08T19:29:49Z</time>
			<fix>3d</fix>
		</trkpt>
		<trkpt lat="35.165145" lon="-106.456508">
			<ele>2077.94</ele>
			<time>2015-03-08T19:29:50Z</time>
			<fix>3d</fix>
		</trkpt>
		<trkpt lat="35.165136" lon="-106.456519">
			<ele>2077.74</ele>
			<time>2015-03-08T19:29:51Z</time>
			<fix>3d</fix>
		</trkpt>
		<trkpt lat="35.165134" lon="-106.456524">
			<ele>2077.73</ele>
			<time>2015-03-08T19:29:53Z</time>
			<fix>3d</fix>
		</trkpt>
		<trkpt lat="35.165134" lon="-106.456553">
			<ele>2077.72</ele>
			<time>2015-03-08T19:29:54Z</time>
			<fix>3d</fix>
		</trkpt>
		<trkpt lat="35.165129" lon="-106.456567">
			<ele>2077.61</ele>
			<time>2015-03-08T19:29:55Z</time>
			<fix>3d</fix>
		</trkpt>
		<trkpt lat="35.165123" lon="-106.456572">
			<ele>2077.61</ele>
			<time>2015-03-08T19:29:56Z</time>
			<fix>3d</fix>
		</trkpt>
		<trkpt lat="35.165114" lon="-106.456591">
			<ele>2077.60</ele>
			<time>2015-03-08T19:29:57Z</time>
			<fix>3d</fix>
		</trkpt>
		<trkpt lat="35.165106" lon="-106.456607">
			<ele>2077.60</ele>
			<time>2015-03-08T19:29:58Z</time>
			<fix>3d</fix>
		</trkpt>
		<trkpt lat="35.165099" lon="-106.456623">
			<ele>2077.29</ele>
			<time>2015-03-08T19:29:59Z</time>
			<fix>3d</fix>
		</trkpt>
		<trkpt lat="35.165093" lon="-106.456638">
			<ele>2076.98</ele>
			<time>2015-03-08T19:30:00Z</time>
			<fix>3d</fix>
		</trkpt>
		<trkpt lat="35.165087" lon="-106.456654">
			<ele>2077.08</ele>
			<time>2015-03-08T19:30:01Z</time>
			<fix>3d</fix>
		</trkpt>
		<trkpt lat="35.165083" lon="-106.456672">
			<ele>2077.07</ele>
			<time>2015-03-08T19:30:02Z</time>
			<fix>3d</fix>
		</trkpt>
		<trkpt lat="35.165078" lon="-106.456690">
			<ele>2076.97</ele>
			<time>2015-03-08T19:30:03Z</time>
			<fix>3d</fix>
		</trkpt>
		<trkpt lat="35.165075" lon="-106.456700">
			<ele>2076.86</ele>
			<time>2015-03-08T19:30:04Z</time>
			<fix>3d</fix>
		</trkpt>
		<trkpt lat="35.165072" lon="-106.456722">
			<ele>2076.75</ele>
			<time>2015-03-08T19:30:05Z</time>
			<fix>3d</fix>
		</trkpt>
		<trkpt lat="35.165069" lon="-106.456731">
			<ele>2076.75</ele>
			<time>2015-03-08T19:30:06Z</time>
			<fix>3d</fix>
		</trkpt>
		<trkpt lat="35.165063" lon="-106.456751">
			<ele>2076.74</ele>
			<time>2015-03-08T19:30:07Z</time>
			<fix>3d</fix>
		</trkpt>
		<trkpt lat="35.165057" lon="-106.456755">
			<ele>2076.26</ele>
			<time>2015-03-08T19:30:08Z</time>
			<fix>3d</fix>
		</trkpt>
		<trkpt lat="35.165051" lon="-106.456759">
			<ele>2076.25</ele>
			<time>2015-03-08T19:30:10Z</time>
			<fix>3d</fix>
		</trkpt>
		<trkpt lat="35.165047" lon="-106.456761">
			<ele>2076.24</ele>
			<time>2015-03-08T19:30:11Z</time>
			<fix>3d</fix>
		</trkpt>
		<trkpt lat="35.165040" lon="-106.456764">
			<ele>2076.23</ele>
			<time>2015-03-08T19:30:13Z</time>
			<fix>3d</fix>
		</trkpt>
		<trkpt lat="35.165033" lon="-106.456785">
			<ele>2076.12</ele>
			<time>2015-03-08T19:30:14Z</time>
			<fix>3d</fix>
		</trkpt>
		<trkpt lat="35.165033" lon="-106.456792">
			<ele>2076.12</ele>
			<time>2015-03-08T19:30:15Z</time>
			<fix>3d</fix>
		</trkpt>
		<trkpt lat="35.165034" lon="-106.456811">
			<ele>2075.91</ele>
			<time>2015-03-08T19:30:16Z</time>
			<fix>3d</fix>
		</trkpt>
		<trkpt lat="35.165031" lon="-106.456825">
			<ele>2075.50</ele>
			<time>2015-03-08T19:30:17Z</time>
			<fix>3d</fix>
		</trkpt>
		<trkpt lat="35.165027" lon="-106.456839">
			<ele>2075.49</ele>
			<time>2015-03-08T19:30:18Z</time>
			<fix>3d</fix>
		</trkpt>
		<trkpt lat="35.165020" lon="-106.456861">
			<ele>2075.48</ele>
			<time>2015-03-08T19:30:19Z</time>
			<fix>3d</fix>
		</trkpt>
		<trkpt lat="35.165012" lon="-106.456867">
			<ele>2075.48</ele>
			<time>2015-03-08T19:30:20Z</time>
			<fix>3d</fix>
		</trkpt>
		<trkpt lat="35.164999" lon="-106.456884">
			<ele>2075.37</ele>
			<time>2015-03-08T19:30:21Z</time>
			<fix>3d</fix>
		</trkpt>
		<trkpt lat="35.164991" lon="-106.456900">
			<ele>2075.26</ele>
			<time>2015-03-08T19:30:22Z</time>
			<fix>3d</fix>
		</trkpt>
		<trkpt lat="35.164985" lon="-106.456914">
			<ele>2075.25</ele>
			<time>2015-03-08T19:30:23Z</time>
			<fix>3d</fix>
		</trkpt>
		<trkpt lat="35.164981" lon="-106.456922">
			<ele>2075.25</ele>
			<time>2015-03-08T19:30:24Z</time>
			<fix>3d</fix>
		</trkpt>
		<trkpt lat="35.164978" lon="-106.456935">
			<ele>2075.24</ele>
			<time>2015-03-08T19:30:25Z</time>
			<fix>3d</fix>
		</trkpt>
		<trkpt lat="35.164977" lon="-106.456951">
			<ele>2075.13</ele>
			<time>2015-03-08T19:30:26Z</time>
			<fix>3d</fix>
		</trkpt>
		<trkpt lat="35.164976" lon="-106.456968">
			<ele>2075.13</ele>
			<time>2015-03-08T19:30:27Z</time>
			<fix>3d</fix>
		</trkpt>
		<trkpt lat="35.164974" lon="-106.456994">
			<ele>2075.02</ele>
			<time>2015-03-08T19:30:28Z</time>
			<fix>3d</fix>
		</trkpt>
		<trkpt lat="35.164973" lon="-106.457009">
			<ele>2075.01</ele>
			<time>2015-03-08T19:30:29Z</time>
			<fix>3d</fix>
		</trkpt>
		<trkpt lat="35.164973" lon="-106.457018">
			<ele>2074.90</ele>
			<time>2015-03-08T19:30:30Z</time>
			<fix>3d</fix>
		</trkpt>
		<trkpt lat="35.164973" lon="-106.457032">
			<ele>2074.89</ele>
			<time>2015-03-08T19:30:31Z</time>
			<fix>3d</fix>
		</trkpt>
		<trkpt lat="35.164973" lon="-106.457057">
			<ele>2074.27</ele>
			<time>2015-03-08T19:30:32Z</time>
			<fix>3d</fix>
		</trkpt>
		<trkpt lat="35.164972" lon="-106.457064">
			<ele>2073.85</ele>
			<time>2015-03-08T19:30:34Z</time>
			<fix>3d</fix>
		</trkpt>
		<trkpt lat="35.164969" lon="-106.457077">
			<ele>2073.84</ele>
			<time>2015-03-08T19:30:35Z</time>
			<fix>3d</fix>
		</trkpt>
		<trkpt lat="35.164967" lon="-106.457082">
			<ele>2073.73</ele>
			<time>2015-03-08T19:30:36Z</time>
			<fix>3d</fix>
		</trkpt>
		<trkpt lat="35.164963" lon="-106.457098">
			<ele>2073.72</ele>
			<time>2015-03-08T19:30:37Z</time>
			<fix>3d</fix>
		</trkpt>
		<trkpt lat="35.164960" lon="-106.457112">
			<ele>2073.61</ele>
			<time>2015-03-08T19:30:38Z</time>
			<fix>3d</fix>
		</trkpt>
		<trkpt lat="35.164959" lon="-106.457118">
			<ele>2073.60</ele>
			<time>2015-03-08T19:30:39Z</time>
			<fix>3d</fix>
		</trkpt>
		<trkpt lat="35.164958" lon="-106.457135">
			<ele>2073.59</ele>
			<time>2015-03-08T19:30:40Z</time>
			<fix>3d</fix>
		</trkpt>
		<trkpt lat="35.164963" lon="-106.457163">
			<ele>2073.58</ele>
			<time>2015-03-08T19:30:41Z</time>
			<fix>3d</fix>
		</trkpt>
		<trkpt lat="35.164963" lon="-106.457167">
			<ele>2073.47</ele>
			<time>2015-03-08T19:30:42Z</time>
			<fix>3d</fix>
		</trkpt>
		<trkpt lat="35.164958" lon="-106.457190">
			<ele>2073.25</ele>
			<time>2015-03-08T19:30:43Z</time>
			<fix>3d</fix>
		</trkpt>
		<trkpt lat="35.164952" lon="-106.457202">
			<ele>2073.24</ele>
			<time>2015-03-08T19:30:44Z</time>
			<fix>3d</fix>
		</trkpt>
		<trkpt lat="35.164943" lon="-106.457214">
			<ele>2073.13</ele>
			<time>2015-03-08T19:30:45Z</time>
			<fix>3d</fix>
		</trkpt>
		<trkpt lat="35.164933" lon="-106.457228">
			<ele>2073.12</ele>
			<time>2015-03-08T19:30:46Z</time>
			<fix>3d</fix>
		</trkpt>
		<trkpt lat="35.164924" lon="-106.457238">
			<ele>2072.90</ele>
			<time>2015-03-08T19:30:47Z</time>
			<fix>3d</fix>
		</trkpt>
		<trkpt lat="35.164920" lon="-106.457247">
			<ele>2072.39</ele>
			<time>2015-03-08T19:30:48Z</time>
			<fix>3d</fix>
		</trkpt>
		<trkpt lat="35.164916" lon="-106.457269">
			<ele>2072.17</ele>
			<time>2015-03-08T19:30:49Z</time>
			<fix>3d</fix>
		</trkpt>
		<trkpt lat="35.164914" lon="-106.457287">
			<ele>2071.86</ele>
			<time>2015-03-08T19:30:50Z</time>
			<fix>3d</fix>
		</trkpt>
		<trkpt lat="35.164911" lon="-106.457305">
			<ele>2071.54</ele>
			<time>2015-03-08T19:30:51Z</time>
			<fix>3d</fix>
		</trkpt>
		<trkpt lat="35.164909" lon="-106.457320">
			<ele>2071.53</ele>
			<time>2015-03-08T19:30:52Z</time>
			<fix>3d</fix>
		</trkpt>
		<trkpt lat="35.164904" lon="-106.457327">
			<ele>2071.42</ele>
			<time>2015-03-08T19:30:53Z</time>
			<fix>3d</fix>
		</trkpt>
		<trkpt lat="35.164899" lon="-106.457339">
			<ele>2071.41</ele>
			<time>2015-03-08T19:30:54Z</time>
			<fix>3d</fix>
		</trkpt>
		<trkpt lat="35.164892" lon="-106.457359">
			<ele>2070.99</ele>
			<time>2015-03-08T19:30:55Z</time>
			<fix>3d</fix>
		</trkpt>
		<trkpt lat="35.164881" lon="-106.457371">
			<ele>2070.37</ele>
			<time>2015-03-08T19:30:56Z</time>
			<fix>3d</fix>
		</trkpt>
		<trkpt lat="35.164873" lon="-106.457378">
			<ele>2070.36</ele>
			<time>2015-03-08T19:30:57Z</time>
			<fix>3d</fix>
		</trkpt>
		<trkpt lat="35.164866" lon="-106.457390">
			<ele>2070.35</ele>
			<time>2015-03-08T19:30:58Z</time>
			<fix>3d</fix>
		</trkpt>
		<trkpt lat="35.164860" lon="-106.457412">
			<ele>2070.34</ele>
			<time>2015-03-08T19:30:59Z</time>
			<fix>3d</fix>
		</trkpt>
		<trkpt lat="35.164857" lon="-106.457429">
			<ele>2070.03</ele>
			<time>2015-03-08T19:31:00Z</time>
			<fix>3d</fix>
		</trkpt>
		<trkpt lat="35.164854" lon="-106.457446">
			<ele>2069.41</ele>
			<time>2015-03-08T19:31:01Z</time>
			<fix>3d</fix>
		</trkpt>
		<trkpt lat="35.164852" lon="-106.457463">
			<ele>2069.40</ele>
			<time>2015-03-08T19:31:02Z</time>
			<fix>3d</fix>
		</trkpt>
		<trkpt lat="35.164851" lon="-106.457472">
			<ele>2069.39</ele>
			<time>2015-03-08T19:31:03Z</time>
			<fix>3d</fix>
		</trkpt>
		<trkpt lat="35.164851" lon="-106.457495">
			<ele>2069.38</ele>
			<time>2015-03-08T19:31:04Z</time>
			<fix>3d</fix>
		</trkpt>
		<trkpt lat="35.164849" lon="-106.457515">
			<ele>2069.26</ele>
			<time>2015-03-08T19:31:05Z</time>
			<fix>3d</fix>
		</trkpt>
		<trkpt lat="35.164846" lon="-106.457534">
			<ele>2069.25</ele>
			<time>2015-03-08T19:31:06Z</time>
			<fix>3d</fix>
		</trkpt>
		<trkpt lat="35.164844" lon="-106.457544">
			<ele>2069.14</ele>
			<time>2015-03-08T19:31:07Z</time>
			<fix>3d</fix>
		</trkpt>
		<trkpt lat="35.164841" lon="-106.457556">
			<ele>2068.85</ele>
			<time>2015-03-08T19:31:08Z</time>
			<fix>3d</fix>
		</trkpt>
		<trkpt lat="35.164837" lon="-106.457570">
			<ele>2068.74</ele>
			<time>2015-03-08T19:31:09Z</time>
			<fix>3d</fix>
		</trkpt>
		<trkpt lat="35.164833" lon="-106.457594">
			<ele>2068.32</ele>
			<time>2015-03-08T19:31:10Z</time>
			<fix>3d</fix>
		</trkpt>
		<trkpt lat="35.164828" lon="-106.457611">
			<ele>2067.91</ele>
			<time>2015-03-08T19:31:11Z</time>
			<fix>3d</fix>
		</trkpt>
		<trkpt lat="35.164821" lon="-106.457627">
			<ele>2067.69</ele>
			<time>2015-03-08T19:31:12Z</time>
			<fix>3d</fix>
		</trkpt>
		<trkpt lat="35.164816" lon="-106.457644">
			<ele>2067.68</ele>
			<time>2015-03-08T19:31:13Z</time>
			<fix>3d</fix>
		</trkpt>
		<trkpt lat="35.164811" lon="-106.457658">
			<ele>2067.67</ele>
			<time>2015-03-08T19:31:14Z</time>
			<fix>3d</fix>
		</trkpt>
		<trkpt lat="35.164804" lon="-106.457664">
			<ele>2067.56</ele>
			<time>2015-03-08T19:31:15Z</time>
			<fix>3d</fix>
		</trkpt>
		<trkpt lat="35.164794" lon="-106.457682">
			<ele>2067.24</ele>
			<time>2015-03-08T19:31:16Z</time>
			<fix>3d</fix>
		</trkpt>
		<trkpt lat="35.164788" lon="-106.457690">
			<ele>2066.92</ele>
			<time>2015-03-08T19:31:17Z</time>
			<fix>3d</fix>
		</trkpt>
		<trkpt lat="35.164781" lon="-106.457711">
			<ele>2066.81</ele>
			<time>2015-03-08T19:31:18Z</time>
			<fix>3d</fix>
		</trkpt>
		<trkpt lat="35.164776" lon="-106.457726">
			<ele>2066.80</ele>
			<time>2015-03-08T19:31:19Z</time>
			<fix>3d</fix>
		</trkpt>
		<trkpt lat="35.164773" lon="-106.457734">
			<ele>2066.79</ele>
			<time>2015-03-08T19:31:20Z</time>
			<fix>3d</fix>
		</trkpt>
		<trkpt lat="35.164768" lon="-106.457747">
			<ele>2066.78</ele>
			<time>2015-03-08T19:31:21Z</time>
			<fix>3d</fix>
		</trkpt>
		<trkpt lat="35.164763" lon="-106.457760">
			<ele>2066.77</ele>
			<time>2015-03-08T19:31:22Z</time>
			<fix>3d</fix>
		</trkpt>
		<trkpt lat="35.164758" lon="-106.457774">
			<ele>2066.75</ele>
			<time>2015-03-08T19:31:23Z</time>
			<fix>3d</fix>
		</trkpt>
		<trkpt lat="35.164756" lon="-106.457800">
			<ele>2066.74</ele>
			<time>2015-03-08T19:31:24Z</time>
			<fix>3d</fix>
		</trkpt>
		<trkpt lat="35.164754" lon="-106.457809">
			<ele>2066.73</ele>
			<time>2015-03-08T19:31:25Z</time>
			<fix>3d</fix>
		</trkpt>
		<trkpt lat="35.164752" lon="-106.457821">
			<ele>2066.72</ele>
			<time>2015-03-08T19:31:26Z</time>
			<fix>3d</fix>
		</trkpt>
		<trkpt lat="35.164750" lon="-106.457826">
			<ele>2066.71</ele>
			<time>2015-03-08T19:31:27Z</time>
			<fix>3d</fix>
		</trkpt>
		<trkpt lat="35.164744" lon="-106.457851">
			<ele>2066.70</ele>
			<time>2015-03-08T19:31:28Z</time>
			<fix>3d</fix>
		</trkpt>
		<trkpt lat="35.164739" lon="-106.457858">
			<ele>2066.69</ele>
			<time>2015-03-08T19:31:29Z</time>
			<fix>3d</fix>
		</trkpt>
		<trkpt lat="35.164730" lon="-106.457877">
			<ele>2066.68</ele>
			<time>2015-03-08T19:31:30Z</time>
			<fix>3d</fix>
		</trkpt>
		<trkpt lat="35.164721" lon="-106.457889">
			<ele>2066.56</ele>
			<time>2015-03-08T19:31:31Z</time>
			<fix>3d</fix>
		</trkpt>
		<trkpt lat="35.164715" lon="-106.457896">
			<ele>2066.45</ele>
			<time>2015-03-08T19:31:32Z</time>
			<fix>3d</fix>
		</trkpt>
		<trkpt lat="35.164705" lon="-106.457913">
			<ele>2066.24</ele>
			<time>2015-03-08T19:31:33Z</time>
			<fix>3d</fix>
		</trkpt>
		<trkpt lat="35.164701" lon="-106.457927">
			<ele>2066.02</ele>
			<time>2015-03-08T19:31:34Z</time>
			<fix>3d</fix>
		</trkpt>
		<trkpt lat="35.164700" lon="-106.457937">
			<ele>2066.01</ele>
			<time>2015-03-08T19:31:35Z</time>
			<fix>3d</fix>
		</trkpt>
		<trkpt lat="35.164704" lon="-106.457961">
			<ele>2065.90</ele>
			<time>2015-03-08T19:31:36Z</time>
			<fix>3d</fix>
		</trkpt>
		<trkpt lat="35.164709" lon="-106.457980">
			<ele>2065.79</ele>
			<time>2015-03-08T19:31:37Z</time>
			<fix>3d</fix>
		</trkpt>
		<trkpt lat="35.164715" lon="-106.457995">
			<ele>2065.78</ele>
			<time>2015-03-08T19:31:38Z</time>
			<fix>3d</fix>
		</trkpt>
		<trkpt lat="35.164718" lon="-106.458006">
			<ele>2065.67</ele>
			<time>2015-03-08T19:31:39Z</time>
			<fix>3d</fix>
		</trkpt>
		<trkpt lat="35.164719" lon="-106.458011">
			<ele>2065.66</ele>
			<time>2015-03-08T19:31:40Z</time>
			<fix>3d</fix>
		</trkpt>
		<trkpt lat="35.164721" lon="-106.458018">
			<ele>2065.65</ele>
			<time>2015-03-08T19:31:41Z</time>
			<fix>3d</fix>
		</trkpt>
		<trkpt lat="35.164722" lon="-106.458026">
			<ele>2065.64</ele>
			<time>2015-03-08T19:31:42Z</time>
			<fix>3d</fix>
		</trkpt>
		<trkpt lat="35.164725" lon="-106.458049">
			<ele>2065.63</ele>
			<time>2015-03-08T19:31:43Z</time>
			<fix>3d</fix>
		</trkpt>
		<trkpt lat="35.164725" lon="-106.458081">
			<ele>2065.41</ele>
			<time>2015-03-08T19:31:44Z</time>
			<fix>3d</fix>
		</trkpt>
		<trkpt lat="35.164721" lon="-106.458096">
			<ele>2065.00</ele>
			<time>2015-03-08T19:31:45Z</time>
			<fix>3d</fix>
		</trkpt>
		<trkpt lat="35.164720" lon="-106.458108">
			<ele>2064.89</ele>
			<time>2015-03-08T19:31:46Z</time>
			<fix>3d</fix>
		</trkpt>
		<trkpt lat="35.164719" lon="-106.458123">
			<ele>2064.78</ele>
			<time>2015-03-08T19:31:47Z</time>
			<fix>3d</fix>
		</trkpt>
		<trkpt lat="35.164720" lon="-106.458138">
			<ele>2064.77</ele>
			<time>2015-03-08T19:31:48Z</time>
			<fix>3d</fix>
		</trkpt>
		<trkpt lat="35.164722" lon="-106.458163">
			<ele>2064.76</ele>
			<time>2015-03-08T19:31:49Z</time>
			<fix>3d</fix>
		</trkpt>
		<trkpt lat="35.164722" lon="-106.458179">
			<ele>2064.34</ele>
			<time>2015-03-08T19:31:50Z</time>
			<fix>3d</fix>
		</trkpt>
		<trkpt lat="35.164721" lon="-106.458191">
			<ele>2064.33</ele>
			<time>2015-03-08T19:31:51Z</time>
			<fix>3d</fix>
		</trkpt>
		<trkpt lat="35.164721" lon="-106.458210">
			<ele>2064.22</ele>
			<time>2015-03-08T19:31:52Z</time>
			<fix>3d</fix>
		</trkpt>
		<trkpt lat="35.164719" lon="-106.458216">
			<ele>2064.21</ele>
			<time>2015-03-08T19:31:53Z</time>
			<fix>3d</fix>
		</trkpt>
		<trkpt lat="35.164717" lon="-106.458229">
			<ele>2064.20</ele>
			<time>2015-03-08T19:31:54Z</time>
			<fix>3d</fix>
		</trkpt>
		<trkpt lat="35.164714" lon="-106.458243">
			<ele>2064.18</ele>
			<time>2015-03-08T19:31:55Z</time>
			<fix>3d</fix>
		</trkpt>
		<trkpt lat="35.164709" lon="-106.458265">
			<ele>2064.07</ele>
			<time>2015-03-08T19:31:56Z</time>
			<fix>3d</fix>
		</trkpt>
		<trkpt lat="35.164704" lon="-106.458281">
			<ele>2063.96</ele>
			<time>2015-03-08T19:31:57Z</time>
			<fix>3d</fix>
		</trkpt>
		<trkpt lat="35.164699" lon="-106.458297">
			<ele>2063.95</ele>
			<time>2015-03-08T19:31:58Z</time>
			<fix>3d</fix>
		</trkpt>
		<trkpt lat="35.164696" lon="-106.458313">
			<ele>2063.83</ele>
			<time>2015-03-08T19:31:59Z</time>
			<fix>3d</fix>
		</trkpt>
		<trkpt lat="35.164691" lon="-106.458328">
			<ele>2063.62</ele>
			<time>2015-03-08T19:32:00Z</time>
			<fix>3d</fix>
		</trkpt>
		<trkpt lat="35.164687" lon="-106.458342">
			<ele>2063.61</ele>
			<time>2015-03-08T19:32:01Z</time>
			<fix>3d</fix>
		</trkpt>
		<trkpt lat="35.164686" lon="-106.458351">
			<ele>2063.49</ele>
			<time>2015-03-08T19:32:02Z</time>
			<fix>3d</fix>
		</trkpt>
		<trkpt lat="35.164685" lon="-106.458374">
			<ele>2063.28</ele>
			<time>2015-03-08T19:32:03Z</time>
			<fix>3d</fix>
		</trkpt>
		<trkpt lat="35.164684" lon="-106.458383">
			<ele>2063.16</ele>
			<time>2015-03-08T19:32:04Z</time>
			<fix>3d</fix>
		</trkpt>
		<trkpt lat="35.164683" lon="-106.458396">
			<ele>2063.15</ele>
			<time>2015-03-08T19:32:05Z</time>
			<fix>3d</fix>
		</trkpt>
		<trkpt lat="35.164682" lon="-106.458410">
			<ele>2063.04</ele>
			<time>2015-03-08T19:32:06Z</time>
			<fix>3d</fix>
		</trkpt>
		<trkpt lat="35.164680" lon="-106.458425">
			<ele>2062.72</ele>
			<time>2015-03-08T19:32:07Z</time>
			<fix>3d</fix>
		</trkpt>
		<trkpt lat="35.164677" lon="-106.458452">
			<ele>2062.47</ele>
			<time>2015-03-08T19:32:08Z</time>
			<fix>3d</fix>
		</trkpt>
		<trkpt lat="35.164673" lon="-106.458470">
			<ele>2061.95</ele>
			<time>2015-03-08T19:32:09Z</time>
			<fix>3d</fix>
		</trkpt>
		<trkpt lat="35.164668" lon="-106.458487">
			<ele>2061.84</ele>
			<time>2015-03-08T19:32:10Z</time>
			<fix>3d</fix>
		</trkpt>
		<trkpt lat="35.164664" lon="-106.458505">
			<ele>2061.73</ele>
			<time>2015-03-08T19:32:11Z</time>
			<fix>3d</fix>
		</trkpt>
		<trkpt lat="35.164660" lon="-106.458513">
			<ele>2061.41</ele>
			<time>2015-03-08T19:32:12Z</time>
			<fix>3d</fix>
		</trkpt>
		<trkpt lat="35.164658" lon="-106.458535">
			<ele>2061.20</ele>
			<time>2015-03-08T19:32:13Z</time>
			<fix>3d</fix>
		</trkpt>
		<trkpt lat="35.164658" lon="-106.458543">
			<ele>2060.88</ele>
			<time>2015-03-08T19:32:14Z</time>
			<fix>3d</fix>
		</trkpt>
		<trkpt lat="35.164658" lon="-106.458557">
			<ele>2060.77</ele>
			<time>2015-03-08T19:32:15Z</time>
			<fix>3d</fix>
		</trkpt>
		<trkpt lat="35.164660" lon="-106.458583">
			<ele>2060.75</ele>
			<time>2015-03-08T19:32:16Z</time>
			<fix>3d</fix>
		</trkpt>
		<trkpt lat="35.164660" lon="-106.458592">
			<ele>2060.74</ele>
			<time>2015-03-08T19:32:17Z</time>
			<fix>3d</fix>
		</trkpt>
		<trkpt lat="35.164658" lon="-106.458613">
			<ele>2060.73</ele>
			<time>2015-03-08T19:32:18Z</time>
			<fix>3d</fix>
		</trkpt>
		<trkpt lat="35.164656" lon="-106.458615">
			<ele>2060.30</ele>
			<time>2015-03-08T19:32:20Z</time>
			<fix>3d</fix>
		</trkpt>
		<trkpt lat="35.164658" lon="-106.458641">
			<ele>2060.08</ele>
			<time>2015-03-08T19:32:21Z</time>
			<fix>3d</fix>
		</trkpt>
		<trkpt lat="35.164663" lon="-106.458647">
			<ele>2059.83</ele>
			<time>2015-03-08T19:32:25Z</time>
			<fix>3d</fix>
		</trkpt>
		<trkpt lat="35.164663" lon="-106.458660">
			<ele>2059.82</ele>
			<time>2015-03-08T19:32:26Z</time>
			<fix>3d</fix>
		</trkpt>
		<trkpt lat="35.164655" lon="-106.458678">
			<ele>2059.70</ele>
			<time>2015-03-08T19:32:27Z</time>
			<fix>3d</fix>
		</trkpt>
		<trkpt lat="35.164648" lon="-106.458683">
			<ele>2059.69</ele>
			<time>2015-03-08T19:32:28Z</time>
			<fix>3d</fix>
		</trkpt>
		<trkpt lat="35.164637" lon="-106.458698">
			<ele>2059.58</ele>
			<time>2015-03-08T19:32:29Z</time>
			<fix>3d</fix>
		</trkpt>
		<trkpt lat="35.164624" lon="-106.458706">
			<ele>2059.57</ele>
			<time>2015-03-08T19:32:30Z</time>
			<fix>3d</fix>
		</trkpt>
		<trkpt lat="35.164611" lon="-106.458716">
			<ele>2059.55</ele>
			<time>2015-03-08T19:32:31Z</time>
			<fix>3d</fix>
		</trkpt>
		<trkpt lat="35.164598" lon="-106.458726">
			<ele>2059.54</ele>
			<time>2015-03-08T19:32:32Z</time>
			<fix>3d</fix>
		</trkpt>
		<trkpt lat="35.164590" lon="-106.458731">
			<ele>2059.43</ele>
			<time>2015-03-08T19:32:33Z</time>
			<fix>3d</fix>
		</trkpt>
		<trkpt lat="35.164581" lon="-106.458749">
			<ele>2059.31</ele>
			<time>2015-03-08T19:32:34Z</time>
			<fix>3d</fix>
		</trkpt>
		<trkpt lat="35.164577" lon="-106.458757">
			<ele>2059.40</ele>
			<time>2015-03-08T19:32:35Z</time>
			<fix>3d</fix>
		</trkpt>
		<trkpt lat="35.164571" lon="-106.458776">
			<ele>2059.29</ele>
			<time>2015-03-08T19:32:36Z</time>
			<fix>3d</fix>
		</trkpt>
		<trkpt lat="35.164565" lon="-106.458789">
			<ele>2058.87</ele>
			<time>2015-03-08T19:32:37Z</time>
			<fix>3d</fix>
		</trkpt>
		<trkpt lat="35.164560" lon="-106.458798">
			<ele>2058.55</ele>
			<time>2015-03-08T19:32:38Z</time>
			<fix>3d</fix>
		</trkpt>
		<trkpt lat="35.164557" lon="-106.458810">
			<ele>2058.44</ele>
			<time>2015-03-08T19:32:39Z</time>
			<fix>3d</fix>
		</trkpt>
		<trkpt lat="35.164555" lon="-106.458822">
			<ele>2058.43</ele>
			<time>2015-03-08T19:32:40Z</time>
			<fix>3d</fix>
		</trkpt>
		<trkpt lat="35.164550" lon="-106.458834">
			<ele>2058.42</ele>
			<time>2015-03-08T19:32:41Z</time>
			<fix>3d</fix>
		</trkpt>
		<trkpt lat="35.164546" lon="-106.458847">
			<ele>2058.40</ele>
			<time>2015-03-08T19:32:42Z</time>
			<fix>3d</fix>
		</trkpt>
		<trkpt lat="35.164544" lon="-106.458857">
			<ele>2058.28</ele>
			<time>2015-03-08T19:32:44Z</time>
			<fix>3d</fix>
		</trkpt>
		<trkpt lat="35.164539" lon="-106.458865">
			<ele>2058.15</ele>
			<time>2015-03-08T19:32:46Z</time>
			<fix>3d</fix>
		</trkpt>
		<trkpt lat="35.164531" lon="-106.458884">
			<ele>2058.14</ele>
			<time>2015-03-08T19:32:47Z</time>
			<fix>3d</fix>
		</trkpt>
		<trkpt lat="35.164524" lon="-106.458908">
			<ele>2058.13</ele>
			<time>2015-03-08T19:32:48Z</time>
			<fix>3d</fix>
		</trkpt>
		<trkpt lat="35.164523" lon="-106.458926">
			<ele>2058.01</ele>
			<time>2015-03-08T19:32:49Z</time>
			<fix>3d</fix>
		</trkpt>
		<trkpt lat="35.164524" lon="-106.458943">
			<ele>2058.00</ele>
			<time>2015-03-08T19:32:50Z</time>
			<fix>3d</fix>
		</trkpt>
		<trkpt lat="35.164525" lon="-106.458960">
			<ele>2057.78</ele>
			<time>2015-03-08T19:32:51Z</time>
			<fix>3d</fix>
		</trkpt>
		<trkpt lat="35.164525" lon="-106.458969">
			<ele>2057.67</ele>
			<time>2015-03-08T19:32:52Z</time>
			<fix>3d</fix>
		</trkpt>
		<trkpt lat="35.164527" lon="-106.458983">
			<ele>2057.45</ele>
			<time>2015-03-08T19:32:53Z</time>
			<fix>3d</fix>
		</trkpt>
		<trkpt lat="35.164532" lon="-106.459008">
			<ele>2057.14</ele>
			<time>2015-03-08T19:32:54Z</time>
			<fix>3d</fix>
		</trkpt>
		<trkpt lat="35.164531" lon="-106.459017">
			<ele>2057.02</ele>
			<time>2015-03-08T19:32:55Z</time>
			<fix>3d</fix>
		</trkpt>
		<trkpt lat="35.164532" lon="-106.459039">
			<ele>2056.91</ele>
			<time>2015-03-08T19:32:56Z</time>
			<fix>3d</fix>
		</trkpt>
		<trkpt lat="35.164528" lon="-106.459054">
			<ele>2056.69</ele>
			<time>2015-03-08T19:32:57Z</time>
			<fix>3d</fix>
		</trkpt>
		<trkpt lat="35.164523" lon="-106.459073">
			<ele>2055.97</ele>
			<time>2015-03-08T19:32:58Z</time>
			<fix>3d</fix>
		</trkpt>
		<trkpt lat="35.164518" lon="-106.459091">
			<ele>2055.75</ele>
			<time>2015-03-08T19:32:59Z</time>
			<fix>3d</fix>
		</trkpt>
		<trkpt lat="35.164515" lon="-106.459106">
			<ele>2055.64</ele>
			<time>2015-03-08T19:33:00Z</time>
			<fix>3d</fix>
		</trkpt>
		<trkpt lat="35.164510" lon="-106.459118">
			<ele>2055.63</ele>
			<time>2015-03-08T19:33:01Z</time>
			<fix>3d</fix>
		</trkpt>
		<trkpt lat="35.164508" lon="-106.459135">
			<ele>2055.72</ele>
			<time>2015-03-08T19:33:02Z</time>
			<fix>3d</fix>
		</trkpt>
		<trkpt lat="35.164505" lon="-106.459143">
			<ele>2055.70</ele>
			<time>2015-03-08T19:33:03Z</time>
			<fix>3d</fix>
		</trkpt>
		<trkpt lat="35.164502" lon="-106.459163">
			<ele>2055.59</ele>
			<time>2015-03-08T19:33:04Z</time>
			<fix>3d</fix>
		</trkpt>
		<trkpt lat="35.164499" lon="-106.459179">
			<ele>2055.68</ele>
			<time>2015-03-08T19:33:05Z</time>
			<fix>3d</fix>
		</trkpt>
		<trkpt lat="35.164497" lon="-106.459195">
			<ele>2055.66</ele>
			<time>2015-03-08T19:33:06Z</time>
			<fix>3d</fix>
		</trkpt>
		<trkpt lat="35.164498" lon="-106.459211">
			<ele>2055.55</ele>
			<time>2015-03-08T19:33:07Z</time>
			<fix>3d</fix>
		</trkpt>
		<trkpt lat="35.164497" lon="-106.459219">
			<ele>2055.16</ele>
			<time>2015-03-08T19:33:08Z</time>
			<fix>3d</fix>
		</trkpt>
		<trkpt lat="35.164497" lon="-106.459241">
			<ele>2054.75</ele>
			<time>2015-03-08T19:33:09Z</time>
			<fix>3d</fix>
		</trkpt>
		<trkpt lat="35.164496" lon="-106.459260">
			<ele>2054.53</ele>
			<time>2015-03-08T19:33:10Z</time>
			<fix>3d</fix>
		</trkpt>
		<trkpt lat="35.164493" lon="-106.459269">
			<ele>2054.51</ele>
			<time>2015-03-08T19:33:11Z</time>
			<fix>3d</fix>
		</trkpt>
		<trkpt lat="35.164488" lon="-106.459290">
			<ele>2054.50</ele>
			<time>2015-03-08T19:33:12Z</time>
			<fix>3d</fix>
		</trkpt>
		<trkpt lat="35.164479" lon="-106.459304">
			<ele>2054.49</ele>
			<time>2015-03-08T19:33:13Z</time>
			<fix>3d</fix>
		</trkpt>
		<trkpt lat="35.164471" lon="-106.459313">
			<ele>2054.37</ele>
			<time>2015-03-08T19:33:14Z</time>
			<fix>3d</fix>
		</trkpt>
		<trkpt lat="35.164461" lon="-106.459333">
			<ele>2054.26</ele>
			<time>2015-03-08T19:33:15Z</time>
			<fix>3d</fix>
		</trkpt>
		<trkpt lat="35.164451" lon="-106.459347">
			<ele>2054.14</ele>
			<time>2015-03-08T19:33:16Z</time>
			<fix>3d</fix>
		</trkpt>
		<trkpt lat="35.164444" lon="-106.459352">
			<ele>2053.92</ele>
			<time>2015-03-08T19:33:17Z</time>
			<fix>3d</fix>
		</trkpt>
		<trkpt lat="35.164436" lon="-106.459360">
			<ele>2053.51</ele>
			<time>2015-03-08T19:33:18Z</time>
			<fix>3d</fix>
		</trkpt>
		<trkpt lat="35.164427" lon="-106.459370">
			<ele>2053.49</ele>
			<time>2015-03-08T19:33:19Z</time>
			<fix>3d</fix>
		</trkpt>
		<trkpt lat="35.164418" lon="-106.459380">
			<ele>2053.48</ele>
			<time>2015-03-08T19:33:20Z</time>
			<fix>3d</fix>
		</trkpt>
		<trkpt lat="35.164408" lon="-106.459401">
			<ele>2053.16</ele>
			<time>2015-03-08T19:33:21Z</time>
			<fix>3d</fix>
		</trkpt>
		<trkpt lat="35.164402" lon="-106.459418">
			<ele>2053.05</ele>
			<time>2015-03-08T19:33:22Z</time>
			<fix>3d</fix>
		</trkpt>
		<trkpt lat="35.164393" lon="-106.459432">
			<ele>2053.04</ele>
			<time>2015-03-08T19:33:23Z</time>
			<fix>3d</fix>
		</trkpt>
		<trkpt lat="35.164386" lon="-106.459440">
			<ele>2053.03</ele>
			<time>2015-03-08T19:33:24Z</time>
			<fix>3d</fix>
		</trkpt>
		<trkpt lat="35.164377" lon="-106.459452">
			<ele>2052.91</ele>
			<time>2015-03-08T19:33:25Z</time>
			<fix>3d</fix>
		</trkpt>
		<trkpt lat="35.164367" lon="-106.459474">
			<ele>2052.80</ele>
			<time>2015-03-08T19:33:26Z</time>
			<fix>3d</fix>
		</trkpt>
		<trkpt lat="35.164362" lon="-106.459481">
			<ele>2052.69</ele>
			<time>2015-03-08T19:33:27Z</time>
			<fix>3d</fix>
		</trkpt>
		<trkpt lat="35.164356" lon="-106.459491">
			<ele>2052.47</ele>
			<time>2015-03-08T19:33:28Z</time>
			<fix>3d</fix>
		</trkpt>
		<trkpt lat="35.164349" lon="-106.459503">
			<ele>2052.26</ele>
			<time>2015-03-08T19:33:29Z</time>
			<fix>3d</fix>
		</trkpt>
		<trkpt lat="35.164341" lon="-106.459515">
			<ele>2052.14</ele>
			<time>2015-03-08T19:33:30Z</time>
			<fix>3d</fix>
		</trkpt>
		<trkpt lat="35.164331" lon="-106.459537">
			<ele>2052.13</ele>
			<time>2015-03-08T19:33:31Z</time>
			<fix>3d</fix>
		</trkpt>
		<trkpt lat="35.164321" lon="-106.459550">
			<ele>2052.12</ele>
			<time>2015-03-08T19:33:32Z</time>
			<fix>3d</fix>
		</trkpt>
		<trkpt lat="35.164312" lon="-106.459563">
			<ele>2052.11</ele>
			<time>2015-03-08T19:33:33Z</time>
			<fix>3d</fix>
		</trkpt>
		<trkpt lat="35.164306" lon="-106.459570">
			<ele>2052.09</ele>
			<time>2015-03-08T19:33:34Z</time>
			<fix>3d</fix>
		</trkpt>
		<trkpt lat="35.164300" lon="-106.459582">
			<ele>2051.98</ele>
			<time>2015-03-08T19:33:35Z</time>
			<fix>3d</fix>
		</trkpt>
		<trkpt lat="35.164295" lon="-106.459596">
			<ele>2051.97</ele>
			<time>2015-03-08T19:33:36Z</time>
			<fix>3d</fix>
		</trkpt>
		<trkpt lat="35.164287" lon="-106.459620">
			<ele>2051.86</ele>
			<time>2015-03-08T19:33:37Z</time>
			<fix>3d</fix>
		</trkpt>
		<trkpt lat="35.164280" lon="-106.459634">
			<ele>2051.54</ele>
			<time>2015-03-08T19:33:38Z</time>
			<fix>3d</fix>
		</trkpt>
		<trkpt lat="35.164270" lon="-106.459644">
			<ele>2050.41</ele>
			<time>2015-03-08T19:33:39Z</time>
			<fix>3d</fix>
		</trkpt>
		<trkpt lat="35.164262" lon="-106.459648">
			<ele>2050.50</ele>
			<time>2015-03-08T19:33:40Z</time>
			<fix>3d</fix>
		</trkpt>
		<trkpt lat="35.164255" lon="-106.459658">
			<ele>2050.49</ele>
			<time>2015-03-08T19:33:41Z</time>
			<fix>3d</fix>
		</trkpt>
		<trkpt lat="35.164249" lon="-106.459671">
			<ele>2050.48</ele>
			<time>2015-03-08T19:33:42Z</time>
			<fix>3d</fix>
		</trkpt>
		<trkpt lat="35.164247" lon="-106.459694">
			<ele>2050.47</ele>
			<time>2015-03-08T19:33:43Z</time>
			<fix>3d</fix>
		</trkpt>
		<trkpt lat="35.164243" lon="-106.459707">
			<ele>2050.46</ele>
			<time>2015-03-08T19:33:44Z</time>
			<fix>3d</fix>
		</trkpt>
		<trkpt lat="35.164238" lon="-106.459721">
			<ele>2050.44</ele>
			<time>2015-03-08T19:33:45Z</time>
			<fix>3d</fix>
		</trkpt>
		<trkpt lat="35.164232" lon="-106.459728">
			<ele>2050.43</ele>
			<time>2015-03-08T19:33:46Z</time>
			<fix>3d</fix>
		</trkpt>
		<trkpt lat="35.164222" lon="-106.459746">
			<ele>2050.32</ele>
			<time>2015-03-08T19:33:47Z</time>
			<fix>3d</fix>
		</trkpt>
		<trkpt lat="35.164212" lon="-106.459761">
			<ele>2050.21</ele>
			<time>2015-03-08T19:33:48Z</time>
			<fix>3d</fix>
		</trkpt>
		<trkpt lat="35.164202" lon="-106.459770">
			<ele>2050.09</ele>
			<time>2015-03-08T19:33:49Z</time>
			<fix>3d</fix>
		</trkpt>
		<trkpt lat="35.164200" lon="-106.459773">
			<ele>2049.98</ele>
			<time>2015-03-08T19:33:50Z</time>
			<fix>3d</fix>
		</trkpt>
		<trkpt lat="35.164192" lon="-106.459783">
			<ele>2049.86</ele>
			<time>2015-03-08T19:33:51Z</time>
			<fix>3d</fix>
		</trkpt>
		<trkpt lat="35.164186" lon="-106.459795">
			<ele>2049.85</ele>
			<time>2015-03-08T19:33:52Z</time>
			<fix>3d</fix>
		</trkpt>
		<trkpt lat="35.164184" lon="-106.459801">
			<ele>2049.74</ele>
			<time>2015-03-08T19:33:53Z</time>
			<fix>3d</fix>
		</trkpt>
		<trkpt lat="35.164183" lon="-106.459808">
			<ele>2049.32</ele>
			<time>2015-03-08T19:33:54Z</time>
			<fix>3d</fix>
		</trkpt>
		<trkpt lat="35.164183" lon="-106.459839">
			<ele>2049.21</ele>
			<time>2015-03-08T19:33:55Z</time>
			<fix>3d</fix>
		</trkpt>
		<trkpt lat="35.164188" lon="-106.459856">
			<ele>2049.19</ele>
			<time>2015-03-08T19:33:56Z</time>
			<fix>3d</fix>
		</trkpt>
		<trkpt lat="35.164194" lon="-106.459872">
			<ele>2049.18</ele>
			<time>2015-03-08T19:33:57Z</time>
			<fix>3d</fix>
		</trkpt>
		<trkpt lat="35.164203" lon="-106.459889">
			<ele>2049.07</ele>
			<time>2015-03-08T19:33:58Z</time>
			<fix>3d</fix>
		</trkpt>
		<trkpt lat="35.164209" lon="-106.459897">
			<ele>2048.95</ele>
			<time>2015-03-08T19:33:59Z</time>
			<fix>3d</fix>
		</trkpt>
		<trkpt lat="35.164218" lon="-106.459916">
			<ele>2048.94</ele>
			<time>2015-03-08T19:34:00Z</time>
			<fix>3d</fix>
		</trkpt>
		<trkpt lat="35.164225" lon="-106.459930">
			<ele>2048.93</ele>
			<time>2015-03-08T19:34:01Z</time>
			<fix>3d</fix>
		</trkpt>
		<trkpt lat="35.164233" lon="-106.459946">
			<ele>2048.91</ele>
			<time>2015-03-08T19:34:02Z</time>
			<fix>3d</fix>
		</trkpt>
		<trkpt lat="35.164240" lon="-106.459961">
			<ele>2048.90</ele>
			<time>2015-03-08T19:34:03Z</time>
			<fix>3d</fix>
		</trkpt>
		<trkpt lat="35.164248" lon="-106.459976">
			<ele>2048.68</ele>
			<time>2015-03-08T19:34:04Z</time>
			<fix>3d</fix>
		</trkpt>
		<trkpt lat="35.164251" lon="-106.459991">
			<ele>2048.57</ele>
			<time>2015-03-08T19:34:05Z</time>
			<fix>3d</fix>
		</trkpt>
		<trkpt lat="35.164250" lon="-106.459998">
			<ele>2048.56</ele>
			<time>2015-03-08T19:34:06Z</time>
			<fix>3d</fix>
		</trkpt>
		<trkpt lat="35.164249" lon="-106.460018">
			<ele>2048.04</ele>
			<time>2015-03-08T19:34:07Z</time>
			<fix>3d</fix>
		</trkpt>
		<trkpt lat="35.164247" lon="-106.460035">
			<ele>2047.78</ele>
			<time>2015-03-08T19:34:08Z</time>
			<fix>3d</fix>
		</trkpt>
		<trkpt lat="35.164246" lon="-106.460052">
			<ele>2047.67</ele>
			<time>2015-03-08T19:34:09Z</time>
			<fix>3d</fix>
		</trkpt>
		<trkpt lat="35.164245" lon="-106.460062">
			<ele>2047.55</ele>
			<time>2015-03-08T19:34:10Z</time>
			<fix>3d</fix>
		</trkpt>
		<trkpt lat="35.164245" lon="-106.460076">
			<ele>2047.54</ele>
			<time>2015-03-08T19:34:11Z</time>
			<fix>3d</fix>
		</trkpt>
		<trkpt lat="35.164249" lon="-106.460094">
			<ele>2047.42</ele>
			<time>2015-03-08T19:34:12Z</time>
			<fix>3d</fix>
		</trkpt>
		<trkpt lat="35.164253" lon="-106.460109">
			<ele>2047.41</ele>
			<time>2015-03-08T19:34:13Z</time>
			<fix>3d</fix>
		</trkpt>
		<trkpt lat="35.164259" lon="-106.460133">
			<ele>2047.39</ele>
			<time>2015-03-08T19:34:14Z</time>
			<fix>3d</fix>
		</trkpt>
		<trkpt lat="35.164262" lon="-106.460142">
			<ele>2047.28</ele>
			<time>2015-03-08T19:34:15Z</time>
			<fix>3d</fix>
		</trkpt>
		<trkpt lat="35.164267" lon="-106.460164">
			<ele>2046.96</ele>
			<time>2015-03-08T19:34:16Z</time>
			<fix>3d</fix>
		</trkpt>
		<trkpt lat="35.164268" lon="-106.460173">
			<ele>2046.84</ele>
			<time>2015-03-08T19:34:17Z</time>
			<fix>3d</fix>
		</trkpt>
		<trkpt lat="35.164269" lon="-106.460194">
			<ele>2046.83</ele>
			<time>2015-03-08T19:34:18Z</time>
			<fix>3d</fix>
		</trkpt>
		<trkpt lat="35.164265" lon="-106.460208">
			<ele>2046.71</ele>
			<time>2015-03-08T19:34:19Z</time>
			<fix>3d</fix>
		</trkpt>
		<trkpt lat="35.164260" lon="-106.460222">
			<ele>2045.88</ele>
			<time>2015-03-08T19:34:20Z</time>
			<fix>3d</fix>
		</trkpt>
		<trkpt lat="35.164254" lon="-106.460238">
			<ele>2045.87</ele>
			<time>2015-03-08T19:34:21Z</time>
			<fix>3d</fix>
		</trkpt>
		<trkpt lat="35.164250" lon="-106.460254">
			<ele>2045.75</ele>
			<time>2015-03-08T19:34:22Z</time>
			<fix>3d</fix>
		</trkpt>
		<trkpt lat="35.164247" lon="-106.460268">
			<ele>2045.74</ele>
			<time>2015-03-08T19:34:23Z</time>
			<fix>3d</fix>
		</trkpt>
		<trkpt lat="35.164243" lon="-106.460275">
			<ele>2045.72</ele>
			<time>2015-03-08T19:34:24Z</time>
			<fix>3d</fix>
		</trkpt>
		<trkpt lat="35.164241" lon="-106.460285">
			<ele>2045.71</ele>
			<time>2015-03-08T19:34:25Z</time>
			<fix>3d</fix>
		</trkpt>
		<trkpt lat="35.164241" lon="-106.460306">
			<ele>2045.69</ele>
			<time>2015-03-08T19:34:26Z</time>
			<fix>3d</fix>
		</trkpt>
		<trkpt lat="35.164241" lon="-106.460322">
			<ele>2045.68</ele>
			<time>2015-03-08T19:34:27Z</time>
			<fix>3d</fix>
		</trkpt>
		<trkpt lat="35.164241" lon="-106.460330">
			<ele>2045.66</ele>
			<time>2015-03-08T19:34:28Z</time>
			<fix>3d</fix>
		</trkpt>
		<trkpt lat="35.164242" lon="-106.460344">
			<ele>2045.65</ele>
			<time>2015-03-08T19:34:29Z</time>
			<fix>3d</fix>
		</trkpt>
		<trkpt lat="35.164242" lon="-106.460369">
			<ele>2045.53</ele>
			<time>2015-03-08T19:34:30Z</time>
			<fix>3d</fix>
		</trkpt>
		<trkpt lat="35.164243" lon="-106.460383">
			<ele>2045.32</ele>
			<time>2015-03-08T19:34:31Z</time>
			<fix>3d</fix>
		</trkpt>
		<trkpt lat="35.164244" lon="-106.460390">
			<ele>2044.90</ele>
			<time>2015-03-08T19:34:32Z</time>
			<fix>3d</fix>
		</trkpt>
		<trkpt lat="35.164246" lon="-106.460403">
			<ele>2044.88</ele>
			<time>2015-03-08T19:34:33Z</time>
			<fix>3d</fix>
		</trkpt>
		<trkpt lat="35.164255" lon="-106.460429">
			<ele>2044.86</ele>
			<time>2015-03-08T19:34:34Z</time>
			<fix>3d</fix>
		</trkpt>
		<trkpt lat="35.164259" lon="-106.460447">
			<ele>2044.85</ele>
			<time>2015-03-08T19:34:35Z</time>
			<fix>3d</fix>
		</trkpt>
		<trkpt lat="35.164262" lon="-106.460465">
			<ele>2044.63</ele>
			<time>2015-03-08T19:34:36Z</time>
			<fix>3d</fix>
		</trkpt>
		<trkpt lat="35.164263" lon="-106.460474">
			<ele>2044.51</ele>
			<time>2015-03-08T19:34:37Z</time>
			<fix>3d</fix>
		</trkpt>
		<trkpt lat="35.164267" lon="-106.460496">
			<ele>2044.50</ele>
			<time>2015-03-08T19:34:38Z</time>
			<fix>3d</fix>
		</trkpt>
		<trkpt lat="35.164270" lon="-106.460513">
			<ele>2044.48</ele>
			<time>2015-03-08T19:34:39Z</time>
			<fix>3d</fix>
		</trkpt>
		<trkpt lat="35.164271" lon="-106.460529">
			<ele>2044.36</ele>
			<time>2015-03-08T19:34:40Z</time>
			<fix>3d</fix>
		</trkpt>
		<trkpt lat="35.164271" lon="-106.460545">
			<ele>2044.04</ele>
			<time>2015-03-08T19:34:41Z</time>
			<fix>3d</fix>
		</trkpt>
		<trkpt lat="35.164273" lon="-106.460564">
			<ele>2043.72</ele>
			<time>2015-03-08T19:34:42Z</time>
			<fix>3d</fix>
		</trkpt>
		<trkpt lat="35.164276" lon="-106.460580">
			<ele>2043.61</ele>
			<time>2015-03-08T19:34:43Z</time>
			<fix>3d</fix>
		</trkpt>
		<trkpt lat="35.164282" lon="-106.460600">
			<ele>2043.59</ele>
			<time>2015-03-08T19:34:44Z</time>
			<fix>3d</fix>
		</trkpt>
		<trkpt lat="35.164289" lon="-106.460615">
			<ele>2043.57</ele>
			<time>2015-03-08T19:34:45Z</time>
			<fix>3d</fix>
		</trkpt>
		<trkpt lat="35.164298" lon="-106.460626">
			<ele>2043.46</ele>
			<time>2015-03-08T19:34:46Z</time>
			<fix>3d</fix>
		</trkpt>
		<trkpt lat="35.164305" lon="-106.460637">
			<ele>2043.44</ele>
			<time>2015-03-08T19:34:47Z</time>
			<fix>3d</fix>
		</trkpt>
		<trkpt lat="35.164312" lon="-106.460651">
			<ele>2043.42</ele>
			<time>2015-03-08T19:34:48Z</time>
			<fix>3d</fix>
		</trkpt>
		<trkpt lat="35.164317" lon="-106.460665">
			<ele>2043.30</ele>
			<time>2015-03-08T19:34:49Z</time>
			<fix>3d</fix>
		</trkpt>
		<trkpt lat="35.164317" lon="-106.460673">
			<ele>2043.19</ele>
			<time>2015-03-08T19:34:50Z</time>
			<fix>3d</fix>
		</trkpt>
		<trkpt lat="35.164319" lon="-106.460693">
			<ele>2042.87</ele>
			<time>2015-03-08T19:34:51Z</time>
			<fix>3d</fix>
		</trkpt>
		<trkpt lat="35.164317" lon="-106.460700">
			<ele>2042.85</ele>
			<time>2015-03-08T19:34:52Z</time>
			<fix>3d</fix>
		</trkpt>
		<trkpt lat="35.164316" lon="-106.460720">
			<ele>2042.83</ele>
			<time>2015-03-08T19:34:53Z</time>
			<fix>3d</fix>
		</trkpt>
		<trkpt lat="35.164314" lon="-106.460728">
			<ele>2042.82</ele>
			<time>2015-03-08T19:34:54Z</time>
			<fix>3d</fix>
		</trkpt>
		<trkpt lat="35.164311" lon="-106.460740">
			<ele>2042.70</ele>
			<time>2015-03-08T19:34:55Z</time>
			<fix>3d</fix>
		</trkpt>
		<trkpt lat="35.164309" lon="-106.460765">
			<ele>2042.58</ele>
			<time>2015-03-08T19:34:56Z</time>
			<fix>3d</fix>
		</trkpt>
		<trkpt lat="35.164309" lon="-106.460784">
			<ele>2042.46</ele>
			<time>2015-03-08T19:34:57Z</time>
			<fix>3d</fix>
		</trkpt>
		<trkpt lat="35.164309" lon="-106.460801">
			<ele>2042.15</ele>
			<time>2015-03-08T19:34:58Z</time>
			<fix>3d</fix>
		</trkpt>
		<trkpt lat="35.164307" lon="-106.460818">
			<ele>2042.03</ele>
			<time>2015-03-08T19:34:59Z</time>
			<fix>3d</fix>
		</trkpt>
		<trkpt lat="35.164304" lon="-106.460827">
			<ele>2042.01</ele>
			<time>2015-03-08T19:35:00Z</time>
			<fix>3d</fix>
		</trkpt>
		<trkpt lat="35.164299" lon="-106.460839">
			<ele>2041.89</ele>
			<time>2015-03-08T19:35:01Z</time>
			<fix>3d</fix>
		</trkpt>
		<trkpt lat="35.164298" lon="-106.460860">
			<ele>2041.88</ele>
			<time>2015-03-08T19:35:02Z</time>
			<fix>3d</fix>
		</trkpt>
		<trkpt lat="35.164297" lon="-106.460870">
			<ele>2041.76</ele>
			<time>2015-03-08T19:35:03Z</time>
			<fix>3d</fix>
		</trkpt>
		<trkpt lat="35.164296" lon="-106.460891">
			<ele>2041.54</ele>
			<time>2015-03-08T19:35:04Z</time>
			<fix>3d</fix>
		</trkpt>
		<trkpt lat="35.164292" lon="-106.460904">
			<ele>2041.43</ele>
			<time>2015-03-08T19:35:05Z</time>
			<fix>3d</fix>
		</trkpt>
		<trkpt lat="35.164287" lon="-106.460914">
			<ele>2040.80</ele>
			<time>2015-03-08T19:35:06Z</time>
			<fix>3d</fix>
		</trkpt>
		<trkpt lat="35.164281" lon="-106.460919">
			<ele>2040.48</ele>
			<time>2015-03-08T19:35:07Z</time>
			<fix>3d</fix>
		</trkpt>
		<trkpt lat="35.164276" lon="-106.460937">
			<ele>2040.05</ele>
			<time>2015-03-08T19:35:08Z</time>
			<fix>3d</fix>
		</trkpt>
		<trkpt lat="35.164277" lon="-106.460954">
			<ele>2040.03</ele>
			<time>2015-03-08T19:35:09Z</time>
			<fix>3d</fix>
		</trkpt>
		<trkpt lat="35.164277" lon="-106.460963">
			<ele>2040.02</ele>
			<time>2015-03-08T19:35:10Z</time>
			<fix>3d</fix>
		</trkpt>
		<trkpt lat="35.164279" lon="-106.460985">
			<ele>2040.00</ele>
			<time>2015-03-08T19:35:11Z</time>
			<fix>3d</fix>
		</trkpt>
		<trkpt lat="35.164279" lon="-106.460994">
			<ele>2039.88</ele>
			<time>2015-03-08T19:35:12Z</time>
			<fix>3d</fix>
		</trkpt>
		<trkpt lat="35.164278" lon="-106.461016">
			<ele>2039.87</ele>
			<time>2015-03-08T19:35:13Z</time>
			<fix>3d</fix>
		</trkpt>
		<trkpt lat="35.164275" lon="-106.461032">
			<ele>2039.75</ele>
			<time>2015-03-08T19:35:14Z</time>
			<fix>3d</fix>
		</trkpt>
		<trkpt lat="35.164272" lon="-106.461042">
			<ele>2039.74</ele>
			<time>2015-03-08T19:35:15Z</time>
			<fix>3d</fix>
		</trkpt>
		<trkpt lat="35.164270" lon="-106.461066">
			<ele>2039.72</ele>
			<time>2015-03-08T19:35:16Z</time>
			<fix>3d</fix>
		</trkpt>
		<trkpt lat="35.164268" lon="-106.461084">
			<ele>2039.71</ele>
			<time>2015-03-08T19:35:17Z</time>
			<fix>3d</fix>
		</trkpt>
		<trkpt lat="35.164265" lon="-106.461105">
			<ele>2039.70</ele>
			<time>2015-03-08T19:35:18Z</time>
			<fix>3d</fix>
		</trkpt>
		<trkpt lat="35.164262" lon="-106.461127">
			<ele>2039.58</ele>
			<time>2015-03-08T19:35:19Z</time>
			<fix>3d</fix>
		</trkpt>
		<trkpt lat="35.164258" lon="-106.461148">
			<ele>2039.46</ele>
			<time>2015-03-08T19:35:20Z</time>
			<fix>3d</fix>
		</trkpt>
		<trkpt lat="35.164255" lon="-106.461168">
			<ele>2039.15</ele>
			<time>2015-03-08T19:35:21Z</time>
			<fix>3d</fix>
		</trkpt>
		<trkpt lat="35.164252" lon="-106.461178">
			<ele>2039.13</ele>
			<time>2015-03-08T19:35:22Z</time>
			<fix>3d</fix>
		</trkpt>
		<trkpt lat="35.164250" lon="-106.461194">
			<ele>2039.12</ele>
			<time>2015-03-08T19:35:23Z</time>
			<fix>3d</fix>
		</trkpt>
		<trkpt lat="35.164250" lon="-106.461220">
			<ele>2039.00</ele>
			<time>2015-03-08T19:35:24Z</time>
			<fix>3d</fix>
		</trkpt>
		<trkpt lat="35.164248" lon="-106.461237">
			<ele>2038.99</ele>
			<time>2015-03-08T19:35:25Z</time>
			<fix>3d</fix>
		</trkpt>
		<trkpt lat="35.164247" lon="-106.461246">
			<ele>2038.97</ele>
			<time>2015-03-08T19:35:26Z</time>
			<fix>3d</fix>
		</trkpt>
		<trkpt lat="35.164248" lon="-106.461269">
			<ele>2038.65</ele>
			<time>2015-03-08T19:35:27Z</time>
			<fix>3d</fix>
		</trkpt>
		<trkpt lat="35.164247" lon="-106.461287">
			<ele>2038.44</ele>
			<time>2015-03-08T19:35:28Z</time>
			<fix>3d</fix>
		</trkpt>
		<trkpt lat="35.164248" lon="-106.461307">
			<ele>2038.42</ele>
			<time>2015-03-08T19:35:29Z</time>
			<fix>3d</fix>
		</trkpt>
		<trkpt lat="35.164247" lon="-106.461326">
			<ele>2038.41</ele>
			<time>2015-03-08T19:35:30Z</time>
			<fix>3d</fix>
		</trkpt>
		<trkpt lat="35.164244" lon="-106.461344">
			<ele>2038.39</ele>
			<time>2015-03-08T19:35:31Z</time>
			<fix>3d</fix>
		</trkpt>
		<trkpt lat="35.164242" lon="-106.461353">
			<ele>2038.28</ele>
			<time>2015-03-08T19:35:32Z</time>
			<fix>3d</fix>
		</trkpt>
		<trkpt lat="35.164240" lon="-106.461368">
			<ele>2038.26</ele>
			<time>2015-03-08T19:35:33Z</time>
			<fix>3d</fix>
		</trkpt>
		<trkpt lat="35.164240" lon="-106.461384">
			<ele>2038.25</ele>
			<time>2015-03-08T19:35:34Z</time>
			<fix>3d</fix>
		</trkpt>
		<trkpt lat="35.164240" lon="-106.461409">
			<ele>2038.23</ele>
			<time>2015-03-08T19:35:35Z</time>
			<fix>3d</fix>
		</trkpt>
		<trkpt lat="35.164239" lon="-106.461426">
			<ele>2038.12</ele>
			<time>2015-03-08T19:35:36Z</time>
			<fix>3d</fix>
		</trkpt>
		<trkpt lat="35.164236" lon="-106.461444">
			<ele>2038.10</ele>
			<time>2015-03-08T19:35:37Z</time>
			<fix>3d</fix>
		</trkpt>
		<trkpt lat="35.164233" lon="-106.461463">
			<ele>2038.09</ele>
			<time>2015-03-08T19:35:38Z</time>
			<fix>3d</fix>
		</trkpt>
		<trkpt lat="35.164231" lon="-106.461480">
			<ele>2038.07</ele>
			<time>2015-03-08T19:35:39Z</time>
			<fix>3d</fix>
		</trkpt>
		<trkpt lat="35.164230" lon="-106.461489">
			<ele>2038.06</ele>
			<time>2015-03-08T19:35:40Z</time>
			<fix>3d</fix>
		</trkpt>
		<trkpt lat="35.164233" lon="-106.461513">
			<ele>2038.04</ele>
			<time>2015-03-08T19:35:41Z</time>
			<fix>3d</fix>
		</trkpt>
		<trkpt lat="35.164235" lon="-106.461530">
			<ele>2038.03</ele>
			<time>2015-03-08T19:35:42Z</time>
			<fix>3d</fix>
		</trkpt>
		<trkpt lat="35.164233" lon="-106.461547">
			<ele>2038.01</ele>
			<time>2015-03-08T19:35:43Z</time>
			<fix>3d</fix>
		</trkpt>
		<trkpt lat="35.164231" lon="-106.461556">
			<ele>2038.00</ele>
			<time>2015-03-08T19:35:44Z</time>
			<fix>3d</fix>
		</trkpt>
		<trkpt lat="35.164231" lon="-106.461570">
			<ele>2037.88</ele>
			<time>2015-03-08T19:35:45Z</time>
			<fix>3d</fix>
		</trkpt>
		<trkpt lat="35.164234" lon="-106.461594">
			<ele>2037.87</ele>
			<time>2015-03-08T19:35:46Z</time>
			<fix>3d</fix>
		</trkpt>
		<trkpt lat="35.164238" lon="-106.461612">
			<ele>2037.75</ele>
			<time>2015-03-08T19:35:47Z</time>
			<fix>3d</fix>
		</trkpt>
		<trkpt lat="35.164240" lon="-106.461622">
			<ele>2037.63</ele>
			<time>2015-03-08T19:35:48Z</time>
			<fix>3d</fix>
		</trkpt>
		<trkpt lat="35.164245" lon="-106.461647">
			<ele>2037.42</ele>
			<time>2015-03-08T19:35:49Z</time>
			<fix>3d</fix>
		</trkpt>
		<trkpt lat="35.164251" lon="-106.461668">
			<ele>2037.30</ele>
			<time>2015-03-08T19:35:50Z</time>
			<fix>3d</fix>
		</trkpt>
		<trkpt lat="35.164256" lon="-106.461686">
			<ele>2037.18</ele>
			<time>2015-03-08T19:35:51Z</time>
			<fix>3d</fix>
		</trkpt>
		<trkpt lat="35.164260" lon="-106.461703">
			<ele>2036.86</ele>
			<time>2015-03-08T19:35:52Z</time>
			<fix>3d</fix>
		</trkpt>
		<trkpt lat="35.164265" lon="-106.461718">
			<ele>2036.74</ele>
			<time>2015-03-08T19:35:53Z</time>
			<fix>3d</fix>
		</trkpt>
		<trkpt lat="35.164271" lon="-106.461731">
			<ele>2036.63</ele>
			<time>2015-03-08T19:35:54Z</time>
			<fix>3d</fix>
		</trkpt>
		<trkpt lat="35.164275" lon="-106.461737">
			<ele>2036.61</ele>
			<time>2015-03-08T19:35:55Z</time>
			<fix>3d</fix>
		</trkpt>
		<trkpt lat="35.164282" lon="-106.461747">
			<ele>2036.49</ele>
			<time>2015-03-08T19:35:56Z</time>
			<fix>3d</fix>
		</trkpt>
		<trkpt lat="35.164292" lon="-106.461767">
			<ele>2036.48</ele>
			<time>2015-03-08T19:35:57Z</time>
			<fix>3d</fix>
		</trkpt>
		<trkpt lat="35.164299" lon="-106.461785">
			<ele>2036.46</ele>
			<time>2015-03-08T19:35:58Z</time>
			<fix>3d</fix>
		</trkpt>
		<trkpt lat="35.164304" lon="-106.461801">
			<ele>2036.35</ele>
			<time>2015-03-08T19:35:59Z</time>
			<fix>3d</fix>
		</trkpt>
		<trkpt lat="35.164307" lon="-106.461818">
			<ele>2036.33</ele>
			<time>2015-03-08T19:36:00Z</time>
			<fix>3d</fix>
		</trkpt>
		<trkpt lat="35.164309" lon="-106.461833">
			<ele>2036.31</ele>
			<time>2015-03-08T19:36:01Z</time>
			<fix>3d</fix>
		</trkpt>
		<trkpt lat="35.164311" lon="-106.461849">
			<ele>2036.20</ele>
			<time>2015-03-08T19:36:02Z</time>
			<fix>3d</fix>
		</trkpt>
		<trkpt lat="35.164311" lon="-106.461865">
			<ele>2036.18</ele>
			<time>2015-03-08T19:36:03Z</time>
			<fix>3d</fix>
		</trkpt>
		<trkpt lat="35.164309" lon="-106.461882">
			<ele>2036.16</ele>
			<time>2015-03-08T19:36:04Z</time>
			<fix>3d</fix>
		</trkpt>
		<trkpt lat="35.164307" lon="-106.461896">
			<ele>2036.15</ele>
			<time>2015-03-08T19:36:05Z</time>
			<fix>3d</fix>
		</trkpt>
		<trkpt lat="35.164306" lon="-106.461904">
			<ele>2035.93</ele>
			<time>2015-03-08T19:36:06Z</time>
			<fix>3d</fix>
		</trkpt>
		<trkpt lat="35.164309" lon="-106.461926">
			<ele>2035.91</ele>
			<time>2015-03-08T19:36:07Z</time>
			<fix>3d</fix>
		</trkpt>
		<trkpt lat="35.164312" lon="-106.461943">
			<ele>2035.42</ele>
			<time>2015-03-08T19:36:08Z</time>
			<fix>3d</fix>
		</trkpt>
		<trkpt lat="35.164318" lon="-106.461962">
			<ele>2034.90</ele>
			<time>2015-03-08T19:36:09Z</time>
			<fix>3d</fix>
		</trkpt>
		<trkpt lat="35.164322" lon="-106.461981">
			<ele>2034.28</ele>
			<time>2015-03-08T19:36:10Z</time>
			<fix>3d</fix>
		</trkpt>
		<trkpt lat="35.164326" lon="-106.461999">
			<ele>2034.26</ele>
			<time>2015-03-08T19:36:11Z</time>
			<fix>3d</fix>
		</trkpt>
		<trkpt lat="35.164331" lon="-106.462016">
			<ele>2034.25</ele>
			<time>2015-03-08T19:36:12Z</time>
			<fix>3d</fix>
		</trkpt>
		<trkpt lat="35.164335" lon="-106.462030">
			<ele>2034.23</ele>
			<time>2015-03-08T19:36:13Z</time>
			<fix>3d</fix>
		</trkpt>
		<trkpt lat="35.164339" lon="-106.462045">
			<ele>2034.21</ele>
			<time>2015-03-08T19:36:14Z</time>
			<fix>3d</fix>
		</trkpt>
		<trkpt lat="35.164340" lon="-106.462059">
			<ele>2034.20</ele>
			<time>2015-03-08T19:36:15Z</time>
			<fix>3d</fix>
		</trkpt>
		<trkpt lat="35.164340" lon="-106.462073">
			<ele>2034.28</ele>
			<time>2015-03-08T19:36:16Z</time>
			<fix>3d</fix>
		</trkpt>
		<trkpt lat="35.164337" lon="-106.462082">
			<ele>2034.16</ele>
			<time>2015-03-08T19:36:17Z</time>
			<fix>3d</fix>
		</trkpt>
		<trkpt lat="35.164333" lon="-106.462094">
			<ele>2034.05</ele>
			<time>2015-03-08T19:36:18Z</time>
			<fix>3d</fix>
		</trkpt>
		<trkpt lat="35.164329" lon="-106.462107">
			<ele>2034.03</ele>
			<time>2015-03-08T19:36:19Z</time>
			<fix>3d</fix>
		</trkpt>
		<trkpt lat="35.164326" lon="-106.462120">
			<ele>2033.91</ele>
			<time>2015-03-08T19:36:20Z</time>
			<fix>3d</fix>
		</trkpt>
		<trkpt lat="35.164324" lon="-106.462133">
			<ele>2033.90</ele>
			<time>2015-03-08T19:36:21Z</time>
			<fix>3d</fix>
		</trkpt>
		<trkpt lat="35.164323" lon="-106.462146">
			<ele>2033.68</ele>
			<time>2015-03-08T19:36:22Z</time>
			<fix>3d</fix>
		</trkpt>
		<trkpt lat="35.164323" lon="-106.462171">
			<ele>2033.46</ele>
			<time>2015-03-08T19:36:23Z</time>
			<fix>3d</fix>
		</trkpt>
		<trkpt lat="35.164321" lon="-106.462188">
			<ele>2033.44</ele>
			<time>2015-03-08T19:36:24Z</time>
			<fix>3d</fix>
		</trkpt>
		<trkpt lat="35.164319" lon="-106.462199">
			<ele>2033.33</ele>
			<time>2015-03-08T19:36:25Z</time>
			<fix>3d</fix>
		</trkpt>
		<trkpt lat="35.164317" lon="-106.462224">
			<ele>2033.11</ele>
			<time>2015-03-08T19:36:26Z</time>
			<fix>3d</fix>
		</trkpt>
		<trkpt lat="35.164320" lon="-106.462243">
			<ele>2033.09</ele>
			<time>2015-03-08T19:36:27Z</time>
			<fix>3d</fix>
		</trkpt>
		<trkpt lat="35.164323" lon="-106.462259">
			<ele>2033.08</ele>
			<time>2015-03-08T19:36:28Z</time>
			<fix>3d</fix>
		</trkpt>
		<trkpt lat="35.164323" lon="-106.462274">
			<ele>2033.06</ele>
			<time>2015-03-08T19:36:29Z</time>
			<fix>3d</fix>
		</trkpt>
		<trkpt lat="35.164318" lon="-106.462290">
			<ele>2033.04</ele>
			<time>2015-03-08T19:36:30Z</time>
			<fix>3d</fix>
		</trkpt>
		<trkpt lat="35.164314" lon="-106.462306">
			<ele>2032.83</ele>
			<time>2015-03-08T19:36:31Z</time>
			<fix>3d</fix>
		</trkpt>
		<trkpt lat="35.164313" lon="-106.462322">
			<ele>2032.30</ele>
			<time>2015-03-08T19:36:32Z</time>
			<fix>3d</fix>
		</trkpt>
		<trkpt lat="35.164312" lon="-106.462339">
			<ele>2032.29</ele>
			<time>2015-03-08T19:36:33Z</time>
			<fix>3d</fix>
		</trkpt>
		<trkpt lat="35.164310" lon="-106.462356">
			<ele>2032.27</ele>
			<time>2015-03-08T19:36:34Z</time>
			<fix>3d</fix>
		</trkpt>
		<trkpt lat="35.164309" lon="-106.462373">
			<ele>2032.26</ele>
			<time>2015-03-08T19:36:35Z</time>
			<fix>3d</fix>
		</trkpt>
		<trkpt lat="35.164310" lon="-106.462389">
			<ele>2032.24</ele>
			<time>2015-03-08T19:36:36Z</time>
			<fix>3d</fix>
		</trkpt>
		<trkpt lat="35.164312" lon="-106.462406">
			<ele>2032.22</ele>
			<time>2015-03-08T19:36:37Z</time>
			<fix>3d</fix>
		</trkpt>
		<trkpt lat="35.164312" lon="-106.462416">
			<ele>2032.11</ele>
			<time>2015-03-08T19:36:38Z</time>
			<fix>3d</fix>
		</trkpt>
		<trkpt lat="35.164314" lon="-106.462439">
			<ele>2032.09</ele>
			<time>2015-03-08T19:36:39Z</time>
			<fix>3d</fix>
		</trkpt>
		<trkpt lat="35.164314" lon="-106.462454">
			<ele>2031.97</ele>
			<time>2015-03-08T19:36:40Z</time>
			<fix>3d</fix>
		</trkpt>
		<trkpt lat="35.164312" lon="-106.462462">
			<ele>2031.86</ele>
			<time>2015-03-08T19:36:41Z</time>
			<fix>3d</fix>
		</trkpt>
		<trkpt lat="35.164314" lon="-106.462482">
			<ele>2031.54</ele>
			<time>2015-03-08T19:36:42Z</time>
			<fix>3d</fix>
		</trkpt>
		<trkpt lat="35.164316" lon="-106.462499">
			<ele>2031.42</ele>
			<time>2015-03-08T19:36:43Z</time>
			<fix>3d</fix>
		</trkpt>
		<trkpt lat="35.164315" lon="-106.462507">
			<ele>2031.30</ele>
			<time>2015-03-08T19:36:44Z</time>
			<fix>3d</fix>
		</trkpt>
		<trkpt lat="35.164314" lon="-106.462521">
			<ele>2030.68</ele>
			<time>2015-03-08T19:36:45Z</time>
			<fix>3d</fix>
		</trkpt>
		<trkpt lat="35.164314" lon="-106.462546">
			<ele>2030.46</ele>
			<time>2015-03-08T19:36:46Z</time>
			<fix>3d</fix>
		</trkpt>
		<trkpt lat="35.164313" lon="-106.462563">
			<ele>2030.34</ele>
			<time>2015-03-08T19:36:47Z</time>
			<fix>3d</fix>
		</trkpt>
		<trkpt lat="35.164312" lon="-106.462579">
			<ele>2030.33</ele>
			<time>2015-03-08T19:36:48Z</time>
			<fix>3d</fix>
		</trkpt>
		<trkpt lat="35.164309" lon="-106.462594">
			<ele>2030.31</ele>
			<time>2015-03-08T19:36:49Z</time>
			<fix>3d</fix>
		</trkpt>
		<trkpt lat="35.164304" lon="-106.462605">
			<ele>2030.29</ele>
			<time>2015-03-08T19:36:50Z</time>
			<fix>3d</fix>
		</trkpt>
		<trkpt lat="35.164305" lon="-106.462622">
			<ele>2030.18</ele>
			<time>2015-03-08T19:36:51Z</time>
			<fix>3d</fix>
		</trkpt>
		<trkpt lat="35.164304" lon="-106.462636">
			<ele>2030.06</ele>
			<time>2015-03-08T19:36:52Z</time>
			<fix>3d</fix>
		</trkpt>
		<trkpt lat="35.164307" lon="-106.462656">
			<ele>2029.94</ele>
			<time>2015-03-08T19:36:53Z</time>
			<fix>3d</fix>
		</trkpt>
		<trkpt lat="35.164306" lon="-106.462674">
			<ele>2029.93</ele>
			<time>2015-03-08T19:36:54Z</time>
			<fix>3d</fix>
		</trkpt>
		<trkpt lat="35.164306" lon="-106.462690">
			<ele>2029.91</ele>
			<time>2015-03-08T19:36:55Z</time>
			<fix>3d</fix>
		</trkpt>
		<trkpt lat="35.164306" lon="-106.462700">
			<ele>2029.90</ele>
			<time>2015-03-08T19:36:56Z</time>
			<fix>3d</fix>
		</trkpt>
		<trkpt lat="35.164308" lon="-106.462724">
			<ele>2029.88</ele>
			<time>2015-03-08T19:36:57Z</time>
			<fix>3d</fix>
		</trkpt>
		<trkpt lat="35.164308" lon="-106.462743">
			<ele>2029.76</ele>
			<time>2015-03-08T19:36:58Z</time>
			<fix>3d</fix>
		</trkpt>
		<trkpt lat="35.164307" lon="-106.462761">
			<ele>2029.54</ele>
			<time>2015-03-08T19:36:59Z</time>
			<fix>3d</fix>
		</trkpt>
		<trkpt lat="35.164305" lon="-106.462780">
			<ele>2029.32</ele>
			<time>2015-03-08T19:37:00Z</time>
			<fix>3d</fix>
		</trkpt>
		<trkpt lat="35.164305" lon="-106.462798">
			<ele>2029.10</ele>
			<time>2015-03-08T19:37:01Z</time>
			<fix>3d</fix>
		</trkpt>
		<trkpt lat="35.164305" lon="-106.462815">
			<ele>2028.99</ele>
			<time>2015-03-08T19:37:02Z</time>
			<fix>3d</fix>
		</trkpt>
		<trkpt lat="35.164305" lon="-106.462823">
			<ele>2028.97</ele>
			<time>2015-03-08T19:37:03Z</time>
			<fix>3d</fix>
		</trkpt>
		<trkpt lat="35.164306" lon="-106.462835">
			<ele>2028.95</ele>
			<time>2015-03-08T19:37:04Z</time>
			<fix>3d</fix>
		</trkpt>
		<trkpt lat="35.164310" lon="-106.462858">
			<ele>2028.94</ele>
			<time>2015-03-08T19:37:05Z</time>
			<fix>3d</fix>
		</trkpt>
		<trkpt lat="35.164312" lon="-106.462868">
			<ele>2028.82</ele>
			<time>2015-03-08T19:37:06Z</time>
			<fix>3d</fix>
		</trkpt>
		<trkpt lat="35.164317" lon="-106.462892">
			<ele>2028.60</ele>
			<time>2015-03-08T19:37:07Z</time>
			<fix>3d</fix>
		</trkpt>
		<trkpt lat="35.164316" lon="-106.462909">
			<ele>2027.62</ele>
			<time>2015-03-08T19:37:08Z</time>
			<fix>3d</fix>
		</trkpt>
		<trkpt lat="35.164318" lon="-106.462928">
			<ele>2027.50</ele>
			<time>2015-03-08T19:37:09Z</time>
			<fix>3d</fix>
		</trkpt>
		<trkpt lat="35.164323" lon="-106.462948">
			<ele>2027.49</ele>
			<time>2015-03-08T19:37:10Z</time>
			<fix>3d</fix>
		</trkpt>
		<trkpt lat="35.164326" lon="-106.462963">
			<ele>2027.37</ele>
			<time>2015-03-08T19:37:11Z</time>
			<fix>3d</fix>
		</trkpt>
		<trkpt lat="35.164327" lon="-106.462973">
			<ele>2027.25</ele>
			<time>2015-03-08T19:37:12Z</time>
			<fix>3d</fix>
		</trkpt>
		<trkpt lat="35.164328" lon="-106.462985">
			<ele>2027.13</ele>
			<time>2015-03-08T19:37:13Z</time>
			<fix>3d</fix>
		</trkpt>
		<trkpt lat="35.164329" lon="-106.463008">
			<ele>2027.11</ele>
			<time>2015-03-08T19:37:14Z</time>
			<fix>3d</fix>
		</trkpt>
		<trkpt lat="35.164328" lon="-106.463023">
			<ele>2027.00</ele>
			<time>2015-03-08T19:37:15Z</time>
			<fix>3d</fix>
		</trkpt>
		<trkpt lat="35.164328" lon="-106.463037">
			<ele>2026.98</ele>
			<time>2015-03-08T19:37:16Z</time>
			<fix>3d</fix>
		</trkpt>
		<trkpt lat="35.164328" lon="-106.463054">
			<ele>2026.86</ele>
			<time>2015-03-08T19:37:17Z</time>
			<fix>3d</fix>
		</trkpt>
		<trkpt lat="35.164326" lon="-106.463071">
			<ele>2026.84</ele>
			<time>2015-03-08T19:37:18Z</time>
			<fix>3d</fix>
		</trkpt>
		<trkpt lat="35.164326" lon="-106.463090">
			<ele>2026.83</ele>
			<time>2015-03-08T19:37:19Z</time>
			<fix>3d</fix>
		</trkpt>
		<trkpt lat="35.164325" lon="-106.463100">
			<ele>2026.81</ele>
			<time>2015-03-08T19:37:20Z</time>
			<fix>3d</fix>
		</trkpt>
		<trkpt lat="35.164324" lon="-106.463122">
			<ele>2026.79</ele>
			<time>2015-03-08T19:37:21Z</time>
			<fix>3d</fix>
		</trkpt>
		<trkpt lat="35.164321" lon="-106.463140">
			<ele>2026.67</ele>
			<time>2015-03-08T19:37:22Z</time>
			<fix>3d</fix>
		</trkpt>
		<trkpt lat="35.164320" lon="-106.463156">
			<ele>2026.66</ele>
			<time>2015-03-08T19:37:23Z</time>
			<fix>3d</fix>
		</trkpt>
		<trkpt lat="35.164321" lon="-106.463173">
			<ele>2026.54</ele>
			<time>2015-03-08T19:37:24Z</time>
			<fix>3d</fix>
		</trkpt>
		<trkpt lat="35.164323" lon="-106.463189">
			<ele>2026.52</ele>
			<time>2015-03-08T19:37:25Z</time>
			<fix>3d</fix>
		</trkpt>
		<trkpt lat="35.164325" lon="-106.463206">
			<ele>2026.50</ele>
			<time>2015-03-08T19:37:26Z</time>
			<fix>3d</fix>
		</trkpt>
		<trkpt lat="35.164326" lon="-106.463223">
			<ele>2026.48</ele>
			<time>2015-03-08T19:37:27Z</time>
			<fix>3d</fix>
		</trkpt>
		<trkpt lat="35.164326" lon="-106.463232">
			<ele>2026.47</ele>
			<time>2015-03-08T19:37:28Z</time>
			<fix>3d</fix>
		</trkpt>
		<trkpt lat="35.164325" lon="-106.463245">
			<ele>2026.35</ele>
			<time>2015-03-08T19:37:29Z</time>
			<fix>3d</fix>
		</trkpt>
		<trkpt lat="35.164324" lon="-106.463259">
			<ele>2026.33</ele>
			<time>2015-03-08T19:37:30Z</time>
			<fix>3d</fix>
		</trkpt>
		<trkpt lat="35.164323" lon="-106.463274">
			<ele>2026.31</ele>
			<time>2015-03-08T19:37:31Z</time>
			<fix>3d</fix>
		</trkpt>
		<trkpt lat="35.164322" lon="-106.463300">
			<ele>2026.30</ele>
			<time>2015-03-08T19:37:32Z</time>
			<fix>3d</fix>
		</trkpt>
		<trkpt lat="35.164322" lon="-106.463318">
			<ele>2026.28</ele>
			<time>2015-03-08T19:37:33Z</time>
			<fix>3d</fix>
		</trkpt>
		<trkpt lat="35.164322" lon="-106.463330">
			<ele>2026.26</ele>
			<time>2015-03-08T19:37:34Z</time>
			<fix>3d</fix>
		</trkpt>
		<trkpt lat="35.164322" lon="-106.463346">
			<ele>2026.15</ele>
			<time>2015-03-08T19:37:35Z</time>
			<fix>3d</fix>
		</trkpt>
		<trkpt lat="35.164323" lon="-106.463362">
			<ele>2026.13</ele>
			<time>2015-03-08T19:37:36Z</time>
			<fix>3d</fix>
		</trkpt>
		<trkpt lat="35.164324" lon="-106.463377">
			<ele>2026.01</ele>
			<time>2015-03-08T19:37:37Z</time>
			<fix>3d</fix>
		</trkpt>
		<trkpt lat="35.164328" lon="-106.463402">
			<ele>2025.89</ele>
			<time>2015-03-08T19:37:38Z</time>
			<fix>3d</fix>
		</trkpt>
		<trkpt lat="35.164329" lon="-106.463419">
			<ele>2025.78</ele>
			<time>2015-03-08T19:37:39Z</time>
			<fix>3d</fix>
		</trkpt>
		<trkpt lat="35.164331" lon="-106.463435">
			<ele>2025.56</ele>
			<time>2015-03-08T19:37:40Z</time>
			<fix>3d</fix>
		</trkpt>
		<trkpt lat="35.164335" lon="-106.463453">
			<ele>2025.54</ele>
			<time>2015-03-08T19:37:41Z</time>
			<fix>3d</fix>
		</trkpt>
		<trkpt lat="35.164336" lon="-106.463461">
			<ele>2025.52</ele>
			<time>2015-03-08T19:37:42Z</time>
			<fix>3d</fix>
		</trkpt>
		<trkpt lat="35.164338" lon="-106.463472">
			<ele>2025.51</ele>
			<time>2015-03-08T19:37:43Z</time>
			<fix>3d</fix>
		</trkpt>
		<trkpt lat="35.164339" lon="-106.463485">
			<ele>2025.49</ele>
			<time>2015-03-08T19:37:44Z</time>
			<fix>3d</fix>
		</trkpt>
		<trkpt lat="35.164338" lon="-106.463500">
			<ele>2025.48</ele>
			<time>2015-03-08T19:37:45Z</time>
			<fix>3d</fix>
		</trkpt>
		<trkpt lat="35.164337" lon="-106.463524">
			<ele>2025.46</ele>
			<time>2015-03-08T19:37:46Z</time>
			<fix>3d</fix>
		</trkpt>
		<trkpt lat="35.164335" lon="-106.463543">
			<ele>2025.34</ele>
			<time>2015-03-08T19:37:47Z</time>
			<fix>3d</fix>
		</trkpt>
		<trkpt lat="35.164336" lon="-106.463560">
			<ele>2025.43</ele>
			<time>2015-03-08T19:37:48Z</time>
			<fix>3d</fix>
		</trkpt>
		<trkpt lat="35.164336" lon="-106.463575">
			<ele>2025.41</ele>
			<time>2015-03-08T19:37:49Z</time>
			<fix>3d</fix>
		</trkpt>
		<trkpt lat="35.164339" lon="-106.463589">
			<ele>2025.29</ele>
			<time>2015-03-08T19:37:50Z</time>
			<fix>3d</fix>
		</trkpt>
		<trkpt lat="35.164341" lon="-106.463596">
			<ele>2025.28</ele>
			<time>2015-03-08T19:37:51Z</time>
			<fix>3d</fix>
		</trkpt>
		<trkpt lat="35.164346" lon="-106.463614">
			<ele>2025.16</ele>
			<time>2015-03-08T19:37:52Z</time>
			<fix>3d</fix>
		</trkpt>
		<trkpt lat="35.164346" lon="-106.463621">
			<ele>2025.15</ele>
			<time>2015-03-08T19:37:53Z</time>
			<fix>3d</fix>
		</trkpt>
		<trkpt lat="35.164347" lon="-106.463639">
			<ele>2025.03</ele>
			<time>2015-03-08T19:37:54Z</time>
			<fix>3d</fix>
		</trkpt>
		<trkpt lat="35.164345" lon="-106.463645">
			<ele>2025.01</ele>
			<time>2015-03-08T19:37:55Z</time>
			<fix>3d</fix>
		</trkpt>
		<trkpt lat="35.164346" lon="-106.463665">
			<ele>2024.90</ele>
			<time>2015-03-08T19:37:56Z</time>
			<fix>3d</fix>
		</trkpt>
		<trkpt lat="35.164343" lon="-106.463679">
			<ele>2024.88</ele>
			<time>2015-03-08T19:37:57Z</time>
			<fix>3d</fix>
		</trkpt>
		<trkpt lat="35.164341" lon="-106.463694">
			<ele>2024.87</ele>
			<time>2015-03-08T19:37:58Z</time>
			<fix>3d</fix>
		</trkpt>
		<trkpt lat="35.164337" lon="-106.463711">
			<ele>2024.85</ele>
			<time>2015-03-08T19:37:59Z</time>
			<fix>3d</fix>
		</trkpt>
		<trkpt lat="35.164334" lon="-106.463720">
			<ele>2024.84</ele>
			<time>2015-03-08T19:38:00Z</time>
			<fix>3d</fix>
		</trkpt>
		<trkpt lat="35.164332" lon="-106.463743">
			<ele>2024.82</ele>
			<time>2015-03-08T19:38:01Z</time>
			<fix>3d</fix>
		</trkpt>
		<trkpt lat="35.164331" lon="-106.463751">
			<ele>2024.81</ele>
			<time>2015-03-08T19:38:02Z</time>
			<fix>3d</fix>
		</trkpt>
		<trkpt lat="35.164333" lon="-106.463773">
			<ele>2024.79</ele>
			<time>2015-03-08T19:38:03Z</time>
			<fix>3d</fix>
		</trkpt>
		<trkpt lat="35.164332" lon="-106.463780">
			<ele>2024.67</ele>
			<time>2015-03-08T19:38:04Z</time>
			<fix>3d</fix>
		</trkpt>
		<trkpt lat="35.164331" lon="-106.463793">
			<ele>2024.66</ele>
			<time>2015-03-08T19:38:05Z</time>
			<fix>3d</fix>
		</trkpt>
		<trkpt lat="35.164332" lon="-106.463816">
			<ele>2024.54</ele>
			<time>2015-03-08T19:38:06Z</time>
			<fix>3d</fix>
		</trkpt>
		<trkpt lat="35.164332" lon="-106.463832">
			<ele>2024.43</ele>
			<time>2015-03-08T19:38:07Z</time>
			<fix>3d</fix>
		</trkpt>
		<trkpt lat="35.164331" lon="-106.463841">
			<ele>2023.17</ele>
			<time>2015-03-08T19:38:08Z</time>
			<fix>3d</fix>
		</trkpt>
		<trkpt lat="35.164333" lon="-106.463862">
			<ele>2022.95</ele>
			<time>2015-03-08T19:38:09Z</time>
			<fix>3d</fix>
		</trkpt>
		<trkpt lat="35.164334" lon="-106.463870">
			<ele>2022.93</ele>
			<time>2015-03-08T19:38:10Z</time>
			<fix>3d</fix>
		</trkpt>
		<trkpt lat="35.164337" lon="-106.463891">
			<ele>2022.92</ele>
			<time>2015-03-08T19:38:11Z</time>
			<fix>3d</fix>
		</trkpt>
		<trkpt lat="35.164338" lon="-106.463901">
			<ele>2022.70</ele>
			<time>2015-03-08T19:38:12Z</time>
			<fix>3d</fix>
		</trkpt>
		<trkpt lat="35.164340" lon="-106.463915">
			<ele>2022.58</ele>
			<time>2015-03-08T19:38:13Z</time>
			<fix>3d</fix>
		</trkpt>
		<trkpt lat="35.164340" lon="-106.463931">
			<ele>2022.57</ele>
			<time>2015-03-08T19:38:14Z</time>
			<fix>3d</fix>
		</trkpt>
		<trkpt lat="35.164339" lon="-106.463954">
			<ele>2022.55</ele>
			<time>2015-03-08T19:38:15Z</time>
			<fix>3d</fix>
		</trkpt>
		<trkpt lat="35.164335" lon="-106.463967">
			<ele>2022.44</ele>
			<time>2015-03-08T19:38:16Z</time>
			<fix>3d</fix>
		</trkpt>
		<trkpt lat="35.164332" lon="-106.463973">
			<ele>2022.42</ele>
			<time>2015-03-08T19:38:17Z</time>
			<fix>3d</fix>
		</trkpt>
		<trkpt lat="35.164331" lon="-106.463983">
			<ele>2022.30</ele>
			<time>2015-03-08T19:38:18Z</time>
			<fix>3d</fix>
		</trkpt>
		<trkpt lat="35.164328" lon="-106.463996">
			<ele>2021.98</ele>
			<time>2015-03-08T19:38:19Z</time>
			<fix>3d</fix>
		</trkpt>
		<trkpt lat="35.164326" lon="-106.464019">
			<ele>2021.67</ele>
			<time>2015-03-08T19:38:20Z</time>
			<fix>3d</fix>
		</trkpt>
		<trkpt lat="35.164324" lon="-106.464033">
			<ele>2021.65</ele>
			<time>2015-03-08T19:38:21Z</time>
			<fix>3d</fix>
		</trkpt>
		<trkpt lat="35.164322" lon="-106.464046">
			<ele>2021.64</ele>
			<time>2015-03-08T19:38:22Z</time>
			<fix>3d</fix>
		</trkpt>
		<trkpt lat="35.164321" lon="-106.464052">
			<ele>2021.62</ele>
			<time>2015-03-08T19:38:23Z</time>
			<fix>3d</fix>
		</trkpt>
		<trkpt lat="35.164324" lon="-106.464064">
			<ele>2021.40</ele>
			<time>2015-03-08T19:38:24Z</time>
			<fix>3d</fix>
		</trkpt>
		<trkpt lat="35.164326" lon="-106.464079">
			<ele>2021.19</ele>
			<time>2015-03-08T19:38:25Z</time>
			<fix>3d</fix>
		</trkpt>
		<trkpt lat="35.164326" lon="-106.464094">
			<ele>2021.07</ele>
			<time>2015-03-08T19:38:26Z</time>
			<fix>3d</fix>
		</trkpt>
		<trkpt lat="35.164327" lon="-106.464120">
			<ele>2021.05</ele>
			<time>2015-03-08T19:38:27Z</time>
			<fix>3d</fix>
		</trkpt>
		<trkpt lat="35.164325" lon="-106.464135">
			<ele>2021.04</ele>
			<time>2015-03-08T19:38:28Z</time>
			<fix>3d</fix>
		</trkpt>
		<trkpt lat="35.164324" lon="-106.464143">
			<ele>2020.82</ele>
			<time>2015-03-08T19:38:29Z</time>
			<fix>3d</fix>
		</trkpt>
		<trkpt lat="35.164330" lon="-106.464165">
			<ele>2020.81</ele>
			<time>2015-03-08T19:38:30Z</time>
			<fix>3d</fix>
		</trkpt>
		<trkpt lat="35.164333" lon="-106.464176">
			<ele>2020.69</ele>
			<time>2015-03-08T19:38:31Z</time>
			<fix>3d</fix>
		</trkpt>
		<trkpt lat="35.164333" lon="-106.464190">
			<ele>2020.58</ele>
			<time>2015-03-08T19:38:32Z</time>
			<fix>3d</fix>
		</trkpt>
		<trkpt lat="35.164332" lon="-106.464213">
			<ele>2020.56</ele>
			<time>2015-03-08T19:38:33Z</time>
			<fix>3d</fix>
		</trkpt>
		<trkpt lat="35.164331" lon="-106.464228">
			<ele>2020.44</ele>
			<time>2015-03-08T19:38:34Z</time>
			<fix>3d</fix>
		</trkpt>
		<trkpt lat="35.164332" lon="-106.464243">
			<ele>2020.43</ele>
			<time>2015-03-08T19:38:35Z</time>
			<fix>3d</fix>
		</trkpt>
		<trkpt lat="35.164332" lon="-106.464257">
			<ele>2020.11</ele>
			<time>2015-03-08T19:38:36Z</time>
			<fix>3d</fix>
		</trkpt>
		<trkpt lat="35.164331" lon="-106.464272">
			<ele>2020.10</ele>
			<time>2015-03-08T19:38:37Z</time>
			<fix>3d</fix>
		</trkpt>
		<trkpt lat="35.164328" lon="-106.464285">
			<ele>2019.78</ele>
			<time>2015-03-08T19:38:38Z</time>
			<fix>3d</fix>
		</trkpt>
		<trkpt lat="35.164325" lon="-106.464293">
			<ele>2019.66</ele>
			<time>2015-03-08T19:38:39Z</time>
			<fix>3d</fix>
		</trkpt>
		<trkpt lat="35.164322" lon="-106.464305">
			<ele>2019.55</ele>
			<time>2015-03-08T19:38:40Z</time>
			<fix>3d</fix>
		</trkpt>
		<trkpt lat="35.164319" lon="-106.464317">
			<ele>2019.53</ele>
			<time>2015-03-08T19:38:41Z</time>
			<fix>3d</fix>
		</trkpt>
		<trkpt lat="35.164318" lon="-106.464332">
			<ele>2019.42</ele>
			<time>2015-03-08T19:38:42Z</time>
			<fix>3d</fix>
		</trkpt>
		<trkpt lat="35.164319" lon="-106.464357">
			<ele>2019.40</ele>
			<time>2015-03-08T19:38:43Z</time>
			<fix>3d</fix>
		</trkpt>
		<trkpt lat="35.164321" lon="-106.464375">
			<ele>2019.39</ele>
			<time>2015-03-08T19:38:44Z</time>
			<fix>3d</fix>
		</trkpt>
		<trkpt lat="35.164321" lon="-106.464382">
			<ele>2019.37</ele>
			<time>2015-03-08T19:38:45Z</time>
			<fix>3d</fix>
		</trkpt>
		<trkpt lat="35.164322" lon="-106.464395">
			<ele>2019.05</ele>
			<time>2015-03-08T19:38:46Z</time>
			<fix>3d</fix>
		</trkpt>
		<trkpt lat="35.164326" lon="-106.464419">
			<ele>2018.84</ele>
			<time>2015-03-08T19:38:47Z</time>
			<fix>3d</fix>
		</trkpt>
		<trkpt lat="35.164325" lon="-106.464435">
			<ele>2018.82</ele>
			<time>2015-03-08T19:38:48Z</time>
			<fix>3d</fix>
		</trkpt>
		<trkpt lat="35.164324" lon="-106.464443">
			<ele>2018.70</ele>
			<time>2015-03-08T19:38:49Z</time>
			<fix>3d</fix>
		</trkpt>
		<trkpt lat="35.164323" lon="-106.464463">
			<ele>2018.69</ele>
			<time>2015-03-08T19:38:50Z</time>
			<fix>3d</fix>
		</trkpt>
		<trkpt lat="35.164322" lon="-106.464479">
			<ele>2018.57</ele>
			<time>2015-03-08T19:38:51Z</time>
			<fix>3d</fix>
		</trkpt>
		<trkpt lat="35.164321" lon="-106.464495">
			<ele>2018.56</ele>
			<time>2015-03-08T19:38:52Z</time>
			<fix>3d</fix>
		</trkpt>
		<trkpt lat="35.164322" lon="-106.464512">
			<ele>2018.54</ele>
			<time>2015-03-08T19:38:53Z</time>
			<fix>3d</fix>
		</trkpt>
		<trkpt lat="35.164326" lon="-106.464532">
			<ele>2018.22</ele>
			<time>2015-03-08T19:38:54Z</time>
			<fix>3d</fix>
		</trkpt>
		<trkpt lat="35.164329" lon="-106.464549">
			<ele>2018.11</ele>
			<time>2015-03-08T19:38:55Z</time>
			<fix>3d</fix>
		</trkpt>
		<trkpt lat="35.164329" lon="-106.464558">
			<ele>2017.89</ele>
			<time>2015-03-08T19:38:56Z</time>
			<fix>3d</fix>
		</trkpt>
		<trkpt lat="35.164329" lon="-106.464571">
			<ele>2017.87</ele>
			<time>2015-03-08T19:38:57Z</time>
			<fix>3d</fix>
		</trkpt>
		<trkpt lat="35.164333" lon="-106.464596">
			<ele>2017.86</ele>
			<time>2015-03-08T19:38:58Z</time>
			<fix>3d</fix>
		</trkpt>
		<trkpt lat="35.164334" lon="-106.464613">
			<ele>2017.84</ele>
			<time>2015-03-08T19:38:59Z</time>
			<fix>3d</fix>
		</trkpt>
		<trkpt lat="35.164335" lon="-106.464629">
			<ele>2017.83</ele>
			<time>2015-03-08T19:39:00Z</time>
			<fix>3d</fix>
		</trkpt>
		<trkpt lat="35.164339" lon="-106.464650">
			<ele>2017.91</ele>
			<time>2015-03-08T19:39:01Z</time>
			<fix>3d</fix>
		</trkpt>
		<trkpt lat="35.164339" lon="-106.464661">
			<ele>2017.79</ele>
			<time>2015-03-08T19:39:02Z</time>
			<fix>3d</fix>
		</trkpt>
		<trkpt lat="35.164340" lon="-106.464686">
			<ele>2017.78</ele>
			<time>2015-03-08T19:39:03Z</time>
			<fix>3d</fix>
		</trkpt>
		<trkpt lat="35.164340" lon="-106.464704">
			<ele>2017.66</ele>
			<time>2015-03-08T19:39:04Z</time>
			<fix>3d</fix>
		</trkpt>
		<trkpt lat="35.164339" lon="-106.464720">
			<ele>2017.54</ele>
			<time>2015-03-08T19:39:05Z</time>
			<fix>3d</fix>
		</trkpt>
		<trkpt lat="35.164339" lon="-106.464728">
			<ele>2017.42</ele>
			<time>2015-03-08T19:39:06Z</time>
			<fix>3d</fix>
		</trkpt>
		<trkpt lat="35.164341" lon="-106.464747">
			<ele>2017.31</ele>
			<time>2015-03-08T19:39:07Z</time>
			<fix>3d</fix>
		</trkpt>
		<trkpt lat="35.164345" lon="-106.464765">
			<ele>2016.54</ele>
			<time>2015-03-08T19:39:08Z</time>
			<fix>3d</fix>
		</trkpt>
		<trkpt lat="35.164349" lon="-106.464779">
			<ele>2016.32</ele>
			<time>2015-03-08T19:39:09Z</time>
			<fix>3d</fix>
		</trkpt>
		<trkpt lat="35.164355" lon="-106.464798">
			<ele>2015.59</ele>
			<time>2015-03-08T19:39:10Z</time>
			<fix>3d</fix>
		</trkpt>
		<trkpt lat="35.164357" lon="-106.464815">
			<ele>2015.37</ele>
			<time>2015-03-08T19:39:11Z</time>
			<fix>3d</fix>
		</trkpt>
		<trkpt lat="35.164356" lon="-106.464824">
			<ele>2015.36</ele>
			<time>2015-03-08T19:39:12Z</time>
			<fix>3d</fix>
		</trkpt>
		<trkpt lat="35.164356" lon="-106.464846">
			<ele>2015.34</ele>
			<time>2015-03-08T19:39:13Z</time>
			<fix>3d</fix>
		</trkpt>
		<trkpt lat="35.164357" lon="-106.464862">
			<ele>2015.32</ele>
			<time>2015-03-08T19:39:14Z</time>
			<fix>3d</fix>
		</trkpt>
		<trkpt lat="35.164355" lon="-106.464872">
			<ele>2015.31</ele>
			<time>2015-03-08T19:39:15Z</time>
			<fix>3d</fix>
		</trkpt>
		<trkpt lat="35.164353" lon="-106.464895">
			<ele>2015.29</ele>
			<time>2015-03-08T19:39:16Z</time>
			<fix>3d</fix>
		</trkpt>
		<trkpt lat="35.164349" lon="-106.464913">
			<ele>2015.28</ele>
			<time>2015-03-08T19:39:17Z</time>
			<fix>3d</fix>
		</trkpt>
		<trkpt lat="35.164346" lon="-106.464930">
			<ele>2015.26</ele>
			<time>2015-03-08T19:39:18Z</time>
			<fix>3d</fix>
		</trkpt>
		<trkpt lat="35.164345" lon="-106.464948">
			<ele>2015.14</ele>
			<time>2015-03-08T19:39:19Z</time>
			<fix>3d</fix>
		</trkpt>
		<trkpt lat="35.164343" lon="-106.464956">
			<ele>2015.12</ele>
			<time>2015-03-08T19:39:20Z</time>
			<fix>3d</fix>
		</trkpt>
		<trkpt lat="35.164342" lon="-106.464969">
			<ele>2015.11</ele>
			<time>2015-03-08T19:39:21Z</time>
			<fix>3d</fix>
		</trkpt>
		<trkpt lat="35.164345" lon="-106.464993">
			<ele>2014.99</ele>
			<time>2015-03-08T19:39:22Z</time>
			<fix>3d</fix>
		</trkpt>
		<trkpt lat="35.164348" lon="-106.465011">
			<ele>2014.87</ele>
			<time>2015-03-08T19:39:23Z</time>
			<fix>3d</fix>
		</trkpt>
		<trkpt lat="35.164352" lon="-106.465029">
			<ele>2014.55</ele>
			<time>2015-03-08T19:39:24Z</time>
			<fix>3d</fix>
		</trkpt>
		<trkpt lat="35.164356" lon="-106.465048">
			<ele>2014.03</ele>
			<time>2015-03-08T19:39:25Z</time>
			<fix>3d</fix>
		</trkpt>
		<trkpt lat="35.164355" lon="-106.465063">
			<ele>2014.11</ele>
			<time>2015-03-08T19:39:26Z</time>
			<fix>3d</fix>
		</trkpt>
		<trkpt lat="35.164353" lon="-106.465071">
			<ele>2014.10</ele>
			<time>2015-03-08T19:39:27Z</time>
			<fix>3d</fix>
		</trkpt>
		<trkpt lat="35.164351" lon="-106.465093">
			<ele>2014.08</ele>
			<time>2015-03-08T19:39:28Z</time>
			<fix>3d</fix>
		</trkpt>
		<trkpt lat="35.164349" lon="-106.465110">
			<ele>2013.96</ele>
			<time>2015-03-08T19:39:29Z</time>
			<fix>3d</fix>
		</trkpt>
		<trkpt lat="35.164345" lon="-106.465126">
			<ele>2013.74</ele>
			<time>2015-03-08T19:39:30Z</time>
			<fix>3d</fix>
		</trkpt>
		<trkpt lat="35.164340" lon="-106.465141">
			<ele>2013.42</ele>
			<time>2015-03-08T19:39:31Z</time>
			<fix>3d</fix>
		</trkpt>
		<trkpt lat="35.164336" lon="-106.465150">
			<ele>2013.41</ele>
			<time>2015-03-08T19:39:32Z</time>
			<fix>3d</fix>
		</trkpt>
		<trkpt lat="35.164334" lon="-106.465163">
			<ele>2013.29</ele>
			<time>2015-03-08T19:39:33Z</time>
			<fix>3d</fix>
		</trkpt>
		<trkpt lat="35.164335" lon="-106.465178">
			<ele>2012.66</ele>
			<time>2015-03-08T19:39:34Z</time>
			<fix>3d</fix>
		</trkpt>
		<trkpt lat="35.164338" lon="-106.465203">
			<ele>2012.95</ele>
			<time>2015-03-08T19:39:35Z</time>
			<fix>3d</fix>
		</trkpt>
		<trkpt lat="35.164341" lon="-106.465213">
			<ele>2012.83</ele>
			<time>2015-03-08T19:39:36Z</time>
			<fix>3d</fix>
		</trkpt>
		<trkpt lat="35.164348" lon="-106.465237">
			<ele>2012.72</ele>
			<time>2015-03-08T19:39:37Z</time>
			<fix>3d</fix>
		</trkpt>
		<trkpt lat="35.164349" lon="-106.465253">
			<ele>2012.70</ele>
			<time>2015-03-08T19:39:38Z</time>
			<fix>3d</fix>
		</trkpt>
		<trkpt lat="35.164348" lon="-106.465261">
			<ele>2012.58</ele>
			<time>2015-03-08T19:39:39Z</time>
			<fix>3d</fix>
		</trkpt>
		<trkpt lat="35.164347" lon="-106.465274">
			<ele>2012.36</ele>
			<time>2015-03-08T19:39:40Z</time>
			<fix>3d</fix>
		</trkpt>
		<trkpt lat="35.164346" lon="-106.465279">
			<ele>2012.25</ele>
			<time>2015-03-08T19:39:41Z</time>
			<fix>3d</fix>
		</trkpt>
		<trkpt lat="35.164345" lon="-106.465310">
			<ele>2012.23</ele>
			<time>2015-03-08T19:39:42Z</time>
			<fix>3d</fix>
		</trkpt>
		<trkpt lat="35.164344" lon="-106.465318">
			<ele>2012.11</ele>
			<time>2015-03-08T19:39:43Z</time>
			<fix>3d</fix>
		</trkpt>
		<trkpt lat="35.164342" lon="-106.465338">
			<ele>2011.99</ele>
			<time>2015-03-08T19:39:44Z</time>
			<fix>3d</fix>
		</trkpt>
		<trkpt lat="35.164343" lon="-106.465357">
			<ele>2011.57</ele>
			<time>2015-03-08T19:39:45Z</time>
			<fix>3d</fix>
		</trkpt>
		<trkpt lat="35.164342" lon="-106.465366">
			<ele>2011.35</ele>
			<time>2015-03-08T19:39:46Z</time>
			<fix>3d</fix>
		</trkpt>
		<trkpt lat="35.164343" lon="-106.465390">
			<ele>2011.34</ele>
			<time>2015-03-08T19:39:47Z</time>
			<fix>3d</fix>
		</trkpt>
		<trkpt lat="35.164344" lon="-106.465405">
			<ele>2011.32</ele>
			<time>2015-03-08T19:39:48Z</time>
			<fix>3d</fix>
		</trkpt>
		<trkpt lat="35.164343" lon="-106.465418">
			<ele>2011.20</ele>
			<time>2015-03-08T19:39:49Z</time>
			<fix>3d</fix>
		</trkpt>
		<trkpt lat="35.164345" lon="-106.465431">
			<ele>2011.09</ele>
			<time>2015-03-08T19:39:50Z</time>
			<fix>3d</fix>
		</trkpt>
		<trkpt lat="35.164349" lon="-106.465449">
			<ele>2010.77</ele>
			<time>2015-03-08T19:39:51Z</time>
			<fix>3d</fix>
		</trkpt>
		<trkpt lat="35.164351" lon="-106.465466">
			<ele>2010.34</ele>
			<time>2015-03-08T19:39:52Z</time>
			<fix>3d</fix>
		</trkpt>
		<trkpt lat="35.164352" lon="-106.465483">
			<ele>2010.43</ele>
			<time>2015-03-08T19:39:53Z</time>
			<fix>3d</fix>
		</trkpt>
		<trkpt lat="35.164351" lon="-106.465498">
			<ele>2010.41</ele>
			<time>2015-03-08T19:39:54Z</time>
			<fix>3d</fix>
		</trkpt>
		<trkpt lat="35.164350" lon="-106.465507">
			<ele>2010.40</ele>
			<time>2015-03-08T19:39:55Z</time>
			<fix>3d</fix>
		</trkpt>
		<trkpt lat="35.164352" lon="-106.465530">
			<ele>2010.38</ele>
			<time>2015-03-08T19:39:56Z</time>
			<fix>3d</fix>
		</trkpt>
		<trkpt lat="35.164350" lon="-106.465538">
			<ele>2010.36</ele>
			<time>2015-03-08T19:39:57Z</time>
			<fix>3d</fix>
		</trkpt>
		<trkpt lat="35.164350" lon="-106.465561">
			<ele>2010.35</ele>
			<time>2015-03-08T19:39:58Z</time>
			<fix>3d</fix>
		</trkpt>
		<trkpt lat="35.164348" lon="-106.465570">
			<ele>2010.23</ele>
			<time>2015-03-08T19:39:59Z</time>
			<fix>3d</fix>
		</trkpt>
		<trkpt lat="35.164347" lon="-106.465593">
			<ele>2010.21</ele>
			<time>2015-03-08T19:40:00Z</time>
			<fix>3d</fix>
		</trkpt>
		<trkpt lat="35.164347" lon="-106.465603">
			<ele>2010.10</ele>
			<time>2015-03-08T19:40:01Z</time>
			<fix>3d</fix>
		</trkpt>
		<trkpt lat="35.164345" lon="-106.465623">
			<ele>2010.08</ele>
			<time>2015-03-08T19:40:02Z</time>
			<fix>3d</fix>
		</trkpt>
		<trkpt lat="35.164343" lon="-106.465629">
			<ele>2010.06</ele>
			<time>2015-03-08T19:40:03Z</time>
			<fix>3d</fix>
		</trkpt>
		<trkpt lat="35.164343" lon="-106.465647">
			<ele>2009.94</ele>
			<time>2015-03-08T19:40:04Z</time>
			<fix>3d</fix>
		</trkpt>
		<trkpt lat="35.164341" lon="-106.465656">
			<ele>2009.83</ele>
			<time>2015-03-08T19:40:05Z</time>
			<fix>3d</fix>
		</trkpt>
		<trkpt lat="35.164336" lon="-106.465676">
			<ele>2009.71</ele>
			<time>2015-03-08T19:40:06Z</time>
			<fix>3d</fix>
		</trkpt>
		<trkpt lat="35.164333" lon="-106.465684">
			<ele>2009.59</ele>
			<time>2015-03-08T19:40:07Z</time>
			<fix>3d</fix>
		</trkpt>
		<trkpt lat="35.164330" lon="-106.465705">
			<ele>2008.88</ele>
			<time>2015-03-08T19:40:08Z</time>
			<fix>3d</fix>
		</trkpt>
		<trkpt lat="35.164325" lon="-106.465712">
			<ele>2008.86</ele>
			<time>2015-03-08T19:40:09Z</time>
			<fix>3d</fix>
		</trkpt>
		<trkpt lat="35.164317" lon="-106.465730">
			<ele>2008.84</ele>
			<time>2015-03-08T19:40:10Z</time>
			<fix>3d</fix>
		</trkpt>
		<trkpt lat="35.164310" lon="-106.465744">
			<ele>2008.83</ele>
			<time>2015-03-08T19:40:11Z</time>
			<fix>3d</fix>
		</trkpt>
		<trkpt lat="35.164308" lon="-106.465747">
			<ele>2008.81</ele>
			<time>2015-03-08T19:40:12Z</time>
			<fix>3d</fix>
		</trkpt>
		<trkpt lat="35.164308" lon="-106.465762">
			<ele>2008.79</ele>
			<time>2015-03-08T19:40:13Z</time>
			<fix>3d</fix>
		</trkpt>
		<trkpt lat="35.164311" lon="-106.465776">
			<ele>2008.68</ele>
			<time>2015-03-08T19:40:14Z</time>
			<fix>3d</fix>
		</trkpt>
		<trkpt lat="35.164317" lon="-106.465799">
			<ele>2008.66</ele>
			<time>2015-03-08T19:40:15Z</time>
			<fix>3d</fix>
		</trkpt>
		<trkpt lat="35.164317" lon="-106.465805">
			<ele>2008.54</ele>
			<time>2015-03-08T19:40:16Z</time>
			<fix>3d</fix>
		</trkpt>
		<trkpt lat="35.164315" lon="-106.465816">
			<ele>2008.52</ele>
			<time>2015-03-08T19:40:17Z</time>
			<fix>3d</fix>
		</trkpt>
		<trkpt lat="35.164313" lon="-106.465829">
			<ele>2008.41</ele>
			<time>2015-03-08T19:40:18Z</time>
			<fix>3d</fix>
		</trkpt>
		<trkpt lat="35.164311" lon="-106.465852">
			<ele>2008.39</ele>
			<time>2015-03-08T19:40:19Z</time>
			<fix>3d</fix>
		</trkpt>
		<trkpt lat="35.164309" lon="-106.465858">
			<ele>2008.27</ele>
			<time>2015-03-08T19:40:20Z</time>
			<fix>3d</fix>
		</trkpt>
		<trkpt lat="35.164307" lon="-106.465862">
			<ele>2008.26</ele>
			<time>2015-03-08T19:40:21Z</time>
			<fix>3d</fix>
		</trkpt>
		<trkpt lat="35.164302" lon="-106.465883">
			<ele>2008.24</ele>
			<time>2015-03-08T19:40:22Z</time>
			<fix>3d</fix>
		</trkpt>
		<trkpt lat="35.164298" lon="-106.465895">
			<ele>2008.22</ele>
			<time>2015-03-08T19:40:23Z</time>
			<fix>3d</fix>
		</trkpt>
		<trkpt lat="35.164294" lon="-106.465908">
			<ele>2008.21</ele>
			<time>2015-03-08T19:40:24Z</time>
			<fix>3d</fix>
		</trkpt>
		<trkpt lat="35.164290" lon="-106.465914">
			<ele>2008.19</ele>
			<time>2015-03-08T19:40:25Z</time>
			<fix>3d</fix>
		</trkpt>
		<trkpt lat="35.164289" lon="-106.465918">
			<ele>2008.17</ele>
			<time>2015-03-08T19:40:26Z</time>
			<fix>3d</fix>
		</trkpt>
		<trkpt lat="35.164281" lon="-106.465930">
			<ele>2008.16</ele>
			<time>2015-03-08T19:40:27Z</time>
			<fix>3d</fix>
		</trkpt>
		<trkpt lat="35.164272" lon="-106.465948">
			<ele>2008.04</ele>
			<time>2015-03-08T19:40:28Z</time>
			<fix>3d</fix>
		</trkpt>
		<trkpt lat="35.164265" lon="-106.465953">
			<ele>2007.72</ele>
			<time>2015-03-08T19:40:29Z</time>
			<fix>3d</fix>
		</trkpt>
		<trkpt lat="35.164257" lon="-106.465960">
			<ele>2007.71</ele>
			<time>2015-03-08T19:40:30Z</time>
			<fix>3d</fix>
		</trkpt>
		<trkpt lat="35.164249" lon="-106.465968">
			<ele>2007.69</ele>
			<time>2015-03-08T19:40:31Z</time>
			<fix>3d</fix>
		</trkpt>
		<trkpt lat="35.164240" lon="-106.465984">
			<ele>2007.57</ele>
			<time>2015-03-08T19:40:32Z</time>
			<fix>3d</fix>
		</trkpt>
		<trkpt lat="35.164234" lon="-106.465989">
			<ele>2007.25</ele>
			<time>2015-03-08T19:40:33Z</time>
			<fix>3d</fix>
		</trkpt>
		<trkpt lat="35.164227" lon="-106.466008">
			<ele>2007.24</ele>
			<time>2015-03-08T19:40:34Z</time>
			<fix>3d</fix>
		</trkpt>
		<trkpt lat="35.164219" lon="-106.466022">
			<ele>2007.12</ele>
			<time>2015-03-08T19:40:35Z</time>
			<fix>3d</fix>
		</trkpt>
		<trkpt lat="35.164210" lon="-106.466034">
			<ele>2007.11</ele>
			<time>2015-03-08T19:40:36Z</time>
			<fix>3d</fix>
		</trkpt>
		<trkpt lat="35.164204" lon="-106.466040">
			<ele>2006.99</ele>
			<time>2015-03-08T19:40:37Z</time>
			<fix>3d</fix>
		</trkpt>
		<trkpt lat="35.164196" lon="-106.466049">
			<ele>2006.77</ele>
			<time>2015-03-08T19:40:38Z</time>
			<fix>3d</fix>
		</trkpt>
		<trkpt lat="35.164188" lon="-106.466059">
			<ele>2006.66</ele>
			<time>2015-03-08T19:40:39Z</time>
			<fix>3d</fix>
		</trkpt>
		<trkpt lat="35.164179" lon="-106.466079">
			<ele>2006.34</ele>
			<time>2015-03-08T19:40:40Z</time>
			<fix>3d</fix>
		</trkpt>
		<trkpt lat="35.164173" lon="-106.466084">
			<ele>2005.72</ele>
			<time>2015-03-08T19:40:41Z</time>
			<fix>3d</fix>
		</trkpt>
		<trkpt lat="35.164164" lon="-106.466092">
			<ele>2005.71</ele>
			<time>2015-03-08T19:40:42Z</time>
			<fix>3d</fix>
		</trkpt>
		<trkpt lat="35.164152" lon="-106.466105">
			<ele>2005.69</ele>
			<time>2015-03-08T19:40:43Z</time>
			<fix>3d</fix>
		</trkpt>
		<trkpt lat="35.164140" lon="-106.466113">
			<ele>2005.68</ele>
			<time>2015-03-08T19:40:44Z</time>
			<fix>3d</fix>
		</trkpt>
		<trkpt lat="35.164130" lon="-106.466116">
			<ele>2005.67</ele>
			<time>2015-03-08T19:40:45Z</time>
			<fix>3d</fix>
		</trkpt>
		<trkpt lat="35.164118" lon="-106.466119">
			<ele>2005.65</ele>
			<time>2015-03-08T19:40:46Z</time>
			<fix>3d</fix>
		</trkpt>
		<trkpt lat="35.164106" lon="-106.466121">
			<ele>2005.54</ele>
			<time>2015-03-08T19:40:47Z</time>
			<fix>3d</fix>
		</trkpt>
		<trkpt lat="35.164091" lon="-106.466128">
			<ele>2005.43</ele>
			<time>2015-03-08T19:40:48Z</time>
			<fix>3d</fix>
		</trkpt>
		<trkpt lat="35.164075" lon="-106.466134">
			<ele>2005.11</ele>
			<time>2015-03-08T19:40:49Z</time>
			<fix>3d</fix>
		</trkpt>
		<trkpt lat="35.164071" lon="-106.466135">
			<ele>2004.79</ele>
			<time>2015-03-08T19:40:50Z</time>
			<fix>3d</fix>
		</trkpt>
		<trkpt lat="35.164052" lon="-106.466147">
			<ele>2004.58</ele>
			<time>2015-03-08T19:40:51Z</time>
			<fix>3d</fix>
		</trkpt>
		<trkpt lat="35.164043" lon="-106.466151">
			<ele>2004.47</ele>
			<time>2015-03-08T19:40:52Z</time>
			<fix>3d</fix>
		</trkpt>
		<trkpt lat="35.164030" lon="-106.466167">
			<ele>2004.45</ele>
			<time>2015-03-08T19:40:53Z</time>
			<fix>3d</fix>
		</trkpt>
		<trkpt lat="35.164022" lon="-106.466179">
			<ele>2004.44</ele>
			<time>2015-03-08T19:40:54Z</time>
			<fix>3d</fix>
		</trkpt>
		<trkpt lat="35.164016" lon="-106.466186">
			<ele>2004.33</ele>
			<time>2015-03-08T19:40:55Z</time>
			<fix>3d</fix>
		</trkpt>
		<trkpt lat="35.164007" lon="-106.466204">
			<ele>2004.32</ele>
			<time>2015-03-08T19:40:56Z</time>
			<fix>3d</fix>
		</trkpt>
		<trkpt lat="35.163998" lon="-106.466216">
			<ele>2004.31</ele>
			<time>2015-03-08T19:40:57Z</time>
			<fix>3d</fix>
		</trkpt>
		<trkpt lat="35.163986" lon="-106.466229">
			<ele>2004.30</ele>
			<time>2015-03-08T19:40:58Z</time>
			<fix>3d</fix>
		</trkpt>
		<trkpt lat="35.163975" lon="-106.466242">
			<ele>2004.19</ele>
			<time>2015-03-08T19:40:59Z</time>
			<fix>3d</fix>
		</trkpt>
		<trkpt lat="35.163965" lon="-106.466257">
			<ele>2004.18</ele>
			<time>2015-03-08T19:41:00Z</time>
			<fix>3d</fix>
		</trkpt>
		<trkpt lat="35.163953" lon="-106.466269">
			<ele>2004.16</ele>
			<time>2015-03-08T19:41:01Z</time>
			<fix>3d</fix>
		</trkpt>
		<trkpt lat="35.163944" lon="-106.466280">
			<ele>2004.15</ele>
			<time>2015-03-08T19:41:02Z</time>
			<fix>3d</fix>
		</trkpt>
		<trkpt lat="35.163935" lon="-106.466293">
			<ele>2004.14</ele>
			<time>2015-03-08T19:41:03Z</time>
			<fix>3d</fix>
		</trkpt>
		<trkpt lat="35.163927" lon="-106.466299">
			<ele>2004.13</ele>
			<time>2015-03-08T19:41:04Z</time>
			<fix>3d</fix>
		</trkpt>
		<trkpt lat="35.163918" lon="-106.466319">
			<ele>2004.12</ele>
			<time>2015-03-08T19:41:05Z</time>
			<fix>3d</fix>
		</trkpt>
		<trkpt lat="35.163910" lon="-106.466333">
			<ele>2004.11</ele>
			<time>2015-03-08T19:41:06Z</time>
			<fix>3d</fix>
		</trkpt>
		<trkpt lat="35.163899" lon="-106.466345">
			<ele>2004.00</ele>
			<time>2015-03-08T19:41:07Z</time>
			<fix>3d</fix>
		</trkpt>
		<trkpt lat="35.163891" lon="-106.466350">
			<ele>2003.04</ele>
			<time>2015-03-08T19:41:08Z</time>
			<fix>3d</fix>
		</trkpt>
		<trkpt lat="35.163881" lon="-106.466369">
			<ele>2003.03</ele>
			<time>2015-03-08T19:41:09Z</time>
			<fix>3d</fix>
		</trkpt>
		<trkpt lat="35.163872" lon="-106.466384">
			<ele>2003.02</ele>
			<time>2015-03-08T19:41:10Z</time>
			<fix>3d</fix>
		</trkpt>
		<trkpt lat="35.163862" lon="-106.466398">
			<ele>2003.01</ele>
			<time>2015-03-08T19:41:11Z</time>
			<fix>3d</fix>
		</trkpt>
		<trkpt lat="35.163855" lon="-106.466415">
			<ele>2003.00</ele>
			<time>2015-03-08T19:41:12Z</time>
			<fix>3d</fix>
		</trkpt>
		<trkpt lat="35.163847" lon="-106.466422">
			<ele>2002.99</ele>
			<time>2015-03-08T19:41:13Z</time>
			<fix>3d</fix>
		</trkpt>
		<trkpt lat="35.163838" lon="-106.466442">
			<ele>2002.98</ele>
			<time>2015-03-08T19:41:14Z</time>
			<fix>3d</fix>
		</trkpt>
		<trkpt lat="35.163834" lon="-106.466451">
			<ele>2002.97</ele>
			<time>2015-03-08T19:41:15Z</time>
			<fix>3d</fix>
		</trkpt>
		<trkpt lat="35.163825" lon="-106.466472">
			<ele>2002.86</ele>
			<time>2015-03-08T19:41:16Z</time>
			<fix>3d</fix>
		</trkpt>
		<trkpt lat="35.163818" lon="-106.466481">
			<ele>2002.75</ele>
			<time>2015-03-08T19:41:17Z</time>
			<fix>3d</fix>
		</trkpt>
		<trkpt lat="35.163810" lon="-106.466501">
			<ele>2002.33</ele>
			<time>2015-03-08T19:41:18Z</time>
			<fix>3d</fix>
		</trkpt>
		<trkpt lat="35.163802" lon="-106.466516">
			<ele>2002.22</ele>
			<time>2015-03-08T19:41:19Z</time>
			<fix>3d</fix>
		</trkpt>
		<trkpt lat="35.163796" lon="-106.466532">
			<ele>2002.21</ele>
			<time>2015-03-08T19:41:20Z</time>
			<fix>3d</fix>
		</trkpt>
		<trkpt lat="35.163790" lon="-106.466548">
			<ele>2002.20</ele>
			<time>2015-03-08T19:41:21Z</time>
			<fix>3d</fix>
		</trkpt>
		<trkpt lat="35.163785" lon="-106.466567">
			<ele>2002.09</ele>
			<time>2015-03-08T19:41:22Z</time>
			<fix>3d</fix>
		</trkpt>
		<trkpt lat="35.163781" lon="-106.466583">
			<ele>2002.19</ele>
			<time>2015-03-08T19:41:23Z</time>
			<fix>3d</fix>
		</trkpt>
		<trkpt lat="35.163777" lon="-106.466598">
			<ele>2002.18</ele>
			<time>2015-03-08T19:41:24Z</time>
			<fix>3d</fix>
		</trkpt>
		<trkpt lat="35.163774" lon="-106.466605">
			<ele>2002.17</ele>
			<time>2015-03-08T19:41:25Z</time>
			<fix>3d</fix>
		</trkpt>
		<trkpt lat="35.163773" lon="-106.466618">
			<ele>2002.16</ele>
			<time>2015-03-08T19:41:26Z</time>
			<fix>3d</fix>
		</trkpt>
		<trkpt lat="35.163772" lon="-106.466642">
			<ele>2002.05</ele>
			<time>2015-03-08T19:41:27Z</time>
			<fix>3d</fix>
		</trkpt>
		<trkpt lat="35.163770" lon="-106.466658">
			<ele>2002.15</ele>
			<time>2015-03-08T19:41:28Z</time>
			<fix>3d</fix>
		</trkpt>
		<trkpt lat="35.163769" lon="-106.466666">
			<ele>2002.14</ele>
			<time>2015-03-08T19:41:29Z</time>
			<fix>3d</fix>
		</trkpt>
		<trkpt lat="35.163767" lon="-106.466679">
			<ele>2002.03</ele>
			<time>2015-03-08T19:41:30Z</time>
			<fix>3d</fix>
		</trkpt>
		<trkpt lat="35.163769" lon="-106.466702">
			<ele>2002.02</ele>
			<time>2015-03-08T19:41:31Z</time>
			<fix>3d</fix>
		</trkpt>
		<trkpt lat="35.163770" lon="-106.466720">
			<ele>2001.91</ele>
			<time>2015-03-08T19:41:32Z</time>
			<fix>3d</fix>
		</trkpt>
		<trkpt lat="35.163768" lon="-106.466738">
			<ele>2002.00</ele>
			<time>2015-03-08T19:41:33Z</time>
			<fix>3d</fix>
		</trkpt>
		<trkpt lat="35.163764" lon="-106.466748">
			<ele>2001.99</ele>
			<time>2015-03-08T19:41:34Z</time>
			<fix>3d</fix>
		</trkpt>
		<trkpt lat="35.163761" lon="-106.466771">
			<ele>2001.98</ele>
			<time>2015-03-08T19:41:35Z</time>
			<fix>3d</fix>
		</trkpt>
		<trkpt lat="35.163758" lon="-106.466788">
			<ele>2001.87</ele>
			<time>2015-03-08T19:41:36Z</time>
			<fix>3d</fix>
		</trkpt>
		<trkpt lat="35.163756" lon="-106.466797">
			<ele>2001.86</ele>
			<time>2015-03-08T19:41:37Z</time>
			<fix>3d</fix>
		</trkpt>
		<trkpt lat="35.163754" lon="-106.466810">
			<ele>2001.85</ele>
			<time>2015-03-08T19:41:38Z</time>
			<fix>3d</fix>
		</trkpt>
		<trkpt lat="35.163754" lon="-106.466825">
			<ele>2001.84</ele>
			<time>2015-03-08T19:41:39Z</time>
			<fix>3d</fix>
		</trkpt>
		<trkpt lat="35.163754" lon="-106.466850">
			<ele>2001.83</ele>
			<time>2015-03-08T19:41:40Z</time>
			<fix>3d</fix>
		</trkpt>
		<trkpt lat="35.163753" lon="-106.466865">
			<ele>2001.72</ele>
			<time>2015-03-08T19:41:41Z</time>
			<fix>3d</fix>
		</trkpt>
		<trkpt lat="35.163751" lon="-106.466880">
			<ele>2001.71</ele>
			<time>2015-03-08T19:41:42Z</time>
			<fix>3d</fix>
		</trkpt>
		<trkpt lat="35.163751" lon="-106.466898">
			<ele>2001.60</ele>
			<time>2015-03-08T19:41:43Z</time>
			<fix>3d</fix>
		</trkpt>
		<trkpt lat="35.163750" lon="-106.466909">
			<ele>2001.39</ele>
			<time>2015-03-08T19:41:44Z</time>
			<fix>3d</fix>
		</trkpt>
		<trkpt lat="35.163748" lon="-106.466934">
			<ele>2001.18</ele>
			<time>2015-03-08T19:41:45Z</time>
			<fix>3d</fix>
		</trkpt>
		<trkpt lat="35.163744" lon="-106.466951">
			<ele>2001.17</ele>
			<time>2015-03-08T19:41:46Z</time>
			<fix>3d</fix>
		</trkpt>
		<trkpt lat="35.163739" lon="-106.466966">
			<ele>2001.06</ele>
			<time>2015-03-08T19:41:47Z</time>
			<fix>3d</fix>
		</trkpt>
		<trkpt lat="35.163737" lon="-106.466983">
			<ele>2001.05</ele>
			<time>2015-03-08T19:41:48Z</time>
			<fix>3d</fix>
		</trkpt>
		<trkpt lat="35.163735" lon="-106.466999">
			<ele>2000.94</ele>
			<time>2015-03-08T19:41:49Z</time>
			<fix>3d</fix>
		</trkpt>
		<trkpt lat="35.163732" lon="-106.467009">
			<ele>2000.73</ele>
			<time>2015-03-08T19:41:50Z</time>
			<fix>3d</fix>
		</trkpt>
		<trkpt lat="35.163733" lon="-106.467034">
			<ele>2000.72</ele>
			<time>2015-03-08T19:41:51Z</time>
			<fix>3d</fix>
		</trkpt>
		<trkpt lat="35.163733" lon="-106.467043">
			<ele>2000.61</ele>
			<time>2015-03-08T19:41:52Z</time>
			<fix>3d</fix>
		</trkpt>
		<trkpt lat="35.163737" lon="-106.467068">
			<ele>2000.49</ele>
			<time>2015-03-08T19:41:53Z</time>
			<fix>3d</fix>
		</trkpt>
		<trkpt lat="35.163738" lon="-106.467086">
			<ele>2000.08</ele>
			<time>2015-03-08T19:41:54Z</time>
			<fix>3d</fix>
		</trkpt>
		<trkpt lat="35.163738" lon="-106.467102">
			<ele>2000.07</ele>
			<time>2015-03-08T19:41:55Z</time>
			<fix>3d</fix>
		</trkpt>
		<trkpt lat="35.163739" lon="-106.467119">
			<ele>2000.06</ele>
			<time>2015-03-08T19:41:56Z</time>
			<fix>3d</fix>
		</trkpt>
		<trkpt lat="35.163740" lon="-106.467136">
			<ele>2000.05</ele>
			<time>2015-03-08T19:41:57Z</time>
			<fix>3d</fix>
		</trkpt>
		<trkpt lat="35.163738" lon="-106.467151">
			<ele>2000.04</ele>
			<time>2015-03-08T19:41:58Z</time>
			<fix>3d</fix>
		</trkpt>
		<trkpt lat="35.163735" lon="-106.467166">
			<ele>2000.03</ele>
			<time>2015-03-08T19:41:59Z</time>
			<fix>3d</fix>
		</trkpt>
		<trkpt lat="35.163732" lon="-106.467182">
			<ele>2000.02</ele>
			<time>2015-03-08T19:42:00Z</time>
			<fix>3d</fix>
		</trkpt>
		<trkpt lat="35.163731" lon="-106.467199">
			<ele>1999.91</ele>
			<time>2015-03-08T19:42:01Z</time>
			<fix>3d</fix>
		</trkpt>
		<trkpt lat="35.163728" lon="-106.467206">
			<ele>1999.90</ele>
			<time>2015-03-08T19:42:02Z</time>
			<fix>3d</fix>
		</trkpt>
		<trkpt lat="35.163727" lon="-106.467216">
			<ele>1999.89</ele>
			<time>2015-03-08T19:42:03Z</time>
			<fix>3d</fix>
		</trkpt>
		<trkpt lat="35.163727" lon="-106.467229">
			<ele>1999.88</ele>
			<time>2015-03-08T19:42:04Z</time>
			<fix>3d</fix>
		</trkpt>
		<trkpt lat="35.163727" lon="-106.467243">
			<ele>1999.67</ele>
			<time>2015-03-08T19:42:05Z</time>
			<fix>3d</fix>
		</trkpt>
		<trkpt lat="35.163726" lon="-106.467256">
			<ele>1999.15</ele>
			<time>2015-03-08T19:42:06Z</time>
			<fix>3d</fix>
		</trkpt>
		<trkpt lat="35.163725" lon="-106.467269">
			<ele>1999.24</ele>
			<time>2015-03-08T19:42:07Z</time>
			<fix>3d</fix>
		</trkpt>
		<trkpt lat="35.163725" lon="-106.467293">
			<ele>1998.11</ele>
			<time>2015-03-08T19:42:08Z</time>
			<fix>3d</fix>
		</trkpt>
		<trkpt lat="35.163723" lon="-106.467302">
			<ele>1998.10</ele>
			<time>2015-03-08T19:42:09Z</time>
			<fix>3d</fix>
		</trkpt>
		<trkpt lat="35.163721" lon="-106.467315">
			<ele>1998.09</ele>
			<time>2015-03-08T19:42:10Z</time>
			<fix>3d</fix>
		</trkpt>
		<trkpt lat="35.163721" lon="-106.467338">
			<ele>1998.08</ele>
			<time>2015-03-08T19:42:11Z</time>
			<fix>3d</fix>
		</trkpt>
		<trkpt lat="35.163722" lon="-106.467347">
			<ele>1997.97</ele>
			<time>2015-03-08T19:42:12Z</time>
			<fix>3d</fix>
		</trkpt>
		<trkpt lat="35.163728" lon="-106.467369">
			<ele>1997.86</ele>
			<time>2015-03-08T19:42:13Z</time>
			<fix>3d</fix>
		</trkpt>
		<trkpt lat="35.163732" lon="-106.467385">
			<ele>1997.85</ele>
			<time>2015-03-08T19:42:14Z</time>
			<fix>3d</fix>
		</trkpt>
		<trkpt lat="35.163733" lon="-106.467394">
			<ele>1997.54</ele>
			<time>2015-03-08T19:42:15Z</time>
			<fix>3d</fix>
		</trkpt>
		<trkpt lat="35.163736" lon="-106.467407">
			<ele>1997.13</ele>
			<time>2015-03-08T19:42:16Z</time>
			<fix>3d</fix>
		</trkpt>
		<trkpt lat="35.163740" lon="-106.467430">
			<ele>1997.12</ele>
			<time>2015-03-08T19:42:17Z</time>
			<fix>3d</fix>
		</trkpt>
		<trkpt lat="35.163739" lon="-106.467438">
			<ele>1997.11</ele>
			<time>2015-03-08T19:42:18Z</time>
			<fix>3d</fix>
		</trkpt>
		<trkpt lat="35.163741" lon="-106.467459">
			<ele>1996.99</ele>
			<time>2015-03-08T19:42:19Z</time>
			<fix>3d</fix>
		</trkpt>
		<trkpt lat="35.163743" lon="-106.467474">
			<ele>1996.88</ele>
			<time>2015-03-08T19:42:20Z</time>
			<fix>3d</fix>
		</trkpt>
		<trkpt lat="35.163742" lon="-106.467482">
			<ele>1996.87</ele>
			<time>2015-03-08T19:42:21Z</time>
			<fix>3d</fix>
		</trkpt>
		<trkpt lat="35.163744" lon="-106.467505">
			<ele>1996.86</ele>
			<time>2015-03-08T19:42:22Z</time>
			<fix>3d</fix>
		</trkpt>
		<trkpt lat="35.163745" lon="-106.467523">
			<ele>1996.85</ele>
			<time>2015-03-08T19:42:23Z</time>
			<fix>3d</fix>
		</trkpt>
		<trkpt lat="35.163745" lon="-106.467539">
			<ele>1996.84</ele>
			<time>2015-03-08T19:42:24Z</time>
			<fix>3d</fix>
		</trkpt>
		<trkpt lat="35.163745" lon="-106.467546">
			<ele>1996.73</ele>
			<time>2015-03-08T19:42:25Z</time>
			<fix>3d</fix>
		</trkpt>
		<trkpt lat="35.163745" lon="-106.467558">
			<ele>1996.72</ele>
			<time>2015-03-08T19:42:26Z</time>
			<fix>3d</fix>
		</trkpt>
		<trkpt lat="35.163746" lon="-106.467581">
			<ele>1996.71</ele>
			<time>2015-03-08T19:42:27Z</time>
			<fix>3d</fix>
		</trkpt>
		<trkpt lat="35.163745" lon="-106.467597">
			<ele>1996.70</ele>
			<time>2015-03-08T19:42:28Z</time>
			<fix>3d</fix>
		</trkpt>
		<trkpt lat="35.163743" lon="-106.467614">
			<ele>1996.59</ele>
			<time>2015-03-08T19:42:29Z</time>
			<fix>3d</fix>
		</trkpt>
		<trkpt lat="35.163741" lon="-106.467630">
			<ele>1996.37</ele>
			<time>2015-03-08T19:42:30Z</time>
			<fix>3d</fix>
		</trkpt>
		<trkpt lat="35.163740" lon="-106.467639">
			<ele>1996.36</ele>
			<time>2015-03-08T19:42:31Z</time>
			<fix>3d</fix>
		</trkpt>
		<trkpt lat="35.163742" lon="-106.467662">
			<ele>1996.35</ele>
			<time>2015-03-08T19:42:32Z</time>
			<fix>3d</fix>
		</trkpt>
		<trkpt lat="35.163742" lon="-106.467672">
			<ele>1996.34</ele>
			<time>2015-03-08T19:42:33Z</time>
			<fix>3d</fix>
		</trkpt>
		<trkpt lat="35.163746" lon="-106.467696">
			<ele>1996.33</ele>
			<time>2015-03-08T19:42:34Z</time>
			<fix>3d</fix>
		</trkpt>
		<trkpt lat="35.163746" lon="-106.467712">
			<ele>1996.21</ele>
			<time>2015-03-08T19:42:35Z</time>
			<fix>3d</fix>
		</trkpt>
		<trkpt lat="35.163744" lon="-106.467728">
			<ele>1996.00</ele>
			<time>2015-03-08T19:42:36Z</time>
			<fix>3d</fix>
		</trkpt>
		<trkpt lat="35.163743" lon="-106.467744">
			<ele>1995.89</ele>
			<time>2015-03-08T19:42:37Z</time>
			<fix>3d</fix>
		</trkpt>
		<trkpt lat="35.163741" lon="-106.467753">
			<ele>1995.87</ele>
			<time>2015-03-08T19:42:38Z</time>
			<fix>3d</fix>
		</trkpt>
		<trkpt lat="35.163741" lon="-106.467776">
			<ele>1995.76</ele>
			<time>2015-03-08T19:42:39Z</time>
			<fix>3d</fix>
		</trkpt>
		<trkpt lat="35.163741" lon="-106.467793">
			<ele>1995.65</ele>
			<time>2015-03-08T19:42:40Z</time>
			<fix>3d</fix>
		</trkpt>
		<trkpt lat="35.163739" lon="-106.467810">
			<ele>1995.33</ele>
			<time>2015-03-08T19:42:41Z</time>
			<fix>3d</fix>
		</trkpt>
		<trkpt lat="35.163738" lon="-106.467829">
			<ele>1994.92</ele>
			<time>2015-03-08T19:42:42Z</time>
			<fix>3d</fix>
		</trkpt>
		<trkpt lat="35.163735" lon="-106.467838">
			<ele>1995.01</ele>
			<time>2015-03-08T19:42:43Z</time>
			<fix>3d</fix>
		</trkpt>
		<trkpt lat="35.163732" lon="-106.467850">
			<ele>1995.00</ele>
			<time>2015-03-08T19:42:44Z</time>
			<fix>3d</fix>
		</trkpt>
		<trkpt lat="35.163729" lon="-106.467862">
			<ele>1994.89</ele>
			<time>2015-03-08T19:42:45Z</time>
			<fix>3d</fix>
		</trkpt>
		<trkpt lat="35.163728" lon="-106.467885">
			<ele>1994.87</ele>
			<time>2015-03-08T19:42:46Z</time>
			<fix>3d</fix>
		</trkpt>
		<trkpt lat="35.163728" lon="-106.467901">
			<ele>1994.76</ele>
			<time>2015-03-08T19:42:47Z</time>
			<fix>3d</fix>
		</trkpt>
		<trkpt lat="35.163728" lon="-106.467918">
			<ele>1994.75</ele>
			<time>2015-03-08T19:42:48Z</time>
			<fix>3d</fix>
		</trkpt>
		<trkpt lat="35.163728" lon="-106.467934">
			<ele>1994.54</ele>
			<time>2015-03-08T19:42:49Z</time>
			<fix>3d</fix>
		</trkpt>
		<trkpt lat="35.163728" lon="-106.467943">
			<ele>1994.33</ele>
			<time>2015-03-08T19:42:50Z</time>
			<fix>3d</fix>
		</trkpt>
		<trkpt lat="35.163731" lon="-106.467965">
			<ele>1994.32</ele>
			<time>2015-03-08T19:42:51Z</time>
			<fix>3d</fix>
		</trkpt>
		<trkpt lat="35.163730" lon="-106.467975">
			<ele>1994.31</ele>
			<time>2015-03-08T19:42:52Z</time>
			<fix>3d</fix>
		</trkpt>
		<trkpt lat="35.163730" lon="-106.467988">
			<ele>1994.19</ele>
			<time>2015-03-08T19:42:53Z</time>
			<fix>3d</fix>
		</trkpt>
		<trkpt lat="35.163728" lon="-106.468007">
			<ele>1994.18</ele>
			<time>2015-03-08T19:42:54Z</time>
			<fix>3d</fix>
		</trkpt>
		<trkpt lat="35.163727" lon="-106.468023">
			<ele>1994.17</ele>
			<time>2015-03-08T19:42:55Z</time>
			<fix>3d</fix>
		</trkpt>
		<trkpt lat="35.163726" lon="-106.468038">
			<ele>1993.96</ele>
			<time>2015-03-08T19:42:56Z</time>
			<fix>3d</fix>
		</trkpt>
		<trkpt lat="35.163724" lon="-106.468055">
			<ele>1993.95</ele>
			<time>2015-03-08T19:42:57Z</time>
			<fix>3d</fix>
		</trkpt>
		<trkpt lat="35.163722" lon="-106.468072">
			<ele>1993.94</ele>
			<time>2015-03-08T19:42:58Z</time>
			<fix>3d</fix>
		</trkpt>
		<trkpt lat="35.163721" lon="-106.468082">
			<ele>1993.83</ele>
			<time>2015-03-08T19:42:59Z</time>
			<fix>3d</fix>
		</trkpt>
		<trkpt lat="35.163722" lon="-106.468105">
			<ele>1993.82</ele>
			<time>2015-03-08T19:43:00Z</time>
			<fix>3d</fix>
		</trkpt>
		<trkpt lat="35.163722" lon="-106.468122">
			<ele>1993.81</ele>
			<time>2015-03-08T19:43:01Z</time>
			<fix>3d</fix>
		</trkpt>
		<trkpt lat="35.163720" lon="-106.468132">
			<ele>1993.70</ele>
			<time>2015-03-08T19:43:02Z</time>
			<fix>3d</fix>
		</trkpt>
		<trkpt lat="35.163720" lon="-106.468156">
			<ele>1993.69</ele>
			<time>2015-03-08T19:43:03Z</time>
			<fix>3d</fix>
		</trkpt>
		<trkpt lat="35.163716" lon="-106.468163">
			<ele>1993.58</ele>
			<time>2015-03-08T19:43:04Z</time>
			<fix>3d</fix>
		</trkpt>
		<trkpt lat="35.163713" lon="-106.468184">
			<ele>1993.57</ele>
			<time>2015-03-08T19:43:05Z</time>
			<fix>3d</fix>
		</trkpt>
		<trkpt lat="35.163708" lon="-106.468198">
			<ele>1993.56</ele>
			<time>2015-03-08T19:43:06Z</time>
			<fix>3d</fix>
		</trkpt>
		<trkpt lat="35.163703" lon="-106.468213">
			<ele>1993.55</ele>
			<time>2015-03-08T19:43:07Z</time>
			<fix>3d</fix>
		</trkpt>
		<trkpt lat="35.163696" lon="-106.468229">
			<ele>1992.24</ele>
			<time>2015-03-08T19:43:08Z</time>
			<fix>3d</fix>
		</trkpt>
		<trkpt lat="35.163687" lon="-106.468243">
			<ele>1992.13</ele>
			<time>2015-03-08T19:43:09Z</time>
			<fix>3d</fix>
		</trkpt>
		<trkpt lat="35.163681" lon="-106.468258">
			<ele>1991.82</ele>
			<time>2015-03-08T19:43:10Z</time>
			<fix>3d</fix>
		</trkpt>
		<trkpt lat="35.163677" lon="-106.468274">
			<ele>1991.81</ele>
			<time>2015-03-08T19:43:11Z</time>
			<fix>3d</fix>
		</trkpt>
		<trkpt lat="35.163674" lon="-106.468282">
			<ele>1991.80</ele>
			<time>2015-03-08T19:43:12Z</time>
			<fix>3d</fix>
		</trkpt>
		<trkpt lat="35.163672" lon="-106.468305">
			<ele>1991.59</ele>
			<time>2015-03-08T19:43:13Z</time>
			<fix>3d</fix>
		</trkpt>
		<trkpt lat="35.163670" lon="-106.468321">
			<ele>1991.27</ele>
			<time>2015-03-08T19:43:14Z</time>
			<fix>3d</fix>
		</trkpt>
		<trkpt lat="35.163668" lon="-106.468328">
			<ele>1990.96</ele>
			<time>2015-03-08T19:43:15Z</time>
			<fix>3d</fix>
		</trkpt>
		<trkpt lat="35.163665" lon="-106.468349">
			<ele>1990.95</ele>
			<time>2015-03-08T19:43:16Z</time>
			<fix>3d</fix>
		</trkpt>
		<trkpt lat="35.163661" lon="-106.468363">
			<ele>1990.94</ele>
			<time>2015-03-08T19:43:17Z</time>
			<fix>3d</fix>
		</trkpt>
		<trkpt lat="35.163657" lon="-106.468372">
			<ele>1990.93</ele>
			<time>2015-03-08T19:43:18Z</time>
			<fix>3d</fix>
		</trkpt>
		<trkpt lat="35.163651" lon="-106.468394">
			<ele>1990.92</ele>
			<time>2015-03-08T19:43:19Z</time>
			<fix>3d</fix>
		</trkpt>
		<trkpt lat="35.163642" lon="-106.468412">
			<ele>1990.92</ele>
			<time>2015-03-08T19:43:20Z</time>
			<fix>3d</fix>
		</trkpt>
		<trkpt lat="35.163636" lon="-106.468422">
			<ele>1990.91</ele>
			<time>2015-03-08T19:43:21Z</time>
			<fix>3d</fix>
		</trkpt>
		<trkpt lat="35.163631" lon="-106.468435">
			<ele>1990.90</ele>
			<time>2015-03-08T19:43:22Z</time>
			<fix>3d</fix>
		</trkpt>
		<trkpt lat="35.163626" lon="-106.468450">
			<ele>1990.79</ele>
			<time>2015-03-08T19:43:23Z</time>
			<fix>3d</fix>
		</trkpt>
		<trkpt lat="35.163622" lon="-106.468474">
			<ele>1990.78</ele>
			<time>2015-03-08T19:43:24Z</time>
			<fix>3d</fix>
		</trkpt>
		<trkpt lat="35.163620" lon="-106.468490">
			<ele>1990.67</ele>
			<time>2015-03-08T19:43:25Z</time>
			<fix>3d</fix>
		</trkpt>
		<trkpt lat="35.163617" lon="-106.468499">
			<ele>1990.56</ele>
			<time>2015-03-08T19:43:26Z</time>
			<fix>3d</fix>
		</trkpt>
		<trkpt lat="35.163613" lon="-106.468521">
			<ele>1990.55</ele>
			<time>2015-03-08T19:43:27Z</time>
			<fix>3d</fix>
		</trkpt>
		<trkpt lat="35.163609" lon="-106.468528">
			<ele>1990.44</ele>
			<time>2015-03-08T19:43:28Z</time>
			<fix>3d</fix>
		</trkpt>
		<trkpt lat="35.163603" lon="-106.468547">
			<ele>1990.43</ele>
			<time>2015-03-08T19:43:29Z</time>
			<fix>3d</fix>
		</trkpt>
		<trkpt lat="35.163599" lon="-106.468562">
			<ele>1990.32</ele>
			<time>2015-03-08T19:43:30Z</time>
			<fix>3d</fix>
		</trkpt>
		<trkpt lat="35.163595" lon="-106.468577">
			<ele>1990.21</ele>
			<time>2015-03-08T19:43:31Z</time>
			<fix>3d</fix>
		</trkpt>
		<trkpt lat="35.163589" lon="-106.468592">
			<ele>1990.21</ele>
			<time>2015-03-08T19:43:32Z</time>
			<fix>3d</fix>
		</trkpt>
		<trkpt lat="35.163582" lon="-106.468608">
			<ele>1989.29</ele>
			<time>2015-03-08T19:43:33Z</time>
			<fix>3d</fix>
		</trkpt>
		<trkpt lat="35.163576" lon="-106.468624">
			<ele>1989.08</ele>
			<time>2015-03-08T19:43:34Z</time>
			<fix>3d</fix>
		</trkpt>
		<trkpt lat="35.163569" lon="-106.468639">
			<ele>1989.07</ele>
			<time>2015-03-08T19:43:35Z</time>
			<fix>3d</fix>
		</trkpt>
		<trkpt lat="35.163563" lon="-106.468657">
			<ele>1989.06</ele>
			<time>2015-03-08T19:43:36Z</time>
			<fix>3d</fix>
		</trkpt>
		<trkpt lat="35.163558" lon="-106.468665">
			<ele>1988.85</ele>
			<time>2015-03-08T19:43:37Z</time>
			<fix>3d</fix>
		</trkpt>
		<trkpt lat="35.163551" lon="-106.468687">
			<ele>1988.95</ele>
			<time>2015-03-08T19:43:38Z</time>
			<fix>3d</fix>
		</trkpt>
		<trkpt lat="35.163548" lon="-106.468696">
			<ele>1988.84</ele>
			<time>2015-03-08T19:43:39Z</time>
			<fix>3d</fix>
		</trkpt>
		<trkpt lat="35.163545" lon="-106.468720">
			<ele>1988.83</ele>
			<time>2015-03-08T19:43:40Z</time>
			<fix>3d</fix>
		</trkpt>
		<trkpt lat="35.163541" lon="-106.468738">
			<ele>1988.72</ele>
			<time>2015-03-08T19:43:41Z</time>
			<fix>3d</fix>
		</trkpt>
		<trkpt lat="35.163537" lon="-106.468748">
			<ele>1988.61</ele>
			<time>2015-03-08T19:43:42Z</time>
			<fix>3d</fix>
		</trkpt>
		<trkpt lat="35.163531" lon="-106.468769">
			<ele>1988.51</ele>
			<time>2015-03-08T19:43:43Z</time>
			<fix>3d</fix>
		</trkpt>
		<trkpt lat="35.163525" lon="-106.468784">
			<ele>1988.50</ele>
			<time>2015-03-08T19:43:44Z</time>
			<fix>3d</fix>
		</trkpt>
		<trkpt lat="35.163520" lon="-106.468792">
			<ele>1988.49</ele>
			<time>2015-03-08T19:43:45Z</time>
			<fix>3d</fix>
		</trkpt>
		<trkpt lat="35.163515" lon="-106.468805">
			<ele>1988.48</ele>
			<time>2015-03-08T19:43:46Z</time>
			<fix>3d</fix>
		</trkpt>
		<trkpt lat="35.163511" lon="-106.468819">
			<ele>1988.28</ele>
			<time>2015-03-08T19:43:47Z</time>
			<fix>3d</fix>
		</trkpt>
		<trkpt lat="35.163507" lon="-106.468844">
			<ele>1988.17</ele>
			<time>2015-03-08T19:43:48Z</time>
			<fix>3d</fix>
		</trkpt>
		<trkpt lat="35.163500" lon="-106.468858">
			<ele>1988.16</ele>
			<time>2015-03-08T19:43:49Z</time>
			<fix>3d</fix>
		</trkpt>
		<trkpt lat="35.163492" lon="-106.468874">
			<ele>1988.15</ele>
			<time>2015-03-08T19:43:50Z</time>
			<fix>3d</fix>
		</trkpt>
		<trkpt lat="35.163482" lon="-106.468887">
			<ele>1988.05</ele>
			<time>2015-03-08T19:43:51Z</time>
			<fix>3d</fix>
		</trkpt>
		<trkpt lat="35.163472" lon="-106.468901">
			<ele>1988.04</ele>
			<time>2015-03-08T19:43:52Z</time>
			<fix>3d</fix>
		</trkpt>
		<trkpt lat="35.163463" lon="-106.468914">
			<ele>1987.83</ele>
			<time>2015-03-08T19:43:53Z</time>
			<fix>3d</fix>
		</trkpt>
		<trkpt lat="35.163456" lon="-106.468928">
			<ele>1987.73</ele>
			<time>2015-03-08T19:43:54Z</time>
			<fix>3d</fix>
		</trkpt>
		<trkpt lat="35.163450" lon="-106.468943">
			<ele>1987.62</ele>
			<time>2015-03-08T19:43:55Z</time>
			<fix>3d</fix>
		</trkpt>
		<trkpt lat="35.163446" lon="-106.468959">
			<ele>1987.11</ele>
			<time>2015-03-08T19:43:56Z</time>
			<fix>3d</fix>
		</trkpt>
		<trkpt lat="35.163445" lon="-106.468978">
			<ele>1986.60</ele>
			<time>2015-03-08T19:43:57Z</time>
			<fix>3d</fix>
		</trkpt>
		<trkpt lat="35.163441" lon="-106.468994">
			<ele>1986.60</ele>
			<time>2015-03-08T19:43:58Z</time>
			<fix>3d</fix>
		</trkpt>
		<trkpt lat="35.163436" lon="-106.469009">
			<ele>1986.69</ele>
			<time>2015-03-08T19:43:59Z</time>
			<fix>3d</fix>
		</trkpt>
		<trkpt lat="35.163431" lon="-106.469017">
			<ele>1986.68</ele>
			<time>2015-03-08T19:44:00Z</time>
			<fix>3d</fix>
		</trkpt>
		<trkpt lat="35.163424" lon="-106.469037">
			<ele>1986.88</ele>
			<time>2015-03-08T19:44:01Z</time>
			<fix>3d</fix>
		</trkpt>
		<trkpt lat="35.163419" lon="-106.469045">
			<ele>1986.87</ele>
			<time>2015-03-08T19:44:02Z</time>
			<fix>3d</fix>
		</trkpt>
		<trkpt lat="35.163414" lon="-106.469066">
			<ele>1986.96</ele>
			<time>2015-03-08T19:44:03Z</time>
			<fix>3d</fix>
		</trkpt>
		<trkpt lat="35.163409" lon="-106.469084">
			<ele>1986.96</ele>
			<time>2015-03-08T19:44:04Z</time>
			<fix>3d</fix>
		</trkpt>
		<trkpt lat="35.163405" lon="-106.469102">
			<ele>1986.85</ele>
			<time>2015-03-08T19:44:05Z</time>
			<fix>3d</fix>
		</trkpt>
		<trkpt lat="35.163400" lon="-106.469112">
			<ele>1986.84</ele>
			<time>2015-03-08T19:44:06Z</time>
			<fix>3d</fix>
		</trkpt>
		<trkpt lat="35.163394" lon="-106.469134">
			<ele>1986.84</ele>
			<time>2015-03-08T19:44:07Z</time>
			<fix>3d</fix>
		</trkpt>
		<trkpt lat="35.163391" lon="-106.469143">
			<ele>1985.82</ele>
			<time>2015-03-08T19:44:08Z</time>
			<fix>3d</fix>
		</trkpt>
		<trkpt lat="35.163388" lon="-106.469157">
			<ele>1985.71</ele>
			<time>2015-03-08T19:44:09Z</time>
			<fix>3d</fix>
		</trkpt>
		<trkpt lat="35.163385" lon="-106.469172">
			<ele>1985.60</ele>
			<time>2015-03-08T19:44:10Z</time>
			<fix>3d</fix>
		</trkpt>
		<trkpt lat="35.163382" lon="-106.469196">
			<ele>1985.49</ele>
			<time>2015-03-08T19:44:11Z</time>
			<fix>3d</fix>
		</trkpt>
		<trkpt lat="35.163381" lon="-106.469205">
			<ele>1985.39</ele>
			<time>2015-03-08T19:44:12Z</time>
			<fix>3d</fix>
		</trkpt>
		<trkpt lat="35.163379" lon="-106.469218">
			<ele>1985.38</ele>
			<time>2015-03-08T19:44:13Z</time>
			<fix>3d</fix>
		</trkpt>
		<trkpt lat="35.163378" lon="-106.469239">
			<ele>1985.17</ele>
			<time>2015-03-08T19:44:14Z</time>
			<fix>3d</fix>
		</trkpt>
		<trkpt lat="35.163373" lon="-106.469252">
			<ele>1985.16</ele>
			<time>2015-03-08T19:44:15Z</time>
			<fix>3d</fix>
		</trkpt>
		<trkpt lat="35.163368" lon="-106.469266">
			<ele>1985.16</ele>
			<time>2015-03-08T19:44:16Z</time>
			<fix>3d</fix>
		</trkpt>
		<trkpt lat="35.163365" lon="-106.469281">
			<ele>1985.15</ele>
			<time>2015-03-08T19:44:17Z</time>
			<fix>3d</fix>
		</trkpt>
		<trkpt lat="35.163363" lon="-106.469297">
			<ele>1985.04</ele>
			<time>2015-03-08T19:44:18Z</time>
			<fix>3d</fix>
		</trkpt>
		<trkpt lat="35.163363" lon="-106.469314">
			<ele>1985.03</ele>
			<time>2015-03-08T19:44:19Z</time>
			<fix>3d</fix>
		</trkpt>
		<trkpt lat="35.163366" lon="-106.469330">
			<ele>1985.03</ele>
			<time>2015-03-08T19:44:20Z</time>
			<fix>3d</fix>
		</trkpt>
		<trkpt lat="35.163367" lon="-106.469345">
			<ele>1984.92</ele>
			<time>2015-03-08T19:44:21Z</time>
			<fix>3d</fix>
		</trkpt>
		<trkpt lat="35.163368" lon="-106.469353">
			<ele>1984.81</ele>
			<time>2015-03-08T19:44:22Z</time>
			<fix>3d</fix>
		</trkpt>
		<trkpt lat="35.163370" lon="-106.469366">
			<ele>1984.70</ele>
			<time>2015-03-08T19:44:23Z</time>
			<fix>3d</fix>
		</trkpt>
		<trkpt lat="35.163370" lon="-106.469379">
			<ele>1984.49</ele>
			<time>2015-03-08T19:44:24Z</time>
			<fix>3d</fix>
		</trkpt>
		<trkpt lat="35.163371" lon="-106.469392">
			<ele>1984.29</ele>
			<time>2015-03-08T19:44:25Z</time>
			<fix>3d</fix>
		</trkpt>
		<trkpt lat="35.163373" lon="-106.469413">
			<ele>1984.18</ele>
			<time>2015-03-08T19:44:26Z</time>
			<fix>3d</fix>
		</trkpt>
		<trkpt lat="35.163374" lon="-106.469427">
			<ele>1984.17</ele>
			<time>2015-03-08T19:44:27Z</time>
			<fix>3d</fix>
		</trkpt>
		<trkpt lat="35.163373" lon="-106.469435">
			<ele>1984.16</ele>
			<time>2015-03-08T19:44:28Z</time>
			<fix>3d</fix>
		</trkpt>
		<trkpt lat="35.163373" lon="-106.469448">
			<ele>1984.16</ele>
			<time>2015-03-08T19:44:29Z</time>
			<fix>3d</fix>
		</trkpt>
		<trkpt lat="35.163379" lon="-106.469474">
			<ele>1984.15</ele>
			<time>2015-03-08T19:44:30Z</time>
			<fix>3d</fix>
		</trkpt>
		<trkpt lat="35.163381" lon="-106.469484">
			<ele>1984.04</ele>
			<time>2015-03-08T19:44:31Z</time>
			<fix>3d</fix>
		</trkpt>
		<trkpt lat="35.163384" lon="-106.469497">
			<ele>1984.03</ele>
			<time>2015-03-08T19:44:32Z</time>
			<fix>3d</fix>
		</trkpt>
		<trkpt lat="35.163387" lon="-106.469511">
			<ele>1984.02</ele>
			<time>2015-03-08T19:44:33Z</time>
			<fix>3d</fix>
		</trkpt>
		<trkpt lat="35.163389" lon="-106.469524">
			<ele>1983.92</ele>
			<time>2015-03-08T19:44:34Z</time>
			<fix>3d</fix>
		</trkpt>
		<trkpt lat="35.163390" lon="-106.469537">
			<ele>1983.91</ele>
			<time>2015-03-08T19:44:35Z</time>
			<fix>3d</fix>
		</trkpt>
		<trkpt lat="35.163391" lon="-106.469551">
			<ele>1983.90</ele>
			<time>2015-03-08T19:44:36Z</time>
			<fix>3d</fix>
		</trkpt>
		<trkpt lat="35.163396" lon="-106.469574">
			<ele>1983.79</ele>
			<time>2015-03-08T19:44:37Z</time>
			<fix>3d</fix>
		</trkpt>
		<trkpt lat="35.163399" lon="-106.469589">
			<ele>1983.78</ele>
			<time>2015-03-08T19:44:38Z</time>
			<fix>3d</fix>
		</trkpt>
		<trkpt lat="35.163397" lon="-106.469596">
			<ele>1983.67</ele>
			<time>2015-03-08T19:44:39Z</time>
			<fix>3d</fix>
		</trkpt>
		<trkpt lat="35.163395" lon="-106.469607">
			<ele>1983.66</ele>
			<time>2015-03-08T19:44:40Z</time>
			<fix>3d</fix>
		</trkpt>
		<trkpt lat="35.163391" lon="-106.469630">
			<ele>1983.65</ele>
			<time>2015-03-08T19:44:41Z</time>
			<fix>3d</fix>
		</trkpt>
		<trkpt lat="35.163384" lon="-106.469646">
			<ele>1983.54</ele>
			<time>2015-03-08T19:44:42Z</time>
			<fix>3d</fix>
		</trkpt>
		<trkpt lat="35.163377" lon="-106.469661">
			<ele>1983.54</ele>
			<time>2015-03-08T19:44:43Z</time>
			<fix>3d</fix>
		</trkpt>
		<trkpt lat="35.163369" lon="-106.469675">
			<ele>1983.43</ele>
			<time>2015-03-08T19:44:44Z</time>
			<fix>3d</fix>
		</trkpt>
		<trkpt lat="35.163363" lon="-106.469682">
			<ele>1983.32</ele>
			<time>2015-03-08T19:44:45Z</time>
			<fix>3d</fix>
		</trkpt>
		<trkpt lat="35.163358" lon="-106.469704">
			<ele>1983.31</ele>
			<time>2015-03-08T19:44:46Z</time>
			<fix>3d</fix>
		</trkpt>
		<trkpt lat="35.163354" lon="-106.469720">
			<ele>1983.30</ele>
			<time>2015-03-08T19:44:47Z</time>
			<fix>3d</fix>
		</trkpt>
		<trkpt lat="35.163350" lon="-106.469736">
			<ele>1983.09</ele>
			<time>2015-03-08T19:44:48Z</time>
			<fix>3d</fix>
		</trkpt>
		<trkpt lat="35.163347" lon="-106.469752">
			<ele>1982.88</ele>
			<time>2015-03-08T19:44:49Z</time>
			<fix>3d</fix>
		</trkpt>
		<trkpt lat="35.163345" lon="-106.469766">
			<ele>1982.87</ele>
			<time>2015-03-08T19:44:50Z</time>
			<fix>3d</fix>
		</trkpt>
		<trkpt lat="35.163342" lon="-106.469773">
			<ele>1982.76</ele>
			<time>2015-03-08T19:44:51Z</time>
			<fix>3d</fix>
		</trkpt>
		<trkpt lat="35.163339" lon="-106.469784">
			<ele>1982.75</ele>
			<time>2015-03-08T19:44:52Z</time>
			<fix>3d</fix>
		</trkpt>
		<trkpt lat="35.163337" lon="-106.469807">
			<ele>1982.64</ele>
			<time>2015-03-08T19:44:53Z</time>
			<fix>3d</fix>
		</trkpt>
		<trkpt lat="35.163333" lon="-106.469816">
			<ele>1982.43</ele>
			<time>2015-03-08T19:44:54Z</time>
			<fix>3d</fix>
		</trkpt>
		<trkpt lat="35.163330" lon="-106.469840">
			<ele>1982.32</ele>
			<time>2015-03-08T19:44:55Z</time>
			<fix>3d</fix>
		</trkpt>
		<trkpt lat="35.163325" lon="-106.469855">
			<ele>1982.31</ele>
			<time>2015-03-08T19:44:56Z</time>
			<fix>3d</fix>
		</trkpt>
		<trkpt lat="35.163321" lon="-106.469862">
			<ele>1982.31</ele>
			<time>2015-03-08T19:44:57Z</time>
			<fix>3d</fix>
		</trkpt>
		<trkpt lat="35.163318" lon="-106.469883">
			<ele>1982.30</ele>
			<time>2015-03-08T19:44:58Z</time>
			<fix>3d</fix>
		</trkpt>
		<trkpt lat="35.163316" lon="-106.469898">
			<ele>1982.19</ele>
			<time>2015-03-08T19:44:59Z</time>
			<fix>3d</fix>
		</trkpt>
		<trkpt lat="35.163314" lon="-106.469907">
			<ele>1982.18</ele>
			<time>2015-03-08T19:45:00Z</time>
			<fix>3d</fix>
		</trkpt>
		<trkpt lat="35.163312" lon="-106.469931">
			<ele>1981.97</ele>
			<time>2015-03-08T19:45:01Z</time>
			<fix>3d</fix>
		</trkpt>
		<trkpt lat="35.163310" lon="-106.469948">
			<ele>1981.76</ele>
			<time>2015-03-08T19:45:02Z</time>
			<fix>3d</fix>
		</trkpt>
		<trkpt lat="35.163310" lon="-106.469964">
			<ele>1981.55</ele>
			<time>2015-03-08T19:45:03Z</time>
			<fix>3d</fix>
		</trkpt>
		<trkpt lat="35.163310" lon="-106.469979">
			<ele>1981.54</ele>
			<time>2015-03-08T19:45:04Z</time>
			<fix>3d</fix>
		</trkpt>
		<trkpt lat="35.163308" lon="-106.469994">
			<ele>1981.53</ele>
			<time>2015-03-08T19:45:05Z</time>
			<fix>3d</fix>
		</trkpt>
		<trkpt lat="35.163306" lon="-106.470002">
			<ele>1981.42</ele>
			<time>2015-03-08T19:45:06Z</time>
			<fix>3d</fix>
		</trkpt>
		<trkpt lat="35.163304" lon="-106.470024">
			<ele>1981.31</ele>
			<time>2015-03-08T19:45:07Z</time>
			<fix>3d</fix>
		</trkpt>
		<trkpt lat="35.163302" lon="-106.470034">
			<ele>1980.16</ele>
			<time>2015-03-08T19:45:08Z</time>
			<fix>3d</fix>
		</trkpt>
		<trkpt lat="35.163302" lon="-106.470057">
			<ele>1980.15</ele>
			<time>2015-03-08T19:45:09Z</time>
			<fix>3d</fix>
		</trkpt>
		<trkpt lat="35.163303" lon="-106.470074">
			<ele>1980.15</ele>
			<time>2015-03-08T19:45:10Z</time>
			<fix>3d</fix>
		</trkpt>
		<trkpt lat="35.163302" lon="-106.470088">
			<ele>1980.04</ele>
			<time>2015-03-08T19:45:11Z</time>
			<fix>3d</fix>
		</trkpt>
		<trkpt lat="35.163300" lon="-106.470101">
			<ele>1980.03</ele>
			<time>2015-03-08T19:45:12Z</time>
			<fix>3d</fix>
		</trkpt>
		<trkpt lat="35.163299" lon="-106.470111">
			<ele>1980.02</ele>
			<time>2015-03-08T19:45:13Z</time>
			<fix>3d</fix>
		</trkpt>
		<trkpt lat="35.163296" lon="-106.470122">
			<ele>1979.91</ele>
			<time>2015-03-08T19:45:14Z</time>
			<fix>3d</fix>
		</trkpt>
		<trkpt lat="35.163293" lon="-106.470133">
			<ele>1979.80</ele>
			<time>2015-03-08T19:45:15Z</time>
			<fix>3d</fix>
		</trkpt>
		<trkpt lat="35.163292" lon="-106.470155">
			<ele>1979.79</ele>
			<time>2015-03-08T19:45:16Z</time>
			<fix>3d</fix>
		</trkpt>
		<trkpt lat="35.163294" lon="-106.470173">
			<ele>1979.68</ele>
			<time>2015-03-08T19:45:17Z</time>
			<fix>3d</fix>
		</trkpt>
		<trkpt lat="35.163297" lon="-106.470189">
			<ele>1979.67</ele>
			<time>2015-03-08T19:45:18Z</time>
			<fix>3d</fix>
		</trkpt>
		<trkpt lat="35.163301" lon="-106.470206">
			<ele>1979.36</ele>
			<time>2015-03-08T19:45:19Z</time>
			<fix>3d</fix>
		</trkpt>
		<trkpt lat="35.163305" lon="-106.470220">
			<ele>1979.36</ele>
			<time>2015-03-08T19:45:20Z</time>
			<fix>3d</fix>
		</trkpt>
		<trkpt lat="35.163311" lon="-106.470232">
			<ele>1979.25</ele>
			<time>2015-03-08T19:45:21Z</time>
			<fix>3d</fix>
		</trkpt>
		<trkpt lat="35.163317" lon="-106.470238">
			<ele>1979.24</ele>
			<time>2015-03-08T19:45:22Z</time>
			<fix>3d</fix>
		</trkpt>
		<trkpt lat="35.163325" lon="-106.470248">
			<ele>1979.23</ele>
			<time>2015-03-08T19:45:23Z</time>
			<fix>3d</fix>
		</trkpt>
		<trkpt lat="35.163332" lon="-106.470259">
			<ele>1979.12</ele>
			<time>2015-03-08T19:45:24Z</time>
			<fix>3d</fix>
		</trkpt>
		<trkpt lat="35.163341" lon="-106.470278">
			<ele>1979.01</ele>
			<time>2015-03-08T19:45:25Z</time>
			<fix>3d</fix>
		</trkpt>
		<trkpt lat="35.163346" lon="-106.470292">
			<ele>1979.00</ele>
			<time>2015-03-08T19:45:26Z</time>
			<fix>3d</fix>
		</trkpt>
		<trkpt lat="35.163350" lon="-106.470309">
			<ele>1978.79</ele>
			<time>2015-03-08T19:45:27Z</time>
			<fix>3d</fix>
		</trkpt>
		<trkpt lat="35.163353" lon="-106.470325">
			<ele>1978.68</ele>
			<time>2015-03-08T19:45:28Z</time>
			<fix>3d</fix>
		</trkpt>
		<trkpt lat="35.163357" lon="-106.470335">
			<ele>1978.57</ele>
			<time>2015-03-08T19:45:29Z</time>
			<fix>3d</fix>
		</trkpt>
		<trkpt lat="35.163362" lon="-106.470347">
			<ele>1978.57</ele>
			<time>2015-03-08T19:45:30Z</time>
			<fix>3d</fix>
		</trkpt>
		<trkpt lat="35.163367" lon="-106.470358">
			<ele>1978.56</ele>
			<time>2015-03-08T19:45:31Z</time>
			<fix>3d</fix>
		</trkpt>
		<trkpt lat="35.163374" lon="-106.470379">
			<ele>1978.45</ele>
			<time>2015-03-08T19:45:32Z</time>
			<fix>3d</fix>
		</trkpt>
		<trkpt lat="35.163380" lon="-106.470393">
			<ele>1978.44</ele>
			<time>2015-03-08T19:45:33Z</time>
			<fix>3d</fix>
		</trkpt>
		<trkpt lat="35.163386" lon="-106.470407">
			<ele>1978.33</ele>
			<time>2015-03-08T19:45:34Z</time>
			<fix>3d</fix>
		</trkpt>
		<trkpt lat="35.163389" lon="-106.470415">
			<ele>1977.72</ele>
			<time>2015-03-08T19:45:35Z</time>
			<fix>3d</fix>
		</trkpt>
		<trkpt lat="35.163392" lon="-106.470426">
			<ele>1977.11</ele>
			<time>2015-03-08T19:45:36Z</time>
			<fix>3d</fix>
		</trkpt>
		<trkpt lat="35.163396" lon="-106.470448">
			<ele>1977.10</ele>
			<time>2015-03-08T19:45:37Z</time>
			<fix>3d</fix>
		</trkpt>
		<trkpt lat="35.163396" lon="-106.470455">
			<ele>1977.09</ele>
			<time>2015-03-08T19:45:38Z</time>
			<fix>3d</fix>
		</trkpt>
		<trkpt lat="35.163397" lon="-106.470477">
			<ele>1977.08</ele>
			<time>2015-03-08T19:45:39Z</time>
			<fix>3d</fix>
		</trkpt>
		<trkpt lat="35.163396" lon="-106.470486">
			<ele>1976.98</ele>
			<time>2015-03-08T19:45:40Z</time>
			<fix>3d</fix>
		</trkpt>
		<trkpt lat="35.163395" lon="-106.470499">
			<ele>1977.07</ele>
			<time>2015-03-08T19:45:41Z</time>
			<fix>3d</fix>
		</trkpt>
		<trkpt lat="35.163397" lon="-106.470520">
			<ele>1976.96</ele>
			<time>2015-03-08T19:45:42Z</time>
			<fix>3d</fix>
		</trkpt>
		<trkpt lat="35.163401" lon="-106.470535">
			<ele>1976.95</ele>
			<time>2015-03-08T19:45:43Z</time>
			<fix>3d</fix>
		</trkpt>
		<trkpt lat="35.163403" lon="-106.470543">
			<ele>1977.14</ele>
			<time>2015-03-08T19:45:44Z</time>
			<fix>3d</fix>
		</trkpt>
		<trkpt lat="35.163406" lon="-106.470555">
			<ele>1977.03</ele>
			<time>2015-03-08T19:45:45Z</time>
			<fix>3d</fix>
		</trkpt>
		<trkpt lat="35.163409" lon="-106.470577">
			<ele>1976.92</ele>
			<time>2015-03-08T19:45:46Z</time>
			<fix>3d</fix>
		</trkpt>
		<trkpt lat="35.163410" lon="-106.470591">
			<ele>1976.81</ele>
			<time>2015-03-08T19:45:47Z</time>
			<fix>3d</fix>
		</trkpt>
		<trkpt lat="35.163409" lon="-106.470600">
			<ele>1976.80</ele>
			<time>2015-03-08T19:45:48Z</time>
			<fix>3d</fix>
		</trkpt>
		<trkpt lat="35.163410" lon="-106.470616">
			<ele>1976.79</ele>
			<time>2015-03-08T19:45:49Z</time>
			<fix>3d</fix>
		</trkpt>
		<trkpt lat="35.163411" lon="-106.470625">
			<ele>1976.68</ele>
			<time>2015-03-08T19:45:50Z</time>
			<fix>3d</fix>
		</trkpt>
		<trkpt lat="35.163416" lon="-106.470639">
			<ele>1976.57</ele>
			<time>2015-03-08T19:45:51Z</time>
			<fix>3d</fix>
		</trkpt>
		<trkpt lat="35.163419" lon="-106.470643">
			<ele>1976.36</ele>
			<time>2015-03-08T19:45:52Z</time>
			<fix>3d</fix>
		</trkpt>
		<trkpt lat="35.163431" lon="-106.470657">
			<ele>1975.65</ele>
			<time>2015-03-08T19:46:04Z</time>
			<fix>3d</fix>
		</trkpt>
		<trkpt lat="35.163430" lon="-106.470655">
			<ele>1975.64</ele>
			<time>2015-03-08T19:46:05Z</time>
			<fix>3d</fix>
		</trkpt>
		<trkpt lat="35.163429" lon="-106.470675">
			<ele>1974.13</ele>
			<time>2015-03-08T19:46:27Z</time>
			<fix>3d</fix>
		</trkpt>
		<trkpt lat="35.163437" lon="-106.470680">
			<ele>1974.52</ele>
			<time>2015-03-08T19:47:06Z</time>
			<fix>3d</fix>
		</trkpt>
		<trkpt lat="35.163439" lon="-106.470682">
			<ele>1974.07</ele>
			<time>2015-03-08T19:47:20Z</time>
			<fix>3d</fix>
		</trkpt>
		<extensions>
			<gte:name>#1</gte:name>
			<gte:color>#fbaf00</gte:color>
		</extensions>
	</trkseg>
</trk>
</gpx>